<?xml version="1.0" encoding="UTF-8" standalone="no" ?>
<gpx xmlns="http://www.topografix.com/GPX/1/1" xmlns:xsi="http://www.w3.org/2001/XMLSchema-instance" xsi:schemaLocation="http://www.topografix.com/GPX/1/1 http://www.topografix.com/GPX/1/1/gpx.xsd" version="1.1" creator="VisuGPX - https://www.visugpx.com">
  <metadata>
    <name>Rando_Bethoncourt_13avril2014_55km</name>
    <desc><![CDATA[rando officielle
parcours 55km sauf une boucle par erreur]]></desc>
  </metadata>
  <trk>
    <name><![CDATA[2014-04-13-08-36-35 on GPSies.com]]></name>
    <trkseg>
      <trkpt lat="47.53422" lon="6.7883">
        <ele>330</ele>
        <time>2014-04-13T08:36:35Z</time>
      </trkpt>
      <trkpt lat="47.53425" lon="6.78829">
        <ele>330</ele>
        <time>2014-04-13T08:36:36Z</time>
      </trkpt>
      <trkpt lat="47.53432" lon="6.78826">
        <ele>330</ele>
        <time>2014-04-13T08:36:38Z</time>
      </trkpt>
      <trkpt lat="47.53435" lon="6.78825">
        <ele>331</ele>
        <time>2014-04-13T08:36:39Z</time>
      </trkpt>
      <trkpt lat="47.53443" lon="6.78821">
        <ele>331</ele>
        <time>2014-04-13T08:36:42Z</time>
      </trkpt>
      <trkpt lat="47.53462" lon="6.7881">
        <ele>331</ele>
        <time>2014-04-13T08:36:49Z</time>
      </trkpt>
      <trkpt lat="47.53478" lon="6.78794">
        <ele>331</ele>
        <time>2014-04-13T08:36:55Z</time>
      </trkpt>
      <trkpt lat="47.5348" lon="6.78791">
        <ele>332</ele>
        <time>2014-04-13T08:36:56Z</time>
      </trkpt>
      <trkpt lat="47.53485" lon="6.78784">
        <ele>332</ele>
        <time>2014-04-13T08:36:57Z</time>
      </trkpt>
      <trkpt lat="47.53487" lon="6.78781">
        <ele>333</ele>
        <time>2014-04-13T08:36:59Z</time>
      </trkpt>
      <trkpt lat="47.53498" lon="6.78758">
        <ele>333</ele>
        <time>2014-04-13T08:37:05Z</time>
      </trkpt>
      <trkpt lat="47.53503" lon="6.78746">
        <ele>333</ele>
        <time>2014-04-13T08:37:08Z</time>
      </trkpt>
      <trkpt lat="47.53504" lon="6.78741">
        <ele>334</ele>
        <time>2014-04-13T08:37:09Z</time>
      </trkpt>
      <trkpt lat="47.53505" lon="6.78736">
        <ele>334</ele>
        <time>2014-04-13T08:37:10Z</time>
      </trkpt>
      <trkpt lat="47.53506" lon="6.78731">
        <ele>334</ele>
        <time>2014-04-13T08:37:11Z</time>
      </trkpt>
      <trkpt lat="47.53507" lon="6.78727">
        <ele>335</ele>
        <time>2014-04-13T08:37:12Z</time>
      </trkpt>
      <trkpt lat="47.53508" lon="6.78722">
        <ele>335</ele>
        <time>2014-04-13T08:37:13Z</time>
      </trkpt>
      <trkpt lat="47.53509" lon="6.78683">
        <ele>335</ele>
        <time>2014-04-13T08:37:20Z</time>
      </trkpt>
      <trkpt lat="47.53509" lon="6.78638">
        <ele>335</ele>
        <time>2014-04-13T08:37:28Z</time>
      </trkpt>
      <trkpt lat="47.53508" lon="6.78624">
        <ele>335</ele>
        <time>2014-04-13T08:37:31Z</time>
      </trkpt>
      <trkpt lat="47.53508" lon="6.78603">
        <ele>335</ele>
        <time>2014-04-13T08:37:35Z</time>
      </trkpt>
      <trkpt lat="47.53506" lon="6.78568">
        <ele>335</ele>
        <time>2014-04-13T08:37:42Z</time>
      </trkpt>
      <trkpt lat="47.53506" lon="6.78558">
        <ele>335</ele>
        <time>2014-04-13T08:37:44Z</time>
      </trkpt>
      <trkpt lat="47.53505" lon="6.78542">
        <ele>335</ele>
        <time>2014-04-13T08:37:47Z</time>
      </trkpt>
      <trkpt lat="47.53504" lon="6.7851">
        <ele>335</ele>
        <time>2014-04-13T08:37:53Z</time>
      </trkpt>
      <trkpt lat="47.53506" lon="6.78473">
        <ele>335</ele>
        <time>2014-04-13T08:38:00Z</time>
      </trkpt>
      <trkpt lat="47.53513" lon="6.78437">
        <ele>335</ele>
        <time>2014-04-13T08:38:07Z</time>
      </trkpt>
      <trkpt lat="47.53515" lon="6.78427">
        <ele>335</ele>
        <time>2014-04-13T08:38:09Z</time>
      </trkpt>
      <trkpt lat="47.5352" lon="6.78407">
        <ele>335</ele>
        <time>2014-04-13T08:38:13Z</time>
      </trkpt>
      <trkpt lat="47.53524" lon="6.78391">
        <ele>335</ele>
        <time>2014-04-13T08:38:16Z</time>
      </trkpt>
      <trkpt lat="47.53532" lon="6.78361">
        <ele>335</ele>
        <time>2014-04-13T08:38:22Z</time>
      </trkpt>
      <trkpt lat="47.53535" lon="6.78351">
        <ele>335</ele>
        <time>2014-04-13T08:38:24Z</time>
      </trkpt>
      <trkpt lat="47.53548" lon="6.7831">
        <ele>335</ele>
        <time>2014-04-13T08:38:32Z</time>
      </trkpt>
      <trkpt lat="47.53559" lon="6.78282">
        <ele>335</ele>
        <time>2014-04-13T08:38:37Z</time>
      </trkpt>
      <trkpt lat="47.53561" lon="6.78277">
        <ele>335</ele>
        <time>2014-04-13T08:38:38Z</time>
      </trkpt>
      <trkpt lat="47.53563" lon="6.78272">
        <ele>335</ele>
        <time>2014-04-13T08:38:39Z</time>
      </trkpt>
      <trkpt lat="47.53573" lon="6.78252">
        <ele>335</ele>
        <time>2014-04-13T08:38:43Z</time>
      </trkpt>
      <trkpt lat="47.53575" lon="6.78247">
        <ele>335</ele>
        <time>2014-04-13T08:38:44Z</time>
      </trkpt>
      <trkpt lat="47.53578" lon="6.78242">
        <ele>335</ele>
        <time>2014-04-13T08:38:45Z</time>
      </trkpt>
      <trkpt lat="47.53588" lon="6.78226">
        <ele>335</ele>
        <time>2014-04-13T08:38:48Z</time>
      </trkpt>
      <trkpt lat="47.53591" lon="6.78206">
        <ele>335</ele>
        <time>2014-04-13T08:38:51Z</time>
      </trkpt>
      <trkpt lat="47.53595" lon="6.78196">
        <ele>335</ele>
        <time>2014-04-13T08:38:53Z</time>
      </trkpt>
      <trkpt lat="47.53601" lon="6.78188">
        <ele>335</ele>
        <time>2014-04-13T08:38:55Z</time>
      </trkpt>
      <trkpt lat="47.53608" lon="6.7818">
        <ele>335</ele>
        <time>2014-04-13T08:38:57Z</time>
      </trkpt>
      <trkpt lat="47.53611" lon="6.78177">
        <ele>334</ele>
        <time>2014-04-13T08:38:58Z</time>
      </trkpt>
      <trkpt lat="47.53615" lon="6.78173">
        <ele>334</ele>
        <time>2014-04-13T08:38:59Z</time>
      </trkpt>
      <trkpt lat="47.53619" lon="6.78169">
        <ele>334</ele>
        <time>2014-04-13T08:39:00Z</time>
      </trkpt>
      <trkpt lat="47.53623" lon="6.78165">
        <ele>333</ele>
        <time>2014-04-13T08:39:01Z</time>
      </trkpt>
      <trkpt lat="47.53627" lon="6.7816">
        <ele>333</ele>
        <time>2014-04-13T08:39:02Z</time>
      </trkpt>
      <trkpt lat="47.53639" lon="6.78149">
        <ele>333</ele>
        <time>2014-04-13T08:39:05Z</time>
      </trkpt>
      <trkpt lat="47.53658" lon="6.78133">
        <ele>333</ele>
        <time>2014-04-13T08:39:09Z</time>
      </trkpt>
      <trkpt lat="47.53695" lon="6.781">
        <ele>333</ele>
        <time>2014-04-13T08:39:17Z</time>
      </trkpt>
      <trkpt lat="47.537" lon="6.78096">
        <ele>332</ele>
        <time>2014-04-13T08:39:18Z</time>
      </trkpt>
      <trkpt lat="47.53704" lon="6.78092">
        <ele>332</ele>
        <time>2014-04-13T08:39:19Z</time>
      </trkpt>
      <trkpt lat="47.53708" lon="6.78086">
        <ele>332</ele>
        <time>2014-04-13T08:39:20Z</time>
      </trkpt>
      <trkpt lat="47.53709" lon="6.78078">
        <ele>331</ele>
        <time>2014-04-13T08:39:21Z</time>
      </trkpt>
      <trkpt lat="47.53709" lon="6.78071">
        <ele>331</ele>
        <time>2014-04-13T08:39:22Z</time>
      </trkpt>
      <trkpt lat="47.53705" lon="6.78058">
        <ele>331</ele>
        <time>2014-04-13T08:39:24Z</time>
      </trkpt>
      <trkpt lat="47.53697" lon="6.78041">
        <ele>331</ele>
        <time>2014-04-13T08:39:28Z</time>
      </trkpt>
      <trkpt lat="47.53693" lon="6.78028">
        <ele>332</ele>
        <time>2014-04-13T08:39:31Z</time>
      </trkpt>
      <trkpt lat="47.53692" lon="6.78024">
        <ele>332</ele>
        <time>2014-04-13T08:39:32Z</time>
      </trkpt>
      <trkpt lat="47.53691" lon="6.7802">
        <ele>333</ele>
        <time>2014-04-13T08:39:33Z</time>
      </trkpt>
      <trkpt lat="47.53691" lon="6.78017">
        <ele>333</ele>
        <time>2014-04-13T08:39:34Z</time>
      </trkpt>
      <trkpt lat="47.53691" lon="6.7801">
        <ele>333</ele>
        <time>2014-04-13T08:39:36Z</time>
      </trkpt>
      <trkpt lat="47.53691" lon="6.78002">
        <ele>333</ele>
        <time>2014-04-13T08:39:38Z</time>
      </trkpt>
      <trkpt lat="47.5369" lon="6.77997">
        <ele>334</ele>
        <time>2014-04-13T08:39:39Z</time>
      </trkpt>
      <trkpt lat="47.5369" lon="6.77992">
        <ele>334</ele>
        <time>2014-04-13T08:39:40Z</time>
      </trkpt>
      <trkpt lat="47.5369" lon="6.77988">
        <ele>335</ele>
        <time>2014-04-13T08:39:41Z</time>
      </trkpt>
      <trkpt lat="47.5369" lon="6.77983">
        <ele>335</ele>
        <time>2014-04-13T08:39:42Z</time>
      </trkpt>
      <trkpt lat="47.53688" lon="6.7796">
        <ele>335</ele>
        <time>2014-04-13T08:39:47Z</time>
      </trkpt>
      <trkpt lat="47.53686" lon="6.77948">
        <ele>336</ele>
        <time>2014-04-13T08:39:50Z</time>
      </trkpt>
      <trkpt lat="47.53686" lon="6.77943">
        <ele>336</ele>
        <time>2014-04-13T08:39:51Z</time>
      </trkpt>
      <trkpt lat="47.53685" lon="6.77939">
        <ele>336</ele>
        <time>2014-04-13T08:39:52Z</time>
      </trkpt>
      <trkpt lat="47.53685" lon="6.77935">
        <ele>337</ele>
        <time>2014-04-13T08:39:53Z</time>
      </trkpt>
      <trkpt lat="47.53684" lon="6.77931">
        <ele>337</ele>
        <time>2014-04-13T08:39:54Z</time>
      </trkpt>
      <trkpt lat="47.53682" lon="6.77913">
        <ele>337</ele>
        <time>2014-04-13T08:39:59Z</time>
      </trkpt>
      <trkpt lat="47.5368" lon="6.7791">
        <ele>337</ele>
        <time>2014-04-13T08:40:00Z</time>
      </trkpt>
      <trkpt lat="47.53675" lon="6.7789">
        <ele>338</ele>
        <time>2014-04-13T08:40:06Z</time>
      </trkpt>
      <trkpt lat="47.53674" lon="6.77887">
        <ele>338</ele>
        <time>2014-04-13T08:40:07Z</time>
      </trkpt>
      <trkpt lat="47.53673" lon="6.77884">
        <ele>339</ele>
        <time>2014-04-13T08:40:08Z</time>
      </trkpt>
      <trkpt lat="47.53671" lon="6.7788">
        <ele>339</ele>
        <time>2014-04-13T08:40:09Z</time>
      </trkpt>
      <trkpt lat="47.5367" lon="6.77876">
        <ele>339</ele>
        <time>2014-04-13T08:40:10Z</time>
      </trkpt>
      <trkpt lat="47.53667" lon="6.7787">
        <ele>339</ele>
        <time>2014-04-13T08:40:12Z</time>
      </trkpt>
      <trkpt lat="47.53664" lon="6.77851">
        <ele>339</ele>
        <time>2014-04-13T08:40:17Z</time>
      </trkpt>
      <trkpt lat="47.53663" lon="6.77844">
        <ele>340</ele>
        <time>2014-04-13T08:40:19Z</time>
      </trkpt>
      <trkpt lat="47.53662" lon="6.7784">
        <ele>341</ele>
        <time>2014-04-13T08:40:20Z</time>
      </trkpt>
      <trkpt lat="47.53661" lon="6.77836">
        <ele>341</ele>
        <time>2014-04-13T08:40:21Z</time>
      </trkpt>
      <trkpt lat="47.5366" lon="6.77832">
        <ele>341</ele>
        <time>2014-04-13T08:40:22Z</time>
      </trkpt>
      <trkpt lat="47.53659" lon="6.77823">
        <ele>341</ele>
        <time>2014-04-13T08:40:24Z</time>
      </trkpt>
      <trkpt lat="47.53653" lon="6.778">
        <ele>341</ele>
        <time>2014-04-13T08:40:30Z</time>
      </trkpt>
      <trkpt lat="47.53649" lon="6.77781">
        <ele>342</ele>
        <time>2014-04-13T08:40:35Z</time>
      </trkpt>
      <trkpt lat="47.53647" lon="6.77778">
        <ele>342</ele>
        <time>2014-04-13T08:40:36Z</time>
      </trkpt>
      <trkpt lat="47.53645" lon="6.77773">
        <ele>343</ele>
        <time>2014-04-13T08:40:37Z</time>
      </trkpt>
      <trkpt lat="47.53644" lon="6.7777">
        <ele>343</ele>
        <time>2014-04-13T08:40:38Z</time>
      </trkpt>
      <trkpt lat="47.53644" lon="6.77766">
        <ele>343</ele>
        <time>2014-04-13T08:40:39Z</time>
      </trkpt>
      <trkpt lat="47.53641" lon="6.77757">
        <ele>343</ele>
        <time>2014-04-13T08:40:41Z</time>
      </trkpt>
      <trkpt lat="47.53633" lon="6.77737">
        <ele>343</ele>
        <time>2014-04-13T08:40:46Z</time>
      </trkpt>
      <trkpt lat="47.53627" lon="6.77726">
        <ele>343</ele>
        <time>2014-04-13T08:40:50Z</time>
      </trkpt>
      <trkpt lat="47.53619" lon="6.77713">
        <ele>344</ele>
        <time>2014-04-13T08:40:56Z</time>
      </trkpt>
      <trkpt lat="47.53617" lon="6.7771">
        <ele>344</ele>
        <time>2014-04-13T08:40:57Z</time>
      </trkpt>
      <trkpt lat="47.53616" lon="6.77707">
        <ele>345</ele>
        <time>2014-04-13T08:40:58Z</time>
      </trkpt>
      <trkpt lat="47.53615" lon="6.77704">
        <ele>345</ele>
        <time>2014-04-13T08:40:59Z</time>
      </trkpt>
      <trkpt lat="47.53614" lon="6.777">
        <ele>345</ele>
        <time>2014-04-13T08:41:00Z</time>
      </trkpt>
      <trkpt lat="47.53613" lon="6.77697">
        <ele>345</ele>
        <time>2014-04-13T08:41:01Z</time>
      </trkpt>
      <trkpt lat="47.53602" lon="6.77679">
        <ele>345</ele>
        <time>2014-04-13T08:41:07Z</time>
      </trkpt>
      <trkpt lat="47.53589" lon="6.77663">
        <ele>345</ele>
        <time>2014-04-13T08:41:13Z</time>
      </trkpt>
      <trkpt lat="47.53585" lon="6.77656">
        <ele>346</ele>
        <time>2014-04-13T08:41:15Z</time>
      </trkpt>
      <trkpt lat="47.53584" lon="6.77654">
        <ele>346</ele>
        <time>2014-04-13T08:41:16Z</time>
      </trkpt>
      <trkpt lat="47.53583" lon="6.77651">
        <ele>347</ele>
        <time>2014-04-13T08:41:17Z</time>
      </trkpt>
      <trkpt lat="47.53583" lon="6.77648">
        <ele>347</ele>
        <time>2014-04-13T08:41:18Z</time>
      </trkpt>
      <trkpt lat="47.53581" lon="6.77646">
        <ele>348</ele>
        <time>2014-04-13T08:41:19Z</time>
      </trkpt>
      <trkpt lat="47.53573" lon="6.77633">
        <ele>348</ele>
        <time>2014-04-13T08:41:23Z</time>
      </trkpt>
      <trkpt lat="47.53562" lon="6.77621">
        <ele>348</ele>
        <time>2014-04-13T08:41:28Z</time>
      </trkpt>
      <trkpt lat="47.53555" lon="6.77604">
        <ele>348</ele>
        <time>2014-04-13T08:41:33Z</time>
      </trkpt>
      <trkpt lat="47.53551" lon="6.77596">
        <ele>348</ele>
        <time>2014-04-13T08:41:35Z</time>
      </trkpt>
      <trkpt lat="47.53549" lon="6.77593">
        <ele>348</ele>
        <time>2014-04-13T08:41:36Z</time>
      </trkpt>
      <trkpt lat="47.53546" lon="6.7759">
        <ele>349</ele>
        <time>2014-04-13T08:41:37Z</time>
      </trkpt>
      <trkpt lat="47.53543" lon="6.77587">
        <ele>349</ele>
        <time>2014-04-13T08:41:38Z</time>
      </trkpt>
      <trkpt lat="47.53541" lon="6.77585">
        <ele>350</ele>
        <time>2014-04-13T08:41:39Z</time>
      </trkpt>
      <trkpt lat="47.53534" lon="6.77568">
        <ele>350</ele>
        <time>2014-04-13T08:41:44Z</time>
      </trkpt>
      <trkpt lat="47.53528" lon="6.7754">
        <ele>350</ele>
        <time>2014-04-13T08:41:51Z</time>
      </trkpt>
      <trkpt lat="47.53527" lon="6.77537">
        <ele>350</ele>
        <time>2014-04-13T08:41:52Z</time>
      </trkpt>
      <trkpt lat="47.53526" lon="6.77533">
        <ele>350</ele>
        <time>2014-04-13T08:41:53Z</time>
      </trkpt>
      <trkpt lat="47.53524" lon="6.77528">
        <ele>351</ele>
        <time>2014-04-13T08:41:54Z</time>
      </trkpt>
      <trkpt lat="47.53524" lon="6.77523">
        <ele>351</ele>
        <time>2014-04-13T08:41:55Z</time>
      </trkpt>
      <trkpt lat="47.53522" lon="6.77518">
        <ele>352</ele>
        <time>2014-04-13T08:41:56Z</time>
      </trkpt>
      <trkpt lat="47.53513" lon="6.775">
        <ele>352</ele>
        <time>2014-04-13T08:42:01Z</time>
      </trkpt>
      <trkpt lat="47.53506" lon="6.77486">
        <ele>352</ele>
        <time>2014-04-13T08:42:06Z</time>
      </trkpt>
      <trkpt lat="47.53505" lon="6.77483">
        <ele>352</ele>
        <time>2014-04-13T08:42:08Z</time>
      </trkpt>
      <trkpt lat="47.53502" lon="6.77479">
        <ele>352</ele>
        <time>2014-04-13T08:42:09Z</time>
      </trkpt>
      <trkpt lat="47.535" lon="6.77476">
        <ele>353</ele>
        <time>2014-04-13T08:42:10Z</time>
      </trkpt>
      <trkpt lat="47.53498" lon="6.77473">
        <ele>353</ele>
        <time>2014-04-13T08:42:11Z</time>
      </trkpt>
      <trkpt lat="47.53496" lon="6.7747">
        <ele>354</ele>
        <time>2014-04-13T08:42:12Z</time>
      </trkpt>
      <trkpt lat="47.53481" lon="6.77454">
        <ele>354</ele>
        <time>2014-04-13T08:42:18Z</time>
      </trkpt>
      <trkpt lat="47.5347" lon="6.77438">
        <ele>354</ele>
        <time>2014-04-13T08:42:24Z</time>
      </trkpt>
      <trkpt lat="47.53462" lon="6.77427">
        <ele>354</ele>
        <time>2014-04-13T08:42:28Z</time>
      </trkpt>
      <trkpt lat="47.5346" lon="6.77425">
        <ele>355</ele>
        <time>2014-04-13T08:42:29Z</time>
      </trkpt>
      <trkpt lat="47.53458" lon="6.77422">
        <ele>355</ele>
        <time>2014-04-13T08:42:30Z</time>
      </trkpt>
      <trkpt lat="47.53457" lon="6.77418">
        <ele>355</ele>
        <time>2014-04-13T08:42:31Z</time>
      </trkpt>
      <trkpt lat="47.53456" lon="6.77414">
        <ele>356</ele>
        <time>2014-04-13T08:42:32Z</time>
      </trkpt>
      <trkpt lat="47.53452" lon="6.774">
        <ele>356</ele>
        <time>2014-04-13T08:42:35Z</time>
      </trkpt>
      <trkpt lat="47.53444" lon="6.77376">
        <ele>356</ele>
        <time>2014-04-13T08:42:41Z</time>
      </trkpt>
      <trkpt lat="47.53431" lon="6.77363">
        <ele>356</ele>
        <time>2014-04-13T08:42:46Z</time>
      </trkpt>
      <trkpt lat="47.53424" lon="6.77353">
        <ele>356</ele>
        <time>2014-04-13T08:42:50Z</time>
      </trkpt>
      <trkpt lat="47.53422" lon="6.77349">
        <ele>357</ele>
        <time>2014-04-13T08:42:51Z</time>
      </trkpt>
      <trkpt lat="47.53421" lon="6.77344">
        <ele>357</ele>
        <time>2014-04-13T08:42:52Z</time>
      </trkpt>
      <trkpt lat="47.5342" lon="6.7734">
        <ele>357</ele>
        <time>2014-04-13T08:42:53Z</time>
      </trkpt>
      <trkpt lat="47.5342" lon="6.77335">
        <ele>358</ele>
        <time>2014-04-13T08:42:54Z</time>
      </trkpt>
      <trkpt lat="47.5342" lon="6.77324">
        <ele>358</ele>
        <time>2014-04-13T08:42:56Z</time>
      </trkpt>
      <trkpt lat="47.5342" lon="6.77319">
        <ele>358</ele>
        <time>2014-04-13T08:42:57Z</time>
      </trkpt>
      <trkpt lat="47.53413" lon="6.77295">
        <ele>358</ele>
        <time>2014-04-13T08:43:01Z</time>
      </trkpt>
      <trkpt lat="47.53403" lon="6.77262">
        <ele>358</ele>
        <time>2014-04-13T08:43:07Z</time>
      </trkpt>
      <trkpt lat="47.53399" lon="6.77247">
        <ele>358</ele>
        <time>2014-04-13T08:43:10Z</time>
      </trkpt>
      <trkpt lat="47.53396" lon="6.77236">
        <ele>358</ele>
        <time>2014-04-13T08:43:12Z</time>
      </trkpt>
      <trkpt lat="47.53388" lon="6.77228">
        <ele>358</ele>
        <time>2014-04-13T08:43:15Z</time>
      </trkpt>
      <trkpt lat="47.53386" lon="6.77228">
        <ele>358</ele>
        <time>2014-04-13T08:43:16Z</time>
      </trkpt>
      <trkpt lat="47.53377" lon="6.77231">
        <ele>358</ele>
        <time>2014-04-13T08:43:21Z</time>
      </trkpt>
      <trkpt lat="47.53372" lon="6.7724">
        <ele>358</ele>
        <time>2014-04-13T08:43:25Z</time>
      </trkpt>
      <trkpt lat="47.53363" lon="6.77243">
        <ele>357</ele>
        <time>2014-04-13T08:43:30Z</time>
      </trkpt>
      <trkpt lat="47.53361" lon="6.77243">
        <ele>357</ele>
        <time>2014-04-13T08:43:31Z</time>
      </trkpt>
      <trkpt lat="47.53358" lon="6.77244">
        <ele>357</ele>
        <time>2014-04-13T08:43:32Z</time>
      </trkpt>
      <trkpt lat="47.53355" lon="6.77245">
        <ele>356</ele>
        <time>2014-04-13T08:43:33Z</time>
      </trkpt>
      <trkpt lat="47.53353" lon="6.77245">
        <ele>356</ele>
        <time>2014-04-13T08:43:34Z</time>
      </trkpt>
      <trkpt lat="47.5335" lon="6.77244">
        <ele>356</ele>
        <time>2014-04-13T08:43:35Z</time>
      </trkpt>
      <trkpt lat="47.53347" lon="6.77242">
        <ele>356</ele>
        <time>2014-04-13T08:43:36Z</time>
      </trkpt>
      <trkpt lat="47.53342" lon="6.77243">
        <ele>356</ele>
        <time>2014-04-13T08:43:38Z</time>
      </trkpt>
      <trkpt lat="47.53335" lon="6.77246">
        <ele>356</ele>
        <time>2014-04-13T08:43:40Z</time>
      </trkpt>
      <trkpt lat="47.53328" lon="6.77245">
        <ele>356</ele>
        <time>2014-04-13T08:43:42Z</time>
      </trkpt>
      <trkpt lat="47.53324" lon="6.77246">
        <ele>357</ele>
        <time>2014-04-13T08:43:43Z</time>
      </trkpt>
      <trkpt lat="47.53321" lon="6.77246">
        <ele>357</ele>
        <time>2014-04-13T08:43:44Z</time>
      </trkpt>
      <trkpt lat="47.53318" lon="6.77247">
        <ele>357</ele>
        <time>2014-04-13T08:43:45Z</time>
      </trkpt>
      <trkpt lat="47.53315" lon="6.77248">
        <ele>358</ele>
        <time>2014-04-13T08:43:46Z</time>
      </trkpt>
      <trkpt lat="47.53311" lon="6.77247">
        <ele>358</ele>
        <time>2014-04-13T08:43:48Z</time>
      </trkpt>
      <trkpt lat="47.53309" lon="6.77247">
        <ele>358</ele>
        <time>2014-04-13T08:43:49Z</time>
      </trkpt>
      <trkpt lat="47.53305" lon="6.77246">
        <ele>358</ele>
        <time>2014-04-13T08:43:50Z</time>
      </trkpt>
      <trkpt lat="47.53302" lon="6.77246">
        <ele>358</ele>
        <time>2014-04-13T08:43:51Z</time>
      </trkpt>
      <trkpt lat="47.53296" lon="6.77246">
        <ele>358</ele>
        <time>2014-04-13T08:43:53Z</time>
      </trkpt>
      <trkpt lat="47.53288" lon="6.77245">
        <ele>358</ele>
        <time>2014-04-13T08:43:56Z</time>
      </trkpt>
      <trkpt lat="47.53274" lon="6.77249">
        <ele>358</ele>
        <time>2014-04-13T08:44:00Z</time>
      </trkpt>
      <trkpt lat="47.53271" lon="6.77248">
        <ele>358</ele>
        <time>2014-04-13T08:44:01Z</time>
      </trkpt>
      <trkpt lat="47.53267" lon="6.77248">
        <ele>359</ele>
        <time>2014-04-13T08:44:02Z</time>
      </trkpt>
      <trkpt lat="47.53263" lon="6.77247">
        <ele>360</ele>
        <time>2014-04-13T08:44:03Z</time>
      </trkpt>
      <trkpt lat="47.5326" lon="6.77246">
        <ele>360</ele>
        <time>2014-04-13T08:44:04Z</time>
      </trkpt>
      <trkpt lat="47.53248" lon="6.77249">
        <ele>360</ele>
        <time>2014-04-13T08:44:09Z</time>
      </trkpt>
      <trkpt lat="47.53239" lon="6.77252">
        <ele>360</ele>
        <time>2014-04-13T08:44:12Z</time>
      </trkpt>
      <trkpt lat="47.53235" lon="6.77253">
        <ele>360</ele>
        <time>2014-04-13T08:44:13Z</time>
      </trkpt>
      <trkpt lat="47.53231" lon="6.77253">
        <ele>360</ele>
        <time>2014-04-13T08:44:15Z</time>
      </trkpt>
      <trkpt lat="47.53224" lon="6.77253">
        <ele>360</ele>
        <time>2014-04-13T08:44:18Z</time>
      </trkpt>
      <trkpt lat="47.53202" lon="6.77254">
        <ele>360</ele>
        <time>2014-04-13T08:44:24Z</time>
      </trkpt>
      <trkpt lat="47.532" lon="6.77254">
        <ele>361</ele>
        <time>2014-04-13T08:44:25Z</time>
      </trkpt>
      <trkpt lat="47.53196" lon="6.77253">
        <ele>361</ele>
        <time>2014-04-13T08:44:26Z</time>
      </trkpt>
      <trkpt lat="47.53194" lon="6.77252">
        <ele>362</ele>
        <time>2014-04-13T08:44:27Z</time>
      </trkpt>
      <trkpt lat="47.53191" lon="6.77252">
        <ele>362</ele>
        <time>2014-04-13T08:44:28Z</time>
      </trkpt>
      <trkpt lat="47.53175" lon="6.7725">
        <ele>362</ele>
        <time>2014-04-13T08:44:33Z</time>
      </trkpt>
      <trkpt lat="47.53157" lon="6.77252">
        <ele>362</ele>
        <time>2014-04-13T08:44:38Z</time>
      </trkpt>
      <trkpt lat="47.5315" lon="6.77255">
        <ele>362</ele>
        <time>2014-04-13T08:44:40Z</time>
      </trkpt>
      <trkpt lat="47.53147" lon="6.77255">
        <ele>362</ele>
        <time>2014-04-13T08:44:41Z</time>
      </trkpt>
      <trkpt lat="47.53143" lon="6.77255">
        <ele>362</ele>
        <time>2014-04-13T08:44:42Z</time>
      </trkpt>
      <trkpt lat="47.53139" lon="6.77255">
        <ele>362</ele>
        <time>2014-04-13T08:44:43Z</time>
      </trkpt>
      <trkpt lat="47.53122" lon="6.77254">
        <ele>362</ele>
        <time>2014-04-13T08:44:47Z</time>
      </trkpt>
      <trkpt lat="47.53109" lon="6.7726">
        <ele>362</ele>
        <time>2014-04-13T08:44:51Z</time>
      </trkpt>
      <trkpt lat="47.53105" lon="6.77259">
        <ele>362</ele>
        <time>2014-04-13T08:44:53Z</time>
      </trkpt>
      <trkpt lat="47.53104" lon="6.7726">
        <ele>362</ele>
        <time>2014-04-13T08:44:55Z</time>
      </trkpt>
      <trkpt lat="47.53088" lon="6.7726">
        <ele>362</ele>
        <time>2014-04-13T08:44:59Z</time>
      </trkpt>
      <trkpt lat="47.53075" lon="6.77258">
        <ele>362</ele>
        <time>2014-04-13T08:45:01Z</time>
      </trkpt>
      <trkpt lat="47.53066" lon="6.77259">
        <ele>362</ele>
        <time>2014-04-13T08:45:03Z</time>
      </trkpt>
      <trkpt lat="47.53062" lon="6.77259">
        <ele>362</ele>
        <time>2014-04-13T08:45:04Z</time>
      </trkpt>
      <trkpt lat="47.53053" lon="6.7726">
        <ele>362</ele>
        <time>2014-04-13T08:45:07Z</time>
      </trkpt>
      <trkpt lat="47.53049" lon="6.7726">
        <ele>362</ele>
        <time>2014-04-13T08:45:08Z</time>
      </trkpt>
      <trkpt lat="47.53046" lon="6.77261">
        <ele>363</ele>
        <time>2014-04-13T08:45:09Z</time>
      </trkpt>
      <trkpt lat="47.53042" lon="6.77262">
        <ele>363</ele>
        <time>2014-04-13T08:45:10Z</time>
      </trkpt>
      <trkpt lat="47.53032" lon="6.77263">
        <ele>364</ele>
        <time>2014-04-13T08:45:11Z</time>
      </trkpt>
      <trkpt lat="47.53027" lon="6.77264">
        <ele>364</ele>
        <time>2014-04-13T08:45:12Z</time>
      </trkpt>
      <trkpt lat="47.53009" lon="6.77261">
        <ele>364</ele>
        <time>2014-04-13T08:45:15Z</time>
      </trkpt>
      <trkpt lat="47.53005" lon="6.77261">
        <ele>364</ele>
        <time>2014-04-13T08:45:16Z</time>
      </trkpt>
      <trkpt lat="47.52995" lon="6.77258">
        <ele>364</ele>
        <time>2014-04-13T08:45:19Z</time>
      </trkpt>
      <trkpt lat="47.52992" lon="6.77258">
        <ele>364</ele>
        <time>2014-04-13T08:45:20Z</time>
      </trkpt>
      <trkpt lat="47.52988" lon="6.7726">
        <ele>365</ele>
        <time>2014-04-13T08:45:21Z</time>
      </trkpt>
      <trkpt lat="47.52984" lon="6.77264">
        <ele>365</ele>
        <time>2014-04-13T08:45:22Z</time>
      </trkpt>
      <trkpt lat="47.52981" lon="6.77269">
        <ele>365</ele>
        <time>2014-04-13T08:45:23Z</time>
      </trkpt>
      <trkpt lat="47.52978" lon="6.77273">
        <ele>366</ele>
        <time>2014-04-13T08:45:24Z</time>
      </trkpt>
      <trkpt lat="47.52975" lon="6.77277">
        <ele>366</ele>
        <time>2014-04-13T08:45:25Z</time>
      </trkpt>
      <trkpt lat="47.52972" lon="6.77279">
        <ele>366</ele>
        <time>2014-04-13T08:45:26Z</time>
      </trkpt>
      <trkpt lat="47.52966" lon="6.77282">
        <ele>366</ele>
        <time>2014-04-13T08:45:28Z</time>
      </trkpt>
      <trkpt lat="47.52943" lon="6.77287">
        <ele>366</ele>
        <time>2014-04-13T08:45:34Z</time>
      </trkpt>
      <trkpt lat="47.52927" lon="6.77293">
        <ele>367</ele>
        <time>2014-04-13T08:45:39Z</time>
      </trkpt>
      <trkpt lat="47.52925" lon="6.77294">
        <ele>367</ele>
        <time>2014-04-13T08:45:40Z</time>
      </trkpt>
      <trkpt lat="47.52923" lon="6.77295">
        <ele>368</ele>
        <time>2014-04-13T08:45:41Z</time>
      </trkpt>
      <trkpt lat="47.5292" lon="6.77295">
        <ele>368</ele>
        <time>2014-04-13T08:45:42Z</time>
      </trkpt>
      <trkpt lat="47.52912" lon="6.773">
        <ele>368</ele>
        <time>2014-04-13T08:45:46Z</time>
      </trkpt>
      <trkpt lat="47.529" lon="6.77303">
        <ele>369</ele>
        <time>2014-04-13T08:45:52Z</time>
      </trkpt>
      <trkpt lat="47.52898" lon="6.77304">
        <ele>369</ele>
        <time>2014-04-13T08:45:53Z</time>
      </trkpt>
      <trkpt lat="47.52896" lon="6.77305">
        <ele>370</ele>
        <time>2014-04-13T08:45:54Z</time>
      </trkpt>
      <trkpt lat="47.52895" lon="6.77305">
        <ele>370</ele>
        <time>2014-04-13T08:45:55Z</time>
      </trkpt>
      <trkpt lat="47.52893" lon="6.77306">
        <ele>371</ele>
        <time>2014-04-13T08:45:56Z</time>
      </trkpt>
      <trkpt lat="47.52883" lon="6.77306">
        <ele>371</ele>
        <time>2014-04-13T08:45:59Z</time>
      </trkpt>
      <trkpt lat="47.52872" lon="6.77308">
        <ele>371</ele>
        <time>2014-04-13T08:46:05Z</time>
      </trkpt>
      <trkpt lat="47.52871" lon="6.77309">
        <ele>371</ele>
        <time>2014-04-13T08:46:06Z</time>
      </trkpt>
      <trkpt lat="47.52868" lon="6.7731">
        <ele>371</ele>
        <time>2014-04-13T08:46:07Z</time>
      </trkpt>
      <trkpt lat="47.52866" lon="6.77311">
        <ele>371</ele>
        <time>2014-04-13T08:46:08Z</time>
      </trkpt>
      <trkpt lat="47.52864" lon="6.77312">
        <ele>372</ele>
        <time>2014-04-13T08:46:09Z</time>
      </trkpt>
      <trkpt lat="47.52861" lon="6.77313">
        <ele>372</ele>
        <time>2014-04-13T08:46:10Z</time>
      </trkpt>
      <trkpt lat="47.52859" lon="6.77314">
        <ele>373</ele>
        <time>2014-04-13T08:46:11Z</time>
      </trkpt>
      <trkpt lat="47.52856" lon="6.77314">
        <ele>373</ele>
        <time>2014-04-13T08:46:12Z</time>
      </trkpt>
      <trkpt lat="47.52844" lon="6.77315">
        <ele>373</ele>
        <time>2014-04-13T08:46:17Z</time>
      </trkpt>
      <trkpt lat="47.52842" lon="6.77314">
        <ele>373</ele>
        <time>2014-04-13T08:46:18Z</time>
      </trkpt>
      <trkpt lat="47.52841" lon="6.77315">
        <ele>374</ele>
        <time>2014-04-13T08:46:19Z</time>
      </trkpt>
      <trkpt lat="47.52839" lon="6.77316">
        <ele>374</ele>
        <time>2014-04-13T08:46:20Z</time>
      </trkpt>
      <trkpt lat="47.52838" lon="6.77314">
        <ele>375</ele>
        <time>2014-04-13T08:46:21Z</time>
      </trkpt>
      <trkpt lat="47.52836" lon="6.77314">
        <ele>375</ele>
        <time>2014-04-13T08:46:22Z</time>
      </trkpt>
      <trkpt lat="47.52824" lon="6.77308">
        <ele>375</ele>
        <time>2014-04-13T08:46:28Z</time>
      </trkpt>
      <trkpt lat="47.52822" lon="6.77308">
        <ele>375</ele>
        <time>2014-04-13T08:46:29Z</time>
      </trkpt>
      <trkpt lat="47.52821" lon="6.77307">
        <ele>376</ele>
        <time>2014-04-13T08:46:30Z</time>
      </trkpt>
      <trkpt lat="47.52818" lon="6.77306">
        <ele>376</ele>
        <time>2014-04-13T08:46:31Z</time>
      </trkpt>
      <trkpt lat="47.52814" lon="6.77304">
        <ele>377</ele>
        <time>2014-04-13T08:46:32Z</time>
      </trkpt>
      <trkpt lat="47.52807" lon="6.77299">
        <ele>377</ele>
        <time>2014-04-13T08:46:34Z</time>
      </trkpt>
      <trkpt lat="47.52796" lon="6.77293">
        <ele>377</ele>
        <time>2014-04-13T08:46:40Z</time>
      </trkpt>
      <trkpt lat="47.52795" lon="6.77292">
        <ele>377</ele>
        <time>2014-04-13T08:46:41Z</time>
      </trkpt>
      <trkpt lat="47.52793" lon="6.77292">
        <ele>378</ele>
        <time>2014-04-13T08:46:42Z</time>
      </trkpt>
      <trkpt lat="47.52792" lon="6.77292">
        <ele>378</ele>
        <time>2014-04-13T08:46:43Z</time>
      </trkpt>
      <trkpt lat="47.5279" lon="6.77291">
        <ele>379</ele>
        <time>2014-04-13T08:46:44Z</time>
      </trkpt>
      <trkpt lat="47.52787" lon="6.77291">
        <ele>379</ele>
        <time>2014-04-13T08:46:45Z</time>
      </trkpt>
      <trkpt lat="47.52784" lon="6.7729">
        <ele>379</ele>
        <time>2014-04-13T08:46:46Z</time>
      </trkpt>
      <trkpt lat="47.52775" lon="6.77289">
        <ele>379</ele>
        <time>2014-04-13T08:46:50Z</time>
      </trkpt>
      <trkpt lat="47.52771" lon="6.77287">
        <ele>379</ele>
        <time>2014-04-13T08:46:52Z</time>
      </trkpt>
      <trkpt lat="47.52769" lon="6.77287">
        <ele>379</ele>
        <time>2014-04-13T08:46:53Z</time>
      </trkpt>
      <trkpt lat="47.52768" lon="6.77288">
        <ele>379</ele>
        <time>2014-04-13T08:46:54Z</time>
      </trkpt>
      <trkpt lat="47.52762" lon="6.77287">
        <ele>379</ele>
        <time>2014-04-13T08:46:58Z</time>
      </trkpt>
      <trkpt lat="47.52755" lon="6.77285">
        <ele>379</ele>
        <time>2014-04-13T08:47:02Z</time>
      </trkpt>
      <trkpt lat="47.52754" lon="6.77285">
        <ele>380</ele>
        <time>2014-04-13T08:47:03Z</time>
      </trkpt>
      <trkpt lat="47.52752" lon="6.77285">
        <ele>380</ele>
        <time>2014-04-13T08:47:04Z</time>
      </trkpt>
      <trkpt lat="47.5275" lon="6.77284">
        <ele>381</ele>
        <time>2014-04-13T08:47:05Z</time>
      </trkpt>
      <trkpt lat="47.52748" lon="6.77284">
        <ele>381</ele>
        <time>2014-04-13T08:47:06Z</time>
      </trkpt>
      <trkpt lat="47.52746" lon="6.77284">
        <ele>381</ele>
        <time>2014-04-13T08:47:07Z</time>
      </trkpt>
      <trkpt lat="47.5274" lon="6.77283">
        <ele>381</ele>
        <time>2014-04-13T08:47:10Z</time>
      </trkpt>
      <trkpt lat="47.5272" lon="6.77282">
        <ele>381</ele>
        <time>2014-04-13T08:47:17Z</time>
      </trkpt>
      <trkpt lat="47.527" lon="6.77289">
        <ele>381</ele>
        <time>2014-04-13T08:47:24Z</time>
      </trkpt>
      <trkpt lat="47.52698" lon="6.77291">
        <ele>381</ele>
        <time>2014-04-13T08:47:25Z</time>
      </trkpt>
      <trkpt lat="47.52688" lon="6.77301">
        <ele>381</ele>
        <time>2014-04-13T08:47:29Z</time>
      </trkpt>
      <trkpt lat="47.52685" lon="6.77303">
        <ele>381</ele>
        <time>2014-04-13T08:47:30Z</time>
      </trkpt>
      <trkpt lat="47.52682" lon="6.77306">
        <ele>382</ele>
        <time>2014-04-13T08:47:31Z</time>
      </trkpt>
      <trkpt lat="47.52679" lon="6.77307">
        <ele>382</ele>
        <time>2014-04-13T08:47:32Z</time>
      </trkpt>
      <trkpt lat="47.52677" lon="6.77311">
        <ele>383</ele>
        <time>2014-04-13T08:47:33Z</time>
      </trkpt>
      <trkpt lat="47.52675" lon="6.77314">
        <ele>383</ele>
        <time>2014-04-13T08:47:34Z</time>
      </trkpt>
      <trkpt lat="47.5267" lon="6.77327">
        <ele>383</ele>
        <time>2014-04-13T08:47:38Z</time>
      </trkpt>
      <trkpt lat="47.52667" lon="6.77336">
        <ele>384</ele>
        <time>2014-04-13T08:47:41Z</time>
      </trkpt>
      <trkpt lat="47.52666" lon="6.77339">
        <ele>384</ele>
        <time>2014-04-13T08:47:42Z</time>
      </trkpt>
      <trkpt lat="47.52665" lon="6.7734">
        <ele>385</ele>
        <time>2014-04-13T08:47:43Z</time>
      </trkpt>
      <trkpt lat="47.52665" lon="6.77343">
        <ele>386</ele>
        <time>2014-04-13T08:47:44Z</time>
      </trkpt>
      <trkpt lat="47.52666" lon="6.77346">
        <ele>386</ele>
        <time>2014-04-13T08:47:46Z</time>
      </trkpt>
      <trkpt lat="47.52665" lon="6.7735">
        <ele>386</ele>
        <time>2014-04-13T08:47:47Z</time>
      </trkpt>
      <trkpt lat="47.52664" lon="6.77354">
        <ele>386</ele>
        <time>2014-04-13T08:47:48Z</time>
      </trkpt>
      <trkpt lat="47.52664" lon="6.77358">
        <ele>386</ele>
        <time>2014-04-13T08:47:49Z</time>
      </trkpt>
      <trkpt lat="47.52664" lon="6.77362">
        <ele>386</ele>
        <time>2014-04-13T08:47:50Z</time>
      </trkpt>
      <trkpt lat="47.52663" lon="6.77366">
        <ele>387</ele>
        <time>2014-04-13T08:47:51Z</time>
      </trkpt>
      <trkpt lat="47.52663" lon="6.7737">
        <ele>387</ele>
        <time>2014-04-13T08:47:52Z</time>
      </trkpt>
      <trkpt lat="47.52663" lon="6.77374">
        <ele>388</ele>
        <time>2014-04-13T08:47:53Z</time>
      </trkpt>
      <trkpt lat="47.52662" lon="6.77377">
        <ele>388</ele>
        <time>2014-04-13T08:47:54Z</time>
      </trkpt>
      <trkpt lat="47.52662" lon="6.77381">
        <ele>388</ele>
        <time>2014-04-13T08:47:55Z</time>
      </trkpt>
      <trkpt lat="47.52661" lon="6.77386">
        <ele>389</ele>
        <time>2014-04-13T08:47:56Z</time>
      </trkpt>
      <trkpt lat="47.52661" lon="6.77391">
        <ele>389</ele>
        <time>2014-04-13T08:47:57Z</time>
      </trkpt>
      <trkpt lat="47.52661" lon="6.77396">
        <ele>390</ele>
        <time>2014-04-13T08:47:58Z</time>
      </trkpt>
      <trkpt lat="47.5266" lon="6.77401">
        <ele>390</ele>
        <time>2014-04-13T08:47:59Z</time>
      </trkpt>
      <trkpt lat="47.5266" lon="6.77404">
        <ele>391</ele>
        <time>2014-04-13T08:48:00Z</time>
      </trkpt>
      <trkpt lat="47.52661" lon="6.77408">
        <ele>392</ele>
        <time>2014-04-13T08:48:01Z</time>
      </trkpt>
      <trkpt lat="47.52661" lon="6.77411">
        <ele>392</ele>
        <time>2014-04-13T08:48:02Z</time>
      </trkpt>
      <trkpt lat="47.52661" lon="6.77414">
        <ele>393</ele>
        <time>2014-04-13T08:48:03Z</time>
      </trkpt>
      <trkpt lat="47.52661" lon="6.77418">
        <ele>393</ele>
        <time>2014-04-13T08:48:04Z</time>
      </trkpt>
      <trkpt lat="47.52661" lon="6.77422">
        <ele>394</ele>
        <time>2014-04-13T08:48:05Z</time>
      </trkpt>
      <trkpt lat="47.52661" lon="6.77424">
        <ele>395</ele>
        <time>2014-04-13T08:48:06Z</time>
      </trkpt>
      <trkpt lat="47.52661" lon="6.77426">
        <ele>395</ele>
        <time>2014-04-13T08:48:07Z</time>
      </trkpt>
      <trkpt lat="47.5266" lon="6.77429">
        <ele>396</ele>
        <time>2014-04-13T08:48:08Z</time>
      </trkpt>
      <trkpt lat="47.52656" lon="6.77436">
        <ele>396</ele>
        <time>2014-04-13T08:48:11Z</time>
      </trkpt>
      <trkpt lat="47.52652" lon="6.77439">
        <ele>396</ele>
        <time>2014-04-13T08:48:13Z</time>
      </trkpt>
      <trkpt lat="47.52641" lon="6.77452">
        <ele>396</ele>
        <time>2014-04-13T08:48:18Z</time>
      </trkpt>
      <trkpt lat="47.5263" lon="6.77468">
        <ele>397</ele>
        <time>2014-04-13T08:48:23Z</time>
      </trkpt>
      <trkpt lat="47.52628" lon="6.77471">
        <ele>397</ele>
        <time>2014-04-13T08:48:24Z</time>
      </trkpt>
      <trkpt lat="47.52625" lon="6.77475">
        <ele>397</ele>
        <time>2014-04-13T08:48:25Z</time>
      </trkpt>
      <trkpt lat="47.52622" lon="6.7748">
        <ele>398</ele>
        <time>2014-04-13T08:48:26Z</time>
      </trkpt>
      <trkpt lat="47.52619" lon="6.77484">
        <ele>398</ele>
        <time>2014-04-13T08:48:27Z</time>
      </trkpt>
      <trkpt lat="47.52617" lon="6.77487">
        <ele>398</ele>
        <time>2014-04-13T08:48:28Z</time>
      </trkpt>
      <trkpt lat="47.52607" lon="6.77491">
        <ele>398</ele>
        <time>2014-04-13T08:48:31Z</time>
      </trkpt>
      <trkpt lat="47.52603" lon="6.77487">
        <ele>398</ele>
        <time>2014-04-13T08:48:32Z</time>
      </trkpt>
      <trkpt lat="47.52585" lon="6.77479">
        <ele>398</ele>
        <time>2014-04-13T08:48:36Z</time>
      </trkpt>
      <trkpt lat="47.52563" lon="6.77475">
        <ele>398</ele>
        <time>2014-04-13T08:48:40Z</time>
      </trkpt>
      <trkpt lat="47.52555" lon="6.77471">
        <ele>397</ele>
        <time>2014-04-13T08:48:41Z</time>
      </trkpt>
      <trkpt lat="47.52549" lon="6.7747">
        <ele>397</ele>
        <time>2014-04-13T08:48:42Z</time>
      </trkpt>
      <trkpt lat="47.52542" lon="6.77473">
        <ele>396</ele>
        <time>2014-04-13T08:48:43Z</time>
      </trkpt>
      <trkpt lat="47.52535" lon="6.77477">
        <ele>396</ele>
        <time>2014-04-13T08:48:44Z</time>
      </trkpt>
      <trkpt lat="47.52529" lon="6.7748">
        <ele>396</ele>
        <time>2014-04-13T08:48:45Z</time>
      </trkpt>
      <trkpt lat="47.52523" lon="6.77481">
        <ele>396</ele>
        <time>2014-04-13T08:48:46Z</time>
      </trkpt>
      <trkpt lat="47.52522" lon="6.77481">
        <ele>396</ele>
        <time>2014-04-13T08:48:47Z</time>
      </trkpt>
      <trkpt lat="47.52514" lon="6.77482">
        <ele>396</ele>
        <time>2014-04-13T08:48:48Z</time>
      </trkpt>
      <trkpt lat="47.52509" lon="6.77482">
        <ele>396</ele>
        <time>2014-04-13T08:48:49Z</time>
      </trkpt>
      <trkpt lat="47.525" lon="6.77479">
        <ele>395</ele>
        <time>2014-04-13T08:48:51Z</time>
      </trkpt>
      <trkpt lat="47.52495" lon="6.77478">
        <ele>395</ele>
        <time>2014-04-13T08:48:52Z</time>
      </trkpt>
      <trkpt lat="47.52491" lon="6.77477">
        <ele>394</ele>
        <time>2014-04-13T08:48:53Z</time>
      </trkpt>
      <trkpt lat="47.52485" lon="6.77477">
        <ele>394</ele>
        <time>2014-04-13T08:48:54Z</time>
      </trkpt>
      <trkpt lat="47.52479" lon="6.77476">
        <ele>393</ele>
        <time>2014-04-13T08:48:55Z</time>
      </trkpt>
      <trkpt lat="47.52473" lon="6.77476">
        <ele>393</ele>
        <time>2014-04-13T08:48:56Z</time>
      </trkpt>
      <trkpt lat="47.52463" lon="6.77473">
        <ele>393</ele>
        <time>2014-04-13T08:48:58Z</time>
      </trkpt>
      <trkpt lat="47.52458" lon="6.77471">
        <ele>393</ele>
        <time>2014-04-13T08:48:59Z</time>
      </trkpt>
      <trkpt lat="47.52454" lon="6.77469">
        <ele>392</ele>
        <time>2014-04-13T08:49:00Z</time>
      </trkpt>
      <trkpt lat="47.52449" lon="6.77467">
        <ele>392</ele>
        <time>2014-04-13T08:49:01Z</time>
      </trkpt>
      <trkpt lat="47.52445" lon="6.77465">
        <ele>391</ele>
        <time>2014-04-13T08:49:02Z</time>
      </trkpt>
      <trkpt lat="47.52435" lon="6.77463">
        <ele>391</ele>
        <time>2014-04-13T08:49:04Z</time>
      </trkpt>
      <trkpt lat="47.52427" lon="6.77458">
        <ele>391</ele>
        <time>2014-04-13T08:49:05Z</time>
      </trkpt>
      <trkpt lat="47.52423" lon="6.77456">
        <ele>391</ele>
        <time>2014-04-13T08:49:07Z</time>
      </trkpt>
      <trkpt lat="47.52409" lon="6.77443">
        <ele>391</ele>
        <time>2014-04-13T08:49:11Z</time>
      </trkpt>
      <trkpt lat="47.52398" lon="6.77435">
        <ele>391</ele>
        <time>2014-04-13T08:49:15Z</time>
      </trkpt>
      <trkpt lat="47.52383" lon="6.77425">
        <ele>391</ele>
        <time>2014-04-13T08:49:20Z</time>
      </trkpt>
      <trkpt lat="47.52373" lon="6.77415">
        <ele>391</ele>
        <time>2014-04-13T08:49:25Z</time>
      </trkpt>
      <trkpt lat="47.52365" lon="6.77408">
        <ele>392</ele>
        <time>2014-04-13T08:49:28Z</time>
      </trkpt>
      <trkpt lat="47.52361" lon="6.77404">
        <ele>392</ele>
        <time>2014-04-13T08:49:29Z</time>
      </trkpt>
      <trkpt lat="47.52359" lon="6.77401">
        <ele>393</ele>
        <time>2014-04-13T08:49:30Z</time>
      </trkpt>
      <trkpt lat="47.52357" lon="6.77397">
        <ele>393</ele>
        <time>2014-04-13T08:49:31Z</time>
      </trkpt>
      <trkpt lat="47.52354" lon="6.77392">
        <ele>393</ele>
        <time>2014-04-13T08:49:32Z</time>
      </trkpt>
      <trkpt lat="47.52345" lon="6.77375">
        <ele>393</ele>
        <time>2014-04-13T08:49:35Z</time>
      </trkpt>
      <trkpt lat="47.52343" lon="6.77368">
        <ele>393</ele>
        <time>2014-04-13T08:49:36Z</time>
      </trkpt>
      <trkpt lat="47.5234" lon="6.7736">
        <ele>393</ele>
        <time>2014-04-13T08:49:37Z</time>
      </trkpt>
      <trkpt lat="47.52338" lon="6.77354">
        <ele>392</ele>
        <time>2014-04-13T08:49:38Z</time>
      </trkpt>
      <trkpt lat="47.52338" lon="6.77354">
        <ele>392</ele>
        <time>2014-04-13T08:49:39Z</time>
      </trkpt>
      <trkpt lat="47.52336" lon="6.77348">
        <ele>391</ele>
        <time>2014-04-13T08:49:40Z</time>
      </trkpt>
      <trkpt lat="47.52335" lon="6.77346">
        <ele>391</ele>
        <time>2014-04-13T08:49:41Z</time>
      </trkpt>
      <trkpt lat="47.52335" lon="6.77346">
        <ele>391</ele>
        <time>2014-04-13T08:49:42Z</time>
      </trkpt>
      <trkpt lat="47.52335" lon="6.77346">
        <ele>391</ele>
        <time>2014-04-13T08:49:43Z</time>
      </trkpt>
      <trkpt lat="47.52329" lon="6.77337">
        <ele>391</ele>
        <time>2014-04-13T08:50:12Z</time>
      </trkpt>
      <trkpt lat="47.52327" lon="6.77333">
        <ele>392</ele>
        <time>2014-04-13T08:50:13Z</time>
      </trkpt>
      <trkpt lat="47.52325" lon="6.77328">
        <ele>392</ele>
        <time>2014-04-13T08:50:14Z</time>
      </trkpt>
      <trkpt lat="47.52325" lon="6.77323">
        <ele>392</ele>
        <time>2014-04-13T08:50:15Z</time>
      </trkpt>
      <trkpt lat="47.52325" lon="6.77316">
        <ele>393</ele>
        <time>2014-04-13T08:50:16Z</time>
      </trkpt>
      <trkpt lat="47.52325" lon="6.77309">
        <ele>393</ele>
        <time>2014-04-13T08:50:17Z</time>
      </trkpt>
      <trkpt lat="47.52325" lon="6.77302">
        <ele>393</ele>
        <time>2014-04-13T08:50:18Z</time>
      </trkpt>
      <trkpt lat="47.52327" lon="6.77284">
        <ele>393</ele>
        <time>2014-04-13T08:50:21Z</time>
      </trkpt>
      <trkpt lat="47.52329" lon="6.77278">
        <ele>393</ele>
        <time>2014-04-13T08:50:23Z</time>
      </trkpt>
      <trkpt lat="47.5233" lon="6.77273">
        <ele>393</ele>
        <time>2014-04-13T08:50:25Z</time>
      </trkpt>
      <trkpt lat="47.52331" lon="6.77271">
        <ele>394</ele>
        <time>2014-04-13T08:50:26Z</time>
      </trkpt>
      <trkpt lat="47.52331" lon="6.77268">
        <ele>394</ele>
        <time>2014-04-13T08:50:27Z</time>
      </trkpt>
      <trkpt lat="47.52332" lon="6.77266">
        <ele>394</ele>
        <time>2014-04-13T08:50:28Z</time>
      </trkpt>
      <trkpt lat="47.52333" lon="6.77264">
        <ele>395</ele>
        <time>2014-04-13T08:50:29Z</time>
      </trkpt>
      <trkpt lat="47.52333" lon="6.77261">
        <ele>395</ele>
        <time>2014-04-13T08:50:30Z</time>
      </trkpt>
      <trkpt lat="47.52336" lon="6.77248">
        <ele>395</ele>
        <time>2014-04-13T08:50:34Z</time>
      </trkpt>
      <trkpt lat="47.52342" lon="6.77228">
        <ele>395</ele>
        <time>2014-04-13T08:50:39Z</time>
      </trkpt>
      <trkpt lat="47.52345" lon="6.77221">
        <ele>396</ele>
        <time>2014-04-13T08:50:41Z</time>
      </trkpt>
      <trkpt lat="47.52346" lon="6.77218">
        <ele>396</ele>
        <time>2014-04-13T08:50:42Z</time>
      </trkpt>
      <trkpt lat="47.52347" lon="6.77214">
        <ele>397</ele>
        <time>2014-04-13T08:50:43Z</time>
      </trkpt>
      <trkpt lat="47.52348" lon="6.7721">
        <ele>397</ele>
        <time>2014-04-13T08:50:44Z</time>
      </trkpt>
      <trkpt lat="47.5235" lon="6.77207">
        <ele>397</ele>
        <time>2014-04-13T08:50:45Z</time>
      </trkpt>
      <trkpt lat="47.52351" lon="6.77204">
        <ele>397</ele>
        <time>2014-04-13T08:50:46Z</time>
      </trkpt>
      <trkpt lat="47.52358" lon="6.77182">
        <ele>398</ele>
        <time>2014-04-13T08:50:52Z</time>
      </trkpt>
      <trkpt lat="47.52359" lon="6.77179">
        <ele>398</ele>
        <time>2014-04-13T08:50:53Z</time>
      </trkpt>
      <trkpt lat="47.5236" lon="6.77176">
        <ele>399</ele>
        <time>2014-04-13T08:50:54Z</time>
      </trkpt>
      <trkpt lat="47.52361" lon="6.77174">
        <ele>399</ele>
        <time>2014-04-13T08:50:55Z</time>
      </trkpt>
      <trkpt lat="47.52361" lon="6.77172">
        <ele>399</ele>
        <time>2014-04-13T08:50:56Z</time>
      </trkpt>
      <trkpt lat="47.52363" lon="6.77166">
        <ele>399</ele>
        <time>2014-04-13T08:50:58Z</time>
      </trkpt>
      <trkpt lat="47.52369" lon="6.7715">
        <ele>400</ele>
        <time>2014-04-13T08:51:03Z</time>
      </trkpt>
      <trkpt lat="47.52371" lon="6.77147">
        <ele>400</ele>
        <time>2014-04-13T08:51:04Z</time>
      </trkpt>
      <trkpt lat="47.52372" lon="6.77145">
        <ele>401</ele>
        <time>2014-04-13T08:51:05Z</time>
      </trkpt>
      <trkpt lat="47.52373" lon="6.77143">
        <ele>401</ele>
        <time>2014-04-13T08:51:06Z</time>
      </trkpt>
      <trkpt lat="47.52375" lon="6.77139">
        <ele>401</ele>
        <time>2014-04-13T08:51:07Z</time>
      </trkpt>
      <trkpt lat="47.52377" lon="6.77137">
        <ele>401</ele>
        <time>2014-04-13T08:51:08Z</time>
      </trkpt>
      <trkpt lat="47.52382" lon="6.77126">
        <ele>401</ele>
        <time>2014-04-13T08:51:11Z</time>
      </trkpt>
      <trkpt lat="47.52385" lon="6.77119">
        <ele>401</ele>
        <time>2014-04-13T08:51:13Z</time>
      </trkpt>
      <trkpt lat="47.52386" lon="6.77115">
        <ele>402</ele>
        <time>2014-04-13T08:51:14Z</time>
      </trkpt>
      <trkpt lat="47.52387" lon="6.77112">
        <ele>402</ele>
        <time>2014-04-13T08:51:15Z</time>
      </trkpt>
      <trkpt lat="47.52389" lon="6.77109">
        <ele>403</ele>
        <time>2014-04-13T08:51:16Z</time>
      </trkpt>
      <trkpt lat="47.5239" lon="6.77106">
        <ele>403</ele>
        <time>2014-04-13T08:51:17Z</time>
      </trkpt>
      <trkpt lat="47.52391" lon="6.77104">
        <ele>404</ele>
        <time>2014-04-13T08:51:18Z</time>
      </trkpt>
      <trkpt lat="47.52397" lon="6.77092">
        <ele>404</ele>
        <time>2014-04-13T08:51:23Z</time>
      </trkpt>
      <trkpt lat="47.52399" lon="6.77088">
        <ele>404</ele>
        <time>2014-04-13T08:51:25Z</time>
      </trkpt>
      <trkpt lat="47.524" lon="6.77086">
        <ele>404</ele>
        <time>2014-04-13T08:51:26Z</time>
      </trkpt>
      <trkpt lat="47.52401" lon="6.77084">
        <ele>405</ele>
        <time>2014-04-13T08:51:27Z</time>
      </trkpt>
      <trkpt lat="47.52402" lon="6.77083">
        <ele>405</ele>
        <time>2014-04-13T08:51:28Z</time>
      </trkpt>
      <trkpt lat="47.52403" lon="6.77082">
        <ele>406</ele>
        <time>2014-04-13T08:51:29Z</time>
      </trkpt>
      <trkpt lat="47.52404" lon="6.77079">
        <ele>406</ele>
        <time>2014-04-13T08:51:30Z</time>
      </trkpt>
      <trkpt lat="47.52406" lon="6.77071">
        <ele>406</ele>
        <time>2014-04-13T08:51:33Z</time>
      </trkpt>
      <trkpt lat="47.52408" lon="6.77068">
        <ele>407</ele>
        <time>2014-04-13T08:51:34Z</time>
      </trkpt>
      <trkpt lat="47.52409" lon="6.77065">
        <ele>407</ele>
        <time>2014-04-13T08:51:35Z</time>
      </trkpt>
      <trkpt lat="47.5241" lon="6.77063">
        <ele>407</ele>
        <time>2014-04-13T08:51:36Z</time>
      </trkpt>
      <trkpt lat="47.52411" lon="6.7706">
        <ele>408</ele>
        <time>2014-04-13T08:51:37Z</time>
      </trkpt>
      <trkpt lat="47.52418" lon="6.77042">
        <ele>408</ele>
        <time>2014-04-13T08:51:42Z</time>
      </trkpt>
      <trkpt lat="47.52425" lon="6.77026">
        <ele>408</ele>
        <time>2014-04-13T08:51:48Z</time>
      </trkpt>
      <trkpt lat="47.52426" lon="6.77024">
        <ele>409</ele>
        <time>2014-04-13T08:51:49Z</time>
      </trkpt>
      <trkpt lat="47.52427" lon="6.77022">
        <ele>410</ele>
        <time>2014-04-13T08:51:50Z</time>
      </trkpt>
      <trkpt lat="47.52428" lon="6.7702">
        <ele>410</ele>
        <time>2014-04-13T08:51:51Z</time>
      </trkpt>
      <trkpt lat="47.5243" lon="6.77014">
        <ele>410</ele>
        <time>2014-04-13T08:51:53Z</time>
      </trkpt>
      <trkpt lat="47.52434" lon="6.77006">
        <ele>411</ele>
        <time>2014-04-13T08:51:57Z</time>
      </trkpt>
      <trkpt lat="47.52435" lon="6.77004">
        <ele>411</ele>
        <time>2014-04-13T08:51:58Z</time>
      </trkpt>
      <trkpt lat="47.52436" lon="6.77001">
        <ele>412</ele>
        <time>2014-04-13T08:51:59Z</time>
      </trkpt>
      <trkpt lat="47.52436" lon="6.76998">
        <ele>412</ele>
        <time>2014-04-13T08:52:00Z</time>
      </trkpt>
      <trkpt lat="47.52437" lon="6.76996">
        <ele>412</ele>
        <time>2014-04-13T08:52:01Z</time>
      </trkpt>
      <trkpt lat="47.52444" lon="6.76979">
        <ele>412</ele>
        <time>2014-04-13T08:52:07Z</time>
      </trkpt>
      <trkpt lat="47.52446" lon="6.76975">
        <ele>413</ele>
        <time>2014-04-13T08:52:09Z</time>
      </trkpt>
      <trkpt lat="47.52447" lon="6.76972">
        <ele>413</ele>
        <time>2014-04-13T08:52:10Z</time>
      </trkpt>
      <trkpt lat="47.52448" lon="6.7697">
        <ele>414</ele>
        <time>2014-04-13T08:52:11Z</time>
      </trkpt>
      <trkpt lat="47.52449" lon="6.76968">
        <ele>414</ele>
        <time>2014-04-13T08:52:12Z</time>
      </trkpt>
      <trkpt lat="47.5245" lon="6.76966">
        <ele>415</ele>
        <time>2014-04-13T08:52:13Z</time>
      </trkpt>
      <trkpt lat="47.52451" lon="6.76963">
        <ele>415</ele>
        <time>2014-04-13T08:52:14Z</time>
      </trkpt>
      <trkpt lat="47.52459" lon="6.76944">
        <ele>415</ele>
        <time>2014-04-13T08:52:21Z</time>
      </trkpt>
      <trkpt lat="47.52462" lon="6.76938">
        <ele>415</ele>
        <time>2014-04-13T08:52:23Z</time>
      </trkpt>
      <trkpt lat="47.52463" lon="6.76935">
        <ele>415</ele>
        <time>2014-04-13T08:52:24Z</time>
      </trkpt>
      <trkpt lat="47.52465" lon="6.76932">
        <ele>416</ele>
        <time>2014-04-13T08:52:25Z</time>
      </trkpt>
      <trkpt lat="47.52466" lon="6.76929">
        <ele>416</ele>
        <time>2014-04-13T08:52:26Z</time>
      </trkpt>
      <trkpt lat="47.52468" lon="6.76925">
        <ele>417</ele>
        <time>2014-04-13T08:52:27Z</time>
      </trkpt>
      <trkpt lat="47.52478" lon="6.76901">
        <ele>417</ele>
        <time>2014-04-13T08:52:34Z</time>
      </trkpt>
      <trkpt lat="47.52483" lon="6.76893">
        <ele>417</ele>
        <time>2014-04-13T08:52:37Z</time>
      </trkpt>
      <trkpt lat="47.52489" lon="6.7689">
        <ele>417</ele>
        <time>2014-04-13T08:52:39Z</time>
      </trkpt>
      <trkpt lat="47.52493" lon="6.76889">
        <ele>416</ele>
        <time>2014-04-13T08:52:40Z</time>
      </trkpt>
      <trkpt lat="47.525" lon="6.76887">
        <ele>416</ele>
        <time>2014-04-13T08:52:41Z</time>
      </trkpt>
      <trkpt lat="47.52507" lon="6.76886">
        <ele>415</ele>
        <time>2014-04-13T08:52:42Z</time>
      </trkpt>
      <trkpt lat="47.52514" lon="6.76885">
        <ele>414</ele>
        <time>2014-04-13T08:52:43Z</time>
      </trkpt>
      <trkpt lat="47.52521" lon="6.76884">
        <ele>413</ele>
        <time>2014-04-13T08:52:44Z</time>
      </trkpt>
      <trkpt lat="47.52528" lon="6.76883">
        <ele>413</ele>
        <time>2014-04-13T08:52:45Z</time>
      </trkpt>
      <trkpt lat="47.52536" lon="6.76881">
        <ele>412</ele>
        <time>2014-04-13T08:52:46Z</time>
      </trkpt>
      <trkpt lat="47.52544" lon="6.76882">
        <ele>411</ele>
        <time>2014-04-13T08:52:47Z</time>
      </trkpt>
      <trkpt lat="47.52552" lon="6.76883">
        <ele>410</ele>
        <time>2014-04-13T08:52:48Z</time>
      </trkpt>
      <trkpt lat="47.5256" lon="6.76883">
        <ele>409</ele>
        <time>2014-04-13T08:52:49Z</time>
      </trkpt>
      <trkpt lat="47.52568" lon="6.76884">
        <ele>408</ele>
        <time>2014-04-13T08:52:50Z</time>
      </trkpt>
      <trkpt lat="47.52576" lon="6.76885">
        <ele>407</ele>
        <time>2014-04-13T08:52:51Z</time>
      </trkpt>
      <trkpt lat="47.52585" lon="6.76885">
        <ele>406</ele>
        <time>2014-04-13T08:52:52Z</time>
      </trkpt>
      <trkpt lat="47.52594" lon="6.76886">
        <ele>405</ele>
        <time>2014-04-13T08:52:53Z</time>
      </trkpt>
      <trkpt lat="47.52602" lon="6.76886">
        <ele>404</ele>
        <time>2014-04-13T08:52:54Z</time>
      </trkpt>
      <trkpt lat="47.5261" lon="6.76888">
        <ele>403</ele>
        <time>2014-04-13T08:52:55Z</time>
      </trkpt>
      <trkpt lat="47.52617" lon="6.76888">
        <ele>401</ele>
        <time>2014-04-13T08:52:56Z</time>
      </trkpt>
      <trkpt lat="47.52625" lon="6.76888">
        <ele>400</ele>
        <time>2014-04-13T08:52:57Z</time>
      </trkpt>
      <trkpt lat="47.52631" lon="6.76887">
        <ele>399</ele>
        <time>2014-04-13T08:52:58Z</time>
      </trkpt>
      <trkpt lat="47.52638" lon="6.76885">
        <ele>398</ele>
        <time>2014-04-13T08:52:59Z</time>
      </trkpt>
      <trkpt lat="47.52645" lon="6.76886">
        <ele>398</ele>
        <time>2014-04-13T08:53:00Z</time>
      </trkpt>
      <trkpt lat="47.52653" lon="6.76886">
        <ele>397</ele>
        <time>2014-04-13T08:53:01Z</time>
      </trkpt>
      <trkpt lat="47.5266" lon="6.76887">
        <ele>396</ele>
        <time>2014-04-13T08:53:02Z</time>
      </trkpt>
      <trkpt lat="47.52668" lon="6.76886">
        <ele>394</ele>
        <time>2014-04-13T08:53:03Z</time>
      </trkpt>
      <trkpt lat="47.52676" lon="6.76886">
        <ele>393</ele>
        <time>2014-04-13T08:53:04Z</time>
      </trkpt>
      <trkpt lat="47.52684" lon="6.76884">
        <ele>392</ele>
        <time>2014-04-13T08:53:05Z</time>
      </trkpt>
      <trkpt lat="47.52692" lon="6.76879">
        <ele>391</ele>
        <time>2014-04-13T08:53:06Z</time>
      </trkpt>
      <trkpt lat="47.52701" lon="6.76876">
        <ele>390</ele>
        <time>2014-04-13T08:53:07Z</time>
      </trkpt>
      <trkpt lat="47.5271" lon="6.76873">
        <ele>389</ele>
        <time>2014-04-13T08:53:08Z</time>
      </trkpt>
      <trkpt lat="47.52718" lon="6.76871">
        <ele>388</ele>
        <time>2014-04-13T08:53:09Z</time>
      </trkpt>
      <trkpt lat="47.52725" lon="6.76869">
        <ele>388</ele>
        <time>2014-04-13T08:53:10Z</time>
      </trkpt>
      <trkpt lat="47.5273" lon="6.76868">
        <ele>387</ele>
        <time>2014-04-13T08:53:11Z</time>
      </trkpt>
      <trkpt lat="47.52733" lon="6.76865">
        <ele>386</ele>
        <time>2014-04-13T08:53:12Z</time>
      </trkpt>
      <trkpt lat="47.52735" lon="6.76861">
        <ele>385</ele>
        <time>2014-04-13T08:53:13Z</time>
      </trkpt>
      <trkpt lat="47.52733" lon="6.76845">
        <ele>385</ele>
        <time>2014-04-13T08:53:16Z</time>
      </trkpt>
      <trkpt lat="47.52731" lon="6.76839">
        <ele>385</ele>
        <time>2014-04-13T08:53:17Z</time>
      </trkpt>
      <trkpt lat="47.52729" lon="6.76834">
        <ele>385</ele>
        <time>2014-04-13T08:53:18Z</time>
      </trkpt>
      <trkpt lat="47.52726" lon="6.76828">
        <ele>384</ele>
        <time>2014-04-13T08:53:19Z</time>
      </trkpt>
      <trkpt lat="47.52724" lon="6.76822">
        <ele>384</ele>
        <time>2014-04-13T08:53:20Z</time>
      </trkpt>
      <trkpt lat="47.52722" lon="6.76816">
        <ele>384</ele>
        <time>2014-04-13T08:53:21Z</time>
      </trkpt>
      <trkpt lat="47.5272" lon="6.7681">
        <ele>383</ele>
        <time>2014-04-13T08:53:22Z</time>
      </trkpt>
      <trkpt lat="47.52718" lon="6.76804">
        <ele>383</ele>
        <time>2014-04-13T08:53:23Z</time>
      </trkpt>
      <trkpt lat="47.52712" lon="6.76787">
        <ele>383</ele>
        <time>2014-04-13T08:53:26Z</time>
      </trkpt>
      <trkpt lat="47.52703" lon="6.76763">
        <ele>383</ele>
        <time>2014-04-13T08:53:31Z</time>
      </trkpt>
      <trkpt lat="47.527" lon="6.76753">
        <ele>383</ele>
        <time>2014-04-13T08:53:33Z</time>
      </trkpt>
      <trkpt lat="47.52692" lon="6.76726">
        <ele>384</ele>
        <time>2014-04-13T08:53:39Z</time>
      </trkpt>
      <trkpt lat="47.5269" lon="6.76723">
        <ele>384</ele>
        <time>2014-04-13T08:53:40Z</time>
      </trkpt>
      <trkpt lat="47.52689" lon="6.7672">
        <ele>384</ele>
        <time>2014-04-13T08:53:41Z</time>
      </trkpt>
      <trkpt lat="47.52688" lon="6.76717">
        <ele>385</ele>
        <time>2014-04-13T08:53:42Z</time>
      </trkpt>
      <trkpt lat="47.52686" lon="6.76713">
        <ele>385</ele>
        <time>2014-04-13T08:53:43Z</time>
      </trkpt>
      <trkpt lat="47.52684" lon="6.76705">
        <ele>385</ele>
        <time>2014-04-13T08:53:46Z</time>
      </trkpt>
      <trkpt lat="47.52678" lon="6.76684">
        <ele>385</ele>
        <time>2014-04-13T08:53:51Z</time>
      </trkpt>
      <trkpt lat="47.52668" lon="6.76653">
        <ele>385</ele>
        <time>2014-04-13T08:53:59Z</time>
      </trkpt>
      <trkpt lat="47.52659" lon="6.76628">
        <ele>385</ele>
        <time>2014-04-13T08:54:06Z</time>
      </trkpt>
      <trkpt lat="47.52653" lon="6.76609">
        <ele>385</ele>
        <time>2014-04-13T08:54:12Z</time>
      </trkpt>
      <trkpt lat="47.52652" lon="6.76606">
        <ele>385</ele>
        <time>2014-04-13T08:54:13Z</time>
      </trkpt>
      <trkpt lat="47.52648" lon="6.7659">
        <ele>386</ele>
        <time>2014-04-13T08:54:17Z</time>
      </trkpt>
      <trkpt lat="47.52647" lon="6.76586">
        <ele>386</ele>
        <time>2014-04-13T08:54:18Z</time>
      </trkpt>
      <trkpt lat="47.52646" lon="6.76582">
        <ele>387</ele>
        <time>2014-04-13T08:54:19Z</time>
      </trkpt>
      <trkpt lat="47.52645" lon="6.76579">
        <ele>387</ele>
        <time>2014-04-13T08:54:20Z</time>
      </trkpt>
      <trkpt lat="47.5264" lon="6.76557">
        <ele>387</ele>
        <time>2014-04-13T08:54:26Z</time>
      </trkpt>
      <trkpt lat="47.52633" lon="6.76543">
        <ele>387</ele>
        <time>2014-04-13T08:54:31Z</time>
      </trkpt>
      <trkpt lat="47.52631" lon="6.76545">
        <ele>387</ele>
        <time>2014-04-13T08:54:32Z</time>
      </trkpt>
      <trkpt lat="47.52628" lon="6.76552">
        <ele>387</ele>
        <time>2014-04-13T08:54:34Z</time>
      </trkpt>
      <trkpt lat="47.52624" lon="6.76566">
        <ele>388</ele>
        <time>2014-04-13T08:54:38Z</time>
      </trkpt>
      <trkpt lat="47.52623" lon="6.76569">
        <ele>388</ele>
        <time>2014-04-13T08:54:39Z</time>
      </trkpt>
      <trkpt lat="47.52622" lon="6.76572">
        <ele>389</ele>
        <time>2014-04-13T08:54:40Z</time>
      </trkpt>
      <trkpt lat="47.52621" lon="6.76574">
        <ele>389</ele>
        <time>2014-04-13T08:54:41Z</time>
      </trkpt>
      <trkpt lat="47.5262" lon="6.76577">
        <ele>389</ele>
        <time>2014-04-13T08:54:42Z</time>
      </trkpt>
      <trkpt lat="47.52615" lon="6.76591">
        <ele>390</ele>
        <time>2014-04-13T08:54:47Z</time>
      </trkpt>
      <trkpt lat="47.52614" lon="6.76594">
        <ele>390</ele>
        <time>2014-04-13T08:54:48Z</time>
      </trkpt>
      <trkpt lat="47.52613" lon="6.76596">
        <ele>391</ele>
        <time>2014-04-13T08:54:49Z</time>
      </trkpt>
      <trkpt lat="47.52612" lon="6.76599">
        <ele>391</ele>
        <time>2014-04-13T08:54:50Z</time>
      </trkpt>
      <trkpt lat="47.52611" lon="6.76601">
        <ele>392</ele>
        <time>2014-04-13T08:54:51Z</time>
      </trkpt>
      <trkpt lat="47.52603" lon="6.76621">
        <ele>392</ele>
        <time>2014-04-13T08:54:59Z</time>
      </trkpt>
      <trkpt lat="47.52602" lon="6.76623">
        <ele>392</ele>
        <time>2014-04-13T08:55:00Z</time>
      </trkpt>
      <trkpt lat="47.52601" lon="6.76625">
        <ele>393</ele>
        <time>2014-04-13T08:55:01Z</time>
      </trkpt>
      <trkpt lat="47.526" lon="6.76627">
        <ele>393</ele>
        <time>2014-04-13T08:55:02Z</time>
      </trkpt>
      <trkpt lat="47.52599" lon="6.76628">
        <ele>394</ele>
        <time>2014-04-13T08:55:03Z</time>
      </trkpt>
      <trkpt lat="47.52596" lon="6.76634">
        <ele>394</ele>
        <time>2014-04-13T08:55:06Z</time>
      </trkpt>
      <trkpt lat="47.52594" lon="6.76637">
        <ele>394</ele>
        <time>2014-04-13T08:55:08Z</time>
      </trkpt>
      <trkpt lat="47.52594" lon="6.7664">
        <ele>395</ele>
        <time>2014-04-13T08:55:09Z</time>
      </trkpt>
      <trkpt lat="47.52593" lon="6.76642">
        <ele>395</ele>
        <time>2014-04-13T08:55:10Z</time>
      </trkpt>
      <trkpt lat="47.52592" lon="6.76644">
        <ele>395</ele>
        <time>2014-04-13T08:55:11Z</time>
      </trkpt>
      <trkpt lat="47.52592" lon="6.76647">
        <ele>396</ele>
        <time>2014-04-13T08:55:12Z</time>
      </trkpt>
      <trkpt lat="47.5259" lon="6.76649">
        <ele>396</ele>
        <time>2014-04-13T08:55:13Z</time>
      </trkpt>
      <trkpt lat="47.52581" lon="6.76664">
        <ele>396</ele>
        <time>2014-04-13T08:55:20Z</time>
      </trkpt>
      <trkpt lat="47.5258" lon="6.76666">
        <ele>397</ele>
        <time>2014-04-13T08:55:21Z</time>
      </trkpt>
      <trkpt lat="47.52578" lon="6.76667">
        <ele>397</ele>
        <time>2014-04-13T08:55:22Z</time>
      </trkpt>
      <trkpt lat="47.52577" lon="6.76669">
        <ele>398</ele>
        <time>2014-04-13T08:55:23Z</time>
      </trkpt>
      <trkpt lat="47.52576" lon="6.76671">
        <ele>398</ele>
        <time>2014-04-13T08:55:24Z</time>
      </trkpt>
      <trkpt lat="47.52569" lon="6.76679">
        <ele>398</ele>
        <time>2014-04-13T08:55:29Z</time>
      </trkpt>
      <trkpt lat="47.52567" lon="6.7668">
        <ele>399</ele>
        <time>2014-04-13T08:55:30Z</time>
      </trkpt>
      <trkpt lat="47.52566" lon="6.76682">
        <ele>399</ele>
        <time>2014-04-13T08:55:31Z</time>
      </trkpt>
      <trkpt lat="47.52565" lon="6.76683">
        <ele>400</ele>
        <time>2014-04-13T08:55:32Z</time>
      </trkpt>
      <trkpt lat="47.52553" lon="6.76695">
        <ele>401</ele>
        <time>2014-04-13T08:55:40Z</time>
      </trkpt>
      <trkpt lat="47.52552" lon="6.76697">
        <ele>401</ele>
        <time>2014-04-13T08:55:41Z</time>
      </trkpt>
      <trkpt lat="47.52551" lon="6.76698">
        <ele>401</ele>
        <time>2014-04-13T08:55:42Z</time>
      </trkpt>
      <trkpt lat="47.52549" lon="6.767">
        <ele>402</ele>
        <time>2014-04-13T08:55:43Z</time>
      </trkpt>
      <trkpt lat="47.52548" lon="6.76701">
        <ele>402</ele>
        <time>2014-04-13T08:55:44Z</time>
      </trkpt>
      <trkpt lat="47.52539" lon="6.76711">
        <ele>402</ele>
        <time>2014-04-13T08:55:50Z</time>
      </trkpt>
      <trkpt lat="47.52538" lon="6.76712">
        <ele>403</ele>
        <time>2014-04-13T08:55:51Z</time>
      </trkpt>
      <trkpt lat="47.52536" lon="6.76714">
        <ele>403</ele>
        <time>2014-04-13T08:55:52Z</time>
      </trkpt>
      <trkpt lat="47.52535" lon="6.76716">
        <ele>403</ele>
        <time>2014-04-13T08:55:53Z</time>
      </trkpt>
      <trkpt lat="47.52533" lon="6.76717">
        <ele>404</ele>
        <time>2014-04-13T08:55:54Z</time>
      </trkpt>
      <trkpt lat="47.52532" lon="6.76719">
        <ele>404</ele>
        <time>2014-04-13T08:55:55Z</time>
      </trkpt>
      <trkpt lat="47.52525" lon="6.76727">
        <ele>404</ele>
        <time>2014-04-13T08:56:00Z</time>
      </trkpt>
      <trkpt lat="47.52523" lon="6.76729">
        <ele>405</ele>
        <time>2014-04-13T08:56:01Z</time>
      </trkpt>
      <trkpt lat="47.52522" lon="6.76731">
        <ele>405</ele>
        <time>2014-04-13T08:56:02Z</time>
      </trkpt>
      <trkpt lat="47.5252" lon="6.76732">
        <ele>406</ele>
        <time>2014-04-13T08:56:03Z</time>
      </trkpt>
      <trkpt lat="47.52519" lon="6.76734">
        <ele>406</ele>
        <time>2014-04-13T08:56:04Z</time>
      </trkpt>
      <trkpt lat="47.52517" lon="6.76735">
        <ele>407</ele>
        <time>2014-04-13T08:56:05Z</time>
      </trkpt>
      <trkpt lat="47.52513" lon="6.76737">
        <ele>407</ele>
        <time>2014-04-13T08:56:07Z</time>
      </trkpt>
      <trkpt lat="47.52507" lon="6.76733">
        <ele>407</ele>
        <time>2014-04-13T08:56:11Z</time>
      </trkpt>
      <trkpt lat="47.52505" lon="6.76731">
        <ele>407</ele>
        <time>2014-04-13T08:56:12Z</time>
      </trkpt>
      <trkpt lat="47.52503" lon="6.76729">
        <ele>408</ele>
        <time>2014-04-13T08:56:13Z</time>
      </trkpt>
      <trkpt lat="47.52502" lon="6.76726">
        <ele>408</ele>
        <time>2014-04-13T08:56:14Z</time>
      </trkpt>
      <trkpt lat="47.525" lon="6.76724">
        <ele>409</ele>
        <time>2014-04-13T08:56:15Z</time>
      </trkpt>
      <trkpt lat="47.52497" lon="6.76719">
        <ele>409</ele>
        <time>2014-04-13T08:56:17Z</time>
      </trkpt>
      <trkpt lat="47.5248" lon="6.76695">
        <ele>409</ele>
        <time>2014-04-13T08:56:26Z</time>
      </trkpt>
      <trkpt lat="47.52476" lon="6.7669">
        <ele>409</ele>
        <time>2014-04-13T08:56:28Z</time>
      </trkpt>
      <trkpt lat="47.52473" lon="6.76687">
        <ele>410</ele>
        <time>2014-04-13T08:56:29Z</time>
      </trkpt>
      <trkpt lat="47.52471" lon="6.76685">
        <ele>410</ele>
        <time>2014-04-13T08:56:30Z</time>
      </trkpt>
      <trkpt lat="47.52469" lon="6.76682">
        <ele>410</ele>
        <time>2014-04-13T08:56:31Z</time>
      </trkpt>
      <trkpt lat="47.52467" lon="6.7668">
        <ele>411</ele>
        <time>2014-04-13T08:56:32Z</time>
      </trkpt>
      <trkpt lat="47.5246" lon="6.76672">
        <ele>411</ele>
        <time>2014-04-13T08:56:35Z</time>
      </trkpt>
      <trkpt lat="47.52442" lon="6.76651">
        <ele>411</ele>
        <time>2014-04-13T08:56:43Z</time>
      </trkpt>
      <trkpt lat="47.52437" lon="6.76646">
        <ele>411</ele>
        <time>2014-04-13T08:56:45Z</time>
      </trkpt>
      <trkpt lat="47.52434" lon="6.76643">
        <ele>412</ele>
        <time>2014-04-13T08:56:46Z</time>
      </trkpt>
      <trkpt lat="47.52432" lon="6.7664">
        <ele>412</ele>
        <time>2014-04-13T08:56:47Z</time>
      </trkpt>
      <trkpt lat="47.5243" lon="6.76638">
        <ele>413</ele>
        <time>2014-04-13T08:56:48Z</time>
      </trkpt>
      <trkpt lat="47.52421" lon="6.7663">
        <ele>413</ele>
        <time>2014-04-13T08:56:51Z</time>
      </trkpt>
      <trkpt lat="47.52394" lon="6.76613">
        <ele>413</ele>
        <time>2014-04-13T08:56:59Z</time>
      </trkpt>
      <trkpt lat="47.52372" lon="6.76605">
        <ele>413</ele>
        <time>2014-04-13T08:57:05Z</time>
      </trkpt>
      <trkpt lat="47.52349" lon="6.76593">
        <ele>413</ele>
        <time>2014-04-13T08:57:10Z</time>
      </trkpt>
      <trkpt lat="47.52324" lon="6.76579">
        <ele>412</ele>
        <time>2014-04-13T08:57:14Z</time>
      </trkpt>
      <trkpt lat="47.52317" lon="6.76575">
        <ele>412</ele>
        <time>2014-04-13T08:57:15Z</time>
      </trkpt>
      <trkpt lat="47.5231" lon="6.76571">
        <ele>411</ele>
        <time>2014-04-13T08:57:16Z</time>
      </trkpt>
      <trkpt lat="47.52303" lon="6.76567">
        <ele>411</ele>
        <time>2014-04-13T08:57:17Z</time>
      </trkpt>
      <trkpt lat="47.52295" lon="6.76563">
        <ele>410</ele>
        <time>2014-04-13T08:57:18Z</time>
      </trkpt>
      <trkpt lat="47.52287" lon="6.76559">
        <ele>409</ele>
        <time>2014-04-13T08:57:19Z</time>
      </trkpt>
      <trkpt lat="47.5228" lon="6.76555">
        <ele>409</ele>
        <time>2014-04-13T08:57:20Z</time>
      </trkpt>
      <trkpt lat="47.52272" lon="6.76551">
        <ele>408</ele>
        <time>2014-04-13T08:57:21Z</time>
      </trkpt>
      <trkpt lat="47.52256" lon="6.76543">
        <ele>408</ele>
        <time>2014-04-13T08:57:23Z</time>
      </trkpt>
      <trkpt lat="47.52248" lon="6.76539">
        <ele>407</ele>
        <time>2014-04-13T08:57:24Z</time>
      </trkpt>
      <trkpt lat="47.5224" lon="6.76534">
        <ele>407</ele>
        <time>2014-04-13T08:57:25Z</time>
      </trkpt>
      <trkpt lat="47.52231" lon="6.7653">
        <ele>406</ele>
        <time>2014-04-13T08:57:26Z</time>
      </trkpt>
      <trkpt lat="47.52222" lon="6.76526">
        <ele>405</ele>
        <time>2014-04-13T08:57:27Z</time>
      </trkpt>
      <trkpt lat="47.52214" lon="6.76521">
        <ele>404</ele>
        <time>2014-04-13T08:57:28Z</time>
      </trkpt>
      <trkpt lat="47.52205" lon="6.76517">
        <ele>403</ele>
        <time>2014-04-13T08:57:29Z</time>
      </trkpt>
      <trkpt lat="47.52196" lon="6.76513">
        <ele>403</ele>
        <time>2014-04-13T08:57:30Z</time>
      </trkpt>
      <trkpt lat="47.52187" lon="6.76509">
        <ele>402</ele>
        <time>2014-04-13T08:57:31Z</time>
      </trkpt>
      <trkpt lat="47.52178" lon="6.76504">
        <ele>401</ele>
        <time>2014-04-13T08:57:32Z</time>
      </trkpt>
      <trkpt lat="47.52169" lon="6.76499">
        <ele>400</ele>
        <time>2014-04-13T08:57:33Z</time>
      </trkpt>
      <trkpt lat="47.52161" lon="6.76495">
        <ele>399</ele>
        <time>2014-04-13T08:57:34Z</time>
      </trkpt>
      <trkpt lat="47.52152" lon="6.76491">
        <ele>398</ele>
        <time>2014-04-13T08:57:35Z</time>
      </trkpt>
      <trkpt lat="47.52143" lon="6.76486">
        <ele>397</ele>
        <time>2014-04-13T08:57:36Z</time>
      </trkpt>
      <trkpt lat="47.52134" lon="6.76482">
        <ele>397</ele>
        <time>2014-04-13T08:57:37Z</time>
      </trkpt>
      <trkpt lat="47.52126" lon="6.76477">
        <ele>396</ele>
        <time>2014-04-13T08:57:38Z</time>
      </trkpt>
      <trkpt lat="47.52117" lon="6.76473">
        <ele>395</ele>
        <time>2014-04-13T08:57:39Z</time>
      </trkpt>
      <trkpt lat="47.52108" lon="6.76468">
        <ele>394</ele>
        <time>2014-04-13T08:57:40Z</time>
      </trkpt>
      <trkpt lat="47.521" lon="6.76464">
        <ele>394</ele>
        <time>2014-04-13T08:57:41Z</time>
      </trkpt>
      <trkpt lat="47.52092" lon="6.7646">
        <ele>393</ele>
        <time>2014-04-13T08:57:42Z</time>
      </trkpt>
      <trkpt lat="47.52083" lon="6.76456">
        <ele>392</ele>
        <time>2014-04-13T08:57:43Z</time>
      </trkpt>
      <trkpt lat="47.52075" lon="6.76453">
        <ele>392</ele>
        <time>2014-04-13T08:57:44Z</time>
      </trkpt>
      <trkpt lat="47.52068" lon="6.76449">
        <ele>391</ele>
        <time>2014-04-13T08:57:45Z</time>
      </trkpt>
      <trkpt lat="47.52039" lon="6.76435">
        <ele>391</ele>
        <time>2014-04-13T08:57:49Z</time>
      </trkpt>
      <trkpt lat="47.52025" lon="6.76429">
        <ele>391</ele>
        <time>2014-04-13T08:57:51Z</time>
      </trkpt>
      <trkpt lat="47.51978" lon="6.76406">
        <ele>391</ele>
        <time>2014-04-13T08:57:58Z</time>
      </trkpt>
      <trkpt lat="47.51973" lon="6.76402">
        <ele>391</ele>
        <time>2014-04-13T08:57:59Z</time>
      </trkpt>
      <trkpt lat="47.51968" lon="6.76398">
        <ele>390</ele>
        <time>2014-04-13T08:58:00Z</time>
      </trkpt>
      <trkpt lat="47.51966" lon="6.76391">
        <ele>390</ele>
        <time>2014-04-13T08:58:01Z</time>
      </trkpt>
      <trkpt lat="47.51964" lon="6.76384">
        <ele>389</ele>
        <time>2014-04-13T08:58:02Z</time>
      </trkpt>
      <trkpt lat="47.51964" lon="6.76378">
        <ele>389</ele>
        <time>2014-04-13T08:58:03Z</time>
      </trkpt>
      <trkpt lat="47.51964" lon="6.76374">
        <ele>389</ele>
        <time>2014-04-13T08:58:04Z</time>
      </trkpt>
      <trkpt lat="47.51963" lon="6.76372">
        <ele>389</ele>
        <time>2014-04-13T08:58:05Z</time>
      </trkpt>
      <trkpt lat="47.51962" lon="6.76369">
        <ele>389</ele>
        <time>2014-04-13T08:58:06Z</time>
      </trkpt>
      <trkpt lat="47.51958" lon="6.76365">
        <ele>389</ele>
        <time>2014-04-13T08:58:08Z</time>
      </trkpt>
      <trkpt lat="47.51953" lon="6.76362">
        <ele>389</ele>
        <time>2014-04-13T08:58:10Z</time>
      </trkpt>
      <trkpt lat="47.51951" lon="6.76362">
        <ele>389</ele>
        <time>2014-04-13T08:58:11Z</time>
      </trkpt>
      <trkpt lat="47.5195" lon="6.76362">
        <ele>389</ele>
        <time>2014-04-13T08:58:12Z</time>
      </trkpt>
      <trkpt lat="47.51949" lon="6.76362">
        <ele>389</ele>
        <time>2014-04-13T08:58:13Z</time>
      </trkpt>
      <trkpt lat="47.51948" lon="6.76361">
        <ele>389</ele>
        <time>2014-04-13T08:58:33Z</time>
      </trkpt>
      <trkpt lat="47.51946" lon="6.7636">
        <ele>389</ele>
        <time>2014-04-13T08:58:34Z</time>
      </trkpt>
      <trkpt lat="47.51944" lon="6.7636">
        <ele>389</ele>
        <time>2014-04-13T08:58:35Z</time>
      </trkpt>
      <trkpt lat="47.51942" lon="6.7636">
        <ele>389</ele>
        <time>2014-04-13T08:58:36Z</time>
      </trkpt>
      <trkpt lat="47.51934" lon="6.76361">
        <ele>388</ele>
        <time>2014-04-13T08:58:38Z</time>
      </trkpt>
      <trkpt lat="47.5193" lon="6.76362">
        <ele>388</ele>
        <time>2014-04-13T08:58:39Z</time>
      </trkpt>
      <trkpt lat="47.51926" lon="6.76363">
        <ele>388</ele>
        <time>2014-04-13T08:58:40Z</time>
      </trkpt>
      <trkpt lat="47.51921" lon="6.76363">
        <ele>387</ele>
        <time>2014-04-13T08:58:41Z</time>
      </trkpt>
      <trkpt lat="47.51916" lon="6.76363">
        <ele>387</ele>
        <time>2014-04-13T08:58:42Z</time>
      </trkpt>
      <trkpt lat="47.5191" lon="6.76364">
        <ele>387</ele>
        <time>2014-04-13T08:58:43Z</time>
      </trkpt>
      <trkpt lat="47.51905" lon="6.76366">
        <ele>387</ele>
        <time>2014-04-13T08:58:44Z</time>
      </trkpt>
      <trkpt lat="47.51899" lon="6.76367">
        <ele>387</ele>
        <time>2014-04-13T08:58:45Z</time>
      </trkpt>
      <trkpt lat="47.51894" lon="6.76366">
        <ele>386</ele>
        <time>2014-04-13T08:58:46Z</time>
      </trkpt>
      <trkpt lat="47.51887" lon="6.76365">
        <ele>386</ele>
        <time>2014-04-13T08:58:47Z</time>
      </trkpt>
      <trkpt lat="47.5188" lon="6.76363">
        <ele>385</ele>
        <time>2014-04-13T08:58:48Z</time>
      </trkpt>
      <trkpt lat="47.51873" lon="6.76362">
        <ele>385</ele>
        <time>2014-04-13T08:58:49Z</time>
      </trkpt>
      <trkpt lat="47.51859" lon="6.76361">
        <ele>385</ele>
        <time>2014-04-13T08:58:51Z</time>
      </trkpt>
      <trkpt lat="47.51853" lon="6.76361">
        <ele>384</ele>
        <time>2014-04-13T08:58:52Z</time>
      </trkpt>
      <trkpt lat="47.51847" lon="6.7636">
        <ele>384</ele>
        <time>2014-04-13T08:58:53Z</time>
      </trkpt>
      <trkpt lat="47.51841" lon="6.76359">
        <ele>383</ele>
        <time>2014-04-13T08:58:54Z</time>
      </trkpt>
      <trkpt lat="47.51835" lon="6.76357">
        <ele>383</ele>
        <time>2014-04-13T08:58:55Z</time>
      </trkpt>
      <trkpt lat="47.51829" lon="6.76356">
        <ele>382</ele>
        <time>2014-04-13T08:58:56Z</time>
      </trkpt>
      <trkpt lat="47.51811" lon="6.76349">
        <ele>382</ele>
        <time>2014-04-13T08:58:59Z</time>
      </trkpt>
      <trkpt lat="47.518" lon="6.76344">
        <ele>382</ele>
        <time>2014-04-13T08:59:01Z</time>
      </trkpt>
      <trkpt lat="47.51792" lon="6.76334">
        <ele>382</ele>
        <time>2014-04-13T08:59:04Z</time>
      </trkpt>
      <trkpt lat="47.51795" lon="6.76319">
        <ele>382</ele>
        <time>2014-04-13T08:59:08Z</time>
      </trkpt>
      <trkpt lat="47.51796" lon="6.76315">
        <ele>382</ele>
        <time>2014-04-13T08:59:09Z</time>
      </trkpt>
      <trkpt lat="47.51795" lon="6.763">
        <ele>382</ele>
        <time>2014-04-13T08:59:12Z</time>
      </trkpt>
      <trkpt lat="47.51785" lon="6.7629">
        <ele>382</ele>
        <time>2014-04-13T08:59:16Z</time>
      </trkpt>
      <trkpt lat="47.51775" lon="6.76289">
        <ele>382</ele>
        <time>2014-04-13T08:59:20Z</time>
      </trkpt>
      <trkpt lat="47.51772" lon="6.76288">
        <ele>383</ele>
        <time>2014-04-13T08:59:21Z</time>
      </trkpt>
      <trkpt lat="47.5177" lon="6.76288">
        <ele>383</ele>
        <time>2014-04-13T08:59:22Z</time>
      </trkpt>
      <trkpt lat="47.51767" lon="6.76287">
        <ele>384</ele>
        <time>2014-04-13T08:59:23Z</time>
      </trkpt>
      <trkpt lat="47.51764" lon="6.76287">
        <ele>384</ele>
        <time>2014-04-13T08:59:24Z</time>
      </trkpt>
      <trkpt lat="47.51761" lon="6.76288">
        <ele>384</ele>
        <time>2014-04-13T08:59:25Z</time>
      </trkpt>
      <trkpt lat="47.51755" lon="6.76291">
        <ele>384</ele>
        <time>2014-04-13T08:59:28Z</time>
      </trkpt>
      <trkpt lat="47.51748" lon="6.76293">
        <ele>384</ele>
        <time>2014-04-13T08:59:32Z</time>
      </trkpt>
      <trkpt lat="47.51746" lon="6.76295">
        <ele>384</ele>
        <time>2014-04-13T08:59:33Z</time>
      </trkpt>
      <trkpt lat="47.51735" lon="6.76306">
        <ele>384</ele>
        <time>2014-04-13T08:59:37Z</time>
      </trkpt>
      <trkpt lat="47.51728" lon="6.76312">
        <ele>384</ele>
        <time>2014-04-13T08:59:39Z</time>
      </trkpt>
      <trkpt lat="47.51719" lon="6.76315">
        <ele>384</ele>
        <time>2014-04-13T08:59:42Z</time>
      </trkpt>
      <trkpt lat="47.51699" lon="6.7632">
        <ele>384</ele>
        <time>2014-04-13T08:59:47Z</time>
      </trkpt>
      <trkpt lat="47.5168" lon="6.76324">
        <ele>384</ele>
        <time>2014-04-13T08:59:51Z</time>
      </trkpt>
      <trkpt lat="47.51675" lon="6.76325">
        <ele>384</ele>
        <time>2014-04-13T08:59:52Z</time>
      </trkpt>
      <trkpt lat="47.5167" lon="6.76326">
        <ele>384</ele>
        <time>2014-04-13T08:59:53Z</time>
      </trkpt>
      <trkpt lat="47.51666" lon="6.76327">
        <ele>383</ele>
        <time>2014-04-13T08:59:54Z</time>
      </trkpt>
      <trkpt lat="47.51662" lon="6.76329">
        <ele>383</ele>
        <time>2014-04-13T08:59:55Z</time>
      </trkpt>
      <trkpt lat="47.51658" lon="6.76331">
        <ele>382</ele>
        <time>2014-04-13T08:59:56Z</time>
      </trkpt>
      <trkpt lat="47.51654" lon="6.76333">
        <ele>382</ele>
        <time>2014-04-13T08:59:57Z</time>
      </trkpt>
      <trkpt lat="47.51649" lon="6.76334">
        <ele>382</ele>
        <time>2014-04-13T08:59:58Z</time>
      </trkpt>
      <trkpt lat="47.51636" lon="6.76339">
        <ele>382</ele>
        <time>2014-04-13T09:00:01Z</time>
      </trkpt>
      <trkpt lat="47.51631" lon="6.7634">
        <ele>382</ele>
        <time>2014-04-13T09:00:02Z</time>
      </trkpt>
      <trkpt lat="47.51625" lon="6.76341">
        <ele>381</ele>
        <time>2014-04-13T09:00:03Z</time>
      </trkpt>
      <trkpt lat="47.5162" lon="6.76341">
        <ele>381</ele>
        <time>2014-04-13T09:00:04Z</time>
      </trkpt>
      <trkpt lat="47.51614" lon="6.76341">
        <ele>380</ele>
        <time>2014-04-13T09:00:05Z</time>
      </trkpt>
      <trkpt lat="47.51609" lon="6.76341">
        <ele>379</ele>
        <time>2014-04-13T09:00:06Z</time>
      </trkpt>
      <trkpt lat="47.51603" lon="6.76342">
        <ele>378</ele>
        <time>2014-04-13T09:00:07Z</time>
      </trkpt>
      <trkpt lat="47.51597" lon="6.76344">
        <ele>377</ele>
        <time>2014-04-13T09:00:08Z</time>
      </trkpt>
      <trkpt lat="47.51592" lon="6.76345">
        <ele>376</ele>
        <time>2014-04-13T09:00:09Z</time>
      </trkpt>
      <trkpt lat="47.51587" lon="6.76346">
        <ele>375</ele>
        <time>2014-04-13T09:00:10Z</time>
      </trkpt>
      <trkpt lat="47.51581" lon="6.76346">
        <ele>374</ele>
        <time>2014-04-13T09:00:11Z</time>
      </trkpt>
      <trkpt lat="47.51575" lon="6.76348">
        <ele>373</ele>
        <time>2014-04-13T09:00:12Z</time>
      </trkpt>
      <trkpt lat="47.51564" lon="6.76352">
        <ele>373</ele>
        <time>2014-04-13T09:00:14Z</time>
      </trkpt>
      <trkpt lat="47.51559" lon="6.76355">
        <ele>372</ele>
        <time>2014-04-13T09:00:15Z</time>
      </trkpt>
      <trkpt lat="47.51554" lon="6.76359">
        <ele>372</ele>
        <time>2014-04-13T09:00:16Z</time>
      </trkpt>
      <trkpt lat="47.51548" lon="6.76366">
        <ele>372</ele>
        <time>2014-04-13T09:00:17Z</time>
      </trkpt>
      <trkpt lat="47.51543" lon="6.76373">
        <ele>371</ele>
        <time>2014-04-13T09:00:18Z</time>
      </trkpt>
      <trkpt lat="47.5153" lon="6.76383">
        <ele>371</ele>
        <time>2014-04-13T09:00:20Z</time>
      </trkpt>
      <trkpt lat="47.51524" lon="6.76384">
        <ele>371</ele>
        <time>2014-04-13T09:00:21Z</time>
      </trkpt>
      <trkpt lat="47.51517" lon="6.76383">
        <ele>370</ele>
        <time>2014-04-13T09:00:22Z</time>
      </trkpt>
      <trkpt lat="47.5151" lon="6.76383">
        <ele>370</ele>
        <time>2014-04-13T09:00:23Z</time>
      </trkpt>
      <trkpt lat="47.51504" lon="6.76383">
        <ele>369</ele>
        <time>2014-04-13T09:00:24Z</time>
      </trkpt>
      <trkpt lat="47.51498" lon="6.76383">
        <ele>369</ele>
        <time>2014-04-13T09:00:25Z</time>
      </trkpt>
      <trkpt lat="47.5149" lon="6.76382">
        <ele>368</ele>
        <time>2014-04-13T09:00:26Z</time>
      </trkpt>
      <trkpt lat="47.51483" lon="6.76381">
        <ele>367</ele>
        <time>2014-04-13T09:00:27Z</time>
      </trkpt>
      <trkpt lat="47.51476" lon="6.76381">
        <ele>366</ele>
        <time>2014-04-13T09:00:28Z</time>
      </trkpt>
      <trkpt lat="47.5147" lon="6.76381">
        <ele>366</ele>
        <time>2014-04-13T09:00:29Z</time>
      </trkpt>
      <trkpt lat="47.51465" lon="6.76382">
        <ele>365</ele>
        <time>2014-04-13T09:00:30Z</time>
      </trkpt>
      <trkpt lat="47.51459" lon="6.76384">
        <ele>364</ele>
        <time>2014-04-13T09:00:31Z</time>
      </trkpt>
      <trkpt lat="47.51454" lon="6.76386">
        <ele>363</ele>
        <time>2014-04-13T09:00:32Z</time>
      </trkpt>
      <trkpt lat="47.51448" lon="6.76389">
        <ele>362</ele>
        <time>2014-04-13T09:00:33Z</time>
      </trkpt>
      <trkpt lat="47.51443" lon="6.76393">
        <ele>361</ele>
        <time>2014-04-13T09:00:34Z</time>
      </trkpt>
      <trkpt lat="47.51438" lon="6.76397">
        <ele>361</ele>
        <time>2014-04-13T09:00:35Z</time>
      </trkpt>
      <trkpt lat="47.51432" lon="6.76402">
        <ele>360</ele>
        <time>2014-04-13T09:00:36Z</time>
      </trkpt>
      <trkpt lat="47.51425" lon="6.76408">
        <ele>359</ele>
        <time>2014-04-13T09:00:37Z</time>
      </trkpt>
      <trkpt lat="47.51416" lon="6.76412">
        <ele>359</ele>
        <time>2014-04-13T09:00:38Z</time>
      </trkpt>
      <trkpt lat="47.51408" lon="6.76414">
        <ele>358</ele>
        <time>2014-04-13T09:00:39Z</time>
      </trkpt>
      <trkpt lat="47.51398" lon="6.76415">
        <ele>358</ele>
        <time>2014-04-13T09:00:40Z</time>
      </trkpt>
      <trkpt lat="47.51389" lon="6.76415">
        <ele>357</ele>
        <time>2014-04-13T09:00:41Z</time>
      </trkpt>
      <trkpt lat="47.51379" lon="6.76414">
        <ele>357</ele>
        <time>2014-04-13T09:00:42Z</time>
      </trkpt>
      <trkpt lat="47.51367" lon="6.76411">
        <ele>356</ele>
        <time>2014-04-13T09:00:43Z</time>
      </trkpt>
      <trkpt lat="47.51356" lon="6.76408">
        <ele>356</ele>
        <time>2014-04-13T09:00:44Z</time>
      </trkpt>
      <trkpt lat="47.51346" lon="6.76403">
        <ele>355</ele>
        <time>2014-04-13T09:00:45Z</time>
      </trkpt>
      <trkpt lat="47.5134" lon="6.76395">
        <ele>355</ele>
        <time>2014-04-13T09:00:46Z</time>
      </trkpt>
      <trkpt lat="47.51323" lon="6.76366">
        <ele>355</ele>
        <time>2014-04-13T09:00:49Z</time>
      </trkpt>
      <trkpt lat="47.51318" lon="6.76357">
        <ele>354</ele>
        <time>2014-04-13T09:00:50Z</time>
      </trkpt>
      <trkpt lat="47.51314" lon="6.76349">
        <ele>353</ele>
        <time>2014-04-13T09:00:51Z</time>
      </trkpt>
      <trkpt lat="47.5131" lon="6.76341">
        <ele>353</ele>
        <time>2014-04-13T09:00:52Z</time>
      </trkpt>
      <trkpt lat="47.51294" lon="6.76309">
        <ele>353</ele>
        <time>2014-04-13T09:00:57Z</time>
      </trkpt>
      <trkpt lat="47.51277" lon="6.76267">
        <ele>353</ele>
        <time>2014-04-13T09:01:03Z</time>
      </trkpt>
      <trkpt lat="47.51274" lon="6.7626">
        <ele>353</ele>
        <time>2014-04-13T09:01:04Z</time>
      </trkpt>
      <trkpt lat="47.51266" lon="6.76238">
        <ele>353</ele>
        <time>2014-04-13T09:01:07Z</time>
      </trkpt>
      <trkpt lat="47.5126" lon="6.76222">
        <ele>353</ele>
        <time>2014-04-13T09:01:09Z</time>
      </trkpt>
      <trkpt lat="47.51254" lon="6.76205">
        <ele>352</ele>
        <time>2014-04-13T09:01:11Z</time>
      </trkpt>
      <trkpt lat="47.51251" lon="6.76197">
        <ele>352</ele>
        <time>2014-04-13T09:01:12Z</time>
      </trkpt>
      <trkpt lat="47.51248" lon="6.76188">
        <ele>351</ele>
        <time>2014-04-13T09:01:13Z</time>
      </trkpt>
      <trkpt lat="47.51244" lon="6.76169">
        <ele>350</ele>
        <time>2014-04-13T09:01:14Z</time>
      </trkpt>
      <trkpt lat="47.51242" lon="6.76159">
        <ele>350</ele>
        <time>2014-04-13T09:01:16Z</time>
      </trkpt>
      <trkpt lat="47.51237" lon="6.76123">
        <ele>350</ele>
        <time>2014-04-13T09:01:20Z</time>
      </trkpt>
      <trkpt lat="47.51236" lon="6.76105">
        <ele>350</ele>
        <time>2014-04-13T09:01:22Z</time>
      </trkpt>
      <trkpt lat="47.51232" lon="6.76076">
        <ele>350</ele>
        <time>2014-04-13T09:01:25Z</time>
      </trkpt>
      <trkpt lat="47.5123" lon="6.76067">
        <ele>350</ele>
        <time>2014-04-13T09:01:26Z</time>
      </trkpt>
      <trkpt lat="47.51228" lon="6.76057">
        <ele>350</ele>
        <time>2014-04-13T09:01:27Z</time>
      </trkpt>
      <trkpt lat="47.51226" lon="6.76048">
        <ele>349</ele>
        <time>2014-04-13T09:01:28Z</time>
      </trkpt>
      <trkpt lat="47.51225" lon="6.76038">
        <ele>349</ele>
        <time>2014-04-13T09:01:29Z</time>
      </trkpt>
      <trkpt lat="47.51224" lon="6.76029">
        <ele>348</ele>
        <time>2014-04-13T09:01:30Z</time>
      </trkpt>
      <trkpt lat="47.51221" lon="6.76011">
        <ele>348</ele>
        <time>2014-04-13T09:01:32Z</time>
      </trkpt>
      <trkpt lat="47.51215" lon="6.75983">
        <ele>348</ele>
        <time>2014-04-13T09:01:35Z</time>
      </trkpt>
      <trkpt lat="47.51205" lon="6.7593">
        <ele>348</ele>
        <time>2014-04-13T09:01:41Z</time>
      </trkpt>
      <trkpt lat="47.51203" lon="6.75921">
        <ele>348</ele>
        <time>2014-04-13T09:01:42Z</time>
      </trkpt>
      <trkpt lat="47.51201" lon="6.75911">
        <ele>347</ele>
        <time>2014-04-13T09:01:43Z</time>
      </trkpt>
      <trkpt lat="47.51199" lon="6.75902">
        <ele>347</ele>
        <time>2014-04-13T09:01:44Z</time>
      </trkpt>
      <trkpt lat="47.51197" lon="6.75893">
        <ele>346</ele>
        <time>2014-04-13T09:01:45Z</time>
      </trkpt>
      <trkpt lat="47.51189" lon="6.75856">
        <ele>346</ele>
        <time>2014-04-13T09:01:49Z</time>
      </trkpt>
      <trkpt lat="47.51174" lon="6.75793">
        <ele>346</ele>
        <time>2014-04-13T09:01:56Z</time>
      </trkpt>
      <trkpt lat="47.51171" lon="6.75784">
        <ele>345</ele>
        <time>2014-04-13T09:01:57Z</time>
      </trkpt>
      <trkpt lat="47.51168" lon="6.75775">
        <ele>345</ele>
        <time>2014-04-13T09:01:58Z</time>
      </trkpt>
      <trkpt lat="47.51165" lon="6.75767">
        <ele>345</ele>
        <time>2014-04-13T09:01:59Z</time>
      </trkpt>
      <trkpt lat="47.51162" lon="6.75759">
        <ele>344</ele>
        <time>2014-04-13T09:02:00Z</time>
      </trkpt>
      <trkpt lat="47.51151" lon="6.75722">
        <ele>343</ele>
        <time>2014-04-13T09:02:04Z</time>
      </trkpt>
      <trkpt lat="47.51148" lon="6.75712">
        <ele>343</ele>
        <time>2014-04-13T09:02:05Z</time>
      </trkpt>
      <trkpt lat="47.51144" lon="6.75702">
        <ele>343</ele>
        <time>2014-04-13T09:02:06Z</time>
      </trkpt>
      <trkpt lat="47.5114" lon="6.75692">
        <ele>342</ele>
        <time>2014-04-13T09:02:07Z</time>
      </trkpt>
      <trkpt lat="47.5113" lon="6.75661">
        <ele>342</ele>
        <time>2014-04-13T09:02:10Z</time>
      </trkpt>
      <trkpt lat="47.51127" lon="6.7565">
        <ele>341</ele>
        <time>2014-04-13T09:02:11Z</time>
      </trkpt>
      <trkpt lat="47.51123" lon="6.75641">
        <ele>341</ele>
        <time>2014-04-13T09:02:12Z</time>
      </trkpt>
      <trkpt lat="47.51122" lon="6.75631">
        <ele>340</ele>
        <time>2014-04-13T09:02:13Z</time>
      </trkpt>
      <trkpt lat="47.5112" lon="6.75622">
        <ele>340</ele>
        <time>2014-04-13T09:02:14Z</time>
      </trkpt>
      <trkpt lat="47.51118" lon="6.75612">
        <ele>340</ele>
        <time>2014-04-13T09:02:15Z</time>
      </trkpt>
      <trkpt lat="47.51104" lon="6.75568">
        <ele>340</ele>
        <time>2014-04-13T09:02:20Z</time>
      </trkpt>
      <trkpt lat="47.511" lon="6.75559">
        <ele>340</ele>
        <time>2014-04-13T09:02:21Z</time>
      </trkpt>
      <trkpt lat="47.51089" lon="6.75534">
        <ele>340</ele>
        <time>2014-04-13T09:02:24Z</time>
      </trkpt>
      <trkpt lat="47.51078" lon="6.75507">
        <ele>340</ele>
        <time>2014-04-13T09:02:27Z</time>
      </trkpt>
      <trkpt lat="47.51071" lon="6.7549">
        <ele>340</ele>
        <time>2014-04-13T09:02:29Z</time>
      </trkpt>
      <trkpt lat="47.51068" lon="6.75481">
        <ele>339</ele>
        <time>2014-04-13T09:02:30Z</time>
      </trkpt>
      <trkpt lat="47.51065" lon="6.75474">
        <ele>339</ele>
        <time>2014-04-13T09:02:31Z</time>
      </trkpt>
      <trkpt lat="47.51062" lon="6.75467">
        <ele>338</ele>
        <time>2014-04-13T09:02:32Z</time>
      </trkpt>
      <trkpt lat="47.51059" lon="6.7546">
        <ele>338</ele>
        <time>2014-04-13T09:02:33Z</time>
      </trkpt>
      <trkpt lat="47.51056" lon="6.75453">
        <ele>338</ele>
        <time>2014-04-13T09:02:34Z</time>
      </trkpt>
      <trkpt lat="47.51047" lon="6.75432">
        <ele>338</ele>
        <time>2014-04-13T09:02:37Z</time>
      </trkpt>
      <trkpt lat="47.51039" lon="6.75409">
        <ele>338</ele>
        <time>2014-04-13T09:02:40Z</time>
      </trkpt>
      <trkpt lat="47.51034" lon="6.75398">
        <ele>338</ele>
        <time>2014-04-13T09:02:42Z</time>
      </trkpt>
      <trkpt lat="47.51031" lon="6.75393">
        <ele>338</ele>
        <time>2014-04-13T09:02:43Z</time>
      </trkpt>
      <trkpt lat="47.5103" lon="6.75388">
        <ele>338</ele>
        <time>2014-04-13T09:02:44Z</time>
      </trkpt>
      <trkpt lat="47.51033" lon="6.75378">
        <ele>338</ele>
        <time>2014-04-13T09:02:46Z</time>
      </trkpt>
      <trkpt lat="47.51031" lon="6.75376">
        <ele>338</ele>
        <time>2014-04-13T09:02:47Z</time>
      </trkpt>
      <trkpt lat="47.51031" lon="6.75376">
        <ele>337</ele>
        <time>2014-04-13T09:02:48Z</time>
      </trkpt>
      <trkpt lat="47.5103" lon="6.75377">
        <ele>337</ele>
        <time>2014-04-13T09:02:49Z</time>
      </trkpt>
      <trkpt lat="47.51028" lon="6.75379">
        <ele>336</ele>
        <time>2014-04-13T09:02:50Z</time>
      </trkpt>
      <trkpt lat="47.51027" lon="6.75382">
        <ele>336</ele>
        <time>2014-04-13T09:02:51Z</time>
      </trkpt>
      <trkpt lat="47.51025" lon="6.75383">
        <ele>336</ele>
        <time>2014-04-13T09:02:53Z</time>
      </trkpt>
      <trkpt lat="47.51027" lon="6.75376">
        <ele>336</ele>
        <time>2014-04-13T09:02:57Z</time>
      </trkpt>
      <trkpt lat="47.51037" lon="6.75374">
        <ele>336</ele>
        <time>2014-04-13T09:03:01Z</time>
      </trkpt>
      <trkpt lat="47.51049" lon="6.75372">
        <ele>336</ele>
        <time>2014-04-13T09:03:07Z</time>
      </trkpt>
      <trkpt lat="47.51051" lon="6.75372">
        <ele>336</ele>
        <time>2014-04-13T09:03:08Z</time>
      </trkpt>
      <trkpt lat="47.51053" lon="6.75372">
        <ele>337</ele>
        <time>2014-04-13T09:03:09Z</time>
      </trkpt>
      <trkpt lat="47.51055" lon="6.75373">
        <ele>337</ele>
        <time>2014-04-13T09:03:10Z</time>
      </trkpt>
      <trkpt lat="47.51056" lon="6.75373">
        <ele>338</ele>
        <time>2014-04-13T09:03:11Z</time>
      </trkpt>
      <trkpt lat="47.51057" lon="6.75373">
        <ele>338</ele>
        <time>2014-04-13T09:03:12Z</time>
      </trkpt>
      <trkpt lat="47.51061" lon="6.75369">
        <ele>338</ele>
        <time>2014-04-13T09:03:15Z</time>
      </trkpt>
      <trkpt lat="47.51061" lon="6.75368">
        <ele>339</ele>
        <time>2014-04-13T09:03:16Z</time>
      </trkpt>
      <trkpt lat="47.51062" lon="6.75366">
        <ele>339</ele>
        <time>2014-04-13T09:03:17Z</time>
      </trkpt>
      <trkpt lat="47.51063" lon="6.75365">
        <ele>340</ele>
        <time>2014-04-13T09:03:18Z</time>
      </trkpt>
      <trkpt lat="47.51065" lon="6.75363">
        <ele>340</ele>
        <time>2014-04-13T09:03:19Z</time>
      </trkpt>
      <trkpt lat="47.51072" lon="6.75357">
        <ele>340</ele>
        <time>2014-04-13T09:03:23Z</time>
      </trkpt>
      <trkpt lat="47.51076" lon="6.75351">
        <ele>341</ele>
        <time>2014-04-13T09:03:26Z</time>
      </trkpt>
      <trkpt lat="47.51078" lon="6.75349">
        <ele>341</ele>
        <time>2014-04-13T09:03:27Z</time>
      </trkpt>
      <trkpt lat="47.5108" lon="6.75348">
        <ele>341</ele>
        <time>2014-04-13T09:03:28Z</time>
      </trkpt>
      <trkpt lat="47.51081" lon="6.75345">
        <ele>342</ele>
        <time>2014-04-13T09:03:29Z</time>
      </trkpt>
      <trkpt lat="47.51082" lon="6.75344">
        <ele>342</ele>
        <time>2014-04-13T09:03:30Z</time>
      </trkpt>
      <trkpt lat="47.5109" lon="6.75334">
        <ele>342</ele>
        <time>2014-04-13T09:03:35Z</time>
      </trkpt>
      <trkpt lat="47.51102" lon="6.75316">
        <ele>342</ele>
        <time>2014-04-13T09:03:41Z</time>
      </trkpt>
      <trkpt lat="47.51122" lon="6.75284">
        <ele>342</ele>
        <time>2014-04-13T09:03:48Z</time>
      </trkpt>
      <trkpt lat="47.51124" lon="6.75279">
        <ele>342</ele>
        <time>2014-04-13T09:03:49Z</time>
      </trkpt>
      <trkpt lat="47.51142" lon="6.75251">
        <ele>342</ele>
        <time>2014-04-13T09:03:54Z</time>
      </trkpt>
      <trkpt lat="47.51161" lon="6.75212">
        <ele>342</ele>
        <time>2014-04-13T09:04:00Z</time>
      </trkpt>
      <trkpt lat="47.51165" lon="6.75208">
        <ele>342</ele>
        <time>2014-04-13T09:04:01Z</time>
      </trkpt>
      <trkpt lat="47.51174" lon="6.7519">
        <ele>342</ele>
        <time>2014-04-13T09:04:04Z</time>
      </trkpt>
      <trkpt lat="47.51183" lon="6.75178">
        <ele>342</ele>
        <time>2014-04-13T09:04:06Z</time>
      </trkpt>
      <trkpt lat="47.51197" lon="6.75162">
        <ele>342</ele>
        <time>2014-04-13T09:04:09Z</time>
      </trkpt>
      <trkpt lat="47.51202" lon="6.75155">
        <ele>341</ele>
        <time>2014-04-13T09:04:10Z</time>
      </trkpt>
      <trkpt lat="47.51207" lon="6.75149">
        <ele>341</ele>
        <time>2014-04-13T09:04:11Z</time>
      </trkpt>
      <trkpt lat="47.51213" lon="6.75142">
        <ele>340</ele>
        <time>2014-04-13T09:04:12Z</time>
      </trkpt>
      <trkpt lat="47.51219" lon="6.75134">
        <ele>340</ele>
        <time>2014-04-13T09:04:13Z</time>
      </trkpt>
      <trkpt lat="47.51224" lon="6.75128">
        <ele>339</ele>
        <time>2014-04-13T09:04:14Z</time>
      </trkpt>
      <trkpt lat="47.5123" lon="6.75122">
        <ele>339</ele>
        <time>2014-04-13T09:04:15Z</time>
      </trkpt>
      <trkpt lat="47.51234" lon="6.75119">
        <ele>338</ele>
        <time>2014-04-13T09:04:16Z</time>
      </trkpt>
      <trkpt lat="47.51239" lon="6.75116">
        <ele>338</ele>
        <time>2014-04-13T09:04:17Z</time>
      </trkpt>
      <trkpt lat="47.51249" lon="6.75111">
        <ele>338</ele>
        <time>2014-04-13T09:04:19Z</time>
      </trkpt>
      <trkpt lat="47.51271" lon="6.75102">
        <ele>338</ele>
        <time>2014-04-13T09:04:25Z</time>
      </trkpt>
      <trkpt lat="47.51293" lon="6.75097">
        <ele>338</ele>
        <time>2014-04-13T09:04:30Z</time>
      </trkpt>
      <trkpt lat="47.51297" lon="6.75098">
        <ele>338</ele>
        <time>2014-04-13T09:04:31Z</time>
      </trkpt>
      <trkpt lat="47.51316" lon="6.75099">
        <ele>338</ele>
        <time>2014-04-13T09:04:35Z</time>
      </trkpt>
      <trkpt lat="47.51325" lon="6.751">
        <ele>338</ele>
        <time>2014-04-13T09:04:37Z</time>
      </trkpt>
      <trkpt lat="47.51336" lon="6.75106">
        <ele>338</ele>
        <time>2014-04-13T09:04:40Z</time>
      </trkpt>
      <trkpt lat="47.5134" lon="6.75108">
        <ele>338</ele>
        <time>2014-04-13T09:04:41Z</time>
      </trkpt>
      <trkpt lat="47.5135" lon="6.75114">
        <ele>338</ele>
        <time>2014-04-13T09:04:44Z</time>
      </trkpt>
      <trkpt lat="47.51359" lon="6.75115">
        <ele>338</ele>
        <time>2014-04-13T09:04:46Z</time>
      </trkpt>
      <trkpt lat="47.51363" lon="6.75115">
        <ele>339</ele>
        <time>2014-04-13T09:04:47Z</time>
      </trkpt>
      <trkpt lat="47.51367" lon="6.75114">
        <ele>339</ele>
        <time>2014-04-13T09:04:48Z</time>
      </trkpt>
      <trkpt lat="47.5137" lon="6.75113">
        <ele>339</ele>
        <time>2014-04-13T09:04:49Z</time>
      </trkpt>
      <trkpt lat="47.51373" lon="6.75112">
        <ele>340</ele>
        <time>2014-04-13T09:04:50Z</time>
      </trkpt>
      <trkpt lat="47.5138" lon="6.75107">
        <ele>340</ele>
        <time>2014-04-13T09:04:53Z</time>
      </trkpt>
      <trkpt lat="47.51383" lon="6.75104">
        <ele>341</ele>
        <time>2014-04-13T09:04:54Z</time>
      </trkpt>
      <trkpt lat="47.51385" lon="6.75103">
        <ele>341</ele>
        <time>2014-04-13T09:04:55Z</time>
      </trkpt>
      <trkpt lat="47.51387" lon="6.75102">
        <ele>342</ele>
        <time>2014-04-13T09:04:56Z</time>
      </trkpt>
      <trkpt lat="47.5139" lon="6.751">
        <ele>343</ele>
        <time>2014-04-13T09:04:57Z</time>
      </trkpt>
      <trkpt lat="47.51392" lon="6.75099">
        <ele>343</ele>
        <time>2014-04-13T09:04:58Z</time>
      </trkpt>
      <trkpt lat="47.51394" lon="6.75098">
        <ele>344</ele>
        <time>2014-04-13T09:04:59Z</time>
      </trkpt>
      <trkpt lat="47.51396" lon="6.75097">
        <ele>344</ele>
        <time>2014-04-13T09:05:00Z</time>
      </trkpt>
      <trkpt lat="47.51399" lon="6.75096">
        <ele>345</ele>
        <time>2014-04-13T09:05:01Z</time>
      </trkpt>
      <trkpt lat="47.51401" lon="6.75095">
        <ele>345</ele>
        <time>2014-04-13T09:05:02Z</time>
      </trkpt>
      <trkpt lat="47.51404" lon="6.75094">
        <ele>346</ele>
        <time>2014-04-13T09:05:03Z</time>
      </trkpt>
      <trkpt lat="47.51406" lon="6.75092">
        <ele>346</ele>
        <time>2014-04-13T09:05:04Z</time>
      </trkpt>
      <trkpt lat="47.51408" lon="6.75091">
        <ele>347</ele>
        <time>2014-04-13T09:05:05Z</time>
      </trkpt>
      <trkpt lat="47.5141" lon="6.7509">
        <ele>347</ele>
        <time>2014-04-13T09:05:06Z</time>
      </trkpt>
      <trkpt lat="47.51412" lon="6.75088">
        <ele>348</ele>
        <time>2014-04-13T09:05:07Z</time>
      </trkpt>
      <trkpt lat="47.51414" lon="6.75087">
        <ele>348</ele>
        <time>2014-04-13T09:05:08Z</time>
      </trkpt>
      <trkpt lat="47.51416" lon="6.75085">
        <ele>349</ele>
        <time>2014-04-13T09:05:09Z</time>
      </trkpt>
      <trkpt lat="47.51419" lon="6.75084">
        <ele>349</ele>
        <time>2014-04-13T09:05:10Z</time>
      </trkpt>
      <trkpt lat="47.51422" lon="6.75082">
        <ele>350</ele>
        <time>2014-04-13T09:05:11Z</time>
      </trkpt>
      <trkpt lat="47.51425" lon="6.75081">
        <ele>350</ele>
        <time>2014-04-13T09:05:12Z</time>
      </trkpt>
      <trkpt lat="47.51427" lon="6.75079">
        <ele>350</ele>
        <time>2014-04-13T09:05:13Z</time>
      </trkpt>
      <trkpt lat="47.51429" lon="6.75078">
        <ele>351</ele>
        <time>2014-04-13T09:05:14Z</time>
      </trkpt>
      <trkpt lat="47.51431" lon="6.75077">
        <ele>351</ele>
        <time>2014-04-13T09:05:15Z</time>
      </trkpt>
      <trkpt lat="47.51433" lon="6.75075">
        <ele>352</ele>
        <time>2014-04-13T09:05:16Z</time>
      </trkpt>
      <trkpt lat="47.51436" lon="6.75072">
        <ele>352</ele>
        <time>2014-04-13T09:05:17Z</time>
      </trkpt>
      <trkpt lat="47.5144" lon="6.75069">
        <ele>353</ele>
        <time>2014-04-13T09:05:18Z</time>
      </trkpt>
      <trkpt lat="47.51443" lon="6.75067">
        <ele>353</ele>
        <time>2014-04-13T09:05:19Z</time>
      </trkpt>
      <trkpt lat="47.51447" lon="6.75065">
        <ele>354</ele>
        <time>2014-04-13T09:05:20Z</time>
      </trkpt>
      <trkpt lat="47.51452" lon="6.75064">
        <ele>354</ele>
        <time>2014-04-13T09:05:22Z</time>
      </trkpt>
      <trkpt lat="47.51455" lon="6.75063">
        <ele>355</ele>
        <time>2014-04-13T09:05:23Z</time>
      </trkpt>
      <trkpt lat="47.51458" lon="6.75062">
        <ele>355</ele>
        <time>2014-04-13T09:05:24Z</time>
      </trkpt>
      <trkpt lat="47.5146" lon="6.75061">
        <ele>356</ele>
        <time>2014-04-13T09:05:25Z</time>
      </trkpt>
      <trkpt lat="47.51462" lon="6.7506">
        <ele>356</ele>
        <time>2014-04-13T09:05:26Z</time>
      </trkpt>
      <trkpt lat="47.51467" lon="6.75055">
        <ele>356</ele>
        <time>2014-04-13T09:05:28Z</time>
      </trkpt>
      <trkpt lat="47.51481" lon="6.75039">
        <ele>356</ele>
        <time>2014-04-13T09:05:32Z</time>
      </trkpt>
      <trkpt lat="47.51498" lon="6.75018">
        <ele>356</ele>
        <time>2014-04-13T09:05:36Z</time>
      </trkpt>
      <trkpt lat="47.51501" lon="6.75014">
        <ele>356</ele>
        <time>2014-04-13T09:05:37Z</time>
      </trkpt>
      <trkpt lat="47.51521" lon="6.74998">
        <ele>356</ele>
        <time>2014-04-13T09:05:42Z</time>
      </trkpt>
      <trkpt lat="47.51537" lon="6.74986">
        <ele>356</ele>
        <time>2014-04-13T09:05:45Z</time>
      </trkpt>
      <trkpt lat="47.51548" lon="6.74985">
        <ele>356</ele>
        <time>2014-04-13T09:05:47Z</time>
      </trkpt>
      <trkpt lat="47.51555" lon="6.74985">
        <ele>356</ele>
        <time>2014-04-13T09:05:48Z</time>
      </trkpt>
      <trkpt lat="47.51561" lon="6.74987">
        <ele>355</ele>
        <time>2014-04-13T09:05:49Z</time>
      </trkpt>
      <trkpt lat="47.51567" lon="6.7499">
        <ele>355</ele>
        <time>2014-04-13T09:05:50Z</time>
      </trkpt>
      <trkpt lat="47.51572" lon="6.74994">
        <ele>354</ele>
        <time>2014-04-13T09:05:51Z</time>
      </trkpt>
      <trkpt lat="47.51577" lon="6.74997">
        <ele>354</ele>
        <time>2014-04-13T09:05:52Z</time>
      </trkpt>
      <trkpt lat="47.51581" lon="6.75">
        <ele>354</ele>
        <time>2014-04-13T09:05:53Z</time>
      </trkpt>
      <trkpt lat="47.51585" lon="6.75002">
        <ele>354</ele>
        <time>2014-04-13T09:05:54Z</time>
      </trkpt>
      <trkpt lat="47.51608" lon="6.75022">
        <ele>354</ele>
        <time>2014-04-13T09:05:59Z</time>
      </trkpt>
      <trkpt lat="47.51614" lon="6.75025">
        <ele>354</ele>
        <time>2014-04-13T09:06:00Z</time>
      </trkpt>
      <trkpt lat="47.51627" lon="6.75029">
        <ele>354</ele>
        <time>2014-04-13T09:06:02Z</time>
      </trkpt>
      <trkpt lat="47.51635" lon="6.75031">
        <ele>353</ele>
        <time>2014-04-13T09:06:03Z</time>
      </trkpt>
      <trkpt lat="47.51644" lon="6.75032">
        <ele>353</ele>
        <time>2014-04-13T09:06:04Z</time>
      </trkpt>
      <trkpt lat="47.51652" lon="6.75034">
        <ele>352</ele>
        <time>2014-04-13T09:06:05Z</time>
      </trkpt>
      <trkpt lat="47.51661" lon="6.75035">
        <ele>351</ele>
        <time>2014-04-13T09:06:06Z</time>
      </trkpt>
      <trkpt lat="47.51669" lon="6.75035">
        <ele>351</ele>
        <time>2014-04-13T09:06:07Z</time>
      </trkpt>
      <trkpt lat="47.51678" lon="6.75038">
        <ele>350</ele>
        <time>2014-04-13T09:06:08Z</time>
      </trkpt>
      <trkpt lat="47.51686" lon="6.75042">
        <ele>349</ele>
        <time>2014-04-13T09:06:09Z</time>
      </trkpt>
      <trkpt lat="47.51693" lon="6.75047">
        <ele>349</ele>
        <time>2014-04-13T09:06:10Z</time>
      </trkpt>
      <trkpt lat="47.51701" lon="6.75051">
        <ele>347</ele>
        <time>2014-04-13T09:06:11Z</time>
      </trkpt>
      <trkpt lat="47.51708" lon="6.75055">
        <ele>347</ele>
        <time>2014-04-13T09:06:12Z</time>
      </trkpt>
      <trkpt lat="47.51728" lon="6.75064">
        <ele>347</ele>
        <time>2014-04-13T09:06:15Z</time>
      </trkpt>
      <trkpt lat="47.51734" lon="6.75068">
        <ele>347</ele>
        <time>2014-04-13T09:06:16Z</time>
      </trkpt>
      <trkpt lat="47.5175" lon="6.75081">
        <ele>347</ele>
        <time>2014-04-13T09:06:19Z</time>
      </trkpt>
      <trkpt lat="47.51756" lon="6.75084">
        <ele>347</ele>
        <time>2014-04-13T09:06:20Z</time>
      </trkpt>
      <trkpt lat="47.51773" lon="6.7509">
        <ele>347</ele>
        <time>2014-04-13T09:06:23Z</time>
      </trkpt>
      <trkpt lat="47.51779" lon="6.7509">
        <ele>347</ele>
        <time>2014-04-13T09:06:24Z</time>
      </trkpt>
      <trkpt lat="47.51797" lon="6.7509">
        <ele>347</ele>
        <time>2014-04-13T09:06:27Z</time>
      </trkpt>
      <trkpt lat="47.51803" lon="6.75089">
        <ele>347</ele>
        <time>2014-04-13T09:06:28Z</time>
      </trkpt>
      <trkpt lat="47.51814" lon="6.75087">
        <ele>346</ele>
        <time>2014-04-13T09:06:30Z</time>
      </trkpt>
      <trkpt lat="47.51819" lon="6.75086">
        <ele>345</ele>
        <time>2014-04-13T09:06:31Z</time>
      </trkpt>
      <trkpt lat="47.51825" lon="6.75084">
        <ele>345</ele>
        <time>2014-04-13T09:06:32Z</time>
      </trkpt>
      <trkpt lat="47.51831" lon="6.75082">
        <ele>344</ele>
        <time>2014-04-13T09:06:33Z</time>
      </trkpt>
      <trkpt lat="47.51838" lon="6.75082">
        <ele>343</ele>
        <time>2014-04-13T09:06:34Z</time>
      </trkpt>
      <trkpt lat="47.51845" lon="6.75081">
        <ele>342</ele>
        <time>2014-04-13T09:06:35Z</time>
      </trkpt>
      <trkpt lat="47.51851" lon="6.75078">
        <ele>340</ele>
        <time>2014-04-13T09:06:36Z</time>
      </trkpt>
      <trkpt lat="47.51857" lon="6.75071">
        <ele>340</ele>
        <time>2014-04-13T09:06:37Z</time>
      </trkpt>
      <trkpt lat="47.51862" lon="6.75064">
        <ele>339</ele>
        <time>2014-04-13T09:06:38Z</time>
      </trkpt>
      <trkpt lat="47.51868" lon="6.75057">
        <ele>338</ele>
        <time>2014-04-13T09:06:39Z</time>
      </trkpt>
      <trkpt lat="47.51873" lon="6.75049">
        <ele>338</ele>
        <time>2014-04-13T09:06:40Z</time>
      </trkpt>
      <trkpt lat="47.51878" lon="6.75041">
        <ele>337</ele>
        <time>2014-04-13T09:06:41Z</time>
      </trkpt>
      <trkpt lat="47.51888" lon="6.75025">
        <ele>337</ele>
        <time>2014-04-13T09:06:43Z</time>
      </trkpt>
      <trkpt lat="47.51893" lon="6.75016">
        <ele>336</ele>
        <time>2014-04-13T09:06:44Z</time>
      </trkpt>
      <trkpt lat="47.51897" lon="6.75006">
        <ele>336</ele>
        <time>2014-04-13T09:06:45Z</time>
      </trkpt>
      <trkpt lat="47.51901" lon="6.74997">
        <ele>335</ele>
        <time>2014-04-13T09:06:46Z</time>
      </trkpt>
      <trkpt lat="47.51905" lon="6.74989">
        <ele>335</ele>
        <time>2014-04-13T09:06:47Z</time>
      </trkpt>
      <trkpt lat="47.51908" lon="6.74984">
        <ele>335</ele>
        <time>2014-04-13T09:06:48Z</time>
      </trkpt>
      <trkpt lat="47.51912" lon="6.74982">
        <ele>335</ele>
        <time>2014-04-13T09:06:49Z</time>
      </trkpt>
      <trkpt lat="47.5192" lon="6.74987">
        <ele>335</ele>
        <time>2014-04-13T09:06:51Z</time>
      </trkpt>
      <trkpt lat="47.51932" lon="6.75004">
        <ele>335</ele>
        <time>2014-04-13T09:06:55Z</time>
      </trkpt>
      <trkpt lat="47.51946" lon="6.75027">
        <ele>335</ele>
        <time>2014-04-13T09:07:00Z</time>
      </trkpt>
      <trkpt lat="47.51948" lon="6.75033">
        <ele>335</ele>
        <time>2014-04-13T09:07:01Z</time>
      </trkpt>
      <trkpt lat="47.51955" lon="6.75054">
        <ele>335</ele>
        <time>2014-04-13T09:07:04Z</time>
      </trkpt>
      <trkpt lat="47.51959" lon="6.75069">
        <ele>335</ele>
        <time>2014-04-13T09:07:06Z</time>
      </trkpt>
      <trkpt lat="47.51975" lon="6.75116">
        <ele>335</ele>
        <time>2014-04-13T09:07:12Z</time>
      </trkpt>
      <trkpt lat="47.51983" lon="6.7513">
        <ele>335</ele>
        <time>2014-04-13T09:07:14Z</time>
      </trkpt>
      <trkpt lat="47.51997" lon="6.75147">
        <ele>335</ele>
        <time>2014-04-13T09:07:17Z</time>
      </trkpt>
      <trkpt lat="47.52002" lon="6.75151">
        <ele>335</ele>
        <time>2014-04-13T09:07:18Z</time>
      </trkpt>
      <trkpt lat="47.52032" lon="6.75176">
        <ele>335</ele>
        <time>2014-04-13T09:07:24Z</time>
      </trkpt>
      <trkpt lat="47.52041" lon="6.75183">
        <ele>335</ele>
        <time>2014-04-13T09:07:26Z</time>
      </trkpt>
      <trkpt lat="47.52045" lon="6.75187">
        <ele>336</ele>
        <time>2014-04-13T09:07:27Z</time>
      </trkpt>
      <trkpt lat="47.5205" lon="6.75191">
        <ele>336</ele>
        <time>2014-04-13T09:07:28Z</time>
      </trkpt>
      <trkpt lat="47.52054" lon="6.75196">
        <ele>337</ele>
        <time>2014-04-13T09:07:29Z</time>
      </trkpt>
      <trkpt lat="47.52058" lon="6.752">
        <ele>337</ele>
        <time>2014-04-13T09:07:30Z</time>
      </trkpt>
      <trkpt lat="47.52076" lon="6.75217">
        <ele>337</ele>
        <time>2014-04-13T09:07:34Z</time>
      </trkpt>
      <trkpt lat="47.52085" lon="6.75227">
        <ele>337</ele>
        <time>2014-04-13T09:07:36Z</time>
      </trkpt>
      <trkpt lat="47.52105" lon="6.75247">
        <ele>337</ele>
        <time>2014-04-13T09:07:40Z</time>
      </trkpt>
      <trkpt lat="47.5212" lon="6.75262">
        <ele>337</ele>
        <time>2014-04-13T09:07:43Z</time>
      </trkpt>
      <trkpt lat="47.52125" lon="6.75268">
        <ele>338</ele>
        <time>2014-04-13T09:07:44Z</time>
      </trkpt>
      <trkpt lat="47.5213" lon="6.75273">
        <ele>338</ele>
        <time>2014-04-13T09:07:45Z</time>
      </trkpt>
      <trkpt lat="47.52134" lon="6.75279">
        <ele>338</ele>
        <time>2014-04-13T09:07:46Z</time>
      </trkpt>
      <trkpt lat="47.52139" lon="6.75284">
        <ele>339</ele>
        <time>2014-04-13T09:07:47Z</time>
      </trkpt>
      <trkpt lat="47.52144" lon="6.7529">
        <ele>339</ele>
        <time>2014-04-13T09:07:48Z</time>
      </trkpt>
      <trkpt lat="47.52158" lon="6.75305">
        <ele>339</ele>
        <time>2014-04-13T09:07:51Z</time>
      </trkpt>
      <trkpt lat="47.52175" lon="6.75327">
        <ele>340</ele>
        <time>2014-04-13T09:07:55Z</time>
      </trkpt>
      <trkpt lat="47.5218" lon="6.75332">
        <ele>340</ele>
        <time>2014-04-13T09:07:56Z</time>
      </trkpt>
      <trkpt lat="47.52184" lon="6.75337">
        <ele>341</ele>
        <time>2014-04-13T09:07:57Z</time>
      </trkpt>
      <trkpt lat="47.52189" lon="6.75342">
        <ele>341</ele>
        <time>2014-04-13T09:07:58Z</time>
      </trkpt>
      <trkpt lat="47.52193" lon="6.75347">
        <ele>341</ele>
        <time>2014-04-13T09:07:59Z</time>
      </trkpt>
      <trkpt lat="47.52197" lon="6.75353">
        <ele>341</ele>
        <time>2014-04-13T09:08:00Z</time>
      </trkpt>
      <trkpt lat="47.52209" lon="6.7537">
        <ele>341</ele>
        <time>2014-04-13T09:08:03Z</time>
      </trkpt>
      <trkpt lat="47.52222" lon="6.75384">
        <ele>341</ele>
        <time>2014-04-13T09:08:06Z</time>
      </trkpt>
      <trkpt lat="47.5223" lon="6.75394">
        <ele>342</ele>
        <time>2014-04-13T09:08:08Z</time>
      </trkpt>
      <trkpt lat="47.52234" lon="6.75399">
        <ele>342</ele>
        <time>2014-04-13T09:08:09Z</time>
      </trkpt>
      <trkpt lat="47.52238" lon="6.75404">
        <ele>343</ele>
        <time>2014-04-13T09:08:10Z</time>
      </trkpt>
      <trkpt lat="47.52242" lon="6.75408">
        <ele>343</ele>
        <time>2014-04-13T09:08:11Z</time>
      </trkpt>
      <trkpt lat="47.52247" lon="6.75413">
        <ele>344</ele>
        <time>2014-04-13T09:08:12Z</time>
      </trkpt>
      <trkpt lat="47.52272" lon="6.7544">
        <ele>344</ele>
        <time>2014-04-13T09:08:18Z</time>
      </trkpt>
      <trkpt lat="47.5228" lon="6.7545">
        <ele>344</ele>
        <time>2014-04-13T09:08:20Z</time>
      </trkpt>
      <trkpt lat="47.52285" lon="6.75455">
        <ele>344</ele>
        <time>2014-04-13T09:08:21Z</time>
      </trkpt>
      <trkpt lat="47.52289" lon="6.7546">
        <ele>345</ele>
        <time>2014-04-13T09:08:22Z</time>
      </trkpt>
      <trkpt lat="47.52293" lon="6.75465">
        <ele>345</ele>
        <time>2014-04-13T09:08:23Z</time>
      </trkpt>
      <trkpt lat="47.52297" lon="6.7547">
        <ele>346</ele>
        <time>2014-04-13T09:08:24Z</time>
      </trkpt>
      <trkpt lat="47.52301" lon="6.75474">
        <ele>346</ele>
        <time>2014-04-13T09:08:25Z</time>
      </trkpt>
      <trkpt lat="47.52333" lon="6.75508">
        <ele>346</ele>
        <time>2014-04-13T09:08:32Z</time>
      </trkpt>
      <trkpt lat="47.52353" lon="6.75524">
        <ele>346</ele>
        <time>2014-04-13T09:08:36Z</time>
      </trkpt>
      <trkpt lat="47.52359" lon="6.75525">
        <ele>346</ele>
        <time>2014-04-13T09:08:37Z</time>
      </trkpt>
      <trkpt lat="47.52376" lon="6.75524">
        <ele>346</ele>
        <time>2014-04-13T09:08:40Z</time>
      </trkpt>
      <trkpt lat="47.52382" lon="6.75523">
        <ele>346</ele>
        <time>2014-04-13T09:08:41Z</time>
      </trkpt>
      <trkpt lat="47.52388" lon="6.75522">
        <ele>347</ele>
        <time>2014-04-13T09:08:42Z</time>
      </trkpt>
      <trkpt lat="47.52394" lon="6.75521">
        <ele>347</ele>
        <time>2014-04-13T09:08:43Z</time>
      </trkpt>
      <trkpt lat="47.524" lon="6.75521">
        <ele>348</ele>
        <time>2014-04-13T09:08:44Z</time>
      </trkpt>
      <trkpt lat="47.52411" lon="6.75527">
        <ele>348</ele>
        <time>2014-04-13T09:08:46Z</time>
      </trkpt>
      <trkpt lat="47.52423" lon="6.75542">
        <ele>348</ele>
        <time>2014-04-13T09:08:49Z</time>
      </trkpt>
      <trkpt lat="47.52428" lon="6.75545">
        <ele>348</ele>
        <time>2014-04-13T09:08:50Z</time>
      </trkpt>
      <trkpt lat="47.52453" lon="6.75563">
        <ele>348</ele>
        <time>2014-04-13T09:08:55Z</time>
      </trkpt>
      <trkpt lat="47.52492" lon="6.75597">
        <ele>348</ele>
        <time>2014-04-13T09:09:02Z</time>
      </trkpt>
      <trkpt lat="47.52522" lon="6.7563">
        <ele>348</ele>
        <time>2014-04-13T09:09:08Z</time>
      </trkpt>
      <trkpt lat="47.52543" lon="6.75658">
        <ele>348</ele>
        <time>2014-04-13T09:09:13Z</time>
      </trkpt>
      <trkpt lat="47.52548" lon="6.75663">
        <ele>348</ele>
        <time>2014-04-13T09:09:14Z</time>
      </trkpt>
      <trkpt lat="47.52552" lon="6.75669">
        <ele>349</ele>
        <time>2014-04-13T09:09:15Z</time>
      </trkpt>
      <trkpt lat="47.52556" lon="6.75674">
        <ele>349</ele>
        <time>2014-04-13T09:09:16Z</time>
      </trkpt>
      <trkpt lat="47.5256" lon="6.7568">
        <ele>350</ele>
        <time>2014-04-13T09:09:17Z</time>
      </trkpt>
      <trkpt lat="47.52565" lon="6.75686">
        <ele>350</ele>
        <time>2014-04-13T09:09:18Z</time>
      </trkpt>
      <trkpt lat="47.52596" lon="6.75729">
        <ele>350</ele>
        <time>2014-04-13T09:09:25Z</time>
      </trkpt>
      <trkpt lat="47.52619" lon="6.75757">
        <ele>350</ele>
        <time>2014-04-13T09:09:30Z</time>
      </trkpt>
      <trkpt lat="47.52623" lon="6.75762">
        <ele>351</ele>
        <time>2014-04-13T09:09:31Z</time>
      </trkpt>
      <trkpt lat="47.52628" lon="6.75766">
        <ele>351</ele>
        <time>2014-04-13T09:09:32Z</time>
      </trkpt>
      <trkpt lat="47.52634" lon="6.75769">
        <ele>352</ele>
        <time>2014-04-13T09:09:33Z</time>
      </trkpt>
      <trkpt lat="47.52646" lon="6.75774">
        <ele>352</ele>
        <time>2014-04-13T09:09:35Z</time>
      </trkpt>
      <trkpt lat="47.52658" lon="6.75777">
        <ele>352</ele>
        <time>2014-04-13T09:09:37Z</time>
      </trkpt>
      <trkpt lat="47.52681" lon="6.75772">
        <ele>352</ele>
        <time>2014-04-13T09:09:41Z</time>
      </trkpt>
      <trkpt lat="47.52703" lon="6.75759">
        <ele>352</ele>
        <time>2014-04-13T09:09:45Z</time>
      </trkpt>
      <trkpt lat="47.52708" lon="6.75755">
        <ele>352</ele>
        <time>2014-04-13T09:09:46Z</time>
      </trkpt>
      <trkpt lat="47.52747" lon="6.75728">
        <ele>352</ele>
        <time>2014-04-13T09:09:53Z</time>
      </trkpt>
      <trkpt lat="47.52751" lon="6.75725">
        <ele>353</ele>
        <time>2014-04-13T09:09:54Z</time>
      </trkpt>
      <trkpt lat="47.52756" lon="6.75721">
        <ele>353</ele>
        <time>2014-04-13T09:09:55Z</time>
      </trkpt>
      <trkpt lat="47.52761" lon="6.75718">
        <ele>354</ele>
        <time>2014-04-13T09:09:56Z</time>
      </trkpt>
      <trkpt lat="47.52771" lon="6.75711">
        <ele>354</ele>
        <time>2014-04-13T09:09:58Z</time>
      </trkpt>
      <trkpt lat="47.52801" lon="6.75695">
        <ele>354</ele>
        <time>2014-04-13T09:10:04Z</time>
      </trkpt>
      <trkpt lat="47.52806" lon="6.75694">
        <ele>355</ele>
        <time>2014-04-13T09:10:05Z</time>
      </trkpt>
      <trkpt lat="47.52811" lon="6.75693">
        <ele>355</ele>
        <time>2014-04-13T09:10:06Z</time>
      </trkpt>
      <trkpt lat="47.52816" lon="6.75692">
        <ele>355</ele>
        <time>2014-04-13T09:10:07Z</time>
      </trkpt>
      <trkpt lat="47.52821" lon="6.75691">
        <ele>356</ele>
        <time>2014-04-13T09:10:08Z</time>
      </trkpt>
      <trkpt lat="47.52832" lon="6.75688">
        <ele>356</ele>
        <time>2014-04-13T09:10:10Z</time>
      </trkpt>
      <trkpt lat="47.5287" lon="6.7568">
        <ele>356</ele>
        <time>2014-04-13T09:10:17Z</time>
      </trkpt>
      <trkpt lat="47.52902" lon="6.75672">
        <ele>356</ele>
        <time>2014-04-13T09:10:23Z</time>
      </trkpt>
      <trkpt lat="47.52907" lon="6.75671">
        <ele>357</ele>
        <time>2014-04-13T09:10:24Z</time>
      </trkpt>
      <trkpt lat="47.52912" lon="6.75669">
        <ele>357</ele>
        <time>2014-04-13T09:10:25Z</time>
      </trkpt>
      <trkpt lat="47.52916" lon="6.75668">
        <ele>358</ele>
        <time>2014-04-13T09:10:26Z</time>
      </trkpt>
      <trkpt lat="47.5292" lon="6.75666">
        <ele>358</ele>
        <time>2014-04-13T09:10:27Z</time>
      </trkpt>
      <trkpt lat="47.52928" lon="6.75663">
        <ele>358</ele>
        <time>2014-04-13T09:10:29Z</time>
      </trkpt>
      <trkpt lat="47.52932" lon="6.75661">
        <ele>358</ele>
        <time>2014-04-13T09:10:30Z</time>
      </trkpt>
      <trkpt lat="47.52936" lon="6.75658">
        <ele>359</ele>
        <time>2014-04-13T09:10:31Z</time>
      </trkpt>
      <trkpt lat="47.52939" lon="6.75655">
        <ele>359</ele>
        <time>2014-04-13T09:10:32Z</time>
      </trkpt>
      <trkpt lat="47.52942" lon="6.75651">
        <ele>360</ele>
        <time>2014-04-13T09:10:33Z</time>
      </trkpt>
      <trkpt lat="47.52946" lon="6.75647">
        <ele>360</ele>
        <time>2014-04-13T09:10:34Z</time>
      </trkpt>
      <trkpt lat="47.52949" lon="6.75644">
        <ele>360</ele>
        <time>2014-04-13T09:10:35Z</time>
      </trkpt>
      <trkpt lat="47.52958" lon="6.7563">
        <ele>361</ele>
        <time>2014-04-13T09:10:38Z</time>
      </trkpt>
      <trkpt lat="47.52961" lon="6.75626">
        <ele>361</ele>
        <time>2014-04-13T09:10:39Z</time>
      </trkpt>
      <trkpt lat="47.52964" lon="6.75621">
        <ele>362</ele>
        <time>2014-04-13T09:10:40Z</time>
      </trkpt>
      <trkpt lat="47.52967" lon="6.75617">
        <ele>362</ele>
        <time>2014-04-13T09:10:41Z</time>
      </trkpt>
      <trkpt lat="47.52971" lon="6.75613">
        <ele>362</ele>
        <time>2014-04-13T09:10:42Z</time>
      </trkpt>
      <trkpt lat="47.52973" lon="6.75608">
        <ele>362</ele>
        <time>2014-04-13T09:10:43Z</time>
      </trkpt>
      <trkpt lat="47.52976" lon="6.756">
        <ele>362</ele>
        <time>2014-04-13T09:10:45Z</time>
      </trkpt>
      <trkpt lat="47.52983" lon="6.75594">
        <ele>362</ele>
        <time>2014-04-13T09:10:49Z</time>
      </trkpt>
      <trkpt lat="47.52985" lon="6.75592">
        <ele>363</ele>
        <time>2014-04-13T09:10:50Z</time>
      </trkpt>
      <trkpt lat="47.52985" lon="6.75589">
        <ele>363</ele>
        <time>2014-04-13T09:10:51Z</time>
      </trkpt>
      <trkpt lat="47.52985" lon="6.75586">
        <ele>364</ele>
        <time>2014-04-13T09:10:52Z</time>
      </trkpt>
      <trkpt lat="47.52985" lon="6.75584">
        <ele>364</ele>
        <time>2014-04-13T09:10:53Z</time>
      </trkpt>
      <trkpt lat="47.52985" lon="6.75582">
        <ele>364</ele>
        <time>2014-04-13T09:10:54Z</time>
      </trkpt>
      <trkpt lat="47.52982" lon="6.75577">
        <ele>364</ele>
        <time>2014-04-13T09:10:57Z</time>
      </trkpt>
      <trkpt lat="47.52982" lon="6.75576">
        <ele>364</ele>
        <time>2014-04-13T09:10:59Z</time>
      </trkpt>
      <trkpt lat="47.52982" lon="6.75575">
        <ele>364</ele>
        <time>2014-04-13T09:11:01Z</time>
      </trkpt>
      <trkpt lat="47.52982" lon="6.75569">
        <ele>364</ele>
        <time>2014-04-13T09:11:13Z</time>
      </trkpt>
      <trkpt lat="47.52985" lon="6.75563">
        <ele>364</ele>
        <time>2014-04-13T09:11:15Z</time>
      </trkpt>
      <trkpt lat="47.52993" lon="6.75559">
        <ele>364</ele>
        <time>2014-04-13T09:11:18Z</time>
      </trkpt>
      <trkpt lat="47.52995" lon="6.75558">
        <ele>364</ele>
        <time>2014-04-13T09:11:19Z</time>
      </trkpt>
      <trkpt lat="47.53" lon="6.75552">
        <ele>364</ele>
        <time>2014-04-13T09:11:22Z</time>
      </trkpt>
      <trkpt lat="47.53004" lon="6.7555">
        <ele>365</ele>
        <time>2014-04-13T09:11:24Z</time>
      </trkpt>
      <trkpt lat="47.53006" lon="6.75548">
        <ele>365</ele>
        <time>2014-04-13T09:11:25Z</time>
      </trkpt>
      <trkpt lat="47.53007" lon="6.75547">
        <ele>366</ele>
        <time>2014-04-13T09:11:26Z</time>
      </trkpt>
      <trkpt lat="47.5301" lon="6.75546">
        <ele>366</ele>
        <time>2014-04-13T09:11:27Z</time>
      </trkpt>
      <trkpt lat="47.53011" lon="6.75545">
        <ele>366</ele>
        <time>2014-04-13T09:11:28Z</time>
      </trkpt>
      <trkpt lat="47.53012" lon="6.75544">
        <ele>366</ele>
        <time>2014-04-13T09:11:29Z</time>
      </trkpt>
      <trkpt lat="47.53014" lon="6.75544">
        <ele>367</ele>
        <time>2014-04-13T09:11:30Z</time>
      </trkpt>
      <trkpt lat="47.53015" lon="6.75543">
        <ele>367</ele>
        <time>2014-04-13T09:11:31Z</time>
      </trkpt>
      <trkpt lat="47.53017" lon="6.75543">
        <ele>368</ele>
        <time>2014-04-13T09:11:32Z</time>
      </trkpt>
      <trkpt lat="47.53018" lon="6.75543">
        <ele>368</ele>
        <time>2014-04-13T09:11:33Z</time>
      </trkpt>
      <trkpt lat="47.53021" lon="6.75542">
        <ele>368</ele>
        <time>2014-04-13T09:11:34Z</time>
      </trkpt>
      <trkpt lat="47.53022" lon="6.75542">
        <ele>368</ele>
        <time>2014-04-13T09:11:35Z</time>
      </trkpt>
      <trkpt lat="47.53024" lon="6.75542">
        <ele>369</ele>
        <time>2014-04-13T09:11:36Z</time>
      </trkpt>
      <trkpt lat="47.53027" lon="6.7554">
        <ele>369</ele>
        <time>2014-04-13T09:11:37Z</time>
      </trkpt>
      <trkpt lat="47.5303" lon="6.75538">
        <ele>370</ele>
        <time>2014-04-13T09:11:38Z</time>
      </trkpt>
      <trkpt lat="47.53032" lon="6.75536">
        <ele>370</ele>
        <time>2014-04-13T09:11:39Z</time>
      </trkpt>
      <trkpt lat="47.53033" lon="6.75533">
        <ele>371</ele>
        <time>2014-04-13T09:11:40Z</time>
      </trkpt>
      <trkpt lat="47.53034" lon="6.75532">
        <ele>371</ele>
        <time>2014-04-13T09:11:41Z</time>
      </trkpt>
      <trkpt lat="47.53035" lon="6.7553">
        <ele>371</ele>
        <time>2014-04-13T09:11:42Z</time>
      </trkpt>
      <trkpt lat="47.53038" lon="6.75529">
        <ele>371</ele>
        <time>2014-04-13T09:11:43Z</time>
      </trkpt>
      <trkpt lat="47.53041" lon="6.75526">
        <ele>371</ele>
        <time>2014-04-13T09:11:44Z</time>
      </trkpt>
      <trkpt lat="47.53044" lon="6.75525">
        <ele>372</ele>
        <time>2014-04-13T09:11:45Z</time>
      </trkpt>
      <trkpt lat="47.53046" lon="6.75524">
        <ele>372</ele>
        <time>2014-04-13T09:11:46Z</time>
      </trkpt>
      <trkpt lat="47.53048" lon="6.75524">
        <ele>373</ele>
        <time>2014-04-13T09:11:47Z</time>
      </trkpt>
      <trkpt lat="47.53051" lon="6.7552">
        <ele>373</ele>
        <time>2014-04-13T09:11:49Z</time>
      </trkpt>
      <trkpt lat="47.53055" lon="6.75513">
        <ele>373</ele>
        <time>2014-04-13T09:11:52Z</time>
      </trkpt>
      <trkpt lat="47.53056" lon="6.75511">
        <ele>374</ele>
        <time>2014-04-13T09:11:53Z</time>
      </trkpt>
      <trkpt lat="47.53059" lon="6.75509">
        <ele>374</ele>
        <time>2014-04-13T09:11:54Z</time>
      </trkpt>
      <trkpt lat="47.53061" lon="6.75507">
        <ele>374</ele>
        <time>2014-04-13T09:11:55Z</time>
      </trkpt>
      <trkpt lat="47.53064" lon="6.75506">
        <ele>375</ele>
        <time>2014-04-13T09:11:56Z</time>
      </trkpt>
      <trkpt lat="47.53072" lon="6.75501">
        <ele>376</ele>
        <time>2014-04-13T09:12:00Z</time>
      </trkpt>
      <trkpt lat="47.53074" lon="6.75499">
        <ele>376</ele>
        <time>2014-04-13T09:12:01Z</time>
      </trkpt>
      <trkpt lat="47.53075" lon="6.75499">
        <ele>376</ele>
        <time>2014-04-13T09:12:02Z</time>
      </trkpt>
      <trkpt lat="47.53076" lon="6.75497">
        <ele>377</ele>
        <time>2014-04-13T09:12:03Z</time>
      </trkpt>
      <trkpt lat="47.53085" lon="6.75489">
        <ele>377</ele>
        <time>2014-04-13T09:12:06Z</time>
      </trkpt>
      <trkpt lat="47.53092" lon="6.75486">
        <ele>377</ele>
        <time>2014-04-13T09:12:08Z</time>
      </trkpt>
      <trkpt lat="47.53093" lon="6.75484">
        <ele>378</ele>
        <time>2014-04-13T09:12:09Z</time>
      </trkpt>
      <trkpt lat="47.53094" lon="6.75482">
        <ele>378</ele>
        <time>2014-04-13T09:12:10Z</time>
      </trkpt>
      <trkpt lat="47.53095" lon="6.7548">
        <ele>379</ele>
        <time>2014-04-13T09:12:11Z</time>
      </trkpt>
      <trkpt lat="47.53096" lon="6.75479">
        <ele>379</ele>
        <time>2014-04-13T09:12:12Z</time>
      </trkpt>
      <trkpt lat="47.53098" lon="6.75477">
        <ele>379</ele>
        <time>2014-04-13T09:12:13Z</time>
      </trkpt>
      <trkpt lat="47.53099" lon="6.75476">
        <ele>379</ele>
        <time>2014-04-13T09:12:14Z</time>
      </trkpt>
      <trkpt lat="47.53103" lon="6.75475">
        <ele>380</ele>
        <time>2014-04-13T09:12:15Z</time>
      </trkpt>
      <trkpt lat="47.53104" lon="6.75474">
        <ele>380</ele>
        <time>2014-04-13T09:12:16Z</time>
      </trkpt>
      <trkpt lat="47.53108" lon="6.75473">
        <ele>381</ele>
        <time>2014-04-13T09:12:17Z</time>
      </trkpt>
      <trkpt lat="47.5311" lon="6.7547">
        <ele>381</ele>
        <time>2014-04-13T09:12:18Z</time>
      </trkpt>
      <trkpt lat="47.53115" lon="6.75467">
        <ele>382</ele>
        <time>2014-04-13T09:12:21Z</time>
      </trkpt>
      <trkpt lat="47.53118" lon="6.75466">
        <ele>382</ele>
        <time>2014-04-13T09:12:22Z</time>
      </trkpt>
      <trkpt lat="47.53119" lon="6.75465">
        <ele>382</ele>
        <time>2014-04-13T09:12:23Z</time>
      </trkpt>
      <trkpt lat="47.53121" lon="6.75465">
        <ele>383</ele>
        <time>2014-04-13T09:12:24Z</time>
      </trkpt>
      <trkpt lat="47.53125" lon="6.75463">
        <ele>383</ele>
        <time>2014-04-13T09:12:26Z</time>
      </trkpt>
      <trkpt lat="47.53127" lon="6.75462">
        <ele>383</ele>
        <time>2014-04-13T09:12:27Z</time>
      </trkpt>
      <trkpt lat="47.53132" lon="6.75454">
        <ele>383</ele>
        <time>2014-04-13T09:12:31Z</time>
      </trkpt>
      <trkpt lat="47.53134" lon="6.75452">
        <ele>384</ele>
        <time>2014-04-13T09:12:32Z</time>
      </trkpt>
      <trkpt lat="47.53135" lon="6.75451">
        <ele>384</ele>
        <time>2014-04-13T09:12:33Z</time>
      </trkpt>
      <trkpt lat="47.53137" lon="6.75449">
        <ele>384</ele>
        <time>2014-04-13T09:12:34Z</time>
      </trkpt>
      <trkpt lat="47.53137" lon="6.75448">
        <ele>385</ele>
        <time>2014-04-13T09:12:35Z</time>
      </trkpt>
      <trkpt lat="47.53138" lon="6.75447">
        <ele>385</ele>
        <time>2014-04-13T09:12:36Z</time>
      </trkpt>
      <trkpt lat="47.53139" lon="6.75446">
        <ele>385</ele>
        <time>2014-04-13T09:12:37Z</time>
      </trkpt>
      <trkpt lat="47.53141" lon="6.7544">
        <ele>385</ele>
        <time>2014-04-13T09:12:40Z</time>
      </trkpt>
      <trkpt lat="47.53146" lon="6.75436">
        <ele>385</ele>
        <time>2014-04-13T09:12:42Z</time>
      </trkpt>
      <trkpt lat="47.53151" lon="6.75435">
        <ele>386</ele>
        <time>2014-04-13T09:12:43Z</time>
      </trkpt>
      <trkpt lat="47.53156" lon="6.75432">
        <ele>386</ele>
        <time>2014-04-13T09:12:44Z</time>
      </trkpt>
      <trkpt lat="47.53159" lon="6.75429">
        <ele>386</ele>
        <time>2014-04-13T09:12:45Z</time>
      </trkpt>
      <trkpt lat="47.53161" lon="6.75427">
        <ele>387</ele>
        <time>2014-04-13T09:12:46Z</time>
      </trkpt>
      <trkpt lat="47.53162" lon="6.75425">
        <ele>387</ele>
        <time>2014-04-13T09:12:47Z</time>
      </trkpt>
      <trkpt lat="47.53164" lon="6.75423">
        <ele>387</ele>
        <time>2014-04-13T09:12:48Z</time>
      </trkpt>
      <trkpt lat="47.53174" lon="6.7541">
        <ele>387</ele>
        <time>2014-04-13T09:12:53Z</time>
      </trkpt>
      <trkpt lat="47.53176" lon="6.75405">
        <ele>388</ele>
        <time>2014-04-13T09:12:55Z</time>
      </trkpt>
      <trkpt lat="47.53178" lon="6.75403">
        <ele>388</ele>
        <time>2014-04-13T09:12:56Z</time>
      </trkpt>
      <trkpt lat="47.53179" lon="6.75399">
        <ele>389</ele>
        <time>2014-04-13T09:12:57Z</time>
      </trkpt>
      <trkpt lat="47.53181" lon="6.75397">
        <ele>389</ele>
        <time>2014-04-13T09:12:58Z</time>
      </trkpt>
      <trkpt lat="47.53183" lon="6.75395">
        <ele>389</ele>
        <time>2014-04-13T09:12:59Z</time>
      </trkpt>
      <trkpt lat="47.53187" lon="6.75394">
        <ele>389</ele>
        <time>2014-04-13T09:13:01Z</time>
      </trkpt>
      <trkpt lat="47.53191" lon="6.75394">
        <ele>390</ele>
        <time>2014-04-13T09:13:03Z</time>
      </trkpt>
      <trkpt lat="47.53194" lon="6.75393">
        <ele>390</ele>
        <time>2014-04-13T09:13:04Z</time>
      </trkpt>
      <trkpt lat="47.53197" lon="6.75394">
        <ele>391</ele>
        <time>2014-04-13T09:13:05Z</time>
      </trkpt>
      <trkpt lat="47.53199" lon="6.75395">
        <ele>391</ele>
        <time>2014-04-13T09:13:06Z</time>
      </trkpt>
      <trkpt lat="47.53202" lon="6.75395">
        <ele>391</ele>
        <time>2014-04-13T09:13:07Z</time>
      </trkpt>
      <trkpt lat="47.53205" lon="6.75393">
        <ele>391</ele>
        <time>2014-04-13T09:13:09Z</time>
      </trkpt>
      <trkpt lat="47.53207" lon="6.75393">
        <ele>391</ele>
        <time>2014-04-13T09:13:10Z</time>
      </trkpt>
      <trkpt lat="47.53215" lon="6.75395">
        <ele>391</ele>
        <time>2014-04-13T09:13:14Z</time>
      </trkpt>
      <trkpt lat="47.53217" lon="6.75396">
        <ele>391</ele>
        <time>2014-04-13T09:13:15Z</time>
      </trkpt>
      <trkpt lat="47.53222" lon="6.75398">
        <ele>392</ele>
        <time>2014-04-13T09:13:17Z</time>
      </trkpt>
      <trkpt lat="47.53223" lon="6.75398">
        <ele>392</ele>
        <time>2014-04-13T09:13:18Z</time>
      </trkpt>
      <trkpt lat="47.53225" lon="6.75397">
        <ele>393</ele>
        <time>2014-04-13T09:13:19Z</time>
      </trkpt>
      <trkpt lat="47.53226" lon="6.75395">
        <ele>393</ele>
        <time>2014-04-13T09:13:20Z</time>
      </trkpt>
      <trkpt lat="47.53228" lon="6.75393">
        <ele>393</ele>
        <time>2014-04-13T09:13:21Z</time>
      </trkpt>
      <trkpt lat="47.5323" lon="6.7539">
        <ele>393</ele>
        <time>2014-04-13T09:13:23Z</time>
      </trkpt>
      <trkpt lat="47.53234" lon="6.75386">
        <ele>393</ele>
        <time>2014-04-13T09:13:26Z</time>
      </trkpt>
      <trkpt lat="47.53238" lon="6.75382">
        <ele>394</ele>
        <time>2014-04-13T09:13:29Z</time>
      </trkpt>
      <trkpt lat="47.53239" lon="6.7538">
        <ele>394</ele>
        <time>2014-04-13T09:13:30Z</time>
      </trkpt>
      <trkpt lat="47.5324" lon="6.75378">
        <ele>395</ele>
        <time>2014-04-13T09:13:31Z</time>
      </trkpt>
      <trkpt lat="47.53241" lon="6.75376">
        <ele>395</ele>
        <time>2014-04-13T09:13:32Z</time>
      </trkpt>
      <trkpt lat="47.53242" lon="6.75375">
        <ele>396</ele>
        <time>2014-04-13T09:13:33Z</time>
      </trkpt>
      <trkpt lat="47.53243" lon="6.7537">
        <ele>396</ele>
        <time>2014-04-13T09:13:35Z</time>
      </trkpt>
      <trkpt lat="47.53244" lon="6.75368">
        <ele>396</ele>
        <time>2014-04-13T09:13:36Z</time>
      </trkpt>
      <trkpt lat="47.53244" lon="6.75366">
        <ele>396</ele>
        <time>2014-04-13T09:13:37Z</time>
      </trkpt>
      <trkpt lat="47.53248" lon="6.75361">
        <ele>396</ele>
        <time>2014-04-13T09:13:40Z</time>
      </trkpt>
      <trkpt lat="47.53251" lon="6.7536">
        <ele>396</ele>
        <time>2014-04-13T09:13:41Z</time>
      </trkpt>
      <trkpt lat="47.53254" lon="6.75359">
        <ele>397</ele>
        <time>2014-04-13T09:13:42Z</time>
      </trkpt>
      <trkpt lat="47.53257" lon="6.75357">
        <ele>397</ele>
        <time>2014-04-13T09:13:43Z</time>
      </trkpt>
      <trkpt lat="47.53259" lon="6.75356">
        <ele>398</ele>
        <time>2014-04-13T09:13:44Z</time>
      </trkpt>
      <trkpt lat="47.53267" lon="6.75351">
        <ele>398</ele>
        <time>2014-04-13T09:13:49Z</time>
      </trkpt>
      <trkpt lat="47.53268" lon="6.7535">
        <ele>398</ele>
        <time>2014-04-13T09:13:50Z</time>
      </trkpt>
      <trkpt lat="47.53271" lon="6.75349">
        <ele>398</ele>
        <time>2014-04-13T09:13:52Z</time>
      </trkpt>
      <trkpt lat="47.53273" lon="6.75349">
        <ele>398</ele>
        <time>2014-04-13T09:13:53Z</time>
      </trkpt>
      <trkpt lat="47.53274" lon="6.75348">
        <ele>399</ele>
        <time>2014-04-13T09:13:54Z</time>
      </trkpt>
      <trkpt lat="47.53275" lon="6.75347">
        <ele>399</ele>
        <time>2014-04-13T09:13:55Z</time>
      </trkpt>
      <trkpt lat="47.53277" lon="6.75346">
        <ele>400</ele>
        <time>2014-04-13T09:13:56Z</time>
      </trkpt>
      <trkpt lat="47.53282" lon="6.75343">
        <ele>400</ele>
        <time>2014-04-13T09:13:59Z</time>
      </trkpt>
      <trkpt lat="47.53286" lon="6.7534">
        <ele>400</ele>
        <time>2014-04-13T09:14:01Z</time>
      </trkpt>
      <trkpt lat="47.53288" lon="6.75339">
        <ele>400</ele>
        <time>2014-04-13T09:14:02Z</time>
      </trkpt>
      <trkpt lat="47.53289" lon="6.75338">
        <ele>401</ele>
        <time>2014-04-13T09:14:03Z</time>
      </trkpt>
      <trkpt lat="47.5329" lon="6.75337">
        <ele>401</ele>
        <time>2014-04-13T09:14:04Z</time>
      </trkpt>
      <trkpt lat="47.53291" lon="6.75336">
        <ele>402</ele>
        <time>2014-04-13T09:14:05Z</time>
      </trkpt>
      <trkpt lat="47.53294" lon="6.75335">
        <ele>402</ele>
        <time>2014-04-13T09:14:07Z</time>
      </trkpt>
      <trkpt lat="47.53301" lon="6.75329">
        <ele>402</ele>
        <time>2014-04-13T09:14:14Z</time>
      </trkpt>
      <trkpt lat="47.53305" lon="6.75328">
        <ele>402</ele>
        <time>2014-04-13T09:14:16Z</time>
      </trkpt>
      <trkpt lat="47.53306" lon="6.75327">
        <ele>403</ele>
        <time>2014-04-13T09:14:17Z</time>
      </trkpt>
      <trkpt lat="47.53307" lon="6.75325">
        <ele>403</ele>
        <time>2014-04-13T09:14:18Z</time>
      </trkpt>
      <trkpt lat="47.5331" lon="6.75324">
        <ele>403</ele>
        <time>2014-04-13T09:14:19Z</time>
      </trkpt>
      <trkpt lat="47.53311" lon="6.75322">
        <ele>404</ele>
        <time>2014-04-13T09:14:20Z</time>
      </trkpt>
      <trkpt lat="47.53314" lon="6.7532">
        <ele>404</ele>
        <time>2014-04-13T09:14:22Z</time>
      </trkpt>
      <trkpt lat="47.53319" lon="6.75317">
        <ele>404</ele>
        <time>2014-04-13T09:14:25Z</time>
      </trkpt>
      <trkpt lat="47.5332" lon="6.75316">
        <ele>404</ele>
        <time>2014-04-13T09:14:26Z</time>
      </trkpt>
      <trkpt lat="47.53325" lon="6.75315">
        <ele>404</ele>
        <time>2014-04-13T09:14:29Z</time>
      </trkpt>
      <trkpt lat="47.5333" lon="6.75315">
        <ele>404</ele>
        <time>2014-04-13T09:14:32Z</time>
      </trkpt>
      <trkpt lat="47.53336" lon="6.75314">
        <ele>404</ele>
        <time>2014-04-13T09:14:34Z</time>
      </trkpt>
      <trkpt lat="47.53339" lon="6.75313">
        <ele>405</ele>
        <time>2014-04-13T09:14:35Z</time>
      </trkpt>
      <trkpt lat="47.53341" lon="6.75313">
        <ele>405</ele>
        <time>2014-04-13T09:14:36Z</time>
      </trkpt>
      <trkpt lat="47.53344" lon="6.75312">
        <ele>406</ele>
        <time>2014-04-13T09:14:37Z</time>
      </trkpt>
      <trkpt lat="47.53345" lon="6.75312">
        <ele>406</ele>
        <time>2014-04-13T09:14:38Z</time>
      </trkpt>
      <trkpt lat="47.53347" lon="6.75311">
        <ele>406</ele>
        <time>2014-04-13T09:14:39Z</time>
      </trkpt>
      <trkpt lat="47.53359" lon="6.75307">
        <ele>406</ele>
        <time>2014-04-13T09:14:44Z</time>
      </trkpt>
      <trkpt lat="47.53368" lon="6.75303">
        <ele>406</ele>
        <time>2014-04-13T09:14:48Z</time>
      </trkpt>
      <trkpt lat="47.5337" lon="6.75302">
        <ele>407</ele>
        <time>2014-04-13T09:14:49Z</time>
      </trkpt>
      <trkpt lat="47.53372" lon="6.75301">
        <ele>407</ele>
        <time>2014-04-13T09:14:50Z</time>
      </trkpt>
      <trkpt lat="47.53374" lon="6.753">
        <ele>408</ele>
        <time>2014-04-13T09:14:51Z</time>
      </trkpt>
      <trkpt lat="47.53375" lon="6.75299">
        <ele>408</ele>
        <time>2014-04-13T09:14:52Z</time>
      </trkpt>
      <trkpt lat="47.53384" lon="6.75294">
        <ele>408</ele>
        <time>2014-04-13T09:14:56Z</time>
      </trkpt>
      <trkpt lat="47.53385" lon="6.75293">
        <ele>409</ele>
        <time>2014-04-13T09:14:57Z</time>
      </trkpt>
      <trkpt lat="47.53388" lon="6.75291">
        <ele>409</ele>
        <time>2014-04-13T09:14:58Z</time>
      </trkpt>
      <trkpt lat="47.5339" lon="6.7529">
        <ele>409</ele>
        <time>2014-04-13T09:14:59Z</time>
      </trkpt>
      <trkpt lat="47.53392" lon="6.75289">
        <ele>410</ele>
        <time>2014-04-13T09:15:00Z</time>
      </trkpt>
      <trkpt lat="47.53393" lon="6.75289">
        <ele>410</ele>
        <time>2014-04-13T09:15:01Z</time>
      </trkpt>
      <trkpt lat="47.534" lon="6.75282">
        <ele>410</ele>
        <time>2014-04-13T09:15:06Z</time>
      </trkpt>
      <trkpt lat="47.53405" lon="6.75279">
        <ele>410</ele>
        <time>2014-04-13T09:15:08Z</time>
      </trkpt>
      <trkpt lat="47.53416" lon="6.75275">
        <ele>410</ele>
        <time>2014-04-13T09:15:13Z</time>
      </trkpt>
      <trkpt lat="47.53416" lon="6.75274">
        <ele>410</ele>
        <time>2014-04-13T09:15:14Z</time>
      </trkpt>
      <trkpt lat="47.53421" lon="6.75272">
        <ele>410</ele>
        <time>2014-04-13T09:15:17Z</time>
      </trkpt>
      <trkpt lat="47.53423" lon="6.75271">
        <ele>411</ele>
        <time>2014-04-13T09:15:18Z</time>
      </trkpt>
      <trkpt lat="47.53425" lon="6.75271">
        <ele>411</ele>
        <time>2014-04-13T09:15:19Z</time>
      </trkpt>
      <trkpt lat="47.53427" lon="6.7527">
        <ele>412</ele>
        <time>2014-04-13T09:15:20Z</time>
      </trkpt>
      <trkpt lat="47.53429" lon="6.75269">
        <ele>412</ele>
        <time>2014-04-13T09:15:21Z</time>
      </trkpt>
      <trkpt lat="47.53436" lon="6.75268">
        <ele>412</ele>
        <time>2014-04-13T09:15:23Z</time>
      </trkpt>
      <trkpt lat="47.5345" lon="6.75268">
        <ele>412</ele>
        <time>2014-04-13T09:15:28Z</time>
      </trkpt>
      <trkpt lat="47.53462" lon="6.75268">
        <ele>412</ele>
        <time>2014-04-13T09:15:32Z</time>
      </trkpt>
      <trkpt lat="47.53472" lon="6.75268">
        <ele>413</ele>
        <time>2014-04-13T09:15:35Z</time>
      </trkpt>
      <trkpt lat="47.53476" lon="6.75268">
        <ele>413</ele>
        <time>2014-04-13T09:15:36Z</time>
      </trkpt>
      <trkpt lat="47.53479" lon="6.75267">
        <ele>413</ele>
        <time>2014-04-13T09:15:37Z</time>
      </trkpt>
      <trkpt lat="47.53483" lon="6.75268">
        <ele>414</ele>
        <time>2014-04-13T09:15:38Z</time>
      </trkpt>
      <trkpt lat="47.53486" lon="6.75268">
        <ele>414</ele>
        <time>2014-04-13T09:15:39Z</time>
      </trkpt>
      <trkpt lat="47.5349" lon="6.75267">
        <ele>414</ele>
        <time>2014-04-13T09:15:40Z</time>
      </trkpt>
      <trkpt lat="47.5351" lon="6.75266">
        <ele>414</ele>
        <time>2014-04-13T09:15:46Z</time>
      </trkpt>
      <trkpt lat="47.53519" lon="6.75265">
        <ele>415</ele>
        <time>2014-04-13T09:15:50Z</time>
      </trkpt>
      <trkpt lat="47.53522" lon="6.75265">
        <ele>415</ele>
        <time>2014-04-13T09:15:51Z</time>
      </trkpt>
      <trkpt lat="47.53523" lon="6.75265">
        <ele>415</ele>
        <time>2014-04-13T09:15:52Z</time>
      </trkpt>
      <trkpt lat="47.53525" lon="6.75265">
        <ele>416</ele>
        <time>2014-04-13T09:15:53Z</time>
      </trkpt>
      <trkpt lat="47.53528" lon="6.75265">
        <ele>416</ele>
        <time>2014-04-13T09:15:54Z</time>
      </trkpt>
      <trkpt lat="47.5353" lon="6.75265">
        <ele>416</ele>
        <time>2014-04-13T09:15:55Z</time>
      </trkpt>
      <trkpt lat="47.5354" lon="6.75265">
        <ele>416</ele>
        <time>2014-04-13T09:16:00Z</time>
      </trkpt>
      <trkpt lat="47.53542" lon="6.75266">
        <ele>416</ele>
        <time>2014-04-13T09:16:01Z</time>
      </trkpt>
      <trkpt lat="47.53556" lon="6.75264">
        <ele>416</ele>
        <time>2014-04-13T09:16:06Z</time>
      </trkpt>
      <trkpt lat="47.53567" lon="6.75261">
        <ele>417</ele>
        <time>2014-04-13T09:16:10Z</time>
      </trkpt>
      <trkpt lat="47.53569" lon="6.75261">
        <ele>417</ele>
        <time>2014-04-13T09:16:11Z</time>
      </trkpt>
      <trkpt lat="47.53571" lon="6.7526">
        <ele>418</ele>
        <time>2014-04-13T09:16:12Z</time>
      </trkpt>
      <trkpt lat="47.53572" lon="6.75259">
        <ele>418</ele>
        <time>2014-04-13T09:16:13Z</time>
      </trkpt>
      <trkpt lat="47.53573" lon="6.75258">
        <ele>418</ele>
        <time>2014-04-13T09:16:14Z</time>
      </trkpt>
      <trkpt lat="47.53575" lon="6.75257">
        <ele>418</ele>
        <time>2014-04-13T09:16:15Z</time>
      </trkpt>
      <trkpt lat="47.53583" lon="6.75252">
        <ele>418</ele>
        <time>2014-04-13T09:16:19Z</time>
      </trkpt>
      <trkpt lat="47.53585" lon="6.75251">
        <ele>418</ele>
        <time>2014-04-13T09:16:20Z</time>
      </trkpt>
      <trkpt lat="47.53595" lon="6.75246">
        <ele>418</ele>
        <time>2014-04-13T09:16:26Z</time>
      </trkpt>
      <trkpt lat="47.5361" lon="6.75238">
        <ele>419</ele>
        <time>2014-04-13T09:16:32Z</time>
      </trkpt>
      <trkpt lat="47.53611" lon="6.75238">
        <ele>419</ele>
        <time>2014-04-13T09:16:33Z</time>
      </trkpt>
      <trkpt lat="47.53612" lon="6.75237">
        <ele>420</ele>
        <time>2014-04-13T09:16:34Z</time>
      </trkpt>
      <trkpt lat="47.53612" lon="6.75236">
        <ele>420</ele>
        <time>2014-04-13T09:16:35Z</time>
      </trkpt>
      <trkpt lat="47.53614" lon="6.75235">
        <ele>421</ele>
        <time>2014-04-13T09:16:36Z</time>
      </trkpt>
      <trkpt lat="47.53616" lon="6.75233">
        <ele>421</ele>
        <time>2014-04-13T09:16:37Z</time>
      </trkpt>
      <trkpt lat="47.53618" lon="6.75231">
        <ele>421</ele>
        <time>2014-04-13T09:16:38Z</time>
      </trkpt>
      <trkpt lat="47.53632" lon="6.75223">
        <ele>421</ele>
        <time>2014-04-13T09:16:43Z</time>
      </trkpt>
      <trkpt lat="47.53634" lon="6.75222">
        <ele>421</ele>
        <time>2014-04-13T09:16:44Z</time>
      </trkpt>
      <trkpt lat="47.53635" lon="6.75222">
        <ele>422</ele>
        <time>2014-04-13T09:16:45Z</time>
      </trkpt>
      <trkpt lat="47.53638" lon="6.75222">
        <ele>422</ele>
        <time>2014-04-13T09:16:46Z</time>
      </trkpt>
      <trkpt lat="47.53641" lon="6.75222">
        <ele>423</ele>
        <time>2014-04-13T09:16:47Z</time>
      </trkpt>
      <trkpt lat="47.53644" lon="6.75221">
        <ele>423</ele>
        <time>2014-04-13T09:16:48Z</time>
      </trkpt>
      <trkpt lat="47.53647" lon="6.75221">
        <ele>423</ele>
        <time>2014-04-13T09:16:49Z</time>
      </trkpt>
      <trkpt lat="47.53649" lon="6.75221">
        <ele>423</ele>
        <time>2014-04-13T09:16:50Z</time>
      </trkpt>
      <trkpt lat="47.53652" lon="6.75221">
        <ele>424</ele>
        <time>2014-04-13T09:16:51Z</time>
      </trkpt>
      <trkpt lat="47.53655" lon="6.75221">
        <ele>424</ele>
        <time>2014-04-13T09:16:52Z</time>
      </trkpt>
      <trkpt lat="47.53657" lon="6.7522">
        <ele>425</ele>
        <time>2014-04-13T09:16:53Z</time>
      </trkpt>
      <trkpt lat="47.53661" lon="6.75217">
        <ele>425</ele>
        <time>2014-04-13T09:16:55Z</time>
      </trkpt>
      <trkpt lat="47.53662" lon="6.75214">
        <ele>425</ele>
        <time>2014-04-13T09:16:56Z</time>
      </trkpt>
      <trkpt lat="47.53664" lon="6.7521">
        <ele>426</ele>
        <time>2014-04-13T09:16:57Z</time>
      </trkpt>
      <trkpt lat="47.53665" lon="6.75206">
        <ele>427</ele>
        <time>2014-04-13T09:16:58Z</time>
      </trkpt>
      <trkpt lat="47.53666" lon="6.75198">
        <ele>427</ele>
        <time>2014-04-13T09:17:00Z</time>
      </trkpt>
      <trkpt lat="47.53668" lon="6.75194">
        <ele>427</ele>
        <time>2014-04-13T09:17:01Z</time>
      </trkpt>
      <trkpt lat="47.53669" lon="6.75192">
        <ele>428</ele>
        <time>2014-04-13T09:17:02Z</time>
      </trkpt>
      <trkpt lat="47.53671" lon="6.75189">
        <ele>428</ele>
        <time>2014-04-13T09:17:03Z</time>
      </trkpt>
      <trkpt lat="47.53673" lon="6.75186">
        <ele>429</ele>
        <time>2014-04-13T09:17:04Z</time>
      </trkpt>
      <trkpt lat="47.53674" lon="6.75184">
        <ele>429</ele>
        <time>2014-04-13T09:17:05Z</time>
      </trkpt>
      <trkpt lat="47.53682" lon="6.75161">
        <ele>429</ele>
        <time>2014-04-13T09:17:11Z</time>
      </trkpt>
      <trkpt lat="47.53683" lon="6.75158">
        <ele>430</ele>
        <time>2014-04-13T09:17:12Z</time>
      </trkpt>
      <trkpt lat="47.53685" lon="6.75154">
        <ele>430</ele>
        <time>2014-04-13T09:17:13Z</time>
      </trkpt>
      <trkpt lat="47.53686" lon="6.75151">
        <ele>431</ele>
        <time>2014-04-13T09:17:14Z</time>
      </trkpt>
      <trkpt lat="47.53687" lon="6.75147">
        <ele>431</ele>
        <time>2014-04-13T09:17:15Z</time>
      </trkpt>
      <trkpt lat="47.53694" lon="6.75129">
        <ele>431</ele>
        <time>2014-04-13T09:17:20Z</time>
      </trkpt>
      <trkpt lat="47.53695" lon="6.75124">
        <ele>431</ele>
        <time>2014-04-13T09:17:21Z</time>
      </trkpt>
      <trkpt lat="47.53696" lon="6.7512">
        <ele>432</ele>
        <time>2014-04-13T09:17:22Z</time>
      </trkpt>
      <trkpt lat="47.53698" lon="6.75115">
        <ele>433</ele>
        <time>2014-04-13T09:17:23Z</time>
      </trkpt>
      <trkpt lat="47.53701" lon="6.75111">
        <ele>433</ele>
        <time>2014-04-13T09:17:24Z</time>
      </trkpt>
      <trkpt lat="47.53706" lon="6.75103">
        <ele>433</ele>
        <time>2014-04-13T09:17:26Z</time>
      </trkpt>
      <trkpt lat="47.53724" lon="6.75069">
        <ele>433</ele>
        <time>2014-04-13T09:17:33Z</time>
      </trkpt>
      <trkpt lat="47.53726" lon="6.75062">
        <ele>433</ele>
        <time>2014-04-13T09:17:34Z</time>
      </trkpt>
      <trkpt lat="47.53727" lon="6.75043">
        <ele>433</ele>
        <time>2014-04-13T09:17:37Z</time>
      </trkpt>
      <trkpt lat="47.53726" lon="6.75035">
        <ele>432</ele>
        <time>2014-04-13T09:17:38Z</time>
      </trkpt>
      <trkpt lat="47.53725" lon="6.75029">
        <ele>432</ele>
        <time>2014-04-13T09:17:39Z</time>
      </trkpt>
      <trkpt lat="47.53723" lon="6.75021">
        <ele>431</ele>
        <time>2014-04-13T09:17:40Z</time>
      </trkpt>
      <trkpt lat="47.53721" lon="6.75014">
        <ele>431</ele>
        <time>2014-04-13T09:17:41Z</time>
      </trkpt>
      <trkpt lat="47.53718" lon="6.74999">
        <ele>431</ele>
        <time>2014-04-13T09:17:43Z</time>
      </trkpt>
      <trkpt lat="47.53715" lon="6.74983">
        <ele>431</ele>
        <time>2014-04-13T09:17:45Z</time>
      </trkpt>
      <trkpt lat="47.53712" lon="6.74974">
        <ele>430</ele>
        <time>2014-04-13T09:17:46Z</time>
      </trkpt>
      <trkpt lat="47.53709" lon="6.74966">
        <ele>429</ele>
        <time>2014-04-13T09:17:47Z</time>
      </trkpt>
      <trkpt lat="47.53705" lon="6.74957">
        <ele>429</ele>
        <time>2014-04-13T09:17:48Z</time>
      </trkpt>
      <trkpt lat="47.53702" lon="6.74947">
        <ele>428</ele>
        <time>2014-04-13T09:17:49Z</time>
      </trkpt>
      <trkpt lat="47.537" lon="6.74938">
        <ele>427</ele>
        <time>2014-04-13T09:17:50Z</time>
      </trkpt>
      <trkpt lat="47.53697" lon="6.74927">
        <ele>427</ele>
        <time>2014-04-13T09:17:51Z</time>
      </trkpt>
      <trkpt lat="47.5369" lon="6.74895">
        <ele>426</ele>
        <time>2014-04-13T09:17:54Z</time>
      </trkpt>
      <trkpt lat="47.53688" lon="6.74886">
        <ele>426</ele>
        <time>2014-04-13T09:17:55Z</time>
      </trkpt>
      <trkpt lat="47.53687" lon="6.74877">
        <ele>425</ele>
        <time>2014-04-13T09:17:56Z</time>
      </trkpt>
      <trkpt lat="47.53686" lon="6.74869">
        <ele>425</ele>
        <time>2014-04-13T09:17:57Z</time>
      </trkpt>
      <trkpt lat="47.53684" lon="6.74861">
        <ele>425</ele>
        <time>2014-04-13T09:17:58Z</time>
      </trkpt>
      <trkpt lat="47.5368" lon="6.74832">
        <ele>425</ele>
        <time>2014-04-13T09:18:02Z</time>
      </trkpt>
      <trkpt lat="47.53679" lon="6.74825">
        <ele>424</ele>
        <time>2014-04-13T09:18:03Z</time>
      </trkpt>
      <trkpt lat="47.53678" lon="6.74818">
        <ele>424</ele>
        <time>2014-04-13T09:18:04Z</time>
      </trkpt>
      <trkpt lat="47.53677" lon="6.7481">
        <ele>423</ele>
        <time>2014-04-13T09:18:05Z</time>
      </trkpt>
      <trkpt lat="47.53676" lon="6.74802">
        <ele>423</ele>
        <time>2014-04-13T09:18:06Z</time>
      </trkpt>
      <trkpt lat="47.53674" lon="6.74794">
        <ele>422</ele>
        <time>2014-04-13T09:18:07Z</time>
      </trkpt>
      <trkpt lat="47.53674" lon="6.74789">
        <ele>422</ele>
        <time>2014-04-13T09:18:08Z</time>
      </trkpt>
      <trkpt lat="47.53674" lon="6.74785">
        <ele>422</ele>
        <time>2014-04-13T09:18:09Z</time>
      </trkpt>
      <trkpt lat="47.53674" lon="6.74781">
        <ele>422</ele>
        <time>2014-04-13T09:18:11Z</time>
      </trkpt>
      <trkpt lat="47.53674" lon="6.74778">
        <ele>422</ele>
        <time>2014-04-13T09:18:12Z</time>
      </trkpt>
      <trkpt lat="47.53675" lon="6.74774">
        <ele>421</ele>
        <time>2014-04-13T09:18:13Z</time>
      </trkpt>
      <trkpt lat="47.53675" lon="6.7477">
        <ele>421</ele>
        <time>2014-04-13T09:18:14Z</time>
      </trkpt>
      <trkpt lat="47.53677" lon="6.74767">
        <ele>421</ele>
        <time>2014-04-13T09:18:15Z</time>
      </trkpt>
      <trkpt lat="47.53678" lon="6.74764">
        <ele>420</ele>
        <time>2014-04-13T09:18:16Z</time>
      </trkpt>
      <trkpt lat="47.53688" lon="6.74756">
        <ele>420</ele>
        <time>2014-04-13T09:18:20Z</time>
      </trkpt>
      <trkpt lat="47.53701" lon="6.74744">
        <ele>420</ele>
        <time>2014-04-13T09:18:25Z</time>
      </trkpt>
      <trkpt lat="47.53709" lon="6.7474">
        <ele>420</ele>
        <time>2014-04-13T09:18:27Z</time>
      </trkpt>
      <trkpt lat="47.53714" lon="6.74735">
        <ele>420</ele>
        <time>2014-04-13T09:18:30Z</time>
      </trkpt>
      <trkpt lat="47.53719" lon="6.74729">
        <ele>421</ele>
        <time>2014-04-13T09:18:33Z</time>
      </trkpt>
      <trkpt lat="47.5372" lon="6.74728">
        <ele>421</ele>
        <time>2014-04-13T09:18:34Z</time>
      </trkpt>
      <trkpt lat="47.53721" lon="6.74727">
        <ele>421</ele>
        <time>2014-04-13T09:18:35Z</time>
      </trkpt>
      <trkpt lat="47.53723" lon="6.74725">
        <ele>422</ele>
        <time>2014-04-13T09:18:36Z</time>
      </trkpt>
      <trkpt lat="47.53726" lon="6.74723">
        <ele>422</ele>
        <time>2014-04-13T09:18:37Z</time>
      </trkpt>
      <trkpt lat="47.53731" lon="6.74719">
        <ele>423</ele>
        <time>2014-04-13T09:18:39Z</time>
      </trkpt>
      <trkpt lat="47.53733" lon="6.74718">
        <ele>423</ele>
        <time>2014-04-13T09:18:40Z</time>
      </trkpt>
      <trkpt lat="47.53735" lon="6.74717">
        <ele>424</ele>
        <time>2014-04-13T09:18:41Z</time>
      </trkpt>
      <trkpt lat="47.53737" lon="6.74715">
        <ele>424</ele>
        <time>2014-04-13T09:18:42Z</time>
      </trkpt>
      <trkpt lat="47.53739" lon="6.74712">
        <ele>424</ele>
        <time>2014-04-13T09:18:43Z</time>
      </trkpt>
      <trkpt lat="47.53742" lon="6.74702">
        <ele>424</ele>
        <time>2014-04-13T09:18:47Z</time>
      </trkpt>
      <trkpt lat="47.53743" lon="6.74696">
        <ele>424</ele>
        <time>2014-04-13T09:18:48Z</time>
      </trkpt>
      <trkpt lat="47.53742" lon="6.74677">
        <ele>424</ele>
        <time>2014-04-13T09:18:51Z</time>
      </trkpt>
      <trkpt lat="47.5374" lon="6.74657">
        <ele>424</ele>
        <time>2014-04-13T09:18:54Z</time>
      </trkpt>
      <trkpt lat="47.53739" lon="6.74649">
        <ele>424</ele>
        <time>2014-04-13T09:18:55Z</time>
      </trkpt>
      <trkpt lat="47.53739" lon="6.74641">
        <ele>424</ele>
        <time>2014-04-13T09:18:56Z</time>
      </trkpt>
      <trkpt lat="47.53738" lon="6.74632">
        <ele>424</ele>
        <time>2014-04-13T09:18:57Z</time>
      </trkpt>
      <trkpt lat="47.53738" lon="6.74624">
        <ele>423</ele>
        <time>2014-04-13T09:18:58Z</time>
      </trkpt>
      <trkpt lat="47.53737" lon="6.74616">
        <ele>423</ele>
        <time>2014-04-13T09:18:59Z</time>
      </trkpt>
      <trkpt lat="47.53736" lon="6.74608">
        <ele>422</ele>
        <time>2014-04-13T09:19:00Z</time>
      </trkpt>
      <trkpt lat="47.53736" lon="6.746">
        <ele>422</ele>
        <time>2014-04-13T09:19:01Z</time>
      </trkpt>
      <trkpt lat="47.53736" lon="6.74592">
        <ele>421</ele>
        <time>2014-04-13T09:19:02Z</time>
      </trkpt>
      <trkpt lat="47.53737" lon="6.74585">
        <ele>421</ele>
        <time>2014-04-13T09:19:03Z</time>
      </trkpt>
      <trkpt lat="47.53736" lon="6.74577">
        <ele>420</ele>
        <time>2014-04-13T09:19:04Z</time>
      </trkpt>
      <trkpt lat="47.53735" lon="6.7457">
        <ele>420</ele>
        <time>2014-04-13T09:19:05Z</time>
      </trkpt>
      <trkpt lat="47.53733" lon="6.74563">
        <ele>419</ele>
        <time>2014-04-13T09:19:06Z</time>
      </trkpt>
      <trkpt lat="47.53733" lon="6.74555">
        <ele>419</ele>
        <time>2014-04-13T09:19:07Z</time>
      </trkpt>
      <trkpt lat="47.53732" lon="6.74547">
        <ele>419</ele>
        <time>2014-04-13T09:19:08Z</time>
      </trkpt>
      <trkpt lat="47.53731" lon="6.7454">
        <ele>418</ele>
        <time>2014-04-13T09:19:09Z</time>
      </trkpt>
      <trkpt lat="47.53731" lon="6.74536">
        <ele>418</ele>
        <time>2014-04-13T09:19:10Z</time>
      </trkpt>
      <trkpt lat="47.53731" lon="6.74531">
        <ele>418</ele>
        <time>2014-04-13T09:19:11Z</time>
      </trkpt>
      <trkpt lat="47.5373" lon="6.74525">
        <ele>417</ele>
        <time>2014-04-13T09:19:12Z</time>
      </trkpt>
      <trkpt lat="47.5373" lon="6.7452">
        <ele>417</ele>
        <time>2014-04-13T09:19:13Z</time>
      </trkpt>
      <trkpt lat="47.53729" lon="6.74515">
        <ele>416</ele>
        <time>2014-04-13T09:19:14Z</time>
      </trkpt>
      <trkpt lat="47.53729" lon="6.74509">
        <ele>416</ele>
        <time>2014-04-13T09:19:15Z</time>
      </trkpt>
      <trkpt lat="47.53727" lon="6.74498">
        <ele>415</ele>
        <time>2014-04-13T09:19:16Z</time>
      </trkpt>
      <trkpt lat="47.53726" lon="6.74489">
        <ele>415</ele>
        <time>2014-04-13T09:19:17Z</time>
      </trkpt>
      <trkpt lat="47.53725" lon="6.74478">
        <ele>415</ele>
        <time>2014-04-13T09:19:18Z</time>
      </trkpt>
      <trkpt lat="47.53724" lon="6.74469">
        <ele>414</ele>
        <time>2014-04-13T09:19:19Z</time>
      </trkpt>
      <trkpt lat="47.53724" lon="6.74459">
        <ele>414</ele>
        <time>2014-04-13T09:19:20Z</time>
      </trkpt>
      <trkpt lat="47.53724" lon="6.74449">
        <ele>413</ele>
        <time>2014-04-13T09:19:21Z</time>
      </trkpt>
      <trkpt lat="47.53724" lon="6.7444">
        <ele>413</ele>
        <time>2014-04-13T09:19:22Z</time>
      </trkpt>
      <trkpt lat="47.53723" lon="6.74423">
        <ele>413</ele>
        <time>2014-04-13T09:19:24Z</time>
      </trkpt>
      <trkpt lat="47.53723" lon="6.74415">
        <ele>412</ele>
        <time>2014-04-13T09:19:25Z</time>
      </trkpt>
      <trkpt lat="47.53722" lon="6.74406">
        <ele>411</ele>
        <time>2014-04-13T09:19:26Z</time>
      </trkpt>
      <trkpt lat="47.53721" lon="6.74397">
        <ele>411</ele>
        <time>2014-04-13T09:19:27Z</time>
      </trkpt>
      <trkpt lat="47.53717" lon="6.74372">
        <ele>410</ele>
        <time>2014-04-13T09:19:30Z</time>
      </trkpt>
      <trkpt lat="47.53715" lon="6.74364">
        <ele>410</ele>
        <time>2014-04-13T09:19:31Z</time>
      </trkpt>
      <trkpt lat="47.53714" lon="6.74355">
        <ele>409</ele>
        <time>2014-04-13T09:19:32Z</time>
      </trkpt>
      <trkpt lat="47.53713" lon="6.74346">
        <ele>409</ele>
        <time>2014-04-13T09:19:33Z</time>
      </trkpt>
      <trkpt lat="47.53712" lon="6.74339">
        <ele>408</ele>
        <time>2014-04-13T09:19:34Z</time>
      </trkpt>
      <trkpt lat="47.5371" lon="6.74323">
        <ele>408</ele>
        <time>2014-04-13T09:19:36Z</time>
      </trkpt>
      <trkpt lat="47.5371" lon="6.74316">
        <ele>408</ele>
        <time>2014-04-13T09:19:37Z</time>
      </trkpt>
      <trkpt lat="47.53709" lon="6.7431">
        <ele>407</ele>
        <time>2014-04-13T09:19:38Z</time>
      </trkpt>
      <trkpt lat="47.53709" lon="6.74303">
        <ele>407</ele>
        <time>2014-04-13T09:19:39Z</time>
      </trkpt>
      <trkpt lat="47.53708" lon="6.74296">
        <ele>406</ele>
        <time>2014-04-13T09:19:40Z</time>
      </trkpt>
      <trkpt lat="47.53706" lon="6.74281">
        <ele>406</ele>
        <time>2014-04-13T09:19:42Z</time>
      </trkpt>
      <trkpt lat="47.53706" lon="6.74274">
        <ele>406</ele>
        <time>2014-04-13T09:19:43Z</time>
      </trkpt>
      <trkpt lat="47.53705" lon="6.74267">
        <ele>405</ele>
        <time>2014-04-13T09:19:44Z</time>
      </trkpt>
      <trkpt lat="47.53705" lon="6.74258">
        <ele>405</ele>
        <time>2014-04-13T09:19:45Z</time>
      </trkpt>
      <trkpt lat="47.53704" lon="6.7425">
        <ele>404</ele>
        <time>2014-04-13T09:19:46Z</time>
      </trkpt>
      <trkpt lat="47.53702" lon="6.74241">
        <ele>404</ele>
        <time>2014-04-13T09:19:47Z</time>
      </trkpt>
      <trkpt lat="47.53701" lon="6.74231">
        <ele>403</ele>
        <time>2014-04-13T09:19:48Z</time>
      </trkpt>
      <trkpt lat="47.537" lon="6.74222">
        <ele>403</ele>
        <time>2014-04-13T09:19:49Z</time>
      </trkpt>
      <trkpt lat="47.53699" lon="6.74211">
        <ele>402</ele>
        <time>2014-04-13T09:19:50Z</time>
      </trkpt>
      <trkpt lat="47.53698" lon="6.74202">
        <ele>401</ele>
        <time>2014-04-13T09:19:51Z</time>
      </trkpt>
      <trkpt lat="47.53696" lon="6.74192">
        <ele>401</ele>
        <time>2014-04-13T09:19:52Z</time>
      </trkpt>
      <trkpt lat="47.53696" lon="6.74182">
        <ele>401</ele>
        <time>2014-04-13T09:19:53Z</time>
      </trkpt>
      <trkpt lat="47.53694" lon="6.74172">
        <ele>400</ele>
        <time>2014-04-13T09:19:54Z</time>
      </trkpt>
      <trkpt lat="47.53693" lon="6.74162">
        <ele>399</ele>
        <time>2014-04-13T09:19:55Z</time>
      </trkpt>
      <trkpt lat="47.53691" lon="6.74151">
        <ele>399</ele>
        <time>2014-04-13T09:19:56Z</time>
      </trkpt>
      <trkpt lat="47.53687" lon="6.74141">
        <ele>398</ele>
        <time>2014-04-13T09:19:57Z</time>
      </trkpt>
      <trkpt lat="47.53683" lon="6.74131">
        <ele>397</ele>
        <time>2014-04-13T09:19:58Z</time>
      </trkpt>
      <trkpt lat="47.5368" lon="6.74121">
        <ele>397</ele>
        <time>2014-04-13T09:19:59Z</time>
      </trkpt>
      <trkpt lat="47.53676" lon="6.74113">
        <ele>396</ele>
        <time>2014-04-13T09:20:00Z</time>
      </trkpt>
      <trkpt lat="47.53673" lon="6.74103">
        <ele>395</ele>
        <time>2014-04-13T09:20:01Z</time>
      </trkpt>
      <trkpt lat="47.5367" lon="6.74095">
        <ele>395</ele>
        <time>2014-04-13T09:20:02Z</time>
      </trkpt>
      <trkpt lat="47.53669" lon="6.74086">
        <ele>394</ele>
        <time>2014-04-13T09:20:03Z</time>
      </trkpt>
      <trkpt lat="47.53669" lon="6.74078">
        <ele>393</ele>
        <time>2014-04-13T09:20:04Z</time>
      </trkpt>
      <trkpt lat="47.53668" lon="6.74071">
        <ele>393</ele>
        <time>2014-04-13T09:20:05Z</time>
      </trkpt>
      <trkpt lat="47.53666" lon="6.74066">
        <ele>392</ele>
        <time>2014-04-13T09:20:06Z</time>
      </trkpt>
      <trkpt lat="47.53662" lon="6.74059">
        <ele>391</ele>
        <time>2014-04-13T09:20:07Z</time>
      </trkpt>
      <trkpt lat="47.53659" lon="6.74051">
        <ele>391</ele>
        <time>2014-04-13T09:20:08Z</time>
      </trkpt>
      <trkpt lat="47.53656" lon="6.74042">
        <ele>390</ele>
        <time>2014-04-13T09:20:09Z</time>
      </trkpt>
      <trkpt lat="47.53653" lon="6.74033">
        <ele>390</ele>
        <time>2014-04-13T09:20:10Z</time>
      </trkpt>
      <trkpt lat="47.53651" lon="6.74024">
        <ele>389</ele>
        <time>2014-04-13T09:20:11Z</time>
      </trkpt>
      <trkpt lat="47.53647" lon="6.74017">
        <ele>389</ele>
        <time>2014-04-13T09:20:12Z</time>
      </trkpt>
      <trkpt lat="47.53645" lon="6.7401">
        <ele>388</ele>
        <time>2014-04-13T09:20:13Z</time>
      </trkpt>
      <trkpt lat="47.53642" lon="6.74002">
        <ele>388</ele>
        <time>2014-04-13T09:20:14Z</time>
      </trkpt>
      <trkpt lat="47.5364" lon="6.73994">
        <ele>387</ele>
        <time>2014-04-13T09:20:15Z</time>
      </trkpt>
      <trkpt lat="47.53638" lon="6.73986">
        <ele>386</ele>
        <time>2014-04-13T09:20:16Z</time>
      </trkpt>
      <trkpt lat="47.53636" lon="6.73979">
        <ele>386</ele>
        <time>2014-04-13T09:20:17Z</time>
      </trkpt>
      <trkpt lat="47.53633" lon="6.73972">
        <ele>385</ele>
        <time>2014-04-13T09:20:18Z</time>
      </trkpt>
      <trkpt lat="47.53631" lon="6.73966">
        <ele>385</ele>
        <time>2014-04-13T09:20:19Z</time>
      </trkpt>
      <trkpt lat="47.53628" lon="6.73958">
        <ele>384</ele>
        <time>2014-04-13T09:20:20Z</time>
      </trkpt>
      <trkpt lat="47.53628" lon="6.73949">
        <ele>383</ele>
        <time>2014-04-13T09:20:21Z</time>
      </trkpt>
      <trkpt lat="47.53628" lon="6.73941">
        <ele>382</ele>
        <time>2014-04-13T09:20:22Z</time>
      </trkpt>
      <trkpt lat="47.53631" lon="6.73933">
        <ele>382</ele>
        <time>2014-04-13T09:20:23Z</time>
      </trkpt>
      <trkpt lat="47.53633" lon="6.73925">
        <ele>381</ele>
        <time>2014-04-13T09:20:24Z</time>
      </trkpt>
      <trkpt lat="47.53635" lon="6.73911">
        <ele>380</ele>
        <time>2014-04-13T09:20:26Z</time>
      </trkpt>
      <trkpt lat="47.53636" lon="6.73903">
        <ele>380</ele>
        <time>2014-04-13T09:20:27Z</time>
      </trkpt>
      <trkpt lat="47.53635" lon="6.73895">
        <ele>380</ele>
        <time>2014-04-13T09:20:28Z</time>
      </trkpt>
      <trkpt lat="47.53634" lon="6.73888">
        <ele>379</ele>
        <time>2014-04-13T09:20:29Z</time>
      </trkpt>
      <trkpt lat="47.53632" lon="6.73879">
        <ele>379</ele>
        <time>2014-04-13T09:20:30Z</time>
      </trkpt>
      <trkpt lat="47.53625" lon="6.73861">
        <ele>379</ele>
        <time>2014-04-13T09:20:32Z</time>
      </trkpt>
      <trkpt lat="47.53621" lon="6.73851">
        <ele>379</ele>
        <time>2014-04-13T09:20:33Z</time>
      </trkpt>
      <trkpt lat="47.53608" lon="6.73811">
        <ele>379</ele>
        <time>2014-04-13T09:20:37Z</time>
      </trkpt>
      <trkpt lat="47.536" lon="6.7379">
        <ele>379</ele>
        <time>2014-04-13T09:20:39Z</time>
      </trkpt>
      <trkpt lat="47.53597" lon="6.73778">
        <ele>378</ele>
        <time>2014-04-13T09:20:40Z</time>
      </trkpt>
      <trkpt lat="47.53594" lon="6.73766">
        <ele>378</ele>
        <time>2014-04-13T09:20:41Z</time>
      </trkpt>
      <trkpt lat="47.53591" lon="6.73754">
        <ele>377</ele>
        <time>2014-04-13T09:20:42Z</time>
      </trkpt>
      <trkpt lat="47.53589" lon="6.73741">
        <ele>377</ele>
        <time>2014-04-13T09:20:43Z</time>
      </trkpt>
      <trkpt lat="47.53588" lon="6.73728">
        <ele>377</ele>
        <time>2014-04-13T09:20:44Z</time>
      </trkpt>
      <trkpt lat="47.53588" lon="6.73714">
        <ele>377</ele>
        <time>2014-04-13T09:20:45Z</time>
      </trkpt>
      <trkpt lat="47.53588" lon="6.73686">
        <ele>376</ele>
        <time>2014-04-13T09:20:47Z</time>
      </trkpt>
      <trkpt lat="47.53588" lon="6.73672">
        <ele>376</ele>
        <time>2014-04-13T09:20:48Z</time>
      </trkpt>
      <trkpt lat="47.53589" lon="6.73657">
        <ele>375</ele>
        <time>2014-04-13T09:20:49Z</time>
      </trkpt>
      <trkpt lat="47.53589" lon="6.73642">
        <ele>375</ele>
        <time>2014-04-13T09:20:50Z</time>
      </trkpt>
      <trkpt lat="47.5359" lon="6.73627">
        <ele>375</ele>
        <time>2014-04-13T09:20:51Z</time>
      </trkpt>
      <trkpt lat="47.53589" lon="6.73574">
        <ele>374</ele>
        <time>2014-04-13T09:20:55Z</time>
      </trkpt>
      <trkpt lat="47.53588" lon="6.73561">
        <ele>374</ele>
        <time>2014-04-13T09:20:56Z</time>
      </trkpt>
      <trkpt lat="47.53587" lon="6.73548">
        <ele>373</ele>
        <time>2014-04-13T09:20:57Z</time>
      </trkpt>
      <trkpt lat="47.53585" lon="6.73536">
        <ele>373</ele>
        <time>2014-04-13T09:20:58Z</time>
      </trkpt>
      <trkpt lat="47.53582" lon="6.73523">
        <ele>372</ele>
        <time>2014-04-13T09:20:59Z</time>
      </trkpt>
      <trkpt lat="47.5358" lon="6.73511">
        <ele>372</ele>
        <time>2014-04-13T09:21:00Z</time>
      </trkpt>
      <trkpt lat="47.53569" lon="6.73456">
        <ele>372</ele>
        <time>2014-04-13T09:21:05Z</time>
      </trkpt>
      <trkpt lat="47.53568" lon="6.73448">
        <ele>372</ele>
        <time>2014-04-13T09:21:06Z</time>
      </trkpt>
      <trkpt lat="47.53567" lon="6.7344">
        <ele>372</ele>
        <time>2014-04-13T09:21:07Z</time>
      </trkpt>
      <trkpt lat="47.53566" lon="6.73432">
        <ele>371</ele>
        <time>2014-04-13T09:21:08Z</time>
      </trkpt>
      <trkpt lat="47.53566" lon="6.73423">
        <ele>371</ele>
        <time>2014-04-13T09:21:09Z</time>
      </trkpt>
      <trkpt lat="47.53565" lon="6.73414">
        <ele>370</ele>
        <time>2014-04-13T09:21:10Z</time>
      </trkpt>
      <trkpt lat="47.53564" lon="6.73357">
        <ele>370</ele>
        <time>2014-04-13T09:21:17Z</time>
      </trkpt>
      <trkpt lat="47.53563" lon="6.73311">
        <ele>370</ele>
        <time>2014-04-13T09:21:22Z</time>
      </trkpt>
      <trkpt lat="47.53563" lon="6.73289">
        <ele>370</ele>
        <time>2014-04-13T09:21:24Z</time>
      </trkpt>
      <trkpt lat="47.53562" lon="6.73278">
        <ele>369</ele>
        <time>2014-04-13T09:21:25Z</time>
      </trkpt>
      <trkpt lat="47.53562" lon="6.73266">
        <ele>369</ele>
        <time>2014-04-13T09:21:26Z</time>
      </trkpt>
      <trkpt lat="47.53562" lon="6.73253">
        <ele>369</ele>
        <time>2014-04-13T09:21:27Z</time>
      </trkpt>
      <trkpt lat="47.53562" lon="6.73241">
        <ele>368</ele>
        <time>2014-04-13T09:21:28Z</time>
      </trkpt>
      <trkpt lat="47.53561" lon="6.73216">
        <ele>368</ele>
        <time>2014-04-13T09:21:30Z</time>
      </trkpt>
      <trkpt lat="47.5356" lon="6.73204">
        <ele>367</ele>
        <time>2014-04-13T09:21:31Z</time>
      </trkpt>
      <trkpt lat="47.53559" lon="6.7319">
        <ele>367</ele>
        <time>2014-04-13T09:21:32Z</time>
      </trkpt>
      <trkpt lat="47.53559" lon="6.73177">
        <ele>366</ele>
        <time>2014-04-13T09:21:33Z</time>
      </trkpt>
      <trkpt lat="47.53558" lon="6.73165">
        <ele>366</ele>
        <time>2014-04-13T09:21:34Z</time>
      </trkpt>
      <trkpt lat="47.53556" lon="6.73129">
        <ele>366</ele>
        <time>2014-04-13T09:21:37Z</time>
      </trkpt>
      <trkpt lat="47.53555" lon="6.73117">
        <ele>365</ele>
        <time>2014-04-13T09:21:38Z</time>
      </trkpt>
      <trkpt lat="47.53553" lon="6.73105">
        <ele>365</ele>
        <time>2014-04-13T09:21:39Z</time>
      </trkpt>
      <trkpt lat="47.53552" lon="6.73092">
        <ele>364</ele>
        <time>2014-04-13T09:21:40Z</time>
      </trkpt>
      <trkpt lat="47.53551" lon="6.73079">
        <ele>364</ele>
        <time>2014-04-13T09:21:41Z</time>
      </trkpt>
      <trkpt lat="47.53547" lon="6.73055">
        <ele>364</ele>
        <time>2014-04-13T09:21:43Z</time>
      </trkpt>
      <trkpt lat="47.53546" lon="6.73043">
        <ele>363</ele>
        <time>2014-04-13T09:21:44Z</time>
      </trkpt>
      <trkpt lat="47.53544" lon="6.73032">
        <ele>363</ele>
        <time>2014-04-13T09:21:45Z</time>
      </trkpt>
      <trkpt lat="47.53543" lon="6.73021">
        <ele>362</ele>
        <time>2014-04-13T09:21:46Z</time>
      </trkpt>
      <trkpt lat="47.53541" lon="6.73011">
        <ele>362</ele>
        <time>2014-04-13T09:21:47Z</time>
      </trkpt>
      <trkpt lat="47.53539" lon="6.73">
        <ele>361</ele>
        <time>2014-04-13T09:21:48Z</time>
      </trkpt>
      <trkpt lat="47.53536" lon="6.72989">
        <ele>361</ele>
        <time>2014-04-13T09:21:49Z</time>
      </trkpt>
      <trkpt lat="47.53521" lon="6.7292">
        <ele>361</ele>
        <time>2014-04-13T09:21:55Z</time>
      </trkpt>
      <trkpt lat="47.5352" lon="6.72907">
        <ele>360</ele>
        <time>2014-04-13T09:21:56Z</time>
      </trkpt>
      <trkpt lat="47.53518" lon="6.72895">
        <ele>360</ele>
        <time>2014-04-13T09:21:57Z</time>
      </trkpt>
      <trkpt lat="47.53516" lon="6.72882">
        <ele>360</ele>
        <time>2014-04-13T09:21:58Z</time>
      </trkpt>
      <trkpt lat="47.53515" lon="6.7287">
        <ele>359</ele>
        <time>2014-04-13T09:21:59Z</time>
      </trkpt>
      <trkpt lat="47.53509" lon="6.72834">
        <ele>359</ele>
        <time>2014-04-13T09:22:02Z</time>
      </trkpt>
      <trkpt lat="47.53504" lon="6.72809">
        <ele>359</ele>
        <time>2014-04-13T09:22:04Z</time>
      </trkpt>
      <trkpt lat="47.53502" lon="6.72797">
        <ele>358</ele>
        <time>2014-04-13T09:22:05Z</time>
      </trkpt>
      <trkpt lat="47.535" lon="6.72785">
        <ele>358</ele>
        <time>2014-04-13T09:22:06Z</time>
      </trkpt>
      <trkpt lat="47.53498" lon="6.72774">
        <ele>357</ele>
        <time>2014-04-13T09:22:07Z</time>
      </trkpt>
      <trkpt lat="47.53497" lon="6.72764">
        <ele>357</ele>
        <time>2014-04-13T09:22:08Z</time>
      </trkpt>
      <trkpt lat="47.53496" lon="6.72756">
        <ele>357</ele>
        <time>2014-04-13T09:22:09Z</time>
      </trkpt>
      <trkpt lat="47.53494" lon="6.72749">
        <ele>356</ele>
        <time>2014-04-13T09:22:10Z</time>
      </trkpt>
      <trkpt lat="47.53494" lon="6.72745">
        <ele>356</ele>
        <time>2014-04-13T09:22:11Z</time>
      </trkpt>
      <trkpt lat="47.53493" lon="6.72745">
        <ele>355</ele>
        <time>2014-04-13T09:22:12Z</time>
      </trkpt>
      <trkpt lat="47.53487" lon="6.72746">
        <ele>355</ele>
        <time>2014-04-13T09:22:13Z</time>
      </trkpt>
      <trkpt lat="47.53483" lon="6.72749">
        <ele>355</ele>
        <time>2014-04-13T09:22:14Z</time>
      </trkpt>
      <trkpt lat="47.53473" lon="6.72755">
        <ele>354</ele>
        <time>2014-04-13T09:22:16Z</time>
      </trkpt>
      <trkpt lat="47.53467" lon="6.72756">
        <ele>354</ele>
        <time>2014-04-13T09:22:17Z</time>
      </trkpt>
      <trkpt lat="47.53462" lon="6.72759">
        <ele>353</ele>
        <time>2014-04-13T09:22:18Z</time>
      </trkpt>
      <trkpt lat="47.53458" lon="6.72764">
        <ele>353</ele>
        <time>2014-04-13T09:22:19Z</time>
      </trkpt>
      <trkpt lat="47.53453" lon="6.72769">
        <ele>353</ele>
        <time>2014-04-13T09:22:20Z</time>
      </trkpt>
      <trkpt lat="47.53446" lon="6.72776">
        <ele>353</ele>
        <time>2014-04-13T09:22:22Z</time>
      </trkpt>
      <trkpt lat="47.53442" lon="6.72779">
        <ele>353</ele>
        <time>2014-04-13T09:22:23Z</time>
      </trkpt>
      <trkpt lat="47.5344" lon="6.72782">
        <ele>353</ele>
        <time>2014-04-13T09:22:24Z</time>
      </trkpt>
      <trkpt lat="47.53437" lon="6.72784">
        <ele>354</ele>
        <time>2014-04-13T09:22:25Z</time>
      </trkpt>
      <trkpt lat="47.53434" lon="6.72787">
        <ele>354</ele>
        <time>2014-04-13T09:22:26Z</time>
      </trkpt>
      <trkpt lat="47.53431" lon="6.7279">
        <ele>355</ele>
        <time>2014-04-13T09:22:27Z</time>
      </trkpt>
      <trkpt lat="47.53429" lon="6.72791">
        <ele>355</ele>
        <time>2014-04-13T09:22:28Z</time>
      </trkpt>
      <trkpt lat="47.53426" lon="6.72793">
        <ele>356</ele>
        <time>2014-04-13T09:22:29Z</time>
      </trkpt>
      <trkpt lat="47.53424" lon="6.72794">
        <ele>356</ele>
        <time>2014-04-13T09:22:30Z</time>
      </trkpt>
      <trkpt lat="47.53422" lon="6.72797">
        <ele>357</ele>
        <time>2014-04-13T09:22:31Z</time>
      </trkpt>
      <trkpt lat="47.53419" lon="6.72802">
        <ele>357</ele>
        <time>2014-04-13T09:22:33Z</time>
      </trkpt>
      <trkpt lat="47.53417" lon="6.72804">
        <ele>358</ele>
        <time>2014-04-13T09:22:34Z</time>
      </trkpt>
      <trkpt lat="47.53415" lon="6.72806">
        <ele>358</ele>
        <time>2014-04-13T09:22:35Z</time>
      </trkpt>
      <trkpt lat="47.53414" lon="6.72808">
        <ele>359</ele>
        <time>2014-04-13T09:22:36Z</time>
      </trkpt>
      <trkpt lat="47.53413" lon="6.72811">
        <ele>359</ele>
        <time>2014-04-13T09:22:37Z</time>
      </trkpt>
      <trkpt lat="47.53409" lon="6.72817">
        <ele>359</ele>
        <time>2014-04-13T09:22:39Z</time>
      </trkpt>
      <trkpt lat="47.53407" lon="6.7282">
        <ele>360</ele>
        <time>2014-04-13T09:22:40Z</time>
      </trkpt>
      <trkpt lat="47.53405" lon="6.72823">
        <ele>360</ele>
        <time>2014-04-13T09:22:41Z</time>
      </trkpt>
      <trkpt lat="47.53403" lon="6.72826">
        <ele>361</ele>
        <time>2014-04-13T09:22:42Z</time>
      </trkpt>
      <trkpt lat="47.53402" lon="6.72829">
        <ele>361</ele>
        <time>2014-04-13T09:22:43Z</time>
      </trkpt>
      <trkpt lat="47.53398" lon="6.72836">
        <ele>361</ele>
        <time>2014-04-13T09:22:45Z</time>
      </trkpt>
      <trkpt lat="47.53396" lon="6.7284">
        <ele>362</ele>
        <time>2014-04-13T09:22:46Z</time>
      </trkpt>
      <trkpt lat="47.53395" lon="6.72844">
        <ele>362</ele>
        <time>2014-04-13T09:22:47Z</time>
      </trkpt>
      <trkpt lat="47.53394" lon="6.72847">
        <ele>363</ele>
        <time>2014-04-13T09:22:48Z</time>
      </trkpt>
      <trkpt lat="47.53392" lon="6.7285">
        <ele>363</ele>
        <time>2014-04-13T09:22:49Z</time>
      </trkpt>
      <trkpt lat="47.53387" lon="6.72864">
        <ele>364</ele>
        <time>2014-04-13T09:22:53Z</time>
      </trkpt>
      <trkpt lat="47.53385" lon="6.72866">
        <ele>364</ele>
        <time>2014-04-13T09:22:54Z</time>
      </trkpt>
      <trkpt lat="47.53383" lon="6.72869">
        <ele>365</ele>
        <time>2014-04-13T09:22:55Z</time>
      </trkpt>
      <trkpt lat="47.53382" lon="6.72874">
        <ele>365</ele>
        <time>2014-04-13T09:22:56Z</time>
      </trkpt>
      <trkpt lat="47.53379" lon="6.72878">
        <ele>366</ele>
        <time>2014-04-13T09:22:57Z</time>
      </trkpt>
      <trkpt lat="47.53364" lon="6.72899">
        <ele>366</ele>
        <time>2014-04-13T09:23:03Z</time>
      </trkpt>
      <trkpt lat="47.53345" lon="6.72916">
        <ele>366</ele>
        <time>2014-04-13T09:23:09Z</time>
      </trkpt>
      <trkpt lat="47.5333" lon="6.7293">
        <ele>366</ele>
        <time>2014-04-13T09:23:14Z</time>
      </trkpt>
      <trkpt lat="47.53312" lon="6.72946">
        <ele>366</ele>
        <time>2014-04-13T09:23:19Z</time>
      </trkpt>
      <trkpt lat="47.53309" lon="6.72949">
        <ele>366</ele>
        <time>2014-04-13T09:23:20Z</time>
      </trkpt>
      <trkpt lat="47.53293" lon="6.72963">
        <ele>366</ele>
        <time>2014-04-13T09:23:24Z</time>
      </trkpt>
      <trkpt lat="47.53289" lon="6.72966">
        <ele>366</ele>
        <time>2014-04-13T09:23:25Z</time>
      </trkpt>
      <trkpt lat="47.53286" lon="6.72969">
        <ele>367</ele>
        <time>2014-04-13T09:23:26Z</time>
      </trkpt>
      <trkpt lat="47.53283" lon="6.72971">
        <ele>367</ele>
        <time>2014-04-13T09:23:27Z</time>
      </trkpt>
      <trkpt lat="47.5328" lon="6.72973">
        <ele>368</ele>
        <time>2014-04-13T09:23:28Z</time>
      </trkpt>
      <trkpt lat="47.53261" lon="6.72985">
        <ele>368</ele>
        <time>2014-04-13T09:23:34Z</time>
      </trkpt>
      <trkpt lat="47.53253" lon="6.72989">
        <ele>368</ele>
        <time>2014-04-13T09:23:36Z</time>
      </trkpt>
      <trkpt lat="47.5325" lon="6.72992">
        <ele>368</ele>
        <time>2014-04-13T09:23:37Z</time>
      </trkpt>
      <trkpt lat="47.53247" lon="6.72994">
        <ele>369</ele>
        <time>2014-04-13T09:23:38Z</time>
      </trkpt>
      <trkpt lat="47.53245" lon="6.72995">
        <ele>369</ele>
        <time>2014-04-13T09:23:39Z</time>
      </trkpt>
      <trkpt lat="47.53242" lon="6.72997">
        <ele>370</ele>
        <time>2014-04-13T09:23:40Z</time>
      </trkpt>
      <trkpt lat="47.53239" lon="6.72999">
        <ele>370</ele>
        <time>2014-04-13T09:23:41Z</time>
      </trkpt>
      <trkpt lat="47.53234" lon="6.73003">
        <ele>370</ele>
        <time>2014-04-13T09:23:43Z</time>
      </trkpt>
      <trkpt lat="47.53231" lon="6.73005">
        <ele>371</ele>
        <time>2014-04-13T09:23:44Z</time>
      </trkpt>
      <trkpt lat="47.53228" lon="6.73007">
        <ele>371</ele>
        <time>2014-04-13T09:23:45Z</time>
      </trkpt>
      <trkpt lat="47.53225" lon="6.73009">
        <ele>371</ele>
        <time>2014-04-13T09:23:46Z</time>
      </trkpt>
      <trkpt lat="47.53223" lon="6.73011">
        <ele>372</ele>
        <time>2014-04-13T09:23:47Z</time>
      </trkpt>
      <trkpt lat="47.53218" lon="6.73015">
        <ele>372</ele>
        <time>2014-04-13T09:23:49Z</time>
      </trkpt>
      <trkpt lat="47.53208" lon="6.73024">
        <ele>372</ele>
        <time>2014-04-13T09:23:54Z</time>
      </trkpt>
      <trkpt lat="47.53206" lon="6.73026">
        <ele>373</ele>
        <time>2014-04-13T09:23:55Z</time>
      </trkpt>
      <trkpt lat="47.53204" lon="6.73029">
        <ele>373</ele>
        <time>2014-04-13T09:23:56Z</time>
      </trkpt>
      <trkpt lat="47.53202" lon="6.7303">
        <ele>374</ele>
        <time>2014-04-13T09:23:57Z</time>
      </trkpt>
      <trkpt lat="47.53186" lon="6.73042">
        <ele>374</ele>
        <time>2014-04-13T09:24:03Z</time>
      </trkpt>
      <trkpt lat="47.53179" lon="6.7305">
        <ele>374</ele>
        <time>2014-04-13T09:24:06Z</time>
      </trkpt>
      <trkpt lat="47.53177" lon="6.73053">
        <ele>375</ele>
        <time>2014-04-13T09:24:07Z</time>
      </trkpt>
      <trkpt lat="47.53174" lon="6.73056">
        <ele>375</ele>
        <time>2014-04-13T09:24:08Z</time>
      </trkpt>
      <trkpt lat="47.53172" lon="6.73059">
        <ele>376</ele>
        <time>2014-04-13T09:24:09Z</time>
      </trkpt>
      <trkpt lat="47.5317" lon="6.73062">
        <ele>376</ele>
        <time>2014-04-13T09:24:10Z</time>
      </trkpt>
      <trkpt lat="47.5315" lon="6.7309">
        <ele>376</ele>
        <time>2014-04-13T09:24:19Z</time>
      </trkpt>
      <trkpt lat="47.53148" lon="6.73094">
        <ele>377</ele>
        <time>2014-04-13T09:24:20Z</time>
      </trkpt>
      <trkpt lat="47.53145" lon="6.73097">
        <ele>377</ele>
        <time>2014-04-13T09:24:21Z</time>
      </trkpt>
      <trkpt lat="47.53143" lon="6.731">
        <ele>378</ele>
        <time>2014-04-13T09:24:22Z</time>
      </trkpt>
      <trkpt lat="47.5314" lon="6.73104">
        <ele>378</ele>
        <time>2014-04-13T09:24:23Z</time>
      </trkpt>
      <trkpt lat="47.53136" lon="6.73112">
        <ele>378</ele>
        <time>2014-04-13T09:24:25Z</time>
      </trkpt>
      <trkpt lat="47.53119" lon="6.73138">
        <ele>378</ele>
        <time>2014-04-13T09:24:31Z</time>
      </trkpt>
      <trkpt lat="47.53112" lon="6.73154">
        <ele>379</ele>
        <time>2014-04-13T09:24:34Z</time>
      </trkpt>
      <trkpt lat="47.53109" lon="6.73159">
        <ele>379</ele>
        <time>2014-04-13T09:24:35Z</time>
      </trkpt>
      <trkpt lat="47.53106" lon="6.73165">
        <ele>380</ele>
        <time>2014-04-13T09:24:36Z</time>
      </trkpt>
      <trkpt lat="47.53103" lon="6.73171">
        <ele>380</ele>
        <time>2014-04-13T09:24:37Z</time>
      </trkpt>
      <trkpt lat="47.531" lon="6.73176">
        <ele>380</ele>
        <time>2014-04-13T09:24:38Z</time>
      </trkpt>
      <trkpt lat="47.53082" lon="6.73211">
        <ele>380</ele>
        <time>2014-04-13T09:24:44Z</time>
      </trkpt>
      <trkpt lat="47.5306" lon="6.73253">
        <ele>380</ele>
        <time>2014-04-13T09:24:50Z</time>
      </trkpt>
      <trkpt lat="47.53036" lon="6.73294">
        <ele>380</ele>
        <time>2014-04-13T09:24:56Z</time>
      </trkpt>
      <trkpt lat="47.53012" lon="6.73337">
        <ele>380</ele>
        <time>2014-04-13T09:25:03Z</time>
      </trkpt>
      <trkpt lat="47.52985" lon="6.73379">
        <ele>380</ele>
        <time>2014-04-13T09:25:10Z</time>
      </trkpt>
      <trkpt lat="47.52981" lon="6.73384">
        <ele>380</ele>
        <time>2014-04-13T09:25:11Z</time>
      </trkpt>
      <trkpt lat="47.52968" lon="6.73384">
        <ele>380</ele>
        <time>2014-04-13T09:25:13Z</time>
      </trkpt>
      <trkpt lat="47.5296" lon="6.73371">
        <ele>380</ele>
        <time>2014-04-13T09:25:15Z</time>
      </trkpt>
      <trkpt lat="47.52956" lon="6.73364">
        <ele>380</ele>
        <time>2014-04-13T09:25:16Z</time>
      </trkpt>
      <trkpt lat="47.52952" lon="6.73357">
        <ele>380</ele>
        <time>2014-04-13T09:25:17Z</time>
      </trkpt>
      <trkpt lat="47.5294" lon="6.73331">
        <ele>380</ele>
        <time>2014-04-13T09:25:20Z</time>
      </trkpt>
      <trkpt lat="47.5292" lon="6.73275">
        <ele>380</ele>
        <time>2014-04-13T09:25:25Z</time>
      </trkpt>
      <trkpt lat="47.52916" lon="6.73262">
        <ele>379</ele>
        <time>2014-04-13T09:25:26Z</time>
      </trkpt>
      <trkpt lat="47.52912" lon="6.73248">
        <ele>379</ele>
        <time>2014-04-13T09:25:27Z</time>
      </trkpt>
      <trkpt lat="47.52908" lon="6.73233">
        <ele>378</ele>
        <time>2014-04-13T09:25:28Z</time>
      </trkpt>
      <trkpt lat="47.52904" lon="6.73218">
        <ele>377</ele>
        <time>2014-04-13T09:25:29Z</time>
      </trkpt>
      <trkpt lat="47.529" lon="6.73204">
        <ele>377</ele>
        <time>2014-04-13T09:25:30Z</time>
      </trkpt>
      <trkpt lat="47.52896" lon="6.73189">
        <ele>376</ele>
        <time>2014-04-13T09:25:31Z</time>
      </trkpt>
      <trkpt lat="47.52892" lon="6.73175">
        <ele>375</ele>
        <time>2014-04-13T09:25:32Z</time>
      </trkpt>
      <trkpt lat="47.52888" lon="6.7316">
        <ele>374</ele>
        <time>2014-04-13T09:25:33Z</time>
      </trkpt>
      <trkpt lat="47.52884" lon="6.73145">
        <ele>373</ele>
        <time>2014-04-13T09:25:34Z</time>
      </trkpt>
      <trkpt lat="47.52879" lon="6.73129">
        <ele>373</ele>
        <time>2014-04-13T09:25:35Z</time>
      </trkpt>
      <trkpt lat="47.52876" lon="6.73115">
        <ele>371</ele>
        <time>2014-04-13T09:25:36Z</time>
      </trkpt>
      <trkpt lat="47.52872" lon="6.73102">
        <ele>370</ele>
        <time>2014-04-13T09:25:37Z</time>
      </trkpt>
      <trkpt lat="47.52868" lon="6.73091">
        <ele>369</ele>
        <time>2014-04-13T09:25:38Z</time>
      </trkpt>
      <trkpt lat="47.52865" lon="6.73082">
        <ele>368</ele>
        <time>2014-04-13T09:25:39Z</time>
      </trkpt>
      <trkpt lat="47.52861" lon="6.73075">
        <ele>367</ele>
        <time>2014-04-13T09:25:40Z</time>
      </trkpt>
      <trkpt lat="47.52858" lon="6.73069">
        <ele>366</ele>
        <time>2014-04-13T09:25:41Z</time>
      </trkpt>
      <trkpt lat="47.52855" lon="6.73067">
        <ele>366</ele>
        <time>2014-04-13T09:25:42Z</time>
      </trkpt>
      <trkpt lat="47.52851" lon="6.73066">
        <ele>365</ele>
        <time>2014-04-13T09:25:43Z</time>
      </trkpt>
      <trkpt lat="47.52847" lon="6.73069">
        <ele>365</ele>
        <time>2014-04-13T09:25:44Z</time>
      </trkpt>
      <trkpt lat="47.52842" lon="6.73074">
        <ele>364</ele>
        <time>2014-04-13T09:25:45Z</time>
      </trkpt>
      <trkpt lat="47.52836" lon="6.73078">
        <ele>364</ele>
        <time>2014-04-13T09:25:46Z</time>
      </trkpt>
      <trkpt lat="47.5283" lon="6.73082">
        <ele>363</ele>
        <time>2014-04-13T09:25:47Z</time>
      </trkpt>
      <trkpt lat="47.52822" lon="6.73084">
        <ele>363</ele>
        <time>2014-04-13T09:25:48Z</time>
      </trkpt>
      <trkpt lat="47.52814" lon="6.73086">
        <ele>363</ele>
        <time>2014-04-13T09:25:49Z</time>
      </trkpt>
      <trkpt lat="47.52807" lon="6.73088">
        <ele>363</ele>
        <time>2014-04-13T09:25:50Z</time>
      </trkpt>
      <trkpt lat="47.52793" lon="6.7309">
        <ele>363</ele>
        <time>2014-04-13T09:25:52Z</time>
      </trkpt>
      <trkpt lat="47.52776" lon="6.73089">
        <ele>363</ele>
        <time>2014-04-13T09:25:54Z</time>
      </trkpt>
      <trkpt lat="47.52767" lon="6.7309">
        <ele>362</ele>
        <time>2014-04-13T09:25:55Z</time>
      </trkpt>
      <trkpt lat="47.52757" lon="6.73091">
        <ele>362</ele>
        <time>2014-04-13T09:25:56Z</time>
      </trkpt>
      <trkpt lat="47.52747" lon="6.73091">
        <ele>361</ele>
        <time>2014-04-13T09:25:57Z</time>
      </trkpt>
      <trkpt lat="47.52737" lon="6.7309">
        <ele>361</ele>
        <time>2014-04-13T09:25:58Z</time>
      </trkpt>
      <trkpt lat="47.52727" lon="6.73091">
        <ele>360</ele>
        <time>2014-04-13T09:25:59Z</time>
      </trkpt>
      <trkpt lat="47.52716" lon="6.73091">
        <ele>360</ele>
        <time>2014-04-13T09:26:00Z</time>
      </trkpt>
      <trkpt lat="47.52705" lon="6.73091">
        <ele>358</ele>
        <time>2014-04-13T09:26:01Z</time>
      </trkpt>
      <trkpt lat="47.52694" lon="6.73091">
        <ele>358</ele>
        <time>2014-04-13T09:26:02Z</time>
      </trkpt>
      <trkpt lat="47.52684" lon="6.73091">
        <ele>357</ele>
        <time>2014-04-13T09:26:03Z</time>
      </trkpt>
      <trkpt lat="47.52673" lon="6.73091">
        <ele>356</ele>
        <time>2014-04-13T09:26:04Z</time>
      </trkpt>
      <trkpt lat="47.52664" lon="6.73092">
        <ele>355</ele>
        <time>2014-04-13T09:26:05Z</time>
      </trkpt>
      <trkpt lat="47.52657" lon="6.73091">
        <ele>355</ele>
        <time>2014-04-13T09:26:06Z</time>
      </trkpt>
      <trkpt lat="47.52652" lon="6.73089">
        <ele>354</ele>
        <time>2014-04-13T09:26:07Z</time>
      </trkpt>
      <trkpt lat="47.52648" lon="6.73084">
        <ele>353</ele>
        <time>2014-04-13T09:26:08Z</time>
      </trkpt>
      <trkpt lat="47.52647" lon="6.73075">
        <ele>353</ele>
        <time>2014-04-13T09:26:09Z</time>
      </trkpt>
      <trkpt lat="47.52647" lon="6.73067">
        <ele>352</ele>
        <time>2014-04-13T09:26:10Z</time>
      </trkpt>
      <trkpt lat="47.52649" lon="6.73058">
        <ele>351</ele>
        <time>2014-04-13T09:26:11Z</time>
      </trkpt>
      <trkpt lat="47.5265" lon="6.73049">
        <ele>351</ele>
        <time>2014-04-13T09:26:12Z</time>
      </trkpt>
      <trkpt lat="47.52651" lon="6.73039">
        <ele>351</ele>
        <time>2014-04-13T09:26:13Z</time>
      </trkpt>
      <trkpt lat="47.52658" lon="6.72998">
        <ele>351</ele>
        <time>2014-04-13T09:26:17Z</time>
      </trkpt>
      <trkpt lat="47.5266" lon="6.72993">
        <ele>351</ele>
        <time>2014-04-13T09:26:18Z</time>
      </trkpt>
      <trkpt lat="47.52663" lon="6.72989">
        <ele>350</ele>
        <time>2014-04-13T09:26:19Z</time>
      </trkpt>
      <trkpt lat="47.52665" lon="6.72985">
        <ele>350</ele>
        <time>2014-04-13T09:26:20Z</time>
      </trkpt>
      <trkpt lat="47.52668" lon="6.72984">
        <ele>349</ele>
        <time>2014-04-13T09:26:21Z</time>
      </trkpt>
      <trkpt lat="47.52673" lon="6.72984">
        <ele>349</ele>
        <time>2014-04-13T09:26:22Z</time>
      </trkpt>
      <trkpt lat="47.52677" lon="6.72982">
        <ele>348</ele>
        <time>2014-04-13T09:26:23Z</time>
      </trkpt>
      <trkpt lat="47.52683" lon="6.72981">
        <ele>348</ele>
        <time>2014-04-13T09:26:24Z</time>
      </trkpt>
      <trkpt lat="47.52687" lon="6.72978">
        <ele>347</ele>
        <time>2014-04-13T09:26:25Z</time>
      </trkpt>
      <trkpt lat="47.52693" lon="6.72976">
        <ele>346</ele>
        <time>2014-04-13T09:26:26Z</time>
      </trkpt>
      <trkpt lat="47.52698" lon="6.72974">
        <ele>346</ele>
        <time>2014-04-13T09:26:27Z</time>
      </trkpt>
      <trkpt lat="47.52702" lon="6.72971">
        <ele>345</ele>
        <time>2014-04-13T09:26:28Z</time>
      </trkpt>
      <trkpt lat="47.52707" lon="6.72969">
        <ele>344</ele>
        <time>2014-04-13T09:26:29Z</time>
      </trkpt>
      <trkpt lat="47.52712" lon="6.72965">
        <ele>344</ele>
        <time>2014-04-13T09:26:30Z</time>
      </trkpt>
      <trkpt lat="47.52716" lon="6.72961">
        <ele>343</ele>
        <time>2014-04-13T09:26:31Z</time>
      </trkpt>
      <trkpt lat="47.52718" lon="6.72954">
        <ele>342</ele>
        <time>2014-04-13T09:26:32Z</time>
      </trkpt>
      <trkpt lat="47.52718" lon="6.72946">
        <ele>341</ele>
        <time>2014-04-13T09:26:33Z</time>
      </trkpt>
      <trkpt lat="47.52715" lon="6.72937">
        <ele>341</ele>
        <time>2014-04-13T09:26:34Z</time>
      </trkpt>
      <trkpt lat="47.52712" lon="6.72928">
        <ele>340</ele>
        <time>2014-04-13T09:26:35Z</time>
      </trkpt>
      <trkpt lat="47.52709" lon="6.72919">
        <ele>340</ele>
        <time>2014-04-13T09:26:36Z</time>
      </trkpt>
      <trkpt lat="47.52706" lon="6.72911">
        <ele>339</ele>
        <time>2014-04-13T09:26:37Z</time>
      </trkpt>
      <trkpt lat="47.52703" lon="6.72902">
        <ele>338</ele>
        <time>2014-04-13T09:26:38Z</time>
      </trkpt>
      <trkpt lat="47.527" lon="6.72893">
        <ele>338</ele>
        <time>2014-04-13T09:26:39Z</time>
      </trkpt>
      <trkpt lat="47.52696" lon="6.72866">
        <ele>338</ele>
        <time>2014-04-13T09:26:42Z</time>
      </trkpt>
      <trkpt lat="47.52694" lon="6.72857">
        <ele>338</ele>
        <time>2014-04-13T09:26:43Z</time>
      </trkpt>
      <trkpt lat="47.52688" lon="6.72845">
        <ele>338</ele>
        <time>2014-04-13T09:26:45Z</time>
      </trkpt>
      <trkpt lat="47.52687" lon="6.72845">
        <ele>338</ele>
        <time>2014-04-13T09:26:46Z</time>
      </trkpt>
      <trkpt lat="47.52688" lon="6.72846">
        <ele>338</ele>
        <time>2014-04-13T09:26:47Z</time>
      </trkpt>
      <trkpt lat="47.52684" lon="6.72843">
        <ele>338</ele>
        <time>2014-04-13T09:26:51Z</time>
      </trkpt>
      <trkpt lat="47.52679" lon="6.72839">
        <ele>338</ele>
        <time>2014-04-13T09:26:54Z</time>
      </trkpt>
      <trkpt lat="47.5267" lon="6.72821">
        <ele>338</ele>
        <time>2014-04-13T09:26:58Z</time>
      </trkpt>
      <trkpt lat="47.52667" lon="6.72815">
        <ele>339</ele>
        <time>2014-04-13T09:26:59Z</time>
      </trkpt>
      <trkpt lat="47.52665" lon="6.72809">
        <ele>339</ele>
        <time>2014-04-13T09:27:00Z</time>
      </trkpt>
      <trkpt lat="47.52663" lon="6.72803">
        <ele>339</ele>
        <time>2014-04-13T09:27:01Z</time>
      </trkpt>
      <trkpt lat="47.52662" lon="6.72796">
        <ele>340</ele>
        <time>2014-04-13T09:27:02Z</time>
      </trkpt>
      <trkpt lat="47.52659" lon="6.72791">
        <ele>340</ele>
        <time>2014-04-13T09:27:03Z</time>
      </trkpt>
      <trkpt lat="47.52654" lon="6.72783">
        <ele>340</ele>
        <time>2014-04-13T09:27:05Z</time>
      </trkpt>
      <trkpt lat="47.52651" lon="6.7278">
        <ele>340</ele>
        <time>2014-04-13T09:27:06Z</time>
      </trkpt>
      <trkpt lat="47.52647" lon="6.72777">
        <ele>341</ele>
        <time>2014-04-13T09:27:07Z</time>
      </trkpt>
      <trkpt lat="47.52644" lon="6.72776">
        <ele>341</ele>
        <time>2014-04-13T09:27:08Z</time>
      </trkpt>
      <trkpt lat="47.5264" lon="6.72774">
        <ele>342</ele>
        <time>2014-04-13T09:27:09Z</time>
      </trkpt>
      <trkpt lat="47.52636" lon="6.72773">
        <ele>342</ele>
        <time>2014-04-13T09:27:10Z</time>
      </trkpt>
      <trkpt lat="47.52632" lon="6.72773">
        <ele>343</ele>
        <time>2014-04-13T09:27:11Z</time>
      </trkpt>
      <trkpt lat="47.52628" lon="6.72772">
        <ele>343</ele>
        <time>2014-04-13T09:27:12Z</time>
      </trkpt>
      <trkpt lat="47.52625" lon="6.72771">
        <ele>344</ele>
        <time>2014-04-13T09:27:13Z</time>
      </trkpt>
      <trkpt lat="47.52622" lon="6.7277">
        <ele>345</ele>
        <time>2014-04-13T09:27:14Z</time>
      </trkpt>
      <trkpt lat="47.52618" lon="6.72769">
        <ele>346</ele>
        <time>2014-04-13T09:27:15Z</time>
      </trkpt>
      <trkpt lat="47.52614" lon="6.72769">
        <ele>346</ele>
        <time>2014-04-13T09:27:16Z</time>
      </trkpt>
      <trkpt lat="47.5261" lon="6.72768">
        <ele>346</ele>
        <time>2014-04-13T09:27:17Z</time>
      </trkpt>
      <trkpt lat="47.52605" lon="6.72768">
        <ele>347</ele>
        <time>2014-04-13T09:27:18Z</time>
      </trkpt>
      <trkpt lat="47.52597" lon="6.72768">
        <ele>347</ele>
        <time>2014-04-13T09:27:20Z</time>
      </trkpt>
      <trkpt lat="47.52593" lon="6.72769">
        <ele>348</ele>
        <time>2014-04-13T09:27:21Z</time>
      </trkpt>
      <trkpt lat="47.52588" lon="6.7277">
        <ele>348</ele>
        <time>2014-04-13T09:27:22Z</time>
      </trkpt>
      <trkpt lat="47.52584" lon="6.72771">
        <ele>349</ele>
        <time>2014-04-13T09:27:23Z</time>
      </trkpt>
      <trkpt lat="47.5258" lon="6.72771">
        <ele>349</ele>
        <time>2014-04-13T09:27:24Z</time>
      </trkpt>
      <trkpt lat="47.52576" lon="6.72772">
        <ele>349</ele>
        <time>2014-04-13T09:27:25Z</time>
      </trkpt>
      <trkpt lat="47.52572" lon="6.72773">
        <ele>350</ele>
        <time>2014-04-13T09:27:26Z</time>
      </trkpt>
      <trkpt lat="47.52567" lon="6.72775">
        <ele>350</ele>
        <time>2014-04-13T09:27:27Z</time>
      </trkpt>
      <trkpt lat="47.52564" lon="6.72776">
        <ele>350</ele>
        <time>2014-04-13T09:27:28Z</time>
      </trkpt>
      <trkpt lat="47.52559" lon="6.72778">
        <ele>351</ele>
        <time>2014-04-13T09:27:29Z</time>
      </trkpt>
      <trkpt lat="47.52555" lon="6.72779">
        <ele>351</ele>
        <time>2014-04-13T09:27:30Z</time>
      </trkpt>
      <trkpt lat="47.52551" lon="6.72782">
        <ele>351</ele>
        <time>2014-04-13T09:27:31Z</time>
      </trkpt>
      <trkpt lat="47.5254" lon="6.72792">
        <ele>351</ele>
        <time>2014-04-13T09:27:33Z</time>
      </trkpt>
      <trkpt lat="47.52533" lon="6.72799">
        <ele>352</ele>
        <time>2014-04-13T09:27:37Z</time>
      </trkpt>
      <trkpt lat="47.5253" lon="6.72803">
        <ele>352</ele>
        <time>2014-04-13T09:27:38Z</time>
      </trkpt>
      <trkpt lat="47.52527" lon="6.72807">
        <ele>353</ele>
        <time>2014-04-13T09:27:39Z</time>
      </trkpt>
      <trkpt lat="47.52524" lon="6.72811">
        <ele>353</ele>
        <time>2014-04-13T09:27:40Z</time>
      </trkpt>
      <trkpt lat="47.52514" lon="6.72823">
        <ele>353</ele>
        <time>2014-04-13T09:27:43Z</time>
      </trkpt>
      <trkpt lat="47.52508" lon="6.72831">
        <ele>354</ele>
        <time>2014-04-13T09:27:45Z</time>
      </trkpt>
      <trkpt lat="47.52505" lon="6.72834">
        <ele>354</ele>
        <time>2014-04-13T09:27:46Z</time>
      </trkpt>
      <trkpt lat="47.52501" lon="6.72837">
        <ele>355</ele>
        <time>2014-04-13T09:27:47Z</time>
      </trkpt>
      <trkpt lat="47.52498" lon="6.7284">
        <ele>355</ele>
        <time>2014-04-13T09:27:48Z</time>
      </trkpt>
      <trkpt lat="47.52493" lon="6.72842">
        <ele>356</ele>
        <time>2014-04-13T09:27:49Z</time>
      </trkpt>
      <trkpt lat="47.52485" lon="6.72847">
        <ele>356</ele>
        <time>2014-04-13T09:27:51Z</time>
      </trkpt>
      <trkpt lat="47.52467" lon="6.72851">
        <ele>356</ele>
        <time>2014-04-13T09:27:55Z</time>
      </trkpt>
      <trkpt lat="47.52438" lon="6.72853">
        <ele>356</ele>
        <time>2014-04-13T09:28:01Z</time>
      </trkpt>
      <trkpt lat="47.52433" lon="6.72853">
        <ele>356</ele>
        <time>2014-04-13T09:28:02Z</time>
      </trkpt>
      <trkpt lat="47.52428" lon="6.72853">
        <ele>357</ele>
        <time>2014-04-13T09:28:03Z</time>
      </trkpt>
      <trkpt lat="47.52423" lon="6.72853">
        <ele>357</ele>
        <time>2014-04-13T09:28:04Z</time>
      </trkpt>
      <trkpt lat="47.52418" lon="6.72853">
        <ele>358</ele>
        <time>2014-04-13T09:28:05Z</time>
      </trkpt>
      <trkpt lat="47.52413" lon="6.72853">
        <ele>358</ele>
        <time>2014-04-13T09:28:06Z</time>
      </trkpt>
      <trkpt lat="47.52395" lon="6.72853">
        <ele>358</ele>
        <time>2014-04-13T09:28:10Z</time>
      </trkpt>
      <trkpt lat="47.52385" lon="6.72853">
        <ele>358</ele>
        <time>2014-04-13T09:28:12Z</time>
      </trkpt>
      <trkpt lat="47.52382" lon="6.72853">
        <ele>358</ele>
        <time>2014-04-13T09:28:13Z</time>
      </trkpt>
      <trkpt lat="47.52373" lon="6.72853">
        <ele>358</ele>
        <time>2014-04-13T09:28:17Z</time>
      </trkpt>
      <trkpt lat="47.52372" lon="6.72852">
        <ele>358</ele>
        <time>2014-04-13T09:28:18Z</time>
      </trkpt>
      <trkpt lat="47.5237" lon="6.72852">
        <ele>358</ele>
        <time>2014-04-13T09:28:20Z</time>
      </trkpt>
      <trkpt lat="47.52367" lon="6.72852">
        <ele>358</ele>
        <time>2014-04-13T09:28:23Z</time>
      </trkpt>
      <trkpt lat="47.52366" lon="6.72852">
        <ele>358</ele>
        <time>2014-04-13T09:28:24Z</time>
      </trkpt>
      <trkpt lat="47.52362" lon="6.72851">
        <ele>358</ele>
        <time>2014-04-13T09:28:27Z</time>
      </trkpt>
      <trkpt lat="47.52362" lon="6.7285">
        <ele>358</ele>
        <time>2014-04-13T09:28:28Z</time>
      </trkpt>
      <trkpt lat="47.52362" lon="6.72849">
        <ele>358</ele>
        <time>2014-04-13T09:28:31Z</time>
      </trkpt>
      <trkpt lat="47.52358" lon="6.72849">
        <ele>358</ele>
        <time>2014-04-13T09:30:13Z</time>
      </trkpt>
      <trkpt lat="47.52357" lon="6.72849">
        <ele>358</ele>
        <time>2014-04-13T09:30:14Z</time>
      </trkpt>
      <trkpt lat="47.52352" lon="6.72848">
        <ele>358</ele>
        <time>2014-04-13T09:30:17Z</time>
      </trkpt>
      <trkpt lat="47.52349" lon="6.72847">
        <ele>359</ele>
        <time>2014-04-13T09:30:18Z</time>
      </trkpt>
      <trkpt lat="47.52347" lon="6.72846">
        <ele>359</ele>
        <time>2014-04-13T09:30:19Z</time>
      </trkpt>
      <trkpt lat="47.52345" lon="6.72846">
        <ele>359</ele>
        <time>2014-04-13T09:30:20Z</time>
      </trkpt>
      <trkpt lat="47.52343" lon="6.72845">
        <ele>360</ele>
        <time>2014-04-13T09:30:21Z</time>
      </trkpt>
      <trkpt lat="47.52337" lon="6.72841">
        <ele>360</ele>
        <time>2014-04-13T09:30:24Z</time>
      </trkpt>
      <trkpt lat="47.52334" lon="6.72838">
        <ele>361</ele>
        <time>2014-04-13T09:30:25Z</time>
      </trkpt>
      <trkpt lat="47.52332" lon="6.72834">
        <ele>361</ele>
        <time>2014-04-13T09:30:26Z</time>
      </trkpt>
      <trkpt lat="47.5233" lon="6.7283">
        <ele>361</ele>
        <time>2014-04-13T09:30:27Z</time>
      </trkpt>
      <trkpt lat="47.52327" lon="6.72826">
        <ele>362</ele>
        <time>2014-04-13T09:30:28Z</time>
      </trkpt>
      <trkpt lat="47.52324" lon="6.72817">
        <ele>362</ele>
        <time>2014-04-13T09:30:30Z</time>
      </trkpt>
      <trkpt lat="47.52323" lon="6.72813">
        <ele>362</ele>
        <time>2014-04-13T09:30:31Z</time>
      </trkpt>
      <trkpt lat="47.52323" lon="6.72809">
        <ele>363</ele>
        <time>2014-04-13T09:30:32Z</time>
      </trkpt>
      <trkpt lat="47.52322" lon="6.72803">
        <ele>363</ele>
        <time>2014-04-13T09:30:33Z</time>
      </trkpt>
      <trkpt lat="47.52322" lon="6.72799">
        <ele>364</ele>
        <time>2014-04-13T09:30:34Z</time>
      </trkpt>
      <trkpt lat="47.52322" lon="6.72794">
        <ele>364</ele>
        <time>2014-04-13T09:30:35Z</time>
      </trkpt>
      <trkpt lat="47.52322" lon="6.72791">
        <ele>364</ele>
        <time>2014-04-13T09:30:36Z</time>
      </trkpt>
      <trkpt lat="47.52322" lon="6.72787">
        <ele>365</ele>
        <time>2014-04-13T09:30:37Z</time>
      </trkpt>
      <trkpt lat="47.52322" lon="6.72784">
        <ele>365</ele>
        <time>2014-04-13T09:30:38Z</time>
      </trkpt>
      <trkpt lat="47.52321" lon="6.7278">
        <ele>366</ele>
        <time>2014-04-13T09:30:39Z</time>
      </trkpt>
      <trkpt lat="47.52321" lon="6.72775">
        <ele>366</ele>
        <time>2014-04-13T09:30:40Z</time>
      </trkpt>
      <trkpt lat="47.52323" lon="6.72765">
        <ele>367</ele>
        <time>2014-04-13T09:30:42Z</time>
      </trkpt>
      <trkpt lat="47.52324" lon="6.72761">
        <ele>367</ele>
        <time>2014-04-13T09:30:43Z</time>
      </trkpt>
      <trkpt lat="47.52325" lon="6.72757">
        <ele>367</ele>
        <time>2014-04-13T09:30:44Z</time>
      </trkpt>
      <trkpt lat="47.52327" lon="6.72754">
        <ele>368</ele>
        <time>2014-04-13T09:30:45Z</time>
      </trkpt>
      <trkpt lat="47.52328" lon="6.72752">
        <ele>368</ele>
        <time>2014-04-13T09:30:46Z</time>
      </trkpt>
      <trkpt lat="47.5233" lon="6.72749">
        <ele>369</ele>
        <time>2014-04-13T09:30:47Z</time>
      </trkpt>
      <trkpt lat="47.52331" lon="6.72746">
        <ele>369</ele>
        <time>2014-04-13T09:30:48Z</time>
      </trkpt>
      <trkpt lat="47.52333" lon="6.72743">
        <ele>370</ele>
        <time>2014-04-13T09:30:49Z</time>
      </trkpt>
      <trkpt lat="47.52334" lon="6.7274">
        <ele>370</ele>
        <time>2014-04-13T09:30:50Z</time>
      </trkpt>
      <trkpt lat="47.52335" lon="6.72737">
        <ele>371</ele>
        <time>2014-04-13T09:30:51Z</time>
      </trkpt>
      <trkpt lat="47.52336" lon="6.72734">
        <ele>371</ele>
        <time>2014-04-13T09:30:52Z</time>
      </trkpt>
      <trkpt lat="47.52339" lon="6.72726">
        <ele>371</ele>
        <time>2014-04-13T09:30:55Z</time>
      </trkpt>
      <trkpt lat="47.52341" lon="6.72724">
        <ele>371</ele>
        <time>2014-04-13T09:30:56Z</time>
      </trkpt>
      <trkpt lat="47.52342" lon="6.72721">
        <ele>372</ele>
        <time>2014-04-13T09:30:57Z</time>
      </trkpt>
      <trkpt lat="47.52343" lon="6.72718">
        <ele>372</ele>
        <time>2014-04-13T09:30:58Z</time>
      </trkpt>
      <trkpt lat="47.52344" lon="6.72716">
        <ele>373</ele>
        <time>2014-04-13T09:30:59Z</time>
      </trkpt>
      <trkpt lat="47.52346" lon="6.72713">
        <ele>373</ele>
        <time>2014-04-13T09:31:01Z</time>
      </trkpt>
      <trkpt lat="47.52347" lon="6.72709">
        <ele>373</ele>
        <time>2014-04-13T09:31:03Z</time>
      </trkpt>
      <trkpt lat="47.52347" lon="6.72706">
        <ele>374</ele>
        <time>2014-04-13T09:31:04Z</time>
      </trkpt>
      <trkpt lat="47.52347" lon="6.72701">
        <ele>374</ele>
        <time>2014-04-13T09:31:05Z</time>
      </trkpt>
      <trkpt lat="47.52346" lon="6.72696">
        <ele>374</ele>
        <time>2014-04-13T09:31:06Z</time>
      </trkpt>
      <trkpt lat="47.52346" lon="6.72692">
        <ele>375</ele>
        <time>2014-04-13T09:31:07Z</time>
      </trkpt>
      <trkpt lat="47.52346" lon="6.72687">
        <ele>375</ele>
        <time>2014-04-13T09:31:08Z</time>
      </trkpt>
      <trkpt lat="47.52345" lon="6.72679">
        <ele>375</ele>
        <time>2014-04-13T09:31:10Z</time>
      </trkpt>
      <trkpt lat="47.52344" lon="6.72675">
        <ele>376</ele>
        <time>2014-04-13T09:31:11Z</time>
      </trkpt>
      <trkpt lat="47.52344" lon="6.72671">
        <ele>376</ele>
        <time>2014-04-13T09:31:12Z</time>
      </trkpt>
      <trkpt lat="47.52344" lon="6.72668">
        <ele>376</ele>
        <time>2014-04-13T09:31:13Z</time>
      </trkpt>
      <trkpt lat="47.52344" lon="6.72664">
        <ele>377</ele>
        <time>2014-04-13T09:31:14Z</time>
      </trkpt>
      <trkpt lat="47.52346" lon="6.72649">
        <ele>377</ele>
        <time>2014-04-13T09:31:19Z</time>
      </trkpt>
      <trkpt lat="47.52347" lon="6.72646">
        <ele>378</ele>
        <time>2014-04-13T09:31:20Z</time>
      </trkpt>
      <trkpt lat="47.52348" lon="6.72643">
        <ele>378</ele>
        <time>2014-04-13T09:31:21Z</time>
      </trkpt>
      <trkpt lat="47.52349" lon="6.72641">
        <ele>378</ele>
        <time>2014-04-13T09:31:22Z</time>
      </trkpt>
      <trkpt lat="47.5235" lon="6.72638">
        <ele>379</ele>
        <time>2014-04-13T09:31:23Z</time>
      </trkpt>
      <trkpt lat="47.52353" lon="6.72634">
        <ele>379</ele>
        <time>2014-04-13T09:31:25Z</time>
      </trkpt>
      <trkpt lat="47.52355" lon="6.72632">
        <ele>380</ele>
        <time>2014-04-13T09:31:26Z</time>
      </trkpt>
      <trkpt lat="47.52356" lon="6.7263">
        <ele>380</ele>
        <time>2014-04-13T09:31:27Z</time>
      </trkpt>
      <trkpt lat="47.52358" lon="6.72628">
        <ele>381</ele>
        <time>2014-04-13T09:31:28Z</time>
      </trkpt>
      <trkpt lat="47.52359" lon="6.72626">
        <ele>381</ele>
        <time>2014-04-13T09:31:29Z</time>
      </trkpt>
      <trkpt lat="47.52369" lon="6.72615">
        <ele>381</ele>
        <time>2014-04-13T09:31:34Z</time>
      </trkpt>
      <trkpt lat="47.5237" lon="6.72613">
        <ele>381</ele>
        <time>2014-04-13T09:31:35Z</time>
      </trkpt>
      <trkpt lat="47.52372" lon="6.72611">
        <ele>382</ele>
        <time>2014-04-13T09:31:36Z</time>
      </trkpt>
      <trkpt lat="47.52374" lon="6.72609">
        <ele>382</ele>
        <time>2014-04-13T09:31:37Z</time>
      </trkpt>
      <trkpt lat="47.52376" lon="6.72607">
        <ele>383</ele>
        <time>2014-04-13T09:31:38Z</time>
      </trkpt>
      <trkpt lat="47.52377" lon="6.72605">
        <ele>383</ele>
        <time>2014-04-13T09:31:39Z</time>
      </trkpt>
      <trkpt lat="47.52382" lon="6.72599">
        <ele>383</ele>
        <time>2014-04-13T09:31:42Z</time>
      </trkpt>
      <trkpt lat="47.52387" lon="6.72593">
        <ele>383</ele>
        <time>2014-04-13T09:31:45Z</time>
      </trkpt>
      <trkpt lat="47.52389" lon="6.72591">
        <ele>384</ele>
        <time>2014-04-13T09:31:46Z</time>
      </trkpt>
      <trkpt lat="47.52391" lon="6.72589">
        <ele>384</ele>
        <time>2014-04-13T09:31:47Z</time>
      </trkpt>
      <trkpt lat="47.52392" lon="6.72588">
        <ele>385</ele>
        <time>2014-04-13T09:31:48Z</time>
      </trkpt>
      <trkpt lat="47.52394" lon="6.72586">
        <ele>385</ele>
        <time>2014-04-13T09:31:49Z</time>
      </trkpt>
      <trkpt lat="47.52404" lon="6.72576">
        <ele>386</ele>
        <time>2014-04-13T09:31:55Z</time>
      </trkpt>
      <trkpt lat="47.52405" lon="6.72574">
        <ele>386</ele>
        <time>2014-04-13T09:31:56Z</time>
      </trkpt>
      <trkpt lat="47.52406" lon="6.72572">
        <ele>386</ele>
        <time>2014-04-13T09:31:57Z</time>
      </trkpt>
      <trkpt lat="47.52408" lon="6.7257">
        <ele>387</ele>
        <time>2014-04-13T09:31:58Z</time>
      </trkpt>
      <trkpt lat="47.52409" lon="6.72568">
        <ele>387</ele>
        <time>2014-04-13T09:31:59Z</time>
      </trkpt>
      <trkpt lat="47.52416" lon="6.72561">
        <ele>387</ele>
        <time>2014-04-13T09:32:02Z</time>
      </trkpt>
      <trkpt lat="47.52432" lon="6.72549">
        <ele>387</ele>
        <time>2014-04-13T09:32:08Z</time>
      </trkpt>
      <trkpt lat="47.52442" lon="6.72543">
        <ele>387</ele>
        <time>2014-04-13T09:32:11Z</time>
      </trkpt>
      <trkpt lat="47.5245" lon="6.7254">
        <ele>387</ele>
        <time>2014-04-13T09:32:13Z</time>
      </trkpt>
      <trkpt lat="47.52467" lon="6.72531">
        <ele>387</ele>
        <time>2014-04-13T09:32:17Z</time>
      </trkpt>
      <trkpt lat="47.52471" lon="6.72528">
        <ele>387</ele>
        <time>2014-04-13T09:32:18Z</time>
      </trkpt>
      <trkpt lat="47.52481" lon="6.72523">
        <ele>387</ele>
        <time>2014-04-13T09:32:20Z</time>
      </trkpt>
      <trkpt lat="47.525" lon="6.72506">
        <ele>387</ele>
        <time>2014-04-13T09:32:24Z</time>
      </trkpt>
      <trkpt lat="47.52511" lon="6.7249">
        <ele>387</ele>
        <time>2014-04-13T09:32:27Z</time>
      </trkpt>
      <trkpt lat="47.52517" lon="6.72478">
        <ele>387</ele>
        <time>2014-04-13T09:32:29Z</time>
      </trkpt>
      <trkpt lat="47.52529" lon="6.72463">
        <ele>387</ele>
        <time>2014-04-13T09:32:32Z</time>
      </trkpt>
      <trkpt lat="47.52534" lon="6.72459">
        <ele>387</ele>
        <time>2014-04-13T09:32:33Z</time>
      </trkpt>
      <trkpt lat="47.52538" lon="6.72455">
        <ele>386</ele>
        <time>2014-04-13T09:32:34Z</time>
      </trkpt>
      <trkpt lat="47.52543" lon="6.72451">
        <ele>386</ele>
        <time>2014-04-13T09:32:35Z</time>
      </trkpt>
      <trkpt lat="47.52548" lon="6.72449">
        <ele>385</ele>
        <time>2014-04-13T09:32:36Z</time>
      </trkpt>
      <trkpt lat="47.52558" lon="6.72443">
        <ele>385</ele>
        <time>2014-04-13T09:32:38Z</time>
      </trkpt>
      <trkpt lat="47.52568" lon="6.72438">
        <ele>385</ele>
        <time>2014-04-13T09:32:40Z</time>
      </trkpt>
      <trkpt lat="47.52586" lon="6.72428">
        <ele>385</ele>
        <time>2014-04-13T09:32:44Z</time>
      </trkpt>
      <trkpt lat="47.5259" lon="6.72424">
        <ele>385</ele>
        <time>2014-04-13T09:32:45Z</time>
      </trkpt>
      <trkpt lat="47.52592" lon="6.72416">
        <ele>385</ele>
        <time>2014-04-13T09:32:47Z</time>
      </trkpt>
      <trkpt lat="47.52591" lon="6.72411">
        <ele>385</ele>
        <time>2014-04-13T09:32:49Z</time>
      </trkpt>
      <trkpt lat="47.52586" lon="6.72407">
        <ele>385</ele>
        <time>2014-04-13T09:32:51Z</time>
      </trkpt>
      <trkpt lat="47.52581" lon="6.72403">
        <ele>385</ele>
        <time>2014-04-13T09:32:53Z</time>
      </trkpt>
      <trkpt lat="47.52571" lon="6.72395">
        <ele>385</ele>
        <time>2014-04-13T09:32:57Z</time>
      </trkpt>
      <trkpt lat="47.52565" lon="6.72389">
        <ele>386</ele>
        <time>2014-04-13T09:33:00Z</time>
      </trkpt>
      <trkpt lat="47.52562" lon="6.72386">
        <ele>386</ele>
        <time>2014-04-13T09:33:01Z</time>
      </trkpt>
      <trkpt lat="47.5256" lon="6.72383">
        <ele>387</ele>
        <time>2014-04-13T09:33:02Z</time>
      </trkpt>
      <trkpt lat="47.52558" lon="6.7238">
        <ele>387</ele>
        <time>2014-04-13T09:33:03Z</time>
      </trkpt>
      <trkpt lat="47.52556" lon="6.72378">
        <ele>388</ele>
        <time>2014-04-13T09:33:04Z</time>
      </trkpt>
      <trkpt lat="47.52554" lon="6.72375">
        <ele>388</ele>
        <time>2014-04-13T09:33:05Z</time>
      </trkpt>
      <trkpt lat="47.52552" lon="6.72371">
        <ele>389</ele>
        <time>2014-04-13T09:33:06Z</time>
      </trkpt>
      <trkpt lat="47.5255" lon="6.72368">
        <ele>389</ele>
        <time>2014-04-13T09:33:07Z</time>
      </trkpt>
      <trkpt lat="47.52547" lon="6.72364">
        <ele>390</ele>
        <time>2014-04-13T09:33:08Z</time>
      </trkpt>
      <trkpt lat="47.52543" lon="6.72357">
        <ele>390</ele>
        <time>2014-04-13T09:33:10Z</time>
      </trkpt>
      <trkpt lat="47.52539" lon="6.72349">
        <ele>390</ele>
        <time>2014-04-13T09:33:12Z</time>
      </trkpt>
      <trkpt lat="47.52537" lon="6.72345">
        <ele>390</ele>
        <time>2014-04-13T09:33:13Z</time>
      </trkpt>
      <trkpt lat="47.52535" lon="6.72341">
        <ele>391</ele>
        <time>2014-04-13T09:33:14Z</time>
      </trkpt>
      <trkpt lat="47.52534" lon="6.72337">
        <ele>391</ele>
        <time>2014-04-13T09:33:15Z</time>
      </trkpt>
      <trkpt lat="47.52534" lon="6.72332">
        <ele>392</ele>
        <time>2014-04-13T09:33:16Z</time>
      </trkpt>
      <trkpt lat="47.52541" lon="6.72319">
        <ele>392</ele>
        <time>2014-04-13T09:33:19Z</time>
      </trkpt>
      <trkpt lat="47.52544" lon="6.72314">
        <ele>392</ele>
        <time>2014-04-13T09:33:20Z</time>
      </trkpt>
      <trkpt lat="47.52552" lon="6.72302">
        <ele>392</ele>
        <time>2014-04-13T09:33:22Z</time>
      </trkpt>
      <trkpt lat="47.52555" lon="6.72296">
        <ele>392</ele>
        <time>2014-04-13T09:33:23Z</time>
      </trkpt>
      <trkpt lat="47.52559" lon="6.7229">
        <ele>393</ele>
        <time>2014-04-13T09:33:24Z</time>
      </trkpt>
      <trkpt lat="47.52563" lon="6.72284">
        <ele>393</ele>
        <time>2014-04-13T09:33:25Z</time>
      </trkpt>
      <trkpt lat="47.52566" lon="6.72278">
        <ele>394</ele>
        <time>2014-04-13T09:33:26Z</time>
      </trkpt>
      <trkpt lat="47.52573" lon="6.72267">
        <ele>394</ele>
        <time>2014-04-13T09:33:28Z</time>
      </trkpt>
      <trkpt lat="47.52586" lon="6.72245">
        <ele>394</ele>
        <time>2014-04-13T09:33:32Z</time>
      </trkpt>
      <trkpt lat="47.52608" lon="6.7221">
        <ele>394</ele>
        <time>2014-04-13T09:33:38Z</time>
      </trkpt>
      <trkpt lat="47.52615" lon="6.72198">
        <ele>393</ele>
        <time>2014-04-13T09:33:40Z</time>
      </trkpt>
      <trkpt lat="47.52618" lon="6.72193">
        <ele>393</ele>
        <time>2014-04-13T09:33:41Z</time>
      </trkpt>
      <trkpt lat="47.52622" lon="6.72187">
        <ele>392</ele>
        <time>2014-04-13T09:33:42Z</time>
      </trkpt>
      <trkpt lat="47.52625" lon="6.72181">
        <ele>392</ele>
        <time>2014-04-13T09:33:43Z</time>
      </trkpt>
      <trkpt lat="47.52628" lon="6.72176">
        <ele>392</ele>
        <time>2014-04-13T09:33:44Z</time>
      </trkpt>
      <trkpt lat="47.52631" lon="6.72171">
        <ele>392</ele>
        <time>2014-04-13T09:33:45Z</time>
      </trkpt>
      <trkpt lat="47.52638" lon="6.72158">
        <ele>392</ele>
        <time>2014-04-13T09:33:47Z</time>
      </trkpt>
      <trkpt lat="47.52657" lon="6.72124">
        <ele>392</ele>
        <time>2014-04-13T09:33:53Z</time>
      </trkpt>
      <trkpt lat="47.52682" lon="6.72083">
        <ele>392</ele>
        <time>2014-04-13T09:34:02Z</time>
      </trkpt>
      <trkpt lat="47.52699" lon="6.72052">
        <ele>392</ele>
        <time>2014-04-13T09:34:09Z</time>
      </trkpt>
      <trkpt lat="47.52702" lon="6.72048">
        <ele>392</ele>
        <time>2014-04-13T09:34:10Z</time>
      </trkpt>
      <trkpt lat="47.52705" lon="6.72044">
        <ele>393</ele>
        <time>2014-04-13T09:34:11Z</time>
      </trkpt>
      <trkpt lat="47.52708" lon="6.7204">
        <ele>393</ele>
        <time>2014-04-13T09:34:12Z</time>
      </trkpt>
      <trkpt lat="47.52711" lon="6.72037">
        <ele>394</ele>
        <time>2014-04-13T09:34:13Z</time>
      </trkpt>
      <trkpt lat="47.52722" lon="6.72027">
        <ele>394</ele>
        <time>2014-04-13T09:34:16Z</time>
      </trkpt>
      <trkpt lat="47.52749" lon="6.72007">
        <ele>394</ele>
        <time>2014-04-13T09:34:22Z</time>
      </trkpt>
      <trkpt lat="47.52788" lon="6.71976">
        <ele>394</ele>
        <time>2014-04-13T09:34:30Z</time>
      </trkpt>
      <trkpt lat="47.52806" lon="6.71963">
        <ele>394</ele>
        <time>2014-04-13T09:34:34Z</time>
      </trkpt>
      <trkpt lat="47.52819" lon="6.71951">
        <ele>394</ele>
        <time>2014-04-13T09:34:37Z</time>
      </trkpt>
      <trkpt lat="47.52847" lon="6.71921">
        <ele>394</ele>
        <time>2014-04-13T09:34:44Z</time>
      </trkpt>
      <trkpt lat="47.52867" lon="6.71894">
        <ele>394</ele>
        <time>2014-04-13T09:34:49Z</time>
      </trkpt>
      <trkpt lat="47.5287" lon="6.71887">
        <ele>394</ele>
        <time>2014-04-13T09:34:50Z</time>
      </trkpt>
      <trkpt lat="47.52877" lon="6.71872">
        <ele>394</ele>
        <time>2014-04-13T09:34:52Z</time>
      </trkpt>
      <trkpt lat="47.52882" lon="6.71866">
        <ele>393</ele>
        <time>2014-04-13T09:34:53Z</time>
      </trkpt>
      <trkpt lat="47.52886" lon="6.71863">
        <ele>393</ele>
        <time>2014-04-13T09:34:54Z</time>
      </trkpt>
      <trkpt lat="47.52892" lon="6.71863">
        <ele>392</ele>
        <time>2014-04-13T09:34:55Z</time>
      </trkpt>
      <trkpt lat="47.52897" lon="6.71863">
        <ele>392</ele>
        <time>2014-04-13T09:34:56Z</time>
      </trkpt>
      <trkpt lat="47.52903" lon="6.71863">
        <ele>391</ele>
        <time>2014-04-13T09:34:57Z</time>
      </trkpt>
      <trkpt lat="47.52915" lon="6.71855">
        <ele>391</ele>
        <time>2014-04-13T09:34:59Z</time>
      </trkpt>
      <trkpt lat="47.52922" lon="6.7185">
        <ele>390</ele>
        <time>2014-04-13T09:35:00Z</time>
      </trkpt>
      <trkpt lat="47.5293" lon="6.71846">
        <ele>390</ele>
        <time>2014-04-13T09:35:01Z</time>
      </trkpt>
      <trkpt lat="47.52937" lon="6.71843">
        <ele>389</ele>
        <time>2014-04-13T09:35:02Z</time>
      </trkpt>
      <trkpt lat="47.52943" lon="6.71838">
        <ele>389</ele>
        <time>2014-04-13T09:35:03Z</time>
      </trkpt>
      <trkpt lat="47.5295" lon="6.71835">
        <ele>388</ele>
        <time>2014-04-13T09:35:04Z</time>
      </trkpt>
      <trkpt lat="47.52956" lon="6.7183">
        <ele>387</ele>
        <time>2014-04-13T09:35:05Z</time>
      </trkpt>
      <trkpt lat="47.52962" lon="6.71826">
        <ele>385</ele>
        <time>2014-04-13T09:35:06Z</time>
      </trkpt>
      <trkpt lat="47.52968" lon="6.71822">
        <ele>385</ele>
        <time>2014-04-13T09:35:07Z</time>
      </trkpt>
      <trkpt lat="47.52973" lon="6.71817">
        <ele>384</ele>
        <time>2014-04-13T09:35:08Z</time>
      </trkpt>
      <trkpt lat="47.52976" lon="6.71813">
        <ele>383</ele>
        <time>2014-04-13T09:35:09Z</time>
      </trkpt>
      <trkpt lat="47.52979" lon="6.71805">
        <ele>382</ele>
        <time>2014-04-13T09:35:10Z</time>
      </trkpt>
      <trkpt lat="47.52981" lon="6.71797">
        <ele>381</ele>
        <time>2014-04-13T09:35:11Z</time>
      </trkpt>
      <trkpt lat="47.52983" lon="6.71788">
        <ele>380</ele>
        <time>2014-04-13T09:35:12Z</time>
      </trkpt>
      <trkpt lat="47.52985" lon="6.71779">
        <ele>379</ele>
        <time>2014-04-13T09:35:13Z</time>
      </trkpt>
      <trkpt lat="47.52987" lon="6.7177">
        <ele>379</ele>
        <time>2014-04-13T09:35:14Z</time>
      </trkpt>
      <trkpt lat="47.52988" lon="6.71764">
        <ele>378</ele>
        <time>2014-04-13T09:35:15Z</time>
      </trkpt>
      <trkpt lat="47.5299" lon="6.7176">
        <ele>377</ele>
        <time>2014-04-13T09:35:16Z</time>
      </trkpt>
      <trkpt lat="47.52995" lon="6.71754">
        <ele>376</ele>
        <time>2014-04-13T09:35:17Z</time>
      </trkpt>
      <trkpt lat="47.53001" lon="6.71749">
        <ele>376</ele>
        <time>2014-04-13T09:35:18Z</time>
      </trkpt>
      <trkpt lat="47.53008" lon="6.71745">
        <ele>375</ele>
        <time>2014-04-13T09:35:19Z</time>
      </trkpt>
      <trkpt lat="47.53015" lon="6.71741">
        <ele>374</ele>
        <time>2014-04-13T09:35:20Z</time>
      </trkpt>
      <trkpt lat="47.5302" lon="6.71738">
        <ele>373</ele>
        <time>2014-04-13T09:35:21Z</time>
      </trkpt>
      <trkpt lat="47.53027" lon="6.71734">
        <ele>372</ele>
        <time>2014-04-13T09:35:22Z</time>
      </trkpt>
      <trkpt lat="47.53033" lon="6.71733">
        <ele>370</ele>
        <time>2014-04-13T09:35:23Z</time>
      </trkpt>
      <trkpt lat="47.53039" lon="6.71733">
        <ele>369</ele>
        <time>2014-04-13T09:35:24Z</time>
      </trkpt>
      <trkpt lat="47.53046" lon="6.71732">
        <ele>368</ele>
        <time>2014-04-13T09:35:25Z</time>
      </trkpt>
      <trkpt lat="47.53054" lon="6.71733">
        <ele>367</ele>
        <time>2014-04-13T09:35:26Z</time>
      </trkpt>
      <trkpt lat="47.53062" lon="6.71734">
        <ele>365</ele>
        <time>2014-04-13T09:35:27Z</time>
      </trkpt>
      <trkpt lat="47.5307" lon="6.71738">
        <ele>364</ele>
        <time>2014-04-13T09:35:28Z</time>
      </trkpt>
      <trkpt lat="47.53079" lon="6.71743">
        <ele>362</ele>
        <time>2014-04-13T09:35:29Z</time>
      </trkpt>
      <trkpt lat="47.53086" lon="6.7175">
        <ele>360</ele>
        <time>2014-04-13T09:35:30Z</time>
      </trkpt>
      <trkpt lat="47.53093" lon="6.71759">
        <ele>357</ele>
        <time>2014-04-13T09:35:31Z</time>
      </trkpt>
      <trkpt lat="47.53101" lon="6.71766">
        <ele>356</ele>
        <time>2014-04-13T09:35:32Z</time>
      </trkpt>
      <trkpt lat="47.53109" lon="6.71774">
        <ele>355</ele>
        <time>2014-04-13T09:35:33Z</time>
      </trkpt>
      <trkpt lat="47.53118" lon="6.71783">
        <ele>353</ele>
        <time>2014-04-13T09:35:34Z</time>
      </trkpt>
      <trkpt lat="47.53126" lon="6.71792">
        <ele>352</ele>
        <time>2014-04-13T09:35:35Z</time>
      </trkpt>
      <trkpt lat="47.53135" lon="6.71803">
        <ele>351</ele>
        <time>2014-04-13T09:35:36Z</time>
      </trkpt>
      <trkpt lat="47.53145" lon="6.71811">
        <ele>349</ele>
        <time>2014-04-13T09:35:37Z</time>
      </trkpt>
      <trkpt lat="47.53155" lon="6.71819">
        <ele>348</ele>
        <time>2014-04-13T09:35:38Z</time>
      </trkpt>
      <trkpt lat="47.53164" lon="6.71824">
        <ele>347</ele>
        <time>2014-04-13T09:35:39Z</time>
      </trkpt>
      <trkpt lat="47.53174" lon="6.7183">
        <ele>346</ele>
        <time>2014-04-13T09:35:40Z</time>
      </trkpt>
      <trkpt lat="47.53183" lon="6.7183">
        <ele>345</ele>
        <time>2014-04-13T09:35:41Z</time>
      </trkpt>
      <trkpt lat="47.53192" lon="6.7183">
        <ele>344</ele>
        <time>2014-04-13T09:35:42Z</time>
      </trkpt>
      <trkpt lat="47.53199" lon="6.71829">
        <ele>343</ele>
        <time>2014-04-13T09:35:43Z</time>
      </trkpt>
      <trkpt lat="47.53206" lon="6.71827">
        <ele>343</ele>
        <time>2014-04-13T09:35:44Z</time>
      </trkpt>
      <trkpt lat="47.53212" lon="6.71827">
        <ele>344</ele>
        <time>2014-04-13T09:35:45Z</time>
      </trkpt>
      <trkpt lat="47.53217" lon="6.71826">
        <ele>344</ele>
        <time>2014-04-13T09:35:46Z</time>
      </trkpt>
      <trkpt lat="47.53221" lon="6.71824">
        <ele>345</ele>
        <time>2014-04-13T09:35:47Z</time>
      </trkpt>
      <trkpt lat="47.53225" lon="6.71821">
        <ele>346</ele>
        <time>2014-04-13T09:35:48Z</time>
      </trkpt>
      <trkpt lat="47.53228" lon="6.71816">
        <ele>346</ele>
        <time>2014-04-13T09:35:49Z</time>
      </trkpt>
      <trkpt lat="47.5323" lon="6.7181">
        <ele>347</ele>
        <time>2014-04-13T09:35:50Z</time>
      </trkpt>
      <trkpt lat="47.53233" lon="6.71804">
        <ele>347</ele>
        <time>2014-04-13T09:35:51Z</time>
      </trkpt>
      <trkpt lat="47.5323" lon="6.7179">
        <ele>347</ele>
        <time>2014-04-13T09:35:53Z</time>
      </trkpt>
      <trkpt lat="47.53215" lon="6.71777">
        <ele>347</ele>
        <time>2014-04-13T09:35:56Z</time>
      </trkpt>
      <trkpt lat="47.53202" lon="6.71767">
        <ele>347</ele>
        <time>2014-04-13T09:35:58Z</time>
      </trkpt>
      <trkpt lat="47.53197" lon="6.71761">
        <ele>347</ele>
        <time>2014-04-13T09:35:59Z</time>
      </trkpt>
      <trkpt lat="47.53191" lon="6.71754">
        <ele>347</ele>
        <time>2014-04-13T09:36:00Z</time>
      </trkpt>
      <trkpt lat="47.53187" lon="6.71747">
        <ele>346</ele>
        <time>2014-04-13T09:36:01Z</time>
      </trkpt>
      <trkpt lat="47.53182" lon="6.7174">
        <ele>346</ele>
        <time>2014-04-13T09:36:02Z</time>
      </trkpt>
      <trkpt lat="47.53178" lon="6.71732">
        <ele>345</ele>
        <time>2014-04-13T09:36:03Z</time>
      </trkpt>
      <trkpt lat="47.53166" lon="6.7171">
        <ele>345</ele>
        <time>2014-04-13T09:36:06Z</time>
      </trkpt>
      <trkpt lat="47.53139" lon="6.71659">
        <ele>345</ele>
        <time>2014-04-13T09:36:13Z</time>
      </trkpt>
      <trkpt lat="47.53126" lon="6.71636">
        <ele>345</ele>
        <time>2014-04-13T09:36:17Z</time>
      </trkpt>
      <trkpt lat="47.53125" lon="6.7163">
        <ele>346</ele>
        <time>2014-04-13T09:36:18Z</time>
      </trkpt>
      <trkpt lat="47.53124" lon="6.71624">
        <ele>346</ele>
        <time>2014-04-13T09:36:19Z</time>
      </trkpt>
      <trkpt lat="47.53124" lon="6.71618">
        <ele>347</ele>
        <time>2014-04-13T09:36:20Z</time>
      </trkpt>
      <trkpt lat="47.53123" lon="6.71613">
        <ele>348</ele>
        <time>2014-04-13T09:36:21Z</time>
      </trkpt>
      <trkpt lat="47.53123" lon="6.71608">
        <ele>348</ele>
        <time>2014-04-13T09:36:22Z</time>
      </trkpt>
      <trkpt lat="47.53121" lon="6.71599">
        <ele>348</ele>
        <time>2014-04-13T09:36:24Z</time>
      </trkpt>
      <trkpt lat="47.53121" lon="6.71595">
        <ele>349</ele>
        <time>2014-04-13T09:36:25Z</time>
      </trkpt>
      <trkpt lat="47.5312" lon="6.71592">
        <ele>349</ele>
        <time>2014-04-13T09:36:26Z</time>
      </trkpt>
      <trkpt lat="47.53119" lon="6.71588">
        <ele>349</ele>
        <time>2014-04-13T09:36:27Z</time>
      </trkpt>
      <trkpt lat="47.53118" lon="6.71584">
        <ele>350</ele>
        <time>2014-04-13T09:36:28Z</time>
      </trkpt>
      <trkpt lat="47.53117" lon="6.71573">
        <ele>350</ele>
        <time>2014-04-13T09:36:31Z</time>
      </trkpt>
      <trkpt lat="47.53117" lon="6.7157">
        <ele>351</ele>
        <time>2014-04-13T09:36:32Z</time>
      </trkpt>
      <trkpt lat="47.53117" lon="6.71567">
        <ele>351</ele>
        <time>2014-04-13T09:36:33Z</time>
      </trkpt>
      <trkpt lat="47.53117" lon="6.71564">
        <ele>352</ele>
        <time>2014-04-13T09:36:34Z</time>
      </trkpt>
      <trkpt lat="47.53116" lon="6.71562">
        <ele>352</ele>
        <time>2014-04-13T09:36:35Z</time>
      </trkpt>
      <trkpt lat="47.53116" lon="6.71554">
        <ele>353</ele>
        <time>2014-04-13T09:36:38Z</time>
      </trkpt>
      <trkpt lat="47.53116" lon="6.71551">
        <ele>353</ele>
        <time>2014-04-13T09:36:39Z</time>
      </trkpt>
      <trkpt lat="47.53116" lon="6.71547">
        <ele>354</ele>
        <time>2014-04-13T09:36:40Z</time>
      </trkpt>
      <trkpt lat="47.53115" lon="6.71544">
        <ele>354</ele>
        <time>2014-04-13T09:36:41Z</time>
      </trkpt>
      <trkpt lat="47.53114" lon="6.71541">
        <ele>355</ele>
        <time>2014-04-13T09:36:42Z</time>
      </trkpt>
      <trkpt lat="47.53113" lon="6.7153">
        <ele>355</ele>
        <time>2014-04-13T09:36:45Z</time>
      </trkpt>
      <trkpt lat="47.53113" lon="6.71527">
        <ele>355</ele>
        <time>2014-04-13T09:36:46Z</time>
      </trkpt>
      <trkpt lat="47.53113" lon="6.71524">
        <ele>355</ele>
        <time>2014-04-13T09:36:47Z</time>
      </trkpt>
      <trkpt lat="47.53112" lon="6.7152">
        <ele>356</ele>
        <time>2014-04-13T09:36:48Z</time>
      </trkpt>
      <trkpt lat="47.53112" lon="6.71517">
        <ele>356</ele>
        <time>2014-04-13T09:36:49Z</time>
      </trkpt>
      <trkpt lat="47.53111" lon="6.71514">
        <ele>357</ele>
        <time>2014-04-13T09:36:50Z</time>
      </trkpt>
      <trkpt lat="47.53111" lon="6.71511">
        <ele>357</ele>
        <time>2014-04-13T09:36:51Z</time>
      </trkpt>
      <trkpt lat="47.53109" lon="6.71498">
        <ele>357</ele>
        <time>2014-04-13T09:36:55Z</time>
      </trkpt>
      <trkpt lat="47.53109" lon="6.71495">
        <ele>357</ele>
        <time>2014-04-13T09:36:56Z</time>
      </trkpt>
      <trkpt lat="47.53109" lon="6.71492">
        <ele>358</ele>
        <time>2014-04-13T09:36:57Z</time>
      </trkpt>
      <trkpt lat="47.53109" lon="6.71488">
        <ele>358</ele>
        <time>2014-04-13T09:36:58Z</time>
      </trkpt>
      <trkpt lat="47.53108" lon="6.71484">
        <ele>359</ele>
        <time>2014-04-13T09:36:59Z</time>
      </trkpt>
      <trkpt lat="47.53106" lon="6.71465">
        <ele>359</ele>
        <time>2014-04-13T09:37:04Z</time>
      </trkpt>
      <trkpt lat="47.53105" lon="6.71456">
        <ele>359</ele>
        <time>2014-04-13T09:37:06Z</time>
      </trkpt>
      <trkpt lat="47.53104" lon="6.71453">
        <ele>360</ele>
        <time>2014-04-13T09:37:07Z</time>
      </trkpt>
      <trkpt lat="47.53104" lon="6.71448">
        <ele>360</ele>
        <time>2014-04-13T09:37:08Z</time>
      </trkpt>
      <trkpt lat="47.53103" lon="6.71445">
        <ele>360</ele>
        <time>2014-04-13T09:37:09Z</time>
      </trkpt>
      <trkpt lat="47.53103" lon="6.71441">
        <ele>361</ele>
        <time>2014-04-13T09:37:10Z</time>
      </trkpt>
      <trkpt lat="47.53102" lon="6.71438">
        <ele>361</ele>
        <time>2014-04-13T09:37:11Z</time>
      </trkpt>
      <trkpt lat="47.53099" lon="6.71424">
        <ele>361</ele>
        <time>2014-04-13T09:37:15Z</time>
      </trkpt>
      <trkpt lat="47.53098" lon="6.7142">
        <ele>362</ele>
        <time>2014-04-13T09:37:16Z</time>
      </trkpt>
      <trkpt lat="47.53098" lon="6.71415">
        <ele>362</ele>
        <time>2014-04-13T09:37:17Z</time>
      </trkpt>
      <trkpt lat="47.53096" lon="6.7141">
        <ele>363</ele>
        <time>2014-04-13T09:37:18Z</time>
      </trkpt>
      <trkpt lat="47.53095" lon="6.71406">
        <ele>363</ele>
        <time>2014-04-13T09:37:19Z</time>
      </trkpt>
      <trkpt lat="47.53092" lon="6.71394">
        <ele>363</ele>
        <time>2014-04-13T09:37:22Z</time>
      </trkpt>
      <trkpt lat="47.53083" lon="6.71363">
        <ele>363</ele>
        <time>2014-04-13T09:37:28Z</time>
      </trkpt>
      <trkpt lat="47.53076" lon="6.71345">
        <ele>363</ele>
        <time>2014-04-13T09:37:31Z</time>
      </trkpt>
      <trkpt lat="47.53074" lon="6.71339">
        <ele>364</ele>
        <time>2014-04-13T09:37:32Z</time>
      </trkpt>
      <trkpt lat="47.53073" lon="6.71332">
        <ele>364</ele>
        <time>2014-04-13T09:37:33Z</time>
      </trkpt>
      <trkpt lat="47.53071" lon="6.71327">
        <ele>365</ele>
        <time>2014-04-13T09:37:34Z</time>
      </trkpt>
      <trkpt lat="47.5306" lon="6.71294">
        <ele>365</ele>
        <time>2014-04-13T09:37:40Z</time>
      </trkpt>
      <trkpt lat="47.53059" lon="6.71289">
        <ele>365</ele>
        <time>2014-04-13T09:37:41Z</time>
      </trkpt>
      <trkpt lat="47.53058" lon="6.71278">
        <ele>365</ele>
        <time>2014-04-13T09:37:43Z</time>
      </trkpt>
      <trkpt lat="47.53058" lon="6.71267">
        <ele>365</ele>
        <time>2014-04-13T09:37:45Z</time>
      </trkpt>
      <trkpt lat="47.5306" lon="6.71267">
        <ele>365</ele>
        <time>2014-04-13T09:37:47Z</time>
      </trkpt>
      <trkpt lat="47.53067" lon="6.71272">
        <ele>365</ele>
        <time>2014-04-13T09:37:49Z</time>
      </trkpt>
      <trkpt lat="47.53071" lon="6.71274">
        <ele>366</ele>
        <time>2014-04-13T09:37:50Z</time>
      </trkpt>
      <trkpt lat="47.53075" lon="6.71276">
        <ele>366</ele>
        <time>2014-04-13T09:37:51Z</time>
      </trkpt>
      <trkpt lat="47.53079" lon="6.71278">
        <ele>367</ele>
        <time>2014-04-13T09:37:52Z</time>
      </trkpt>
      <trkpt lat="47.53084" lon="6.71278">
        <ele>367</ele>
        <time>2014-04-13T09:37:53Z</time>
      </trkpt>
      <trkpt lat="47.53095" lon="6.71278">
        <ele>367</ele>
        <time>2014-04-13T09:37:56Z</time>
      </trkpt>
      <trkpt lat="47.53099" lon="6.71277">
        <ele>367</ele>
        <time>2014-04-13T09:37:57Z</time>
      </trkpt>
      <trkpt lat="47.53103" lon="6.71276">
        <ele>368</ele>
        <time>2014-04-13T09:37:58Z</time>
      </trkpt>
      <trkpt lat="47.53107" lon="6.71275">
        <ele>369</ele>
        <time>2014-04-13T09:37:59Z</time>
      </trkpt>
      <trkpt lat="47.53111" lon="6.71274">
        <ele>369</ele>
        <time>2014-04-13T09:38:00Z</time>
      </trkpt>
      <trkpt lat="47.53115" lon="6.71274">
        <ele>369</ele>
        <time>2014-04-13T09:38:01Z</time>
      </trkpt>
      <trkpt lat="47.53123" lon="6.71271">
        <ele>369</ele>
        <time>2014-04-13T09:38:03Z</time>
      </trkpt>
      <trkpt lat="47.53127" lon="6.7127">
        <ele>370</ele>
        <time>2014-04-13T09:38:04Z</time>
      </trkpt>
      <trkpt lat="47.53131" lon="6.71269">
        <ele>370</ele>
        <time>2014-04-13T09:38:05Z</time>
      </trkpt>
      <trkpt lat="47.53134" lon="6.71268">
        <ele>371</ele>
        <time>2014-04-13T09:38:06Z</time>
      </trkpt>
      <trkpt lat="47.53138" lon="6.71267">
        <ele>371</ele>
        <time>2014-04-13T09:38:07Z</time>
      </trkpt>
      <trkpt lat="47.53142" lon="6.71265">
        <ele>372</ele>
        <time>2014-04-13T09:38:08Z</time>
      </trkpt>
      <trkpt lat="47.5315" lon="6.71263">
        <ele>372</ele>
        <time>2014-04-13T09:38:10Z</time>
      </trkpt>
      <trkpt lat="47.53177" lon="6.71256">
        <ele>372</ele>
        <time>2014-04-13T09:38:17Z</time>
      </trkpt>
      <trkpt lat="47.53181" lon="6.71255">
        <ele>372</ele>
        <time>2014-04-13T09:38:18Z</time>
      </trkpt>
      <trkpt lat="47.53185" lon="6.71253">
        <ele>372</ele>
        <time>2014-04-13T09:38:19Z</time>
      </trkpt>
      <trkpt lat="47.53189" lon="6.71252">
        <ele>373</ele>
        <time>2014-04-13T09:38:20Z</time>
      </trkpt>
      <trkpt lat="47.53193" lon="6.71251">
        <ele>373</ele>
        <time>2014-04-13T09:38:21Z</time>
      </trkpt>
      <trkpt lat="47.53197" lon="6.7125">
        <ele>374</ele>
        <time>2014-04-13T09:38:22Z</time>
      </trkpt>
      <trkpt lat="47.53209" lon="6.71248">
        <ele>374</ele>
        <time>2014-04-13T09:38:25Z</time>
      </trkpt>
      <trkpt lat="47.53224" lon="6.71241">
        <ele>374</ele>
        <time>2014-04-13T09:38:29Z</time>
      </trkpt>
      <trkpt lat="47.53227" lon="6.71237">
        <ele>374</ele>
        <time>2014-04-13T09:38:30Z</time>
      </trkpt>
      <trkpt lat="47.53227" lon="6.71232">
        <ele>375</ele>
        <time>2014-04-13T09:38:31Z</time>
      </trkpt>
      <trkpt lat="47.53229" lon="6.71226">
        <ele>375</ele>
        <time>2014-04-13T09:38:32Z</time>
      </trkpt>
      <trkpt lat="47.5323" lon="6.7122">
        <ele>376</ele>
        <time>2014-04-13T09:38:33Z</time>
      </trkpt>
      <trkpt lat="47.53231" lon="6.71214">
        <ele>376</ele>
        <time>2014-04-13T09:38:34Z</time>
      </trkpt>
      <trkpt lat="47.5324" lon="6.71171">
        <ele>376</ele>
        <time>2014-04-13T09:38:41Z</time>
      </trkpt>
      <trkpt lat="47.53245" lon="6.71141">
        <ele>376</ele>
        <time>2014-04-13T09:38:46Z</time>
      </trkpt>
      <trkpt lat="47.53245" lon="6.71135">
        <ele>376</ele>
        <time>2014-04-13T09:38:47Z</time>
      </trkpt>
      <trkpt lat="47.53248" lon="6.71124">
        <ele>376</ele>
        <time>2014-04-13T09:38:49Z</time>
      </trkpt>
      <trkpt lat="47.53249" lon="6.71118">
        <ele>377</ele>
        <time>2014-04-13T09:38:50Z</time>
      </trkpt>
      <trkpt lat="47.5325" lon="6.71112">
        <ele>377</ele>
        <time>2014-04-13T09:38:51Z</time>
      </trkpt>
      <trkpt lat="47.53251" lon="6.71106">
        <ele>377</ele>
        <time>2014-04-13T09:38:52Z</time>
      </trkpt>
      <trkpt lat="47.53253" lon="6.711">
        <ele>378</ele>
        <time>2014-04-13T09:38:53Z</time>
      </trkpt>
      <trkpt lat="47.53264" lon="6.71058">
        <ele>378</ele>
        <time>2014-04-13T09:39:00Z</time>
      </trkpt>
      <trkpt lat="47.53265" lon="6.71052">
        <ele>378</ele>
        <time>2014-04-13T09:39:01Z</time>
      </trkpt>
      <trkpt lat="47.53267" lon="6.71047">
        <ele>379</ele>
        <time>2014-04-13T09:39:02Z</time>
      </trkpt>
      <trkpt lat="47.53268" lon="6.71041">
        <ele>379</ele>
        <time>2014-04-13T09:39:03Z</time>
      </trkpt>
      <trkpt lat="47.5327" lon="6.71036">
        <ele>379</ele>
        <time>2014-04-13T09:39:04Z</time>
      </trkpt>
      <trkpt lat="47.53271" lon="6.7103">
        <ele>380</ele>
        <time>2014-04-13T09:39:05Z</time>
      </trkpt>
      <trkpt lat="47.53274" lon="6.71021">
        <ele>380</ele>
        <time>2014-04-13T09:39:07Z</time>
      </trkpt>
      <trkpt lat="47.53276" lon="6.71012">
        <ele>380</ele>
        <time>2014-04-13T09:39:09Z</time>
      </trkpt>
      <trkpt lat="47.53278" lon="6.71007">
        <ele>381</ele>
        <time>2014-04-13T09:39:10Z</time>
      </trkpt>
      <trkpt lat="47.53279" lon="6.71003">
        <ele>381</ele>
        <time>2014-04-13T09:39:11Z</time>
      </trkpt>
      <trkpt lat="47.53281" lon="6.70999">
        <ele>381</ele>
        <time>2014-04-13T09:39:12Z</time>
      </trkpt>
      <trkpt lat="47.53283" lon="6.70995">
        <ele>382</ele>
        <time>2014-04-13T09:39:13Z</time>
      </trkpt>
      <trkpt lat="47.53286" lon="6.70986">
        <ele>382</ele>
        <time>2014-04-13T09:39:15Z</time>
      </trkpt>
      <trkpt lat="47.5329" lon="6.70972">
        <ele>382</ele>
        <time>2014-04-13T09:39:18Z</time>
      </trkpt>
      <trkpt lat="47.53292" lon="6.70966">
        <ele>383</ele>
        <time>2014-04-13T09:39:19Z</time>
      </trkpt>
      <trkpt lat="47.53293" lon="6.70961">
        <ele>383</ele>
        <time>2014-04-13T09:39:20Z</time>
      </trkpt>
      <trkpt lat="47.53294" lon="6.70956">
        <ele>384</ele>
        <time>2014-04-13T09:39:21Z</time>
      </trkpt>
      <trkpt lat="47.53295" lon="6.70951">
        <ele>384</ele>
        <time>2014-04-13T09:39:22Z</time>
      </trkpt>
      <trkpt lat="47.53302" lon="6.70926">
        <ele>384</ele>
        <time>2014-04-13T09:39:27Z</time>
      </trkpt>
      <trkpt lat="47.53306" lon="6.70909">
        <ele>384</ele>
        <time>2014-04-13T09:39:31Z</time>
      </trkpt>
      <trkpt lat="47.53306" lon="6.70905">
        <ele>385</ele>
        <time>2014-04-13T09:39:32Z</time>
      </trkpt>
      <trkpt lat="47.53307" lon="6.70901">
        <ele>385</ele>
        <time>2014-04-13T09:39:33Z</time>
      </trkpt>
      <trkpt lat="47.53309" lon="6.70897">
        <ele>386</ele>
        <time>2014-04-13T09:39:34Z</time>
      </trkpt>
      <trkpt lat="47.53312" lon="6.70893">
        <ele>386</ele>
        <time>2014-04-13T09:39:35Z</time>
      </trkpt>
      <trkpt lat="47.53315" lon="6.70888">
        <ele>386</ele>
        <time>2014-04-13T09:39:36Z</time>
      </trkpt>
      <trkpt lat="47.53319" lon="6.70884">
        <ele>386</ele>
        <time>2014-04-13T09:39:37Z</time>
      </trkpt>
      <trkpt lat="47.53333" lon="6.70868">
        <ele>386</ele>
        <time>2014-04-13T09:39:40Z</time>
      </trkpt>
      <trkpt lat="47.53338" lon="6.70863">
        <ele>385</ele>
        <time>2014-04-13T09:39:41Z</time>
      </trkpt>
      <trkpt lat="47.53346" lon="6.7086">
        <ele>385</ele>
        <time>2014-04-13T09:39:42Z</time>
      </trkpt>
      <trkpt lat="47.53354" lon="6.70859">
        <ele>384</ele>
        <time>2014-04-13T09:39:43Z</time>
      </trkpt>
      <trkpt lat="47.53362" lon="6.70862">
        <ele>383</ele>
        <time>2014-04-13T09:39:44Z</time>
      </trkpt>
      <trkpt lat="47.53369" lon="6.70868">
        <ele>382</ele>
        <time>2014-04-13T09:39:45Z</time>
      </trkpt>
      <trkpt lat="47.53377" lon="6.70876">
        <ele>382</ele>
        <time>2014-04-13T09:39:46Z</time>
      </trkpt>
      <trkpt lat="47.53383" lon="6.70886">
        <ele>381</ele>
        <time>2014-04-13T09:39:47Z</time>
      </trkpt>
      <trkpt lat="47.53389" lon="6.70894">
        <ele>380</ele>
        <time>2014-04-13T09:39:48Z</time>
      </trkpt>
      <trkpt lat="47.53395" lon="6.70898">
        <ele>379</ele>
        <time>2014-04-13T09:39:49Z</time>
      </trkpt>
      <trkpt lat="47.53401" lon="6.709">
        <ele>379</ele>
        <time>2014-04-13T09:39:50Z</time>
      </trkpt>
      <trkpt lat="47.53407" lon="6.709">
        <ele>378</ele>
        <time>2014-04-13T09:39:51Z</time>
      </trkpt>
      <trkpt lat="47.53413" lon="6.70898">
        <ele>377</ele>
        <time>2014-04-13T09:39:52Z</time>
      </trkpt>
      <trkpt lat="47.53418" lon="6.70895">
        <ele>377</ele>
        <time>2014-04-13T09:39:53Z</time>
      </trkpt>
      <trkpt lat="47.53423" lon="6.70893">
        <ele>376</ele>
        <time>2014-04-13T09:39:54Z</time>
      </trkpt>
      <trkpt lat="47.53449" lon="6.70879">
        <ele>376</ele>
        <time>2014-04-13T09:39:59Z</time>
      </trkpt>
      <trkpt lat="47.53457" lon="6.70871">
        <ele>376</ele>
        <time>2014-04-13T09:40:01Z</time>
      </trkpt>
      <trkpt lat="47.53471" lon="6.70864">
        <ele>376</ele>
        <time>2014-04-13T09:40:04Z</time>
      </trkpt>
      <trkpt lat="47.53475" lon="6.70861">
        <ele>377</ele>
        <time>2014-04-13T09:40:05Z</time>
      </trkpt>
      <trkpt lat="47.53478" lon="6.70858">
        <ele>377</ele>
        <time>2014-04-13T09:40:06Z</time>
      </trkpt>
      <trkpt lat="47.53482" lon="6.70856">
        <ele>377</ele>
        <time>2014-04-13T09:40:07Z</time>
      </trkpt>
      <trkpt lat="47.53486" lon="6.70855">
        <ele>378</ele>
        <time>2014-04-13T09:40:08Z</time>
      </trkpt>
      <trkpt lat="47.53489" lon="6.70853">
        <ele>378</ele>
        <time>2014-04-13T09:40:09Z</time>
      </trkpt>
      <trkpt lat="47.53497" lon="6.70851">
        <ele>378</ele>
        <time>2014-04-13T09:40:12Z</time>
      </trkpt>
      <trkpt lat="47.53509" lon="6.70848">
        <ele>379</ele>
        <time>2014-04-13T09:40:16Z</time>
      </trkpt>
      <trkpt lat="47.53512" lon="6.70847">
        <ele>379</ele>
        <time>2014-04-13T09:40:17Z</time>
      </trkpt>
      <trkpt lat="47.53516" lon="6.70846">
        <ele>380</ele>
        <time>2014-04-13T09:40:18Z</time>
      </trkpt>
      <trkpt lat="47.53519" lon="6.70846">
        <ele>380</ele>
        <time>2014-04-13T09:40:19Z</time>
      </trkpt>
      <trkpt lat="47.53522" lon="6.70845">
        <ele>380</ele>
        <time>2014-04-13T09:40:20Z</time>
      </trkpt>
      <trkpt lat="47.53534" lon="6.70843">
        <ele>380</ele>
        <time>2014-04-13T09:40:24Z</time>
      </trkpt>
      <trkpt lat="47.53549" lon="6.70838">
        <ele>381</ele>
        <time>2014-04-13T09:40:28Z</time>
      </trkpt>
      <trkpt lat="47.53552" lon="6.70836">
        <ele>382</ele>
        <time>2014-04-13T09:40:29Z</time>
      </trkpt>
      <trkpt lat="47.53556" lon="6.70834">
        <ele>382</ele>
        <time>2014-04-13T09:40:30Z</time>
      </trkpt>
      <trkpt lat="47.5356" lon="6.70832">
        <ele>382</ele>
        <time>2014-04-13T09:40:31Z</time>
      </trkpt>
      <trkpt lat="47.53566" lon="6.70828">
        <ele>382</ele>
        <time>2014-04-13T09:40:33Z</time>
      </trkpt>
      <trkpt lat="47.53569" lon="6.70824">
        <ele>382</ele>
        <time>2014-04-13T09:40:34Z</time>
      </trkpt>
      <trkpt lat="47.53579" lon="6.70812">
        <ele>382</ele>
        <time>2014-04-13T09:40:37Z</time>
      </trkpt>
      <trkpt lat="47.53589" lon="6.708">
        <ele>382</ele>
        <time>2014-04-13T09:40:40Z</time>
      </trkpt>
      <trkpt lat="47.53594" lon="6.70792">
        <ele>383</ele>
        <time>2014-04-13T09:40:42Z</time>
      </trkpt>
      <trkpt lat="47.53597" lon="6.70789">
        <ele>383</ele>
        <time>2014-04-13T09:40:43Z</time>
      </trkpt>
      <trkpt lat="47.536" lon="6.70786">
        <ele>384</ele>
        <time>2014-04-13T09:40:44Z</time>
      </trkpt>
      <trkpt lat="47.53604" lon="6.70782">
        <ele>384</ele>
        <time>2014-04-13T09:40:45Z</time>
      </trkpt>
      <trkpt lat="47.53607" lon="6.70779">
        <ele>385</ele>
        <time>2014-04-13T09:40:46Z</time>
      </trkpt>
      <trkpt lat="47.53626" lon="6.70769">
        <ele>385</ele>
        <time>2014-04-13T09:40:51Z</time>
      </trkpt>
      <trkpt lat="47.53633" lon="6.70767">
        <ele>385</ele>
        <time>2014-04-13T09:40:53Z</time>
      </trkpt>
      <trkpt lat="47.53636" lon="6.70765">
        <ele>386</ele>
        <time>2014-04-13T09:40:54Z</time>
      </trkpt>
      <trkpt lat="47.53639" lon="6.70765">
        <ele>386</ele>
        <time>2014-04-13T09:40:55Z</time>
      </trkpt>
      <trkpt lat="47.53642" lon="6.70766">
        <ele>387</ele>
        <time>2014-04-13T09:40:56Z</time>
      </trkpt>
      <trkpt lat="47.53651" lon="6.70773">
        <ele>387</ele>
        <time>2014-04-13T09:41:00Z</time>
      </trkpt>
      <trkpt lat="47.53654" lon="6.70774">
        <ele>388</ele>
        <time>2014-04-13T09:41:01Z</time>
      </trkpt>
      <trkpt lat="47.53656" lon="6.70776">
        <ele>388</ele>
        <time>2014-04-13T09:41:02Z</time>
      </trkpt>
      <trkpt lat="47.53659" lon="6.70777">
        <ele>389</ele>
        <time>2014-04-13T09:41:03Z</time>
      </trkpt>
      <trkpt lat="47.53661" lon="6.70778">
        <ele>389</ele>
        <time>2014-04-13T09:41:04Z</time>
      </trkpt>
      <trkpt lat="47.53664" lon="6.7078">
        <ele>390</ele>
        <time>2014-04-13T09:41:05Z</time>
      </trkpt>
      <trkpt lat="47.53667" lon="6.70781">
        <ele>390</ele>
        <time>2014-04-13T09:41:06Z</time>
      </trkpt>
      <trkpt lat="47.53669" lon="6.70784">
        <ele>390</ele>
        <time>2014-04-13T09:41:07Z</time>
      </trkpt>
      <trkpt lat="47.53672" lon="6.70785">
        <ele>391</ele>
        <time>2014-04-13T09:41:08Z</time>
      </trkpt>
      <trkpt lat="47.53675" lon="6.70786">
        <ele>391</ele>
        <time>2014-04-13T09:41:09Z</time>
      </trkpt>
      <trkpt lat="47.53681" lon="6.70791">
        <ele>391</ele>
        <time>2014-04-13T09:41:11Z</time>
      </trkpt>
      <trkpt lat="47.53684" lon="6.70794">
        <ele>392</ele>
        <time>2014-04-13T09:41:12Z</time>
      </trkpt>
      <trkpt lat="47.53686" lon="6.70796">
        <ele>392</ele>
        <time>2014-04-13T09:41:13Z</time>
      </trkpt>
      <trkpt lat="47.53689" lon="6.70799">
        <ele>393</ele>
        <time>2014-04-13T09:41:14Z</time>
      </trkpt>
      <trkpt lat="47.53691" lon="6.70801">
        <ele>393</ele>
        <time>2014-04-13T09:41:15Z</time>
      </trkpt>
      <trkpt lat="47.53693" lon="6.70802">
        <ele>394</ele>
        <time>2014-04-13T09:41:16Z</time>
      </trkpt>
      <trkpt lat="47.53704" lon="6.70804">
        <ele>394</ele>
        <time>2014-04-13T09:41:20Z</time>
      </trkpt>
      <trkpt lat="47.53707" lon="6.70807">
        <ele>394</ele>
        <time>2014-04-13T09:41:21Z</time>
      </trkpt>
      <trkpt lat="47.5371" lon="6.7081">
        <ele>394</ele>
        <time>2014-04-13T09:41:22Z</time>
      </trkpt>
      <trkpt lat="47.53712" lon="6.70813">
        <ele>395</ele>
        <time>2014-04-13T09:41:23Z</time>
      </trkpt>
      <trkpt lat="47.53714" lon="6.70814">
        <ele>395</ele>
        <time>2014-04-13T09:41:24Z</time>
      </trkpt>
      <trkpt lat="47.53716" lon="6.70815">
        <ele>396</ele>
        <time>2014-04-13T09:41:25Z</time>
      </trkpt>
      <trkpt lat="47.53718" lon="6.70816">
        <ele>396</ele>
        <time>2014-04-13T09:41:26Z</time>
      </trkpt>
      <trkpt lat="47.5373" lon="6.70826">
        <ele>396</ele>
        <time>2014-04-13T09:41:31Z</time>
      </trkpt>
      <trkpt lat="47.53735" lon="6.70831">
        <ele>396</ele>
        <time>2014-04-13T09:41:33Z</time>
      </trkpt>
      <trkpt lat="47.53738" lon="6.70833">
        <ele>396</ele>
        <time>2014-04-13T09:41:34Z</time>
      </trkpt>
      <trkpt lat="47.5374" lon="6.70836">
        <ele>397</ele>
        <time>2014-04-13T09:41:35Z</time>
      </trkpt>
      <trkpt lat="47.53742" lon="6.70839">
        <ele>397</ele>
        <time>2014-04-13T09:41:36Z</time>
      </trkpt>
      <trkpt lat="47.53744" lon="6.70841">
        <ele>398</ele>
        <time>2014-04-13T09:41:37Z</time>
      </trkpt>
      <trkpt lat="47.53751" lon="6.70846">
        <ele>398</ele>
        <time>2014-04-13T09:41:40Z</time>
      </trkpt>
      <trkpt lat="47.53772" lon="6.70857">
        <ele>398</ele>
        <time>2014-04-13T09:41:47Z</time>
      </trkpt>
      <trkpt lat="47.53775" lon="6.70858">
        <ele>399</ele>
        <time>2014-04-13T09:41:48Z</time>
      </trkpt>
      <trkpt lat="47.53778" lon="6.70859">
        <ele>399</ele>
        <time>2014-04-13T09:41:49Z</time>
      </trkpt>
      <trkpt lat="47.5378" lon="6.7086">
        <ele>399</ele>
        <time>2014-04-13T09:41:50Z</time>
      </trkpt>
      <trkpt lat="47.53783" lon="6.70861">
        <ele>400</ele>
        <time>2014-04-13T09:41:51Z</time>
      </trkpt>
      <trkpt lat="47.5379" lon="6.70865">
        <ele>400</ele>
        <time>2014-04-13T09:41:54Z</time>
      </trkpt>
      <trkpt lat="47.53805" lon="6.70872">
        <ele>400</ele>
        <time>2014-04-13T09:42:00Z</time>
      </trkpt>
      <trkpt lat="47.53807" lon="6.70874">
        <ele>401</ele>
        <time>2014-04-13T09:42:01Z</time>
      </trkpt>
      <trkpt lat="47.53809" lon="6.70875">
        <ele>401</ele>
        <time>2014-04-13T09:42:02Z</time>
      </trkpt>
      <trkpt lat="47.53811" lon="6.70876">
        <ele>402</ele>
        <time>2014-04-13T09:42:03Z</time>
      </trkpt>
      <trkpt lat="47.53814" lon="6.70879">
        <ele>402</ele>
        <time>2014-04-13T09:42:04Z</time>
      </trkpt>
      <trkpt lat="47.53816" lon="6.70881">
        <ele>402</ele>
        <time>2014-04-13T09:42:05Z</time>
      </trkpt>
      <trkpt lat="47.5383" lon="6.70892">
        <ele>402</ele>
        <time>2014-04-13T09:42:10Z</time>
      </trkpt>
      <trkpt lat="47.53842" lon="6.70895">
        <ele>402</ele>
        <time>2014-04-13T09:42:15Z</time>
      </trkpt>
      <trkpt lat="47.53846" lon="6.70896">
        <ele>402</ele>
        <time>2014-04-13T09:42:16Z</time>
      </trkpt>
      <trkpt lat="47.5385" lon="6.70895">
        <ele>403</ele>
        <time>2014-04-13T09:42:17Z</time>
      </trkpt>
      <trkpt lat="47.53854" lon="6.70896">
        <ele>403</ele>
        <time>2014-04-13T09:42:18Z</time>
      </trkpt>
      <trkpt lat="47.53858" lon="6.70895">
        <ele>404</ele>
        <time>2014-04-13T09:42:19Z</time>
      </trkpt>
      <trkpt lat="47.53862" lon="6.70894">
        <ele>404</ele>
        <time>2014-04-13T09:42:20Z</time>
      </trkpt>
      <trkpt lat="47.53876" lon="6.70891">
        <ele>404</ele>
        <time>2014-04-13T09:42:25Z</time>
      </trkpt>
      <trkpt lat="47.53886" lon="6.70892">
        <ele>404</ele>
        <time>2014-04-13T09:42:27Z</time>
      </trkpt>
      <trkpt lat="47.53899" lon="6.70894">
        <ele>404</ele>
        <time>2014-04-13T09:42:29Z</time>
      </trkpt>
      <trkpt lat="47.53912" lon="6.70895">
        <ele>404</ele>
        <time>2014-04-13T09:42:31Z</time>
      </trkpt>
      <trkpt lat="47.53925" lon="6.709">
        <ele>404</ele>
        <time>2014-04-13T09:42:33Z</time>
      </trkpt>
      <trkpt lat="47.53932" lon="6.70901">
        <ele>403</ele>
        <time>2014-04-13T09:42:34Z</time>
      </trkpt>
      <trkpt lat="47.53939" lon="6.70901">
        <ele>403</ele>
        <time>2014-04-13T09:42:35Z</time>
      </trkpt>
      <trkpt lat="47.53945" lon="6.70898">
        <ele>402</ele>
        <time>2014-04-13T09:42:36Z</time>
      </trkpt>
      <trkpt lat="47.53951" lon="6.70893">
        <ele>402</ele>
        <time>2014-04-13T09:42:37Z</time>
      </trkpt>
      <trkpt lat="47.53958" lon="6.70889">
        <ele>401</ele>
        <time>2014-04-13T09:42:38Z</time>
      </trkpt>
      <trkpt lat="47.53965" lon="6.70884">
        <ele>400</ele>
        <time>2014-04-13T09:42:39Z</time>
      </trkpt>
      <trkpt lat="47.53973" lon="6.70877">
        <ele>400</ele>
        <time>2014-04-13T09:42:40Z</time>
      </trkpt>
      <trkpt lat="47.53979" lon="6.7087">
        <ele>399</ele>
        <time>2014-04-13T09:42:41Z</time>
      </trkpt>
      <trkpt lat="47.53984" lon="6.70863">
        <ele>398</ele>
        <time>2014-04-13T09:42:42Z</time>
      </trkpt>
      <trkpt lat="47.53991" lon="6.70857">
        <ele>397</ele>
        <time>2014-04-13T09:42:43Z</time>
      </trkpt>
      <trkpt lat="47.53997" lon="6.70851">
        <ele>397</ele>
        <time>2014-04-13T09:42:44Z</time>
      </trkpt>
      <trkpt lat="47.54003" lon="6.70845">
        <ele>396</ele>
        <time>2014-04-13T09:42:45Z</time>
      </trkpt>
      <trkpt lat="47.54009" lon="6.7084">
        <ele>395</ele>
        <time>2014-04-13T09:42:46Z</time>
      </trkpt>
      <trkpt lat="47.54014" lon="6.70833">
        <ele>395</ele>
        <time>2014-04-13T09:42:47Z</time>
      </trkpt>
      <trkpt lat="47.54018" lon="6.70826">
        <ele>394</ele>
        <time>2014-04-13T09:42:48Z</time>
      </trkpt>
      <trkpt lat="47.54022" lon="6.70819">
        <ele>393</ele>
        <time>2014-04-13T09:42:49Z</time>
      </trkpt>
      <trkpt lat="47.54027" lon="6.70816">
        <ele>392</ele>
        <time>2014-04-13T09:42:50Z</time>
      </trkpt>
      <trkpt lat="47.54034" lon="6.70812">
        <ele>392</ele>
        <time>2014-04-13T09:42:51Z</time>
      </trkpt>
      <trkpt lat="47.54042" lon="6.70809">
        <ele>391</ele>
        <time>2014-04-13T09:42:52Z</time>
      </trkpt>
      <trkpt lat="47.54051" lon="6.70806">
        <ele>390</ele>
        <time>2014-04-13T09:42:53Z</time>
      </trkpt>
      <trkpt lat="47.5406" lon="6.70805">
        <ele>389</ele>
        <time>2014-04-13T09:42:54Z</time>
      </trkpt>
      <trkpt lat="47.54067" lon="6.70804">
        <ele>388</ele>
        <time>2014-04-13T09:42:55Z</time>
      </trkpt>
      <trkpt lat="47.54076" lon="6.70805">
        <ele>387</ele>
        <time>2014-04-13T09:42:56Z</time>
      </trkpt>
      <trkpt lat="47.54086" lon="6.70805">
        <ele>384</ele>
        <time>2014-04-13T09:42:57Z</time>
      </trkpt>
      <trkpt lat="47.54096" lon="6.70804">
        <ele>383</ele>
        <time>2014-04-13T09:42:58Z</time>
      </trkpt>
      <trkpt lat="47.54106" lon="6.70801">
        <ele>382</ele>
        <time>2014-04-13T09:42:59Z</time>
      </trkpt>
      <trkpt lat="47.54115" lon="6.70796">
        <ele>381</ele>
        <time>2014-04-13T09:43:00Z</time>
      </trkpt>
      <trkpt lat="47.54123" lon="6.70791">
        <ele>380</ele>
        <time>2014-04-13T09:43:01Z</time>
      </trkpt>
      <trkpt lat="47.54132" lon="6.70786">
        <ele>379</ele>
        <time>2014-04-13T09:43:02Z</time>
      </trkpt>
      <trkpt lat="47.54141" lon="6.70783">
        <ele>378</ele>
        <time>2014-04-13T09:43:03Z</time>
      </trkpt>
      <trkpt lat="47.54148" lon="6.7078">
        <ele>377</ele>
        <time>2014-04-13T09:43:04Z</time>
      </trkpt>
      <trkpt lat="47.54155" lon="6.70776">
        <ele>376</ele>
        <time>2014-04-13T09:43:05Z</time>
      </trkpt>
      <trkpt lat="47.54161" lon="6.70772">
        <ele>376</ele>
        <time>2014-04-13T09:43:06Z</time>
      </trkpt>
      <trkpt lat="47.54168" lon="6.70771">
        <ele>376</ele>
        <time>2014-04-13T09:43:07Z</time>
      </trkpt>
      <trkpt lat="47.54175" lon="6.70769">
        <ele>375</ele>
        <time>2014-04-13T09:43:08Z</time>
      </trkpt>
      <trkpt lat="47.54181" lon="6.70767">
        <ele>375</ele>
        <time>2014-04-13T09:43:09Z</time>
      </trkpt>
      <trkpt lat="47.54199" lon="6.70759">
        <ele>375</ele>
        <time>2014-04-13T09:43:12Z</time>
      </trkpt>
      <trkpt lat="47.54209" lon="6.70753">
        <ele>375</ele>
        <time>2014-04-13T09:43:14Z</time>
      </trkpt>
      <trkpt lat="47.54229" lon="6.70743">
        <ele>375</ele>
        <time>2014-04-13T09:43:18Z</time>
      </trkpt>
      <trkpt lat="47.54233" lon="6.70741">
        <ele>375</ele>
        <time>2014-04-13T09:43:19Z</time>
      </trkpt>
      <trkpt lat="47.54258" lon="6.70729">
        <ele>375</ele>
        <time>2014-04-13T09:43:24Z</time>
      </trkpt>
      <trkpt lat="47.54262" lon="6.70726">
        <ele>375</ele>
        <time>2014-04-13T09:43:25Z</time>
      </trkpt>
      <trkpt lat="47.54281" lon="6.70711">
        <ele>375</ele>
        <time>2014-04-13T09:43:29Z</time>
      </trkpt>
      <trkpt lat="47.54295" lon="6.707">
        <ele>375</ele>
        <time>2014-04-13T09:43:32Z</time>
      </trkpt>
      <trkpt lat="47.5432" lon="6.70685">
        <ele>375</ele>
        <time>2014-04-13T09:43:37Z</time>
      </trkpt>
      <trkpt lat="47.54331" lon="6.70697">
        <ele>375</ele>
        <time>2014-04-13T09:43:40Z</time>
      </trkpt>
      <trkpt lat="47.54337" lon="6.70726">
        <ele>375</ele>
        <time>2014-04-13T09:43:44Z</time>
      </trkpt>
      <trkpt lat="47.5434" lon="6.70749">
        <ele>375</ele>
        <time>2014-04-13T09:43:47Z</time>
      </trkpt>
      <trkpt lat="47.54347" lon="6.70755">
        <ele>375</ele>
        <time>2014-04-13T09:43:49Z</time>
      </trkpt>
      <trkpt lat="47.54359" lon="6.70752">
        <ele>374</ele>
        <time>2014-04-13T09:43:52Z</time>
      </trkpt>
      <trkpt lat="47.54364" lon="6.7075">
        <ele>374</ele>
        <time>2014-04-13T09:43:53Z</time>
      </trkpt>
      <trkpt lat="47.54368" lon="6.70746">
        <ele>373</ele>
        <time>2014-04-13T09:43:54Z</time>
      </trkpt>
      <trkpt lat="47.54371" lon="6.70741">
        <ele>373</ele>
        <time>2014-04-13T09:43:55Z</time>
      </trkpt>
      <trkpt lat="47.54374" lon="6.70735">
        <ele>373</ele>
        <time>2014-04-13T09:43:56Z</time>
      </trkpt>
      <trkpt lat="47.54379" lon="6.70712">
        <ele>373</ele>
        <time>2014-04-13T09:43:59Z</time>
      </trkpt>
      <trkpt lat="47.54381" lon="6.70703">
        <ele>373</ele>
        <time>2014-04-13T09:44:00Z</time>
      </trkpt>
      <trkpt lat="47.54382" lon="6.70694">
        <ele>372</ele>
        <time>2014-04-13T09:44:01Z</time>
      </trkpt>
      <trkpt lat="47.54384" lon="6.70685">
        <ele>372</ele>
        <time>2014-04-13T09:44:02Z</time>
      </trkpt>
      <trkpt lat="47.54388" lon="6.70677">
        <ele>371</ele>
        <time>2014-04-13T09:44:03Z</time>
      </trkpt>
      <trkpt lat="47.54393" lon="6.7067">
        <ele>370</ele>
        <time>2014-04-13T09:44:04Z</time>
      </trkpt>
      <trkpt lat="47.54398" lon="6.70665">
        <ele>370</ele>
        <time>2014-04-13T09:44:05Z</time>
      </trkpt>
      <trkpt lat="47.54404" lon="6.70659">
        <ele>369</ele>
        <time>2014-04-13T09:44:06Z</time>
      </trkpt>
      <trkpt lat="47.54409" lon="6.70652">
        <ele>369</ele>
        <time>2014-04-13T09:44:07Z</time>
      </trkpt>
      <trkpt lat="47.54413" lon="6.70644">
        <ele>368</ele>
        <time>2014-04-13T09:44:08Z</time>
      </trkpt>
      <trkpt lat="47.54418" lon="6.70635">
        <ele>368</ele>
        <time>2014-04-13T09:44:09Z</time>
      </trkpt>
      <trkpt lat="47.54424" lon="6.70626">
        <ele>367</ele>
        <time>2014-04-13T09:44:10Z</time>
      </trkpt>
      <trkpt lat="47.54431" lon="6.7062">
        <ele>366</ele>
        <time>2014-04-13T09:44:11Z</time>
      </trkpt>
      <trkpt lat="47.54438" lon="6.70615">
        <ele>366</ele>
        <time>2014-04-13T09:44:12Z</time>
      </trkpt>
      <trkpt lat="47.54448" lon="6.70608">
        <ele>366</ele>
        <time>2014-04-13T09:44:14Z</time>
      </trkpt>
      <trkpt lat="47.54454" lon="6.70604">
        <ele>366</ele>
        <time>2014-04-13T09:44:15Z</time>
      </trkpt>
      <trkpt lat="47.54462" lon="6.70597">
        <ele>366</ele>
        <time>2014-04-13T09:44:17Z</time>
      </trkpt>
      <trkpt lat="47.5447" lon="6.70588">
        <ele>366</ele>
        <time>2014-04-13T09:44:19Z</time>
      </trkpt>
      <trkpt lat="47.54488" lon="6.70575">
        <ele>366</ele>
        <time>2014-04-13T09:44:23Z</time>
      </trkpt>
      <trkpt lat="47.54493" lon="6.70573">
        <ele>366</ele>
        <time>2014-04-13T09:44:24Z</time>
      </trkpt>
      <trkpt lat="47.5451" lon="6.70567">
        <ele>366</ele>
        <time>2014-04-13T09:44:27Z</time>
      </trkpt>
      <trkpt lat="47.54517" lon="6.70564">
        <ele>365</ele>
        <time>2014-04-13T09:44:28Z</time>
      </trkpt>
      <trkpt lat="47.54522" lon="6.70563">
        <ele>365</ele>
        <time>2014-04-13T09:44:29Z</time>
      </trkpt>
      <trkpt lat="47.5453" lon="6.70562">
        <ele>365</ele>
        <time>2014-04-13T09:44:30Z</time>
      </trkpt>
      <trkpt lat="47.54537" lon="6.70562">
        <ele>364</ele>
        <time>2014-04-13T09:44:31Z</time>
      </trkpt>
      <trkpt lat="47.54545" lon="6.7056">
        <ele>364</ele>
        <time>2014-04-13T09:44:32Z</time>
      </trkpt>
      <trkpt lat="47.54575" lon="6.70552">
        <ele>364</ele>
        <time>2014-04-13T09:44:36Z</time>
      </trkpt>
      <trkpt lat="47.54591" lon="6.70548">
        <ele>364</ele>
        <time>2014-04-13T09:44:38Z</time>
      </trkpt>
      <trkpt lat="47.54602" lon="6.70544">
        <ele>364</ele>
        <time>2014-04-13T09:44:40Z</time>
      </trkpt>
      <trkpt lat="47.54613" lon="6.70539">
        <ele>364</ele>
        <time>2014-04-13T09:44:42Z</time>
      </trkpt>
      <trkpt lat="47.54632" lon="6.70535">
        <ele>364</ele>
        <time>2014-04-13T09:44:45Z</time>
      </trkpt>
      <trkpt lat="47.54651" lon="6.7053">
        <ele>364</ele>
        <time>2014-04-13T09:44:48Z</time>
      </trkpt>
      <trkpt lat="47.54668" lon="6.7052">
        <ele>364</ele>
        <time>2014-04-13T09:44:51Z</time>
      </trkpt>
      <trkpt lat="47.54703" lon="6.70491">
        <ele>364</ele>
        <time>2014-04-13T09:44:58Z</time>
      </trkpt>
      <trkpt lat="47.54708" lon="6.70487">
        <ele>364</ele>
        <time>2014-04-13T09:44:59Z</time>
      </trkpt>
      <trkpt lat="47.54713" lon="6.70484">
        <ele>365</ele>
        <time>2014-04-13T09:45:00Z</time>
      </trkpt>
      <trkpt lat="47.54718" lon="6.70482">
        <ele>365</ele>
        <time>2014-04-13T09:45:01Z</time>
      </trkpt>
      <trkpt lat="47.54723" lon="6.7048">
        <ele>366</ele>
        <time>2014-04-13T09:45:02Z</time>
      </trkpt>
      <trkpt lat="47.54735" lon="6.70472">
        <ele>366</ele>
        <time>2014-04-13T09:45:05Z</time>
      </trkpt>
      <trkpt lat="47.54738" lon="6.70469">
        <ele>366</ele>
        <time>2014-04-13T09:45:06Z</time>
      </trkpt>
      <trkpt lat="47.54741" lon="6.70468">
        <ele>367</ele>
        <time>2014-04-13T09:45:07Z</time>
      </trkpt>
      <trkpt lat="47.54744" lon="6.70467">
        <ele>367</ele>
        <time>2014-04-13T09:45:08Z</time>
      </trkpt>
      <trkpt lat="47.54748" lon="6.70466">
        <ele>367</ele>
        <time>2014-04-13T09:45:09Z</time>
      </trkpt>
      <trkpt lat="47.54752" lon="6.70464">
        <ele>368</ele>
        <time>2014-04-13T09:45:10Z</time>
      </trkpt>
      <trkpt lat="47.54756" lon="6.7046">
        <ele>368</ele>
        <time>2014-04-13T09:45:11Z</time>
      </trkpt>
      <trkpt lat="47.54764" lon="6.70435">
        <ele>367</ele>
        <time>2014-04-13T09:45:14Z</time>
      </trkpt>
      <trkpt lat="47.54769" lon="6.70424">
        <ele>367</ele>
        <time>2014-04-13T09:45:15Z</time>
      </trkpt>
      <trkpt lat="47.54773" lon="6.70415">
        <ele>366</ele>
        <time>2014-04-13T09:45:16Z</time>
      </trkpt>
      <trkpt lat="47.54777" lon="6.70406">
        <ele>365</ele>
        <time>2014-04-13T09:45:17Z</time>
      </trkpt>
      <trkpt lat="47.54782" lon="6.70397">
        <ele>365</ele>
        <time>2014-04-13T09:45:18Z</time>
      </trkpt>
      <trkpt lat="47.54799" lon="6.70365">
        <ele>365</ele>
        <time>2014-04-13T09:45:22Z</time>
      </trkpt>
      <trkpt lat="47.54805" lon="6.70359">
        <ele>365</ele>
        <time>2014-04-13T09:45:23Z</time>
      </trkpt>
      <trkpt lat="47.54817" lon="6.70352">
        <ele>364</ele>
        <time>2014-04-13T09:45:25Z</time>
      </trkpt>
      <trkpt lat="47.54823" lon="6.70348">
        <ele>364</ele>
        <time>2014-04-13T09:45:26Z</time>
      </trkpt>
      <trkpt lat="47.54829" lon="6.70344">
        <ele>363</ele>
        <time>2014-04-13T09:45:27Z</time>
      </trkpt>
      <trkpt lat="47.54835" lon="6.70339">
        <ele>363</ele>
        <time>2014-04-13T09:45:28Z</time>
      </trkpt>
      <trkpt lat="47.54849" lon="6.70321">
        <ele>363</ele>
        <time>2014-04-13T09:45:31Z</time>
      </trkpt>
      <trkpt lat="47.54852" lon="6.70314">
        <ele>363</ele>
        <time>2014-04-13T09:45:32Z</time>
      </trkpt>
      <trkpt lat="47.54856" lon="6.703">
        <ele>363</ele>
        <time>2014-04-13T09:45:34Z</time>
      </trkpt>
      <trkpt lat="47.54862" lon="6.70248">
        <ele>363</ele>
        <time>2014-04-13T09:45:40Z</time>
      </trkpt>
      <trkpt lat="47.54861" lon="6.70238">
        <ele>363</ele>
        <time>2014-04-13T09:45:41Z</time>
      </trkpt>
      <trkpt lat="47.54856" lon="6.70218">
        <ele>363</ele>
        <time>2014-04-13T09:45:43Z</time>
      </trkpt>
      <trkpt lat="47.54854" lon="6.70208">
        <ele>362</ele>
        <time>2014-04-13T09:45:44Z</time>
      </trkpt>
      <trkpt lat="47.54852" lon="6.70198">
        <ele>362</ele>
        <time>2014-04-13T09:45:45Z</time>
      </trkpt>
      <trkpt lat="47.54849" lon="6.70189">
        <ele>362</ele>
        <time>2014-04-13T09:45:46Z</time>
      </trkpt>
      <trkpt lat="47.54847" lon="6.70179">
        <ele>361</ele>
        <time>2014-04-13T09:45:47Z</time>
      </trkpt>
      <trkpt lat="47.54844" lon="6.70169">
        <ele>361</ele>
        <time>2014-04-13T09:45:48Z</time>
      </trkpt>
      <trkpt lat="47.54842" lon="6.7016">
        <ele>361</ele>
        <time>2014-04-13T09:45:49Z</time>
      </trkpt>
      <trkpt lat="47.54835" lon="6.70109">
        <ele>361</ele>
        <time>2014-04-13T09:45:54Z</time>
      </trkpt>
      <trkpt lat="47.54836" lon="6.70098">
        <ele>361</ele>
        <time>2014-04-13T09:45:55Z</time>
      </trkpt>
      <trkpt lat="47.54837" lon="6.70088">
        <ele>360</ele>
        <time>2014-04-13T09:45:56Z</time>
      </trkpt>
      <trkpt lat="47.54837" lon="6.7008">
        <ele>360</ele>
        <time>2014-04-13T09:45:57Z</time>
      </trkpt>
      <trkpt lat="47.54836" lon="6.70073">
        <ele>359</ele>
        <time>2014-04-13T09:45:58Z</time>
      </trkpt>
      <trkpt lat="47.54834" lon="6.70067">
        <ele>359</ele>
        <time>2014-04-13T09:45:59Z</time>
      </trkpt>
      <trkpt lat="47.54831" lon="6.70062">
        <ele>359</ele>
        <time>2014-04-13T09:46:00Z</time>
      </trkpt>
      <trkpt lat="47.54826" lon="6.70057">
        <ele>359</ele>
        <time>2014-04-13T09:46:01Z</time>
      </trkpt>
      <trkpt lat="47.54808" lon="6.70033">
        <ele>358</ele>
        <time>2014-04-13T09:46:05Z</time>
      </trkpt>
      <trkpt lat="47.54807" lon="6.70023">
        <ele>358</ele>
        <time>2014-04-13T09:46:06Z</time>
      </trkpt>
      <trkpt lat="47.54808" lon="6.70013">
        <ele>357</ele>
        <time>2014-04-13T09:46:07Z</time>
      </trkpt>
      <trkpt lat="47.54808" lon="6.70002">
        <ele>357</ele>
        <time>2014-04-13T09:46:08Z</time>
      </trkpt>
      <trkpt lat="47.54807" lon="6.69991">
        <ele>356</ele>
        <time>2014-04-13T09:46:09Z</time>
      </trkpt>
      <trkpt lat="47.54803" lon="6.69983">
        <ele>356</ele>
        <time>2014-04-13T09:46:10Z</time>
      </trkpt>
      <trkpt lat="47.54799" lon="6.69974">
        <ele>356</ele>
        <time>2014-04-13T09:46:11Z</time>
      </trkpt>
      <trkpt lat="47.54796" lon="6.69966">
        <ele>355</ele>
        <time>2014-04-13T09:46:12Z</time>
      </trkpt>
      <trkpt lat="47.54794" lon="6.69958">
        <ele>355</ele>
        <time>2014-04-13T09:46:13Z</time>
      </trkpt>
      <trkpt lat="47.54794" lon="6.6995">
        <ele>354</ele>
        <time>2014-04-13T09:46:14Z</time>
      </trkpt>
      <trkpt lat="47.54795" lon="6.69942">
        <ele>354</ele>
        <time>2014-04-13T09:46:15Z</time>
      </trkpt>
      <trkpt lat="47.54797" lon="6.69934">
        <ele>354</ele>
        <time>2014-04-13T09:46:16Z</time>
      </trkpt>
      <trkpt lat="47.54804" lon="6.69896">
        <ele>354</ele>
        <time>2014-04-13T09:46:20Z</time>
      </trkpt>
      <trkpt lat="47.5481" lon="6.69833">
        <ele>354</ele>
        <time>2014-04-13T09:46:27Z</time>
      </trkpt>
      <trkpt lat="47.54818" lon="6.69764">
        <ele>354</ele>
        <time>2014-04-13T09:46:35Z</time>
      </trkpt>
      <trkpt lat="47.54825" lon="6.69732">
        <ele>354</ele>
        <time>2014-04-13T09:46:39Z</time>
      </trkpt>
      <trkpt lat="47.54824" lon="6.69724">
        <ele>354</ele>
        <time>2014-04-13T09:46:40Z</time>
      </trkpt>
      <trkpt lat="47.54814" lon="6.69704">
        <ele>354</ele>
        <time>2014-04-13T09:46:43Z</time>
      </trkpt>
      <trkpt lat="47.54806" lon="6.69683">
        <ele>354</ele>
        <time>2014-04-13T09:46:46Z</time>
      </trkpt>
      <trkpt lat="47.54807" lon="6.69676">
        <ele>354</ele>
        <time>2014-04-13T09:46:47Z</time>
      </trkpt>
      <trkpt lat="47.54813" lon="6.69654">
        <ele>354</ele>
        <time>2014-04-13T09:46:50Z</time>
      </trkpt>
      <trkpt lat="47.54825" lon="6.69618">
        <ele>354</ele>
        <time>2014-04-13T09:46:55Z</time>
      </trkpt>
      <trkpt lat="47.54838" lon="6.69593">
        <ele>355</ele>
        <time>2014-04-13T09:46:59Z</time>
      </trkpt>
      <trkpt lat="47.54841" lon="6.69588">
        <ele>355</ele>
        <time>2014-04-13T09:47:00Z</time>
      </trkpt>
      <trkpt lat="47.54844" lon="6.69582">
        <ele>356</ele>
        <time>2014-04-13T09:47:01Z</time>
      </trkpt>
      <trkpt lat="47.54847" lon="6.69577">
        <ele>356</ele>
        <time>2014-04-13T09:47:02Z</time>
      </trkpt>
      <trkpt lat="47.5485" lon="6.69573">
        <ele>356</ele>
        <time>2014-04-13T09:47:03Z</time>
      </trkpt>
      <trkpt lat="47.54856" lon="6.69566">
        <ele>356</ele>
        <time>2014-04-13T09:47:05Z</time>
      </trkpt>
      <trkpt lat="47.54864" lon="6.69544">
        <ele>356</ele>
        <time>2014-04-13T09:47:09Z</time>
      </trkpt>
      <trkpt lat="47.54867" lon="6.69539">
        <ele>356</ele>
        <time>2014-04-13T09:47:10Z</time>
      </trkpt>
      <trkpt lat="47.5487" lon="6.69536">
        <ele>357</ele>
        <time>2014-04-13T09:47:11Z</time>
      </trkpt>
      <trkpt lat="47.54873" lon="6.69532">
        <ele>357</ele>
        <time>2014-04-13T09:47:12Z</time>
      </trkpt>
      <trkpt lat="47.54874" lon="6.69527">
        <ele>358</ele>
        <time>2014-04-13T09:47:13Z</time>
      </trkpt>
      <trkpt lat="47.54875" lon="6.69523">
        <ele>358</ele>
        <time>2014-04-13T09:47:14Z</time>
      </trkpt>
      <trkpt lat="47.54876" lon="6.69519">
        <ele>359</ele>
        <time>2014-04-13T09:47:15Z</time>
      </trkpt>
      <trkpt lat="47.54877" lon="6.69515">
        <ele>359</ele>
        <time>2014-04-13T09:47:16Z</time>
      </trkpt>
      <trkpt lat="47.54879" lon="6.69511">
        <ele>359</ele>
        <time>2014-04-13T09:47:17Z</time>
      </trkpt>
      <trkpt lat="47.54881" lon="6.69508">
        <ele>359</ele>
        <time>2014-04-13T09:47:18Z</time>
      </trkpt>
      <trkpt lat="47.54884" lon="6.69505">
        <ele>360</ele>
        <time>2014-04-13T09:47:19Z</time>
      </trkpt>
      <trkpt lat="47.54887" lon="6.69502">
        <ele>360</ele>
        <time>2014-04-13T09:47:20Z</time>
      </trkpt>
      <trkpt lat="47.54889" lon="6.69498">
        <ele>361</ele>
        <time>2014-04-13T09:47:21Z</time>
      </trkpt>
      <trkpt lat="47.54896" lon="6.69489">
        <ele>361</ele>
        <time>2014-04-13T09:47:23Z</time>
      </trkpt>
      <trkpt lat="47.54899" lon="6.69485">
        <ele>361</ele>
        <time>2014-04-13T09:47:24Z</time>
      </trkpt>
      <trkpt lat="47.54902" lon="6.69481">
        <ele>361</ele>
        <time>2014-04-13T09:47:25Z</time>
      </trkpt>
      <trkpt lat="47.54904" lon="6.69476">
        <ele>362</ele>
        <time>2014-04-13T09:47:26Z</time>
      </trkpt>
      <trkpt lat="47.54906" lon="6.69471">
        <ele>362</ele>
        <time>2014-04-13T09:47:27Z</time>
      </trkpt>
      <trkpt lat="47.54909" lon="6.69466">
        <ele>363</ele>
        <time>2014-04-13T09:47:28Z</time>
      </trkpt>
      <trkpt lat="47.54916" lon="6.6945">
        <ele>363</ele>
        <time>2014-04-13T09:47:31Z</time>
      </trkpt>
      <trkpt lat="47.54922" lon="6.69431">
        <ele>363</ele>
        <time>2014-04-13T09:47:34Z</time>
      </trkpt>
      <trkpt lat="47.54926" lon="6.69405">
        <ele>363</ele>
        <time>2014-04-13T09:47:38Z</time>
      </trkpt>
      <trkpt lat="47.54927" lon="6.69379">
        <ele>363</ele>
        <time>2014-04-13T09:47:42Z</time>
      </trkpt>
      <trkpt lat="47.54926" lon="6.69366">
        <ele>363</ele>
        <time>2014-04-13T09:47:44Z</time>
      </trkpt>
      <trkpt lat="47.54926" lon="6.6936">
        <ele>364</ele>
        <time>2014-04-13T09:47:45Z</time>
      </trkpt>
      <trkpt lat="47.54926" lon="6.69354">
        <ele>364</ele>
        <time>2014-04-13T09:47:46Z</time>
      </trkpt>
      <trkpt lat="47.54925" lon="6.69348">
        <ele>364</ele>
        <time>2014-04-13T09:47:47Z</time>
      </trkpt>
      <trkpt lat="47.54925" lon="6.69341">
        <ele>365</ele>
        <time>2014-04-13T09:47:48Z</time>
      </trkpt>
      <trkpt lat="47.54924" lon="6.69316">
        <ele>365</ele>
        <time>2014-04-13T09:47:52Z</time>
      </trkpt>
      <trkpt lat="47.54921" lon="6.69284">
        <ele>365</ele>
        <time>2014-04-13T09:47:57Z</time>
      </trkpt>
      <trkpt lat="47.5492" lon="6.69279">
        <ele>366</ele>
        <time>2014-04-13T09:47:58Z</time>
      </trkpt>
      <trkpt lat="47.54919" lon="6.69273">
        <ele>366</ele>
        <time>2014-04-13T09:47:59Z</time>
      </trkpt>
      <trkpt lat="47.54918" lon="6.69267">
        <ele>367</ele>
        <time>2014-04-13T09:48:00Z</time>
      </trkpt>
      <trkpt lat="47.54916" lon="6.69262">
        <ele>367</ele>
        <time>2014-04-13T09:48:01Z</time>
      </trkpt>
      <trkpt lat="47.54909" lon="6.69243">
        <ele>367</ele>
        <time>2014-04-13T09:48:05Z</time>
      </trkpt>
      <trkpt lat="47.54907" lon="6.69238">
        <ele>367</ele>
        <time>2014-04-13T09:48:06Z</time>
      </trkpt>
      <trkpt lat="47.54905" lon="6.69234">
        <ele>368</ele>
        <time>2014-04-13T09:48:07Z</time>
      </trkpt>
      <trkpt lat="47.54904" lon="6.6923">
        <ele>368</ele>
        <time>2014-04-13T09:48:08Z</time>
      </trkpt>
      <trkpt lat="47.54902" lon="6.69226">
        <ele>369</ele>
        <time>2014-04-13T09:48:09Z</time>
      </trkpt>
      <trkpt lat="47.549" lon="6.69222">
        <ele>369</ele>
        <time>2014-04-13T09:48:10Z</time>
      </trkpt>
      <trkpt lat="47.54897" lon="6.69214">
        <ele>370</ele>
        <time>2014-04-13T09:48:12Z</time>
      </trkpt>
      <trkpt lat="47.54895" lon="6.6921">
        <ele>370</ele>
        <time>2014-04-13T09:48:13Z</time>
      </trkpt>
      <trkpt lat="47.54893" lon="6.69206">
        <ele>370</ele>
        <time>2014-04-13T09:48:14Z</time>
      </trkpt>
      <trkpt lat="47.54891" lon="6.69202">
        <ele>371</ele>
        <time>2014-04-13T09:48:15Z</time>
      </trkpt>
      <trkpt lat="47.54889" lon="6.69199">
        <ele>371</ele>
        <time>2014-04-13T09:48:16Z</time>
      </trkpt>
      <trkpt lat="47.54882" lon="6.69191">
        <ele>372</ele>
        <time>2014-04-13T09:48:19Z</time>
      </trkpt>
      <trkpt lat="47.5488" lon="6.69188">
        <ele>372</ele>
        <time>2014-04-13T09:48:20Z</time>
      </trkpt>
      <trkpt lat="47.54877" lon="6.69186">
        <ele>373</ele>
        <time>2014-04-13T09:48:21Z</time>
      </trkpt>
      <trkpt lat="47.54874" lon="6.69184">
        <ele>373</ele>
        <time>2014-04-13T09:48:22Z</time>
      </trkpt>
      <trkpt lat="47.54872" lon="6.69182">
        <ele>374</ele>
        <time>2014-04-13T09:48:23Z</time>
      </trkpt>
      <trkpt lat="47.54865" lon="6.69175">
        <ele>374</ele>
        <time>2014-04-13T09:48:26Z</time>
      </trkpt>
      <trkpt lat="47.54862" lon="6.69172">
        <ele>374</ele>
        <time>2014-04-13T09:48:27Z</time>
      </trkpt>
      <trkpt lat="47.54859" lon="6.6917">
        <ele>375</ele>
        <time>2014-04-13T09:48:28Z</time>
      </trkpt>
      <trkpt lat="47.54856" lon="6.69167">
        <ele>375</ele>
        <time>2014-04-13T09:48:29Z</time>
      </trkpt>
      <trkpt lat="47.54854" lon="6.69165">
        <ele>376</ele>
        <time>2014-04-13T09:48:30Z</time>
      </trkpt>
      <trkpt lat="47.54843" lon="6.69154">
        <ele>376</ele>
        <time>2014-04-13T09:48:34Z</time>
      </trkpt>
      <trkpt lat="47.5484" lon="6.69151">
        <ele>376</ele>
        <time>2014-04-13T09:48:35Z</time>
      </trkpt>
      <trkpt lat="47.54837" lon="6.69148">
        <ele>376</ele>
        <time>2014-04-13T09:48:36Z</time>
      </trkpt>
      <trkpt lat="47.54835" lon="6.69145">
        <ele>377</ele>
        <time>2014-04-13T09:48:37Z</time>
      </trkpt>
      <trkpt lat="47.54833" lon="6.69142">
        <ele>377</ele>
        <time>2014-04-13T09:48:38Z</time>
      </trkpt>
      <trkpt lat="47.5483" lon="6.69138">
        <ele>378</ele>
        <time>2014-04-13T09:48:39Z</time>
      </trkpt>
      <trkpt lat="47.54823" lon="6.69127">
        <ele>378</ele>
        <time>2014-04-13T09:48:42Z</time>
      </trkpt>
      <trkpt lat="47.54815" lon="6.69109">
        <ele>378</ele>
        <time>2014-04-13T09:48:46Z</time>
      </trkpt>
      <trkpt lat="47.54813" lon="6.69103">
        <ele>378</ele>
        <time>2014-04-13T09:48:47Z</time>
      </trkpt>
      <trkpt lat="47.54811" lon="6.69098">
        <ele>379</ele>
        <time>2014-04-13T09:48:48Z</time>
      </trkpt>
      <trkpt lat="47.5481" lon="6.69092">
        <ele>379</ele>
        <time>2014-04-13T09:48:49Z</time>
      </trkpt>
      <trkpt lat="47.54808" lon="6.69087">
        <ele>380</ele>
        <time>2014-04-13T09:48:50Z</time>
      </trkpt>
      <trkpt lat="47.54797" lon="6.69055">
        <ele>380</ele>
        <time>2014-04-13T09:48:56Z</time>
      </trkpt>
      <trkpt lat="47.54784" lon="6.69011">
        <ele>380</ele>
        <time>2014-04-13T09:49:03Z</time>
      </trkpt>
      <trkpt lat="47.54771" lon="6.68969">
        <ele>380</ele>
        <time>2014-04-13T09:49:09Z</time>
      </trkpt>
      <trkpt lat="47.54759" lon="6.68924">
        <ele>380</ele>
        <time>2014-04-13T09:49:15Z</time>
      </trkpt>
      <trkpt lat="47.5475" lon="6.68884">
        <ele>380</ele>
        <time>2014-04-13T09:49:21Z</time>
      </trkpt>
      <trkpt lat="47.54747" lon="6.68879">
        <ele>380</ele>
        <time>2014-04-13T09:49:22Z</time>
      </trkpt>
      <trkpt lat="47.54745" lon="6.68875">
        <ele>380</ele>
        <time>2014-04-13T09:49:23Z</time>
      </trkpt>
      <trkpt lat="47.54742" lon="6.6887">
        <ele>381</ele>
        <time>2014-04-13T09:49:24Z</time>
      </trkpt>
      <trkpt lat="47.54739" lon="6.68865">
        <ele>381</ele>
        <time>2014-04-13T09:49:25Z</time>
      </trkpt>
      <trkpt lat="47.54737" lon="6.6886">
        <ele>382</ele>
        <time>2014-04-13T09:49:26Z</time>
      </trkpt>
      <trkpt lat="47.54734" lon="6.68855">
        <ele>382</ele>
        <time>2014-04-13T09:49:27Z</time>
      </trkpt>
      <trkpt lat="47.5472" lon="6.68831">
        <ele>382</ele>
        <time>2014-04-13T09:49:32Z</time>
      </trkpt>
      <trkpt lat="47.54708" lon="6.68806">
        <ele>382</ele>
        <time>2014-04-13T09:49:37Z</time>
      </trkpt>
      <trkpt lat="47.54705" lon="6.68802">
        <ele>383</ele>
        <time>2014-04-13T09:49:38Z</time>
      </trkpt>
      <trkpt lat="47.54702" lon="6.68797">
        <ele>383</ele>
        <time>2014-04-13T09:49:39Z</time>
      </trkpt>
      <trkpt lat="47.54699" lon="6.68792">
        <ele>384</ele>
        <time>2014-04-13T09:49:40Z</time>
      </trkpt>
      <trkpt lat="47.54696" lon="6.68787">
        <ele>384</ele>
        <time>2014-04-13T09:49:41Z</time>
      </trkpt>
      <trkpt lat="47.54679" lon="6.68759">
        <ele>384</ele>
        <time>2014-04-13T09:49:47Z</time>
      </trkpt>
      <trkpt lat="47.54665" lon="6.68735">
        <ele>384</ele>
        <time>2014-04-13T09:49:52Z</time>
      </trkpt>
      <trkpt lat="47.54662" lon="6.68731">
        <ele>384</ele>
        <time>2014-04-13T09:49:53Z</time>
      </trkpt>
      <trkpt lat="47.54655" lon="6.68724">
        <ele>385</ele>
        <time>2014-04-13T09:49:55Z</time>
      </trkpt>
      <trkpt lat="47.54652" lon="6.6872">
        <ele>385</ele>
        <time>2014-04-13T09:49:56Z</time>
      </trkpt>
      <trkpt lat="47.54649" lon="6.68716">
        <ele>386</ele>
        <time>2014-04-13T09:49:57Z</time>
      </trkpt>
      <trkpt lat="47.54646" lon="6.68713">
        <ele>387</ele>
        <time>2014-04-13T09:49:58Z</time>
      </trkpt>
      <trkpt lat="47.5464" lon="6.68707">
        <ele>387</ele>
        <time>2014-04-13T09:50:00Z</time>
      </trkpt>
      <trkpt lat="47.54637" lon="6.68704">
        <ele>387</ele>
        <time>2014-04-13T09:50:01Z</time>
      </trkpt>
      <trkpt lat="47.54627" lon="6.68693">
        <ele>387</ele>
        <time>2014-04-13T09:50:04Z</time>
      </trkpt>
      <trkpt lat="47.54624" lon="6.68689">
        <ele>388</ele>
        <time>2014-04-13T09:50:05Z</time>
      </trkpt>
      <trkpt lat="47.5462" lon="6.68686">
        <ele>388</ele>
        <time>2014-04-13T09:50:06Z</time>
      </trkpt>
      <trkpt lat="47.54616" lon="6.68683">
        <ele>388</ele>
        <time>2014-04-13T09:50:07Z</time>
      </trkpt>
      <trkpt lat="47.54612" lon="6.6868">
        <ele>389</ele>
        <time>2014-04-13T09:50:08Z</time>
      </trkpt>
      <trkpt lat="47.54589" lon="6.68662">
        <ele>389</ele>
        <time>2014-04-13T09:50:14Z</time>
      </trkpt>
      <trkpt lat="47.54551" lon="6.68635">
        <ele>389</ele>
        <time>2014-04-13T09:50:23Z</time>
      </trkpt>
      <trkpt lat="47.54524" lon="6.68622">
        <ele>389</ele>
        <time>2014-04-13T09:50:28Z</time>
      </trkpt>
      <trkpt lat="47.54518" lon="6.6862">
        <ele>389</ele>
        <time>2014-04-13T09:50:29Z</time>
      </trkpt>
      <trkpt lat="47.545" lon="6.68613">
        <ele>389</ele>
        <time>2014-04-13T09:50:32Z</time>
      </trkpt>
      <trkpt lat="47.54489" lon="6.68607">
        <ele>389</ele>
        <time>2014-04-13T09:50:34Z</time>
      </trkpt>
      <trkpt lat="47.54475" lon="6.68598">
        <ele>389</ele>
        <time>2014-04-13T09:50:37Z</time>
      </trkpt>
      <trkpt lat="47.54471" lon="6.68586">
        <ele>389</ele>
        <time>2014-04-13T09:50:39Z</time>
      </trkpt>
      <trkpt lat="47.54473" lon="6.68565">
        <ele>389</ele>
        <time>2014-04-13T09:50:42Z</time>
      </trkpt>
      <trkpt lat="47.54474" lon="6.68556">
        <ele>389</ele>
        <time>2014-04-13T09:50:43Z</time>
      </trkpt>
      <trkpt lat="47.5448" lon="6.6852">
        <ele>389</ele>
        <time>2014-04-13T09:50:47Z</time>
      </trkpt>
      <trkpt lat="47.5449" lon="6.68465">
        <ele>389</ele>
        <time>2014-04-13T09:50:54Z</time>
      </trkpt>
      <trkpt lat="47.54498" lon="6.68412">
        <ele>389</ele>
        <time>2014-04-13T09:51:01Z</time>
      </trkpt>
      <trkpt lat="47.54501" lon="6.68398">
        <ele>389</ele>
        <time>2014-04-13T09:51:03Z</time>
      </trkpt>
      <trkpt lat="47.54508" lon="6.68358">
        <ele>389</ele>
        <time>2014-04-13T09:51:09Z</time>
      </trkpt>
      <trkpt lat="47.54514" lon="6.6833">
        <ele>389</ele>
        <time>2014-04-13T09:51:14Z</time>
      </trkpt>
      <trkpt lat="47.54515" lon="6.68325">
        <ele>390</ele>
        <time>2014-04-13T09:51:15Z</time>
      </trkpt>
      <trkpt lat="47.54516" lon="6.68319">
        <ele>390</ele>
        <time>2014-04-13T09:51:16Z</time>
      </trkpt>
      <trkpt lat="47.54518" lon="6.68313">
        <ele>391</ele>
        <time>2014-04-13T09:51:17Z</time>
      </trkpt>
      <trkpt lat="47.54519" lon="6.68307">
        <ele>391</ele>
        <time>2014-04-13T09:51:18Z</time>
      </trkpt>
      <trkpt lat="47.54523" lon="6.6829">
        <ele>391</ele>
        <time>2014-04-13T09:51:21Z</time>
      </trkpt>
      <trkpt lat="47.54524" lon="6.68285">
        <ele>391</ele>
        <time>2014-04-13T09:51:22Z</time>
      </trkpt>
      <trkpt lat="47.54526" lon="6.68279">
        <ele>392</ele>
        <time>2014-04-13T09:51:23Z</time>
      </trkpt>
      <trkpt lat="47.54527" lon="6.68274">
        <ele>392</ele>
        <time>2014-04-13T09:51:24Z</time>
      </trkpt>
      <trkpt lat="47.54528" lon="6.68269">
        <ele>393</ele>
        <time>2014-04-13T09:51:25Z</time>
      </trkpt>
      <trkpt lat="47.5453" lon="6.68263">
        <ele>393</ele>
        <time>2014-04-13T09:51:26Z</time>
      </trkpt>
      <trkpt lat="47.54534" lon="6.68246">
        <ele>393</ele>
        <time>2014-04-13T09:51:29Z</time>
      </trkpt>
      <trkpt lat="47.54541" lon="6.68218">
        <ele>394</ele>
        <time>2014-04-13T09:51:34Z</time>
      </trkpt>
      <trkpt lat="47.54543" lon="6.68213">
        <ele>395</ele>
        <time>2014-04-13T09:51:35Z</time>
      </trkpt>
      <trkpt lat="47.54544" lon="6.68208">
        <ele>395</ele>
        <time>2014-04-13T09:51:36Z</time>
      </trkpt>
      <trkpt lat="47.54546" lon="6.68203">
        <ele>395</ele>
        <time>2014-04-13T09:51:37Z</time>
      </trkpt>
      <trkpt lat="47.54553" lon="6.68176">
        <ele>395</ele>
        <time>2014-04-13T09:51:42Z</time>
      </trkpt>
      <trkpt lat="47.54556" lon="6.68165">
        <ele>396</ele>
        <time>2014-04-13T09:51:44Z</time>
      </trkpt>
      <trkpt lat="47.54558" lon="6.68159">
        <ele>396</ele>
        <time>2014-04-13T09:51:45Z</time>
      </trkpt>
      <trkpt lat="47.54559" lon="6.68154">
        <ele>397</ele>
        <time>2014-04-13T09:51:46Z</time>
      </trkpt>
      <trkpt lat="47.54561" lon="6.68149">
        <ele>397</ele>
        <time>2014-04-13T09:51:47Z</time>
      </trkpt>
      <trkpt lat="47.54563" lon="6.68144">
        <ele>397</ele>
        <time>2014-04-13T09:51:48Z</time>
      </trkpt>
      <trkpt lat="47.54566" lon="6.68134">
        <ele>397</ele>
        <time>2014-04-13T09:51:50Z</time>
      </trkpt>
      <trkpt lat="47.54576" lon="6.68101">
        <ele>397</ele>
        <time>2014-04-13T09:51:57Z</time>
      </trkpt>
      <trkpt lat="47.54577" lon="6.68096">
        <ele>398</ele>
        <time>2014-04-13T09:51:58Z</time>
      </trkpt>
      <trkpt lat="47.54579" lon="6.6809">
        <ele>398</ele>
        <time>2014-04-13T09:51:59Z</time>
      </trkpt>
      <trkpt lat="47.5458" lon="6.68085">
        <ele>399</ele>
        <time>2014-04-13T09:52:00Z</time>
      </trkpt>
      <trkpt lat="47.54581" lon="6.6808">
        <ele>400</ele>
        <time>2014-04-13T09:52:01Z</time>
      </trkpt>
      <trkpt lat="47.54584" lon="6.6806">
        <ele>400</ele>
        <time>2014-04-13T09:52:05Z</time>
      </trkpt>
      <trkpt lat="47.54586" lon="6.68044">
        <ele>400</ele>
        <time>2014-04-13T09:52:08Z</time>
      </trkpt>
      <trkpt lat="47.54587" lon="6.68038">
        <ele>400</ele>
        <time>2014-04-13T09:52:09Z</time>
      </trkpt>
      <trkpt lat="47.54588" lon="6.68033">
        <ele>401</ele>
        <time>2014-04-13T09:52:10Z</time>
      </trkpt>
      <trkpt lat="47.54589" lon="6.68029">
        <ele>401</ele>
        <time>2014-04-13T09:52:11Z</time>
      </trkpt>
      <trkpt lat="47.54589" lon="6.68024">
        <ele>402</ele>
        <time>2014-04-13T09:52:12Z</time>
      </trkpt>
      <trkpt lat="47.5459" lon="6.68014">
        <ele>402</ele>
        <time>2014-04-13T09:52:14Z</time>
      </trkpt>
      <trkpt lat="47.54592" lon="6.67997">
        <ele>402</ele>
        <time>2014-04-13T09:52:17Z</time>
      </trkpt>
      <trkpt lat="47.54592" lon="6.67992">
        <ele>402</ele>
        <time>2014-04-13T09:52:18Z</time>
      </trkpt>
      <trkpt lat="47.54593" lon="6.67987">
        <ele>403</ele>
        <time>2014-04-13T09:52:19Z</time>
      </trkpt>
      <trkpt lat="47.54593" lon="6.67982">
        <ele>403</ele>
        <time>2014-04-13T09:52:20Z</time>
      </trkpt>
      <trkpt lat="47.54595" lon="6.67977">
        <ele>404</ele>
        <time>2014-04-13T09:52:21Z</time>
      </trkpt>
      <trkpt lat="47.54606" lon="6.67969">
        <ele>404</ele>
        <time>2014-04-13T09:52:25Z</time>
      </trkpt>
      <trkpt lat="47.54613" lon="6.67971">
        <ele>404</ele>
        <time>2014-04-13T09:52:27Z</time>
      </trkpt>
      <trkpt lat="47.54617" lon="6.67972">
        <ele>405</ele>
        <time>2014-04-13T09:52:28Z</time>
      </trkpt>
      <trkpt lat="47.5462" lon="6.67973">
        <ele>405</ele>
        <time>2014-04-13T09:52:29Z</time>
      </trkpt>
      <trkpt lat="47.54624" lon="6.67974">
        <ele>405</ele>
        <time>2014-04-13T09:52:30Z</time>
      </trkpt>
      <trkpt lat="47.54627" lon="6.67975">
        <ele>406</ele>
        <time>2014-04-13T09:52:31Z</time>
      </trkpt>
      <trkpt lat="47.54651" lon="6.67984">
        <ele>406</ele>
        <time>2014-04-13T09:52:38Z</time>
      </trkpt>
      <trkpt lat="47.54657" lon="6.67987">
        <ele>406</ele>
        <time>2014-04-13T09:52:40Z</time>
      </trkpt>
      <trkpt lat="47.5466" lon="6.67987">
        <ele>407</ele>
        <time>2014-04-13T09:52:41Z</time>
      </trkpt>
      <trkpt lat="47.54663" lon="6.67988">
        <ele>407</ele>
        <time>2014-04-13T09:52:42Z</time>
      </trkpt>
      <trkpt lat="47.54666" lon="6.6799">
        <ele>407</ele>
        <time>2014-04-13T09:52:43Z</time>
      </trkpt>
      <trkpt lat="47.54669" lon="6.67992">
        <ele>408</ele>
        <time>2014-04-13T09:52:44Z</time>
      </trkpt>
      <trkpt lat="47.54687" lon="6.68002">
        <ele>409</ele>
        <time>2014-04-13T09:52:50Z</time>
      </trkpt>
      <trkpt lat="47.5469" lon="6.68004">
        <ele>409</ele>
        <time>2014-04-13T09:52:51Z</time>
      </trkpt>
      <trkpt lat="47.54693" lon="6.68006">
        <ele>410</ele>
        <time>2014-04-13T09:52:52Z</time>
      </trkpt>
      <trkpt lat="47.54697" lon="6.68007">
        <ele>410</ele>
        <time>2014-04-13T09:52:53Z</time>
      </trkpt>
      <trkpt lat="47.54708" lon="6.68013">
        <ele>410</ele>
        <time>2014-04-13T09:52:57Z</time>
      </trkpt>
      <trkpt lat="47.54728" lon="6.68025">
        <ele>410</ele>
        <time>2014-04-13T09:53:03Z</time>
      </trkpt>
      <trkpt lat="47.54731" lon="6.68027">
        <ele>410</ele>
        <time>2014-04-13T09:53:04Z</time>
      </trkpt>
      <trkpt lat="47.54734" lon="6.6803">
        <ele>411</ele>
        <time>2014-04-13T09:53:05Z</time>
      </trkpt>
      <trkpt lat="47.54737" lon="6.68032">
        <ele>411</ele>
        <time>2014-04-13T09:53:06Z</time>
      </trkpt>
      <trkpt lat="47.54739" lon="6.68035">
        <ele>412</ele>
        <time>2014-04-13T09:53:07Z</time>
      </trkpt>
      <trkpt lat="47.54741" lon="6.68039">
        <ele>412</ele>
        <time>2014-04-13T09:53:08Z</time>
      </trkpt>
      <trkpt lat="47.54742" lon="6.68045">
        <ele>412</ele>
        <time>2014-04-13T09:53:09Z</time>
      </trkpt>
      <trkpt lat="47.54742" lon="6.6806">
        <ele>412</ele>
        <time>2014-04-13T09:53:11Z</time>
      </trkpt>
      <trkpt lat="47.54751" lon="6.68088">
        <ele>412</ele>
        <time>2014-04-13T09:53:15Z</time>
      </trkpt>
      <trkpt lat="47.5476" lon="6.68097">
        <ele>412</ele>
        <time>2014-04-13T09:53:17Z</time>
      </trkpt>
      <trkpt lat="47.54768" lon="6.68106">
        <ele>412</ele>
        <time>2014-04-13T09:53:19Z</time>
      </trkpt>
      <trkpt lat="47.54796" lon="6.68128">
        <ele>412</ele>
        <time>2014-04-13T09:53:26Z</time>
      </trkpt>
      <trkpt lat="47.54808" lon="6.68142">
        <ele>412</ele>
        <time>2014-04-13T09:53:30Z</time>
      </trkpt>
      <trkpt lat="47.54811" lon="6.68147">
        <ele>412</ele>
        <time>2014-04-13T09:53:31Z</time>
      </trkpt>
      <trkpt lat="47.54821" lon="6.68167">
        <ele>412</ele>
        <time>2014-04-13T09:53:35Z</time>
      </trkpt>
      <trkpt lat="47.54834" lon="6.6819">
        <ele>412</ele>
        <time>2014-04-13T09:53:40Z</time>
      </trkpt>
      <trkpt lat="47.54841" lon="6.68186">
        <ele>412</ele>
        <time>2014-04-13T09:53:43Z</time>
      </trkpt>
      <trkpt lat="47.54843" lon="6.68183">
        <ele>413</ele>
        <time>2014-04-13T09:53:45Z</time>
      </trkpt>
      <trkpt lat="47.54845" lon="6.68181">
        <ele>413</ele>
        <time>2014-04-13T09:53:46Z</time>
      </trkpt>
      <trkpt lat="47.54847" lon="6.68178">
        <ele>413</ele>
        <time>2014-04-13T09:53:47Z</time>
      </trkpt>
      <trkpt lat="47.54849" lon="6.68176">
        <ele>414</ele>
        <time>2014-04-13T09:53:48Z</time>
      </trkpt>
      <trkpt lat="47.54851" lon="6.68173">
        <ele>414</ele>
        <time>2014-04-13T09:53:49Z</time>
      </trkpt>
      <trkpt lat="47.54855" lon="6.6817">
        <ele>414</ele>
        <time>2014-04-13T09:53:51Z</time>
      </trkpt>
      <trkpt lat="47.54859" lon="6.68164">
        <ele>415</ele>
        <time>2014-04-13T09:53:53Z</time>
      </trkpt>
      <trkpt lat="47.54861" lon="6.68162">
        <ele>415</ele>
        <time>2014-04-13T09:53:54Z</time>
      </trkpt>
      <trkpt lat="47.54862" lon="6.68159">
        <ele>415</ele>
        <time>2014-04-13T09:53:55Z</time>
      </trkpt>
      <trkpt lat="47.54863" lon="6.68157">
        <ele>416</ele>
        <time>2014-04-13T09:53:56Z</time>
      </trkpt>
      <trkpt lat="47.54864" lon="6.68154">
        <ele>416</ele>
        <time>2014-04-13T09:53:57Z</time>
      </trkpt>
      <trkpt lat="47.54868" lon="6.68147">
        <ele>416</ele>
        <time>2014-04-13T09:54:00Z</time>
      </trkpt>
      <trkpt lat="47.54868" lon="6.68144">
        <ele>417</ele>
        <time>2014-04-13T09:54:01Z</time>
      </trkpt>
      <trkpt lat="47.54869" lon="6.68141">
        <ele>417</ele>
        <time>2014-04-13T09:54:02Z</time>
      </trkpt>
      <trkpt lat="47.54869" lon="6.68138">
        <ele>418</ele>
        <time>2014-04-13T09:54:03Z</time>
      </trkpt>
      <trkpt lat="47.5487" lon="6.68135">
        <ele>418</ele>
        <time>2014-04-13T09:54:04Z</time>
      </trkpt>
      <trkpt lat="47.54872" lon="6.68129">
        <ele>418</ele>
        <time>2014-04-13T09:54:06Z</time>
      </trkpt>
      <trkpt lat="47.54877" lon="6.68122">
        <ele>419</ele>
        <time>2014-04-13T09:54:09Z</time>
      </trkpt>
      <trkpt lat="47.54878" lon="6.68119">
        <ele>419</ele>
        <time>2014-04-13T09:54:10Z</time>
      </trkpt>
      <trkpt lat="47.54879" lon="6.68115">
        <ele>420</ele>
        <time>2014-04-13T09:54:11Z</time>
      </trkpt>
      <trkpt lat="47.5488" lon="6.68113">
        <ele>420</ele>
        <time>2014-04-13T09:54:12Z</time>
      </trkpt>
      <trkpt lat="47.54882" lon="6.6811">
        <ele>421</ele>
        <time>2014-04-13T09:54:13Z</time>
      </trkpt>
      <trkpt lat="47.54886" lon="6.68101">
        <ele>421</ele>
        <time>2014-04-13T09:54:17Z</time>
      </trkpt>
      <trkpt lat="47.54887" lon="6.68098">
        <ele>421</ele>
        <time>2014-04-13T09:54:18Z</time>
      </trkpt>
      <trkpt lat="47.54888" lon="6.68096">
        <ele>422</ele>
        <time>2014-04-13T09:54:19Z</time>
      </trkpt>
      <trkpt lat="47.54889" lon="6.68093">
        <ele>422</ele>
        <time>2014-04-13T09:54:20Z</time>
      </trkpt>
      <trkpt lat="47.5489" lon="6.6809">
        <ele>422</ele>
        <time>2014-04-13T09:54:21Z</time>
      </trkpt>
      <trkpt lat="47.54891" lon="6.68088">
        <ele>423</ele>
        <time>2014-04-13T09:54:22Z</time>
      </trkpt>
      <trkpt lat="47.54893" lon="6.68082">
        <ele>423</ele>
        <time>2014-04-13T09:54:24Z</time>
      </trkpt>
      <trkpt lat="47.54895" lon="6.68073">
        <ele>423</ele>
        <time>2014-04-13T09:54:27Z</time>
      </trkpt>
      <trkpt lat="47.54897" lon="6.6807">
        <ele>423</ele>
        <time>2014-04-13T09:54:28Z</time>
      </trkpt>
      <trkpt lat="47.54898" lon="6.68067">
        <ele>424</ele>
        <time>2014-04-13T09:54:29Z</time>
      </trkpt>
      <trkpt lat="47.549" lon="6.68063">
        <ele>424</ele>
        <time>2014-04-13T09:54:30Z</time>
      </trkpt>
      <trkpt lat="47.54901" lon="6.68059">
        <ele>425</ele>
        <time>2014-04-13T09:54:31Z</time>
      </trkpt>
      <trkpt lat="47.54907" lon="6.68048">
        <ele>425</ele>
        <time>2014-04-13T09:54:36Z</time>
      </trkpt>
      <trkpt lat="47.54909" lon="6.68045">
        <ele>426</ele>
        <time>2014-04-13T09:54:37Z</time>
      </trkpt>
      <trkpt lat="47.5491" lon="6.68043">
        <ele>426</ele>
        <time>2014-04-13T09:54:38Z</time>
      </trkpt>
      <trkpt lat="47.54912" lon="6.6804">
        <ele>427</ele>
        <time>2014-04-13T09:54:39Z</time>
      </trkpt>
      <trkpt lat="47.54914" lon="6.68037">
        <ele>427</ele>
        <time>2014-04-13T09:54:40Z</time>
      </trkpt>
      <trkpt lat="47.54916" lon="6.68032">
        <ele>427</ele>
        <time>2014-04-13T09:54:42Z</time>
      </trkpt>
      <trkpt lat="47.5492" lon="6.68025">
        <ele>427</ele>
        <time>2014-04-13T09:54:45Z</time>
      </trkpt>
      <trkpt lat="47.54921" lon="6.68023">
        <ele>428</ele>
        <time>2014-04-13T09:54:46Z</time>
      </trkpt>
      <trkpt lat="47.54921" lon="6.68021">
        <ele>428</ele>
        <time>2014-04-13T09:54:47Z</time>
      </trkpt>
      <trkpt lat="47.54922" lon="6.68019">
        <ele>429</ele>
        <time>2014-04-13T09:54:48Z</time>
      </trkpt>
      <trkpt lat="47.54922" lon="6.68018">
        <ele>429</ele>
        <time>2014-04-13T09:54:49Z</time>
      </trkpt>
      <trkpt lat="47.54925" lon="6.68013">
        <ele>429</ele>
        <time>2014-04-13T09:54:51Z</time>
      </trkpt>
      <trkpt lat="47.54926" lon="6.6801">
        <ele>429</ele>
        <time>2014-04-13T09:54:52Z</time>
      </trkpt>
      <trkpt lat="47.54928" lon="6.68006">
        <ele>430</ele>
        <time>2014-04-13T09:54:54Z</time>
      </trkpt>
      <trkpt lat="47.54929" lon="6.68004">
        <ele>430</ele>
        <time>2014-04-13T09:54:55Z</time>
      </trkpt>
      <trkpt lat="47.54931" lon="6.68001">
        <ele>430</ele>
        <time>2014-04-13T09:54:56Z</time>
      </trkpt>
      <trkpt lat="47.54932" lon="6.68">
        <ele>431</ele>
        <time>2014-04-13T09:54:57Z</time>
      </trkpt>
      <trkpt lat="47.54933" lon="6.67997">
        <ele>431</ele>
        <time>2014-04-13T09:54:58Z</time>
      </trkpt>
      <trkpt lat="47.54935" lon="6.67992">
        <ele>431</ele>
        <time>2014-04-13T09:55:00Z</time>
      </trkpt>
      <trkpt lat="47.54937" lon="6.67986">
        <ele>432</ele>
        <time>2014-04-13T09:55:02Z</time>
      </trkpt>
      <trkpt lat="47.54938" lon="6.67984">
        <ele>432</ele>
        <time>2014-04-13T09:55:03Z</time>
      </trkpt>
      <trkpt lat="47.54939" lon="6.67982">
        <ele>432</ele>
        <time>2014-04-13T09:55:04Z</time>
      </trkpt>
      <trkpt lat="47.54939" lon="6.67981">
        <ele>433</ele>
        <time>2014-04-13T09:55:05Z</time>
      </trkpt>
      <trkpt lat="47.5494" lon="6.67979">
        <ele>433</ele>
        <time>2014-04-13T09:55:06Z</time>
      </trkpt>
      <trkpt lat="47.54946" lon="6.67967">
        <ele>433</ele>
        <time>2014-04-13T09:55:11Z</time>
      </trkpt>
      <trkpt lat="47.54948" lon="6.67962">
        <ele>434</ele>
        <time>2014-04-13T09:55:13Z</time>
      </trkpt>
      <trkpt lat="47.54949" lon="6.67959">
        <ele>434</ele>
        <time>2014-04-13T09:55:14Z</time>
      </trkpt>
      <trkpt lat="47.5495" lon="6.67958">
        <ele>434</ele>
        <time>2014-04-13T09:55:15Z</time>
      </trkpt>
      <trkpt lat="47.54951" lon="6.67956">
        <ele>435</ele>
        <time>2014-04-13T09:55:16Z</time>
      </trkpt>
      <trkpt lat="47.54951" lon="6.67954">
        <ele>435</ele>
        <time>2014-04-13T09:55:17Z</time>
      </trkpt>
      <trkpt lat="47.54955" lon="6.67939">
        <ele>436</ele>
        <time>2014-04-13T09:55:23Z</time>
      </trkpt>
      <trkpt lat="47.54956" lon="6.67937">
        <ele>436</ele>
        <time>2014-04-13T09:55:24Z</time>
      </trkpt>
      <trkpt lat="47.54956" lon="6.67935">
        <ele>437</ele>
        <time>2014-04-13T09:55:25Z</time>
      </trkpt>
      <trkpt lat="47.54957" lon="6.67932">
        <ele>437</ele>
        <time>2014-04-13T09:55:26Z</time>
      </trkpt>
      <trkpt lat="47.54958" lon="6.67929">
        <ele>437</ele>
        <time>2014-04-13T09:55:27Z</time>
      </trkpt>
      <trkpt lat="47.54964" lon="6.67921">
        <ele>437</ele>
        <time>2014-04-13T09:55:31Z</time>
      </trkpt>
      <trkpt lat="47.54966" lon="6.67914">
        <ele>438</ele>
        <time>2014-04-13T09:55:33Z</time>
      </trkpt>
      <trkpt lat="47.54967" lon="6.67911">
        <ele>438</ele>
        <time>2014-04-13T09:55:34Z</time>
      </trkpt>
      <trkpt lat="47.54968" lon="6.67908">
        <ele>439</ele>
        <time>2014-04-13T09:55:35Z</time>
      </trkpt>
      <trkpt lat="47.5497" lon="6.67904">
        <ele>439</ele>
        <time>2014-04-13T09:55:36Z</time>
      </trkpt>
      <trkpt lat="47.54971" lon="6.67902">
        <ele>439</ele>
        <time>2014-04-13T09:55:37Z</time>
      </trkpt>
      <trkpt lat="47.54976" lon="6.67888">
        <ele>439</ele>
        <time>2014-04-13T09:55:41Z</time>
      </trkpt>
      <trkpt lat="47.54978" lon="6.67884">
        <ele>440</ele>
        <time>2014-04-13T09:55:43Z</time>
      </trkpt>
      <trkpt lat="47.5498" lon="6.67882">
        <ele>440</ele>
        <time>2014-04-13T09:55:44Z</time>
      </trkpt>
      <trkpt lat="47.54981" lon="6.6788">
        <ele>441</ele>
        <time>2014-04-13T09:55:45Z</time>
      </trkpt>
      <trkpt lat="47.54982" lon="6.67877">
        <ele>441</ele>
        <time>2014-04-13T09:55:46Z</time>
      </trkpt>
      <trkpt lat="47.54983" lon="6.67874">
        <ele>442</ele>
        <time>2014-04-13T09:55:47Z</time>
      </trkpt>
      <trkpt lat="47.54986" lon="6.67869">
        <ele>442</ele>
        <time>2014-04-13T09:55:50Z</time>
      </trkpt>
      <trkpt lat="47.54988" lon="6.67864">
        <ele>442</ele>
        <time>2014-04-13T09:55:52Z</time>
      </trkpt>
      <trkpt lat="47.54989" lon="6.67858">
        <ele>442</ele>
        <time>2014-04-13T09:55:55Z</time>
      </trkpt>
      <trkpt lat="47.5499" lon="6.67855">
        <ele>442</ele>
        <time>2014-04-13T09:55:56Z</time>
      </trkpt>
      <trkpt lat="47.54991" lon="6.67852">
        <ele>443</ele>
        <time>2014-04-13T09:55:57Z</time>
      </trkpt>
      <trkpt lat="47.54991" lon="6.6785">
        <ele>443</ele>
        <time>2014-04-13T09:55:58Z</time>
      </trkpt>
      <trkpt lat="47.54992" lon="6.67847">
        <ele>444</ele>
        <time>2014-04-13T09:55:59Z</time>
      </trkpt>
      <trkpt lat="47.54996" lon="6.67837">
        <ele>444</ele>
        <time>2014-04-13T09:56:02Z</time>
      </trkpt>
      <trkpt lat="47.54997" lon="6.67834">
        <ele>444</ele>
        <time>2014-04-13T09:56:03Z</time>
      </trkpt>
      <trkpt lat="47.55001" lon="6.67818">
        <ele>444</ele>
        <time>2014-04-13T09:56:07Z</time>
      </trkpt>
      <trkpt lat="47.55002" lon="6.67816">
        <ele>445</ele>
        <time>2014-04-13T09:56:08Z</time>
      </trkpt>
      <trkpt lat="47.55002" lon="6.67813">
        <ele>445</ele>
        <time>2014-04-13T09:56:09Z</time>
      </trkpt>
      <trkpt lat="47.55003" lon="6.6781">
        <ele>446</ele>
        <time>2014-04-13T09:56:10Z</time>
      </trkpt>
      <trkpt lat="47.55005" lon="6.67797">
        <ele>446</ele>
        <time>2014-04-13T09:56:14Z</time>
      </trkpt>
      <trkpt lat="47.55009" lon="6.67779">
        <ele>446</ele>
        <time>2014-04-13T09:56:19Z</time>
      </trkpt>
      <trkpt lat="47.55015" lon="6.6776">
        <ele>446</ele>
        <time>2014-04-13T09:56:25Z</time>
      </trkpt>
      <trkpt lat="47.55017" lon="6.67757">
        <ele>446</ele>
        <time>2014-04-13T09:56:26Z</time>
      </trkpt>
      <trkpt lat="47.55018" lon="6.67754">
        <ele>447</ele>
        <time>2014-04-13T09:56:27Z</time>
      </trkpt>
      <trkpt lat="47.55019" lon="6.6775">
        <ele>447</ele>
        <time>2014-04-13T09:56:28Z</time>
      </trkpt>
      <trkpt lat="47.55021" lon="6.67746">
        <ele>448</ele>
        <time>2014-04-13T09:56:29Z</time>
      </trkpt>
      <trkpt lat="47.55022" lon="6.67744">
        <ele>448</ele>
        <time>2014-04-13T09:56:30Z</time>
      </trkpt>
      <trkpt lat="47.55024" lon="6.67744">
        <ele>448</ele>
        <time>2014-04-13T09:56:31Z</time>
      </trkpt>
      <trkpt lat="47.55033" lon="6.67736">
        <ele>448</ele>
        <time>2014-04-13T09:56:36Z</time>
      </trkpt>
      <trkpt lat="47.55036" lon="6.67729">
        <ele>448</ele>
        <time>2014-04-13T09:56:39Z</time>
      </trkpt>
      <trkpt lat="47.55041" lon="6.67726">
        <ele>448</ele>
        <time>2014-04-13T09:56:42Z</time>
      </trkpt>
      <trkpt lat="47.55042" lon="6.67725">
        <ele>449</ele>
        <time>2014-04-13T09:56:43Z</time>
      </trkpt>
      <trkpt lat="47.55045" lon="6.67724">
        <ele>449</ele>
        <time>2014-04-13T09:56:44Z</time>
      </trkpt>
      <trkpt lat="47.55048" lon="6.67724">
        <ele>450</ele>
        <time>2014-04-13T09:56:45Z</time>
      </trkpt>
      <trkpt lat="47.55051" lon="6.67723">
        <ele>450</ele>
        <time>2014-04-13T09:56:46Z</time>
      </trkpt>
      <trkpt lat="47.55053" lon="6.67724">
        <ele>450</ele>
        <time>2014-04-13T09:56:47Z</time>
      </trkpt>
      <trkpt lat="47.55063" lon="6.67723">
        <ele>450</ele>
        <time>2014-04-13T09:56:52Z</time>
      </trkpt>
      <trkpt lat="47.55065" lon="6.67722">
        <ele>450</ele>
        <time>2014-04-13T09:56:53Z</time>
      </trkpt>
      <trkpt lat="47.55067" lon="6.67722">
        <ele>450</ele>
        <time>2014-04-13T09:56:54Z</time>
      </trkpt>
      <trkpt lat="47.55069" lon="6.67722">
        <ele>451</ele>
        <time>2014-04-13T09:56:55Z</time>
      </trkpt>
      <trkpt lat="47.55071" lon="6.67722">
        <ele>451</ele>
        <time>2014-04-13T09:56:56Z</time>
      </trkpt>
      <trkpt lat="47.55073" lon="6.6772">
        <ele>452</ele>
        <time>2014-04-13T09:56:57Z</time>
      </trkpt>
      <trkpt lat="47.55074" lon="6.67719">
        <ele>452</ele>
        <time>2014-04-13T09:56:58Z</time>
      </trkpt>
      <trkpt lat="47.55077" lon="6.67718">
        <ele>452</ele>
        <time>2014-04-13T09:56:59Z</time>
      </trkpt>
      <trkpt lat="47.55086" lon="6.67719">
        <ele>452</ele>
        <time>2014-04-13T09:57:03Z</time>
      </trkpt>
      <trkpt lat="47.55096" lon="6.67719">
        <ele>453</ele>
        <time>2014-04-13T09:57:08Z</time>
      </trkpt>
      <trkpt lat="47.55098" lon="6.67718">
        <ele>453</ele>
        <time>2014-04-13T09:57:09Z</time>
      </trkpt>
      <trkpt lat="47.551" lon="6.67718">
        <ele>453</ele>
        <time>2014-04-13T09:57:10Z</time>
      </trkpt>
      <trkpt lat="47.55102" lon="6.67718">
        <ele>454</ele>
        <time>2014-04-13T09:57:11Z</time>
      </trkpt>
      <trkpt lat="47.55104" lon="6.67719">
        <ele>454</ele>
        <time>2014-04-13T09:57:12Z</time>
      </trkpt>
      <trkpt lat="47.55108" lon="6.67721">
        <ele>454</ele>
        <time>2014-04-13T09:57:14Z</time>
      </trkpt>
      <trkpt lat="47.55119" lon="6.67719">
        <ele>454</ele>
        <time>2014-04-13T09:57:20Z</time>
      </trkpt>
      <trkpt lat="47.55122" lon="6.67719">
        <ele>455</ele>
        <time>2014-04-13T09:57:22Z</time>
      </trkpt>
      <trkpt lat="47.55124" lon="6.67719">
        <ele>455</ele>
        <time>2014-04-13T09:57:23Z</time>
      </trkpt>
      <trkpt lat="47.55126" lon="6.67719">
        <ele>455</ele>
        <time>2014-04-13T09:57:24Z</time>
      </trkpt>
      <trkpt lat="47.55129" lon="6.6772">
        <ele>456</ele>
        <time>2014-04-13T09:57:25Z</time>
      </trkpt>
      <trkpt lat="47.55131" lon="6.67721">
        <ele>456</ele>
        <time>2014-04-13T09:57:26Z</time>
      </trkpt>
      <trkpt lat="47.55132" lon="6.67719">
        <ele>456</ele>
        <time>2014-04-13T09:57:27Z</time>
      </trkpt>
      <trkpt lat="47.55138" lon="6.6772">
        <ele>456</ele>
        <time>2014-04-13T09:57:30Z</time>
      </trkpt>
      <trkpt lat="47.55148" lon="6.67724">
        <ele>457</ele>
        <time>2014-04-13T09:57:35Z</time>
      </trkpt>
      <trkpt lat="47.55151" lon="6.67723">
        <ele>457</ele>
        <time>2014-04-13T09:57:36Z</time>
      </trkpt>
      <trkpt lat="47.55154" lon="6.67724">
        <ele>458</ele>
        <time>2014-04-13T09:57:37Z</time>
      </trkpt>
      <trkpt lat="47.55157" lon="6.67725">
        <ele>458</ele>
        <time>2014-04-13T09:57:38Z</time>
      </trkpt>
      <trkpt lat="47.5516" lon="6.67724">
        <ele>458</ele>
        <time>2014-04-13T09:57:39Z</time>
      </trkpt>
      <trkpt lat="47.55163" lon="6.67723">
        <ele>458</ele>
        <time>2014-04-13T09:57:40Z</time>
      </trkpt>
      <trkpt lat="47.55165" lon="6.67723">
        <ele>458</ele>
        <time>2014-04-13T09:57:41Z</time>
      </trkpt>
      <trkpt lat="47.55175" lon="6.67725">
        <ele>458</ele>
        <time>2014-04-13T09:57:46Z</time>
      </trkpt>
      <trkpt lat="47.55179" lon="6.67727">
        <ele>459</ele>
        <time>2014-04-13T09:57:48Z</time>
      </trkpt>
      <trkpt lat="47.55181" lon="6.67727">
        <ele>459</ele>
        <time>2014-04-13T09:57:49Z</time>
      </trkpt>
      <trkpt lat="47.55182" lon="6.67728">
        <ele>460</ele>
        <time>2014-04-13T09:57:50Z</time>
      </trkpt>
      <trkpt lat="47.55184" lon="6.67729">
        <ele>460</ele>
        <time>2014-04-13T09:57:51Z</time>
      </trkpt>
      <trkpt lat="47.55186" lon="6.6773">
        <ele>460</ele>
        <time>2014-04-13T09:57:52Z</time>
      </trkpt>
      <trkpt lat="47.55194" lon="6.67728">
        <ele>460</ele>
        <time>2014-04-13T09:57:57Z</time>
      </trkpt>
      <trkpt lat="47.55203" lon="6.67729">
        <ele>460</ele>
        <time>2014-04-13T09:58:02Z</time>
      </trkpt>
      <trkpt lat="47.55211" lon="6.67731">
        <ele>460</ele>
        <time>2014-04-13T09:58:06Z</time>
      </trkpt>
      <trkpt lat="47.55212" lon="6.67731">
        <ele>461</ele>
        <time>2014-04-13T09:58:07Z</time>
      </trkpt>
      <trkpt lat="47.55213" lon="6.67733">
        <ele>461</ele>
        <time>2014-04-13T09:58:08Z</time>
      </trkpt>
      <trkpt lat="47.55215" lon="6.67735">
        <ele>462</ele>
        <time>2014-04-13T09:58:09Z</time>
      </trkpt>
      <trkpt lat="47.55217" lon="6.67736">
        <ele>462</ele>
        <time>2014-04-13T09:58:10Z</time>
      </trkpt>
      <trkpt lat="47.55219" lon="6.67737">
        <ele>462</ele>
        <time>2014-04-13T09:58:11Z</time>
      </trkpt>
      <trkpt lat="47.55225" lon="6.67736">
        <ele>462</ele>
        <time>2014-04-13T09:58:14Z</time>
      </trkpt>
      <trkpt lat="47.55227" lon="6.67733">
        <ele>462</ele>
        <time>2014-04-13T09:58:15Z</time>
      </trkpt>
      <trkpt lat="47.55231" lon="6.67724">
        <ele>462</ele>
        <time>2014-04-13T09:58:19Z</time>
      </trkpt>
      <trkpt lat="47.55233" lon="6.67723">
        <ele>462</ele>
        <time>2014-04-13T09:58:20Z</time>
      </trkpt>
      <trkpt lat="47.55244" lon="6.67721">
        <ele>462</ele>
        <time>2014-04-13T09:58:25Z</time>
      </trkpt>
      <trkpt lat="47.55259" lon="6.67719">
        <ele>462</ele>
        <time>2014-04-13T09:58:31Z</time>
      </trkpt>
      <trkpt lat="47.55272" lon="6.6771">
        <ele>462</ele>
        <time>2014-04-13T09:58:36Z</time>
      </trkpt>
      <trkpt lat="47.55284" lon="6.67703">
        <ele>462</ele>
        <time>2014-04-13T09:58:41Z</time>
      </trkpt>
      <trkpt lat="47.55297" lon="6.67704">
        <ele>462</ele>
        <time>2014-04-13T09:58:47Z</time>
      </trkpt>
      <trkpt lat="47.55303" lon="6.67706">
        <ele>462</ele>
        <time>2014-04-13T09:58:51Z</time>
      </trkpt>
      <trkpt lat="47.55303" lon="6.67706">
        <ele>462</ele>
        <time>2014-04-13T09:58:52Z</time>
      </trkpt>
      <trkpt lat="47.55307" lon="6.67707">
        <ele>462</ele>
        <time>2014-04-13T09:58:58Z</time>
      </trkpt>
      <trkpt lat="47.55308" lon="6.67707">
        <ele>462</ele>
        <time>2014-04-13T09:58:59Z</time>
      </trkpt>
      <trkpt lat="47.55312" lon="6.67706">
        <ele>462</ele>
        <time>2014-04-13T09:59:04Z</time>
      </trkpt>
      <trkpt lat="47.55313" lon="6.67706">
        <ele>462</ele>
        <time>2014-04-13T09:59:05Z</time>
      </trkpt>
      <trkpt lat="47.55317" lon="6.67707">
        <ele>462</ele>
        <time>2014-04-13T09:59:13Z</time>
      </trkpt>
      <trkpt lat="47.5532" lon="6.67707">
        <ele>463</ele>
        <time>2014-04-13T09:59:15Z</time>
      </trkpt>
      <trkpt lat="47.55322" lon="6.67707">
        <ele>463</ele>
        <time>2014-04-13T09:59:16Z</time>
      </trkpt>
      <trkpt lat="47.55324" lon="6.67707">
        <ele>464</ele>
        <time>2014-04-13T09:59:17Z</time>
      </trkpt>
      <trkpt lat="47.55325" lon="6.67708">
        <ele>464</ele>
        <time>2014-04-13T09:59:18Z</time>
      </trkpt>
      <trkpt lat="47.55328" lon="6.67708">
        <ele>465</ele>
        <time>2014-04-13T09:59:19Z</time>
      </trkpt>
      <trkpt lat="47.55333" lon="6.67708">
        <ele>465</ele>
        <time>2014-04-13T09:59:22Z</time>
      </trkpt>
      <trkpt lat="47.55336" lon="6.67708">
        <ele>465</ele>
        <time>2014-04-13T09:59:24Z</time>
      </trkpt>
      <trkpt lat="47.55338" lon="6.67709">
        <ele>465</ele>
        <time>2014-04-13T09:59:25Z</time>
      </trkpt>
      <trkpt lat="47.5534" lon="6.67709">
        <ele>466</ele>
        <time>2014-04-13T09:59:26Z</time>
      </trkpt>
      <trkpt lat="47.55342" lon="6.6771">
        <ele>467</ele>
        <time>2014-04-13T09:59:27Z</time>
      </trkpt>
      <trkpt lat="47.55345" lon="6.6771">
        <ele>467</ele>
        <time>2014-04-13T09:59:28Z</time>
      </trkpt>
      <trkpt lat="47.55356" lon="6.67714">
        <ele>467</ele>
        <time>2014-04-13T09:59:32Z</time>
      </trkpt>
      <trkpt lat="47.55359" lon="6.67714">
        <ele>468</ele>
        <time>2014-04-13T09:59:33Z</time>
      </trkpt>
      <trkpt lat="47.55361" lon="6.67714">
        <ele>468</ele>
        <time>2014-04-13T09:59:34Z</time>
      </trkpt>
      <trkpt lat="47.55364" lon="6.67716">
        <ele>468</ele>
        <time>2014-04-13T09:59:35Z</time>
      </trkpt>
      <trkpt lat="47.55367" lon="6.67718">
        <ele>469</ele>
        <time>2014-04-13T09:59:36Z</time>
      </trkpt>
      <trkpt lat="47.5537" lon="6.6772">
        <ele>469</ele>
        <time>2014-04-13T09:59:37Z</time>
      </trkpt>
      <trkpt lat="47.55386" lon="6.67721">
        <ele>469</ele>
        <time>2014-04-13T09:59:43Z</time>
      </trkpt>
      <trkpt lat="47.55388" lon="6.67721">
        <ele>469</ele>
        <time>2014-04-13T09:59:44Z</time>
      </trkpt>
      <trkpt lat="47.5539" lon="6.67722">
        <ele>470</ele>
        <time>2014-04-13T09:59:45Z</time>
      </trkpt>
      <trkpt lat="47.55392" lon="6.67723">
        <ele>470</ele>
        <time>2014-04-13T09:59:46Z</time>
      </trkpt>
      <trkpt lat="47.55395" lon="6.67724">
        <ele>471</ele>
        <time>2014-04-13T09:59:47Z</time>
      </trkpt>
      <trkpt lat="47.55397" lon="6.67724">
        <ele>471</ele>
        <time>2014-04-13T09:59:48Z</time>
      </trkpt>
      <trkpt lat="47.55405" lon="6.67724">
        <ele>471</ele>
        <time>2014-04-13T09:59:51Z</time>
      </trkpt>
      <trkpt lat="47.55409" lon="6.67726">
        <ele>471</ele>
        <time>2014-04-13T09:59:53Z</time>
      </trkpt>
      <trkpt lat="47.55414" lon="6.67726">
        <ele>471</ele>
        <time>2014-04-13T09:59:55Z</time>
      </trkpt>
      <trkpt lat="47.55419" lon="6.67728">
        <ele>472</ele>
        <time>2014-04-13T09:59:56Z</time>
      </trkpt>
      <trkpt lat="47.55422" lon="6.67729">
        <ele>473</ele>
        <time>2014-04-13T09:59:58Z</time>
      </trkpt>
      <trkpt lat="47.55424" lon="6.6773">
        <ele>473</ele>
        <time>2014-04-13T09:59:59Z</time>
      </trkpt>
      <trkpt lat="47.55434" lon="6.67732">
        <ele>473</ele>
        <time>2014-04-13T10:00:04Z</time>
      </trkpt>
      <trkpt lat="47.55442" lon="6.67734">
        <ele>473</ele>
        <time>2014-04-13T10:00:07Z</time>
      </trkpt>
      <trkpt lat="47.55444" lon="6.67733">
        <ele>474</ele>
        <time>2014-04-13T10:00:08Z</time>
      </trkpt>
      <trkpt lat="47.55448" lon="6.67733">
        <ele>474</ele>
        <time>2014-04-13T10:00:09Z</time>
      </trkpt>
      <trkpt lat="47.55451" lon="6.67732">
        <ele>475</ele>
        <time>2014-04-13T10:00:10Z</time>
      </trkpt>
      <trkpt lat="47.55454" lon="6.67733">
        <ele>475</ele>
        <time>2014-04-13T10:00:11Z</time>
      </trkpt>
      <trkpt lat="47.55461" lon="6.67735">
        <ele>475</ele>
        <time>2014-04-13T10:00:13Z</time>
      </trkpt>
      <trkpt lat="47.55475" lon="6.67736">
        <ele>475</ele>
        <time>2014-04-13T10:00:18Z</time>
      </trkpt>
      <trkpt lat="47.55493" lon="6.67736">
        <ele>475</ele>
        <time>2014-04-13T10:00:24Z</time>
      </trkpt>
      <trkpt lat="47.55498" lon="6.67732">
        <ele>476</ele>
        <time>2014-04-13T10:00:26Z</time>
      </trkpt>
      <trkpt lat="47.555" lon="6.6773">
        <ele>476</ele>
        <time>2014-04-13T10:00:27Z</time>
      </trkpt>
      <trkpt lat="47.55502" lon="6.67728">
        <ele>476</ele>
        <time>2014-04-13T10:00:28Z</time>
      </trkpt>
      <trkpt lat="47.55504" lon="6.67726">
        <ele>477</ele>
        <time>2014-04-13T10:00:29Z</time>
      </trkpt>
      <trkpt lat="47.55506" lon="6.67723">
        <ele>477</ele>
        <time>2014-04-13T10:00:30Z</time>
      </trkpt>
      <trkpt lat="47.5551" lon="6.67715">
        <ele>477</ele>
        <time>2014-04-13T10:00:32Z</time>
      </trkpt>
      <trkpt lat="47.55515" lon="6.67707">
        <ele>477</ele>
        <time>2014-04-13T10:00:34Z</time>
      </trkpt>
      <trkpt lat="47.55517" lon="6.67705">
        <ele>476</ele>
        <time>2014-04-13T10:00:35Z</time>
      </trkpt>
      <trkpt lat="47.5552" lon="6.67703">
        <ele>476</ele>
        <time>2014-04-13T10:00:36Z</time>
      </trkpt>
      <trkpt lat="47.55523" lon="6.67701">
        <ele>475</ele>
        <time>2014-04-13T10:00:37Z</time>
      </trkpt>
      <trkpt lat="47.55526" lon="6.67699">
        <ele>475</ele>
        <time>2014-04-13T10:00:38Z</time>
      </trkpt>
      <trkpt lat="47.55531" lon="6.67696">
        <ele>475</ele>
        <time>2014-04-13T10:00:40Z</time>
      </trkpt>
      <trkpt lat="47.55535" lon="6.67698">
        <ele>475</ele>
        <time>2014-04-13T10:00:42Z</time>
      </trkpt>
      <trkpt lat="47.55542" lon="6.67699">
        <ele>475</ele>
        <time>2014-04-13T10:00:45Z</time>
      </trkpt>
      <trkpt lat="47.55547" lon="6.67704">
        <ele>475</ele>
        <time>2014-04-13T10:00:48Z</time>
      </trkpt>
      <trkpt lat="47.55547" lon="6.67705">
        <ele>476</ele>
        <time>2014-04-13T10:00:49Z</time>
      </trkpt>
      <trkpt lat="47.55548" lon="6.67708">
        <ele>476</ele>
        <time>2014-04-13T10:00:50Z</time>
      </trkpt>
      <trkpt lat="47.55549" lon="6.67711">
        <ele>476</ele>
        <time>2014-04-13T10:00:51Z</time>
      </trkpt>
      <trkpt lat="47.5555" lon="6.67714">
        <ele>477</ele>
        <time>2014-04-13T10:00:52Z</time>
      </trkpt>
      <trkpt lat="47.55552" lon="6.67718">
        <ele>477</ele>
        <time>2014-04-13T10:00:53Z</time>
      </trkpt>
      <trkpt lat="47.5556" lon="6.6774">
        <ele>477</ele>
        <time>2014-04-13T10:00:58Z</time>
      </trkpt>
      <trkpt lat="47.55571" lon="6.6777">
        <ele>476</ele>
        <time>2014-04-13T10:01:03Z</time>
      </trkpt>
      <trkpt lat="47.55573" lon="6.67776">
        <ele>476</ele>
        <time>2014-04-13T10:01:04Z</time>
      </trkpt>
      <trkpt lat="47.55574" lon="6.67782">
        <ele>475</ele>
        <time>2014-04-13T10:01:05Z</time>
      </trkpt>
      <trkpt lat="47.55576" lon="6.67789">
        <ele>475</ele>
        <time>2014-04-13T10:01:06Z</time>
      </trkpt>
      <trkpt lat="47.55579" lon="6.67796">
        <ele>474</ele>
        <time>2014-04-13T10:01:07Z</time>
      </trkpt>
      <trkpt lat="47.55581" lon="6.67803">
        <ele>474</ele>
        <time>2014-04-13T10:01:08Z</time>
      </trkpt>
      <trkpt lat="47.55583" lon="6.67809">
        <ele>473</ele>
        <time>2014-04-13T10:01:09Z</time>
      </trkpt>
      <trkpt lat="47.55585" lon="6.67814">
        <ele>473</ele>
        <time>2014-04-13T10:01:10Z</time>
      </trkpt>
      <trkpt lat="47.55586" lon="6.6782">
        <ele>472</ele>
        <time>2014-04-13T10:01:11Z</time>
      </trkpt>
      <trkpt lat="47.55588" lon="6.67826">
        <ele>472</ele>
        <time>2014-04-13T10:01:12Z</time>
      </trkpt>
      <trkpt lat="47.55589" lon="6.67834">
        <ele>471</ele>
        <time>2014-04-13T10:01:13Z</time>
      </trkpt>
      <trkpt lat="47.55591" lon="6.67842">
        <ele>470</ele>
        <time>2014-04-13T10:01:14Z</time>
      </trkpt>
      <trkpt lat="47.55593" lon="6.67849">
        <ele>470</ele>
        <time>2014-04-13T10:01:15Z</time>
      </trkpt>
      <trkpt lat="47.55596" lon="6.67856">
        <ele>469</ele>
        <time>2014-04-13T10:01:16Z</time>
      </trkpt>
      <trkpt lat="47.55599" lon="6.67863">
        <ele>468</ele>
        <time>2014-04-13T10:01:17Z</time>
      </trkpt>
      <trkpt lat="47.55602" lon="6.67871">
        <ele>467</ele>
        <time>2014-04-13T10:01:18Z</time>
      </trkpt>
      <trkpt lat="47.55605" lon="6.67877">
        <ele>467</ele>
        <time>2014-04-13T10:01:19Z</time>
      </trkpt>
      <trkpt lat="47.55608" lon="6.67883">
        <ele>466</ele>
        <time>2014-04-13T10:01:20Z</time>
      </trkpt>
      <trkpt lat="47.55611" lon="6.6789">
        <ele>465</ele>
        <time>2014-04-13T10:01:21Z</time>
      </trkpt>
      <trkpt lat="47.55615" lon="6.67896">
        <ele>465</ele>
        <time>2014-04-13T10:01:22Z</time>
      </trkpt>
      <trkpt lat="47.55617" lon="6.679">
        <ele>464</ele>
        <time>2014-04-13T10:01:23Z</time>
      </trkpt>
      <trkpt lat="47.5562" lon="6.67905">
        <ele>463</ele>
        <time>2014-04-13T10:01:24Z</time>
      </trkpt>
      <trkpt lat="47.55623" lon="6.67907">
        <ele>462</ele>
        <time>2014-04-13T10:01:25Z</time>
      </trkpt>
      <trkpt lat="47.55625" lon="6.67908">
        <ele>462</ele>
        <time>2014-04-13T10:01:26Z</time>
      </trkpt>
      <trkpt lat="47.55627" lon="6.67911">
        <ele>461</ele>
        <time>2014-04-13T10:01:27Z</time>
      </trkpt>
      <trkpt lat="47.5563" lon="6.67914">
        <ele>460</ele>
        <time>2014-04-13T10:01:28Z</time>
      </trkpt>
      <trkpt lat="47.55632" lon="6.67918">
        <ele>459</ele>
        <time>2014-04-13T10:01:29Z</time>
      </trkpt>
      <trkpt lat="47.55634" lon="6.67923">
        <ele>458</ele>
        <time>2014-04-13T10:01:30Z</time>
      </trkpt>
      <trkpt lat="47.55634" lon="6.67929">
        <ele>458</ele>
        <time>2014-04-13T10:01:31Z</time>
      </trkpt>
      <trkpt lat="47.55634" lon="6.67937">
        <ele>457</ele>
        <time>2014-04-13T10:01:32Z</time>
      </trkpt>
      <trkpt lat="47.55634" lon="6.67947">
        <ele>457</ele>
        <time>2014-04-13T10:01:33Z</time>
      </trkpt>
      <trkpt lat="47.55633" lon="6.67956">
        <ele>456</ele>
        <time>2014-04-13T10:01:34Z</time>
      </trkpt>
      <trkpt lat="47.55633" lon="6.67966">
        <ele>455</ele>
        <time>2014-04-13T10:01:35Z</time>
      </trkpt>
      <trkpt lat="47.55631" lon="6.67977">
        <ele>454</ele>
        <time>2014-04-13T10:01:36Z</time>
      </trkpt>
      <trkpt lat="47.55629" lon="6.67987">
        <ele>453</ele>
        <time>2014-04-13T10:01:37Z</time>
      </trkpt>
      <trkpt lat="47.55627" lon="6.67996">
        <ele>452</ele>
        <time>2014-04-13T10:01:38Z</time>
      </trkpt>
      <trkpt lat="47.55626" lon="6.68005">
        <ele>451</ele>
        <time>2014-04-13T10:01:39Z</time>
      </trkpt>
      <trkpt lat="47.55626" lon="6.68015">
        <ele>450</ele>
        <time>2014-04-13T10:01:40Z</time>
      </trkpt>
      <trkpt lat="47.55627" lon="6.68024">
        <ele>449</ele>
        <time>2014-04-13T10:01:41Z</time>
      </trkpt>
      <trkpt lat="47.55629" lon="6.68033">
        <ele>448</ele>
        <time>2014-04-13T10:01:42Z</time>
      </trkpt>
      <trkpt lat="47.5563" lon="6.68039">
        <ele>447</ele>
        <time>2014-04-13T10:01:43Z</time>
      </trkpt>
      <trkpt lat="47.5563" lon="6.68045">
        <ele>446</ele>
        <time>2014-04-13T10:01:44Z</time>
      </trkpt>
      <trkpt lat="47.55631" lon="6.6805">
        <ele>445</ele>
        <time>2014-04-13T10:01:45Z</time>
      </trkpt>
      <trkpt lat="47.55632" lon="6.68055">
        <ele>444</ele>
        <time>2014-04-13T10:01:46Z</time>
      </trkpt>
      <trkpt lat="47.55634" lon="6.68062">
        <ele>443</ele>
        <time>2014-04-13T10:01:47Z</time>
      </trkpt>
      <trkpt lat="47.55637" lon="6.68071">
        <ele>442</ele>
        <time>2014-04-13T10:01:48Z</time>
      </trkpt>
      <trkpt lat="47.55638" lon="6.68078">
        <ele>440</ele>
        <time>2014-04-13T10:01:49Z</time>
      </trkpt>
      <trkpt lat="47.55641" lon="6.68085">
        <ele>439</ele>
        <time>2014-04-13T10:01:50Z</time>
      </trkpt>
      <trkpt lat="47.55642" lon="6.68091">
        <ele>438</ele>
        <time>2014-04-13T10:01:51Z</time>
      </trkpt>
      <trkpt lat="47.55643" lon="6.68095">
        <ele>437</ele>
        <time>2014-04-13T10:01:52Z</time>
      </trkpt>
      <trkpt lat="47.55642" lon="6.68098">
        <ele>435</ele>
        <time>2014-04-13T10:01:53Z</time>
      </trkpt>
      <trkpt lat="47.55643" lon="6.68101">
        <ele>433</ele>
        <time>2014-04-13T10:01:54Z</time>
      </trkpt>
      <trkpt lat="47.55643" lon="6.68104">
        <ele>432</ele>
        <time>2014-04-13T10:01:55Z</time>
      </trkpt>
      <trkpt lat="47.55643" lon="6.68107">
        <ele>431</ele>
        <time>2014-04-13T10:01:56Z</time>
      </trkpt>
      <trkpt lat="47.55643" lon="6.68109">
        <ele>431</ele>
        <time>2014-04-13T10:01:57Z</time>
      </trkpt>
      <trkpt lat="47.55643" lon="6.68111">
        <ele>430</ele>
        <time>2014-04-13T10:01:58Z</time>
      </trkpt>
      <trkpt lat="47.55642" lon="6.68113">
        <ele>429</ele>
        <time>2014-04-13T10:01:59Z</time>
      </trkpt>
      <trkpt lat="47.55642" lon="6.68116">
        <ele>429</ele>
        <time>2014-04-13T10:02:00Z</time>
      </trkpt>
      <trkpt lat="47.5564" lon="6.68118">
        <ele>428</ele>
        <time>2014-04-13T10:02:01Z</time>
      </trkpt>
      <trkpt lat="47.55639" lon="6.68121">
        <ele>428</ele>
        <time>2014-04-13T10:02:02Z</time>
      </trkpt>
      <trkpt lat="47.55638" lon="6.68125">
        <ele>427</ele>
        <time>2014-04-13T10:02:03Z</time>
      </trkpt>
      <trkpt lat="47.55636" lon="6.6813">
        <ele>427</ele>
        <time>2014-04-13T10:02:04Z</time>
      </trkpt>
      <trkpt lat="47.55632" lon="6.68133">
        <ele>426</ele>
        <time>2014-04-13T10:02:05Z</time>
      </trkpt>
      <trkpt lat="47.55627" lon="6.68134">
        <ele>425</ele>
        <time>2014-04-13T10:02:06Z</time>
      </trkpt>
      <trkpt lat="47.55623" lon="6.68133">
        <ele>425</ele>
        <time>2014-04-13T10:02:07Z</time>
      </trkpt>
      <trkpt lat="47.55619" lon="6.68132">
        <ele>424</ele>
        <time>2014-04-13T10:02:08Z</time>
      </trkpt>
      <trkpt lat="47.55616" lon="6.68131">
        <ele>424</ele>
        <time>2014-04-13T10:02:09Z</time>
      </trkpt>
      <trkpt lat="47.55605" lon="6.68129">
        <ele>424</ele>
        <time>2014-04-13T10:02:13Z</time>
      </trkpt>
      <trkpt lat="47.55603" lon="6.68128">
        <ele>424</ele>
        <time>2014-04-13T10:02:14Z</time>
      </trkpt>
      <trkpt lat="47.55593" lon="6.68128">
        <ele>424</ele>
        <time>2014-04-13T10:02:18Z</time>
      </trkpt>
      <trkpt lat="47.5559" lon="6.68129">
        <ele>425</ele>
        <time>2014-04-13T10:02:19Z</time>
      </trkpt>
      <trkpt lat="47.55587" lon="6.6813">
        <ele>426</ele>
        <time>2014-04-13T10:02:20Z</time>
      </trkpt>
      <trkpt lat="47.55584" lon="6.68131">
        <ele>426</ele>
        <time>2014-04-13T10:02:21Z</time>
      </trkpt>
      <trkpt lat="47.55574" lon="6.68141">
        <ele>426</ele>
        <time>2014-04-13T10:02:25Z</time>
      </trkpt>
      <trkpt lat="47.55565" lon="6.68157">
        <ele>426</ele>
        <time>2014-04-13T10:02:30Z</time>
      </trkpt>
      <trkpt lat="47.55564" lon="6.68161">
        <ele>427</ele>
        <time>2014-04-13T10:02:31Z</time>
      </trkpt>
      <trkpt lat="47.55563" lon="6.68164">
        <ele>427</ele>
        <time>2014-04-13T10:02:32Z</time>
      </trkpt>
      <trkpt lat="47.55562" lon="6.68169">
        <ele>428</ele>
        <time>2014-04-13T10:02:33Z</time>
      </trkpt>
      <trkpt lat="47.55561" lon="6.68173">
        <ele>428</ele>
        <time>2014-04-13T10:02:34Z</time>
      </trkpt>
      <trkpt lat="47.55559" lon="6.68181">
        <ele>428</ele>
        <time>2014-04-13T10:02:36Z</time>
      </trkpt>
      <trkpt lat="47.55552" lon="6.68206">
        <ele>428</ele>
        <time>2014-04-13T10:02:41Z</time>
      </trkpt>
      <trkpt lat="47.5554" lon="6.68235">
        <ele>428</ele>
        <time>2014-04-13T10:02:45Z</time>
      </trkpt>
      <trkpt lat="47.55537" lon="6.68244">
        <ele>427</ele>
        <time>2014-04-13T10:02:46Z</time>
      </trkpt>
      <trkpt lat="47.55534" lon="6.68254">
        <ele>427</ele>
        <time>2014-04-13T10:02:47Z</time>
      </trkpt>
      <trkpt lat="47.5553" lon="6.68263">
        <ele>426</ele>
        <time>2014-04-13T10:02:48Z</time>
      </trkpt>
      <trkpt lat="47.55526" lon="6.68272">
        <ele>426</ele>
        <time>2014-04-13T10:02:49Z</time>
      </trkpt>
      <trkpt lat="47.55522" lon="6.6828">
        <ele>425</ele>
        <time>2014-04-13T10:02:50Z</time>
      </trkpt>
      <trkpt lat="47.55518" lon="6.68286">
        <ele>425</ele>
        <time>2014-04-13T10:02:51Z</time>
      </trkpt>
      <trkpt lat="47.55514" lon="6.68291">
        <ele>425</ele>
        <time>2014-04-13T10:02:52Z</time>
      </trkpt>
      <trkpt lat="47.55509" lon="6.68296">
        <ele>424</ele>
        <time>2014-04-13T10:02:53Z</time>
      </trkpt>
      <trkpt lat="47.55504" lon="6.683">
        <ele>424</ele>
        <time>2014-04-13T10:02:54Z</time>
      </trkpt>
      <trkpt lat="47.55478" lon="6.68325">
        <ele>424</ele>
        <time>2014-04-13T10:03:00Z</time>
      </trkpt>
      <trkpt lat="47.55474" lon="6.6833">
        <ele>424</ele>
        <time>2014-04-13T10:03:01Z</time>
      </trkpt>
      <trkpt lat="47.55467" lon="6.6835">
        <ele>424</ele>
        <time>2014-04-13T10:03:04Z</time>
      </trkpt>
      <trkpt lat="47.55454" lon="6.68397">
        <ele>424</ele>
        <time>2014-04-13T10:03:09Z</time>
      </trkpt>
      <trkpt lat="47.55451" lon="6.68407">
        <ele>423</ele>
        <time>2014-04-13T10:03:10Z</time>
      </trkpt>
      <trkpt lat="47.5545" lon="6.68417">
        <ele>423</ele>
        <time>2014-04-13T10:03:11Z</time>
      </trkpt>
      <trkpt lat="47.55449" lon="6.68426">
        <ele>422</ele>
        <time>2014-04-13T10:03:12Z</time>
      </trkpt>
      <trkpt lat="47.55448" lon="6.68435">
        <ele>422</ele>
        <time>2014-04-13T10:03:13Z</time>
      </trkpt>
      <trkpt lat="47.55445" lon="6.68445">
        <ele>421</ele>
        <time>2014-04-13T10:03:14Z</time>
      </trkpt>
      <trkpt lat="47.55442" lon="6.68454">
        <ele>420</ele>
        <time>2014-04-13T10:03:15Z</time>
      </trkpt>
      <trkpt lat="47.55438" lon="6.68463">
        <ele>419</ele>
        <time>2014-04-13T10:03:16Z</time>
      </trkpt>
      <trkpt lat="47.55433" lon="6.68471">
        <ele>418</ele>
        <time>2014-04-13T10:03:17Z</time>
      </trkpt>
      <trkpt lat="47.55428" lon="6.68479">
        <ele>417</ele>
        <time>2014-04-13T10:03:18Z</time>
      </trkpt>
      <trkpt lat="47.55423" lon="6.68488">
        <ele>417</ele>
        <time>2014-04-13T10:03:19Z</time>
      </trkpt>
      <trkpt lat="47.55417" lon="6.68498">
        <ele>416</ele>
        <time>2014-04-13T10:03:20Z</time>
      </trkpt>
      <trkpt lat="47.5541" lon="6.68508">
        <ele>415</ele>
        <time>2014-04-13T10:03:21Z</time>
      </trkpt>
      <trkpt lat="47.55404" lon="6.68518">
        <ele>414</ele>
        <time>2014-04-13T10:03:22Z</time>
      </trkpt>
      <trkpt lat="47.55397" lon="6.68528">
        <ele>413</ele>
        <time>2014-04-13T10:03:23Z</time>
      </trkpt>
      <trkpt lat="47.5539" lon="6.68539">
        <ele>412</ele>
        <time>2014-04-13T10:03:24Z</time>
      </trkpt>
      <trkpt lat="47.55384" lon="6.68548">
        <ele>412</ele>
        <time>2014-04-13T10:03:25Z</time>
      </trkpt>
      <trkpt lat="47.55379" lon="6.68557">
        <ele>411</ele>
        <time>2014-04-13T10:03:26Z</time>
      </trkpt>
      <trkpt lat="47.55374" lon="6.68565">
        <ele>410</ele>
        <time>2014-04-13T10:03:27Z</time>
      </trkpt>
      <trkpt lat="47.55371" lon="6.68574">
        <ele>410</ele>
        <time>2014-04-13T10:03:28Z</time>
      </trkpt>
      <trkpt lat="47.55369" lon="6.68583">
        <ele>409</ele>
        <time>2014-04-13T10:03:29Z</time>
      </trkpt>
      <trkpt lat="47.55368" lon="6.68594">
        <ele>408</ele>
        <time>2014-04-13T10:03:30Z</time>
      </trkpt>
      <trkpt lat="47.55366" lon="6.68606">
        <ele>407</ele>
        <time>2014-04-13T10:03:31Z</time>
      </trkpt>
      <trkpt lat="47.55365" lon="6.68618">
        <ele>406</ele>
        <time>2014-04-13T10:03:32Z</time>
      </trkpt>
      <trkpt lat="47.55362" lon="6.68631">
        <ele>405</ele>
        <time>2014-04-13T10:03:33Z</time>
      </trkpt>
      <trkpt lat="47.55361" lon="6.68644">
        <ele>404</ele>
        <time>2014-04-13T10:03:34Z</time>
      </trkpt>
      <trkpt lat="47.55359" lon="6.68656">
        <ele>403</ele>
        <time>2014-04-13T10:03:35Z</time>
      </trkpt>
      <trkpt lat="47.55357" lon="6.68667">
        <ele>402</ele>
        <time>2014-04-13T10:03:36Z</time>
      </trkpt>
      <trkpt lat="47.55355" lon="6.68677">
        <ele>401</ele>
        <time>2014-04-13T10:03:37Z</time>
      </trkpt>
      <trkpt lat="47.55351" lon="6.68687">
        <ele>401</ele>
        <time>2014-04-13T10:03:38Z</time>
      </trkpt>
      <trkpt lat="47.55347" lon="6.68699">
        <ele>400</ele>
        <time>2014-04-13T10:03:39Z</time>
      </trkpt>
      <trkpt lat="47.55344" lon="6.68711">
        <ele>399</ele>
        <time>2014-04-13T10:03:40Z</time>
      </trkpt>
      <trkpt lat="47.5534" lon="6.68725">
        <ele>399</ele>
        <time>2014-04-13T10:03:41Z</time>
      </trkpt>
      <trkpt lat="47.55338" lon="6.68738">
        <ele>398</ele>
        <time>2014-04-13T10:03:42Z</time>
      </trkpt>
      <trkpt lat="47.55337" lon="6.68752">
        <ele>397</ele>
        <time>2014-04-13T10:03:43Z</time>
      </trkpt>
      <trkpt lat="47.55336" lon="6.68765">
        <ele>397</ele>
        <time>2014-04-13T10:03:44Z</time>
      </trkpt>
      <trkpt lat="47.55337" lon="6.68779">
        <ele>396</ele>
        <time>2014-04-13T10:03:45Z</time>
      </trkpt>
      <trkpt lat="47.55337" lon="6.68794">
        <ele>396</ele>
        <time>2014-04-13T10:03:46Z</time>
      </trkpt>
      <trkpt lat="47.55339" lon="6.68809">
        <ele>395</ele>
        <time>2014-04-13T10:03:47Z</time>
      </trkpt>
      <trkpt lat="47.5534" lon="6.68824">
        <ele>394</ele>
        <time>2014-04-13T10:03:48Z</time>
      </trkpt>
      <trkpt lat="47.55342" lon="6.68837">
        <ele>394</ele>
        <time>2014-04-13T10:03:49Z</time>
      </trkpt>
      <trkpt lat="47.55344" lon="6.68851">
        <ele>393</ele>
        <time>2014-04-13T10:03:50Z</time>
      </trkpt>
      <trkpt lat="47.55346" lon="6.68866">
        <ele>392</ele>
        <time>2014-04-13T10:03:51Z</time>
      </trkpt>
      <trkpt lat="47.55347" lon="6.68881">
        <ele>392</ele>
        <time>2014-04-13T10:03:52Z</time>
      </trkpt>
      <trkpt lat="47.55347" lon="6.68895">
        <ele>391</ele>
        <time>2014-04-13T10:03:53Z</time>
      </trkpt>
      <trkpt lat="47.55346" lon="6.68909">
        <ele>390</ele>
        <time>2014-04-13T10:03:54Z</time>
      </trkpt>
      <trkpt lat="47.55344" lon="6.68922">
        <ele>390</ele>
        <time>2014-04-13T10:03:55Z</time>
      </trkpt>
      <trkpt lat="47.55341" lon="6.68936">
        <ele>389</ele>
        <time>2014-04-13T10:03:56Z</time>
      </trkpt>
      <trkpt lat="47.55339" lon="6.6895">
        <ele>388</ele>
        <time>2014-04-13T10:03:57Z</time>
      </trkpt>
      <trkpt lat="47.55337" lon="6.68964">
        <ele>387</ele>
        <time>2014-04-13T10:03:58Z</time>
      </trkpt>
      <trkpt lat="47.55335" lon="6.68977">
        <ele>386</ele>
        <time>2014-04-13T10:03:59Z</time>
      </trkpt>
      <trkpt lat="47.55332" lon="6.68989">
        <ele>385</ele>
        <time>2014-04-13T10:04:00Z</time>
      </trkpt>
      <trkpt lat="47.55328" lon="6.69001">
        <ele>384</ele>
        <time>2014-04-13T10:04:01Z</time>
      </trkpt>
      <trkpt lat="47.55322" lon="6.69011">
        <ele>383</ele>
        <time>2014-04-13T10:04:02Z</time>
      </trkpt>
      <trkpt lat="47.55314" lon="6.6902">
        <ele>382</ele>
        <time>2014-04-13T10:04:03Z</time>
      </trkpt>
      <trkpt lat="47.55306" lon="6.6903">
        <ele>381</ele>
        <time>2014-04-13T10:04:04Z</time>
      </trkpt>
      <trkpt lat="47.55297" lon="6.69039">
        <ele>380</ele>
        <time>2014-04-13T10:04:05Z</time>
      </trkpt>
      <trkpt lat="47.55289" lon="6.69048">
        <ele>379</ele>
        <time>2014-04-13T10:04:06Z</time>
      </trkpt>
      <trkpt lat="47.55281" lon="6.69058">
        <ele>378</ele>
        <time>2014-04-13T10:04:07Z</time>
      </trkpt>
      <trkpt lat="47.55275" lon="6.69067">
        <ele>377</ele>
        <time>2014-04-13T10:04:08Z</time>
      </trkpt>
      <trkpt lat="47.55267" lon="6.69074">
        <ele>376</ele>
        <time>2014-04-13T10:04:09Z</time>
      </trkpt>
      <trkpt lat="47.55259" lon="6.69079">
        <ele>375</ele>
        <time>2014-04-13T10:04:10Z</time>
      </trkpt>
      <trkpt lat="47.5525" lon="6.69082">
        <ele>373</ele>
        <time>2014-04-13T10:04:11Z</time>
      </trkpt>
      <trkpt lat="47.5524" lon="6.69084">
        <ele>372</ele>
        <time>2014-04-13T10:04:12Z</time>
      </trkpt>
      <trkpt lat="47.55229" lon="6.69087">
        <ele>371</ele>
        <time>2014-04-13T10:04:13Z</time>
      </trkpt>
      <trkpt lat="47.55219" lon="6.69092">
        <ele>370</ele>
        <time>2014-04-13T10:04:14Z</time>
      </trkpt>
      <trkpt lat="47.55209" lon="6.69099">
        <ele>369</ele>
        <time>2014-04-13T10:04:15Z</time>
      </trkpt>
      <trkpt lat="47.55199" lon="6.69108">
        <ele>368</ele>
        <time>2014-04-13T10:04:16Z</time>
      </trkpt>
      <trkpt lat="47.5519" lon="6.69118">
        <ele>367</ele>
        <time>2014-04-13T10:04:17Z</time>
      </trkpt>
      <trkpt lat="47.55183" lon="6.6913">
        <ele>366</ele>
        <time>2014-04-13T10:04:18Z</time>
      </trkpt>
      <trkpt lat="47.55179" lon="6.69144">
        <ele>365</ele>
        <time>2014-04-13T10:04:19Z</time>
      </trkpt>
      <trkpt lat="47.55176" lon="6.69158">
        <ele>364</ele>
        <time>2014-04-13T10:04:20Z</time>
      </trkpt>
      <trkpt lat="47.55175" lon="6.69171">
        <ele>363</ele>
        <time>2014-04-13T10:04:21Z</time>
      </trkpt>
      <trkpt lat="47.55174" lon="6.69182">
        <ele>362</ele>
        <time>2014-04-13T10:04:22Z</time>
      </trkpt>
      <trkpt lat="47.55175" lon="6.69191">
        <ele>361</ele>
        <time>2014-04-13T10:04:23Z</time>
      </trkpt>
      <trkpt lat="47.55176" lon="6.69198">
        <ele>361</ele>
        <time>2014-04-13T10:04:24Z</time>
      </trkpt>
      <trkpt lat="47.55178" lon="6.69204">
        <ele>361</ele>
        <time>2014-04-13T10:04:25Z</time>
      </trkpt>
      <trkpt lat="47.55187" lon="6.69208">
        <ele>361</ele>
        <time>2014-04-13T10:04:28Z</time>
      </trkpt>
      <trkpt lat="47.552" lon="6.69199">
        <ele>361</ele>
        <time>2014-04-13T10:04:31Z</time>
      </trkpt>
      <trkpt lat="47.55204" lon="6.69194">
        <ele>361</ele>
        <time>2014-04-13T10:04:32Z</time>
      </trkpt>
      <trkpt lat="47.55224" lon="6.69175">
        <ele>361</ele>
        <time>2014-04-13T10:04:36Z</time>
      </trkpt>
      <trkpt lat="47.55239" lon="6.69168">
        <ele>361</ele>
        <time>2014-04-13T10:04:39Z</time>
      </trkpt>
      <trkpt lat="47.55244" lon="6.69167">
        <ele>361</ele>
        <time>2014-04-13T10:04:40Z</time>
      </trkpt>
      <trkpt lat="47.55258" lon="6.6917">
        <ele>361</ele>
        <time>2014-04-13T10:04:43Z</time>
      </trkpt>
      <trkpt lat="47.55268" lon="6.69172">
        <ele>361</ele>
        <time>2014-04-13T10:04:45Z</time>
      </trkpt>
      <trkpt lat="47.55288" lon="6.69183">
        <ele>361</ele>
        <time>2014-04-13T10:04:49Z</time>
      </trkpt>
      <trkpt lat="47.55293" lon="6.69185">
        <ele>361</ele>
        <time>2014-04-13T10:04:50Z</time>
      </trkpt>
      <trkpt lat="47.55309" lon="6.69187">
        <ele>361</ele>
        <time>2014-04-13T10:04:53Z</time>
      </trkpt>
      <trkpt lat="47.55314" lon="6.69187">
        <ele>361</ele>
        <time>2014-04-13T10:04:54Z</time>
      </trkpt>
      <trkpt lat="47.55319" lon="6.69186">
        <ele>361</ele>
        <time>2014-04-13T10:04:55Z</time>
      </trkpt>
      <trkpt lat="47.55324" lon="6.69185">
        <ele>361</ele>
        <time>2014-04-13T10:04:56Z</time>
      </trkpt>
      <trkpt lat="47.55328" lon="6.69186">
        <ele>362</ele>
        <time>2014-04-13T10:04:57Z</time>
      </trkpt>
      <trkpt lat="47.55332" lon="6.69187">
        <ele>362</ele>
        <time>2014-04-13T10:04:58Z</time>
      </trkpt>
      <trkpt lat="47.55336" lon="6.69189">
        <ele>362</ele>
        <time>2014-04-13T10:04:59Z</time>
      </trkpt>
      <trkpt lat="47.55338" lon="6.69192">
        <ele>363</ele>
        <time>2014-04-13T10:05:00Z</time>
      </trkpt>
      <trkpt lat="47.55341" lon="6.69199">
        <ele>363</ele>
        <time>2014-04-13T10:05:02Z</time>
      </trkpt>
      <trkpt lat="47.55342" lon="6.69204">
        <ele>364</ele>
        <time>2014-04-13T10:05:03Z</time>
      </trkpt>
      <trkpt lat="47.55343" lon="6.69208">
        <ele>364</ele>
        <time>2014-04-13T10:05:04Z</time>
      </trkpt>
      <trkpt lat="47.55344" lon="6.69212">
        <ele>365</ele>
        <time>2014-04-13T10:05:05Z</time>
      </trkpt>
      <trkpt lat="47.55345" lon="6.69215">
        <ele>365</ele>
        <time>2014-04-13T10:05:06Z</time>
      </trkpt>
      <trkpt lat="47.55346" lon="6.69219">
        <ele>366</ele>
        <time>2014-04-13T10:05:07Z</time>
      </trkpt>
      <trkpt lat="47.55348" lon="6.69222">
        <ele>366</ele>
        <time>2014-04-13T10:05:08Z</time>
      </trkpt>
      <trkpt lat="47.55349" lon="6.69226">
        <ele>366</ele>
        <time>2014-04-13T10:05:09Z</time>
      </trkpt>
      <trkpt lat="47.55351" lon="6.6923">
        <ele>367</ele>
        <time>2014-04-13T10:05:10Z</time>
      </trkpt>
      <trkpt lat="47.55352" lon="6.69234">
        <ele>368</ele>
        <time>2014-04-13T10:05:11Z</time>
      </trkpt>
      <trkpt lat="47.55354" lon="6.69237">
        <ele>368</ele>
        <time>2014-04-13T10:05:12Z</time>
      </trkpt>
      <trkpt lat="47.55355" lon="6.69241">
        <ele>368</ele>
        <time>2014-04-13T10:05:13Z</time>
      </trkpt>
      <trkpt lat="47.55357" lon="6.69244">
        <ele>369</ele>
        <time>2014-04-13T10:05:14Z</time>
      </trkpt>
      <trkpt lat="47.55358" lon="6.69248">
        <ele>369</ele>
        <time>2014-04-13T10:05:15Z</time>
      </trkpt>
      <trkpt lat="47.55361" lon="6.69253">
        <ele>370</ele>
        <time>2014-04-13T10:05:17Z</time>
      </trkpt>
      <trkpt lat="47.55363" lon="6.69256">
        <ele>370</ele>
        <time>2014-04-13T10:05:18Z</time>
      </trkpt>
      <trkpt lat="47.55364" lon="6.69259">
        <ele>371</ele>
        <time>2014-04-13T10:05:19Z</time>
      </trkpt>
      <trkpt lat="47.55366" lon="6.69261">
        <ele>371</ele>
        <time>2014-04-13T10:05:20Z</time>
      </trkpt>
      <trkpt lat="47.55368" lon="6.69263">
        <ele>371</ele>
        <time>2014-04-13T10:05:21Z</time>
      </trkpt>
      <trkpt lat="47.55369" lon="6.69265">
        <ele>371</ele>
        <time>2014-04-13T10:05:22Z</time>
      </trkpt>
      <trkpt lat="47.55374" lon="6.69269">
        <ele>372</ele>
        <time>2014-04-13T10:05:24Z</time>
      </trkpt>
      <trkpt lat="47.55376" lon="6.69271">
        <ele>372</ele>
        <time>2014-04-13T10:05:25Z</time>
      </trkpt>
      <trkpt lat="47.55378" lon="6.69273">
        <ele>373</ele>
        <time>2014-04-13T10:05:26Z</time>
      </trkpt>
      <trkpt lat="47.55381" lon="6.69274">
        <ele>373</ele>
        <time>2014-04-13T10:05:27Z</time>
      </trkpt>
      <trkpt lat="47.55383" lon="6.69275">
        <ele>374</ele>
        <time>2014-04-13T10:05:28Z</time>
      </trkpt>
      <trkpt lat="47.5539" lon="6.69279">
        <ele>374</ele>
        <time>2014-04-13T10:05:31Z</time>
      </trkpt>
      <trkpt lat="47.55392" lon="6.6928">
        <ele>374</ele>
        <time>2014-04-13T10:05:32Z</time>
      </trkpt>
      <trkpt lat="47.55395" lon="6.69281">
        <ele>375</ele>
        <time>2014-04-13T10:05:33Z</time>
      </trkpt>
      <trkpt lat="47.55397" lon="6.69281">
        <ele>375</ele>
        <time>2014-04-13T10:05:34Z</time>
      </trkpt>
      <trkpt lat="47.554" lon="6.69282">
        <ele>376</ele>
        <time>2014-04-13T10:05:35Z</time>
      </trkpt>
      <trkpt lat="47.55407" lon="6.69284">
        <ele>376</ele>
        <time>2014-04-13T10:05:38Z</time>
      </trkpt>
      <trkpt lat="47.5541" lon="6.69285">
        <ele>376</ele>
        <time>2014-04-13T10:05:39Z</time>
      </trkpt>
      <trkpt lat="47.55412" lon="6.69286">
        <ele>377</ele>
        <time>2014-04-13T10:05:40Z</time>
      </trkpt>
      <trkpt lat="47.55415" lon="6.69287">
        <ele>377</ele>
        <time>2014-04-13T10:05:41Z</time>
      </trkpt>
      <trkpt lat="47.55418" lon="6.69288">
        <ele>378</ele>
        <time>2014-04-13T10:05:42Z</time>
      </trkpt>
      <trkpt lat="47.55431" lon="6.69292">
        <ele>378</ele>
        <time>2014-04-13T10:05:47Z</time>
      </trkpt>
      <trkpt lat="47.55433" lon="6.69293">
        <ele>379</ele>
        <time>2014-04-13T10:05:48Z</time>
      </trkpt>
      <trkpt lat="47.55436" lon="6.69294">
        <ele>379</ele>
        <time>2014-04-13T10:05:49Z</time>
      </trkpt>
      <trkpt lat="47.55439" lon="6.69294">
        <ele>379</ele>
        <time>2014-04-13T10:05:50Z</time>
      </trkpt>
      <trkpt lat="47.55441" lon="6.69294">
        <ele>380</ele>
        <time>2014-04-13T10:05:51Z</time>
      </trkpt>
      <trkpt lat="47.55444" lon="6.69294">
        <ele>380</ele>
        <time>2014-04-13T10:05:52Z</time>
      </trkpt>
      <trkpt lat="47.55454" lon="6.69296">
        <ele>380</ele>
        <time>2014-04-13T10:05:56Z</time>
      </trkpt>
      <trkpt lat="47.55457" lon="6.69296">
        <ele>381</ele>
        <time>2014-04-13T10:05:57Z</time>
      </trkpt>
      <trkpt lat="47.5546" lon="6.69296">
        <ele>381</ele>
        <time>2014-04-13T10:05:58Z</time>
      </trkpt>
      <trkpt lat="47.55463" lon="6.69297">
        <ele>382</ele>
        <time>2014-04-13T10:05:59Z</time>
      </trkpt>
      <trkpt lat="47.55466" lon="6.69297">
        <ele>382</ele>
        <time>2014-04-13T10:06:00Z</time>
      </trkpt>
      <trkpt lat="47.55474" lon="6.69302">
        <ele>382</ele>
        <time>2014-04-13T10:06:03Z</time>
      </trkpt>
      <trkpt lat="47.55476" lon="6.69304">
        <ele>383</ele>
        <time>2014-04-13T10:06:04Z</time>
      </trkpt>
      <trkpt lat="47.55478" lon="6.69305">
        <ele>383</ele>
        <time>2014-04-13T10:06:05Z</time>
      </trkpt>
      <trkpt lat="47.55481" lon="6.69307">
        <ele>383</ele>
        <time>2014-04-13T10:06:06Z</time>
      </trkpt>
      <trkpt lat="47.55483" lon="6.6931">
        <ele>384</ele>
        <time>2014-04-13T10:06:07Z</time>
      </trkpt>
      <trkpt lat="47.55485" lon="6.69313">
        <ele>384</ele>
        <time>2014-04-13T10:06:08Z</time>
      </trkpt>
      <trkpt lat="47.55487" lon="6.69316">
        <ele>384</ele>
        <time>2014-04-13T10:06:09Z</time>
      </trkpt>
      <trkpt lat="47.55501" lon="6.69327">
        <ele>384</ele>
        <time>2014-04-13T10:06:14Z</time>
      </trkpt>
      <trkpt lat="47.55504" lon="6.69329">
        <ele>385</ele>
        <time>2014-04-13T10:06:15Z</time>
      </trkpt>
      <trkpt lat="47.55507" lon="6.69331">
        <ele>385</ele>
        <time>2014-04-13T10:06:16Z</time>
      </trkpt>
      <trkpt lat="47.5551" lon="6.69333">
        <ele>386</ele>
        <time>2014-04-13T10:06:17Z</time>
      </trkpt>
      <trkpt lat="47.55513" lon="6.69335">
        <ele>386</ele>
        <time>2014-04-13T10:06:18Z</time>
      </trkpt>
      <trkpt lat="47.55517" lon="6.69336">
        <ele>386</ele>
        <time>2014-04-13T10:06:19Z</time>
      </trkpt>
      <trkpt lat="47.55526" lon="6.69342">
        <ele>386</ele>
        <time>2014-04-13T10:06:22Z</time>
      </trkpt>
      <trkpt lat="47.55543" lon="6.69352">
        <ele>387</ele>
        <time>2014-04-13T10:06:27Z</time>
      </trkpt>
      <trkpt lat="47.55546" lon="6.69353">
        <ele>387</ele>
        <time>2014-04-13T10:06:28Z</time>
      </trkpt>
      <trkpt lat="47.5555" lon="6.69356">
        <ele>388</ele>
        <time>2014-04-13T10:06:29Z</time>
      </trkpt>
      <trkpt lat="47.55553" lon="6.69358">
        <ele>388</ele>
        <time>2014-04-13T10:06:30Z</time>
      </trkpt>
      <trkpt lat="47.55557" lon="6.6936">
        <ele>388</ele>
        <time>2014-04-13T10:06:31Z</time>
      </trkpt>
      <trkpt lat="47.55571" lon="6.69372">
        <ele>388</ele>
        <time>2014-04-13T10:06:35Z</time>
      </trkpt>
      <trkpt lat="47.55574" lon="6.69377">
        <ele>388</ele>
        <time>2014-04-13T10:06:36Z</time>
      </trkpt>
      <trkpt lat="47.55591" lon="6.69411">
        <ele>388</ele>
        <time>2014-04-13T10:06:43Z</time>
      </trkpt>
      <trkpt lat="47.55599" lon="6.69423">
        <ele>389</ele>
        <time>2014-04-13T10:06:46Z</time>
      </trkpt>
      <trkpt lat="47.55602" lon="6.69427">
        <ele>389</ele>
        <time>2014-04-13T10:06:47Z</time>
      </trkpt>
      <trkpt lat="47.55605" lon="6.6943">
        <ele>390</ele>
        <time>2014-04-13T10:06:48Z</time>
      </trkpt>
      <trkpt lat="47.55608" lon="6.69433">
        <ele>390</ele>
        <time>2014-04-13T10:06:49Z</time>
      </trkpt>
      <trkpt lat="47.55611" lon="6.69435">
        <ele>391</ele>
        <time>2014-04-13T10:06:50Z</time>
      </trkpt>
      <trkpt lat="47.55626" lon="6.6944">
        <ele>391</ele>
        <time>2014-04-13T10:06:54Z</time>
      </trkpt>
      <trkpt lat="47.5563" lon="6.6944">
        <ele>391</ele>
        <time>2014-04-13T10:06:55Z</time>
      </trkpt>
      <trkpt lat="47.55634" lon="6.6944">
        <ele>392</ele>
        <time>2014-04-13T10:06:56Z</time>
      </trkpt>
      <trkpt lat="47.55638" lon="6.6944">
        <ele>392</ele>
        <time>2014-04-13T10:06:57Z</time>
      </trkpt>
      <trkpt lat="47.55642" lon="6.6944">
        <ele>393</ele>
        <time>2014-04-13T10:06:58Z</time>
      </trkpt>
      <trkpt lat="47.55663" lon="6.69438">
        <ele>393</ele>
        <time>2014-04-13T10:07:03Z</time>
      </trkpt>
      <trkpt lat="47.55679" lon="6.69439">
        <ele>393</ele>
        <time>2014-04-13T10:07:07Z</time>
      </trkpt>
      <trkpt lat="47.55686" lon="6.69444">
        <ele>393</ele>
        <time>2014-04-13T10:07:09Z</time>
      </trkpt>
      <trkpt lat="47.55694" lon="6.69445">
        <ele>393</ele>
        <time>2014-04-13T10:07:11Z</time>
      </trkpt>
      <trkpt lat="47.55697" lon="6.69442">
        <ele>393</ele>
        <time>2014-04-13T10:07:12Z</time>
      </trkpt>
      <trkpt lat="47.55704" lon="6.69428">
        <ele>393</ele>
        <time>2014-04-13T10:07:15Z</time>
      </trkpt>
      <trkpt lat="47.55706" lon="6.69423">
        <ele>393</ele>
        <time>2014-04-13T10:07:16Z</time>
      </trkpt>
      <trkpt lat="47.55708" lon="6.69419">
        <ele>393</ele>
        <time>2014-04-13T10:07:17Z</time>
      </trkpt>
      <trkpt lat="47.5571" lon="6.69414">
        <ele>394</ele>
        <time>2014-04-13T10:07:18Z</time>
      </trkpt>
      <trkpt lat="47.55712" lon="6.6941">
        <ele>394</ele>
        <time>2014-04-13T10:07:19Z</time>
      </trkpt>
      <trkpt lat="47.55713" lon="6.69406">
        <ele>395</ele>
        <time>2014-04-13T10:07:20Z</time>
      </trkpt>
      <trkpt lat="47.55719" lon="6.69392">
        <ele>395</ele>
        <time>2014-04-13T10:07:23Z</time>
      </trkpt>
      <trkpt lat="47.55725" lon="6.6938">
        <ele>395</ele>
        <time>2014-04-13T10:07:26Z</time>
      </trkpt>
      <trkpt lat="47.55727" lon="6.69376">
        <ele>396</ele>
        <time>2014-04-13T10:07:27Z</time>
      </trkpt>
      <trkpt lat="47.55729" lon="6.69371">
        <ele>396</ele>
        <time>2014-04-13T10:07:28Z</time>
      </trkpt>
      <trkpt lat="47.55731" lon="6.69367">
        <ele>396</ele>
        <time>2014-04-13T10:07:29Z</time>
      </trkpt>
      <trkpt lat="47.55733" lon="6.69363">
        <ele>397</ele>
        <time>2014-04-13T10:07:30Z</time>
      </trkpt>
      <trkpt lat="47.55748" lon="6.69335">
        <ele>397</ele>
        <time>2014-04-13T10:07:37Z</time>
      </trkpt>
      <trkpt lat="47.55753" lon="6.69329">
        <ele>398</ele>
        <time>2014-04-13T10:07:39Z</time>
      </trkpt>
      <trkpt lat="47.55756" lon="6.69326">
        <ele>398</ele>
        <time>2014-04-13T10:07:40Z</time>
      </trkpt>
      <trkpt lat="47.55759" lon="6.69324">
        <ele>399</ele>
        <time>2014-04-13T10:07:41Z</time>
      </trkpt>
      <trkpt lat="47.55762" lon="6.69321">
        <ele>399</ele>
        <time>2014-04-13T10:07:42Z</time>
      </trkpt>
      <trkpt lat="47.55769" lon="6.69316">
        <ele>399</ele>
        <time>2014-04-13T10:07:44Z</time>
      </trkpt>
      <trkpt lat="47.55791" lon="6.69291">
        <ele>399</ele>
        <time>2014-04-13T10:07:52Z</time>
      </trkpt>
      <trkpt lat="47.55796" lon="6.69284">
        <ele>399</ele>
        <time>2014-04-13T10:07:54Z</time>
      </trkpt>
      <trkpt lat="47.55798" lon="6.6928">
        <ele>400</ele>
        <time>2014-04-13T10:07:55Z</time>
      </trkpt>
      <trkpt lat="47.55801" lon="6.69276">
        <ele>400</ele>
        <time>2014-04-13T10:07:56Z</time>
      </trkpt>
      <trkpt lat="47.55803" lon="6.69272">
        <ele>401</ele>
        <time>2014-04-13T10:07:57Z</time>
      </trkpt>
      <trkpt lat="47.55805" lon="6.69268">
        <ele>401</ele>
        <time>2014-04-13T10:07:58Z</time>
      </trkpt>
      <trkpt lat="47.55807" lon="6.69263">
        <ele>401</ele>
        <time>2014-04-13T10:07:59Z</time>
      </trkpt>
      <trkpt lat="47.5582" lon="6.69237">
        <ele>401</ele>
        <time>2014-04-13T10:08:05Z</time>
      </trkpt>
      <trkpt lat="47.5584" lon="6.69206">
        <ele>401</ele>
        <time>2014-04-13T10:08:12Z</time>
      </trkpt>
      <trkpt lat="47.55861" lon="6.69176">
        <ele>401</ele>
        <time>2014-04-13T10:08:18Z</time>
      </trkpt>
      <trkpt lat="47.5588" lon="6.69156">
        <ele>402</ele>
        <time>2014-04-13T10:08:23Z</time>
      </trkpt>
      <trkpt lat="47.55883" lon="6.69153">
        <ele>402</ele>
        <time>2014-04-13T10:08:24Z</time>
      </trkpt>
      <trkpt lat="47.55887" lon="6.6915">
        <ele>402</ele>
        <time>2014-04-13T10:08:25Z</time>
      </trkpt>
      <trkpt lat="47.55891" lon="6.69147">
        <ele>403</ele>
        <time>2014-04-13T10:08:26Z</time>
      </trkpt>
      <trkpt lat="47.55895" lon="6.69146">
        <ele>403</ele>
        <time>2014-04-13T10:08:27Z</time>
      </trkpt>
      <trkpt lat="47.55899" lon="6.69144">
        <ele>403</ele>
        <time>2014-04-13T10:08:28Z</time>
      </trkpt>
      <trkpt lat="47.55907" lon="6.69143">
        <ele>404</ele>
        <time>2014-04-13T10:08:30Z</time>
      </trkpt>
      <trkpt lat="47.55911" lon="6.69144">
        <ele>404</ele>
        <time>2014-04-13T10:08:31Z</time>
      </trkpt>
      <trkpt lat="47.55915" lon="6.69146">
        <ele>405</ele>
        <time>2014-04-13T10:08:32Z</time>
      </trkpt>
      <trkpt lat="47.55919" lon="6.69148">
        <ele>405</ele>
        <time>2014-04-13T10:08:33Z</time>
      </trkpt>
      <trkpt lat="47.55922" lon="6.69151">
        <ele>405</ele>
        <time>2014-04-13T10:08:34Z</time>
      </trkpt>
      <trkpt lat="47.55929" lon="6.69158">
        <ele>406</ele>
        <time>2014-04-13T10:08:36Z</time>
      </trkpt>
      <trkpt lat="47.55932" lon="6.69163">
        <ele>406</ele>
        <time>2014-04-13T10:08:37Z</time>
      </trkpt>
      <trkpt lat="47.55934" lon="6.69167">
        <ele>407</ele>
        <time>2014-04-13T10:08:38Z</time>
      </trkpt>
      <trkpt lat="47.55936" lon="6.69172">
        <ele>407</ele>
        <time>2014-04-13T10:08:39Z</time>
      </trkpt>
      <trkpt lat="47.55938" lon="6.69178">
        <ele>407</ele>
        <time>2014-04-13T10:08:40Z</time>
      </trkpt>
      <trkpt lat="47.55941" lon="6.69188">
        <ele>407</ele>
        <time>2014-04-13T10:08:42Z</time>
      </trkpt>
      <trkpt lat="47.55943" lon="6.69197">
        <ele>408</ele>
        <time>2014-04-13T10:08:44Z</time>
      </trkpt>
      <trkpt lat="47.55944" lon="6.69201">
        <ele>408</ele>
        <time>2014-04-13T10:08:45Z</time>
      </trkpt>
      <trkpt lat="47.55945" lon="6.69206">
        <ele>409</ele>
        <time>2014-04-13T10:08:46Z</time>
      </trkpt>
      <trkpt lat="47.55945" lon="6.69211">
        <ele>409</ele>
        <time>2014-04-13T10:08:47Z</time>
      </trkpt>
      <trkpt lat="47.55946" lon="6.69217">
        <ele>410</ele>
        <time>2014-04-13T10:08:48Z</time>
      </trkpt>
      <trkpt lat="47.55947" lon="6.69222">
        <ele>410</ele>
        <time>2014-04-13T10:08:49Z</time>
      </trkpt>
      <trkpt lat="47.55952" lon="6.69231">
        <ele>410</ele>
        <time>2014-04-13T10:08:52Z</time>
      </trkpt>
      <trkpt lat="47.55954" lon="6.69233">
        <ele>410</ele>
        <time>2014-04-13T10:08:53Z</time>
      </trkpt>
      <trkpt lat="47.55955" lon="6.69234">
        <ele>411</ele>
        <time>2014-04-13T10:08:54Z</time>
      </trkpt>
      <trkpt lat="47.55956" lon="6.69234">
        <ele>412</ele>
        <time>2014-04-13T10:08:55Z</time>
      </trkpt>
      <trkpt lat="47.55958" lon="6.69234">
        <ele>412</ele>
        <time>2014-04-13T10:08:57Z</time>
      </trkpt>
      <trkpt lat="47.55959" lon="6.69234">
        <ele>412</ele>
        <time>2014-04-13T10:08:58Z</time>
      </trkpt>
      <trkpt lat="47.55963" lon="6.69237">
        <ele>412</ele>
        <time>2014-04-13T10:09:03Z</time>
      </trkpt>
      <trkpt lat="47.55964" lon="6.69237">
        <ele>412</ele>
        <time>2014-04-13T10:09:05Z</time>
      </trkpt>
      <trkpt lat="47.55964" lon="6.69239">
        <ele>412</ele>
        <time>2014-04-13T10:12:10Z</time>
      </trkpt>
      <trkpt lat="47.55964" lon="6.69239">
        <ele>412</ele>
        <time>2014-04-13T10:12:11Z</time>
      </trkpt>
      <trkpt lat="47.55964" lon="6.69239">
        <ele>412</ele>
        <time>2014-04-13T10:12:13Z</time>
      </trkpt>
      <trkpt lat="47.55963" lon="6.69236">
        <ele>414</ele>
        <time>2014-04-13T10:13:04Z</time>
      </trkpt>
      <trkpt lat="47.55963" lon="6.69236">
        <ele>414</ele>
        <time>2014-04-13T10:13:06Z</time>
      </trkpt>
      <trkpt lat="47.55962" lon="6.69237">
        <ele>414</ele>
        <time>2014-04-13T10:13:07Z</time>
      </trkpt>
      <trkpt lat="47.55964" lon="6.69239">
        <ele>414</ele>
        <time>2014-04-13T10:13:52Z</time>
      </trkpt>
      <trkpt lat="47.55964" lon="6.69239">
        <ele>414</ele>
        <time>2014-04-13T10:13:54Z</time>
      </trkpt>
      <trkpt lat="47.55966" lon="6.69237">
        <ele>414</ele>
        <time>2014-04-13T10:13:56Z</time>
      </trkpt>
      <trkpt lat="47.55968" lon="6.69235">
        <ele>414</ele>
        <time>2014-04-13T10:13:58Z</time>
      </trkpt>
      <trkpt lat="47.55968" lon="6.69234">
        <ele>414</ele>
        <time>2014-04-13T10:14:01Z</time>
      </trkpt>
      <trkpt lat="47.55972" lon="6.69236">
        <ele>414</ele>
        <time>2014-04-13T10:14:07Z</time>
      </trkpt>
      <trkpt lat="47.55973" lon="6.69238">
        <ele>414</ele>
        <time>2014-04-13T10:14:10Z</time>
      </trkpt>
      <trkpt lat="47.55973" lon="6.69238">
        <ele>414</ele>
        <time>2014-04-13T10:14:12Z</time>
      </trkpt>
      <trkpt lat="47.5597" lon="6.69239">
        <ele>414</ele>
        <time>2014-04-13T10:15:12Z</time>
      </trkpt>
      <trkpt lat="47.5597" lon="6.69239">
        <ele>414</ele>
        <time>2014-04-13T10:15:15Z</time>
      </trkpt>
      <trkpt lat="47.55971" lon="6.69235">
        <ele>410</ele>
        <time>2014-04-13T10:34:51Z</time>
      </trkpt>
      <trkpt lat="47.5597" lon="6.6923">
        <ele>410</ele>
        <time>2014-04-13T10:34:55Z</time>
      </trkpt>
      <trkpt lat="47.55969" lon="6.6923">
        <ele>410</ele>
        <time>2014-04-13T10:34:56Z</time>
      </trkpt>
      <trkpt lat="47.55972" lon="6.69222">
        <ele>410</ele>
        <time>2014-04-13T10:35:16Z</time>
      </trkpt>
      <trkpt lat="47.55974" lon="6.69214">
        <ele>410</ele>
        <time>2014-04-13T10:35:18Z</time>
      </trkpt>
      <trkpt lat="47.55978" lon="6.69187">
        <ele>410</ele>
        <time>2014-04-13T10:35:22Z</time>
      </trkpt>
      <trkpt lat="47.55989" lon="6.69133">
        <ele>410</ele>
        <time>2014-04-13T10:35:28Z</time>
      </trkpt>
      <trkpt lat="47.5599" lon="6.69124">
        <ele>409</ele>
        <time>2014-04-13T10:35:29Z</time>
      </trkpt>
      <trkpt lat="47.55992" lon="6.69116">
        <ele>409</ele>
        <time>2014-04-13T10:35:30Z</time>
      </trkpt>
      <trkpt lat="47.55993" lon="6.69109">
        <ele>408</ele>
        <time>2014-04-13T10:35:31Z</time>
      </trkpt>
      <trkpt lat="47.55994" lon="6.69101">
        <ele>408</ele>
        <time>2014-04-13T10:35:32Z</time>
      </trkpt>
      <trkpt lat="47.55994" lon="6.69092">
        <ele>408</ele>
        <time>2014-04-13T10:35:33Z</time>
      </trkpt>
      <trkpt lat="47.55992" lon="6.69066">
        <ele>408</ele>
        <time>2014-04-13T10:35:36Z</time>
      </trkpt>
      <trkpt lat="47.55983" lon="6.69038">
        <ele>408</ele>
        <time>2014-04-13T10:35:39Z</time>
      </trkpt>
      <trkpt lat="47.55979" lon="6.69029">
        <ele>408</ele>
        <time>2014-04-13T10:35:40Z</time>
      </trkpt>
      <trkpt lat="47.55959" lon="6.68974">
        <ele>408</ele>
        <time>2014-04-13T10:35:46Z</time>
      </trkpt>
      <trkpt lat="47.5594" lon="6.68927">
        <ele>408</ele>
        <time>2014-04-13T10:35:52Z</time>
      </trkpt>
      <trkpt lat="47.55923" lon="6.68889">
        <ele>408</ele>
        <time>2014-04-13T10:35:57Z</time>
      </trkpt>
      <trkpt lat="47.5592" lon="6.6888">
        <ele>408</ele>
        <time>2014-04-13T10:35:58Z</time>
      </trkpt>
      <trkpt lat="47.55898" lon="6.68827">
        <ele>408</ele>
        <time>2014-04-13T10:36:04Z</time>
      </trkpt>
      <trkpt lat="47.55885" lon="6.68778">
        <ele>407</ele>
        <time>2014-04-13T10:36:09Z</time>
      </trkpt>
      <trkpt lat="47.55884" lon="6.68768">
        <ele>407</ele>
        <time>2014-04-13T10:36:10Z</time>
      </trkpt>
      <trkpt lat="47.55882" lon="6.68759">
        <ele>406</ele>
        <time>2014-04-13T10:36:11Z</time>
      </trkpt>
      <trkpt lat="47.5588" lon="6.6875">
        <ele>406</ele>
        <time>2014-04-13T10:36:12Z</time>
      </trkpt>
      <trkpt lat="47.55879" lon="6.68742">
        <ele>406</ele>
        <time>2014-04-13T10:36:13Z</time>
      </trkpt>
      <trkpt lat="47.55877" lon="6.68733">
        <ele>406</ele>
        <time>2014-04-13T10:36:14Z</time>
      </trkpt>
      <trkpt lat="47.55876" lon="6.68724">
        <ele>406</ele>
        <time>2014-04-13T10:36:15Z</time>
      </trkpt>
      <trkpt lat="47.55872" lon="6.68689">
        <ele>406</ele>
        <time>2014-04-13T10:36:19Z</time>
      </trkpt>
      <trkpt lat="47.5587" lon="6.68681">
        <ele>406</ele>
        <time>2014-04-13T10:36:20Z</time>
      </trkpt>
      <trkpt lat="47.55862" lon="6.68665">
        <ele>406</ele>
        <time>2014-04-13T10:36:22Z</time>
      </trkpt>
      <trkpt lat="47.55851" lon="6.68628">
        <ele>406</ele>
        <time>2014-04-13T10:36:26Z</time>
      </trkpt>
      <trkpt lat="47.55852" lon="6.68605">
        <ele>406</ele>
        <time>2014-04-13T10:36:29Z</time>
      </trkpt>
      <trkpt lat="47.55861" lon="6.68599">
        <ele>406</ele>
        <time>2014-04-13T10:36:32Z</time>
      </trkpt>
      <trkpt lat="47.55865" lon="6.68598">
        <ele>406</ele>
        <time>2014-04-13T10:36:34Z</time>
      </trkpt>
      <trkpt lat="47.55866" lon="6.68597">
        <ele>406</ele>
        <time>2014-04-13T10:36:35Z</time>
      </trkpt>
      <trkpt lat="47.55868" lon="6.68598">
        <ele>407</ele>
        <time>2014-04-13T10:36:36Z</time>
      </trkpt>
      <trkpt lat="47.5587" lon="6.68599">
        <ele>407</ele>
        <time>2014-04-13T10:36:37Z</time>
      </trkpt>
      <trkpt lat="47.55872" lon="6.686">
        <ele>408</ele>
        <time>2014-04-13T10:36:38Z</time>
      </trkpt>
      <trkpt lat="47.55878" lon="6.68606">
        <ele>408</ele>
        <time>2014-04-13T10:36:41Z</time>
      </trkpt>
      <trkpt lat="47.5588" lon="6.68608">
        <ele>408</ele>
        <time>2014-04-13T10:36:42Z</time>
      </trkpt>
      <trkpt lat="47.55882" lon="6.6861">
        <ele>409</ele>
        <time>2014-04-13T10:36:43Z</time>
      </trkpt>
      <trkpt lat="47.55884" lon="6.68612">
        <ele>409</ele>
        <time>2014-04-13T10:36:44Z</time>
      </trkpt>
      <trkpt lat="47.55885" lon="6.68614">
        <ele>410</ele>
        <time>2014-04-13T10:36:45Z</time>
      </trkpt>
      <trkpt lat="47.55888" lon="6.68616">
        <ele>410</ele>
        <time>2014-04-13T10:36:47Z</time>
      </trkpt>
      <trkpt lat="47.55891" lon="6.68619">
        <ele>410</ele>
        <time>2014-04-13T10:36:49Z</time>
      </trkpt>
      <trkpt lat="47.55893" lon="6.6862">
        <ele>411</ele>
        <time>2014-04-13T10:36:50Z</time>
      </trkpt>
      <trkpt lat="47.55896" lon="6.6862">
        <ele>411</ele>
        <time>2014-04-13T10:36:51Z</time>
      </trkpt>
      <trkpt lat="47.55898" lon="6.68621">
        <ele>412</ele>
        <time>2014-04-13T10:36:52Z</time>
      </trkpt>
      <trkpt lat="47.559" lon="6.68622">
        <ele>412</ele>
        <time>2014-04-13T10:36:53Z</time>
      </trkpt>
      <trkpt lat="47.55903" lon="6.68622">
        <ele>412</ele>
        <time>2014-04-13T10:36:54Z</time>
      </trkpt>
      <trkpt lat="47.5591" lon="6.68622">
        <ele>412</ele>
        <time>2014-04-13T10:36:57Z</time>
      </trkpt>
      <trkpt lat="47.55912" lon="6.68622">
        <ele>413</ele>
        <time>2014-04-13T10:36:58Z</time>
      </trkpt>
      <trkpt lat="47.55914" lon="6.68622">
        <ele>413</ele>
        <time>2014-04-13T10:36:59Z</time>
      </trkpt>
      <trkpt lat="47.55916" lon="6.68623">
        <ele>414</ele>
        <time>2014-04-13T10:37:00Z</time>
      </trkpt>
      <trkpt lat="47.55919" lon="6.68623">
        <ele>414</ele>
        <time>2014-04-13T10:37:01Z</time>
      </trkpt>
      <trkpt lat="47.55925" lon="6.68627">
        <ele>414</ele>
        <time>2014-04-13T10:37:04Z</time>
      </trkpt>
      <trkpt lat="47.55927" lon="6.68629">
        <ele>415</ele>
        <time>2014-04-13T10:37:05Z</time>
      </trkpt>
      <trkpt lat="47.55929" lon="6.68631">
        <ele>415</ele>
        <time>2014-04-13T10:37:06Z</time>
      </trkpt>
      <trkpt lat="47.55931" lon="6.68633">
        <ele>415</ele>
        <time>2014-04-13T10:37:07Z</time>
      </trkpt>
      <trkpt lat="47.55933" lon="6.68636">
        <ele>416</ele>
        <time>2014-04-13T10:37:08Z</time>
      </trkpt>
      <trkpt lat="47.55936" lon="6.68638">
        <ele>416</ele>
        <time>2014-04-13T10:37:09Z</time>
      </trkpt>
      <trkpt lat="47.55942" lon="6.68646">
        <ele>416</ele>
        <time>2014-04-13T10:37:12Z</time>
      </trkpt>
      <trkpt lat="47.55944" lon="6.68647">
        <ele>416</ele>
        <time>2014-04-13T10:37:13Z</time>
      </trkpt>
      <trkpt lat="47.5595" lon="6.68648">
        <ele>417</ele>
        <time>2014-04-13T10:37:16Z</time>
      </trkpt>
      <trkpt lat="47.55952" lon="6.68648">
        <ele>417</ele>
        <time>2014-04-13T10:37:17Z</time>
      </trkpt>
      <trkpt lat="47.55954" lon="6.68648">
        <ele>417</ele>
        <time>2014-04-13T10:37:18Z</time>
      </trkpt>
      <trkpt lat="47.55956" lon="6.68649">
        <ele>418</ele>
        <time>2014-04-13T10:37:19Z</time>
      </trkpt>
      <trkpt lat="47.55958" lon="6.6865">
        <ele>418</ele>
        <time>2014-04-13T10:37:20Z</time>
      </trkpt>
      <trkpt lat="47.55961" lon="6.68651">
        <ele>418</ele>
        <time>2014-04-13T10:37:22Z</time>
      </trkpt>
      <trkpt lat="47.55963" lon="6.68652">
        <ele>418</ele>
        <time>2014-04-13T10:37:23Z</time>
      </trkpt>
      <trkpt lat="47.55966" lon="6.68655">
        <ele>419</ele>
        <time>2014-04-13T10:37:25Z</time>
      </trkpt>
      <trkpt lat="47.55967" lon="6.68656">
        <ele>419</ele>
        <time>2014-04-13T10:37:26Z</time>
      </trkpt>
      <trkpt lat="47.55969" lon="6.68657">
        <ele>420</ele>
        <time>2014-04-13T10:37:27Z</time>
      </trkpt>
      <trkpt lat="47.55971" lon="6.68659">
        <ele>420</ele>
        <time>2014-04-13T10:37:28Z</time>
      </trkpt>
      <trkpt lat="47.55973" lon="6.68662">
        <ele>420</ele>
        <time>2014-04-13T10:37:29Z</time>
      </trkpt>
      <trkpt lat="47.55983" lon="6.6867">
        <ele>420</ele>
        <time>2014-04-13T10:37:33Z</time>
      </trkpt>
      <trkpt lat="47.55985" lon="6.68671">
        <ele>420</ele>
        <time>2014-04-13T10:37:34Z</time>
      </trkpt>
      <trkpt lat="47.55994" lon="6.68671">
        <ele>421</ele>
        <time>2014-04-13T10:37:37Z</time>
      </trkpt>
      <trkpt lat="47.55996" lon="6.6867">
        <ele>421</ele>
        <time>2014-04-13T10:37:38Z</time>
      </trkpt>
      <trkpt lat="47.55998" lon="6.6867">
        <ele>422</ele>
        <time>2014-04-13T10:37:39Z</time>
      </trkpt>
      <trkpt lat="47.55999" lon="6.6867">
        <ele>422</ele>
        <time>2014-04-13T10:37:40Z</time>
      </trkpt>
      <trkpt lat="47.56001" lon="6.6867">
        <ele>422</ele>
        <time>2014-04-13T10:37:41Z</time>
      </trkpt>
      <trkpt lat="47.56007" lon="6.68669">
        <ele>423</ele>
        <time>2014-04-13T10:37:44Z</time>
      </trkpt>
      <trkpt lat="47.56009" lon="6.68668">
        <ele>423</ele>
        <time>2014-04-13T10:37:45Z</time>
      </trkpt>
      <trkpt lat="47.56011" lon="6.68667">
        <ele>424</ele>
        <time>2014-04-13T10:37:46Z</time>
      </trkpt>
      <trkpt lat="47.56012" lon="6.68667">
        <ele>424</ele>
        <time>2014-04-13T10:37:47Z</time>
      </trkpt>
      <trkpt lat="47.56013" lon="6.68666">
        <ele>424</ele>
        <time>2014-04-13T10:37:48Z</time>
      </trkpt>
      <trkpt lat="47.5602" lon="6.68662">
        <ele>425</ele>
        <time>2014-04-13T10:37:53Z</time>
      </trkpt>
      <trkpt lat="47.56021" lon="6.68662">
        <ele>425</ele>
        <time>2014-04-13T10:37:54Z</time>
      </trkpt>
      <trkpt lat="47.56022" lon="6.68661">
        <ele>426</ele>
        <time>2014-04-13T10:37:55Z</time>
      </trkpt>
      <trkpt lat="47.56024" lon="6.6866">
        <ele>426</ele>
        <time>2014-04-13T10:37:56Z</time>
      </trkpt>
      <trkpt lat="47.56025" lon="6.68659">
        <ele>427</ele>
        <time>2014-04-13T10:37:57Z</time>
      </trkpt>
      <trkpt lat="47.56031" lon="6.68655">
        <ele>427</ele>
        <time>2014-04-13T10:38:01Z</time>
      </trkpt>
      <trkpt lat="47.56032" lon="6.68654">
        <ele>427</ele>
        <time>2014-04-13T10:38:02Z</time>
      </trkpt>
      <trkpt lat="47.56034" lon="6.68652">
        <ele>427</ele>
        <time>2014-04-13T10:38:03Z</time>
      </trkpt>
      <trkpt lat="47.56035" lon="6.6865">
        <ele>428</ele>
        <time>2014-04-13T10:38:04Z</time>
      </trkpt>
      <trkpt lat="47.56036" lon="6.68648">
        <ele>428</ele>
        <time>2014-04-13T10:38:05Z</time>
      </trkpt>
      <trkpt lat="47.56038" lon="6.68647">
        <ele>429</ele>
        <time>2014-04-13T10:38:06Z</time>
      </trkpt>
      <trkpt lat="47.56041" lon="6.68643">
        <ele>429</ele>
        <time>2014-04-13T10:38:09Z</time>
      </trkpt>
      <trkpt lat="47.56043" lon="6.68639">
        <ele>429</ele>
        <time>2014-04-13T10:38:11Z</time>
      </trkpt>
      <trkpt lat="47.56045" lon="6.68638">
        <ele>429</ele>
        <time>2014-04-13T10:38:12Z</time>
      </trkpt>
      <trkpt lat="47.56046" lon="6.68635">
        <ele>430</ele>
        <time>2014-04-13T10:38:13Z</time>
      </trkpt>
      <trkpt lat="47.56047" lon="6.68634">
        <ele>430</ele>
        <time>2014-04-13T10:38:14Z</time>
      </trkpt>
      <trkpt lat="47.56049" lon="6.68632">
        <ele>431</ele>
        <time>2014-04-13T10:38:15Z</time>
      </trkpt>
      <trkpt lat="47.56053" lon="6.68627">
        <ele>431</ele>
        <time>2014-04-13T10:38:20Z</time>
      </trkpt>
      <trkpt lat="47.56054" lon="6.68626">
        <ele>431</ele>
        <time>2014-04-13T10:38:21Z</time>
      </trkpt>
      <trkpt lat="47.56055" lon="6.68625">
        <ele>432</ele>
        <time>2014-04-13T10:38:22Z</time>
      </trkpt>
      <trkpt lat="47.56056" lon="6.68624">
        <ele>432</ele>
        <time>2014-04-13T10:38:23Z</time>
      </trkpt>
      <trkpt lat="47.56057" lon="6.68624">
        <ele>432</ele>
        <time>2014-04-13T10:38:24Z</time>
      </trkpt>
      <trkpt lat="47.56059" lon="6.68623">
        <ele>433</ele>
        <time>2014-04-13T10:38:25Z</time>
      </trkpt>
      <trkpt lat="47.56064" lon="6.68618">
        <ele>433</ele>
        <time>2014-04-13T10:38:29Z</time>
      </trkpt>
      <trkpt lat="47.56065" lon="6.68616">
        <ele>433</ele>
        <time>2014-04-13T10:38:30Z</time>
      </trkpt>
      <trkpt lat="47.56065" lon="6.68615">
        <ele>434</ele>
        <time>2014-04-13T10:38:31Z</time>
      </trkpt>
      <trkpt lat="47.56065" lon="6.68613">
        <ele>434</ele>
        <time>2014-04-13T10:38:32Z</time>
      </trkpt>
      <trkpt lat="47.56066" lon="6.68612">
        <ele>435</ele>
        <time>2014-04-13T10:38:33Z</time>
      </trkpt>
      <trkpt lat="47.56067" lon="6.68611">
        <ele>435</ele>
        <time>2014-04-13T10:38:34Z</time>
      </trkpt>
      <trkpt lat="47.56078" lon="6.68608">
        <ele>435</ele>
        <time>2014-04-13T10:38:41Z</time>
      </trkpt>
      <trkpt lat="47.56079" lon="6.68608">
        <ele>436</ele>
        <time>2014-04-13T10:38:42Z</time>
      </trkpt>
      <trkpt lat="47.56081" lon="6.68607">
        <ele>436</ele>
        <time>2014-04-13T10:38:43Z</time>
      </trkpt>
      <trkpt lat="47.56082" lon="6.68606">
        <ele>437</ele>
        <time>2014-04-13T10:38:44Z</time>
      </trkpt>
      <trkpt lat="47.56084" lon="6.68605">
        <ele>437</ele>
        <time>2014-04-13T10:38:45Z</time>
      </trkpt>
      <trkpt lat="47.56087" lon="6.68604">
        <ele>437</ele>
        <time>2014-04-13T10:38:46Z</time>
      </trkpt>
      <trkpt lat="47.56097" lon="6.68606">
        <ele>437</ele>
        <time>2014-04-13T10:38:52Z</time>
      </trkpt>
      <trkpt lat="47.56098" lon="6.68607">
        <ele>438</ele>
        <time>2014-04-13T10:38:53Z</time>
      </trkpt>
      <trkpt lat="47.561" lon="6.68608">
        <ele>438</ele>
        <time>2014-04-13T10:38:54Z</time>
      </trkpt>
      <trkpt lat="47.56101" lon="6.68608">
        <ele>438</ele>
        <time>2014-04-13T10:38:55Z</time>
      </trkpt>
      <trkpt lat="47.56102" lon="6.68608">
        <ele>439</ele>
        <time>2014-04-13T10:38:56Z</time>
      </trkpt>
      <trkpt lat="47.56103" lon="6.68609">
        <ele>439</ele>
        <time>2014-04-13T10:38:57Z</time>
      </trkpt>
      <trkpt lat="47.56104" lon="6.6861">
        <ele>439</ele>
        <time>2014-04-13T10:38:58Z</time>
      </trkpt>
      <trkpt lat="47.56106" lon="6.68611">
        <ele>439</ele>
        <time>2014-04-13T10:38:59Z</time>
      </trkpt>
      <trkpt lat="47.56116" lon="6.68615">
        <ele>439</ele>
        <time>2014-04-13T10:39:04Z</time>
      </trkpt>
      <trkpt lat="47.56118" lon="6.68615">
        <ele>440</ele>
        <time>2014-04-13T10:39:05Z</time>
      </trkpt>
      <trkpt lat="47.56119" lon="6.68615">
        <ele>440</ele>
        <time>2014-04-13T10:39:06Z</time>
      </trkpt>
      <trkpt lat="47.56121" lon="6.68615">
        <ele>440</ele>
        <time>2014-04-13T10:39:07Z</time>
      </trkpt>
      <trkpt lat="47.56123" lon="6.68615">
        <ele>441</ele>
        <time>2014-04-13T10:39:08Z</time>
      </trkpt>
      <trkpt lat="47.56124" lon="6.68614">
        <ele>441</ele>
        <time>2014-04-13T10:39:09Z</time>
      </trkpt>
      <trkpt lat="47.56126" lon="6.68613">
        <ele>441</ele>
        <time>2014-04-13T10:39:10Z</time>
      </trkpt>
      <trkpt lat="47.56129" lon="6.68612">
        <ele>441</ele>
        <time>2014-04-13T10:39:12Z</time>
      </trkpt>
      <trkpt lat="47.56135" lon="6.68607">
        <ele>441</ele>
        <time>2014-04-13T10:39:15Z</time>
      </trkpt>
      <trkpt lat="47.56138" lon="6.68606">
        <ele>442</ele>
        <time>2014-04-13T10:39:16Z</time>
      </trkpt>
      <trkpt lat="47.5614" lon="6.68605">
        <ele>442</ele>
        <time>2014-04-13T10:39:17Z</time>
      </trkpt>
      <trkpt lat="47.56142" lon="6.68605">
        <ele>443</ele>
        <time>2014-04-13T10:39:18Z</time>
      </trkpt>
      <trkpt lat="47.56144" lon="6.68603">
        <ele>443</ele>
        <time>2014-04-13T10:39:19Z</time>
      </trkpt>
      <trkpt lat="47.56145" lon="6.68602">
        <ele>443</ele>
        <time>2014-04-13T10:39:20Z</time>
      </trkpt>
      <trkpt lat="47.56151" lon="6.68599">
        <ele>443</ele>
        <time>2014-04-13T10:39:23Z</time>
      </trkpt>
      <trkpt lat="47.56153" lon="6.68598">
        <ele>444</ele>
        <time>2014-04-13T10:39:24Z</time>
      </trkpt>
      <trkpt lat="47.56154" lon="6.68598">
        <ele>444</ele>
        <time>2014-04-13T10:39:25Z</time>
      </trkpt>
      <trkpt lat="47.56156" lon="6.68598">
        <ele>445</ele>
        <time>2014-04-13T10:39:26Z</time>
      </trkpt>
      <trkpt lat="47.56157" lon="6.68598">
        <ele>445</ele>
        <time>2014-04-13T10:39:27Z</time>
      </trkpt>
      <trkpt lat="47.56159" lon="6.68598">
        <ele>445</ele>
        <time>2014-04-13T10:39:28Z</time>
      </trkpt>
      <trkpt lat="47.5616" lon="6.68598">
        <ele>445</ele>
        <time>2014-04-13T10:39:29Z</time>
      </trkpt>
      <trkpt lat="47.56166" lon="6.68597">
        <ele>446</ele>
        <time>2014-04-13T10:39:34Z</time>
      </trkpt>
      <trkpt lat="47.56168" lon="6.68597">
        <ele>446</ele>
        <time>2014-04-13T10:39:35Z</time>
      </trkpt>
      <trkpt lat="47.5617" lon="6.68597">
        <ele>447</ele>
        <time>2014-04-13T10:39:36Z</time>
      </trkpt>
      <trkpt lat="47.56171" lon="6.68597">
        <ele>447</ele>
        <time>2014-04-13T10:39:37Z</time>
      </trkpt>
      <trkpt lat="47.56172" lon="6.68598">
        <ele>448</ele>
        <time>2014-04-13T10:39:38Z</time>
      </trkpt>
      <trkpt lat="47.56178" lon="6.68598">
        <ele>448</ele>
        <time>2014-04-13T10:39:42Z</time>
      </trkpt>
      <trkpt lat="47.5618" lon="6.68597">
        <ele>448</ele>
        <time>2014-04-13T10:39:43Z</time>
      </trkpt>
      <trkpt lat="47.56182" lon="6.68596">
        <ele>448</ele>
        <time>2014-04-13T10:39:44Z</time>
      </trkpt>
      <trkpt lat="47.56184" lon="6.68595">
        <ele>449</ele>
        <time>2014-04-13T10:39:45Z</time>
      </trkpt>
      <trkpt lat="47.56186" lon="6.68593">
        <ele>449</ele>
        <time>2014-04-13T10:39:46Z</time>
      </trkpt>
      <trkpt lat="47.56187" lon="6.68592">
        <ele>450</ele>
        <time>2014-04-13T10:39:47Z</time>
      </trkpt>
      <trkpt lat="47.56189" lon="6.68589">
        <ele>450</ele>
        <time>2014-04-13T10:39:48Z</time>
      </trkpt>
      <trkpt lat="47.56196" lon="6.68583">
        <ele>450</ele>
        <time>2014-04-13T10:39:53Z</time>
      </trkpt>
      <trkpt lat="47.56198" lon="6.68583">
        <ele>450</ele>
        <time>2014-04-13T10:39:54Z</time>
      </trkpt>
      <trkpt lat="47.56199" lon="6.68583">
        <ele>451</ele>
        <time>2014-04-13T10:39:55Z</time>
      </trkpt>
      <trkpt lat="47.562" lon="6.68582">
        <ele>451</ele>
        <time>2014-04-13T10:39:56Z</time>
      </trkpt>
      <trkpt lat="47.56202" lon="6.6858">
        <ele>452</ele>
        <time>2014-04-13T10:39:57Z</time>
      </trkpt>
      <trkpt lat="47.56205" lon="6.68578">
        <ele>452</ele>
        <time>2014-04-13T10:39:59Z</time>
      </trkpt>
      <trkpt lat="47.5621" lon="6.68576">
        <ele>452</ele>
        <time>2014-04-13T10:40:02Z</time>
      </trkpt>
      <trkpt lat="47.56214" lon="6.68576">
        <ele>452</ele>
        <time>2014-04-13T10:40:04Z</time>
      </trkpt>
      <trkpt lat="47.56215" lon="6.68575">
        <ele>453</ele>
        <time>2014-04-13T10:40:05Z</time>
      </trkpt>
      <trkpt lat="47.56217" lon="6.68575">
        <ele>454</ele>
        <time>2014-04-13T10:40:06Z</time>
      </trkpt>
      <trkpt lat="47.56218" lon="6.68575">
        <ele>454</ele>
        <time>2014-04-13T10:40:07Z</time>
      </trkpt>
      <trkpt lat="47.56222" lon="6.68574">
        <ele>454</ele>
        <time>2014-04-13T10:40:10Z</time>
      </trkpt>
      <trkpt lat="47.56228" lon="6.68573">
        <ele>454</ele>
        <time>2014-04-13T10:40:14Z</time>
      </trkpt>
      <trkpt lat="47.56229" lon="6.68573">
        <ele>455</ele>
        <time>2014-04-13T10:40:15Z</time>
      </trkpt>
      <trkpt lat="47.56231" lon="6.68573">
        <ele>455</ele>
        <time>2014-04-13T10:40:16Z</time>
      </trkpt>
      <trkpt lat="47.56232" lon="6.68572">
        <ele>456</ele>
        <time>2014-04-13T10:40:17Z</time>
      </trkpt>
      <trkpt lat="47.56233" lon="6.68571">
        <ele>456</ele>
        <time>2014-04-13T10:40:18Z</time>
      </trkpt>
      <trkpt lat="47.56243" lon="6.68562">
        <ele>456</ele>
        <time>2014-04-13T10:40:24Z</time>
      </trkpt>
      <trkpt lat="47.56246" lon="6.6856">
        <ele>457</ele>
        <time>2014-04-13T10:40:26Z</time>
      </trkpt>
      <trkpt lat="47.56248" lon="6.68559">
        <ele>457</ele>
        <time>2014-04-13T10:40:27Z</time>
      </trkpt>
      <trkpt lat="47.56248" lon="6.68556">
        <ele>458</ele>
        <time>2014-04-13T10:40:28Z</time>
      </trkpt>
      <trkpt lat="47.56249" lon="6.68555">
        <ele>458</ele>
        <time>2014-04-13T10:40:29Z</time>
      </trkpt>
      <trkpt lat="47.56252" lon="6.68551">
        <ele>458</ele>
        <time>2014-04-13T10:40:31Z</time>
      </trkpt>
      <trkpt lat="47.56261" lon="6.68546">
        <ele>458</ele>
        <time>2014-04-13T10:40:37Z</time>
      </trkpt>
      <trkpt lat="47.56263" lon="6.68546">
        <ele>459</ele>
        <time>2014-04-13T10:40:38Z</time>
      </trkpt>
      <trkpt lat="47.56265" lon="6.68546">
        <ele>459</ele>
        <time>2014-04-13T10:40:39Z</time>
      </trkpt>
      <trkpt lat="47.56267" lon="6.68547">
        <ele>460</ele>
        <time>2014-04-13T10:40:40Z</time>
      </trkpt>
      <trkpt lat="47.56269" lon="6.68547">
        <ele>460</ele>
        <time>2014-04-13T10:40:41Z</time>
      </trkpt>
      <trkpt lat="47.56271" lon="6.68546">
        <ele>460</ele>
        <time>2014-04-13T10:40:42Z</time>
      </trkpt>
      <trkpt lat="47.56278" lon="6.68546">
        <ele>460</ele>
        <time>2014-04-13T10:40:45Z</time>
      </trkpt>
      <trkpt lat="47.56286" lon="6.68544">
        <ele>460</ele>
        <time>2014-04-13T10:40:50Z</time>
      </trkpt>
      <trkpt lat="47.56291" lon="6.6854">
        <ele>461</ele>
        <time>2014-04-13T10:40:53Z</time>
      </trkpt>
      <trkpt lat="47.56294" lon="6.68538">
        <ele>461</ele>
        <time>2014-04-13T10:40:54Z</time>
      </trkpt>
      <trkpt lat="47.56296" lon="6.68537">
        <ele>462</ele>
        <time>2014-04-13T10:40:55Z</time>
      </trkpt>
      <trkpt lat="47.56298" lon="6.68535">
        <ele>462</ele>
        <time>2014-04-13T10:40:56Z</time>
      </trkpt>
      <trkpt lat="47.56299" lon="6.68533">
        <ele>462</ele>
        <time>2014-04-13T10:40:57Z</time>
      </trkpt>
      <trkpt lat="47.56305" lon="6.68521">
        <ele>462</ele>
        <time>2014-04-13T10:41:02Z</time>
      </trkpt>
      <trkpt lat="47.56312" lon="6.68513">
        <ele>462</ele>
        <time>2014-04-13T10:41:06Z</time>
      </trkpt>
      <trkpt lat="47.56316" lon="6.68514">
        <ele>462</ele>
        <time>2014-04-13T10:41:08Z</time>
      </trkpt>
      <trkpt lat="47.56321" lon="6.68516">
        <ele>462</ele>
        <time>2014-04-13T10:41:10Z</time>
      </trkpt>
      <trkpt lat="47.56327" lon="6.68519">
        <ele>462</ele>
        <time>2014-04-13T10:41:13Z</time>
      </trkpt>
      <trkpt lat="47.5633" lon="6.6852">
        <ele>462</ele>
        <time>2014-04-13T10:41:14Z</time>
      </trkpt>
      <trkpt lat="47.56343" lon="6.68526">
        <ele>462</ele>
        <time>2014-04-13T10:41:19Z</time>
      </trkpt>
      <trkpt lat="47.56369" lon="6.68536">
        <ele>462</ele>
        <time>2014-04-13T10:41:25Z</time>
      </trkpt>
      <trkpt lat="47.56387" lon="6.68541">
        <ele>462</ele>
        <time>2014-04-13T10:41:29Z</time>
      </trkpt>
      <trkpt lat="47.56391" lon="6.68542">
        <ele>462</ele>
        <time>2014-04-13T10:41:30Z</time>
      </trkpt>
      <trkpt lat="47.56394" lon="6.68541">
        <ele>462</ele>
        <time>2014-04-13T10:41:31Z</time>
      </trkpt>
      <trkpt lat="47.56402" lon="6.68541">
        <ele>462</ele>
        <time>2014-04-13T10:41:34Z</time>
      </trkpt>
      <trkpt lat="47.56407" lon="6.68541">
        <ele>462</ele>
        <time>2014-04-13T10:41:36Z</time>
      </trkpt>
      <trkpt lat="47.56425" lon="6.68541">
        <ele>462</ele>
        <time>2014-04-13T10:41:41Z</time>
      </trkpt>
      <trkpt lat="47.56454" lon="6.68541">
        <ele>462</ele>
        <time>2014-04-13T10:41:46Z</time>
      </trkpt>
      <trkpt lat="47.56465" lon="6.68544">
        <ele>462</ele>
        <time>2014-04-13T10:41:48Z</time>
      </trkpt>
      <trkpt lat="47.56471" lon="6.68545">
        <ele>462</ele>
        <time>2014-04-13T10:41:49Z</time>
      </trkpt>
      <trkpt lat="47.56475" lon="6.68545">
        <ele>461</ele>
        <time>2014-04-13T10:41:50Z</time>
      </trkpt>
      <trkpt lat="47.56477" lon="6.68545">
        <ele>461</ele>
        <time>2014-04-13T10:41:51Z</time>
      </trkpt>
      <trkpt lat="47.56479" lon="6.68545">
        <ele>460</ele>
        <time>2014-04-13T10:41:52Z</time>
      </trkpt>
      <trkpt lat="47.56483" lon="6.68545">
        <ele>460</ele>
        <time>2014-04-13T10:41:53Z</time>
      </trkpt>
      <trkpt lat="47.56486" lon="6.68544">
        <ele>460</ele>
        <time>2014-04-13T10:41:54Z</time>
      </trkpt>
      <trkpt lat="47.56503" lon="6.68545">
        <ele>460</ele>
        <time>2014-04-13T10:41:59Z</time>
      </trkpt>
      <trkpt lat="47.56506" lon="6.68547">
        <ele>460</ele>
        <time>2014-04-13T10:42:00Z</time>
      </trkpt>
      <trkpt lat="47.56517" lon="6.68551">
        <ele>460</ele>
        <time>2014-04-13T10:42:03Z</time>
      </trkpt>
      <trkpt lat="47.5652" lon="6.68552">
        <ele>460</ele>
        <time>2014-04-13T10:42:06Z</time>
      </trkpt>
      <trkpt lat="47.56521" lon="6.68551">
        <ele>460</ele>
        <time>2014-04-13T10:42:09Z</time>
      </trkpt>
      <trkpt lat="47.56524" lon="6.68552">
        <ele>460</ele>
        <time>2014-04-13T10:42:11Z</time>
      </trkpt>
      <trkpt lat="47.56534" lon="6.68546">
        <ele>460</ele>
        <time>2014-04-13T10:42:15Z</time>
      </trkpt>
      <trkpt lat="47.56546" lon="6.68543">
        <ele>460</ele>
        <time>2014-04-13T10:42:19Z</time>
      </trkpt>
      <trkpt lat="47.56555" lon="6.68543">
        <ele>460</ele>
        <time>2014-04-13T10:42:22Z</time>
      </trkpt>
      <trkpt lat="47.56557" lon="6.68543">
        <ele>460</ele>
        <time>2014-04-13T10:42:23Z</time>
      </trkpt>
      <trkpt lat="47.56558" lon="6.68543">
        <ele>460</ele>
        <time>2014-04-13T10:42:24Z</time>
      </trkpt>
      <trkpt lat="47.56563" lon="6.68542">
        <ele>460</ele>
        <time>2014-04-13T10:42:25Z</time>
      </trkpt>
      <trkpt lat="47.56569" lon="6.68546">
        <ele>460</ele>
        <time>2014-04-13T10:42:28Z</time>
      </trkpt>
      <trkpt lat="47.56584" lon="6.68555">
        <ele>460</ele>
        <time>2014-04-13T10:42:33Z</time>
      </trkpt>
      <trkpt lat="47.56604" lon="6.68564">
        <ele>460</ele>
        <time>2014-04-13T10:42:40Z</time>
      </trkpt>
      <trkpt lat="47.5661" lon="6.68568">
        <ele>460</ele>
        <time>2014-04-13T10:42:43Z</time>
      </trkpt>
      <trkpt lat="47.56615" lon="6.68573">
        <ele>460</ele>
        <time>2014-04-13T10:42:46Z</time>
      </trkpt>
      <trkpt lat="47.56617" lon="6.68574">
        <ele>461</ele>
        <time>2014-04-13T10:42:47Z</time>
      </trkpt>
      <trkpt lat="47.56619" lon="6.68575">
        <ele>461</ele>
        <time>2014-04-13T10:42:48Z</time>
      </trkpt>
      <trkpt lat="47.56621" lon="6.68576">
        <ele>462</ele>
        <time>2014-04-13T10:42:49Z</time>
      </trkpt>
      <trkpt lat="47.56623" lon="6.68578">
        <ele>462</ele>
        <time>2014-04-13T10:42:50Z</time>
      </trkpt>
      <trkpt lat="47.56625" lon="6.68578">
        <ele>463</ele>
        <time>2014-04-13T10:42:51Z</time>
      </trkpt>
      <trkpt lat="47.56637" lon="6.68588">
        <ele>463</ele>
        <time>2014-04-13T10:42:55Z</time>
      </trkpt>
      <trkpt lat="47.56641" lon="6.68588">
        <ele>464</ele>
        <time>2014-04-13T10:42:57Z</time>
      </trkpt>
      <trkpt lat="47.56644" lon="6.68588">
        <ele>464</ele>
        <time>2014-04-13T10:42:58Z</time>
      </trkpt>
      <trkpt lat="47.56646" lon="6.68589">
        <ele>464</ele>
        <time>2014-04-13T10:42:59Z</time>
      </trkpt>
      <trkpt lat="47.56649" lon="6.68591">
        <ele>465</ele>
        <time>2014-04-13T10:43:00Z</time>
      </trkpt>
      <trkpt lat="47.56656" lon="6.68595">
        <ele>465</ele>
        <time>2014-04-13T10:43:03Z</time>
      </trkpt>
      <trkpt lat="47.56658" lon="6.68597">
        <ele>466</ele>
        <time>2014-04-13T10:43:04Z</time>
      </trkpt>
      <trkpt lat="47.5666" lon="6.68598">
        <ele>466</ele>
        <time>2014-04-13T10:43:05Z</time>
      </trkpt>
      <trkpt lat="47.56663" lon="6.68599">
        <ele>467</ele>
        <time>2014-04-13T10:43:06Z</time>
      </trkpt>
      <trkpt lat="47.56665" lon="6.686">
        <ele>467</ele>
        <time>2014-04-13T10:43:07Z</time>
      </trkpt>
      <trkpt lat="47.5667" lon="6.68605">
        <ele>467</ele>
        <time>2014-04-13T10:43:09Z</time>
      </trkpt>
      <trkpt lat="47.56675" lon="6.68608">
        <ele>467</ele>
        <time>2014-04-13T10:43:11Z</time>
      </trkpt>
      <trkpt lat="47.56686" lon="6.68613">
        <ele>467</ele>
        <time>2014-04-13T10:43:16Z</time>
      </trkpt>
      <trkpt lat="47.56688" lon="6.68614">
        <ele>467</ele>
        <time>2014-04-13T10:43:17Z</time>
      </trkpt>
      <trkpt lat="47.56689" lon="6.68615">
        <ele>468</ele>
        <time>2014-04-13T10:43:18Z</time>
      </trkpt>
      <trkpt lat="47.5669" lon="6.68616">
        <ele>468</ele>
        <time>2014-04-13T10:43:19Z</time>
      </trkpt>
      <trkpt lat="47.56691" lon="6.68616">
        <ele>469</ele>
        <time>2014-04-13T10:43:20Z</time>
      </trkpt>
      <trkpt lat="47.56693" lon="6.68617">
        <ele>469</ele>
        <time>2014-04-13T10:43:21Z</time>
      </trkpt>
      <trkpt lat="47.56694" lon="6.68618">
        <ele>470</ele>
        <time>2014-04-13T10:43:22Z</time>
      </trkpt>
      <trkpt lat="47.56695" lon="6.68618">
        <ele>470</ele>
        <time>2014-04-13T10:43:23Z</time>
      </trkpt>
      <trkpt lat="47.56697" lon="6.68619">
        <ele>470</ele>
        <time>2014-04-13T10:43:24Z</time>
      </trkpt>
      <trkpt lat="47.56699" lon="6.6862">
        <ele>471</ele>
        <time>2014-04-13T10:43:25Z</time>
      </trkpt>
      <trkpt lat="47.56701" lon="6.68622">
        <ele>471</ele>
        <time>2014-04-13T10:43:26Z</time>
      </trkpt>
      <trkpt lat="47.56703" lon="6.68623">
        <ele>471</ele>
        <time>2014-04-13T10:43:27Z</time>
      </trkpt>
      <trkpt lat="47.56706" lon="6.68627">
        <ele>471</ele>
        <time>2014-04-13T10:43:28Z</time>
      </trkpt>
      <trkpt lat="47.56714" lon="6.68634">
        <ele>471</ele>
        <time>2014-04-13T10:43:31Z</time>
      </trkpt>
      <trkpt lat="47.56716" lon="6.68637">
        <ele>472</ele>
        <time>2014-04-13T10:43:32Z</time>
      </trkpt>
      <trkpt lat="47.56717" lon="6.68639">
        <ele>472</ele>
        <time>2014-04-13T10:43:33Z</time>
      </trkpt>
      <trkpt lat="47.56718" lon="6.6864">
        <ele>473</ele>
        <time>2014-04-13T10:43:34Z</time>
      </trkpt>
      <trkpt lat="47.56719" lon="6.68642">
        <ele>473</ele>
        <time>2014-04-13T10:43:35Z</time>
      </trkpt>
      <trkpt lat="47.56719" lon="6.68644">
        <ele>473</ele>
        <time>2014-04-13T10:43:36Z</time>
      </trkpt>
      <trkpt lat="47.5672" lon="6.68645">
        <ele>473</ele>
        <time>2014-04-13T10:43:37Z</time>
      </trkpt>
      <trkpt lat="47.5672" lon="6.68646">
        <ele>474</ele>
        <time>2014-04-13T10:43:39Z</time>
      </trkpt>
      <trkpt lat="47.5672" lon="6.68646">
        <ele>474</ele>
        <time>2014-04-13T10:43:40Z</time>
      </trkpt>
      <trkpt lat="47.56725" lon="6.68656">
        <ele>476</ele>
        <time>2014-04-13T10:43:50Z</time>
      </trkpt>
      <trkpt lat="47.56727" lon="6.68656">
        <ele>476</ele>
        <time>2014-04-13T10:43:52Z</time>
      </trkpt>
      <trkpt lat="47.56732" lon="6.68659">
        <ele>476</ele>
        <time>2014-04-13T10:43:57Z</time>
      </trkpt>
      <trkpt lat="47.56739" lon="6.68661">
        <ele>476</ele>
        <time>2014-04-13T10:44:01Z</time>
      </trkpt>
      <trkpt lat="47.56747" lon="6.68669">
        <ele>476</ele>
        <time>2014-04-13T10:44:06Z</time>
      </trkpt>
      <trkpt lat="47.5675" lon="6.68673">
        <ele>476</ele>
        <time>2014-04-13T10:44:07Z</time>
      </trkpt>
      <trkpt lat="47.56752" lon="6.68674">
        <ele>476</ele>
        <time>2014-04-13T10:44:08Z</time>
      </trkpt>
      <trkpt lat="47.56755" lon="6.68676">
        <ele>477</ele>
        <time>2014-04-13T10:44:09Z</time>
      </trkpt>
      <trkpt lat="47.56757" lon="6.68679">
        <ele>477</ele>
        <time>2014-04-13T10:44:10Z</time>
      </trkpt>
      <trkpt lat="47.56757" lon="6.68681">
        <ele>478</ele>
        <time>2014-04-13T10:44:11Z</time>
      </trkpt>
      <trkpt lat="47.56758" lon="6.68683">
        <ele>478</ele>
        <time>2014-04-13T10:44:12Z</time>
      </trkpt>
      <trkpt lat="47.56763" lon="6.68686">
        <ele>478</ele>
        <time>2014-04-13T10:44:15Z</time>
      </trkpt>
      <trkpt lat="47.56764" lon="6.68687">
        <ele>479</ele>
        <time>2014-04-13T10:44:16Z</time>
      </trkpt>
      <trkpt lat="47.56766" lon="6.68688">
        <ele>479</ele>
        <time>2014-04-13T10:44:17Z</time>
      </trkpt>
      <trkpt lat="47.56768" lon="6.6869">
        <ele>479</ele>
        <time>2014-04-13T10:44:18Z</time>
      </trkpt>
      <trkpt lat="47.5677" lon="6.68691">
        <ele>480</ele>
        <time>2014-04-13T10:44:19Z</time>
      </trkpt>
      <trkpt lat="47.56771" lon="6.68693">
        <ele>480</ele>
        <time>2014-04-13T10:44:20Z</time>
      </trkpt>
      <trkpt lat="47.56781" lon="6.68694">
        <ele>480</ele>
        <time>2014-04-13T10:44:23Z</time>
      </trkpt>
      <trkpt lat="47.56799" lon="6.68696">
        <ele>480</ele>
        <time>2014-04-13T10:44:28Z</time>
      </trkpt>
      <trkpt lat="47.56813" lon="6.68701">
        <ele>480</ele>
        <time>2014-04-13T10:44:32Z</time>
      </trkpt>
      <trkpt lat="47.56815" lon="6.68703">
        <ele>481</ele>
        <time>2014-04-13T10:44:33Z</time>
      </trkpt>
      <trkpt lat="47.56816" lon="6.68705">
        <ele>481</ele>
        <time>2014-04-13T10:44:34Z</time>
      </trkpt>
      <trkpt lat="47.56818" lon="6.68707">
        <ele>482</ele>
        <time>2014-04-13T10:44:35Z</time>
      </trkpt>
      <trkpt lat="47.5682" lon="6.68708">
        <ele>482</ele>
        <time>2014-04-13T10:44:36Z</time>
      </trkpt>
      <trkpt lat="47.56828" lon="6.68708">
        <ele>482</ele>
        <time>2014-04-13T10:44:39Z</time>
      </trkpt>
      <trkpt lat="47.56839" lon="6.68714">
        <ele>482</ele>
        <time>2014-04-13T10:44:42Z</time>
      </trkpt>
      <trkpt lat="47.56842" lon="6.68717">
        <ele>482</ele>
        <time>2014-04-13T10:44:43Z</time>
      </trkpt>
      <trkpt lat="47.56855" lon="6.68726">
        <ele>482</ele>
        <time>2014-04-13T10:44:47Z</time>
      </trkpt>
      <trkpt lat="47.56859" lon="6.68727">
        <ele>483</ele>
        <time>2014-04-13T10:44:48Z</time>
      </trkpt>
      <trkpt lat="47.56863" lon="6.68727">
        <ele>483</ele>
        <time>2014-04-13T10:44:49Z</time>
      </trkpt>
      <trkpt lat="47.56867" lon="6.68728">
        <ele>483</ele>
        <time>2014-04-13T10:44:50Z</time>
      </trkpt>
      <trkpt lat="47.5687" lon="6.6873">
        <ele>484</ele>
        <time>2014-04-13T10:44:51Z</time>
      </trkpt>
      <trkpt lat="47.56873" lon="6.68732">
        <ele>484</ele>
        <time>2014-04-13T10:44:52Z</time>
      </trkpt>
      <trkpt lat="47.56876" lon="6.68735">
        <ele>484</ele>
        <time>2014-04-13T10:44:53Z</time>
      </trkpt>
      <trkpt lat="47.56883" lon="6.68746">
        <ele>484</ele>
        <time>2014-04-13T10:44:57Z</time>
      </trkpt>
      <trkpt lat="47.56889" lon="6.68752">
        <ele>484</ele>
        <time>2014-04-13T10:45:00Z</time>
      </trkpt>
      <trkpt lat="47.56895" lon="6.68753">
        <ele>484</ele>
        <time>2014-04-13T10:45:02Z</time>
      </trkpt>
      <trkpt lat="47.56902" lon="6.68755">
        <ele>484</ele>
        <time>2014-04-13T10:45:04Z</time>
      </trkpt>
      <trkpt lat="47.56903" lon="6.68756">
        <ele>484</ele>
        <time>2014-04-13T10:45:05Z</time>
      </trkpt>
      <trkpt lat="47.56907" lon="6.6876">
        <ele>484</ele>
        <time>2014-04-13T10:45:06Z</time>
      </trkpt>
      <trkpt lat="47.56919" lon="6.68774">
        <ele>485</ele>
        <time>2014-04-13T10:45:11Z</time>
      </trkpt>
      <trkpt lat="47.56922" lon="6.68776">
        <ele>485</ele>
        <time>2014-04-13T10:45:12Z</time>
      </trkpt>
      <trkpt lat="47.56924" lon="6.68778">
        <ele>485</ele>
        <time>2014-04-13T10:45:13Z</time>
      </trkpt>
      <trkpt lat="47.56928" lon="6.6878">
        <ele>486</ele>
        <time>2014-04-13T10:45:14Z</time>
      </trkpt>
      <trkpt lat="47.56931" lon="6.68782">
        <ele>486</ele>
        <time>2014-04-13T10:45:15Z</time>
      </trkpt>
      <trkpt lat="47.5694" lon="6.68787">
        <ele>486</ele>
        <time>2014-04-13T10:45:17Z</time>
      </trkpt>
      <trkpt lat="47.56951" lon="6.68795">
        <ele>486</ele>
        <time>2014-04-13T10:45:20Z</time>
      </trkpt>
      <trkpt lat="47.56964" lon="6.688">
        <ele>486</ele>
        <time>2014-04-13T10:45:23Z</time>
      </trkpt>
      <trkpt lat="47.56975" lon="6.68812">
        <ele>486</ele>
        <time>2014-04-13T10:45:27Z</time>
      </trkpt>
      <trkpt lat="47.56976" lon="6.68817">
        <ele>486</ele>
        <time>2014-04-13T10:45:28Z</time>
      </trkpt>
      <trkpt lat="47.5698" lon="6.68828">
        <ele>486</ele>
        <time>2014-04-13T10:45:31Z</time>
      </trkpt>
      <trkpt lat="47.56996" lon="6.68844">
        <ele>487</ele>
        <time>2014-04-13T10:45:37Z</time>
      </trkpt>
      <trkpt lat="47.56996" lon="6.68847">
        <ele>487</ele>
        <time>2014-04-13T10:45:38Z</time>
      </trkpt>
      <trkpt lat="47.56996" lon="6.68849">
        <ele>488</ele>
        <time>2014-04-13T10:45:39Z</time>
      </trkpt>
      <trkpt lat="47.56998" lon="6.68852">
        <ele>488</ele>
        <time>2014-04-13T10:45:40Z</time>
      </trkpt>
      <trkpt lat="47.56999" lon="6.68854">
        <ele>488</ele>
        <time>2014-04-13T10:45:41Z</time>
      </trkpt>
      <trkpt lat="47.57001" lon="6.68856">
        <ele>489</ele>
        <time>2014-04-13T10:45:43Z</time>
      </trkpt>
      <trkpt lat="47.57003" lon="6.68857">
        <ele>489</ele>
        <time>2014-04-13T10:45:44Z</time>
      </trkpt>
      <trkpt lat="47.57005" lon="6.68858">
        <ele>490</ele>
        <time>2014-04-13T10:45:45Z</time>
      </trkpt>
      <trkpt lat="47.57007" lon="6.68858">
        <ele>490</ele>
        <time>2014-04-13T10:45:46Z</time>
      </trkpt>
      <trkpt lat="47.57009" lon="6.68859">
        <ele>490</ele>
        <time>2014-04-13T10:45:47Z</time>
      </trkpt>
      <trkpt lat="47.57011" lon="6.6886">
        <ele>490</ele>
        <time>2014-04-13T10:45:48Z</time>
      </trkpt>
      <trkpt lat="47.5702" lon="6.6887">
        <ele>490</ele>
        <time>2014-04-13T10:45:52Z</time>
      </trkpt>
      <trkpt lat="47.57026" lon="6.68878">
        <ele>490</ele>
        <time>2014-04-13T10:45:55Z</time>
      </trkpt>
      <trkpt lat="47.5703" lon="6.68884">
        <ele>490</ele>
        <time>2014-04-13T10:45:57Z</time>
      </trkpt>
      <trkpt lat="47.57046" lon="6.68902">
        <ele>490</ele>
        <time>2014-04-13T10:46:02Z</time>
      </trkpt>
      <trkpt lat="47.5705" lon="6.68904">
        <ele>490</ele>
        <time>2014-04-13T10:46:03Z</time>
      </trkpt>
      <trkpt lat="47.57061" lon="6.68912">
        <ele>490</ele>
        <time>2014-04-13T10:46:06Z</time>
      </trkpt>
      <trkpt lat="47.57072" lon="6.68918">
        <ele>490</ele>
        <time>2014-04-13T10:46:10Z</time>
      </trkpt>
      <trkpt lat="47.57074" lon="6.68919">
        <ele>490</ele>
        <time>2014-04-13T10:46:11Z</time>
      </trkpt>
      <trkpt lat="47.57075" lon="6.6892">
        <ele>489</ele>
        <time>2014-04-13T10:46:12Z</time>
      </trkpt>
      <trkpt lat="47.57078" lon="6.68923">
        <ele>489</ele>
        <time>2014-04-13T10:46:13Z</time>
      </trkpt>
      <trkpt lat="47.57081" lon="6.68925">
        <ele>488</ele>
        <time>2014-04-13T10:46:14Z</time>
      </trkpt>
      <trkpt lat="47.57083" lon="6.68926">
        <ele>488</ele>
        <time>2014-04-13T10:46:15Z</time>
      </trkpt>
      <trkpt lat="47.57099" lon="6.6894">
        <ele>488</ele>
        <time>2014-04-13T10:46:22Z</time>
      </trkpt>
      <trkpt lat="47.57104" lon="6.68943">
        <ele>488</ele>
        <time>2014-04-13T10:46:24Z</time>
      </trkpt>
      <trkpt lat="47.57113" lon="6.68949">
        <ele>489</ele>
        <time>2014-04-13T10:46:27Z</time>
      </trkpt>
      <trkpt lat="47.57116" lon="6.68951">
        <ele>489</ele>
        <time>2014-04-13T10:46:28Z</time>
      </trkpt>
      <trkpt lat="47.57119" lon="6.68952">
        <ele>489</ele>
        <time>2014-04-13T10:46:29Z</time>
      </trkpt>
      <trkpt lat="47.57122" lon="6.68954">
        <ele>490</ele>
        <time>2014-04-13T10:46:30Z</time>
      </trkpt>
      <trkpt lat="47.57126" lon="6.68957">
        <ele>490</ele>
        <time>2014-04-13T10:46:31Z</time>
      </trkpt>
      <trkpt lat="47.57129" lon="6.68959">
        <ele>490</ele>
        <time>2014-04-13T10:46:32Z</time>
      </trkpt>
      <trkpt lat="47.57143" lon="6.68965">
        <ele>490</ele>
        <time>2014-04-13T10:46:36Z</time>
      </trkpt>
      <trkpt lat="47.57155" lon="6.68974">
        <ele>490</ele>
        <time>2014-04-13T10:46:40Z</time>
      </trkpt>
      <trkpt lat="47.5716" lon="6.68979">
        <ele>490</ele>
        <time>2014-04-13T10:46:41Z</time>
      </trkpt>
      <trkpt lat="47.57163" lon="6.68986">
        <ele>490</ele>
        <time>2014-04-13T10:46:42Z</time>
      </trkpt>
      <trkpt lat="47.57167" lon="6.68994">
        <ele>489</ele>
        <time>2014-04-13T10:46:43Z</time>
      </trkpt>
      <trkpt lat="47.5717" lon="6.69001">
        <ele>489</ele>
        <time>2014-04-13T10:46:44Z</time>
      </trkpt>
      <trkpt lat="47.57172" lon="6.69009">
        <ele>488</ele>
        <time>2014-04-13T10:46:45Z</time>
      </trkpt>
      <trkpt lat="47.57175" lon="6.69017">
        <ele>488</ele>
        <time>2014-04-13T10:46:46Z</time>
      </trkpt>
      <trkpt lat="47.57181" lon="6.69034">
        <ele>487</ele>
        <time>2014-04-13T10:46:48Z</time>
      </trkpt>
      <trkpt lat="47.57183" lon="6.69044">
        <ele>487</ele>
        <time>2014-04-13T10:46:49Z</time>
      </trkpt>
      <trkpt lat="47.57188" lon="6.69054">
        <ele>487</ele>
        <time>2014-04-13T10:46:50Z</time>
      </trkpt>
      <trkpt lat="47.57192" lon="6.69064">
        <ele>486</ele>
        <time>2014-04-13T10:46:51Z</time>
      </trkpt>
      <trkpt lat="47.57196" lon="6.69075">
        <ele>486</ele>
        <time>2014-04-13T10:46:52Z</time>
      </trkpt>
      <trkpt lat="47.572" lon="6.69085">
        <ele>485</ele>
        <time>2014-04-13T10:46:53Z</time>
      </trkpt>
      <trkpt lat="47.57205" lon="6.69095">
        <ele>485</ele>
        <time>2014-04-13T10:46:54Z</time>
      </trkpt>
      <trkpt lat="47.57208" lon="6.69105">
        <ele>484</ele>
        <time>2014-04-13T10:46:55Z</time>
      </trkpt>
      <trkpt lat="47.57213" lon="6.69116">
        <ele>484</ele>
        <time>2014-04-13T10:46:56Z</time>
      </trkpt>
      <trkpt lat="47.57217" lon="6.69125">
        <ele>483</ele>
        <time>2014-04-13T10:46:57Z</time>
      </trkpt>
      <trkpt lat="47.57221" lon="6.69132">
        <ele>483</ele>
        <time>2014-04-13T10:46:58Z</time>
      </trkpt>
      <trkpt lat="47.57226" lon="6.69136">
        <ele>482</ele>
        <time>2014-04-13T10:46:59Z</time>
      </trkpt>
      <trkpt lat="47.5723" lon="6.69139">
        <ele>482</ele>
        <time>2014-04-13T10:47:00Z</time>
      </trkpt>
      <trkpt lat="47.57236" lon="6.6914">
        <ele>481</ele>
        <time>2014-04-13T10:47:01Z</time>
      </trkpt>
      <trkpt lat="47.57242" lon="6.69141">
        <ele>481</ele>
        <time>2014-04-13T10:47:02Z</time>
      </trkpt>
      <trkpt lat="47.57251" lon="6.69141">
        <ele>480</ele>
        <time>2014-04-13T10:47:03Z</time>
      </trkpt>
      <trkpt lat="47.57259" lon="6.69143">
        <ele>480</ele>
        <time>2014-04-13T10:47:04Z</time>
      </trkpt>
      <trkpt lat="47.57266" lon="6.69145">
        <ele>479</ele>
        <time>2014-04-13T10:47:05Z</time>
      </trkpt>
      <trkpt lat="47.57273" lon="6.6915">
        <ele>479</ele>
        <time>2014-04-13T10:47:06Z</time>
      </trkpt>
      <trkpt lat="47.57281" lon="6.69153">
        <ele>478</ele>
        <time>2014-04-13T10:47:07Z</time>
      </trkpt>
      <trkpt lat="47.5729" lon="6.69155">
        <ele>477</ele>
        <time>2014-04-13T10:47:08Z</time>
      </trkpt>
      <trkpt lat="47.57298" lon="6.69153">
        <ele>477</ele>
        <time>2014-04-13T10:47:09Z</time>
      </trkpt>
      <trkpt lat="47.57308" lon="6.69151">
        <ele>476</ele>
        <time>2014-04-13T10:47:10Z</time>
      </trkpt>
      <trkpt lat="47.57317" lon="6.6915">
        <ele>475</ele>
        <time>2014-04-13T10:47:11Z</time>
      </trkpt>
      <trkpt lat="47.57327" lon="6.69148">
        <ele>474</ele>
        <time>2014-04-13T10:47:12Z</time>
      </trkpt>
      <trkpt lat="47.57336" lon="6.69145">
        <ele>473</ele>
        <time>2014-04-13T10:47:13Z</time>
      </trkpt>
      <trkpt lat="47.57345" lon="6.69143">
        <ele>473</ele>
        <time>2014-04-13T10:47:14Z</time>
      </trkpt>
      <trkpt lat="47.57354" lon="6.69141">
        <ele>472</ele>
        <time>2014-04-13T10:47:15Z</time>
      </trkpt>
      <trkpt lat="47.57363" lon="6.69139">
        <ele>471</ele>
        <time>2014-04-13T10:47:16Z</time>
      </trkpt>
      <trkpt lat="47.57372" lon="6.69134">
        <ele>470</ele>
        <time>2014-04-13T10:47:17Z</time>
      </trkpt>
      <trkpt lat="47.5738" lon="6.69128">
        <ele>469</ele>
        <time>2014-04-13T10:47:18Z</time>
      </trkpt>
      <trkpt lat="47.57387" lon="6.69121">
        <ele>469</ele>
        <time>2014-04-13T10:47:19Z</time>
      </trkpt>
      <trkpt lat="47.57394" lon="6.69116">
        <ele>468</ele>
        <time>2014-04-13T10:47:20Z</time>
      </trkpt>
      <trkpt lat="47.574" lon="6.69113">
        <ele>468</ele>
        <time>2014-04-13T10:47:21Z</time>
      </trkpt>
      <trkpt lat="47.57407" lon="6.6911">
        <ele>467</ele>
        <time>2014-04-13T10:47:22Z</time>
      </trkpt>
      <trkpt lat="47.57415" lon="6.69106">
        <ele>467</ele>
        <time>2014-04-13T10:47:23Z</time>
      </trkpt>
      <trkpt lat="47.57423" lon="6.69103">
        <ele>466</ele>
        <time>2014-04-13T10:47:24Z</time>
      </trkpt>
      <trkpt lat="47.57431" lon="6.69102">
        <ele>465</ele>
        <time>2014-04-13T10:47:25Z</time>
      </trkpt>
      <trkpt lat="47.57439" lon="6.691">
        <ele>465</ele>
        <time>2014-04-13T10:47:26Z</time>
      </trkpt>
      <trkpt lat="47.57448" lon="6.69097">
        <ele>464</ele>
        <time>2014-04-13T10:47:27Z</time>
      </trkpt>
      <trkpt lat="47.57456" lon="6.69096">
        <ele>463</ele>
        <time>2014-04-13T10:47:28Z</time>
      </trkpt>
      <trkpt lat="47.57465" lon="6.69096">
        <ele>462</ele>
        <time>2014-04-13T10:47:29Z</time>
      </trkpt>
      <trkpt lat="47.57473" lon="6.69098">
        <ele>460</ele>
        <time>2014-04-13T10:47:30Z</time>
      </trkpt>
      <trkpt lat="47.5748" lon="6.691">
        <ele>459</ele>
        <time>2014-04-13T10:47:31Z</time>
      </trkpt>
      <trkpt lat="47.57486" lon="6.69102">
        <ele>458</ele>
        <time>2014-04-13T10:47:32Z</time>
      </trkpt>
      <trkpt lat="47.57492" lon="6.69103">
        <ele>458</ele>
        <time>2014-04-13T10:47:33Z</time>
      </trkpt>
      <trkpt lat="47.57497" lon="6.69104">
        <ele>457</ele>
        <time>2014-04-13T10:47:34Z</time>
      </trkpt>
      <trkpt lat="47.57501" lon="6.69107">
        <ele>457</ele>
        <time>2014-04-13T10:47:35Z</time>
      </trkpt>
      <trkpt lat="47.57509" lon="6.6911">
        <ele>457</ele>
        <time>2014-04-13T10:47:37Z</time>
      </trkpt>
      <trkpt lat="47.57514" lon="6.69111">
        <ele>457</ele>
        <time>2014-04-13T10:47:39Z</time>
      </trkpt>
      <trkpt lat="47.57522" lon="6.69112">
        <ele>457</ele>
        <time>2014-04-13T10:47:44Z</time>
      </trkpt>
      <trkpt lat="47.57526" lon="6.6911">
        <ele>457</ele>
        <time>2014-04-13T10:47:46Z</time>
      </trkpt>
      <trkpt lat="47.57528" lon="6.69107">
        <ele>457</ele>
        <time>2014-04-13T10:47:48Z</time>
      </trkpt>
      <trkpt lat="47.5753" lon="6.69103">
        <ele>457</ele>
        <time>2014-04-13T10:47:50Z</time>
      </trkpt>
      <trkpt lat="47.57537" lon="6.69099">
        <ele>457</ele>
        <time>2014-04-13T10:47:52Z</time>
      </trkpt>
      <trkpt lat="47.57544" lon="6.69098">
        <ele>457</ele>
        <time>2014-04-13T10:47:54Z</time>
      </trkpt>
      <trkpt lat="47.57562" lon="6.69099">
        <ele>457</ele>
        <time>2014-04-13T10:47:58Z</time>
      </trkpt>
      <trkpt lat="47.57579" lon="6.69101">
        <ele>457</ele>
        <time>2014-04-13T10:48:02Z</time>
      </trkpt>
      <trkpt lat="47.57585" lon="6.69112">
        <ele>457</ele>
        <time>2014-04-13T10:48:05Z</time>
      </trkpt>
      <trkpt lat="47.57592" lon="6.69123">
        <ele>457</ele>
        <time>2014-04-13T10:48:08Z</time>
      </trkpt>
      <trkpt lat="47.57593" lon="6.69126">
        <ele>457</ele>
        <time>2014-04-13T10:48:09Z</time>
      </trkpt>
      <trkpt lat="47.57598" lon="6.6913">
        <ele>457</ele>
        <time>2014-04-13T10:48:11Z</time>
      </trkpt>
      <trkpt lat="47.57604" lon="6.69132">
        <ele>457</ele>
        <time>2014-04-13T10:48:13Z</time>
      </trkpt>
      <trkpt lat="47.57608" lon="6.69131">
        <ele>457</ele>
        <time>2014-04-13T10:48:14Z</time>
      </trkpt>
      <trkpt lat="47.57611" lon="6.69131">
        <ele>458</ele>
        <time>2014-04-13T10:48:15Z</time>
      </trkpt>
      <trkpt lat="47.57615" lon="6.69131">
        <ele>458</ele>
        <time>2014-04-13T10:48:16Z</time>
      </trkpt>
      <trkpt lat="47.57618" lon="6.69131">
        <ele>458</ele>
        <time>2014-04-13T10:48:17Z</time>
      </trkpt>
      <trkpt lat="47.57622" lon="6.6913">
        <ele>459</ele>
        <time>2014-04-13T10:48:18Z</time>
      </trkpt>
      <trkpt lat="47.57626" lon="6.6913">
        <ele>459</ele>
        <time>2014-04-13T10:48:19Z</time>
      </trkpt>
      <trkpt lat="47.57642" lon="6.69131">
        <ele>459</ele>
        <time>2014-04-13T10:48:24Z</time>
      </trkpt>
      <trkpt lat="47.57645" lon="6.69132">
        <ele>460</ele>
        <time>2014-04-13T10:48:25Z</time>
      </trkpt>
      <trkpt lat="47.57648" lon="6.69133">
        <ele>460</ele>
        <time>2014-04-13T10:48:26Z</time>
      </trkpt>
      <trkpt lat="47.57651" lon="6.69134">
        <ele>461</ele>
        <time>2014-04-13T10:48:27Z</time>
      </trkpt>
      <trkpt lat="47.57653" lon="6.69134">
        <ele>461</ele>
        <time>2014-04-13T10:48:28Z</time>
      </trkpt>
      <trkpt lat="47.57664" lon="6.69139">
        <ele>461</ele>
        <time>2014-04-13T10:48:32Z</time>
      </trkpt>
      <trkpt lat="47.57666" lon="6.6914">
        <ele>462</ele>
        <time>2014-04-13T10:48:33Z</time>
      </trkpt>
      <trkpt lat="47.57669" lon="6.69141">
        <ele>462</ele>
        <time>2014-04-13T10:48:34Z</time>
      </trkpt>
      <trkpt lat="47.57671" lon="6.69143">
        <ele>463</ele>
        <time>2014-04-13T10:48:35Z</time>
      </trkpt>
      <trkpt lat="47.57674" lon="6.69144">
        <ele>463</ele>
        <time>2014-04-13T10:48:36Z</time>
      </trkpt>
      <trkpt lat="47.57679" lon="6.69148">
        <ele>463</ele>
        <time>2014-04-13T10:48:38Z</time>
      </trkpt>
      <trkpt lat="47.57694" lon="6.69161">
        <ele>464</ele>
        <time>2014-04-13T10:48:43Z</time>
      </trkpt>
      <trkpt lat="47.57696" lon="6.69164">
        <ele>464</ele>
        <time>2014-04-13T10:48:44Z</time>
      </trkpt>
      <trkpt lat="47.57699" lon="6.69166">
        <ele>465</ele>
        <time>2014-04-13T10:48:45Z</time>
      </trkpt>
      <trkpt lat="47.57702" lon="6.69168">
        <ele>465</ele>
        <time>2014-04-13T10:48:46Z</time>
      </trkpt>
      <trkpt lat="47.57712" lon="6.69172">
        <ele>465</ele>
        <time>2014-04-13T10:48:49Z</time>
      </trkpt>
      <trkpt lat="47.57728" lon="6.6918">
        <ele>465</ele>
        <time>2014-04-13T10:48:54Z</time>
      </trkpt>
      <trkpt lat="47.57734" lon="6.69187">
        <ele>466</ele>
        <time>2014-04-13T10:48:56Z</time>
      </trkpt>
      <trkpt lat="47.57737" lon="6.69192">
        <ele>466</ele>
        <time>2014-04-13T10:48:57Z</time>
      </trkpt>
      <trkpt lat="47.57741" lon="6.69196">
        <ele>467</ele>
        <time>2014-04-13T10:48:58Z</time>
      </trkpt>
      <trkpt lat="47.57745" lon="6.69201">
        <ele>467</ele>
        <time>2014-04-13T10:48:59Z</time>
      </trkpt>
      <trkpt lat="47.5775" lon="6.69203">
        <ele>467</ele>
        <time>2014-04-13T10:49:00Z</time>
      </trkpt>
      <trkpt lat="47.57765" lon="6.69213">
        <ele>467</ele>
        <time>2014-04-13T10:49:04Z</time>
      </trkpt>
      <trkpt lat="47.57777" lon="6.69221">
        <ele>467</ele>
        <time>2014-04-13T10:49:07Z</time>
      </trkpt>
      <trkpt lat="47.57788" lon="6.69231">
        <ele>467</ele>
        <time>2014-04-13T10:49:10Z</time>
      </trkpt>
      <trkpt lat="47.57808" lon="6.69245">
        <ele>468</ele>
        <time>2014-04-13T10:49:14Z</time>
      </trkpt>
      <trkpt lat="47.57812" lon="6.69249">
        <ele>468</ele>
        <time>2014-04-13T10:49:15Z</time>
      </trkpt>
      <trkpt lat="47.57817" lon="6.69253">
        <ele>469</ele>
        <time>2014-04-13T10:49:16Z</time>
      </trkpt>
      <trkpt lat="47.57822" lon="6.69256">
        <ele>469</ele>
        <time>2014-04-13T10:49:17Z</time>
      </trkpt>
      <trkpt lat="47.57827" lon="6.69258">
        <ele>469</ele>
        <time>2014-04-13T10:49:18Z</time>
      </trkpt>
      <trkpt lat="47.57845" lon="6.6927">
        <ele>469</ele>
        <time>2014-04-13T10:49:22Z</time>
      </trkpt>
      <trkpt lat="47.57849" lon="6.69274">
        <ele>469</ele>
        <time>2014-04-13T10:49:23Z</time>
      </trkpt>
      <trkpt lat="47.57881" lon="6.69292">
        <ele>469</ele>
        <time>2014-04-13T10:49:30Z</time>
      </trkpt>
      <trkpt lat="47.57896" lon="6.693">
        <ele>470</ele>
        <time>2014-04-13T10:49:34Z</time>
      </trkpt>
      <trkpt lat="47.57899" lon="6.69301">
        <ele>470</ele>
        <time>2014-04-13T10:49:35Z</time>
      </trkpt>
      <trkpt lat="47.57902" lon="6.69302">
        <ele>471</ele>
        <time>2014-04-13T10:49:36Z</time>
      </trkpt>
      <trkpt lat="47.57905" lon="6.69304">
        <ele>471</ele>
        <time>2014-04-13T10:49:37Z</time>
      </trkpt>
      <trkpt lat="47.57908" lon="6.69305">
        <ele>471</ele>
        <time>2014-04-13T10:49:38Z</time>
      </trkpt>
      <trkpt lat="47.57917" lon="6.69313">
        <ele>471</ele>
        <time>2014-04-13T10:49:42Z</time>
      </trkpt>
      <trkpt lat="47.57925" lon="6.69317">
        <ele>472</ele>
        <time>2014-04-13T10:49:45Z</time>
      </trkpt>
      <trkpt lat="47.57928" lon="6.69318">
        <ele>472</ele>
        <time>2014-04-13T10:49:46Z</time>
      </trkpt>
      <trkpt lat="47.5793" lon="6.6932">
        <ele>473</ele>
        <time>2014-04-13T10:49:47Z</time>
      </trkpt>
      <trkpt lat="47.57932" lon="6.69322">
        <ele>473</ele>
        <time>2014-04-13T10:49:48Z</time>
      </trkpt>
      <trkpt lat="47.57936" lon="6.69324">
        <ele>474</ele>
        <time>2014-04-13T10:49:49Z</time>
      </trkpt>
      <trkpt lat="47.57946" lon="6.69331">
        <ele>474</ele>
        <time>2014-04-13T10:49:53Z</time>
      </trkpt>
      <trkpt lat="47.57953" lon="6.69339">
        <ele>474</ele>
        <time>2014-04-13T10:49:56Z</time>
      </trkpt>
      <trkpt lat="47.57956" lon="6.69341">
        <ele>475</ele>
        <time>2014-04-13T10:49:57Z</time>
      </trkpt>
      <trkpt lat="47.57958" lon="6.69342">
        <ele>475</ele>
        <time>2014-04-13T10:49:58Z</time>
      </trkpt>
      <trkpt lat="47.5796" lon="6.69343">
        <ele>476</ele>
        <time>2014-04-13T10:49:59Z</time>
      </trkpt>
      <trkpt lat="47.57977" lon="6.69359">
        <ele>476</ele>
        <time>2014-04-13T10:50:05Z</time>
      </trkpt>
      <trkpt lat="47.57987" lon="6.69367">
        <ele>476</ele>
        <time>2014-04-13T10:50:08Z</time>
      </trkpt>
      <trkpt lat="47.5799" lon="6.69369">
        <ele>476</ele>
        <time>2014-04-13T10:50:09Z</time>
      </trkpt>
      <trkpt lat="47.57993" lon="6.69373">
        <ele>477</ele>
        <time>2014-04-13T10:50:10Z</time>
      </trkpt>
      <trkpt lat="47.57996" lon="6.69377">
        <ele>477</ele>
        <time>2014-04-13T10:50:11Z</time>
      </trkpt>
      <trkpt lat="47.57999" lon="6.6938">
        <ele>478</ele>
        <time>2014-04-13T10:50:12Z</time>
      </trkpt>
      <trkpt lat="47.5801" lon="6.69395">
        <ele>478</ele>
        <time>2014-04-13T10:50:16Z</time>
      </trkpt>
      <trkpt lat="47.58015" lon="6.69405">
        <ele>478</ele>
        <time>2014-04-13T10:50:18Z</time>
      </trkpt>
      <trkpt lat="47.58015" lon="6.69413">
        <ele>478</ele>
        <time>2014-04-13T10:50:20Z</time>
      </trkpt>
      <trkpt lat="47.58009" lon="6.69424">
        <ele>478</ele>
        <time>2014-04-13T10:50:23Z</time>
      </trkpt>
      <trkpt lat="47.58007" lon="6.6943">
        <ele>478</ele>
        <time>2014-04-13T10:50:24Z</time>
      </trkpt>
      <trkpt lat="47.58004" lon="6.69436">
        <ele>477</ele>
        <time>2014-04-13T10:50:25Z</time>
      </trkpt>
      <trkpt lat="47.58" lon="6.69445">
        <ele>477</ele>
        <time>2014-04-13T10:50:26Z</time>
      </trkpt>
      <trkpt lat="47.57996" lon="6.69453">
        <ele>476</ele>
        <time>2014-04-13T10:50:27Z</time>
      </trkpt>
      <trkpt lat="47.57991" lon="6.69462">
        <ele>476</ele>
        <time>2014-04-13T10:50:28Z</time>
      </trkpt>
      <trkpt lat="47.57987" lon="6.69472">
        <ele>475</ele>
        <time>2014-04-13T10:50:29Z</time>
      </trkpt>
      <trkpt lat="47.57982" lon="6.69482">
        <ele>475</ele>
        <time>2014-04-13T10:50:30Z</time>
      </trkpt>
      <trkpt lat="47.57976" lon="6.69493">
        <ele>474</ele>
        <time>2014-04-13T10:50:31Z</time>
      </trkpt>
      <trkpt lat="47.57971" lon="6.69505">
        <ele>473</ele>
        <time>2014-04-13T10:50:32Z</time>
      </trkpt>
      <trkpt lat="47.57967" lon="6.69517">
        <ele>472</ele>
        <time>2014-04-13T10:50:33Z</time>
      </trkpt>
      <trkpt lat="47.57964" lon="6.69526">
        <ele>471</ele>
        <time>2014-04-13T10:50:34Z</time>
      </trkpt>
      <trkpt lat="47.57961" lon="6.69534">
        <ele>470</ele>
        <time>2014-04-13T10:50:35Z</time>
      </trkpt>
      <trkpt lat="47.5796" lon="6.69542">
        <ele>470</ele>
        <time>2014-04-13T10:50:36Z</time>
      </trkpt>
      <trkpt lat="47.57958" lon="6.69549">
        <ele>470</ele>
        <time>2014-04-13T10:50:37Z</time>
      </trkpt>
      <trkpt lat="47.57956" lon="6.69556">
        <ele>469</ele>
        <time>2014-04-13T10:50:38Z</time>
      </trkpt>
      <trkpt lat="47.57954" lon="6.69561">
        <ele>469</ele>
        <time>2014-04-13T10:50:39Z</time>
      </trkpt>
      <trkpt lat="47.57954" lon="6.69562">
        <ele>469</ele>
        <time>2014-04-13T10:50:40Z</time>
      </trkpt>
      <trkpt lat="47.57952" lon="6.69567">
        <ele>468</ele>
        <time>2014-04-13T10:50:41Z</time>
      </trkpt>
      <trkpt lat="47.57952" lon="6.69568">
        <ele>468</ele>
        <time>2014-04-13T10:50:42Z</time>
      </trkpt>
      <trkpt lat="47.5795" lon="6.6957">
        <ele>467</ele>
        <time>2014-04-13T10:50:43Z</time>
      </trkpt>
      <trkpt lat="47.57948" lon="6.69573">
        <ele>467</ele>
        <time>2014-04-13T10:50:44Z</time>
      </trkpt>
      <trkpt lat="47.57947" lon="6.69575">
        <ele>466</ele>
        <time>2014-04-13T10:50:45Z</time>
      </trkpt>
      <trkpt lat="47.57946" lon="6.69577">
        <ele>466</ele>
        <time>2014-04-13T10:50:46Z</time>
      </trkpt>
      <trkpt lat="47.57945" lon="6.6958">
        <ele>465</ele>
        <time>2014-04-13T10:50:47Z</time>
      </trkpt>
      <trkpt lat="47.57943" lon="6.69582">
        <ele>465</ele>
        <time>2014-04-13T10:50:48Z</time>
      </trkpt>
      <trkpt lat="47.57941" lon="6.69582">
        <ele>465</ele>
        <time>2014-04-13T10:50:49Z</time>
      </trkpt>
      <trkpt lat="47.57938" lon="6.69581">
        <ele>464</ele>
        <time>2014-04-13T10:50:50Z</time>
      </trkpt>
      <trkpt lat="47.57933" lon="6.69581">
        <ele>464</ele>
        <time>2014-04-13T10:50:51Z</time>
      </trkpt>
      <trkpt lat="47.57929" lon="6.69578">
        <ele>464</ele>
        <time>2014-04-13T10:50:52Z</time>
      </trkpt>
      <trkpt lat="47.57924" lon="6.69577">
        <ele>464</ele>
        <time>2014-04-13T10:50:53Z</time>
      </trkpt>
      <trkpt lat="47.57884" lon="6.69567">
        <ele>464</ele>
        <time>2014-04-13T10:51:01Z</time>
      </trkpt>
      <trkpt lat="47.5786" lon="6.69561">
        <ele>464</ele>
        <time>2014-04-13T10:51:05Z</time>
      </trkpt>
      <trkpt lat="47.57853" lon="6.69559">
        <ele>463</ele>
        <time>2014-04-13T10:51:06Z</time>
      </trkpt>
      <trkpt lat="47.57847" lon="6.69557">
        <ele>463</ele>
        <time>2014-04-13T10:51:07Z</time>
      </trkpt>
      <trkpt lat="47.57842" lon="6.69556">
        <ele>462</ele>
        <time>2014-04-13T10:51:08Z</time>
      </trkpt>
      <trkpt lat="47.57842" lon="6.69556">
        <ele>462</ele>
        <time>2014-04-13T10:51:09Z</time>
      </trkpt>
      <trkpt lat="47.57837" lon="6.69557">
        <ele>461</ele>
        <time>2014-04-13T10:51:10Z</time>
      </trkpt>
      <trkpt lat="47.57829" lon="6.69558">
        <ele>461</ele>
        <time>2014-04-13T10:51:14Z</time>
      </trkpt>
      <trkpt lat="47.57826" lon="6.69551">
        <ele>461</ele>
        <time>2014-04-13T10:51:18Z</time>
      </trkpt>
      <trkpt lat="47.57823" lon="6.6955">
        <ele>461</ele>
        <time>2014-04-13T10:51:19Z</time>
      </trkpt>
      <trkpt lat="47.57821" lon="6.6955">
        <ele>460</ele>
        <time>2014-04-13T10:51:20Z</time>
      </trkpt>
      <trkpt lat="47.57817" lon="6.69548">
        <ele>460</ele>
        <time>2014-04-13T10:51:21Z</time>
      </trkpt>
      <trkpt lat="47.57813" lon="6.69548">
        <ele>459</ele>
        <time>2014-04-13T10:51:22Z</time>
      </trkpt>
      <trkpt lat="47.57797" lon="6.69542">
        <ele>459</ele>
        <time>2014-04-13T10:51:26Z</time>
      </trkpt>
      <trkpt lat="47.57793" lon="6.6954">
        <ele>459</ele>
        <time>2014-04-13T10:51:27Z</time>
      </trkpt>
      <trkpt lat="47.57788" lon="6.69538">
        <ele>458</ele>
        <time>2014-04-13T10:51:28Z</time>
      </trkpt>
      <trkpt lat="47.57785" lon="6.69537">
        <ele>458</ele>
        <time>2014-04-13T10:51:29Z</time>
      </trkpt>
      <trkpt lat="47.57782" lon="6.69538">
        <ele>458</ele>
        <time>2014-04-13T10:51:30Z</time>
      </trkpt>
      <trkpt lat="47.57782" lon="6.69538">
        <ele>457</ele>
        <time>2014-04-13T10:51:31Z</time>
      </trkpt>
      <trkpt lat="47.57778" lon="6.69539">
        <ele>457</ele>
        <time>2014-04-13T10:51:32Z</time>
      </trkpt>
      <trkpt lat="47.57769" lon="6.69535">
        <ele>457</ele>
        <time>2014-04-13T10:51:35Z</time>
      </trkpt>
      <trkpt lat="47.57763" lon="6.69533">
        <ele>456</ele>
        <time>2014-04-13T10:51:36Z</time>
      </trkpt>
      <trkpt lat="47.57758" lon="6.69535">
        <ele>456</ele>
        <time>2014-04-13T10:51:37Z</time>
      </trkpt>
      <trkpt lat="47.57752" lon="6.69538">
        <ele>456</ele>
        <time>2014-04-13T10:51:38Z</time>
      </trkpt>
      <trkpt lat="47.5775" lon="6.69539">
        <ele>455</ele>
        <time>2014-04-13T10:51:39Z</time>
      </trkpt>
      <trkpt lat="47.5775" lon="6.69539">
        <ele>455</ele>
        <time>2014-04-13T10:51:40Z</time>
      </trkpt>
      <trkpt lat="47.57748" lon="6.6954">
        <ele>454</ele>
        <time>2014-04-13T10:51:41Z</time>
      </trkpt>
      <trkpt lat="47.57748" lon="6.6954">
        <ele>454</ele>
        <time>2014-04-13T10:51:42Z</time>
      </trkpt>
      <trkpt lat="47.57747" lon="6.69541">
        <ele>453</ele>
        <time>2014-04-13T10:51:43Z</time>
      </trkpt>
      <trkpt lat="47.57747" lon="6.69541">
        <ele>453</ele>
        <time>2014-04-13T10:51:44Z</time>
      </trkpt>
      <trkpt lat="47.57749" lon="6.69544">
        <ele>453</ele>
        <time>2014-04-13T10:51:48Z</time>
      </trkpt>
      <trkpt lat="47.5775" lon="6.69547">
        <ele>453</ele>
        <time>2014-04-13T10:51:51Z</time>
      </trkpt>
      <trkpt lat="47.57746" lon="6.69555">
        <ele>453</ele>
        <time>2014-04-13T10:51:54Z</time>
      </trkpt>
      <trkpt lat="47.57744" lon="6.69555">
        <ele>453</ele>
        <time>2014-04-13T10:51:55Z</time>
      </trkpt>
      <trkpt lat="47.57737" lon="6.69563">
        <ele>453</ele>
        <time>2014-04-13T10:51:59Z</time>
      </trkpt>
      <trkpt lat="47.57736" lon="6.69568">
        <ele>453</ele>
        <time>2014-04-13T10:52:01Z</time>
      </trkpt>
      <trkpt lat="47.57736" lon="6.6957">
        <ele>452</ele>
        <time>2014-04-13T10:52:02Z</time>
      </trkpt>
      <trkpt lat="47.57735" lon="6.6957">
        <ele>452</ele>
        <time>2014-04-13T10:52:03Z</time>
      </trkpt>
      <trkpt lat="47.57734" lon="6.69573">
        <ele>452</ele>
        <time>2014-04-13T10:52:04Z</time>
      </trkpt>
      <trkpt lat="47.57733" lon="6.69574">
        <ele>451</ele>
        <time>2014-04-13T10:52:05Z</time>
      </trkpt>
      <trkpt lat="47.57731" lon="6.69575">
        <ele>451</ele>
        <time>2014-04-13T10:52:06Z</time>
      </trkpt>
      <trkpt lat="47.57723" lon="6.69577">
        <ele>451</ele>
        <time>2014-04-13T10:52:10Z</time>
      </trkpt>
      <trkpt lat="47.57712" lon="6.69574">
        <ele>450</ele>
        <time>2014-04-13T10:52:14Z</time>
      </trkpt>
      <trkpt lat="47.57709" lon="6.69572">
        <ele>450</ele>
        <time>2014-04-13T10:52:15Z</time>
      </trkpt>
      <trkpt lat="47.57707" lon="6.69572">
        <ele>450</ele>
        <time>2014-04-13T10:52:16Z</time>
      </trkpt>
      <trkpt lat="47.57705" lon="6.69572">
        <ele>449</ele>
        <time>2014-04-13T10:52:17Z</time>
      </trkpt>
      <trkpt lat="47.57703" lon="6.69574">
        <ele>449</ele>
        <time>2014-04-13T10:52:18Z</time>
      </trkpt>
      <trkpt lat="47.57702" lon="6.69578">
        <ele>449</ele>
        <time>2014-04-13T10:52:20Z</time>
      </trkpt>
      <trkpt lat="47.57701" lon="6.6958">
        <ele>448</ele>
        <time>2014-04-13T10:52:21Z</time>
      </trkpt>
      <trkpt lat="47.577" lon="6.69582">
        <ele>448</ele>
        <time>2014-04-13T10:52:22Z</time>
      </trkpt>
      <trkpt lat="47.57698" lon="6.69584">
        <ele>447</ele>
        <time>2014-04-13T10:52:23Z</time>
      </trkpt>
      <trkpt lat="47.57696" lon="6.69586">
        <ele>447</ele>
        <time>2014-04-13T10:52:24Z</time>
      </trkpt>
      <trkpt lat="47.57693" lon="6.69587">
        <ele>447</ele>
        <time>2014-04-13T10:52:25Z</time>
      </trkpt>
      <trkpt lat="47.5769" lon="6.69587">
        <ele>446</ele>
        <time>2014-04-13T10:52:26Z</time>
      </trkpt>
      <trkpt lat="47.57686" lon="6.69587">
        <ele>446</ele>
        <time>2014-04-13T10:52:27Z</time>
      </trkpt>
      <trkpt lat="47.57683" lon="6.69588">
        <ele>445</ele>
        <time>2014-04-13T10:52:28Z</time>
      </trkpt>
      <trkpt lat="47.57676" lon="6.69589">
        <ele>444</ele>
        <time>2014-04-13T10:52:29Z</time>
      </trkpt>
      <trkpt lat="47.57673" lon="6.69589">
        <ele>444</ele>
        <time>2014-04-13T10:52:31Z</time>
      </trkpt>
      <trkpt lat="47.57669" lon="6.69587">
        <ele>443</ele>
        <time>2014-04-13T10:52:32Z</time>
      </trkpt>
      <trkpt lat="47.57663" lon="6.69585">
        <ele>442</ele>
        <time>2014-04-13T10:52:33Z</time>
      </trkpt>
      <trkpt lat="47.5766" lon="6.69584">
        <ele>442</ele>
        <time>2014-04-13T10:52:34Z</time>
      </trkpt>
      <trkpt lat="47.57646" lon="6.69581">
        <ele>442</ele>
        <time>2014-04-13T10:52:37Z</time>
      </trkpt>
      <trkpt lat="47.57642" lon="6.69579">
        <ele>442</ele>
        <time>2014-04-13T10:52:38Z</time>
      </trkpt>
      <trkpt lat="47.57629" lon="6.69568">
        <ele>442</ele>
        <time>2014-04-13T10:52:41Z</time>
      </trkpt>
      <trkpt lat="47.5762" lon="6.69556">
        <ele>442</ele>
        <time>2014-04-13T10:52:43Z</time>
      </trkpt>
      <trkpt lat="47.57609" lon="6.69549">
        <ele>442</ele>
        <time>2014-04-13T10:52:45Z</time>
      </trkpt>
      <trkpt lat="47.57604" lon="6.69546">
        <ele>442</ele>
        <time>2014-04-13T10:52:46Z</time>
      </trkpt>
      <trkpt lat="47.57591" lon="6.69537">
        <ele>442</ele>
        <time>2014-04-13T10:52:48Z</time>
      </trkpt>
      <trkpt lat="47.57579" lon="6.6953">
        <ele>442</ele>
        <time>2014-04-13T10:52:50Z</time>
      </trkpt>
      <trkpt lat="47.57572" lon="6.69526">
        <ele>441</ele>
        <time>2014-04-13T10:52:51Z</time>
      </trkpt>
      <trkpt lat="47.57566" lon="6.69523">
        <ele>440</ele>
        <time>2014-04-13T10:52:52Z</time>
      </trkpt>
      <trkpt lat="47.57561" lon="6.69519">
        <ele>440</ele>
        <time>2014-04-13T10:52:53Z</time>
      </trkpt>
      <trkpt lat="47.57557" lon="6.69516">
        <ele>439</ele>
        <time>2014-04-13T10:52:54Z</time>
      </trkpt>
      <trkpt lat="47.57552" lon="6.69515">
        <ele>439</ele>
        <time>2014-04-13T10:52:55Z</time>
      </trkpt>
      <trkpt lat="47.57543" lon="6.6951">
        <ele>439</ele>
        <time>2014-04-13T10:52:57Z</time>
      </trkpt>
      <trkpt lat="47.57532" lon="6.69506">
        <ele>439</ele>
        <time>2014-04-13T10:53:00Z</time>
      </trkpt>
      <trkpt lat="47.57518" lon="6.69505">
        <ele>439</ele>
        <time>2014-04-13T10:53:04Z</time>
      </trkpt>
      <trkpt lat="47.57501" lon="6.69513">
        <ele>439</ele>
        <time>2014-04-13T10:53:08Z</time>
      </trkpt>
      <trkpt lat="47.57494" lon="6.69513">
        <ele>439</ele>
        <time>2014-04-13T10:53:09Z</time>
      </trkpt>
      <trkpt lat="47.57477" lon="6.69515">
        <ele>439</ele>
        <time>2014-04-13T10:53:12Z</time>
      </trkpt>
      <trkpt lat="47.5745" lon="6.69511">
        <ele>439</ele>
        <time>2014-04-13T10:53:17Z</time>
      </trkpt>
      <trkpt lat="47.57445" lon="6.6951">
        <ele>439</ele>
        <time>2014-04-13T10:53:18Z</time>
      </trkpt>
      <trkpt lat="47.57429" lon="6.69505">
        <ele>439</ele>
        <time>2014-04-13T10:53:22Z</time>
      </trkpt>
      <trkpt lat="47.57426" lon="6.69503">
        <ele>439</ele>
        <time>2014-04-13T10:53:23Z</time>
      </trkpt>
      <trkpt lat="47.57418" lon="6.695">
        <ele>440</ele>
        <time>2014-04-13T10:53:25Z</time>
      </trkpt>
      <trkpt lat="47.57413" lon="6.69497">
        <ele>440</ele>
        <time>2014-04-13T10:53:26Z</time>
      </trkpt>
      <trkpt lat="47.5741" lon="6.69494">
        <ele>441</ele>
        <time>2014-04-13T10:53:27Z</time>
      </trkpt>
      <trkpt lat="47.57405" lon="6.69493">
        <ele>441</ele>
        <time>2014-04-13T10:53:28Z</time>
      </trkpt>
      <trkpt lat="47.57401" lon="6.69494">
        <ele>442</ele>
        <time>2014-04-13T10:53:29Z</time>
      </trkpt>
      <trkpt lat="47.57391" lon="6.69498">
        <ele>442</ele>
        <time>2014-04-13T10:53:31Z</time>
      </trkpt>
      <trkpt lat="47.57387" lon="6.69502">
        <ele>442</ele>
        <time>2014-04-13T10:53:32Z</time>
      </trkpt>
      <trkpt lat="47.57368" lon="6.69508">
        <ele>441</ele>
        <time>2014-04-13T10:53:35Z</time>
      </trkpt>
      <trkpt lat="47.57361" lon="6.69509">
        <ele>441</ele>
        <time>2014-04-13T10:53:36Z</time>
      </trkpt>
      <trkpt lat="47.57352" lon="6.69512">
        <ele>440</ele>
        <time>2014-04-13T10:53:37Z</time>
      </trkpt>
      <trkpt lat="47.57342" lon="6.69516">
        <ele>439</ele>
        <time>2014-04-13T10:53:38Z</time>
      </trkpt>
      <trkpt lat="47.57334" lon="6.69519">
        <ele>439</ele>
        <time>2014-04-13T10:53:39Z</time>
      </trkpt>
      <trkpt lat="47.57324" lon="6.69523">
        <ele>438</ele>
        <time>2014-04-13T10:53:40Z</time>
      </trkpt>
      <trkpt lat="47.57314" lon="6.69527">
        <ele>436</ele>
        <time>2014-04-13T10:53:41Z</time>
      </trkpt>
      <trkpt lat="47.57304" lon="6.69532">
        <ele>436</ele>
        <time>2014-04-13T10:53:42Z</time>
      </trkpt>
      <trkpt lat="47.57294" lon="6.69536">
        <ele>435</ele>
        <time>2014-04-13T10:53:43Z</time>
      </trkpt>
      <trkpt lat="47.57285" lon="6.6954">
        <ele>434</ele>
        <time>2014-04-13T10:53:44Z</time>
      </trkpt>
      <trkpt lat="47.57275" lon="6.69545">
        <ele>433</ele>
        <time>2014-04-13T10:53:45Z</time>
      </trkpt>
      <trkpt lat="47.57264" lon="6.6955">
        <ele>432</ele>
        <time>2014-04-13T10:53:46Z</time>
      </trkpt>
      <trkpt lat="47.57255" lon="6.69555">
        <ele>431</ele>
        <time>2014-04-13T10:53:47Z</time>
      </trkpt>
      <trkpt lat="47.57244" lon="6.69561">
        <ele>430</ele>
        <time>2014-04-13T10:53:48Z</time>
      </trkpt>
      <trkpt lat="47.57233" lon="6.69566">
        <ele>429</ele>
        <time>2014-04-13T10:53:49Z</time>
      </trkpt>
      <trkpt lat="47.57224" lon="6.69572">
        <ele>428</ele>
        <time>2014-04-13T10:53:50Z</time>
      </trkpt>
      <trkpt lat="47.57214" lon="6.69577">
        <ele>427</ele>
        <time>2014-04-13T10:53:51Z</time>
      </trkpt>
      <trkpt lat="47.57204" lon="6.69582">
        <ele>426</ele>
        <time>2014-04-13T10:53:52Z</time>
      </trkpt>
      <trkpt lat="47.57195" lon="6.69586">
        <ele>426</ele>
        <time>2014-04-13T10:53:53Z</time>
      </trkpt>
      <trkpt lat="47.57185" lon="6.69591">
        <ele>425</ele>
        <time>2014-04-13T10:53:54Z</time>
      </trkpt>
      <trkpt lat="47.57176" lon="6.69596">
        <ele>424</ele>
        <time>2014-04-13T10:53:55Z</time>
      </trkpt>
      <trkpt lat="47.57168" lon="6.69601">
        <ele>423</ele>
        <time>2014-04-13T10:53:56Z</time>
      </trkpt>
      <trkpt lat="47.57152" lon="6.69612">
        <ele>423</ele>
        <time>2014-04-13T10:53:58Z</time>
      </trkpt>
      <trkpt lat="47.57138" lon="6.69626">
        <ele>423</ele>
        <time>2014-04-13T10:54:00Z</time>
      </trkpt>
      <trkpt lat="47.57119" lon="6.69653">
        <ele>423</ele>
        <time>2014-04-13T10:54:03Z</time>
      </trkpt>
      <trkpt lat="47.57114" lon="6.69663">
        <ele>423</ele>
        <time>2014-04-13T10:54:04Z</time>
      </trkpt>
      <trkpt lat="47.57106" lon="6.69683">
        <ele>423</ele>
        <time>2014-04-13T10:54:06Z</time>
      </trkpt>
      <trkpt lat="47.571" lon="6.69703">
        <ele>423</ele>
        <time>2014-04-13T10:54:08Z</time>
      </trkpt>
      <trkpt lat="47.57099" lon="6.69713">
        <ele>423</ele>
        <time>2014-04-13T10:54:09Z</time>
      </trkpt>
      <trkpt lat="47.57102" lon="6.69743">
        <ele>423</ele>
        <time>2014-04-13T10:54:13Z</time>
      </trkpt>
      <trkpt lat="47.57106" lon="6.69778">
        <ele>423</ele>
        <time>2014-04-13T10:54:18Z</time>
      </trkpt>
      <trkpt lat="47.57107" lon="6.69792">
        <ele>424</ele>
        <time>2014-04-13T10:54:20Z</time>
      </trkpt>
      <trkpt lat="47.57108" lon="6.69799">
        <ele>424</ele>
        <time>2014-04-13T10:54:21Z</time>
      </trkpt>
      <trkpt lat="47.57108" lon="6.69805">
        <ele>424</ele>
        <time>2014-04-13T10:54:22Z</time>
      </trkpt>
      <trkpt lat="47.57109" lon="6.69811">
        <ele>425</ele>
        <time>2014-04-13T10:54:23Z</time>
      </trkpt>
      <trkpt lat="47.57109" lon="6.69817">
        <ele>425</ele>
        <time>2014-04-13T10:54:24Z</time>
      </trkpt>
      <trkpt lat="47.57109" lon="6.69823">
        <ele>425</ele>
        <time>2014-04-13T10:54:25Z</time>
      </trkpt>
      <trkpt lat="47.5711" lon="6.69835">
        <ele>425</ele>
        <time>2014-04-13T10:54:27Z</time>
      </trkpt>
      <trkpt lat="47.57113" lon="6.69863">
        <ele>425</ele>
        <time>2014-04-13T10:54:31Z</time>
      </trkpt>
      <trkpt lat="47.57117" lon="6.69892">
        <ele>425</ele>
        <time>2014-04-13T10:54:36Z</time>
      </trkpt>
      <trkpt lat="47.57116" lon="6.6993">
        <ele>425</ele>
        <time>2014-04-13T10:54:41Z</time>
      </trkpt>
      <trkpt lat="47.57105" lon="6.69946">
        <ele>425</ele>
        <time>2014-04-13T10:54:44Z</time>
      </trkpt>
      <trkpt lat="47.57078" lon="6.69964">
        <ele>425</ele>
        <time>2014-04-13T10:54:48Z</time>
      </trkpt>
      <trkpt lat="47.5707" lon="6.69971">
        <ele>424</ele>
        <time>2014-04-13T10:54:49Z</time>
      </trkpt>
      <trkpt lat="47.57062" lon="6.69978">
        <ele>424</ele>
        <time>2014-04-13T10:54:50Z</time>
      </trkpt>
      <trkpt lat="47.57053" lon="6.69984">
        <ele>424</ele>
        <time>2014-04-13T10:54:51Z</time>
      </trkpt>
      <trkpt lat="47.57043" lon="6.6999">
        <ele>423</ele>
        <time>2014-04-13T10:54:52Z</time>
      </trkpt>
      <trkpt lat="47.57034" lon="6.69996">
        <ele>422</ele>
        <time>2014-04-13T10:54:53Z</time>
      </trkpt>
      <trkpt lat="47.57023" lon="6.70003">
        <ele>422</ele>
        <time>2014-04-13T10:54:54Z</time>
      </trkpt>
      <trkpt lat="47.57014" lon="6.70009">
        <ele>421</ele>
        <time>2014-04-13T10:54:55Z</time>
      </trkpt>
      <trkpt lat="47.57004" lon="6.70015">
        <ele>420</ele>
        <time>2014-04-13T10:54:56Z</time>
      </trkpt>
      <trkpt lat="47.56995" lon="6.70021">
        <ele>419</ele>
        <time>2014-04-13T10:54:57Z</time>
      </trkpt>
      <trkpt lat="47.56986" lon="6.70027">
        <ele>418</ele>
        <time>2014-04-13T10:54:58Z</time>
      </trkpt>
      <trkpt lat="47.56977" lon="6.70033">
        <ele>417</ele>
        <time>2014-04-13T10:54:59Z</time>
      </trkpt>
      <trkpt lat="47.56968" lon="6.70041">
        <ele>417</ele>
        <time>2014-04-13T10:55:00Z</time>
      </trkpt>
      <trkpt lat="47.56959" lon="6.70048">
        <ele>416</ele>
        <time>2014-04-13T10:55:01Z</time>
      </trkpt>
      <trkpt lat="47.56949" lon="6.70055">
        <ele>416</ele>
        <time>2014-04-13T10:55:02Z</time>
      </trkpt>
      <trkpt lat="47.56941" lon="6.70062">
        <ele>415</ele>
        <time>2014-04-13T10:55:03Z</time>
      </trkpt>
      <trkpt lat="47.56932" lon="6.70069">
        <ele>415</ele>
        <time>2014-04-13T10:55:04Z</time>
      </trkpt>
      <trkpt lat="47.56923" lon="6.70077">
        <ele>415</ele>
        <time>2014-04-13T10:55:05Z</time>
      </trkpt>
      <trkpt lat="47.56914" lon="6.70083">
        <ele>414</ele>
        <time>2014-04-13T10:55:06Z</time>
      </trkpt>
      <trkpt lat="47.56904" lon="6.70089">
        <ele>414</ele>
        <time>2014-04-13T10:55:07Z</time>
      </trkpt>
      <trkpt lat="47.56895" lon="6.70095">
        <ele>413</ele>
        <time>2014-04-13T10:55:08Z</time>
      </trkpt>
      <trkpt lat="47.56886" lon="6.70102">
        <ele>413</ele>
        <time>2014-04-13T10:55:09Z</time>
      </trkpt>
      <trkpt lat="47.56877" lon="6.70108">
        <ele>412</ele>
        <time>2014-04-13T10:55:10Z</time>
      </trkpt>
      <trkpt lat="47.56842" lon="6.70138">
        <ele>412</ele>
        <time>2014-04-13T10:55:14Z</time>
      </trkpt>
      <trkpt lat="47.56802" lon="6.70189">
        <ele>412</ele>
        <time>2014-04-13T10:55:19Z</time>
      </trkpt>
      <trkpt lat="47.56794" lon="6.70201">
        <ele>411</ele>
        <time>2014-04-13T10:55:20Z</time>
      </trkpt>
      <trkpt lat="47.56786" lon="6.70213">
        <ele>410</ele>
        <time>2014-04-13T10:55:21Z</time>
      </trkpt>
      <trkpt lat="47.5678" lon="6.70226">
        <ele>410</ele>
        <time>2014-04-13T10:55:22Z</time>
      </trkpt>
      <trkpt lat="47.56773" lon="6.7024">
        <ele>410</ele>
        <time>2014-04-13T10:55:23Z</time>
      </trkpt>
      <trkpt lat="47.56767" lon="6.70255">
        <ele>409</ele>
        <time>2014-04-13T10:55:24Z</time>
      </trkpt>
      <trkpt lat="47.5676" lon="6.70269">
        <ele>409</ele>
        <time>2014-04-13T10:55:25Z</time>
      </trkpt>
      <trkpt lat="47.56753" lon="6.70284">
        <ele>408</ele>
        <time>2014-04-13T10:55:26Z</time>
      </trkpt>
      <trkpt lat="47.56746" lon="6.70297">
        <ele>408</ele>
        <time>2014-04-13T10:55:27Z</time>
      </trkpt>
      <trkpt lat="47.56738" lon="6.7031">
        <ele>407</ele>
        <time>2014-04-13T10:55:28Z</time>
      </trkpt>
      <trkpt lat="47.5673" lon="6.70323">
        <ele>406</ele>
        <time>2014-04-13T10:55:29Z</time>
      </trkpt>
      <trkpt lat="47.56722" lon="6.70336">
        <ele>406</ele>
        <time>2014-04-13T10:55:30Z</time>
      </trkpt>
      <trkpt lat="47.56714" lon="6.70348">
        <ele>405</ele>
        <time>2014-04-13T10:55:31Z</time>
      </trkpt>
      <trkpt lat="47.56708" lon="6.70358">
        <ele>405</ele>
        <time>2014-04-13T10:55:32Z</time>
      </trkpt>
      <trkpt lat="47.56702" lon="6.70367">
        <ele>404</ele>
        <time>2014-04-13T10:55:33Z</time>
      </trkpt>
      <trkpt lat="47.56698" lon="6.70375">
        <ele>404</ele>
        <time>2014-04-13T10:55:34Z</time>
      </trkpt>
      <trkpt lat="47.56696" lon="6.70382">
        <ele>403</ele>
        <time>2014-04-13T10:55:35Z</time>
      </trkpt>
      <trkpt lat="47.56697" lon="6.70388">
        <ele>403</ele>
        <time>2014-04-13T10:55:36Z</time>
      </trkpt>
      <trkpt lat="47.56701" lon="6.70395">
        <ele>403</ele>
        <time>2014-04-13T10:55:38Z</time>
      </trkpt>
      <trkpt lat="47.56717" lon="6.7041">
        <ele>403</ele>
        <time>2014-04-13T10:55:43Z</time>
      </trkpt>
      <trkpt lat="47.56728" lon="6.70423">
        <ele>403</ele>
        <time>2014-04-13T10:55:46Z</time>
      </trkpt>
      <trkpt lat="47.56739" lon="6.70439">
        <ele>403</ele>
        <time>2014-04-13T10:55:49Z</time>
      </trkpt>
      <trkpt lat="47.56756" lon="6.70463">
        <ele>403</ele>
        <time>2014-04-13T10:55:54Z</time>
      </trkpt>
      <trkpt lat="47.56759" lon="6.70468">
        <ele>404</ele>
        <time>2014-04-13T10:55:55Z</time>
      </trkpt>
      <trkpt lat="47.56762" lon="6.70472">
        <ele>404</ele>
        <time>2014-04-13T10:55:56Z</time>
      </trkpt>
      <trkpt lat="47.56765" lon="6.70477">
        <ele>404</ele>
        <time>2014-04-13T10:55:57Z</time>
      </trkpt>
      <trkpt lat="47.56768" lon="6.70481">
        <ele>405</ele>
        <time>2014-04-13T10:55:58Z</time>
      </trkpt>
      <trkpt lat="47.5678" lon="6.70498">
        <ele>405</ele>
        <time>2014-04-13T10:56:02Z</time>
      </trkpt>
      <trkpt lat="47.56783" lon="6.70501">
        <ele>406</ele>
        <time>2014-04-13T10:56:03Z</time>
      </trkpt>
      <trkpt lat="47.56787" lon="6.70504">
        <ele>406</ele>
        <time>2014-04-13T10:56:04Z</time>
      </trkpt>
      <trkpt lat="47.5679" lon="6.70505">
        <ele>407</ele>
        <time>2014-04-13T10:56:05Z</time>
      </trkpt>
      <trkpt lat="47.56794" lon="6.70505">
        <ele>407</ele>
        <time>2014-04-13T10:56:06Z</time>
      </trkpt>
      <trkpt lat="47.56797" lon="6.70503">
        <ele>407</ele>
        <time>2014-04-13T10:56:07Z</time>
      </trkpt>
      <trkpt lat="47.56813" lon="6.70494">
        <ele>407</ele>
        <time>2014-04-13T10:56:12Z</time>
      </trkpt>
      <trkpt lat="47.56816" lon="6.70494">
        <ele>408</ele>
        <time>2014-04-13T10:56:13Z</time>
      </trkpt>
      <trkpt lat="47.56819" lon="6.70493">
        <ele>408</ele>
        <time>2014-04-13T10:56:14Z</time>
      </trkpt>
      <trkpt lat="47.56822" lon="6.70493">
        <ele>409</ele>
        <time>2014-04-13T10:56:15Z</time>
      </trkpt>
      <trkpt lat="47.56824" lon="6.70493">
        <ele>409</ele>
        <time>2014-04-13T10:56:16Z</time>
      </trkpt>
      <trkpt lat="47.5683" lon="6.70494">
        <ele>410</ele>
        <time>2014-04-13T10:56:18Z</time>
      </trkpt>
      <trkpt lat="47.56833" lon="6.70494">
        <ele>410</ele>
        <time>2014-04-13T10:56:19Z</time>
      </trkpt>
      <trkpt lat="47.56836" lon="6.70494">
        <ele>411</ele>
        <time>2014-04-13T10:56:20Z</time>
      </trkpt>
      <trkpt lat="47.56839" lon="6.70495">
        <ele>411</ele>
        <time>2014-04-13T10:56:21Z</time>
      </trkpt>
      <trkpt lat="47.56842" lon="6.70496">
        <ele>412</ele>
        <time>2014-04-13T10:56:22Z</time>
      </trkpt>
      <trkpt lat="47.56853" lon="6.70502">
        <ele>412</ele>
        <time>2014-04-13T10:56:26Z</time>
      </trkpt>
      <trkpt lat="47.56855" lon="6.70504">
        <ele>412</ele>
        <time>2014-04-13T10:56:27Z</time>
      </trkpt>
      <trkpt lat="47.56858" lon="6.70506">
        <ele>412</ele>
        <time>2014-04-13T10:56:28Z</time>
      </trkpt>
      <trkpt lat="47.5686" lon="6.70508">
        <ele>413</ele>
        <time>2014-04-13T10:56:29Z</time>
      </trkpt>
      <trkpt lat="47.56863" lon="6.7051">
        <ele>413</ele>
        <time>2014-04-13T10:56:30Z</time>
      </trkpt>
      <trkpt lat="47.56865" lon="6.70511">
        <ele>414</ele>
        <time>2014-04-13T10:56:31Z</time>
      </trkpt>
      <trkpt lat="47.56871" lon="6.70514">
        <ele>414</ele>
        <time>2014-04-13T10:56:34Z</time>
      </trkpt>
      <trkpt lat="47.56875" lon="6.70518">
        <ele>414</ele>
        <time>2014-04-13T10:56:36Z</time>
      </trkpt>
      <trkpt lat="47.56877" lon="6.7052">
        <ele>415</ele>
        <time>2014-04-13T10:56:37Z</time>
      </trkpt>
      <trkpt lat="47.56879" lon="6.70522">
        <ele>415</ele>
        <time>2014-04-13T10:56:38Z</time>
      </trkpt>
      <trkpt lat="47.56882" lon="6.70523">
        <ele>416</ele>
        <time>2014-04-13T10:56:39Z</time>
      </trkpt>
      <trkpt lat="47.56884" lon="6.70524">
        <ele>416</ele>
        <time>2014-04-13T10:56:40Z</time>
      </trkpt>
      <trkpt lat="47.56895" lon="6.7053">
        <ele>416</ele>
        <time>2014-04-13T10:56:44Z</time>
      </trkpt>
      <trkpt lat="47.56898" lon="6.70533">
        <ele>417</ele>
        <time>2014-04-13T10:56:45Z</time>
      </trkpt>
      <trkpt lat="47.569" lon="6.70535">
        <ele>417</ele>
        <time>2014-04-13T10:56:46Z</time>
      </trkpt>
      <trkpt lat="47.56903" lon="6.70537">
        <ele>418</ele>
        <time>2014-04-13T10:56:47Z</time>
      </trkpt>
      <trkpt lat="47.56905" lon="6.70539">
        <ele>418</ele>
        <time>2014-04-13T10:56:48Z</time>
      </trkpt>
      <trkpt lat="47.56909" lon="6.70543">
        <ele>418</ele>
        <time>2014-04-13T10:56:50Z</time>
      </trkpt>
      <trkpt lat="47.56916" lon="6.70547">
        <ele>419</ele>
        <time>2014-04-13T10:56:53Z</time>
      </trkpt>
      <trkpt lat="47.56918" lon="6.70549">
        <ele>419</ele>
        <time>2014-04-13T10:56:54Z</time>
      </trkpt>
      <trkpt lat="47.56921" lon="6.70551">
        <ele>420</ele>
        <time>2014-04-13T10:56:55Z</time>
      </trkpt>
      <trkpt lat="47.56923" lon="6.70553">
        <ele>420</ele>
        <time>2014-04-13T10:56:56Z</time>
      </trkpt>
      <trkpt lat="47.56925" lon="6.70554">
        <ele>420</ele>
        <time>2014-04-13T10:56:57Z</time>
      </trkpt>
      <trkpt lat="47.56931" lon="6.70559">
        <ele>420</ele>
        <time>2014-04-13T10:57:00Z</time>
      </trkpt>
      <trkpt lat="47.56935" lon="6.70564">
        <ele>421</ele>
        <time>2014-04-13T10:57:02Z</time>
      </trkpt>
      <trkpt lat="47.56937" lon="6.70566">
        <ele>421</ele>
        <time>2014-04-13T10:57:03Z</time>
      </trkpt>
      <trkpt lat="47.5694" lon="6.70568">
        <ele>422</ele>
        <time>2014-04-13T10:57:04Z</time>
      </trkpt>
      <trkpt lat="47.56942" lon="6.7057">
        <ele>422</ele>
        <time>2014-04-13T10:57:05Z</time>
      </trkpt>
      <trkpt lat="47.56944" lon="6.70572">
        <ele>423</ele>
        <time>2014-04-13T10:57:06Z</time>
      </trkpt>
      <trkpt lat="47.56947" lon="6.70574">
        <ele>423</ele>
        <time>2014-04-13T10:57:07Z</time>
      </trkpt>
      <trkpt lat="47.56959" lon="6.70584">
        <ele>423</ele>
        <time>2014-04-13T10:57:12Z</time>
      </trkpt>
      <trkpt lat="47.56961" lon="6.70586">
        <ele>424</ele>
        <time>2014-04-13T10:57:13Z</time>
      </trkpt>
      <trkpt lat="47.56963" lon="6.70587">
        <ele>424</ele>
        <time>2014-04-13T10:57:14Z</time>
      </trkpt>
      <trkpt lat="47.56964" lon="6.70588">
        <ele>425</ele>
        <time>2014-04-13T10:57:15Z</time>
      </trkpt>
      <trkpt lat="47.56966" lon="6.7059">
        <ele>425</ele>
        <time>2014-04-13T10:57:16Z</time>
      </trkpt>
      <trkpt lat="47.5697" lon="6.70593">
        <ele>425</ele>
        <time>2014-04-13T10:57:18Z</time>
      </trkpt>
      <trkpt lat="47.56978" lon="6.706">
        <ele>426</ele>
        <time>2014-04-13T10:57:22Z</time>
      </trkpt>
      <trkpt lat="47.56981" lon="6.70603">
        <ele>426</ele>
        <time>2014-04-13T10:57:23Z</time>
      </trkpt>
      <trkpt lat="47.56983" lon="6.70606">
        <ele>427</ele>
        <time>2014-04-13T10:57:24Z</time>
      </trkpt>
      <trkpt lat="47.56985" lon="6.70608">
        <ele>427</ele>
        <time>2014-04-13T10:57:25Z</time>
      </trkpt>
      <trkpt lat="47.56994" lon="6.70615">
        <ele>428</ele>
        <time>2014-04-13T10:57:29Z</time>
      </trkpt>
      <trkpt lat="47.56997" lon="6.70617">
        <ele>428</ele>
        <time>2014-04-13T10:57:30Z</time>
      </trkpt>
      <trkpt lat="47.56999" lon="6.70619">
        <ele>428</ele>
        <time>2014-04-13T10:57:31Z</time>
      </trkpt>
      <trkpt lat="47.57001" lon="6.70621">
        <ele>429</ele>
        <time>2014-04-13T10:57:32Z</time>
      </trkpt>
      <trkpt lat="47.57003" lon="6.70622">
        <ele>429</ele>
        <time>2014-04-13T10:57:33Z</time>
      </trkpt>
      <trkpt lat="47.57008" lon="6.70626">
        <ele>429</ele>
        <time>2014-04-13T10:57:35Z</time>
      </trkpt>
      <trkpt lat="47.57013" lon="6.7063">
        <ele>430</ele>
        <time>2014-04-13T10:57:37Z</time>
      </trkpt>
      <trkpt lat="47.57015" lon="6.70632">
        <ele>430</ele>
        <time>2014-04-13T10:57:38Z</time>
      </trkpt>
      <trkpt lat="47.57018" lon="6.70634">
        <ele>431</ele>
        <time>2014-04-13T10:57:39Z</time>
      </trkpt>
      <trkpt lat="47.57021" lon="6.70635">
        <ele>431</ele>
        <time>2014-04-13T10:57:40Z</time>
      </trkpt>
      <trkpt lat="47.57023" lon="6.70637">
        <ele>431</ele>
        <time>2014-04-13T10:57:41Z</time>
      </trkpt>
      <trkpt lat="47.57033" lon="6.70642">
        <ele>432</ele>
        <time>2014-04-13T10:57:45Z</time>
      </trkpt>
      <trkpt lat="47.57036" lon="6.70644">
        <ele>433</ele>
        <time>2014-04-13T10:57:46Z</time>
      </trkpt>
      <trkpt lat="47.57038" lon="6.70645">
        <ele>433</ele>
        <time>2014-04-13T10:57:47Z</time>
      </trkpt>
      <trkpt lat="47.5704" lon="6.70646">
        <ele>433</ele>
        <time>2014-04-13T10:57:48Z</time>
      </trkpt>
      <trkpt lat="47.57048" lon="6.70654">
        <ele>434</ele>
        <time>2014-04-13T10:57:52Z</time>
      </trkpt>
      <trkpt lat="47.5705" lon="6.70656">
        <ele>434</ele>
        <time>2014-04-13T10:57:53Z</time>
      </trkpt>
      <trkpt lat="47.57052" lon="6.70658">
        <ele>435</ele>
        <time>2014-04-13T10:57:54Z</time>
      </trkpt>
      <trkpt lat="47.57054" lon="6.7066">
        <ele>435</ele>
        <time>2014-04-13T10:57:55Z</time>
      </trkpt>
      <trkpt lat="47.57056" lon="6.70661">
        <ele>436</ele>
        <time>2014-04-13T10:57:56Z</time>
      </trkpt>
      <trkpt lat="47.57062" lon="6.70668">
        <ele>436</ele>
        <time>2014-04-13T10:57:59Z</time>
      </trkpt>
      <trkpt lat="47.57066" lon="6.70671">
        <ele>436</ele>
        <time>2014-04-13T10:58:01Z</time>
      </trkpt>
      <trkpt lat="47.57068" lon="6.70674">
        <ele>436</ele>
        <time>2014-04-13T10:58:02Z</time>
      </trkpt>
      <trkpt lat="47.5707" lon="6.70676">
        <ele>437</ele>
        <time>2014-04-13T10:58:03Z</time>
      </trkpt>
      <trkpt lat="47.57073" lon="6.70678">
        <ele>437</ele>
        <time>2014-04-13T10:58:04Z</time>
      </trkpt>
      <trkpt lat="47.57075" lon="6.70679">
        <ele>438</ele>
        <time>2014-04-13T10:58:05Z</time>
      </trkpt>
      <trkpt lat="47.57085" lon="6.70685">
        <ele>438</ele>
        <time>2014-04-13T10:58:10Z</time>
      </trkpt>
      <trkpt lat="47.57088" lon="6.70686">
        <ele>439</ele>
        <time>2014-04-13T10:58:11Z</time>
      </trkpt>
      <trkpt lat="47.57091" lon="6.70687">
        <ele>439</ele>
        <time>2014-04-13T10:58:12Z</time>
      </trkpt>
      <trkpt lat="47.57093" lon="6.70689">
        <ele>440</ele>
        <time>2014-04-13T10:58:13Z</time>
      </trkpt>
      <trkpt lat="47.571" lon="6.70693">
        <ele>440</ele>
        <time>2014-04-13T10:58:16Z</time>
      </trkpt>
      <trkpt lat="47.57103" lon="6.70695">
        <ele>441</ele>
        <time>2014-04-13T10:58:17Z</time>
      </trkpt>
      <trkpt lat="47.57105" lon="6.70699">
        <ele>441</ele>
        <time>2014-04-13T10:58:18Z</time>
      </trkpt>
      <trkpt lat="47.57108" lon="6.70703">
        <ele>441</ele>
        <time>2014-04-13T10:58:19Z</time>
      </trkpt>
      <trkpt lat="47.57111" lon="6.70705">
        <ele>442</ele>
        <time>2014-04-13T10:58:20Z</time>
      </trkpt>
      <trkpt lat="47.57113" lon="6.70707">
        <ele>442</ele>
        <time>2014-04-13T10:58:21Z</time>
      </trkpt>
      <trkpt lat="47.57126" lon="6.70718">
        <ele>442</ele>
        <time>2014-04-13T10:58:27Z</time>
      </trkpt>
      <trkpt lat="47.57132" lon="6.70722">
        <ele>442</ele>
        <time>2014-04-13T10:58:29Z</time>
      </trkpt>
      <trkpt lat="47.57135" lon="6.70724">
        <ele>443</ele>
        <time>2014-04-13T10:58:30Z</time>
      </trkpt>
      <trkpt lat="47.57138" lon="6.70725">
        <ele>443</ele>
        <time>2014-04-13T10:58:31Z</time>
      </trkpt>
      <trkpt lat="47.5714" lon="6.70726">
        <ele>444</ele>
        <time>2014-04-13T10:58:32Z</time>
      </trkpt>
      <trkpt lat="47.57143" lon="6.70727">
        <ele>444</ele>
        <time>2014-04-13T10:58:33Z</time>
      </trkpt>
      <trkpt lat="47.57147" lon="6.70729">
        <ele>444</ele>
        <time>2014-04-13T10:58:35Z</time>
      </trkpt>
      <trkpt lat="47.57149" lon="6.70731">
        <ele>445</ele>
        <time>2014-04-13T10:58:36Z</time>
      </trkpt>
      <trkpt lat="47.57151" lon="6.70732">
        <ele>445</ele>
        <time>2014-04-13T10:58:37Z</time>
      </trkpt>
      <trkpt lat="47.57153" lon="6.70734">
        <ele>446</ele>
        <time>2014-04-13T10:58:38Z</time>
      </trkpt>
      <trkpt lat="47.57155" lon="6.70736">
        <ele>446</ele>
        <time>2014-04-13T10:58:39Z</time>
      </trkpt>
      <trkpt lat="47.57158" lon="6.70737">
        <ele>446</ele>
        <time>2014-04-13T10:58:40Z</time>
      </trkpt>
      <trkpt lat="47.57166" lon="6.70745">
        <ele>447</ele>
        <time>2014-04-13T10:58:44Z</time>
      </trkpt>
      <trkpt lat="47.57168" lon="6.70747">
        <ele>447</ele>
        <time>2014-04-13T10:58:45Z</time>
      </trkpt>
      <trkpt lat="47.5717" lon="6.70749">
        <ele>448</ele>
        <time>2014-04-13T10:58:46Z</time>
      </trkpt>
      <trkpt lat="47.57171" lon="6.70751">
        <ele>448</ele>
        <time>2014-04-13T10:58:47Z</time>
      </trkpt>
      <trkpt lat="47.57173" lon="6.70753">
        <ele>449</ele>
        <time>2014-04-13T10:58:48Z</time>
      </trkpt>
      <trkpt lat="47.57181" lon="6.70757">
        <ele>449</ele>
        <time>2014-04-13T10:58:51Z</time>
      </trkpt>
      <trkpt lat="47.57188" lon="6.70764">
        <ele>449</ele>
        <time>2014-04-13T10:58:54Z</time>
      </trkpt>
      <trkpt lat="47.5719" lon="6.70766">
        <ele>449</ele>
        <time>2014-04-13T10:58:55Z</time>
      </trkpt>
      <trkpt lat="47.57192" lon="6.70768">
        <ele>450</ele>
        <time>2014-04-13T10:58:56Z</time>
      </trkpt>
      <trkpt lat="47.57194" lon="6.7077">
        <ele>450</ele>
        <time>2014-04-13T10:58:57Z</time>
      </trkpt>
      <trkpt lat="47.57197" lon="6.70772">
        <ele>451</ele>
        <time>2014-04-13T10:58:58Z</time>
      </trkpt>
      <trkpt lat="47.57203" lon="6.7078">
        <ele>451</ele>
        <time>2014-04-13T10:59:01Z</time>
      </trkpt>
      <trkpt lat="47.57206" lon="6.70783">
        <ele>451</ele>
        <time>2014-04-13T10:59:02Z</time>
      </trkpt>
      <trkpt lat="47.57208" lon="6.70784">
        <ele>452</ele>
        <time>2014-04-13T10:59:03Z</time>
      </trkpt>
      <trkpt lat="47.5721" lon="6.70787">
        <ele>452</ele>
        <time>2014-04-13T10:59:04Z</time>
      </trkpt>
      <trkpt lat="47.57213" lon="6.7079">
        <ele>453</ele>
        <time>2014-04-13T10:59:05Z</time>
      </trkpt>
      <trkpt lat="47.57225" lon="6.70803">
        <ele>453</ele>
        <time>2014-04-13T10:59:09Z</time>
      </trkpt>
      <trkpt lat="47.5723" lon="6.7081">
        <ele>453</ele>
        <time>2014-04-13T10:59:11Z</time>
      </trkpt>
      <trkpt lat="47.57232" lon="6.70812">
        <ele>454</ele>
        <time>2014-04-13T10:59:12Z</time>
      </trkpt>
      <trkpt lat="47.57234" lon="6.70814">
        <ele>454</ele>
        <time>2014-04-13T10:59:13Z</time>
      </trkpt>
      <trkpt lat="47.57236" lon="6.70816">
        <ele>454</ele>
        <time>2014-04-13T10:59:14Z</time>
      </trkpt>
      <trkpt lat="47.57239" lon="6.70819">
        <ele>455</ele>
        <time>2014-04-13T10:59:15Z</time>
      </trkpt>
      <trkpt lat="47.5725" lon="6.70827">
        <ele>455</ele>
        <time>2014-04-13T10:59:19Z</time>
      </trkpt>
      <trkpt lat="47.57252" lon="6.70829">
        <ele>456</ele>
        <time>2014-04-13T10:59:20Z</time>
      </trkpt>
      <trkpt lat="47.57254" lon="6.70831">
        <ele>456</ele>
        <time>2014-04-13T10:59:21Z</time>
      </trkpt>
      <trkpt lat="47.57257" lon="6.70834">
        <ele>456</ele>
        <time>2014-04-13T10:59:22Z</time>
      </trkpt>
      <trkpt lat="47.5726" lon="6.70836">
        <ele>457</ele>
        <time>2014-04-13T10:59:23Z</time>
      </trkpt>
      <trkpt lat="47.57265" lon="6.70843">
        <ele>457</ele>
        <time>2014-04-13T10:59:25Z</time>
      </trkpt>
      <trkpt lat="47.57266" lon="6.70844">
        <ele>457</ele>
        <time>2014-04-13T10:59:26Z</time>
      </trkpt>
      <trkpt lat="47.5727" lon="6.70846">
        <ele>457</ele>
        <time>2014-04-13T10:59:28Z</time>
      </trkpt>
      <trkpt lat="47.57274" lon="6.70849">
        <ele>457</ele>
        <time>2014-04-13T10:59:30Z</time>
      </trkpt>
      <trkpt lat="47.57276" lon="6.70851">
        <ele>458</ele>
        <time>2014-04-13T10:59:31Z</time>
      </trkpt>
      <trkpt lat="47.57277" lon="6.70853">
        <ele>458</ele>
        <time>2014-04-13T10:59:32Z</time>
      </trkpt>
      <trkpt lat="47.5728" lon="6.70856">
        <ele>459</ele>
        <time>2014-04-13T10:59:33Z</time>
      </trkpt>
      <trkpt lat="47.57282" lon="6.70858">
        <ele>459</ele>
        <time>2014-04-13T10:59:34Z</time>
      </trkpt>
      <trkpt lat="47.57297" lon="6.70871">
        <ele>459</ele>
        <time>2014-04-13T10:59:39Z</time>
      </trkpt>
      <trkpt lat="47.57301" lon="6.70876">
        <ele>459</ele>
        <time>2014-04-13T10:59:41Z</time>
      </trkpt>
      <trkpt lat="47.57304" lon="6.70878">
        <ele>460</ele>
        <time>2014-04-13T10:59:42Z</time>
      </trkpt>
      <trkpt lat="47.57306" lon="6.7088">
        <ele>460</ele>
        <time>2014-04-13T10:59:43Z</time>
      </trkpt>
      <trkpt lat="47.57308" lon="6.70882">
        <ele>461</ele>
        <time>2014-04-13T10:59:44Z</time>
      </trkpt>
      <trkpt lat="47.5731" lon="6.70884">
        <ele>461</ele>
        <time>2014-04-13T10:59:45Z</time>
      </trkpt>
      <trkpt lat="47.57327" lon="6.70897">
        <ele>461</ele>
        <time>2014-04-13T10:59:51Z</time>
      </trkpt>
      <trkpt lat="47.5733" lon="6.709">
        <ele>461</ele>
        <time>2014-04-13T10:59:52Z</time>
      </trkpt>
      <trkpt lat="47.57339" lon="6.70912">
        <ele>461</ele>
        <time>2014-04-13T10:59:55Z</time>
      </trkpt>
      <trkpt lat="47.57343" lon="6.70916">
        <ele>461</ele>
        <time>2014-04-13T10:59:56Z</time>
      </trkpt>
      <trkpt lat="47.5736" lon="6.70933">
        <ele>461</ele>
        <time>2014-04-13T11:00:01Z</time>
      </trkpt>
      <trkpt lat="47.57394" lon="6.70967">
        <ele>461</ele>
        <time>2014-04-13T11:00:07Z</time>
      </trkpt>
      <trkpt lat="47.57401" lon="6.70975">
        <ele>461</ele>
        <time>2014-04-13T11:00:08Z</time>
      </trkpt>
      <trkpt lat="47.57412" lon="6.70988">
        <ele>460</ele>
        <time>2014-04-13T11:00:10Z</time>
      </trkpt>
      <trkpt lat="47.57419" lon="6.70995">
        <ele>460</ele>
        <time>2014-04-13T11:00:11Z</time>
      </trkpt>
      <trkpt lat="47.57426" lon="6.71001">
        <ele>459</ele>
        <time>2014-04-13T11:00:12Z</time>
      </trkpt>
      <trkpt lat="47.57432" lon="6.71006">
        <ele>458</ele>
        <time>2014-04-13T11:00:13Z</time>
      </trkpt>
      <trkpt lat="47.57439" lon="6.71013">
        <ele>456</ele>
        <time>2014-04-13T11:00:14Z</time>
      </trkpt>
      <trkpt lat="47.57443" lon="6.71019">
        <ele>455</ele>
        <time>2014-04-13T11:00:15Z</time>
      </trkpt>
      <trkpt lat="47.57449" lon="6.71026">
        <ele>452</ele>
        <time>2014-04-13T11:00:16Z</time>
      </trkpt>
      <trkpt lat="47.57452" lon="6.71034">
        <ele>451</ele>
        <time>2014-04-13T11:00:17Z</time>
      </trkpt>
      <trkpt lat="47.57453" lon="6.71041">
        <ele>449</ele>
        <time>2014-04-13T11:00:18Z</time>
      </trkpt>
      <trkpt lat="47.57456" lon="6.7105">
        <ele>448</ele>
        <time>2014-04-13T11:00:19Z</time>
      </trkpt>
      <trkpt lat="47.57458" lon="6.71058">
        <ele>447</ele>
        <time>2014-04-13T11:00:20Z</time>
      </trkpt>
      <trkpt lat="47.5746" lon="6.71067">
        <ele>446</ele>
        <time>2014-04-13T11:00:21Z</time>
      </trkpt>
      <trkpt lat="47.57464" lon="6.71078">
        <ele>444</ele>
        <time>2014-04-13T11:00:22Z</time>
      </trkpt>
      <trkpt lat="47.57468" lon="6.71087">
        <ele>443</ele>
        <time>2014-04-13T11:00:23Z</time>
      </trkpt>
      <trkpt lat="47.57474" lon="6.71097">
        <ele>442</ele>
        <time>2014-04-13T11:00:24Z</time>
      </trkpt>
      <trkpt lat="47.5748" lon="6.71103">
        <ele>440</ele>
        <time>2014-04-13T11:00:25Z</time>
      </trkpt>
      <trkpt lat="47.57487" lon="6.71109">
        <ele>439</ele>
        <time>2014-04-13T11:00:26Z</time>
      </trkpt>
      <trkpt lat="47.5749" lon="6.71116">
        <ele>438</ele>
        <time>2014-04-13T11:00:27Z</time>
      </trkpt>
      <trkpt lat="47.5749" lon="6.71124">
        <ele>437</ele>
        <time>2014-04-13T11:00:28Z</time>
      </trkpt>
      <trkpt lat="47.5749" lon="6.71134">
        <ele>436</ele>
        <time>2014-04-13T11:00:29Z</time>
      </trkpt>
      <trkpt lat="47.57489" lon="6.71142">
        <ele>435</ele>
        <time>2014-04-13T11:00:30Z</time>
      </trkpt>
      <trkpt lat="47.57486" lon="6.71149">
        <ele>435</ele>
        <time>2014-04-13T11:00:31Z</time>
      </trkpt>
      <trkpt lat="47.57484" lon="6.71156">
        <ele>434</ele>
        <time>2014-04-13T11:00:32Z</time>
      </trkpt>
      <trkpt lat="47.57479" lon="6.71174">
        <ele>434</ele>
        <time>2014-04-13T11:00:35Z</time>
      </trkpt>
      <trkpt lat="47.57478" lon="6.7118">
        <ele>434</ele>
        <time>2014-04-13T11:00:36Z</time>
      </trkpt>
      <trkpt lat="47.57476" lon="6.71205">
        <ele>434</ele>
        <time>2014-04-13T11:00:39Z</time>
      </trkpt>
      <trkpt lat="47.57473" lon="6.71226">
        <ele>434</ele>
        <time>2014-04-13T11:00:41Z</time>
      </trkpt>
      <trkpt lat="47.57471" lon="6.71235">
        <ele>433</ele>
        <time>2014-04-13T11:00:42Z</time>
      </trkpt>
      <trkpt lat="47.57469" lon="6.71244">
        <ele>433</ele>
        <time>2014-04-13T11:00:43Z</time>
      </trkpt>
      <trkpt lat="47.57466" lon="6.71254">
        <ele>432</ele>
        <time>2014-04-13T11:00:44Z</time>
      </trkpt>
      <trkpt lat="47.57466" lon="6.71264">
        <ele>432</ele>
        <time>2014-04-13T11:00:45Z</time>
      </trkpt>
      <trkpt lat="47.57474" lon="6.71292">
        <ele>432</ele>
        <time>2014-04-13T11:00:48Z</time>
      </trkpt>
      <trkpt lat="47.57479" lon="6.713">
        <ele>431</ele>
        <time>2014-04-13T11:00:49Z</time>
      </trkpt>
      <trkpt lat="47.57483" lon="6.71307">
        <ele>431</ele>
        <time>2014-04-13T11:00:50Z</time>
      </trkpt>
      <trkpt lat="47.57488" lon="6.71314">
        <ele>430</ele>
        <time>2014-04-13T11:00:51Z</time>
      </trkpt>
      <trkpt lat="47.57493" lon="6.71321">
        <ele>430</ele>
        <time>2014-04-13T11:00:52Z</time>
      </trkpt>
      <trkpt lat="47.57499" lon="6.71327">
        <ele>430</ele>
        <time>2014-04-13T11:00:53Z</time>
      </trkpt>
      <trkpt lat="47.57506" lon="6.71333">
        <ele>429</ele>
        <time>2014-04-13T11:00:54Z</time>
      </trkpt>
      <trkpt lat="47.57511" lon="6.71339">
        <ele>428</ele>
        <time>2014-04-13T11:00:55Z</time>
      </trkpt>
      <trkpt lat="47.57516" lon="6.71349">
        <ele>427</ele>
        <time>2014-04-13T11:00:56Z</time>
      </trkpt>
      <trkpt lat="47.57519" lon="6.71361">
        <ele>427</ele>
        <time>2014-04-13T11:00:57Z</time>
      </trkpt>
      <trkpt lat="47.57521" lon="6.71373">
        <ele>426</ele>
        <time>2014-04-13T11:00:58Z</time>
      </trkpt>
      <trkpt lat="47.57521" lon="6.71384">
        <ele>425</ele>
        <time>2014-04-13T11:00:59Z</time>
      </trkpt>
      <trkpt lat="47.57521" lon="6.71394">
        <ele>424</ele>
        <time>2014-04-13T11:01:00Z</time>
      </trkpt>
      <trkpt lat="47.57521" lon="6.71405">
        <ele>424</ele>
        <time>2014-04-13T11:01:01Z</time>
      </trkpt>
      <trkpt lat="47.57521" lon="6.71414">
        <ele>424</ele>
        <time>2014-04-13T11:01:02Z</time>
      </trkpt>
      <trkpt lat="47.57521" lon="6.71429">
        <ele>424</ele>
        <time>2014-04-13T11:01:04Z</time>
      </trkpt>
      <trkpt lat="47.5752" lon="6.71436">
        <ele>424</ele>
        <time>2014-04-13T11:01:05Z</time>
      </trkpt>
      <trkpt lat="47.57518" lon="6.71461">
        <ele>424</ele>
        <time>2014-04-13T11:01:09Z</time>
      </trkpt>
      <trkpt lat="47.57516" lon="6.71472">
        <ele>424</ele>
        <time>2014-04-13T11:01:11Z</time>
      </trkpt>
      <trkpt lat="47.57514" lon="6.71486">
        <ele>424</ele>
        <time>2014-04-13T11:01:13Z</time>
      </trkpt>
      <trkpt lat="47.57511" lon="6.71506">
        <ele>424</ele>
        <time>2014-04-13T11:01:16Z</time>
      </trkpt>
      <trkpt lat="47.57512" lon="6.71528">
        <ele>424</ele>
        <time>2014-04-13T11:01:20Z</time>
      </trkpt>
      <trkpt lat="47.57513" lon="6.71534">
        <ele>424</ele>
        <time>2014-04-13T11:01:21Z</time>
      </trkpt>
      <trkpt lat="47.57515" lon="6.71546">
        <ele>424</ele>
        <time>2014-04-13T11:01:24Z</time>
      </trkpt>
      <trkpt lat="47.57516" lon="6.71549">
        <ele>424</ele>
        <time>2014-04-13T11:01:25Z</time>
      </trkpt>
      <trkpt lat="47.57519" lon="6.71546">
        <ele>424</ele>
        <time>2014-04-13T11:01:27Z</time>
      </trkpt>
      <trkpt lat="47.57522" lon="6.71538">
        <ele>424</ele>
        <time>2014-04-13T11:01:29Z</time>
      </trkpt>
      <trkpt lat="47.57527" lon="6.71527">
        <ele>424</ele>
        <time>2014-04-13T11:01:31Z</time>
      </trkpt>
      <trkpt lat="47.57534" lon="6.71513">
        <ele>424</ele>
        <time>2014-04-13T11:01:34Z</time>
      </trkpt>
      <trkpt lat="47.57536" lon="6.71508">
        <ele>424</ele>
        <time>2014-04-13T11:01:35Z</time>
      </trkpt>
      <trkpt lat="47.57538" lon="6.71503">
        <ele>425</ele>
        <time>2014-04-13T11:01:36Z</time>
      </trkpt>
      <trkpt lat="47.57541" lon="6.715">
        <ele>425</ele>
        <time>2014-04-13T11:01:37Z</time>
      </trkpt>
      <trkpt lat="47.57544" lon="6.71497">
        <ele>426</ele>
        <time>2014-04-13T11:01:38Z</time>
      </trkpt>
      <trkpt lat="47.57547" lon="6.71496">
        <ele>426</ele>
        <time>2014-04-13T11:01:39Z</time>
      </trkpt>
      <trkpt lat="47.5755" lon="6.71496">
        <ele>426</ele>
        <time>2014-04-13T11:01:40Z</time>
      </trkpt>
      <trkpt lat="47.57557" lon="6.71495">
        <ele>426</ele>
        <time>2014-04-13T11:01:42Z</time>
      </trkpt>
      <trkpt lat="47.5756" lon="6.71495">
        <ele>427</ele>
        <time>2014-04-13T11:01:43Z</time>
      </trkpt>
      <trkpt lat="47.57563" lon="6.71496">
        <ele>427</ele>
        <time>2014-04-13T11:01:44Z</time>
      </trkpt>
      <trkpt lat="47.57565" lon="6.71497">
        <ele>428</ele>
        <time>2014-04-13T11:01:45Z</time>
      </trkpt>
      <trkpt lat="47.57568" lon="6.71497">
        <ele>428</ele>
        <time>2014-04-13T11:01:46Z</time>
      </trkpt>
      <trkpt lat="47.57577" lon="6.715">
        <ele>429</ele>
        <time>2014-04-13T11:01:49Z</time>
      </trkpt>
      <trkpt lat="47.5758" lon="6.71501">
        <ele>429</ele>
        <time>2014-04-13T11:01:50Z</time>
      </trkpt>
      <trkpt lat="47.57583" lon="6.71502">
        <ele>430</ele>
        <time>2014-04-13T11:01:51Z</time>
      </trkpt>
      <trkpt lat="47.57587" lon="6.71503">
        <ele>430</ele>
        <time>2014-04-13T11:01:52Z</time>
      </trkpt>
      <trkpt lat="47.5759" lon="6.71503">
        <ele>430</ele>
        <time>2014-04-13T11:01:53Z</time>
      </trkpt>
      <trkpt lat="47.57608" lon="6.71506">
        <ele>431</ele>
        <time>2014-04-13T11:01:58Z</time>
      </trkpt>
      <trkpt lat="47.57611" lon="6.71507">
        <ele>431</ele>
        <time>2014-04-13T11:01:59Z</time>
      </trkpt>
      <trkpt lat="47.57613" lon="6.71508">
        <ele>432</ele>
        <time>2014-04-13T11:02:00Z</time>
      </trkpt>
      <trkpt lat="47.57616" lon="6.71509">
        <ele>432</ele>
        <time>2014-04-13T11:02:01Z</time>
      </trkpt>
      <trkpt lat="47.57619" lon="6.71511">
        <ele>433</ele>
        <time>2014-04-13T11:02:02Z</time>
      </trkpt>
      <trkpt lat="47.5763" lon="6.71513">
        <ele>433</ele>
        <time>2014-04-13T11:02:06Z</time>
      </trkpt>
      <trkpt lat="47.57633" lon="6.71514">
        <ele>434</ele>
        <time>2014-04-13T11:02:07Z</time>
      </trkpt>
      <trkpt lat="47.57635" lon="6.71515">
        <ele>434</ele>
        <time>2014-04-13T11:02:08Z</time>
      </trkpt>
      <trkpt lat="47.57637" lon="6.71515">
        <ele>435</ele>
        <time>2014-04-13T11:02:09Z</time>
      </trkpt>
      <trkpt lat="47.57639" lon="6.71516">
        <ele>435</ele>
        <time>2014-04-13T11:02:10Z</time>
      </trkpt>
      <trkpt lat="47.57643" lon="6.71518">
        <ele>435</ele>
        <time>2014-04-13T11:02:12Z</time>
      </trkpt>
      <trkpt lat="47.57651" lon="6.71519">
        <ele>435</ele>
        <time>2014-04-13T11:02:15Z</time>
      </trkpt>
      <trkpt lat="47.57654" lon="6.71518">
        <ele>436</ele>
        <time>2014-04-13T11:02:16Z</time>
      </trkpt>
      <trkpt lat="47.57658" lon="6.71518">
        <ele>436</ele>
        <time>2014-04-13T11:02:17Z</time>
      </trkpt>
      <trkpt lat="47.57661" lon="6.71518">
        <ele>437</ele>
        <time>2014-04-13T11:02:18Z</time>
      </trkpt>
      <trkpt lat="47.57663" lon="6.7152">
        <ele>437</ele>
        <time>2014-04-13T11:02:19Z</time>
      </trkpt>
      <trkpt lat="47.57674" lon="6.7153">
        <ele>437</ele>
        <time>2014-04-13T11:02:23Z</time>
      </trkpt>
      <trkpt lat="47.57677" lon="6.71533">
        <ele>437</ele>
        <time>2014-04-13T11:02:24Z</time>
      </trkpt>
      <trkpt lat="47.57679" lon="6.71536">
        <ele>438</ele>
        <time>2014-04-13T11:02:25Z</time>
      </trkpt>
      <trkpt lat="47.57682" lon="6.7154">
        <ele>438</ele>
        <time>2014-04-13T11:02:26Z</time>
      </trkpt>
      <trkpt lat="47.57684" lon="6.71543">
        <ele>439</ele>
        <time>2014-04-13T11:02:27Z</time>
      </trkpt>
      <trkpt lat="47.57686" lon="6.71546">
        <ele>439</ele>
        <time>2014-04-13T11:02:28Z</time>
      </trkpt>
      <trkpt lat="47.57696" lon="6.71565">
        <ele>439</ele>
        <time>2014-04-13T11:02:33Z</time>
      </trkpt>
      <trkpt lat="47.577" lon="6.71572">
        <ele>440</ele>
        <time>2014-04-13T11:02:35Z</time>
      </trkpt>
      <trkpt lat="47.57702" lon="6.71575">
        <ele>440</ele>
        <time>2014-04-13T11:02:36Z</time>
      </trkpt>
      <trkpt lat="47.57705" lon="6.71578">
        <ele>440</ele>
        <time>2014-04-13T11:02:37Z</time>
      </trkpt>
      <trkpt lat="47.57707" lon="6.71582">
        <ele>441</ele>
        <time>2014-04-13T11:02:38Z</time>
      </trkpt>
      <trkpt lat="47.57708" lon="6.71586">
        <ele>441</ele>
        <time>2014-04-13T11:02:39Z</time>
      </trkpt>
      <trkpt lat="47.57715" lon="6.71599">
        <ele>442</ele>
        <time>2014-04-13T11:02:43Z</time>
      </trkpt>
      <trkpt lat="47.57716" lon="6.71603">
        <ele>442</ele>
        <time>2014-04-13T11:02:44Z</time>
      </trkpt>
      <trkpt lat="47.57717" lon="6.71607">
        <ele>442</ele>
        <time>2014-04-13T11:02:45Z</time>
      </trkpt>
      <trkpt lat="47.57719" lon="6.7161">
        <ele>443</ele>
        <time>2014-04-13T11:02:46Z</time>
      </trkpt>
      <trkpt lat="47.5772" lon="6.71613">
        <ele>443</ele>
        <time>2014-04-13T11:02:47Z</time>
      </trkpt>
      <trkpt lat="47.57723" lon="6.71619">
        <ele>443</ele>
        <time>2014-04-13T11:02:49Z</time>
      </trkpt>
      <trkpt lat="47.57729" lon="6.71633">
        <ele>444</ele>
        <time>2014-04-13T11:02:53Z</time>
      </trkpt>
      <trkpt lat="47.57731" lon="6.71636">
        <ele>444</ele>
        <time>2014-04-13T11:02:54Z</time>
      </trkpt>
      <trkpt lat="47.57732" lon="6.7164">
        <ele>444</ele>
        <time>2014-04-13T11:02:55Z</time>
      </trkpt>
      <trkpt lat="47.57734" lon="6.71643">
        <ele>445</ele>
        <time>2014-04-13T11:02:56Z</time>
      </trkpt>
      <trkpt lat="47.57736" lon="6.71648">
        <ele>445</ele>
        <time>2014-04-13T11:02:57Z</time>
      </trkpt>
      <trkpt lat="47.5774" lon="6.7166">
        <ele>445</ele>
        <time>2014-04-13T11:03:00Z</time>
      </trkpt>
      <trkpt lat="47.57747" lon="6.71688">
        <ele>445</ele>
        <time>2014-04-13T11:03:06Z</time>
      </trkpt>
      <trkpt lat="47.57753" lon="6.71708">
        <ele>446</ele>
        <time>2014-04-13T11:03:10Z</time>
      </trkpt>
      <trkpt lat="47.57754" lon="6.71712">
        <ele>446</ele>
        <time>2014-04-13T11:03:11Z</time>
      </trkpt>
      <trkpt lat="47.57756" lon="6.71717">
        <ele>447</ele>
        <time>2014-04-13T11:03:12Z</time>
      </trkpt>
      <trkpt lat="47.57757" lon="6.71721">
        <ele>447</ele>
        <time>2014-04-13T11:03:13Z</time>
      </trkpt>
      <trkpt lat="47.57759" lon="6.71725">
        <ele>447</ele>
        <time>2014-04-13T11:03:14Z</time>
      </trkpt>
      <trkpt lat="47.57768" lon="6.7174">
        <ele>447</ele>
        <time>2014-04-13T11:03:19Z</time>
      </trkpt>
      <trkpt lat="47.57775" lon="6.71749">
        <ele>448</ele>
        <time>2014-04-13T11:03:22Z</time>
      </trkpt>
      <trkpt lat="47.57777" lon="6.71753">
        <ele>448</ele>
        <time>2014-04-13T11:03:23Z</time>
      </trkpt>
      <trkpt lat="47.57779" lon="6.71755">
        <ele>449</ele>
        <time>2014-04-13T11:03:24Z</time>
      </trkpt>
      <trkpt lat="47.57782" lon="6.71757">
        <ele>449</ele>
        <time>2014-04-13T11:03:25Z</time>
      </trkpt>
      <trkpt lat="47.57784" lon="6.7176">
        <ele>450</ele>
        <time>2014-04-13T11:03:26Z</time>
      </trkpt>
      <trkpt lat="47.57791" lon="6.71768">
        <ele>450</ele>
        <time>2014-04-13T11:03:29Z</time>
      </trkpt>
      <trkpt lat="47.57793" lon="6.71771">
        <ele>450</ele>
        <time>2014-04-13T11:03:30Z</time>
      </trkpt>
      <trkpt lat="47.57795" lon="6.71773">
        <ele>451</ele>
        <time>2014-04-13T11:03:31Z</time>
      </trkpt>
      <trkpt lat="47.57798" lon="6.71777">
        <ele>451</ele>
        <time>2014-04-13T11:03:32Z</time>
      </trkpt>
      <trkpt lat="47.578" lon="6.7178">
        <ele>452</ele>
        <time>2014-04-13T11:03:33Z</time>
      </trkpt>
      <trkpt lat="47.57804" lon="6.71787">
        <ele>452</ele>
        <time>2014-04-13T11:03:35Z</time>
      </trkpt>
      <trkpt lat="47.57807" lon="6.7179">
        <ele>452</ele>
        <time>2014-04-13T11:03:36Z</time>
      </trkpt>
      <trkpt lat="47.57809" lon="6.71793">
        <ele>452</ele>
        <time>2014-04-13T11:03:37Z</time>
      </trkpt>
      <trkpt lat="47.57812" lon="6.71796">
        <ele>453</ele>
        <time>2014-04-13T11:03:38Z</time>
      </trkpt>
      <trkpt lat="47.57814" lon="6.718">
        <ele>453</ele>
        <time>2014-04-13T11:03:39Z</time>
      </trkpt>
      <trkpt lat="47.57816" lon="6.71804">
        <ele>454</ele>
        <time>2014-04-13T11:03:40Z</time>
      </trkpt>
      <trkpt lat="47.5782" lon="6.71811">
        <ele>454</ele>
        <time>2014-04-13T11:03:42Z</time>
      </trkpt>
      <trkpt lat="47.57829" lon="6.71828">
        <ele>454</ele>
        <time>2014-04-13T11:03:47Z</time>
      </trkpt>
      <trkpt lat="47.57831" lon="6.71831">
        <ele>454</ele>
        <time>2014-04-13T11:03:48Z</time>
      </trkpt>
      <trkpt lat="47.57833" lon="6.71834">
        <ele>455</ele>
        <time>2014-04-13T11:03:49Z</time>
      </trkpt>
      <trkpt lat="47.57834" lon="6.71836">
        <ele>455</ele>
        <time>2014-04-13T11:03:50Z</time>
      </trkpt>
      <trkpt lat="47.57837" lon="6.71838">
        <ele>456</ele>
        <time>2014-04-13T11:03:51Z</time>
      </trkpt>
      <trkpt lat="47.57838" lon="6.71841">
        <ele>456</ele>
        <time>2014-04-13T11:03:52Z</time>
      </trkpt>
      <trkpt lat="47.5785" lon="6.71857">
        <ele>456</ele>
        <time>2014-04-13T11:03:58Z</time>
      </trkpt>
      <trkpt lat="47.57852" lon="6.71861">
        <ele>457</ele>
        <time>2014-04-13T11:03:59Z</time>
      </trkpt>
      <trkpt lat="47.57854" lon="6.71865">
        <ele>457</ele>
        <time>2014-04-13T11:04:00Z</time>
      </trkpt>
      <trkpt lat="47.57856" lon="6.71869">
        <ele>458</ele>
        <time>2014-04-13T11:04:01Z</time>
      </trkpt>
      <trkpt lat="47.57859" lon="6.71874">
        <ele>458</ele>
        <time>2014-04-13T11:04:02Z</time>
      </trkpt>
      <trkpt lat="47.57861" lon="6.71879">
        <ele>458</ele>
        <time>2014-04-13T11:04:03Z</time>
      </trkpt>
      <trkpt lat="47.57876" lon="6.71904">
        <ele>458</ele>
        <time>2014-04-13T11:04:08Z</time>
      </trkpt>
      <trkpt lat="47.57879" lon="6.71908">
        <ele>459</ele>
        <time>2014-04-13T11:04:09Z</time>
      </trkpt>
      <trkpt lat="47.57882" lon="6.71911">
        <ele>459</ele>
        <time>2014-04-13T11:04:10Z</time>
      </trkpt>
      <trkpt lat="47.57884" lon="6.71916">
        <ele>460</ele>
        <time>2014-04-13T11:04:11Z</time>
      </trkpt>
      <trkpt lat="47.57887" lon="6.71919">
        <ele>460</ele>
        <time>2014-04-13T11:04:12Z</time>
      </trkpt>
      <trkpt lat="47.57893" lon="6.71927">
        <ele>460</ele>
        <time>2014-04-13T11:04:15Z</time>
      </trkpt>
      <trkpt lat="47.57896" lon="6.7193">
        <ele>461</ele>
        <time>2014-04-13T11:04:17Z</time>
      </trkpt>
      <trkpt lat="47.57898" lon="6.71931">
        <ele>461</ele>
        <time>2014-04-13T11:04:18Z</time>
      </trkpt>
      <trkpt lat="47.57901" lon="6.71932">
        <ele>461</ele>
        <time>2014-04-13T11:04:19Z</time>
      </trkpt>
      <trkpt lat="47.57903" lon="6.71932">
        <ele>462</ele>
        <time>2014-04-13T11:04:20Z</time>
      </trkpt>
      <trkpt lat="47.57905" lon="6.71931">
        <ele>462</ele>
        <time>2014-04-13T11:04:21Z</time>
      </trkpt>
      <trkpt lat="47.57911" lon="6.71927">
        <ele>463</ele>
        <time>2014-04-13T11:04:24Z</time>
      </trkpt>
      <trkpt lat="47.57913" lon="6.71925">
        <ele>463</ele>
        <time>2014-04-13T11:04:25Z</time>
      </trkpt>
      <trkpt lat="47.57915" lon="6.71923">
        <ele>464</ele>
        <time>2014-04-13T11:04:26Z</time>
      </trkpt>
      <trkpt lat="47.57917" lon="6.71921">
        <ele>464</ele>
        <time>2014-04-13T11:04:27Z</time>
      </trkpt>
      <trkpt lat="47.57919" lon="6.71921">
        <ele>464</ele>
        <time>2014-04-13T11:04:28Z</time>
      </trkpt>
      <trkpt lat="47.57925" lon="6.71918">
        <ele>465</ele>
        <time>2014-04-13T11:04:31Z</time>
      </trkpt>
      <trkpt lat="47.57927" lon="6.71916">
        <ele>465</ele>
        <time>2014-04-13T11:04:32Z</time>
      </trkpt>
      <trkpt lat="47.57928" lon="6.71914">
        <ele>466</ele>
        <time>2014-04-13T11:04:33Z</time>
      </trkpt>
      <trkpt lat="47.5793" lon="6.71912">
        <ele>466</ele>
        <time>2014-04-13T11:04:34Z</time>
      </trkpt>
      <trkpt lat="47.57932" lon="6.71911">
        <ele>467</ele>
        <time>2014-04-13T11:04:35Z</time>
      </trkpt>
      <trkpt lat="47.57938" lon="6.71906">
        <ele>467</ele>
        <time>2014-04-13T11:04:38Z</time>
      </trkpt>
      <trkpt lat="47.5794" lon="6.71905">
        <ele>468</ele>
        <time>2014-04-13T11:04:39Z</time>
      </trkpt>
      <trkpt lat="47.57942" lon="6.71903">
        <ele>468</ele>
        <time>2014-04-13T11:04:40Z</time>
      </trkpt>
      <trkpt lat="47.57944" lon="6.71901">
        <ele>468</ele>
        <time>2014-04-13T11:04:41Z</time>
      </trkpt>
      <trkpt lat="47.57946" lon="6.71899">
        <ele>469</ele>
        <time>2014-04-13T11:04:42Z</time>
      </trkpt>
      <trkpt lat="47.57954" lon="6.71891">
        <ele>469</ele>
        <time>2014-04-13T11:04:47Z</time>
      </trkpt>
      <trkpt lat="47.57956" lon="6.7189">
        <ele>470</ele>
        <time>2014-04-13T11:04:48Z</time>
      </trkpt>
      <trkpt lat="47.57958" lon="6.71888">
        <ele>470</ele>
        <time>2014-04-13T11:04:49Z</time>
      </trkpt>
      <trkpt lat="47.5796" lon="6.71886">
        <ele>471</ele>
        <time>2014-04-13T11:04:50Z</time>
      </trkpt>
      <trkpt lat="47.57962" lon="6.71884">
        <ele>471</ele>
        <time>2014-04-13T11:04:51Z</time>
      </trkpt>
      <trkpt lat="47.57968" lon="6.7188">
        <ele>471</ele>
        <time>2014-04-13T11:04:55Z</time>
      </trkpt>
      <trkpt lat="47.57969" lon="6.71878">
        <ele>471</ele>
        <time>2014-04-13T11:04:56Z</time>
      </trkpt>
      <trkpt lat="47.57971" lon="6.71877">
        <ele>472</ele>
        <time>2014-04-13T11:04:57Z</time>
      </trkpt>
      <trkpt lat="47.57972" lon="6.71876">
        <ele>472</ele>
        <time>2014-04-13T11:04:58Z</time>
      </trkpt>
      <trkpt lat="47.57974" lon="6.71875">
        <ele>473</ele>
        <time>2014-04-13T11:04:59Z</time>
      </trkpt>
      <trkpt lat="47.57976" lon="6.71872">
        <ele>473</ele>
        <time>2014-04-13T11:05:00Z</time>
      </trkpt>
      <trkpt lat="47.5798" lon="6.71868">
        <ele>473</ele>
        <time>2014-04-13T11:05:02Z</time>
      </trkpt>
      <trkpt lat="47.57982" lon="6.71867">
        <ele>474</ele>
        <time>2014-04-13T11:05:03Z</time>
      </trkpt>
      <trkpt lat="47.57983" lon="6.71865">
        <ele>474</ele>
        <time>2014-04-13T11:05:04Z</time>
      </trkpt>
      <trkpt lat="47.57984" lon="6.71864">
        <ele>474</ele>
        <time>2014-04-13T11:05:05Z</time>
      </trkpt>
      <trkpt lat="47.57986" lon="6.71863">
        <ele>475</ele>
        <time>2014-04-13T11:05:06Z</time>
      </trkpt>
      <trkpt lat="47.57987" lon="6.71861">
        <ele>475</ele>
        <time>2014-04-13T11:05:07Z</time>
      </trkpt>
      <trkpt lat="47.57989" lon="6.7186">
        <ele>475</ele>
        <time>2014-04-13T11:05:08Z</time>
      </trkpt>
      <trkpt lat="47.57995" lon="6.71856">
        <ele>476</ele>
        <time>2014-04-13T11:05:11Z</time>
      </trkpt>
      <trkpt lat="47.57997" lon="6.71853">
        <ele>477</ele>
        <time>2014-04-13T11:05:12Z</time>
      </trkpt>
      <trkpt lat="47.57999" lon="6.71852">
        <ele>477</ele>
        <time>2014-04-13T11:05:13Z</time>
      </trkpt>
      <trkpt lat="47.58" lon="6.7185">
        <ele>477</ele>
        <time>2014-04-13T11:05:14Z</time>
      </trkpt>
      <trkpt lat="47.58002" lon="6.71847">
        <ele>477</ele>
        <time>2014-04-13T11:05:15Z</time>
      </trkpt>
      <trkpt lat="47.58007" lon="6.71842">
        <ele>478</ele>
        <time>2014-04-13T11:05:18Z</time>
      </trkpt>
      <trkpt lat="47.58008" lon="6.71841">
        <ele>478</ele>
        <time>2014-04-13T11:05:19Z</time>
      </trkpt>
      <trkpt lat="47.5801" lon="6.71841">
        <ele>479</ele>
        <time>2014-04-13T11:05:20Z</time>
      </trkpt>
      <trkpt lat="47.58012" lon="6.7184">
        <ele>479</ele>
        <time>2014-04-13T11:05:21Z</time>
      </trkpt>
      <trkpt lat="47.58013" lon="6.71839">
        <ele>480</ele>
        <time>2014-04-13T11:05:22Z</time>
      </trkpt>
      <trkpt lat="47.58022" lon="6.71831">
        <ele>480</ele>
        <time>2014-04-13T11:05:27Z</time>
      </trkpt>
      <trkpt lat="47.58024" lon="6.7183">
        <ele>480</ele>
        <time>2014-04-13T11:05:28Z</time>
      </trkpt>
      <trkpt lat="47.58026" lon="6.7183">
        <ele>481</ele>
        <time>2014-04-13T11:05:29Z</time>
      </trkpt>
      <trkpt lat="47.58027" lon="6.71829">
        <ele>481</ele>
        <time>2014-04-13T11:05:30Z</time>
      </trkpt>
      <trkpt lat="47.58029" lon="6.71827">
        <ele>481</ele>
        <time>2014-04-13T11:05:31Z</time>
      </trkpt>
      <trkpt lat="47.58031" lon="6.71825">
        <ele>482</ele>
        <time>2014-04-13T11:05:32Z</time>
      </trkpt>
      <trkpt lat="47.58032" lon="6.71823">
        <ele>482</ele>
        <time>2014-04-13T11:05:33Z</time>
      </trkpt>
      <trkpt lat="47.58035" lon="6.7182">
        <ele>482</ele>
        <time>2014-04-13T11:05:35Z</time>
      </trkpt>
      <trkpt lat="47.58036" lon="6.71819">
        <ele>483</ele>
        <time>2014-04-13T11:05:36Z</time>
      </trkpt>
      <trkpt lat="47.58037" lon="6.71818">
        <ele>483</ele>
        <time>2014-04-13T11:05:37Z</time>
      </trkpt>
      <trkpt lat="47.58038" lon="6.71817">
        <ele>484</ele>
        <time>2014-04-13T11:05:38Z</time>
      </trkpt>
      <trkpt lat="47.58039" lon="6.71816">
        <ele>484</ele>
        <time>2014-04-13T11:05:39Z</time>
      </trkpt>
      <trkpt lat="47.5804" lon="6.71815">
        <ele>484</ele>
        <time>2014-04-13T11:05:40Z</time>
      </trkpt>
      <trkpt lat="47.58048" lon="6.71807">
        <ele>484</ele>
        <time>2014-04-13T11:05:44Z</time>
      </trkpt>
      <trkpt lat="47.58051" lon="6.71806">
        <ele>484</ele>
        <time>2014-04-13T11:05:45Z</time>
      </trkpt>
      <trkpt lat="47.58059" lon="6.718">
        <ele>484</ele>
        <time>2014-04-13T11:05:48Z</time>
      </trkpt>
      <trkpt lat="47.58062" lon="6.71798">
        <ele>485</ele>
        <time>2014-04-13T11:05:49Z</time>
      </trkpt>
      <trkpt lat="47.58064" lon="6.71795">
        <ele>485</ele>
        <time>2014-04-13T11:05:50Z</time>
      </trkpt>
      <trkpt lat="47.58067" lon="6.71793">
        <ele>486</ele>
        <time>2014-04-13T11:05:51Z</time>
      </trkpt>
      <trkpt lat="47.58069" lon="6.7179">
        <ele>486</ele>
        <time>2014-04-13T11:05:52Z</time>
      </trkpt>
      <trkpt lat="47.58077" lon="6.71785">
        <ele>487</ele>
        <time>2014-04-13T11:05:55Z</time>
      </trkpt>
      <trkpt lat="47.5808" lon="6.71784">
        <ele>487</ele>
        <time>2014-04-13T11:05:56Z</time>
      </trkpt>
      <trkpt lat="47.58082" lon="6.71782">
        <ele>487</ele>
        <time>2014-04-13T11:05:57Z</time>
      </trkpt>
      <trkpt lat="47.58084" lon="6.7178">
        <ele>488</ele>
        <time>2014-04-13T11:05:58Z</time>
      </trkpt>
      <trkpt lat="47.58086" lon="6.71777">
        <ele>488</ele>
        <time>2014-04-13T11:05:59Z</time>
      </trkpt>
      <trkpt lat="47.5809" lon="6.71773">
        <ele>488</ele>
        <time>2014-04-13T11:06:01Z</time>
      </trkpt>
      <trkpt lat="47.58092" lon="6.71772">
        <ele>489</ele>
        <time>2014-04-13T11:06:02Z</time>
      </trkpt>
      <trkpt lat="47.58094" lon="6.71771">
        <ele>489</ele>
        <time>2014-04-13T11:06:03Z</time>
      </trkpt>
      <trkpt lat="47.58095" lon="6.7177">
        <ele>489</ele>
        <time>2014-04-13T11:06:04Z</time>
      </trkpt>
      <trkpt lat="47.58096" lon="6.71769">
        <ele>490</ele>
        <time>2014-04-13T11:06:05Z</time>
      </trkpt>
      <trkpt lat="47.58098" lon="6.71768">
        <ele>490</ele>
        <time>2014-04-13T11:06:06Z</time>
      </trkpt>
      <trkpt lat="47.58108" lon="6.71765">
        <ele>490</ele>
        <time>2014-04-13T11:06:11Z</time>
      </trkpt>
      <trkpt lat="47.5811" lon="6.71766">
        <ele>490</ele>
        <time>2014-04-13T11:06:12Z</time>
      </trkpt>
      <trkpt lat="47.58111" lon="6.71769">
        <ele>491</ele>
        <time>2014-04-13T11:06:13Z</time>
      </trkpt>
      <trkpt lat="47.58113" lon="6.71771">
        <ele>491</ele>
        <time>2014-04-13T11:06:14Z</time>
      </trkpt>
      <trkpt lat="47.58115" lon="6.71773">
        <ele>492</ele>
        <time>2014-04-13T11:06:15Z</time>
      </trkpt>
      <trkpt lat="47.58118" lon="6.71775">
        <ele>492</ele>
        <time>2014-04-13T11:06:16Z</time>
      </trkpt>
      <trkpt lat="47.5812" lon="6.71776">
        <ele>493</ele>
        <time>2014-04-13T11:06:17Z</time>
      </trkpt>
      <trkpt lat="47.58129" lon="6.7178">
        <ele>493</ele>
        <time>2014-04-13T11:06:22Z</time>
      </trkpt>
      <trkpt lat="47.5813" lon="6.71781">
        <ele>493</ele>
        <time>2014-04-13T11:06:23Z</time>
      </trkpt>
      <trkpt lat="47.58132" lon="6.71782">
        <ele>494</ele>
        <time>2014-04-13T11:06:24Z</time>
      </trkpt>
      <trkpt lat="47.58134" lon="6.71783">
        <ele>495</ele>
        <time>2014-04-13T11:06:25Z</time>
      </trkpt>
      <trkpt lat="47.58139" lon="6.71788">
        <ele>495</ele>
        <time>2014-04-13T11:06:28Z</time>
      </trkpt>
      <trkpt lat="47.5814" lon="6.7179">
        <ele>495</ele>
        <time>2014-04-13T11:06:29Z</time>
      </trkpt>
      <trkpt lat="47.58142" lon="6.71791">
        <ele>495</ele>
        <time>2014-04-13T11:06:30Z</time>
      </trkpt>
      <trkpt lat="47.58143" lon="6.71792">
        <ele>496</ele>
        <time>2014-04-13T11:06:31Z</time>
      </trkpt>
      <trkpt lat="47.58144" lon="6.71793">
        <ele>496</ele>
        <time>2014-04-13T11:06:32Z</time>
      </trkpt>
      <trkpt lat="47.58146" lon="6.71795">
        <ele>496</ele>
        <time>2014-04-13T11:06:33Z</time>
      </trkpt>
      <trkpt lat="47.58147" lon="6.71797">
        <ele>497</ele>
        <time>2014-04-13T11:06:34Z</time>
      </trkpt>
      <trkpt lat="47.58152" lon="6.71806">
        <ele>497</ele>
        <time>2014-04-13T11:06:38Z</time>
      </trkpt>
      <trkpt lat="47.58156" lon="6.71811">
        <ele>497</ele>
        <time>2014-04-13T11:06:40Z</time>
      </trkpt>
      <trkpt lat="47.58162" lon="6.71821">
        <ele>497</ele>
        <time>2014-04-13T11:06:44Z</time>
      </trkpt>
      <trkpt lat="47.58163" lon="6.71824">
        <ele>497</ele>
        <time>2014-04-13T11:06:45Z</time>
      </trkpt>
      <trkpt lat="47.58165" lon="6.71828">
        <ele>498</ele>
        <time>2014-04-13T11:06:46Z</time>
      </trkpt>
      <trkpt lat="47.58166" lon="6.71831">
        <ele>498</ele>
        <time>2014-04-13T11:06:47Z</time>
      </trkpt>
      <trkpt lat="47.58167" lon="6.71834">
        <ele>498</ele>
        <time>2014-04-13T11:06:48Z</time>
      </trkpt>
      <trkpt lat="47.58168" lon="6.71838">
        <ele>499</ele>
        <time>2014-04-13T11:06:49Z</time>
      </trkpt>
      <trkpt lat="47.58169" lon="6.71841">
        <ele>499</ele>
        <time>2014-04-13T11:06:50Z</time>
      </trkpt>
      <trkpt lat="47.58175" lon="6.71852">
        <ele>499</ele>
        <time>2014-04-13T11:06:54Z</time>
      </trkpt>
      <trkpt lat="47.58186" lon="6.7187">
        <ele>499</ele>
        <time>2014-04-13T11:06:59Z</time>
      </trkpt>
      <trkpt lat="47.58195" lon="6.71882">
        <ele>499</ele>
        <time>2014-04-13T11:07:04Z</time>
      </trkpt>
      <trkpt lat="47.58197" lon="6.71885">
        <ele>499</ele>
        <time>2014-04-13T11:07:05Z</time>
      </trkpt>
      <trkpt lat="47.58202" lon="6.71899">
        <ele>499</ele>
        <time>2014-04-13T11:07:09Z</time>
      </trkpt>
      <trkpt lat="47.58208" lon="6.71909">
        <ele>499</ele>
        <time>2014-04-13T11:07:12Z</time>
      </trkpt>
      <trkpt lat="47.5821" lon="6.71914">
        <ele>500</ele>
        <time>2014-04-13T11:07:13Z</time>
      </trkpt>
      <trkpt lat="47.58211" lon="6.71919">
        <ele>500</ele>
        <time>2014-04-13T11:07:14Z</time>
      </trkpt>
      <trkpt lat="47.58213" lon="6.71922">
        <ele>501</ele>
        <time>2014-04-13T11:07:15Z</time>
      </trkpt>
      <trkpt lat="47.58218" lon="6.71934">
        <ele>501</ele>
        <time>2014-04-13T11:07:18Z</time>
      </trkpt>
      <trkpt lat="47.58221" lon="6.71942">
        <ele>501</ele>
        <time>2014-04-13T11:07:20Z</time>
      </trkpt>
      <trkpt lat="47.58226" lon="6.71951">
        <ele>501</ele>
        <time>2014-04-13T11:07:22Z</time>
      </trkpt>
      <trkpt lat="47.58229" lon="6.71959">
        <ele>501</ele>
        <time>2014-04-13T11:07:24Z</time>
      </trkpt>
      <trkpt lat="47.58231" lon="6.71969">
        <ele>501</ele>
        <time>2014-04-13T11:07:26Z</time>
      </trkpt>
      <trkpt lat="47.5824" lon="6.71988">
        <ele>501</ele>
        <time>2014-04-13T11:07:30Z</time>
      </trkpt>
      <trkpt lat="47.58251" lon="6.72001">
        <ele>501</ele>
        <time>2014-04-13T11:07:34Z</time>
      </trkpt>
      <trkpt lat="47.58253" lon="6.72004">
        <ele>501</ele>
        <time>2014-04-13T11:07:35Z</time>
      </trkpt>
      <trkpt lat="47.5826" lon="6.72011">
        <ele>501</ele>
        <time>2014-04-13T11:07:38Z</time>
      </trkpt>
      <trkpt lat="47.5827" lon="6.72022">
        <ele>501</ele>
        <time>2014-04-13T11:07:43Z</time>
      </trkpt>
      <trkpt lat="47.58279" lon="6.72036">
        <ele>501</ele>
        <time>2014-04-13T11:07:48Z</time>
      </trkpt>
      <trkpt lat="47.58281" lon="6.72042">
        <ele>501</ele>
        <time>2014-04-13T11:07:50Z</time>
      </trkpt>
      <trkpt lat="47.58281" lon="6.72046">
        <ele>500</ele>
        <time>2014-04-13T11:07:51Z</time>
      </trkpt>
      <trkpt lat="47.58282" lon="6.7205">
        <ele>500</ele>
        <time>2014-04-13T11:07:52Z</time>
      </trkpt>
      <trkpt lat="47.58282" lon="6.72056">
        <ele>500</ele>
        <time>2014-04-13T11:07:53Z</time>
      </trkpt>
      <trkpt lat="47.58282" lon="6.72061">
        <ele>499</ele>
        <time>2014-04-13T11:07:54Z</time>
      </trkpt>
      <trkpt lat="47.58283" lon="6.72068">
        <ele>499</ele>
        <time>2014-04-13T11:07:55Z</time>
      </trkpt>
      <trkpt lat="47.58284" lon="6.72073">
        <ele>499</ele>
        <time>2014-04-13T11:07:56Z</time>
      </trkpt>
      <trkpt lat="47.58286" lon="6.7208">
        <ele>498</ele>
        <time>2014-04-13T11:07:57Z</time>
      </trkpt>
      <trkpt lat="47.58288" lon="6.72086">
        <ele>498</ele>
        <time>2014-04-13T11:07:58Z</time>
      </trkpt>
      <trkpt lat="47.5829" lon="6.72094">
        <ele>498</ele>
        <time>2014-04-13T11:07:59Z</time>
      </trkpt>
      <trkpt lat="47.58291" lon="6.72101">
        <ele>497</ele>
        <time>2014-04-13T11:08:00Z</time>
      </trkpt>
      <trkpt lat="47.58292" lon="6.72108">
        <ele>497</ele>
        <time>2014-04-13T11:08:01Z</time>
      </trkpt>
      <trkpt lat="47.58293" lon="6.72121">
        <ele>496</ele>
        <time>2014-04-13T11:08:03Z</time>
      </trkpt>
      <trkpt lat="47.58294" lon="6.72127">
        <ele>495</ele>
        <time>2014-04-13T11:08:04Z</time>
      </trkpt>
      <trkpt lat="47.58296" lon="6.72132">
        <ele>495</ele>
        <time>2014-04-13T11:08:05Z</time>
      </trkpt>
      <trkpt lat="47.58298" lon="6.72138">
        <ele>495</ele>
        <time>2014-04-13T11:08:06Z</time>
      </trkpt>
      <trkpt lat="47.58303" lon="6.72152">
        <ele>494</ele>
        <time>2014-04-13T11:08:08Z</time>
      </trkpt>
      <trkpt lat="47.58305" lon="6.72158">
        <ele>494</ele>
        <time>2014-04-13T11:08:09Z</time>
      </trkpt>
      <trkpt lat="47.58307" lon="6.72165">
        <ele>493</ele>
        <time>2014-04-13T11:08:10Z</time>
      </trkpt>
      <trkpt lat="47.5831" lon="6.72172">
        <ele>493</ele>
        <time>2014-04-13T11:08:11Z</time>
      </trkpt>
      <trkpt lat="47.58314" lon="6.72177">
        <ele>492</ele>
        <time>2014-04-13T11:08:12Z</time>
      </trkpt>
      <trkpt lat="47.58318" lon="6.72181">
        <ele>492</ele>
        <time>2014-04-13T11:08:13Z</time>
      </trkpt>
      <trkpt lat="47.58321" lon="6.72185">
        <ele>492</ele>
        <time>2014-04-13T11:08:14Z</time>
      </trkpt>
      <trkpt lat="47.58324" lon="6.72191">
        <ele>491</ele>
        <time>2014-04-13T11:08:15Z</time>
      </trkpt>
      <trkpt lat="47.58326" lon="6.72197">
        <ele>491</ele>
        <time>2014-04-13T11:08:16Z</time>
      </trkpt>
      <trkpt lat="47.58327" lon="6.72203">
        <ele>490</ele>
        <time>2014-04-13T11:08:17Z</time>
      </trkpt>
      <trkpt lat="47.58331" lon="6.72217">
        <ele>490</ele>
        <time>2014-04-13T11:08:19Z</time>
      </trkpt>
      <trkpt lat="47.58334" lon="6.72225">
        <ele>489</ele>
        <time>2014-04-13T11:08:20Z</time>
      </trkpt>
      <trkpt lat="47.58337" lon="6.72232">
        <ele>489</ele>
        <time>2014-04-13T11:08:21Z</time>
      </trkpt>
      <trkpt lat="47.58338" lon="6.7224">
        <ele>489</ele>
        <time>2014-04-13T11:08:22Z</time>
      </trkpt>
      <trkpt lat="47.58339" lon="6.72248">
        <ele>488</ele>
        <time>2014-04-13T11:08:23Z</time>
      </trkpt>
      <trkpt lat="47.58339" lon="6.72255">
        <ele>488</ele>
        <time>2014-04-13T11:08:24Z</time>
      </trkpt>
      <trkpt lat="47.58339" lon="6.72262">
        <ele>487</ele>
        <time>2014-04-13T11:08:25Z</time>
      </trkpt>
      <trkpt lat="47.58339" lon="6.72269">
        <ele>487</ele>
        <time>2014-04-13T11:08:26Z</time>
      </trkpt>
      <trkpt lat="47.58339" lon="6.72276">
        <ele>486</ele>
        <time>2014-04-13T11:08:27Z</time>
      </trkpt>
      <trkpt lat="47.5834" lon="6.72283">
        <ele>485</ele>
        <time>2014-04-13T11:08:28Z</time>
      </trkpt>
      <trkpt lat="47.5834" lon="6.72291">
        <ele>484</ele>
        <time>2014-04-13T11:08:29Z</time>
      </trkpt>
      <trkpt lat="47.58341" lon="6.72298">
        <ele>484</ele>
        <time>2014-04-13T11:08:30Z</time>
      </trkpt>
      <trkpt lat="47.58342" lon="6.72306">
        <ele>483</ele>
        <time>2014-04-13T11:08:31Z</time>
      </trkpt>
      <trkpt lat="47.58342" lon="6.72314">
        <ele>483</ele>
        <time>2014-04-13T11:08:32Z</time>
      </trkpt>
      <trkpt lat="47.58341" lon="6.72323">
        <ele>482</ele>
        <time>2014-04-13T11:08:33Z</time>
      </trkpt>
      <trkpt lat="47.5834" lon="6.72329">
        <ele>481</ele>
        <time>2014-04-13T11:08:34Z</time>
      </trkpt>
      <trkpt lat="47.58338" lon="6.72337">
        <ele>481</ele>
        <time>2014-04-13T11:08:35Z</time>
      </trkpt>
      <trkpt lat="47.58337" lon="6.72343">
        <ele>480</ele>
        <time>2014-04-13T11:08:36Z</time>
      </trkpt>
      <trkpt lat="47.58334" lon="6.72349">
        <ele>479</ele>
        <time>2014-04-13T11:08:37Z</time>
      </trkpt>
      <trkpt lat="47.5833" lon="6.72353">
        <ele>478</ele>
        <time>2014-04-13T11:08:38Z</time>
      </trkpt>
      <trkpt lat="47.58326" lon="6.72357">
        <ele>477</ele>
        <time>2014-04-13T11:08:39Z</time>
      </trkpt>
      <trkpt lat="47.58321" lon="6.7236">
        <ele>476</ele>
        <time>2014-04-13T11:08:40Z</time>
      </trkpt>
      <trkpt lat="47.58316" lon="6.72363">
        <ele>476</ele>
        <time>2014-04-13T11:08:41Z</time>
      </trkpt>
      <trkpt lat="47.58311" lon="6.72366">
        <ele>475</ele>
        <time>2014-04-13T11:08:42Z</time>
      </trkpt>
      <trkpt lat="47.58307" lon="6.7237">
        <ele>475</ele>
        <time>2014-04-13T11:08:43Z</time>
      </trkpt>
      <trkpt lat="47.58304" lon="6.72374">
        <ele>474</ele>
        <time>2014-04-13T11:08:44Z</time>
      </trkpt>
      <trkpt lat="47.58304" lon="6.72378">
        <ele>474</ele>
        <time>2014-04-13T11:08:45Z</time>
      </trkpt>
      <trkpt lat="47.58307" lon="6.7239">
        <ele>474</ele>
        <time>2014-04-13T11:08:47Z</time>
      </trkpt>
      <trkpt lat="47.58311" lon="6.72405">
        <ele>474</ele>
        <time>2014-04-13T11:08:49Z</time>
      </trkpt>
      <trkpt lat="47.58312" lon="6.72415">
        <ele>473</ele>
        <time>2014-04-13T11:08:50Z</time>
      </trkpt>
      <trkpt lat="47.58313" lon="6.72424">
        <ele>472</ele>
        <time>2014-04-13T11:08:51Z</time>
      </trkpt>
      <trkpt lat="47.58316" lon="6.72432">
        <ele>471</ele>
        <time>2014-04-13T11:08:52Z</time>
      </trkpt>
      <trkpt lat="47.58319" lon="6.7244">
        <ele>470</ele>
        <time>2014-04-13T11:08:53Z</time>
      </trkpt>
      <trkpt lat="47.58322" lon="6.72449">
        <ele>470</ele>
        <time>2014-04-13T11:08:54Z</time>
      </trkpt>
      <trkpt lat="47.58324" lon="6.72459">
        <ele>469</ele>
        <time>2014-04-13T11:08:55Z</time>
      </trkpt>
      <trkpt lat="47.58327" lon="6.7247">
        <ele>468</ele>
        <time>2014-04-13T11:08:56Z</time>
      </trkpt>
      <trkpt lat="47.58328" lon="6.72482">
        <ele>468</ele>
        <time>2014-04-13T11:08:57Z</time>
      </trkpt>
      <trkpt lat="47.58329" lon="6.72493">
        <ele>467</ele>
        <time>2014-04-13T11:08:58Z</time>
      </trkpt>
      <trkpt lat="47.58328" lon="6.72504">
        <ele>467</ele>
        <time>2014-04-13T11:08:59Z</time>
      </trkpt>
      <trkpt lat="47.58327" lon="6.72515">
        <ele>466</ele>
        <time>2014-04-13T11:09:00Z</time>
      </trkpt>
      <trkpt lat="47.58327" lon="6.72525">
        <ele>465</ele>
        <time>2014-04-13T11:09:01Z</time>
      </trkpt>
      <trkpt lat="47.58328" lon="6.72535">
        <ele>465</ele>
        <time>2014-04-13T11:09:02Z</time>
      </trkpt>
      <trkpt lat="47.5833" lon="6.72542">
        <ele>464</ele>
        <time>2014-04-13T11:09:03Z</time>
      </trkpt>
      <trkpt lat="47.58331" lon="6.72549">
        <ele>463</ele>
        <time>2014-04-13T11:09:04Z</time>
      </trkpt>
      <trkpt lat="47.58331" lon="6.72555">
        <ele>463</ele>
        <time>2014-04-13T11:09:05Z</time>
      </trkpt>
      <trkpt lat="47.58332" lon="6.72561">
        <ele>462</ele>
        <time>2014-04-13T11:09:06Z</time>
      </trkpt>
      <trkpt lat="47.58333" lon="6.72569">
        <ele>461</ele>
        <time>2014-04-13T11:09:07Z</time>
      </trkpt>
      <trkpt lat="47.58334" lon="6.72578">
        <ele>461</ele>
        <time>2014-04-13T11:09:08Z</time>
      </trkpt>
      <trkpt lat="47.58334" lon="6.72587">
        <ele>460</ele>
        <time>2014-04-13T11:09:09Z</time>
      </trkpt>
      <trkpt lat="47.58334" lon="6.72597">
        <ele>460</ele>
        <time>2014-04-13T11:09:10Z</time>
      </trkpt>
      <trkpt lat="47.58334" lon="6.72607">
        <ele>459</ele>
        <time>2014-04-13T11:09:11Z</time>
      </trkpt>
      <trkpt lat="47.58335" lon="6.72619">
        <ele>459</ele>
        <time>2014-04-13T11:09:12Z</time>
      </trkpt>
      <trkpt lat="47.58336" lon="6.7263">
        <ele>458</ele>
        <time>2014-04-13T11:09:13Z</time>
      </trkpt>
      <trkpt lat="47.58336" lon="6.72642">
        <ele>457</ele>
        <time>2014-04-13T11:09:14Z</time>
      </trkpt>
      <trkpt lat="47.58337" lon="6.72654">
        <ele>456</ele>
        <time>2014-04-13T11:09:15Z</time>
      </trkpt>
      <trkpt lat="47.58337" lon="6.72666">
        <ele>456</ele>
        <time>2014-04-13T11:09:16Z</time>
      </trkpt>
      <trkpt lat="47.58338" lon="6.72677">
        <ele>454</ele>
        <time>2014-04-13T11:09:17Z</time>
      </trkpt>
      <trkpt lat="47.58338" lon="6.72689">
        <ele>453</ele>
        <time>2014-04-13T11:09:18Z</time>
      </trkpt>
      <trkpt lat="47.58338" lon="6.72701">
        <ele>452</ele>
        <time>2014-04-13T11:09:19Z</time>
      </trkpt>
      <trkpt lat="47.58337" lon="6.72712">
        <ele>451</ele>
        <time>2014-04-13T11:09:20Z</time>
      </trkpt>
      <trkpt lat="47.58338" lon="6.72717">
        <ele>450</ele>
        <time>2014-04-13T11:09:21Z</time>
      </trkpt>
      <trkpt lat="47.58339" lon="6.72729">
        <ele>450</ele>
        <time>2014-04-13T11:09:22Z</time>
      </trkpt>
      <trkpt lat="47.5834" lon="6.72738">
        <ele>449</ele>
        <time>2014-04-13T11:09:23Z</time>
      </trkpt>
      <trkpt lat="47.58342" lon="6.72747">
        <ele>448</ele>
        <time>2014-04-13T11:09:24Z</time>
      </trkpt>
      <trkpt lat="47.58341" lon="6.72757">
        <ele>447</ele>
        <time>2014-04-13T11:09:25Z</time>
      </trkpt>
      <trkpt lat="47.58341" lon="6.72768">
        <ele>446</ele>
        <time>2014-04-13T11:09:26Z</time>
      </trkpt>
      <trkpt lat="47.58341" lon="6.72779">
        <ele>445</ele>
        <time>2014-04-13T11:09:28Z</time>
      </trkpt>
      <trkpt lat="47.58342" lon="6.72791">
        <ele>444</ele>
        <time>2014-04-13T11:09:29Z</time>
      </trkpt>
      <trkpt lat="47.58341" lon="6.72803">
        <ele>443</ele>
        <time>2014-04-13T11:09:30Z</time>
      </trkpt>
      <trkpt lat="47.58341" lon="6.72814">
        <ele>442</ele>
        <time>2014-04-13T11:09:31Z</time>
      </trkpt>
      <trkpt lat="47.5834" lon="6.72825">
        <ele>441</ele>
        <time>2014-04-13T11:09:32Z</time>
      </trkpt>
      <trkpt lat="47.58339" lon="6.72837">
        <ele>440</ele>
        <time>2014-04-13T11:09:33Z</time>
      </trkpt>
      <trkpt lat="47.58338" lon="6.7285">
        <ele>439</ele>
        <time>2014-04-13T11:09:34Z</time>
      </trkpt>
      <trkpt lat="47.58339" lon="6.72863">
        <ele>438</ele>
        <time>2014-04-13T11:09:35Z</time>
      </trkpt>
      <trkpt lat="47.58339" lon="6.72875">
        <ele>437</ele>
        <time>2014-04-13T11:09:36Z</time>
      </trkpt>
      <trkpt lat="47.58339" lon="6.72885">
        <ele>435</ele>
        <time>2014-04-13T11:09:37Z</time>
      </trkpt>
      <trkpt lat="47.58339" lon="6.72894">
        <ele>434</ele>
        <time>2014-04-13T11:09:38Z</time>
      </trkpt>
      <trkpt lat="47.58337" lon="6.72903">
        <ele>433</ele>
        <time>2014-04-13T11:09:39Z</time>
      </trkpt>
      <trkpt lat="47.58336" lon="6.72911">
        <ele>432</ele>
        <time>2014-04-13T11:09:40Z</time>
      </trkpt>
      <trkpt lat="47.58335" lon="6.72921">
        <ele>432</ele>
        <time>2014-04-13T11:09:41Z</time>
      </trkpt>
      <trkpt lat="47.58333" lon="6.72932">
        <ele>431</ele>
        <time>2014-04-13T11:09:42Z</time>
      </trkpt>
      <trkpt lat="47.58332" lon="6.72943">
        <ele>429</ele>
        <time>2014-04-13T11:09:43Z</time>
      </trkpt>
      <trkpt lat="47.58331" lon="6.72954">
        <ele>428</ele>
        <time>2014-04-13T11:09:44Z</time>
      </trkpt>
      <trkpt lat="47.5833" lon="6.7296">
        <ele>426</ele>
        <time>2014-04-13T11:09:45Z</time>
      </trkpt>
      <trkpt lat="47.58328" lon="6.72976">
        <ele>425</ele>
        <time>2014-04-13T11:09:46Z</time>
      </trkpt>
      <trkpt lat="47.58327" lon="6.72986">
        <ele>424</ele>
        <time>2014-04-13T11:09:47Z</time>
      </trkpt>
      <trkpt lat="47.58327" lon="6.72994">
        <ele>423</ele>
        <time>2014-04-13T11:09:48Z</time>
      </trkpt>
      <trkpt lat="47.58326" lon="6.73002">
        <ele>422</ele>
        <time>2014-04-13T11:09:49Z</time>
      </trkpt>
      <trkpt lat="47.58324" lon="6.73009">
        <ele>421</ele>
        <time>2014-04-13T11:09:50Z</time>
      </trkpt>
      <trkpt lat="47.58323" lon="6.73017">
        <ele>420</ele>
        <time>2014-04-13T11:09:51Z</time>
      </trkpt>
      <trkpt lat="47.58323" lon="6.73024">
        <ele>419</ele>
        <time>2014-04-13T11:09:52Z</time>
      </trkpt>
      <trkpt lat="47.58324" lon="6.73032">
        <ele>418</ele>
        <time>2014-04-13T11:09:53Z</time>
      </trkpt>
      <trkpt lat="47.58325" lon="6.73038">
        <ele>417</ele>
        <time>2014-04-13T11:09:54Z</time>
      </trkpt>
      <trkpt lat="47.58326" lon="6.73046">
        <ele>416</ele>
        <time>2014-04-13T11:09:55Z</time>
      </trkpt>
      <trkpt lat="47.58328" lon="6.73054">
        <ele>415</ele>
        <time>2014-04-13T11:09:56Z</time>
      </trkpt>
      <trkpt lat="47.58329" lon="6.73062">
        <ele>415</ele>
        <time>2014-04-13T11:09:57Z</time>
      </trkpt>
      <trkpt lat="47.58331" lon="6.73071">
        <ele>414</ele>
        <time>2014-04-13T11:09:58Z</time>
      </trkpt>
      <trkpt lat="47.58332" lon="6.73081">
        <ele>414</ele>
        <time>2014-04-13T11:09:59Z</time>
      </trkpt>
      <trkpt lat="47.58334" lon="6.73092">
        <ele>413</ele>
        <time>2014-04-13T11:10:00Z</time>
      </trkpt>
      <trkpt lat="47.58335" lon="6.73104">
        <ele>412</ele>
        <time>2014-04-13T11:10:01Z</time>
      </trkpt>
      <trkpt lat="47.58336" lon="6.73118">
        <ele>412</ele>
        <time>2014-04-13T11:10:02Z</time>
      </trkpt>
      <trkpt lat="47.58337" lon="6.73131">
        <ele>411</ele>
        <time>2014-04-13T11:10:03Z</time>
      </trkpt>
      <trkpt lat="47.58339" lon="6.73144">
        <ele>410</ele>
        <time>2014-04-13T11:10:04Z</time>
      </trkpt>
      <trkpt lat="47.58339" lon="6.73157">
        <ele>409</ele>
        <time>2014-04-13T11:10:05Z</time>
      </trkpt>
      <trkpt lat="47.5834" lon="6.7317">
        <ele>408</ele>
        <time>2014-04-13T11:10:06Z</time>
      </trkpt>
      <trkpt lat="47.5834" lon="6.73183">
        <ele>405</ele>
        <time>2014-04-13T11:10:07Z</time>
      </trkpt>
      <trkpt lat="47.58341" lon="6.73196">
        <ele>404</ele>
        <time>2014-04-13T11:10:08Z</time>
      </trkpt>
      <trkpt lat="47.58341" lon="6.73208">
        <ele>403</ele>
        <time>2014-04-13T11:10:09Z</time>
      </trkpt>
      <trkpt lat="47.58342" lon="6.7322">
        <ele>402</ele>
        <time>2014-04-13T11:10:10Z</time>
      </trkpt>
      <trkpt lat="47.58342" lon="6.73231">
        <ele>401</ele>
        <time>2014-04-13T11:10:11Z</time>
      </trkpt>
      <trkpt lat="47.58342" lon="6.73241">
        <ele>399</ele>
        <time>2014-04-13T11:10:12Z</time>
      </trkpt>
      <trkpt lat="47.58343" lon="6.7325">
        <ele>398</ele>
        <time>2014-04-13T11:10:13Z</time>
      </trkpt>
      <trkpt lat="47.58343" lon="6.73259">
        <ele>397</ele>
        <time>2014-04-13T11:10:14Z</time>
      </trkpt>
      <trkpt lat="47.58343" lon="6.73268">
        <ele>396</ele>
        <time>2014-04-13T11:10:15Z</time>
      </trkpt>
      <trkpt lat="47.58345" lon="6.73279">
        <ele>395</ele>
        <time>2014-04-13T11:10:16Z</time>
      </trkpt>
      <trkpt lat="47.58346" lon="6.73289">
        <ele>394</ele>
        <time>2014-04-13T11:10:17Z</time>
      </trkpt>
      <trkpt lat="47.58347" lon="6.73299">
        <ele>393</ele>
        <time>2014-04-13T11:10:18Z</time>
      </trkpt>
      <trkpt lat="47.58348" lon="6.73308">
        <ele>392</ele>
        <time>2014-04-13T11:10:19Z</time>
      </trkpt>
      <trkpt lat="47.58349" lon="6.73317">
        <ele>391</ele>
        <time>2014-04-13T11:10:20Z</time>
      </trkpt>
      <trkpt lat="47.5835" lon="6.73327">
        <ele>390</ele>
        <time>2014-04-13T11:10:21Z</time>
      </trkpt>
      <trkpt lat="47.5835" lon="6.73337">
        <ele>389</ele>
        <time>2014-04-13T11:10:22Z</time>
      </trkpt>
      <trkpt lat="47.58351" lon="6.73346">
        <ele>388</ele>
        <time>2014-04-13T11:10:23Z</time>
      </trkpt>
      <trkpt lat="47.58351" lon="6.73356">
        <ele>387</ele>
        <time>2014-04-13T11:10:24Z</time>
      </trkpt>
      <trkpt lat="47.58351" lon="6.73365">
        <ele>387</ele>
        <time>2014-04-13T11:10:25Z</time>
      </trkpt>
      <trkpt lat="47.5835" lon="6.73373">
        <ele>386</ele>
        <time>2014-04-13T11:10:26Z</time>
      </trkpt>
      <trkpt lat="47.5835" lon="6.7338">
        <ele>385</ele>
        <time>2014-04-13T11:10:27Z</time>
      </trkpt>
      <trkpt lat="47.58348" lon="6.73387">
        <ele>385</ele>
        <time>2014-04-13T11:10:28Z</time>
      </trkpt>
      <trkpt lat="47.58347" lon="6.73394">
        <ele>384</ele>
        <time>2014-04-13T11:10:29Z</time>
      </trkpt>
      <trkpt lat="47.58345" lon="6.73401">
        <ele>383</ele>
        <time>2014-04-13T11:10:30Z</time>
      </trkpt>
      <trkpt lat="47.58343" lon="6.73409">
        <ele>382</ele>
        <time>2014-04-13T11:10:31Z</time>
      </trkpt>
      <trkpt lat="47.58341" lon="6.73418">
        <ele>380</ele>
        <time>2014-04-13T11:10:32Z</time>
      </trkpt>
      <trkpt lat="47.58341" lon="6.73427">
        <ele>380</ele>
        <time>2014-04-13T11:10:33Z</time>
      </trkpt>
      <trkpt lat="47.58341" lon="6.73437">
        <ele>379</ele>
        <time>2014-04-13T11:10:34Z</time>
      </trkpt>
      <trkpt lat="47.58342" lon="6.73447">
        <ele>378</ele>
        <time>2014-04-13T11:10:35Z</time>
      </trkpt>
      <trkpt lat="47.58343" lon="6.73457">
        <ele>377</ele>
        <time>2014-04-13T11:10:36Z</time>
      </trkpt>
      <trkpt lat="47.58341" lon="6.73468">
        <ele>377</ele>
        <time>2014-04-13T11:10:37Z</time>
      </trkpt>
      <trkpt lat="47.58339" lon="6.73478">
        <ele>376</ele>
        <time>2014-04-13T11:10:38Z</time>
      </trkpt>
      <trkpt lat="47.58337" lon="6.7349">
        <ele>375</ele>
        <time>2014-04-13T11:10:39Z</time>
      </trkpt>
      <trkpt lat="47.58335" lon="6.73501">
        <ele>374</ele>
        <time>2014-04-13T11:10:40Z</time>
      </trkpt>
      <trkpt lat="47.58332" lon="6.73512">
        <ele>373</ele>
        <time>2014-04-13T11:10:41Z</time>
      </trkpt>
      <trkpt lat="47.58328" lon="6.73522">
        <ele>372</ele>
        <time>2014-04-13T11:10:42Z</time>
      </trkpt>
      <trkpt lat="47.58316" lon="6.73545">
        <ele>370</ele>
        <time>2014-04-13T11:10:43Z</time>
      </trkpt>
      <trkpt lat="47.5831" lon="6.73557">
        <ele>369</ele>
        <time>2014-04-13T11:10:45Z</time>
      </trkpt>
      <trkpt lat="47.58309" lon="6.73562">
        <ele>368</ele>
        <time>2014-04-13T11:10:46Z</time>
      </trkpt>
      <trkpt lat="47.58305" lon="6.73578">
        <ele>367</ele>
        <time>2014-04-13T11:10:47Z</time>
      </trkpt>
      <trkpt lat="47.58306" lon="6.73588">
        <ele>366</ele>
        <time>2014-04-13T11:10:48Z</time>
      </trkpt>
      <trkpt lat="47.58307" lon="6.73597">
        <ele>364</ele>
        <time>2014-04-13T11:10:49Z</time>
      </trkpt>
      <trkpt lat="47.5831" lon="6.73606">
        <ele>364</ele>
        <time>2014-04-13T11:10:50Z</time>
      </trkpt>
      <trkpt lat="47.58313" lon="6.73614">
        <ele>363</ele>
        <time>2014-04-13T11:10:51Z</time>
      </trkpt>
      <trkpt lat="47.58316" lon="6.73622">
        <ele>362</ele>
        <time>2014-04-13T11:10:52Z</time>
      </trkpt>
      <trkpt lat="47.58319" lon="6.73626">
        <ele>361</ele>
        <time>2014-04-13T11:10:53Z</time>
      </trkpt>
      <trkpt lat="47.58323" lon="6.7363">
        <ele>360</ele>
        <time>2014-04-13T11:10:54Z</time>
      </trkpt>
      <trkpt lat="47.58326" lon="6.73635">
        <ele>359</ele>
        <time>2014-04-13T11:10:55Z</time>
      </trkpt>
      <trkpt lat="47.58331" lon="6.73639">
        <ele>357</ele>
        <time>2014-04-13T11:10:56Z</time>
      </trkpt>
      <trkpt lat="47.58335" lon="6.73642">
        <ele>356</ele>
        <time>2014-04-13T11:10:57Z</time>
      </trkpt>
      <trkpt lat="47.58339" lon="6.73643">
        <ele>355</ele>
        <time>2014-04-13T11:10:58Z</time>
      </trkpt>
      <trkpt lat="47.58344" lon="6.73642">
        <ele>354</ele>
        <time>2014-04-13T11:10:59Z</time>
      </trkpt>
      <trkpt lat="47.58347" lon="6.73641">
        <ele>353</ele>
        <time>2014-04-13T11:11:00Z</time>
      </trkpt>
      <trkpt lat="47.58348" lon="6.7364">
        <ele>352</ele>
        <time>2014-04-13T11:11:01Z</time>
      </trkpt>
      <trkpt lat="47.58351" lon="6.7364">
        <ele>351</ele>
        <time>2014-04-13T11:11:02Z</time>
      </trkpt>
      <trkpt lat="47.58354" lon="6.73641">
        <ele>350</ele>
        <time>2014-04-13T11:11:03Z</time>
      </trkpt>
      <trkpt lat="47.58357" lon="6.73642">
        <ele>350</ele>
        <time>2014-04-13T11:11:04Z</time>
      </trkpt>
      <trkpt lat="47.58359" lon="6.73645">
        <ele>349</ele>
        <time>2014-04-13T11:11:05Z</time>
      </trkpt>
      <trkpt lat="47.58362" lon="6.73649">
        <ele>349</ele>
        <time>2014-04-13T11:11:06Z</time>
      </trkpt>
      <trkpt lat="47.58364" lon="6.73653">
        <ele>348</ele>
        <time>2014-04-13T11:11:07Z</time>
      </trkpt>
      <trkpt lat="47.58369" lon="6.73667">
        <ele>348</ele>
        <time>2014-04-13T11:11:10Z</time>
      </trkpt>
      <trkpt lat="47.5837" lon="6.73674">
        <ele>348</ele>
        <time>2014-04-13T11:11:12Z</time>
      </trkpt>
      <trkpt lat="47.58369" lon="6.73681">
        <ele>348</ele>
        <time>2014-04-13T11:11:14Z</time>
      </trkpt>
      <trkpt lat="47.58369" lon="6.73689">
        <ele>348</ele>
        <time>2014-04-13T11:11:16Z</time>
      </trkpt>
      <trkpt lat="47.58369" lon="6.73695">
        <ele>348</ele>
        <time>2014-04-13T11:11:17Z</time>
      </trkpt>
      <trkpt lat="47.58369" lon="6.73702">
        <ele>349</ele>
        <time>2014-04-13T11:11:19Z</time>
      </trkpt>
      <trkpt lat="47.58368" lon="6.73705">
        <ele>349</ele>
        <time>2014-04-13T11:11:20Z</time>
      </trkpt>
      <trkpt lat="47.58367" lon="6.73708">
        <ele>350</ele>
        <time>2014-04-13T11:11:21Z</time>
      </trkpt>
      <trkpt lat="47.58365" lon="6.73711">
        <ele>350</ele>
        <time>2014-04-13T11:11:22Z</time>
      </trkpt>
      <trkpt lat="47.58357" lon="6.73721">
        <ele>350</ele>
        <time>2014-04-13T11:11:26Z</time>
      </trkpt>
      <trkpt lat="47.58356" lon="6.73724">
        <ele>351</ele>
        <time>2014-04-13T11:11:27Z</time>
      </trkpt>
      <trkpt lat="47.58355" lon="6.73727">
        <ele>351</ele>
        <time>2014-04-13T11:11:28Z</time>
      </trkpt>
      <trkpt lat="47.58354" lon="6.73731">
        <ele>352</ele>
        <time>2014-04-13T11:11:29Z</time>
      </trkpt>
      <trkpt lat="47.58352" lon="6.73733">
        <ele>352</ele>
        <time>2014-04-13T11:11:30Z</time>
      </trkpt>
      <trkpt lat="47.5835" lon="6.73736">
        <ele>353</ele>
        <time>2014-04-13T11:11:31Z</time>
      </trkpt>
      <trkpt lat="47.58346" lon="6.73742">
        <ele>353</ele>
        <time>2014-04-13T11:11:33Z</time>
      </trkpt>
      <trkpt lat="47.58343" lon="6.73748">
        <ele>353</ele>
        <time>2014-04-13T11:11:35Z</time>
      </trkpt>
      <trkpt lat="47.58341" lon="6.73751">
        <ele>353</ele>
        <time>2014-04-13T11:11:36Z</time>
      </trkpt>
      <trkpt lat="47.58339" lon="6.73754">
        <ele>354</ele>
        <time>2014-04-13T11:11:37Z</time>
      </trkpt>
      <trkpt lat="47.58337" lon="6.73759">
        <ele>354</ele>
        <time>2014-04-13T11:11:38Z</time>
      </trkpt>
      <trkpt lat="47.58335" lon="6.73763">
        <ele>355</ele>
        <time>2014-04-13T11:11:39Z</time>
      </trkpt>
      <trkpt lat="47.58329" lon="6.73774">
        <ele>355</ele>
        <time>2014-04-13T11:11:42Z</time>
      </trkpt>
      <trkpt lat="47.5832" lon="6.73792">
        <ele>355</ele>
        <time>2014-04-13T11:11:48Z</time>
      </trkpt>
      <trkpt lat="47.58318" lon="6.73796">
        <ele>355</ele>
        <time>2014-04-13T11:11:49Z</time>
      </trkpt>
      <trkpt lat="47.58316" lon="6.738">
        <ele>356</ele>
        <time>2014-04-13T11:11:50Z</time>
      </trkpt>
      <trkpt lat="47.58314" lon="6.73805">
        <ele>356</ele>
        <time>2014-04-13T11:11:51Z</time>
      </trkpt>
      <trkpt lat="47.58312" lon="6.7381">
        <ele>357</ele>
        <time>2014-04-13T11:11:52Z</time>
      </trkpt>
      <trkpt lat="47.5831" lon="6.73816">
        <ele>357</ele>
        <time>2014-04-13T11:11:53Z</time>
      </trkpt>
      <trkpt lat="47.58307" lon="6.73833">
        <ele>357</ele>
        <time>2014-04-13T11:11:56Z</time>
      </trkpt>
      <trkpt lat="47.58308" lon="6.73844">
        <ele>357</ele>
        <time>2014-04-13T11:11:58Z</time>
      </trkpt>
      <trkpt lat="47.58308" lon="6.73869">
        <ele>357</ele>
        <time>2014-04-13T11:12:03Z</time>
      </trkpt>
      <trkpt lat="47.5831" lon="6.73892">
        <ele>357</ele>
        <time>2014-04-13T11:12:07Z</time>
      </trkpt>
      <trkpt lat="47.58311" lon="6.73898">
        <ele>358</ele>
        <time>2014-04-13T11:12:08Z</time>
      </trkpt>
      <trkpt lat="47.58313" lon="6.73904">
        <ele>358</ele>
        <time>2014-04-13T11:12:09Z</time>
      </trkpt>
      <trkpt lat="47.58314" lon="6.7391">
        <ele>359</ele>
        <time>2014-04-13T11:12:10Z</time>
      </trkpt>
      <trkpt lat="47.58317" lon="6.7395">
        <ele>359</ele>
        <time>2014-04-13T11:12:16Z</time>
      </trkpt>
      <trkpt lat="47.58325" lon="6.73985">
        <ele>359</ele>
        <time>2014-04-13T11:12:22Z</time>
      </trkpt>
      <trkpt lat="47.58332" lon="6.73987">
        <ele>359</ele>
        <time>2014-04-13T11:12:24Z</time>
      </trkpt>
      <trkpt lat="47.58336" lon="6.73986">
        <ele>359</ele>
        <time>2014-04-13T11:12:25Z</time>
      </trkpt>
      <trkpt lat="47.58346" lon="6.73981">
        <ele>359</ele>
        <time>2014-04-13T11:12:28Z</time>
      </trkpt>
      <trkpt lat="47.58349" lon="6.73979">
        <ele>360</ele>
        <time>2014-04-13T11:12:29Z</time>
      </trkpt>
      <trkpt lat="47.58352" lon="6.73977">
        <ele>360</ele>
        <time>2014-04-13T11:12:30Z</time>
      </trkpt>
      <trkpt lat="47.58356" lon="6.73975">
        <ele>360</ele>
        <time>2014-04-13T11:12:31Z</time>
      </trkpt>
      <trkpt lat="47.5836" lon="6.73975">
        <ele>361</ele>
        <time>2014-04-13T11:12:32Z</time>
      </trkpt>
      <trkpt lat="47.5837" lon="6.7397">
        <ele>361</ele>
        <time>2014-04-13T11:12:35Z</time>
      </trkpt>
      <trkpt lat="47.58387" lon="6.7396">
        <ele>361</ele>
        <time>2014-04-13T11:12:39Z</time>
      </trkpt>
      <trkpt lat="47.5839" lon="6.73954">
        <ele>361</ele>
        <time>2014-04-13T11:12:40Z</time>
      </trkpt>
      <trkpt lat="47.584" lon="6.73933">
        <ele>361</ele>
        <time>2014-04-13T11:12:43Z</time>
      </trkpt>
      <trkpt lat="47.58403" lon="6.73927">
        <ele>361</ele>
        <time>2014-04-13T11:12:44Z</time>
      </trkpt>
      <trkpt lat="47.58407" lon="6.73925">
        <ele>360</ele>
        <time>2014-04-13T11:12:45Z</time>
      </trkpt>
      <trkpt lat="47.58411" lon="6.73926">
        <ele>360</ele>
        <time>2014-04-13T11:12:47Z</time>
      </trkpt>
      <trkpt lat="47.58414" lon="6.7393">
        <ele>359</ele>
        <time>2014-04-13T11:12:48Z</time>
      </trkpt>
      <trkpt lat="47.58417" lon="6.73931">
        <ele>359</ele>
        <time>2014-04-13T11:12:49Z</time>
      </trkpt>
      <trkpt lat="47.58421" lon="6.73933">
        <ele>358</ele>
        <time>2014-04-13T11:12:50Z</time>
      </trkpt>
      <trkpt lat="47.58425" lon="6.73936">
        <ele>357</ele>
        <time>2014-04-13T11:12:51Z</time>
      </trkpt>
      <trkpt lat="47.58429" lon="6.73939">
        <ele>356</ele>
        <time>2014-04-13T11:12:52Z</time>
      </trkpt>
      <trkpt lat="47.58429" lon="6.73945">
        <ele>355</ele>
        <time>2014-04-13T11:12:53Z</time>
      </trkpt>
      <trkpt lat="47.58434" lon="6.73949">
        <ele>354</ele>
        <time>2014-04-13T11:12:54Z</time>
      </trkpt>
      <trkpt lat="47.58437" lon="6.73954">
        <ele>354</ele>
        <time>2014-04-13T11:12:55Z</time>
      </trkpt>
      <trkpt lat="47.58441" lon="6.73959">
        <ele>353</ele>
        <time>2014-04-13T11:12:56Z</time>
      </trkpt>
      <trkpt lat="47.58443" lon="6.73964">
        <ele>352</ele>
        <time>2014-04-13T11:12:57Z</time>
      </trkpt>
      <trkpt lat="47.58445" lon="6.7397">
        <ele>351</ele>
        <time>2014-04-13T11:12:58Z</time>
      </trkpt>
      <trkpt lat="47.58446" lon="6.73975">
        <ele>350</ele>
        <time>2014-04-13T11:12:59Z</time>
      </trkpt>
      <trkpt lat="47.58448" lon="6.73977">
        <ele>349</ele>
        <time>2014-04-13T11:13:00Z</time>
      </trkpt>
      <trkpt lat="47.58452" lon="6.73984">
        <ele>348</ele>
        <time>2014-04-13T11:13:01Z</time>
      </trkpt>
      <trkpt lat="47.58455" lon="6.73989">
        <ele>347</ele>
        <time>2014-04-13T11:13:02Z</time>
      </trkpt>
      <trkpt lat="47.58458" lon="6.73993">
        <ele>346</ele>
        <time>2014-04-13T11:13:03Z</time>
      </trkpt>
      <trkpt lat="47.5846" lon="6.73996">
        <ele>345</ele>
        <time>2014-04-13T11:13:04Z</time>
      </trkpt>
      <trkpt lat="47.58462" lon="6.73999">
        <ele>344</ele>
        <time>2014-04-13T11:13:05Z</time>
      </trkpt>
      <trkpt lat="47.58465" lon="6.74002">
        <ele>343</ele>
        <time>2014-04-13T11:13:06Z</time>
      </trkpt>
      <trkpt lat="47.58467" lon="6.74004">
        <ele>342</ele>
        <time>2014-04-13T11:13:07Z</time>
      </trkpt>
      <trkpt lat="47.58471" lon="6.74007">
        <ele>342</ele>
        <time>2014-04-13T11:13:08Z</time>
      </trkpt>
      <trkpt lat="47.58475" lon="6.74005">
        <ele>341</ele>
        <time>2014-04-13T11:13:09Z</time>
      </trkpt>
      <trkpt lat="47.58477" lon="6.74002">
        <ele>340</ele>
        <time>2014-04-13T11:13:10Z</time>
      </trkpt>
      <trkpt lat="47.58477" lon="6.73997">
        <ele>339</ele>
        <time>2014-04-13T11:13:11Z</time>
      </trkpt>
      <trkpt lat="47.58479" lon="6.73992">
        <ele>338</ele>
        <time>2014-04-13T11:13:12Z</time>
      </trkpt>
      <trkpt lat="47.5848" lon="6.73986">
        <ele>337</ele>
        <time>2014-04-13T11:13:13Z</time>
      </trkpt>
      <trkpt lat="47.58482" lon="6.73972">
        <ele>337</ele>
        <time>2014-04-13T11:13:15Z</time>
      </trkpt>
      <trkpt lat="47.58482" lon="6.73948">
        <ele>337</ele>
        <time>2014-04-13T11:13:18Z</time>
      </trkpt>
      <trkpt lat="47.58487" lon="6.7391">
        <ele>337</ele>
        <time>2014-04-13T11:13:23Z</time>
      </trkpt>
      <trkpt lat="47.58491" lon="6.73881">
        <ele>337</ele>
        <time>2014-04-13T11:13:27Z</time>
      </trkpt>
      <trkpt lat="47.5849" lon="6.73867">
        <ele>337</ele>
        <time>2014-04-13T11:13:29Z</time>
      </trkpt>
      <trkpt lat="47.5849" lon="6.7386">
        <ele>338</ele>
        <time>2014-04-13T11:13:30Z</time>
      </trkpt>
      <trkpt lat="47.58488" lon="6.73852">
        <ele>338</ele>
        <time>2014-04-13T11:13:31Z</time>
      </trkpt>
      <trkpt lat="47.58486" lon="6.73845">
        <ele>338</ele>
        <time>2014-04-13T11:13:32Z</time>
      </trkpt>
      <trkpt lat="47.58485" lon="6.73838">
        <ele>339</ele>
        <time>2014-04-13T11:13:33Z</time>
      </trkpt>
      <trkpt lat="47.58485" lon="6.7383">
        <ele>339</ele>
        <time>2014-04-13T11:13:34Z</time>
      </trkpt>
      <trkpt lat="47.58488" lon="6.73807">
        <ele>339</ele>
        <time>2014-04-13T11:13:37Z</time>
      </trkpt>
      <trkpt lat="47.58489" lon="6.73799">
        <ele>339</ele>
        <time>2014-04-13T11:13:38Z</time>
      </trkpt>
      <trkpt lat="47.58496" lon="6.73748">
        <ele>339</ele>
        <time>2014-04-13T11:13:44Z</time>
      </trkpt>
      <trkpt lat="47.58497" lon="6.73739">
        <ele>339</ele>
        <time>2014-04-13T11:13:45Z</time>
      </trkpt>
      <trkpt lat="47.58498" lon="6.73704">
        <ele>339</ele>
        <time>2014-04-13T11:13:49Z</time>
      </trkpt>
      <trkpt lat="47.585" lon="6.73696">
        <ele>339</ele>
        <time>2014-04-13T11:13:50Z</time>
      </trkpt>
      <trkpt lat="47.5851" lon="6.73647">
        <ele>339</ele>
        <time>2014-04-13T11:13:56Z</time>
      </trkpt>
      <trkpt lat="47.58522" lon="6.73646">
        <ele>339</ele>
        <time>2014-04-13T11:13:58Z</time>
      </trkpt>
      <trkpt lat="47.58535" lon="6.73646">
        <ele>339</ele>
        <time>2014-04-13T11:14:00Z</time>
      </trkpt>
      <trkpt lat="47.58549" lon="6.73643">
        <ele>339</ele>
        <time>2014-04-13T11:14:02Z</time>
      </trkpt>
      <trkpt lat="47.58564" lon="6.73638">
        <ele>339</ele>
        <time>2014-04-13T11:14:04Z</time>
      </trkpt>
      <trkpt lat="47.58572" lon="6.73637">
        <ele>338</ele>
        <time>2014-04-13T11:14:05Z</time>
      </trkpt>
      <trkpt lat="47.5858" lon="6.73635">
        <ele>338</ele>
        <time>2014-04-13T11:14:06Z</time>
      </trkpt>
      <trkpt lat="47.58587" lon="6.73633">
        <ele>337</ele>
        <time>2014-04-13T11:14:07Z</time>
      </trkpt>
      <trkpt lat="47.58594" lon="6.73631">
        <ele>337</ele>
        <time>2014-04-13T11:14:08Z</time>
      </trkpt>
      <trkpt lat="47.58642" lon="6.73621">
        <ele>337</ele>
        <time>2014-04-13T11:14:15Z</time>
      </trkpt>
      <trkpt lat="47.58689" lon="6.73609">
        <ele>337</ele>
        <time>2014-04-13T11:14:22Z</time>
      </trkpt>
      <trkpt lat="47.58704" lon="6.73619">
        <ele>337</ele>
        <time>2014-04-13T11:14:25Z</time>
      </trkpt>
      <trkpt lat="47.587" lon="6.73631">
        <ele>337</ele>
        <time>2014-04-13T11:14:27Z</time>
      </trkpt>
      <trkpt lat="47.58686" lon="6.7366">
        <ele>337</ele>
        <time>2014-04-13T11:14:31Z</time>
      </trkpt>
      <trkpt lat="47.58661" lon="6.73709">
        <ele>337</ele>
        <time>2014-04-13T11:14:37Z</time>
      </trkpt>
      <trkpt lat="47.58653" lon="6.73729">
        <ele>337</ele>
        <time>2014-04-13T11:14:39Z</time>
      </trkpt>
      <trkpt lat="47.58647" lon="6.73748">
        <ele>337</ele>
        <time>2014-04-13T11:14:41Z</time>
      </trkpt>
      <trkpt lat="47.58636" lon="6.73783">
        <ele>337</ele>
        <time>2014-04-13T11:14:45Z</time>
      </trkpt>
      <trkpt lat="47.58625" lon="6.73817">
        <ele>337</ele>
        <time>2014-04-13T11:14:49Z</time>
      </trkpt>
      <trkpt lat="47.58616" lon="6.7386">
        <ele>337</ele>
        <time>2014-04-13T11:14:54Z</time>
      </trkpt>
      <trkpt lat="47.58608" lon="6.73895">
        <ele>337</ele>
        <time>2014-04-13T11:14:59Z</time>
      </trkpt>
      <trkpt lat="47.58607" lon="6.73901">
        <ele>338</ele>
        <time>2014-04-13T11:15:00Z</time>
      </trkpt>
      <trkpt lat="47.58605" lon="6.73907">
        <ele>338</ele>
        <time>2014-04-13T11:15:01Z</time>
      </trkpt>
      <trkpt lat="47.58603" lon="6.73913">
        <ele>338</ele>
        <time>2014-04-13T11:15:02Z</time>
      </trkpt>
      <trkpt lat="47.58601" lon="6.73919">
        <ele>339</ele>
        <time>2014-04-13T11:15:03Z</time>
      </trkpt>
      <trkpt lat="47.58599" lon="6.73925">
        <ele>339</ele>
        <time>2014-04-13T11:15:04Z</time>
      </trkpt>
      <trkpt lat="47.58588" lon="6.73959">
        <ele>339</ele>
        <time>2014-04-13T11:15:10Z</time>
      </trkpt>
      <trkpt lat="47.58581" lon="6.73969">
        <ele>339</ele>
        <time>2014-04-13T11:15:12Z</time>
      </trkpt>
      <trkpt lat="47.58573" lon="6.73991">
        <ele>339</ele>
        <time>2014-04-13T11:15:15Z</time>
      </trkpt>
      <trkpt lat="47.5857" lon="6.73998">
        <ele>339</ele>
        <time>2014-04-13T11:15:16Z</time>
      </trkpt>
      <trkpt lat="47.58566" lon="6.74005">
        <ele>339</ele>
        <time>2014-04-13T11:15:17Z</time>
      </trkpt>
      <trkpt lat="47.58554" lon="6.74014">
        <ele>339</ele>
        <time>2014-04-13T11:15:20Z</time>
      </trkpt>
      <trkpt lat="47.58549" lon="6.74005">
        <ele>338</ele>
        <time>2014-04-13T11:15:22Z</time>
      </trkpt>
      <trkpt lat="47.5855" lon="6.73998">
        <ele>338</ele>
        <time>2014-04-13T11:15:23Z</time>
      </trkpt>
      <trkpt lat="47.58554" lon="6.7399">
        <ele>338</ele>
        <time>2014-04-13T11:15:24Z</time>
      </trkpt>
      <trkpt lat="47.58557" lon="6.73982">
        <ele>337</ele>
        <time>2014-04-13T11:15:25Z</time>
      </trkpt>
      <trkpt lat="47.58562" lon="6.73974">
        <ele>337</ele>
        <time>2014-04-13T11:15:26Z</time>
      </trkpt>
      <trkpt lat="47.58571" lon="6.7396">
        <ele>337</ele>
        <time>2014-04-13T11:15:28Z</time>
      </trkpt>
      <trkpt lat="47.58581" lon="6.73947">
        <ele>337</ele>
        <time>2014-04-13T11:15:30Z</time>
      </trkpt>
      <trkpt lat="47.58593" lon="6.73941">
        <ele>337</ele>
        <time>2014-04-13T11:15:32Z</time>
      </trkpt>
      <trkpt lat="47.5862" lon="6.73932">
        <ele>337</ele>
        <time>2014-04-13T11:15:37Z</time>
      </trkpt>
      <trkpt lat="47.58627" lon="6.7395">
        <ele>337</ele>
        <time>2014-04-13T11:15:39Z</time>
      </trkpt>
      <trkpt lat="47.58632" lon="6.73985">
        <ele>337</ele>
        <time>2014-04-13T11:15:42Z</time>
      </trkpt>
      <trkpt lat="47.58634" lon="6.74017">
        <ele>337</ele>
        <time>2014-04-13T11:15:45Z</time>
      </trkpt>
      <trkpt lat="47.58631" lon="6.74048">
        <ele>337</ele>
        <time>2014-04-13T11:15:48Z</time>
      </trkpt>
      <trkpt lat="47.58627" lon="6.74068">
        <ele>337</ele>
        <time>2014-04-13T11:15:50Z</time>
      </trkpt>
      <trkpt lat="47.58615" lon="6.74117">
        <ele>336</ele>
        <time>2014-04-13T11:15:55Z</time>
      </trkpt>
      <trkpt lat="47.58611" lon="6.74126">
        <ele>336</ele>
        <time>2014-04-13T11:15:56Z</time>
      </trkpt>
      <trkpt lat="47.58608" lon="6.74135">
        <ele>335</ele>
        <time>2014-04-13T11:15:57Z</time>
      </trkpt>
      <trkpt lat="47.58604" lon="6.74143">
        <ele>335</ele>
        <time>2014-04-13T11:15:58Z</time>
      </trkpt>
      <trkpt lat="47.586" lon="6.74152">
        <ele>335</ele>
        <time>2014-04-13T11:15:59Z</time>
      </trkpt>
      <trkpt lat="47.58582" lon="6.74195">
        <ele>335</ele>
        <time>2014-04-13T11:16:04Z</time>
      </trkpt>
      <trkpt lat="47.58579" lon="6.74205">
        <ele>335</ele>
        <time>2014-04-13T11:16:05Z</time>
      </trkpt>
      <trkpt lat="47.58576" lon="6.74225">
        <ele>335</ele>
        <time>2014-04-13T11:16:07Z</time>
      </trkpt>
      <trkpt lat="47.58575" lon="6.74235">
        <ele>335</ele>
        <time>2014-04-13T11:16:08Z</time>
      </trkpt>
      <trkpt lat="47.5857" lon="6.74264">
        <ele>335</ele>
        <time>2014-04-13T11:16:11Z</time>
      </trkpt>
      <trkpt lat="47.58559" lon="6.74302">
        <ele>335</ele>
        <time>2014-04-13T11:16:16Z</time>
      </trkpt>
      <trkpt lat="47.58557" lon="6.74309">
        <ele>335</ele>
        <time>2014-04-13T11:16:17Z</time>
      </trkpt>
      <trkpt lat="47.58555" lon="6.74314">
        <ele>336</ele>
        <time>2014-04-13T11:16:18Z</time>
      </trkpt>
      <trkpt lat="47.58553" lon="6.7432">
        <ele>336</ele>
        <time>2014-04-13T11:16:19Z</time>
      </trkpt>
      <trkpt lat="47.58552" lon="6.74326">
        <ele>337</ele>
        <time>2014-04-13T11:16:20Z</time>
      </trkpt>
      <trkpt lat="47.5855" lon="6.74332">
        <ele>337</ele>
        <time>2014-04-13T11:16:21Z</time>
      </trkpt>
      <trkpt lat="47.58549" lon="6.74338">
        <ele>338</ele>
        <time>2014-04-13T11:16:22Z</time>
      </trkpt>
      <trkpt lat="47.58548" lon="6.74344">
        <ele>338</ele>
        <time>2014-04-13T11:16:23Z</time>
      </trkpt>
      <trkpt lat="47.58547" lon="6.7435">
        <ele>339</ele>
        <time>2014-04-13T11:16:24Z</time>
      </trkpt>
      <trkpt lat="47.58545" lon="6.74361">
        <ele>339</ele>
        <time>2014-04-13T11:16:26Z</time>
      </trkpt>
      <trkpt lat="47.58544" lon="6.74365">
        <ele>340</ele>
        <time>2014-04-13T11:16:27Z</time>
      </trkpt>
      <trkpt lat="47.58543" lon="6.7437">
        <ele>340</ele>
        <time>2014-04-13T11:16:28Z</time>
      </trkpt>
      <trkpt lat="47.58542" lon="6.74374">
        <ele>341</ele>
        <time>2014-04-13T11:16:29Z</time>
      </trkpt>
      <trkpt lat="47.58541" lon="6.74379">
        <ele>341</ele>
        <time>2014-04-13T11:16:30Z</time>
      </trkpt>
      <trkpt lat="47.5854" lon="6.74383">
        <ele>342</ele>
        <time>2014-04-13T11:16:31Z</time>
      </trkpt>
      <trkpt lat="47.58539" lon="6.74387">
        <ele>343</ele>
        <time>2014-04-13T11:16:32Z</time>
      </trkpt>
      <trkpt lat="47.58539" lon="6.74392">
        <ele>343</ele>
        <time>2014-04-13T11:16:33Z</time>
      </trkpt>
      <trkpt lat="47.58538" lon="6.74396">
        <ele>344</ele>
        <time>2014-04-13T11:16:34Z</time>
      </trkpt>
      <trkpt lat="47.58538" lon="6.74402">
        <ele>344</ele>
        <time>2014-04-13T11:16:35Z</time>
      </trkpt>
      <trkpt lat="47.58538" lon="6.74407">
        <ele>345</ele>
        <time>2014-04-13T11:16:36Z</time>
      </trkpt>
      <trkpt lat="47.58538" lon="6.74412">
        <ele>345</ele>
        <time>2014-04-13T11:16:37Z</time>
      </trkpt>
      <trkpt lat="47.58538" lon="6.74416">
        <ele>346</ele>
        <time>2014-04-13T11:16:38Z</time>
      </trkpt>
      <trkpt lat="47.58538" lon="6.74421">
        <ele>346</ele>
        <time>2014-04-13T11:16:39Z</time>
      </trkpt>
      <trkpt lat="47.58537" lon="6.74425">
        <ele>347</ele>
        <time>2014-04-13T11:16:40Z</time>
      </trkpt>
      <trkpt lat="47.58537" lon="6.74429">
        <ele>347</ele>
        <time>2014-04-13T11:16:41Z</time>
      </trkpt>
      <trkpt lat="47.58537" lon="6.74434">
        <ele>348</ele>
        <time>2014-04-13T11:16:42Z</time>
      </trkpt>
      <trkpt lat="47.58537" lon="6.74439">
        <ele>348</ele>
        <time>2014-04-13T11:16:43Z</time>
      </trkpt>
      <trkpt lat="47.58536" lon="6.74448">
        <ele>348</ele>
        <time>2014-04-13T11:16:45Z</time>
      </trkpt>
      <trkpt lat="47.58535" lon="6.74452">
        <ele>349</ele>
        <time>2014-04-13T11:16:46Z</time>
      </trkpt>
      <trkpt lat="47.58534" lon="6.74457">
        <ele>349</ele>
        <time>2014-04-13T11:16:47Z</time>
      </trkpt>
      <trkpt lat="47.58534" lon="6.74462">
        <ele>350</ele>
        <time>2014-04-13T11:16:48Z</time>
      </trkpt>
      <trkpt lat="47.58533" lon="6.74467">
        <ele>350</ele>
        <time>2014-04-13T11:16:49Z</time>
      </trkpt>
      <trkpt lat="47.58533" lon="6.74476">
        <ele>350</ele>
        <time>2014-04-13T11:16:51Z</time>
      </trkpt>
      <trkpt lat="47.58532" lon="6.74492">
        <ele>351</ele>
        <time>2014-04-13T11:16:54Z</time>
      </trkpt>
      <trkpt lat="47.58532" lon="6.74497">
        <ele>351</ele>
        <time>2014-04-13T11:16:55Z</time>
      </trkpt>
      <trkpt lat="47.58532" lon="6.74502">
        <ele>352</ele>
        <time>2014-04-13T11:16:56Z</time>
      </trkpt>
      <trkpt lat="47.58531" lon="6.74506">
        <ele>352</ele>
        <time>2014-04-13T11:16:57Z</time>
      </trkpt>
      <trkpt lat="47.58531" lon="6.7451">
        <ele>352</ele>
        <time>2014-04-13T11:16:58Z</time>
      </trkpt>
      <trkpt lat="47.58531" lon="6.74515">
        <ele>352</ele>
        <time>2014-04-13T11:16:59Z</time>
      </trkpt>
      <trkpt lat="47.5853" lon="6.74533">
        <ele>353</ele>
        <time>2014-04-13T11:17:03Z</time>
      </trkpt>
      <trkpt lat="47.5853" lon="6.74537">
        <ele>353</ele>
        <time>2014-04-13T11:17:04Z</time>
      </trkpt>
      <trkpt lat="47.5853" lon="6.74542">
        <ele>354</ele>
        <time>2014-04-13T11:17:05Z</time>
      </trkpt>
      <trkpt lat="47.5853" lon="6.74546">
        <ele>354</ele>
        <time>2014-04-13T11:17:06Z</time>
      </trkpt>
      <trkpt lat="47.5853" lon="6.7455">
        <ele>355</ele>
        <time>2014-04-13T11:17:07Z</time>
      </trkpt>
      <trkpt lat="47.58529" lon="6.74555">
        <ele>355</ele>
        <time>2014-04-13T11:17:08Z</time>
      </trkpt>
      <trkpt lat="47.5853" lon="6.74568">
        <ele>355</ele>
        <time>2014-04-13T11:17:11Z</time>
      </trkpt>
      <trkpt lat="47.5853" lon="6.74572">
        <ele>355</ele>
        <time>2014-04-13T11:17:12Z</time>
      </trkpt>
      <trkpt lat="47.5853" lon="6.74576">
        <ele>356</ele>
        <time>2014-04-13T11:17:13Z</time>
      </trkpt>
      <trkpt lat="47.58529" lon="6.74579">
        <ele>356</ele>
        <time>2014-04-13T11:17:14Z</time>
      </trkpt>
      <trkpt lat="47.5853" lon="6.74582">
        <ele>357</ele>
        <time>2014-04-13T11:17:15Z</time>
      </trkpt>
      <trkpt lat="47.58529" lon="6.74604">
        <ele>357</ele>
        <time>2014-04-13T11:17:20Z</time>
      </trkpt>
      <trkpt lat="47.58529" lon="6.74608">
        <ele>358</ele>
        <time>2014-04-13T11:17:21Z</time>
      </trkpt>
      <trkpt lat="47.58529" lon="6.74612">
        <ele>358</ele>
        <time>2014-04-13T11:17:22Z</time>
      </trkpt>
      <trkpt lat="47.5853" lon="6.74616">
        <ele>358</ele>
        <time>2014-04-13T11:17:23Z</time>
      </trkpt>
      <trkpt lat="47.5853" lon="6.7462">
        <ele>359</ele>
        <time>2014-04-13T11:17:24Z</time>
      </trkpt>
      <trkpt lat="47.58529" lon="6.74634">
        <ele>359</ele>
        <time>2014-04-13T11:17:27Z</time>
      </trkpt>
      <trkpt lat="47.58528" lon="6.74647">
        <ele>359</ele>
        <time>2014-04-13T11:17:30Z</time>
      </trkpt>
      <trkpt lat="47.58528" lon="6.74652">
        <ele>360</ele>
        <time>2014-04-13T11:17:31Z</time>
      </trkpt>
      <trkpt lat="47.58529" lon="6.74657">
        <ele>361</ele>
        <time>2014-04-13T11:17:32Z</time>
      </trkpt>
      <trkpt lat="47.58529" lon="6.74661">
        <ele>361</ele>
        <time>2014-04-13T11:17:33Z</time>
      </trkpt>
      <trkpt lat="47.58529" lon="6.74665">
        <ele>361</ele>
        <time>2014-04-13T11:17:34Z</time>
      </trkpt>
      <trkpt lat="47.58528" lon="6.74687">
        <ele>362</ele>
        <time>2014-04-13T11:17:39Z</time>
      </trkpt>
      <trkpt lat="47.58528" lon="6.74691">
        <ele>362</ele>
        <time>2014-04-13T11:17:40Z</time>
      </trkpt>
      <trkpt lat="47.58528" lon="6.74696">
        <ele>362</ele>
        <time>2014-04-13T11:17:41Z</time>
      </trkpt>
      <trkpt lat="47.58529" lon="6.747">
        <ele>363</ele>
        <time>2014-04-13T11:17:42Z</time>
      </trkpt>
      <trkpt lat="47.58529" lon="6.74705">
        <ele>363</ele>
        <time>2014-04-13T11:17:43Z</time>
      </trkpt>
      <trkpt lat="47.58531" lon="6.74712">
        <ele>364</ele>
        <time>2014-04-13T11:17:45Z</time>
      </trkpt>
      <trkpt lat="47.58533" lon="6.74717">
        <ele>364</ele>
        <time>2014-04-13T11:17:46Z</time>
      </trkpt>
      <trkpt lat="47.58535" lon="6.7472">
        <ele>364</ele>
        <time>2014-04-13T11:17:47Z</time>
      </trkpt>
      <trkpt lat="47.58538" lon="6.74723">
        <ele>365</ele>
        <time>2014-04-13T11:17:48Z</time>
      </trkpt>
      <trkpt lat="47.5854" lon="6.74726">
        <ele>365</ele>
        <time>2014-04-13T11:17:49Z</time>
      </trkpt>
      <trkpt lat="47.58543" lon="6.74727">
        <ele>365</ele>
        <time>2014-04-13T11:17:50Z</time>
      </trkpt>
      <trkpt lat="47.58555" lon="6.74739">
        <ele>365</ele>
        <time>2014-04-13T11:17:54Z</time>
      </trkpt>
      <trkpt lat="47.58557" lon="6.74743">
        <ele>365</ele>
        <time>2014-04-13T11:17:55Z</time>
      </trkpt>
      <trkpt lat="47.58565" lon="6.74758">
        <ele>365</ele>
        <time>2014-04-13T11:17:58Z</time>
      </trkpt>
      <trkpt lat="47.58569" lon="6.7477">
        <ele>365</ele>
        <time>2014-04-13T11:18:00Z</time>
      </trkpt>
      <trkpt lat="47.58571" lon="6.74776">
        <ele>365</ele>
        <time>2014-04-13T11:18:01Z</time>
      </trkpt>
      <trkpt lat="47.58573" lon="6.74793">
        <ele>365</ele>
        <time>2014-04-13T11:18:04Z</time>
      </trkpt>
      <trkpt lat="47.58572" lon="6.74799">
        <ele>365</ele>
        <time>2014-04-13T11:18:05Z</time>
      </trkpt>
      <trkpt lat="47.58568" lon="6.74819">
        <ele>365</ele>
        <time>2014-04-13T11:18:08Z</time>
      </trkpt>
      <trkpt lat="47.58567" lon="6.74826">
        <ele>365</ele>
        <time>2014-04-13T11:18:09Z</time>
      </trkpt>
      <trkpt lat="47.58567" lon="6.74834">
        <ele>365</ele>
        <time>2014-04-13T11:18:10Z</time>
      </trkpt>
      <trkpt lat="47.5857" lon="6.74856">
        <ele>365</ele>
        <time>2014-04-13T11:18:13Z</time>
      </trkpt>
      <trkpt lat="47.58575" lon="6.74881">
        <ele>365</ele>
        <time>2014-04-13T11:18:17Z</time>
      </trkpt>
      <trkpt lat="47.58575" lon="6.74888">
        <ele>366</ele>
        <time>2014-04-13T11:18:18Z</time>
      </trkpt>
      <trkpt lat="47.58575" lon="6.74894">
        <ele>366</ele>
        <time>2014-04-13T11:18:19Z</time>
      </trkpt>
      <trkpt lat="47.58576" lon="6.74901">
        <ele>367</ele>
        <time>2014-04-13T11:18:20Z</time>
      </trkpt>
      <trkpt lat="47.58577" lon="6.74909">
        <ele>367</ele>
        <time>2014-04-13T11:18:21Z</time>
      </trkpt>
      <trkpt lat="47.58577" lon="6.74916">
        <ele>368</ele>
        <time>2014-04-13T11:18:22Z</time>
      </trkpt>
      <trkpt lat="47.58579" lon="6.74939">
        <ele>368</ele>
        <time>2014-04-13T11:18:25Z</time>
      </trkpt>
      <trkpt lat="47.5858" lon="6.7496">
        <ele>368</ele>
        <time>2014-04-13T11:18:28Z</time>
      </trkpt>
      <trkpt lat="47.58581" lon="6.74967">
        <ele>368</ele>
        <time>2014-04-13T11:18:29Z</time>
      </trkpt>
      <trkpt lat="47.58582" lon="6.74973">
        <ele>369</ele>
        <time>2014-04-13T11:18:30Z</time>
      </trkpt>
      <trkpt lat="47.58582" lon="6.7498">
        <ele>369</ele>
        <time>2014-04-13T11:18:31Z</time>
      </trkpt>
      <trkpt lat="47.58582" lon="6.74987">
        <ele>370</ele>
        <time>2014-04-13T11:18:32Z</time>
      </trkpt>
      <trkpt lat="47.58577" lon="6.75013">
        <ele>370</ele>
        <time>2014-04-13T11:18:36Z</time>
      </trkpt>
      <trkpt lat="47.58575" lon="6.75019">
        <ele>370</ele>
        <time>2014-04-13T11:18:37Z</time>
      </trkpt>
      <trkpt lat="47.5857" lon="6.75046">
        <ele>370</ele>
        <time>2014-04-13T11:18:41Z</time>
      </trkpt>
      <trkpt lat="47.5857" lon="6.75053">
        <ele>370</ele>
        <time>2014-04-13T11:18:42Z</time>
      </trkpt>
      <trkpt lat="47.58571" lon="6.7506">
        <ele>370</ele>
        <time>2014-04-13T11:18:43Z</time>
      </trkpt>
      <trkpt lat="47.58573" lon="6.75067">
        <ele>370</ele>
        <time>2014-04-13T11:18:44Z</time>
      </trkpt>
      <trkpt lat="47.58575" lon="6.75074">
        <ele>371</ele>
        <time>2014-04-13T11:18:45Z</time>
      </trkpt>
      <trkpt lat="47.58577" lon="6.7508">
        <ele>372</ele>
        <time>2014-04-13T11:18:46Z</time>
      </trkpt>
      <trkpt lat="47.58578" lon="6.75087">
        <ele>372</ele>
        <time>2014-04-13T11:18:47Z</time>
      </trkpt>
      <trkpt lat="47.58583" lon="6.75099">
        <ele>372</ele>
        <time>2014-04-13T11:18:49Z</time>
      </trkpt>
      <trkpt lat="47.58592" lon="6.75123">
        <ele>372</ele>
        <time>2014-04-13T11:18:53Z</time>
      </trkpt>
      <trkpt lat="47.58594" lon="6.75129">
        <ele>373</ele>
        <time>2014-04-13T11:18:54Z</time>
      </trkpt>
      <trkpt lat="47.58596" lon="6.75134">
        <ele>373</ele>
        <time>2014-04-13T11:18:55Z</time>
      </trkpt>
      <trkpt lat="47.58598" lon="6.7514">
        <ele>374</ele>
        <time>2014-04-13T11:18:56Z</time>
      </trkpt>
      <trkpt lat="47.58601" lon="6.75145">
        <ele>374</ele>
        <time>2014-04-13T11:18:57Z</time>
      </trkpt>
      <trkpt lat="47.58606" lon="6.75162">
        <ele>374</ele>
        <time>2014-04-13T11:19:00Z</time>
      </trkpt>
      <trkpt lat="47.58608" lon="6.75168">
        <ele>375</ele>
        <time>2014-04-13T11:19:01Z</time>
      </trkpt>
      <trkpt lat="47.58609" lon="6.75174">
        <ele>375</ele>
        <time>2014-04-13T11:19:02Z</time>
      </trkpt>
      <trkpt lat="47.58611" lon="6.75179">
        <ele>375</ele>
        <time>2014-04-13T11:19:03Z</time>
      </trkpt>
      <trkpt lat="47.58612" lon="6.75183">
        <ele>376</ele>
        <time>2014-04-13T11:19:04Z</time>
      </trkpt>
      <trkpt lat="47.58613" lon="6.75186">
        <ele>376</ele>
        <time>2014-04-13T11:19:05Z</time>
      </trkpt>
      <trkpt lat="47.58613" lon="6.75187">
        <ele>376</ele>
        <time>2014-04-13T11:19:06Z</time>
      </trkpt>
      <trkpt lat="47.58613" lon="6.75187">
        <ele>376</ele>
        <time>2014-04-13T11:19:07Z</time>
      </trkpt>
      <trkpt lat="47.58613" lon="6.75187">
        <ele>376</ele>
        <time>2014-04-13T11:19:08Z</time>
      </trkpt>
      <trkpt lat="47.58613" lon="6.75193">
        <ele>376</ele>
        <time>2014-04-13T11:25:20Z</time>
      </trkpt>
      <trkpt lat="47.58613" lon="6.75193">
        <ele>376</ele>
        <time>2014-04-13T11:25:21Z</time>
      </trkpt>
      <trkpt lat="47.58613" lon="6.75195">
        <ele>376</ele>
        <time>2014-04-13T11:25:22Z</time>
      </trkpt>
      <trkpt lat="47.58617" lon="6.75206">
        <ele>376</ele>
        <time>2014-04-13T11:25:26Z</time>
      </trkpt>
      <trkpt lat="47.5862" lon="6.75212">
        <ele>376</ele>
        <time>2014-04-13T11:25:28Z</time>
      </trkpt>
      <trkpt lat="47.58624" lon="6.75221">
        <ele>377</ele>
        <time>2014-04-13T11:25:31Z</time>
      </trkpt>
      <trkpt lat="47.58625" lon="6.75225">
        <ele>377</ele>
        <time>2014-04-13T11:25:32Z</time>
      </trkpt>
      <trkpt lat="47.58626" lon="6.75229">
        <ele>378</ele>
        <time>2014-04-13T11:25:33Z</time>
      </trkpt>
      <trkpt lat="47.58627" lon="6.75232">
        <ele>378</ele>
        <time>2014-04-13T11:25:34Z</time>
      </trkpt>
      <trkpt lat="47.58628" lon="6.75237">
        <ele>378</ele>
        <time>2014-04-13T11:25:35Z</time>
      </trkpt>
      <trkpt lat="47.58632" lon="6.75246">
        <ele>378</ele>
        <time>2014-04-13T11:25:38Z</time>
      </trkpt>
      <trkpt lat="47.58642" lon="6.75251">
        <ele>378</ele>
        <time>2014-04-13T11:25:42Z</time>
      </trkpt>
      <trkpt lat="47.58647" lon="6.75251">
        <ele>379</ele>
        <time>2014-04-13T11:25:45Z</time>
      </trkpt>
      <trkpt lat="47.58649" lon="6.75251">
        <ele>380</ele>
        <time>2014-04-13T11:25:46Z</time>
      </trkpt>
      <trkpt lat="47.58651" lon="6.7525">
        <ele>380</ele>
        <time>2014-04-13T11:25:47Z</time>
      </trkpt>
      <trkpt lat="47.58653" lon="6.75248">
        <ele>381</ele>
        <time>2014-04-13T11:25:48Z</time>
      </trkpt>
      <trkpt lat="47.58659" lon="6.75241">
        <ele>381</ele>
        <time>2014-04-13T11:25:52Z</time>
      </trkpt>
      <trkpt lat="47.58662" lon="6.75232">
        <ele>381</ele>
        <time>2014-04-13T11:25:56Z</time>
      </trkpt>
      <trkpt lat="47.58662" lon="6.7523">
        <ele>381</ele>
        <time>2014-04-13T11:25:57Z</time>
      </trkpt>
      <trkpt lat="47.58662" lon="6.75228">
        <ele>382</ele>
        <time>2014-04-13T11:25:58Z</time>
      </trkpt>
      <trkpt lat="47.58662" lon="6.75226">
        <ele>382</ele>
        <time>2014-04-13T11:25:59Z</time>
      </trkpt>
      <trkpt lat="47.58662" lon="6.75223">
        <ele>383</ele>
        <time>2014-04-13T11:26:00Z</time>
      </trkpt>
      <trkpt lat="47.58659" lon="6.75217">
        <ele>383</ele>
        <time>2014-04-13T11:26:03Z</time>
      </trkpt>
      <trkpt lat="47.58658" lon="6.75214">
        <ele>383</ele>
        <time>2014-04-13T11:26:04Z</time>
      </trkpt>
      <trkpt lat="47.5865" lon="6.75197">
        <ele>383</ele>
        <time>2014-04-13T11:26:11Z</time>
      </trkpt>
      <trkpt lat="47.58651" lon="6.75193">
        <ele>384</ele>
        <time>2014-04-13T11:26:12Z</time>
      </trkpt>
      <trkpt lat="47.5865" lon="6.7519">
        <ele>384</ele>
        <time>2014-04-13T11:26:13Z</time>
      </trkpt>
      <trkpt lat="47.58649" lon="6.75187">
        <ele>384</ele>
        <time>2014-04-13T11:26:14Z</time>
      </trkpt>
      <trkpt lat="47.58649" lon="6.75183">
        <ele>385</ele>
        <time>2014-04-13T11:26:15Z</time>
      </trkpt>
      <trkpt lat="47.5865" lon="6.75177">
        <ele>385</ele>
        <time>2014-04-13T11:26:17Z</time>
      </trkpt>
      <trkpt lat="47.58648" lon="6.75164">
        <ele>385</ele>
        <time>2014-04-13T11:26:21Z</time>
      </trkpt>
      <trkpt lat="47.58646" lon="6.75156">
        <ele>385</ele>
        <time>2014-04-13T11:26:24Z</time>
      </trkpt>
      <trkpt lat="47.58644" lon="6.75148">
        <ele>385</ele>
        <time>2014-04-13T11:26:27Z</time>
      </trkpt>
      <trkpt lat="47.58644" lon="6.75145">
        <ele>386</ele>
        <time>2014-04-13T11:26:28Z</time>
      </trkpt>
      <trkpt lat="47.58644" lon="6.75141">
        <ele>386</ele>
        <time>2014-04-13T11:26:29Z</time>
      </trkpt>
      <trkpt lat="47.58644" lon="6.75138">
        <ele>386</ele>
        <time>2014-04-13T11:26:30Z</time>
      </trkpt>
      <trkpt lat="47.58644" lon="6.75135">
        <ele>387</ele>
        <time>2014-04-13T11:26:31Z</time>
      </trkpt>
      <trkpt lat="47.5864" lon="6.75119">
        <ele>387</ele>
        <time>2014-04-13T11:26:36Z</time>
      </trkpt>
      <trkpt lat="47.5864" lon="6.75099">
        <ele>387</ele>
        <time>2014-04-13T11:26:42Z</time>
      </trkpt>
      <trkpt lat="47.5864" lon="6.75096">
        <ele>388</ele>
        <time>2014-04-13T11:26:43Z</time>
      </trkpt>
      <trkpt lat="47.5864" lon="6.75092">
        <ele>388</ele>
        <time>2014-04-13T11:26:44Z</time>
      </trkpt>
      <trkpt lat="47.58639" lon="6.75089">
        <ele>389</ele>
        <time>2014-04-13T11:26:45Z</time>
      </trkpt>
      <trkpt lat="47.5864" lon="6.75085">
        <ele>389</ele>
        <time>2014-04-13T11:26:46Z</time>
      </trkpt>
      <trkpt lat="47.5864" lon="6.75073">
        <ele>389</ele>
        <time>2014-04-13T11:26:50Z</time>
      </trkpt>
      <trkpt lat="47.58642" lon="6.75055">
        <ele>389</ele>
        <time>2014-04-13T11:26:56Z</time>
      </trkpt>
      <trkpt lat="47.58642" lon="6.75053">
        <ele>390</ele>
        <time>2014-04-13T11:26:57Z</time>
      </trkpt>
      <trkpt lat="47.58642" lon="6.7505">
        <ele>390</ele>
        <time>2014-04-13T11:26:58Z</time>
      </trkpt>
      <trkpt lat="47.58643" lon="6.75047">
        <ele>391</ele>
        <time>2014-04-13T11:26:59Z</time>
      </trkpt>
      <trkpt lat="47.58646" lon="6.75035">
        <ele>391</ele>
        <time>2014-04-13T11:27:03Z</time>
      </trkpt>
      <trkpt lat="47.58647" lon="6.75032">
        <ele>391</ele>
        <time>2014-04-13T11:27:04Z</time>
      </trkpt>
      <trkpt lat="47.58649" lon="6.75019">
        <ele>391</ele>
        <time>2014-04-13T11:27:08Z</time>
      </trkpt>
      <trkpt lat="47.5865" lon="6.75016">
        <ele>391</ele>
        <time>2014-04-13T11:27:09Z</time>
      </trkpt>
      <trkpt lat="47.58651" lon="6.75013">
        <ele>392</ele>
        <time>2014-04-13T11:27:10Z</time>
      </trkpt>
      <trkpt lat="47.58651" lon="6.75009">
        <ele>392</ele>
        <time>2014-04-13T11:27:11Z</time>
      </trkpt>
      <trkpt lat="47.58652" lon="6.75006">
        <ele>393</ele>
        <time>2014-04-13T11:27:12Z</time>
      </trkpt>
      <trkpt lat="47.58653" lon="6.75003">
        <ele>393</ele>
        <time>2014-04-13T11:27:13Z</time>
      </trkpt>
      <trkpt lat="47.58654" lon="6.74998">
        <ele>393</ele>
        <time>2014-04-13T11:27:15Z</time>
      </trkpt>
      <trkpt lat="47.58659" lon="6.74976">
        <ele>393</ele>
        <time>2014-04-13T11:27:22Z</time>
      </trkpt>
      <trkpt lat="47.58661" lon="6.7497">
        <ele>394</ele>
        <time>2014-04-13T11:27:24Z</time>
      </trkpt>
      <trkpt lat="47.58662" lon="6.74967">
        <ele>394</ele>
        <time>2014-04-13T11:27:25Z</time>
      </trkpt>
      <trkpt lat="47.58664" lon="6.74964">
        <ele>395</ele>
        <time>2014-04-13T11:27:26Z</time>
      </trkpt>
      <trkpt lat="47.58665" lon="6.74961">
        <ele>395</ele>
        <time>2014-04-13T11:27:27Z</time>
      </trkpt>
      <trkpt lat="47.58667" lon="6.74952">
        <ele>395</ele>
        <time>2014-04-13T11:27:30Z</time>
      </trkpt>
      <trkpt lat="47.58674" lon="6.74929">
        <ele>395</ele>
        <time>2014-04-13T11:27:38Z</time>
      </trkpt>
      <trkpt lat="47.58677" lon="6.74924">
        <ele>396</ele>
        <time>2014-04-13T11:27:40Z</time>
      </trkpt>
      <trkpt lat="47.58678" lon="6.74921">
        <ele>396</ele>
        <time>2014-04-13T11:27:41Z</time>
      </trkpt>
      <trkpt lat="47.58679" lon="6.74918">
        <ele>396</ele>
        <time>2014-04-13T11:27:42Z</time>
      </trkpt>
      <trkpt lat="47.58679" lon="6.74915">
        <ele>397</ele>
        <time>2014-04-13T11:27:43Z</time>
      </trkpt>
      <trkpt lat="47.5868" lon="6.74912">
        <ele>397</ele>
        <time>2014-04-13T11:27:44Z</time>
      </trkpt>
      <trkpt lat="47.58682" lon="6.74907">
        <ele>397</ele>
        <time>2014-04-13T11:27:46Z</time>
      </trkpt>
      <trkpt lat="47.58687" lon="6.7489">
        <ele>397</ele>
        <time>2014-04-13T11:27:52Z</time>
      </trkpt>
      <trkpt lat="47.5869" lon="6.74878">
        <ele>398</ele>
        <time>2014-04-13T11:27:56Z</time>
      </trkpt>
      <trkpt lat="47.58691" lon="6.74876">
        <ele>398</ele>
        <time>2014-04-13T11:27:57Z</time>
      </trkpt>
      <trkpt lat="47.58692" lon="6.74873">
        <ele>398</ele>
        <time>2014-04-13T11:27:58Z</time>
      </trkpt>
      <trkpt lat="47.58693" lon="6.74871">
        <ele>399</ele>
        <time>2014-04-13T11:27:59Z</time>
      </trkpt>
      <trkpt lat="47.58695" lon="6.74868">
        <ele>399</ele>
        <time>2014-04-13T11:28:00Z</time>
      </trkpt>
      <trkpt lat="47.587" lon="6.74859">
        <ele>399</ele>
        <time>2014-04-13T11:28:04Z</time>
      </trkpt>
      <trkpt lat="47.58711" lon="6.74851">
        <ele>400</ele>
        <time>2014-04-13T11:28:10Z</time>
      </trkpt>
      <trkpt lat="47.58713" lon="6.74851">
        <ele>400</ele>
        <time>2014-04-13T11:28:11Z</time>
      </trkpt>
      <trkpt lat="47.58715" lon="6.74851">
        <ele>401</ele>
        <time>2014-04-13T11:28:12Z</time>
      </trkpt>
      <trkpt lat="47.58717" lon="6.74851">
        <ele>401</ele>
        <time>2014-04-13T11:28:13Z</time>
      </trkpt>
      <trkpt lat="47.58723" lon="6.74853">
        <ele>401</ele>
        <time>2014-04-13T11:28:16Z</time>
      </trkpt>
      <trkpt lat="47.58729" lon="6.74859">
        <ele>402</ele>
        <time>2014-04-13T11:28:19Z</time>
      </trkpt>
      <trkpt lat="47.58731" lon="6.74862">
        <ele>402</ele>
        <time>2014-04-13T11:28:20Z</time>
      </trkpt>
      <trkpt lat="47.58732" lon="6.74865">
        <ele>403</ele>
        <time>2014-04-13T11:28:21Z</time>
      </trkpt>
      <trkpt lat="47.58732" lon="6.74869">
        <ele>403</ele>
        <time>2014-04-13T11:28:22Z</time>
      </trkpt>
      <trkpt lat="47.58733" lon="6.74873">
        <ele>404</ele>
        <time>2014-04-13T11:28:23Z</time>
      </trkpt>
      <trkpt lat="47.58734" lon="6.74883">
        <ele>404</ele>
        <time>2014-04-13T11:28:26Z</time>
      </trkpt>
      <trkpt lat="47.58733" lon="6.74899">
        <ele>404</ele>
        <time>2014-04-13T11:28:30Z</time>
      </trkpt>
      <trkpt lat="47.58732" lon="6.74904">
        <ele>404</ele>
        <time>2014-04-13T11:28:31Z</time>
      </trkpt>
      <trkpt lat="47.58731" lon="6.7491">
        <ele>405</ele>
        <time>2014-04-13T11:28:32Z</time>
      </trkpt>
      <trkpt lat="47.5873" lon="6.74916">
        <ele>405</ele>
        <time>2014-04-13T11:28:33Z</time>
      </trkpt>
      <trkpt lat="47.58729" lon="6.74921">
        <ele>406</ele>
        <time>2014-04-13T11:28:34Z</time>
      </trkpt>
      <trkpt lat="47.58729" lon="6.74932">
        <ele>406</ele>
        <time>2014-04-13T11:28:36Z</time>
      </trkpt>
      <trkpt lat="47.58729" lon="6.74938">
        <ele>406</ele>
        <time>2014-04-13T11:28:37Z</time>
      </trkpt>
      <trkpt lat="47.5873" lon="6.74943">
        <ele>406</ele>
        <time>2014-04-13T11:28:38Z</time>
      </trkpt>
      <trkpt lat="47.5873" lon="6.7495">
        <ele>406</ele>
        <time>2014-04-13T11:28:39Z</time>
      </trkpt>
      <trkpt lat="47.5873" lon="6.74956">
        <ele>407</ele>
        <time>2014-04-13T11:28:40Z</time>
      </trkpt>
      <trkpt lat="47.5873" lon="6.74963">
        <ele>407</ele>
        <time>2014-04-13T11:28:41Z</time>
      </trkpt>
      <trkpt lat="47.58731" lon="6.7497">
        <ele>408</ele>
        <time>2014-04-13T11:28:42Z</time>
      </trkpt>
      <trkpt lat="47.58732" lon="6.74976">
        <ele>408</ele>
        <time>2014-04-13T11:28:43Z</time>
      </trkpt>
      <trkpt lat="47.58733" lon="6.74982">
        <ele>408</ele>
        <time>2014-04-13T11:28:44Z</time>
      </trkpt>
      <trkpt lat="47.58736" lon="6.74998">
        <ele>408</ele>
        <time>2014-04-13T11:28:47Z</time>
      </trkpt>
      <trkpt lat="47.58737" lon="6.75004">
        <ele>409</ele>
        <time>2014-04-13T11:28:48Z</time>
      </trkpt>
      <trkpt lat="47.58738" lon="6.75009">
        <ele>409</ele>
        <time>2014-04-13T11:28:49Z</time>
      </trkpt>
      <trkpt lat="47.58739" lon="6.75014">
        <ele>409</ele>
        <time>2014-04-13T11:28:50Z</time>
      </trkpt>
      <trkpt lat="47.5874" lon="6.75019">
        <ele>410</ele>
        <time>2014-04-13T11:28:51Z</time>
      </trkpt>
      <trkpt lat="47.58744" lon="6.75036">
        <ele>410</ele>
        <time>2014-04-13T11:28:54Z</time>
      </trkpt>
      <trkpt lat="47.58745" lon="6.75041">
        <ele>411</ele>
        <time>2014-04-13T11:28:55Z</time>
      </trkpt>
      <trkpt lat="47.58747" lon="6.75047">
        <ele>411</ele>
        <time>2014-04-13T11:28:56Z</time>
      </trkpt>
      <trkpt lat="47.58748" lon="6.75052">
        <ele>412</ele>
        <time>2014-04-13T11:28:57Z</time>
      </trkpt>
      <trkpt lat="47.58749" lon="6.75057">
        <ele>412</ele>
        <time>2014-04-13T11:28:58Z</time>
      </trkpt>
      <trkpt lat="47.58755" lon="6.75071">
        <ele>412</ele>
        <time>2014-04-13T11:29:01Z</time>
      </trkpt>
      <trkpt lat="47.58757" lon="6.75076">
        <ele>412</ele>
        <time>2014-04-13T11:29:02Z</time>
      </trkpt>
      <trkpt lat="47.58759" lon="6.7508">
        <ele>413</ele>
        <time>2014-04-13T11:29:03Z</time>
      </trkpt>
      <trkpt lat="47.5876" lon="6.75085">
        <ele>414</ele>
        <time>2014-04-13T11:29:04Z</time>
      </trkpt>
      <trkpt lat="47.58762" lon="6.75089">
        <ele>414</ele>
        <time>2014-04-13T11:29:05Z</time>
      </trkpt>
      <trkpt lat="47.58764" lon="6.75093">
        <ele>414</ele>
        <time>2014-04-13T11:29:06Z</time>
      </trkpt>
      <trkpt lat="47.5877" lon="6.75107">
        <ele>414</ele>
        <time>2014-04-13T11:29:09Z</time>
      </trkpt>
      <trkpt lat="47.58772" lon="6.75111">
        <ele>415</ele>
        <time>2014-04-13T11:29:10Z</time>
      </trkpt>
      <trkpt lat="47.58774" lon="6.75116">
        <ele>415</ele>
        <time>2014-04-13T11:29:11Z</time>
      </trkpt>
      <trkpt lat="47.58776" lon="6.75121">
        <ele>416</ele>
        <time>2014-04-13T11:29:12Z</time>
      </trkpt>
      <trkpt lat="47.58778" lon="6.75125">
        <ele>416</ele>
        <time>2014-04-13T11:29:13Z</time>
      </trkpt>
      <trkpt lat="47.5879" lon="6.75146">
        <ele>416</ele>
        <time>2014-04-13T11:29:18Z</time>
      </trkpt>
      <trkpt lat="47.58792" lon="6.75151">
        <ele>417</ele>
        <time>2014-04-13T11:29:19Z</time>
      </trkpt>
      <trkpt lat="47.58794" lon="6.75155">
        <ele>417</ele>
        <time>2014-04-13T11:29:20Z</time>
      </trkpt>
      <trkpt lat="47.58797" lon="6.75159">
        <ele>418</ele>
        <time>2014-04-13T11:29:21Z</time>
      </trkpt>
      <trkpt lat="47.58799" lon="6.75163">
        <ele>418</ele>
        <time>2014-04-13T11:29:22Z</time>
      </trkpt>
      <trkpt lat="47.58807" lon="6.75174">
        <ele>418</ele>
        <time>2014-04-13T11:29:25Z</time>
      </trkpt>
      <trkpt lat="47.5881" lon="6.75178">
        <ele>418</ele>
        <time>2014-04-13T11:29:26Z</time>
      </trkpt>
      <trkpt lat="47.58812" lon="6.75182">
        <ele>419</ele>
        <time>2014-04-13T11:29:27Z</time>
      </trkpt>
      <trkpt lat="47.58815" lon="6.75186">
        <ele>420</ele>
        <time>2014-04-13T11:29:28Z</time>
      </trkpt>
      <trkpt lat="47.58817" lon="6.7519">
        <ele>420</ele>
        <time>2014-04-13T11:29:29Z</time>
      </trkpt>
      <trkpt lat="47.58819" lon="6.75194">
        <ele>420</ele>
        <time>2014-04-13T11:29:30Z</time>
      </trkpt>
      <trkpt lat="47.5883" lon="6.75208">
        <ele>420</ele>
        <time>2014-04-13T11:29:34Z</time>
      </trkpt>
      <trkpt lat="47.58833" lon="6.75212">
        <ele>421</ele>
        <time>2014-04-13T11:29:35Z</time>
      </trkpt>
      <trkpt lat="47.58837" lon="6.75216">
        <ele>421</ele>
        <time>2014-04-13T11:29:36Z</time>
      </trkpt>
      <trkpt lat="47.5884" lon="6.75219">
        <ele>422</ele>
        <time>2014-04-13T11:29:37Z</time>
      </trkpt>
      <trkpt lat="47.58844" lon="6.75223">
        <ele>422</ele>
        <time>2014-04-13T11:29:38Z</time>
      </trkpt>
      <trkpt lat="47.58854" lon="6.75234">
        <ele>423</ele>
        <time>2014-04-13T11:29:41Z</time>
      </trkpt>
      <trkpt lat="47.58857" lon="6.75238">
        <ele>423</ele>
        <time>2014-04-13T11:29:42Z</time>
      </trkpt>
      <trkpt lat="47.5886" lon="6.75241">
        <ele>423</ele>
        <time>2014-04-13T11:29:43Z</time>
      </trkpt>
      <trkpt lat="47.58863" lon="6.75245">
        <ele>424</ele>
        <time>2014-04-13T11:29:44Z</time>
      </trkpt>
      <trkpt lat="47.58866" lon="6.75248">
        <ele>424</ele>
        <time>2014-04-13T11:29:45Z</time>
      </trkpt>
      <trkpt lat="47.5888" lon="6.75265">
        <ele>424</ele>
        <time>2014-04-13T11:29:50Z</time>
      </trkpt>
      <trkpt lat="47.58883" lon="6.75268">
        <ele>425</ele>
        <time>2014-04-13T11:29:51Z</time>
      </trkpt>
      <trkpt lat="47.58886" lon="6.75272">
        <ele>426</ele>
        <time>2014-04-13T11:29:52Z</time>
      </trkpt>
      <trkpt lat="47.58888" lon="6.75276">
        <ele>426</ele>
        <time>2014-04-13T11:29:53Z</time>
      </trkpt>
      <trkpt lat="47.5889" lon="6.7528">
        <ele>426</ele>
        <time>2014-04-13T11:29:54Z</time>
      </trkpt>
      <trkpt lat="47.58892" lon="6.75283">
        <ele>426</ele>
        <time>2014-04-13T11:29:55Z</time>
      </trkpt>
      <trkpt lat="47.58901" lon="6.75299">
        <ele>427</ele>
        <time>2014-04-13T11:29:59Z</time>
      </trkpt>
      <trkpt lat="47.58903" lon="6.75303">
        <ele>427</ele>
        <time>2014-04-13T11:30:00Z</time>
      </trkpt>
      <trkpt lat="47.58905" lon="6.75308">
        <ele>428</ele>
        <time>2014-04-13T11:30:01Z</time>
      </trkpt>
      <trkpt lat="47.58906" lon="6.75312">
        <ele>428</ele>
        <time>2014-04-13T11:30:02Z</time>
      </trkpt>
      <trkpt lat="47.58907" lon="6.75316">
        <ele>428</ele>
        <time>2014-04-13T11:30:03Z</time>
      </trkpt>
      <trkpt lat="47.58912" lon="6.7533">
        <ele>428</ele>
        <time>2014-04-13T11:30:06Z</time>
      </trkpt>
      <trkpt lat="47.58917" lon="6.75345">
        <ele>429</ele>
        <time>2014-04-13T11:30:09Z</time>
      </trkpt>
      <trkpt lat="47.58918" lon="6.7535">
        <ele>429</ele>
        <time>2014-04-13T11:30:10Z</time>
      </trkpt>
      <trkpt lat="47.5892" lon="6.75355">
        <ele>430</ele>
        <time>2014-04-13T11:30:11Z</time>
      </trkpt>
      <trkpt lat="47.58922" lon="6.7536">
        <ele>430</ele>
        <time>2014-04-13T11:30:12Z</time>
      </trkpt>
      <trkpt lat="47.58924" lon="6.75366">
        <ele>430</ele>
        <time>2014-04-13T11:30:13Z</time>
      </trkpt>
      <trkpt lat="47.58932" lon="6.75384">
        <ele>431</ele>
        <time>2014-04-13T11:30:17Z</time>
      </trkpt>
      <trkpt lat="47.58934" lon="6.75389">
        <ele>432</ele>
        <time>2014-04-13T11:30:18Z</time>
      </trkpt>
      <trkpt lat="47.58935" lon="6.75394">
        <ele>432</ele>
        <time>2014-04-13T11:30:19Z</time>
      </trkpt>
      <trkpt lat="47.58937" lon="6.75399">
        <ele>433</ele>
        <time>2014-04-13T11:30:20Z</time>
      </trkpt>
      <trkpt lat="47.58943" lon="6.75415">
        <ele>433</ele>
        <time>2014-04-13T11:30:23Z</time>
      </trkpt>
      <trkpt lat="47.58947" lon="6.75425">
        <ele>433</ele>
        <time>2014-04-13T11:30:25Z</time>
      </trkpt>
      <trkpt lat="47.58949" lon="6.75431">
        <ele>433</ele>
        <time>2014-04-13T11:30:26Z</time>
      </trkpt>
      <trkpt lat="47.58951" lon="6.75436">
        <ele>434</ele>
        <time>2014-04-13T11:30:27Z</time>
      </trkpt>
      <trkpt lat="47.58952" lon="6.75441">
        <ele>434</ele>
        <time>2014-04-13T11:30:28Z</time>
      </trkpt>
      <trkpt lat="47.58954" lon="6.75447">
        <ele>435</ele>
        <time>2014-04-13T11:30:29Z</time>
      </trkpt>
      <trkpt lat="47.58961" lon="6.75472">
        <ele>435</ele>
        <time>2014-04-13T11:30:34Z</time>
      </trkpt>
      <trkpt lat="47.58962" lon="6.75477">
        <ele>435</ele>
        <time>2014-04-13T11:30:35Z</time>
      </trkpt>
      <trkpt lat="47.58963" lon="6.75483">
        <ele>436</ele>
        <time>2014-04-13T11:30:36Z</time>
      </trkpt>
      <trkpt lat="47.58964" lon="6.75487">
        <ele>436</ele>
        <time>2014-04-13T11:30:37Z</time>
      </trkpt>
      <trkpt lat="47.58965" lon="6.75493">
        <ele>437</ele>
        <time>2014-04-13T11:30:38Z</time>
      </trkpt>
      <trkpt lat="47.58968" lon="6.75509">
        <ele>437</ele>
        <time>2014-04-13T11:30:41Z</time>
      </trkpt>
      <trkpt lat="47.58968" lon="6.75515">
        <ele>437</ele>
        <time>2014-04-13T11:30:42Z</time>
      </trkpt>
      <trkpt lat="47.58969" lon="6.75521">
        <ele>438</ele>
        <time>2014-04-13T11:30:43Z</time>
      </trkpt>
      <trkpt lat="47.5897" lon="6.75527">
        <ele>438</ele>
        <time>2014-04-13T11:30:44Z</time>
      </trkpt>
      <trkpt lat="47.58971" lon="6.75532">
        <ele>438</ele>
        <time>2014-04-13T11:30:45Z</time>
      </trkpt>
      <trkpt lat="47.58972" lon="6.75537">
        <ele>439</ele>
        <time>2014-04-13T11:30:46Z</time>
      </trkpt>
      <trkpt lat="47.58976" lon="6.75557">
        <ele>439</ele>
        <time>2014-04-13T11:30:50Z</time>
      </trkpt>
      <trkpt lat="47.58978" lon="6.75563">
        <ele>439</ele>
        <time>2014-04-13T11:30:51Z</time>
      </trkpt>
      <trkpt lat="47.58979" lon="6.75568">
        <ele>440</ele>
        <time>2014-04-13T11:30:52Z</time>
      </trkpt>
      <trkpt lat="47.5898" lon="6.75574">
        <ele>440</ele>
        <time>2014-04-13T11:30:53Z</time>
      </trkpt>
      <trkpt lat="47.58981" lon="6.75579">
        <ele>441</ele>
        <time>2014-04-13T11:30:54Z</time>
      </trkpt>
      <trkpt lat="47.58983" lon="6.75584">
        <ele>441</ele>
        <time>2014-04-13T11:30:55Z</time>
      </trkpt>
      <trkpt lat="47.5899" lon="6.75608">
        <ele>441</ele>
        <time>2014-04-13T11:31:00Z</time>
      </trkpt>
      <trkpt lat="47.58992" lon="6.75613">
        <ele>442</ele>
        <time>2014-04-13T11:31:01Z</time>
      </trkpt>
      <trkpt lat="47.58994" lon="6.75617">
        <ele>442</ele>
        <time>2014-04-13T11:31:02Z</time>
      </trkpt>
      <trkpt lat="47.58995" lon="6.75621">
        <ele>443</ele>
        <time>2014-04-13T11:31:03Z</time>
      </trkpt>
      <trkpt lat="47.58996" lon="6.75627">
        <ele>443</ele>
        <time>2014-04-13T11:31:04Z</time>
      </trkpt>
      <trkpt lat="47.59001" lon="6.75648">
        <ele>444</ele>
        <time>2014-04-13T11:31:08Z</time>
      </trkpt>
      <trkpt lat="47.59003" lon="6.75653">
        <ele>444</ele>
        <time>2014-04-13T11:31:09Z</time>
      </trkpt>
      <trkpt lat="47.59004" lon="6.75658">
        <ele>444</ele>
        <time>2014-04-13T11:31:10Z</time>
      </trkpt>
      <trkpt lat="47.59005" lon="6.75662">
        <ele>445</ele>
        <time>2014-04-13T11:31:11Z</time>
      </trkpt>
      <trkpt lat="47.59006" lon="6.75667">
        <ele>445</ele>
        <time>2014-04-13T11:31:12Z</time>
      </trkpt>
      <trkpt lat="47.59007" lon="6.75672">
        <ele>445</ele>
        <time>2014-04-13T11:31:13Z</time>
      </trkpt>
      <trkpt lat="47.59009" lon="6.75682">
        <ele>446</ele>
        <time>2014-04-13T11:31:15Z</time>
      </trkpt>
      <trkpt lat="47.5901" lon="6.75687">
        <ele>446</ele>
        <time>2014-04-13T11:31:16Z</time>
      </trkpt>
      <trkpt lat="47.59012" lon="6.75692">
        <ele>446</ele>
        <time>2014-04-13T11:31:17Z</time>
      </trkpt>
      <trkpt lat="47.59013" lon="6.75697">
        <ele>447</ele>
        <time>2014-04-13T11:31:18Z</time>
      </trkpt>
      <trkpt lat="47.59014" lon="6.75701">
        <ele>447</ele>
        <time>2014-04-13T11:31:19Z</time>
      </trkpt>
      <trkpt lat="47.59016" lon="6.75705">
        <ele>447</ele>
        <time>2014-04-13T11:31:20Z</time>
      </trkpt>
      <trkpt lat="47.59024" lon="6.75723">
        <ele>448</ele>
        <time>2014-04-13T11:31:24Z</time>
      </trkpt>
      <trkpt lat="47.59026" lon="6.75727">
        <ele>448</ele>
        <time>2014-04-13T11:31:25Z</time>
      </trkpt>
      <trkpt lat="47.59029" lon="6.75731">
        <ele>449</ele>
        <time>2014-04-13T11:31:26Z</time>
      </trkpt>
      <trkpt lat="47.59031" lon="6.75735">
        <ele>449</ele>
        <time>2014-04-13T11:31:27Z</time>
      </trkpt>
      <trkpt lat="47.59033" lon="6.75739">
        <ele>449</ele>
        <time>2014-04-13T11:31:28Z</time>
      </trkpt>
      <trkpt lat="47.59046" lon="6.75763">
        <ele>450</ele>
        <time>2014-04-13T11:31:34Z</time>
      </trkpt>
      <trkpt lat="47.59048" lon="6.75767">
        <ele>450</ele>
        <time>2014-04-13T11:31:35Z</time>
      </trkpt>
      <trkpt lat="47.5905" lon="6.75771">
        <ele>451</ele>
        <time>2014-04-13T11:31:36Z</time>
      </trkpt>
      <trkpt lat="47.59052" lon="6.75774">
        <ele>451</ele>
        <time>2014-04-13T11:31:37Z</time>
      </trkpt>
      <trkpt lat="47.59055" lon="6.75778">
        <ele>451</ele>
        <time>2014-04-13T11:31:38Z</time>
      </trkpt>
      <trkpt lat="47.59059" lon="6.75786">
        <ele>451</ele>
        <time>2014-04-13T11:31:40Z</time>
      </trkpt>
      <trkpt lat="47.59068" lon="6.75802">
        <ele>452</ele>
        <time>2014-04-13T11:31:44Z</time>
      </trkpt>
      <trkpt lat="47.5907" lon="6.75806">
        <ele>452</ele>
        <time>2014-04-13T11:31:45Z</time>
      </trkpt>
      <trkpt lat="47.59072" lon="6.7581">
        <ele>453</ele>
        <time>2014-04-13T11:31:46Z</time>
      </trkpt>
      <trkpt lat="47.59075" lon="6.75814">
        <ele>453</ele>
        <time>2014-04-13T11:31:47Z</time>
      </trkpt>
      <trkpt lat="47.59077" lon="6.75818">
        <ele>453</ele>
        <time>2014-04-13T11:31:48Z</time>
      </trkpt>
      <trkpt lat="47.59087" lon="6.75837">
        <ele>454</ele>
        <time>2014-04-13T11:31:53Z</time>
      </trkpt>
      <trkpt lat="47.59089" lon="6.75842">
        <ele>454</ele>
        <time>2014-04-13T11:31:54Z</time>
      </trkpt>
      <trkpt lat="47.59091" lon="6.75845">
        <ele>455</ele>
        <time>2014-04-13T11:31:55Z</time>
      </trkpt>
      <trkpt lat="47.59093" lon="6.75849">
        <ele>455</ele>
        <time>2014-04-13T11:31:56Z</time>
      </trkpt>
      <trkpt lat="47.59095" lon="6.75853">
        <ele>456</ele>
        <time>2014-04-13T11:31:57Z</time>
      </trkpt>
      <trkpt lat="47.59101" lon="6.75864">
        <ele>456</ele>
        <time>2014-04-13T11:32:00Z</time>
      </trkpt>
      <trkpt lat="47.59105" lon="6.75871">
        <ele>456</ele>
        <time>2014-04-13T11:32:02Z</time>
      </trkpt>
      <trkpt lat="47.59107" lon="6.75874">
        <ele>456</ele>
        <time>2014-04-13T11:32:03Z</time>
      </trkpt>
      <trkpt lat="47.59109" lon="6.75878">
        <ele>457</ele>
        <time>2014-04-13T11:32:04Z</time>
      </trkpt>
      <trkpt lat="47.59111" lon="6.75882">
        <ele>457</ele>
        <time>2014-04-13T11:32:05Z</time>
      </trkpt>
      <trkpt lat="47.59113" lon="6.75887">
        <ele>458</ele>
        <time>2014-04-13T11:32:06Z</time>
      </trkpt>
      <trkpt lat="47.59122" lon="6.75906">
        <ele>458</ele>
        <time>2014-04-13T11:32:11Z</time>
      </trkpt>
      <trkpt lat="47.59124" lon="6.7591">
        <ele>458</ele>
        <time>2014-04-13T11:32:12Z</time>
      </trkpt>
      <trkpt lat="47.59126" lon="6.75915">
        <ele>459</ele>
        <time>2014-04-13T11:32:13Z</time>
      </trkpt>
      <trkpt lat="47.59127" lon="6.75919">
        <ele>459</ele>
        <time>2014-04-13T11:32:14Z</time>
      </trkpt>
      <trkpt lat="47.59129" lon="6.75924">
        <ele>459</ele>
        <time>2014-04-13T11:32:15Z</time>
      </trkpt>
      <trkpt lat="47.59131" lon="6.75928">
        <ele>460</ele>
        <time>2014-04-13T11:32:16Z</time>
      </trkpt>
      <trkpt lat="47.59135" lon="6.75942">
        <ele>460</ele>
        <time>2014-04-13T11:32:19Z</time>
      </trkpt>
      <trkpt lat="47.59139" lon="6.7595">
        <ele>460</ele>
        <time>2014-04-13T11:32:21Z</time>
      </trkpt>
      <trkpt lat="47.5914" lon="6.75954">
        <ele>461</ele>
        <time>2014-04-13T11:32:22Z</time>
      </trkpt>
      <trkpt lat="47.59142" lon="6.75958">
        <ele>461</ele>
        <time>2014-04-13T11:32:23Z</time>
      </trkpt>
      <trkpt lat="47.59144" lon="6.75963">
        <ele>461</ele>
        <time>2014-04-13T11:32:24Z</time>
      </trkpt>
      <trkpt lat="47.59145" lon="6.75967">
        <ele>462</ele>
        <time>2014-04-13T11:32:25Z</time>
      </trkpt>
      <trkpt lat="47.59147" lon="6.75971">
        <ele>462</ele>
        <time>2014-04-13T11:32:26Z</time>
      </trkpt>
      <trkpt lat="47.59157" lon="6.75994">
        <ele>462</ele>
        <time>2014-04-13T11:32:32Z</time>
      </trkpt>
      <trkpt lat="47.59159" lon="6.75998">
        <ele>463</ele>
        <time>2014-04-13T11:32:33Z</time>
      </trkpt>
      <trkpt lat="47.5916" lon="6.76003">
        <ele>463</ele>
        <time>2014-04-13T11:32:34Z</time>
      </trkpt>
      <trkpt lat="47.59162" lon="6.76006">
        <ele>463</ele>
        <time>2014-04-13T11:32:35Z</time>
      </trkpt>
      <trkpt lat="47.59164" lon="6.7601">
        <ele>464</ele>
        <time>2014-04-13T11:32:36Z</time>
      </trkpt>
      <trkpt lat="47.59169" lon="6.76022">
        <ele>464</ele>
        <time>2014-04-13T11:32:39Z</time>
      </trkpt>
      <trkpt lat="47.59172" lon="6.7603">
        <ele>464</ele>
        <time>2014-04-13T11:32:41Z</time>
      </trkpt>
      <trkpt lat="47.59174" lon="6.76034">
        <ele>465</ele>
        <time>2014-04-13T11:32:42Z</time>
      </trkpt>
      <trkpt lat="47.59175" lon="6.76038">
        <ele>465</ele>
        <time>2014-04-13T11:32:43Z</time>
      </trkpt>
      <trkpt lat="47.59177" lon="6.76042">
        <ele>466</ele>
        <time>2014-04-13T11:32:44Z</time>
      </trkpt>
      <trkpt lat="47.59179" lon="6.76046">
        <ele>466</ele>
        <time>2014-04-13T11:32:45Z</time>
      </trkpt>
      <trkpt lat="47.59182" lon="6.76055">
        <ele>466</ele>
        <time>2014-04-13T11:32:47Z</time>
      </trkpt>
      <trkpt lat="47.59189" lon="6.76071">
        <ele>466</ele>
        <time>2014-04-13T11:32:51Z</time>
      </trkpt>
      <trkpt lat="47.59191" lon="6.76075">
        <ele>467</ele>
        <time>2014-04-13T11:32:52Z</time>
      </trkpt>
      <trkpt lat="47.59192" lon="6.76079">
        <ele>467</ele>
        <time>2014-04-13T11:32:53Z</time>
      </trkpt>
      <trkpt lat="47.59194" lon="6.76084">
        <ele>468</ele>
        <time>2014-04-13T11:32:54Z</time>
      </trkpt>
      <trkpt lat="47.59195" lon="6.76088">
        <ele>468</ele>
        <time>2014-04-13T11:32:55Z</time>
      </trkpt>
      <trkpt lat="47.59203" lon="6.7611">
        <ele>468</ele>
        <time>2014-04-13T11:33:00Z</time>
      </trkpt>
      <trkpt lat="47.59207" lon="6.76123">
        <ele>469</ele>
        <time>2014-04-13T11:33:03Z</time>
      </trkpt>
      <trkpt lat="47.59208" lon="6.76128">
        <ele>469</ele>
        <time>2014-04-13T11:33:04Z</time>
      </trkpt>
      <trkpt lat="47.5921" lon="6.76132">
        <ele>469</ele>
        <time>2014-04-13T11:33:05Z</time>
      </trkpt>
      <trkpt lat="47.59211" lon="6.76137">
        <ele>470</ele>
        <time>2014-04-13T11:33:06Z</time>
      </trkpt>
      <trkpt lat="47.59213" lon="6.7614">
        <ele>470</ele>
        <time>2014-04-13T11:33:07Z</time>
      </trkpt>
      <trkpt lat="47.59225" lon="6.76155">
        <ele>471</ele>
        <time>2014-04-13T11:33:12Z</time>
      </trkpt>
      <trkpt lat="47.59228" lon="6.76156">
        <ele>471</ele>
        <time>2014-04-13T11:33:13Z</time>
      </trkpt>
      <trkpt lat="47.59231" lon="6.76157">
        <ele>472</ele>
        <time>2014-04-13T11:33:14Z</time>
      </trkpt>
      <trkpt lat="47.59234" lon="6.76158">
        <ele>472</ele>
        <time>2014-04-13T11:33:15Z</time>
      </trkpt>
      <trkpt lat="47.59237" lon="6.76156">
        <ele>473</ele>
        <time>2014-04-13T11:33:16Z</time>
      </trkpt>
      <trkpt lat="47.5924" lon="6.76154">
        <ele>473</ele>
        <time>2014-04-13T11:33:17Z</time>
      </trkpt>
      <trkpt lat="47.59245" lon="6.76148">
        <ele>473</ele>
        <time>2014-04-13T11:33:19Z</time>
      </trkpt>
      <trkpt lat="47.59247" lon="6.76145">
        <ele>473</ele>
        <time>2014-04-13T11:33:20Z</time>
      </trkpt>
      <trkpt lat="47.59248" lon="6.76142">
        <ele>474</ele>
        <time>2014-04-13T11:33:21Z</time>
      </trkpt>
      <trkpt lat="47.5925" lon="6.76139">
        <ele>474</ele>
        <time>2014-04-13T11:33:22Z</time>
      </trkpt>
      <trkpt lat="47.59251" lon="6.76135">
        <ele>475</ele>
        <time>2014-04-13T11:33:23Z</time>
      </trkpt>
      <trkpt lat="47.59251" lon="6.76118">
        <ele>475</ele>
        <time>2014-04-13T11:33:27Z</time>
      </trkpt>
      <trkpt lat="47.59248" lon="6.76101">
        <ele>475</ele>
        <time>2014-04-13T11:33:31Z</time>
      </trkpt>
      <trkpt lat="47.59247" lon="6.76097">
        <ele>476</ele>
        <time>2014-04-13T11:33:32Z</time>
      </trkpt>
      <trkpt lat="47.59246" lon="6.76092">
        <ele>476</ele>
        <time>2014-04-13T11:33:33Z</time>
      </trkpt>
      <trkpt lat="47.59245" lon="6.76087">
        <ele>476</ele>
        <time>2014-04-13T11:33:34Z</time>
      </trkpt>
      <trkpt lat="47.59244" lon="6.76083">
        <ele>477</ele>
        <time>2014-04-13T11:33:35Z</time>
      </trkpt>
      <trkpt lat="47.5924" lon="6.76058">
        <ele>477</ele>
        <time>2014-04-13T11:33:41Z</time>
      </trkpt>
      <trkpt lat="47.59239" lon="6.7605">
        <ele>477</ele>
        <time>2014-04-13T11:33:43Z</time>
      </trkpt>
      <trkpt lat="47.59239" lon="6.76045">
        <ele>478</ele>
        <time>2014-04-13T11:33:44Z</time>
      </trkpt>
      <trkpt lat="47.59239" lon="6.7604">
        <ele>478</ele>
        <time>2014-04-13T11:33:45Z</time>
      </trkpt>
      <trkpt lat="47.5924" lon="6.76035">
        <ele>478</ele>
        <time>2014-04-13T11:33:46Z</time>
      </trkpt>
      <trkpt lat="47.5924" lon="6.7603">
        <ele>479</ele>
        <time>2014-04-13T11:33:47Z</time>
      </trkpt>
      <trkpt lat="47.59242" lon="6.76007">
        <ele>479</ele>
        <time>2014-04-13T11:33:52Z</time>
      </trkpt>
      <trkpt lat="47.59243" lon="6.75998">
        <ele>479</ele>
        <time>2014-04-13T11:33:54Z</time>
      </trkpt>
      <trkpt lat="47.59244" lon="6.75993">
        <ele>480</ele>
        <time>2014-04-13T11:33:55Z</time>
      </trkpt>
      <trkpt lat="47.59244" lon="6.75988">
        <ele>480</ele>
        <time>2014-04-13T11:33:56Z</time>
      </trkpt>
      <trkpt lat="47.59245" lon="6.75983">
        <ele>481</ele>
        <time>2014-04-13T11:33:57Z</time>
      </trkpt>
      <trkpt lat="47.59245" lon="6.75978">
        <ele>481</ele>
        <time>2014-04-13T11:33:58Z</time>
      </trkpt>
      <trkpt lat="47.59246" lon="6.75974">
        <ele>481</ele>
        <time>2014-04-13T11:33:59Z</time>
      </trkpt>
      <trkpt lat="47.59248" lon="6.75957">
        <ele>482</ele>
        <time>2014-04-13T11:34:03Z</time>
      </trkpt>
      <trkpt lat="47.59249" lon="6.75953">
        <ele>482</ele>
        <time>2014-04-13T11:34:04Z</time>
      </trkpt>
      <trkpt lat="47.5925" lon="6.7595">
        <ele>482</ele>
        <time>2014-04-13T11:34:05Z</time>
      </trkpt>
      <trkpt lat="47.59251" lon="6.75946">
        <ele>483</ele>
        <time>2014-04-13T11:34:06Z</time>
      </trkpt>
      <trkpt lat="47.59253" lon="6.75942">
        <ele>483</ele>
        <time>2014-04-13T11:34:07Z</time>
      </trkpt>
      <trkpt lat="47.59259" lon="6.75926">
        <ele>483</ele>
        <time>2014-04-13T11:34:11Z</time>
      </trkpt>
      <trkpt lat="47.59266" lon="6.75912">
        <ele>484</ele>
        <time>2014-04-13T11:34:15Z</time>
      </trkpt>
      <trkpt lat="47.59268" lon="6.75909">
        <ele>484</ele>
        <time>2014-04-13T11:34:16Z</time>
      </trkpt>
      <trkpt lat="47.59269" lon="6.75905">
        <ele>484</ele>
        <time>2014-04-13T11:34:17Z</time>
      </trkpt>
      <trkpt lat="47.59271" lon="6.75901">
        <ele>485</ele>
        <time>2014-04-13T11:34:18Z</time>
      </trkpt>
      <trkpt lat="47.59273" lon="6.75897">
        <ele>485</ele>
        <time>2014-04-13T11:34:19Z</time>
      </trkpt>
      <trkpt lat="47.5928" lon="6.75881">
        <ele>485</ele>
        <time>2014-04-13T11:34:23Z</time>
      </trkpt>
      <trkpt lat="47.59283" lon="6.75874">
        <ele>486</ele>
        <time>2014-04-13T11:34:25Z</time>
      </trkpt>
      <trkpt lat="47.59285" lon="6.75871">
        <ele>487</ele>
        <time>2014-04-13T11:34:26Z</time>
      </trkpt>
      <trkpt lat="47.59287" lon="6.75867">
        <ele>487</ele>
        <time>2014-04-13T11:34:27Z</time>
      </trkpt>
      <trkpt lat="47.59289" lon="6.75863">
        <ele>487</ele>
        <time>2014-04-13T11:34:28Z</time>
      </trkpt>
      <trkpt lat="47.59299" lon="6.75841">
        <ele>487</ele>
        <time>2014-04-13T11:34:34Z</time>
      </trkpt>
      <trkpt lat="47.59301" lon="6.75837">
        <ele>488</ele>
        <time>2014-04-13T11:34:35Z</time>
      </trkpt>
      <trkpt lat="47.59303" lon="6.75834">
        <ele>488</ele>
        <time>2014-04-13T11:34:36Z</time>
      </trkpt>
      <trkpt lat="47.59304" lon="6.7583">
        <ele>489</ele>
        <time>2014-04-13T11:34:37Z</time>
      </trkpt>
      <trkpt lat="47.59305" lon="6.75827">
        <ele>489</ele>
        <time>2014-04-13T11:34:38Z</time>
      </trkpt>
      <trkpt lat="47.59307" lon="6.75823">
        <ele>489</ele>
        <time>2014-04-13T11:34:39Z</time>
      </trkpt>
      <trkpt lat="47.59308" lon="6.75819">
        <ele>489</ele>
        <time>2014-04-13T11:34:40Z</time>
      </trkpt>
      <trkpt lat="47.59314" lon="6.75794">
        <ele>490</ele>
        <time>2014-04-13T11:34:46Z</time>
      </trkpt>
      <trkpt lat="47.59314" lon="6.7579">
        <ele>490</ele>
        <time>2014-04-13T11:34:47Z</time>
      </trkpt>
      <trkpt lat="47.59315" lon="6.75786">
        <ele>491</ele>
        <time>2014-04-13T11:34:48Z</time>
      </trkpt>
      <trkpt lat="47.59317" lon="6.75782">
        <ele>491</ele>
        <time>2014-04-13T11:34:49Z</time>
      </trkpt>
      <trkpt lat="47.59317" lon="6.75777">
        <ele>491</ele>
        <time>2014-04-13T11:34:50Z</time>
      </trkpt>
      <trkpt lat="47.59319" lon="6.75768">
        <ele>491</ele>
        <time>2014-04-13T11:34:52Z</time>
      </trkpt>
      <trkpt lat="47.59322" lon="6.75754">
        <ele>492</ele>
        <time>2014-04-13T11:34:55Z</time>
      </trkpt>
      <trkpt lat="47.59322" lon="6.7575">
        <ele>492</ele>
        <time>2014-04-13T11:34:56Z</time>
      </trkpt>
      <trkpt lat="47.59323" lon="6.75745">
        <ele>493</ele>
        <time>2014-04-13T11:34:57Z</time>
      </trkpt>
      <trkpt lat="47.59324" lon="6.75741">
        <ele>493</ele>
        <time>2014-04-13T11:34:58Z</time>
      </trkpt>
      <trkpt lat="47.59324" lon="6.75736">
        <ele>494</ele>
        <time>2014-04-13T11:34:59Z</time>
      </trkpt>
      <trkpt lat="47.59327" lon="6.75721">
        <ele>494</ele>
        <time>2014-04-13T11:35:03Z</time>
      </trkpt>
      <trkpt lat="47.5933" lon="6.75704">
        <ele>494</ele>
        <time>2014-04-13T11:35:07Z</time>
      </trkpt>
      <trkpt lat="47.5933" lon="6.75699">
        <ele>494</ele>
        <time>2014-04-13T11:35:08Z</time>
      </trkpt>
      <trkpt lat="47.59331" lon="6.75695">
        <ele>495</ele>
        <time>2014-04-13T11:35:09Z</time>
      </trkpt>
      <trkpt lat="47.59332" lon="6.75691">
        <ele>495</ele>
        <time>2014-04-13T11:35:10Z</time>
      </trkpt>
      <trkpt lat="47.59332" lon="6.75687">
        <ele>496</ele>
        <time>2014-04-13T11:35:11Z</time>
      </trkpt>
      <trkpt lat="47.59333" lon="6.75678">
        <ele>496</ele>
        <time>2014-04-13T11:35:13Z</time>
      </trkpt>
      <trkpt lat="47.59335" lon="6.75665">
        <ele>496</ele>
        <time>2014-04-13T11:35:16Z</time>
      </trkpt>
      <trkpt lat="47.59335" lon="6.75661">
        <ele>496</ele>
        <time>2014-04-13T11:35:17Z</time>
      </trkpt>
      <trkpt lat="47.59335" lon="6.75657">
        <ele>497</ele>
        <time>2014-04-13T11:35:18Z</time>
      </trkpt>
      <trkpt lat="47.59336" lon="6.75652">
        <ele>497</ele>
        <time>2014-04-13T11:35:19Z</time>
      </trkpt>
      <trkpt lat="47.59336" lon="6.75648">
        <ele>498</ele>
        <time>2014-04-13T11:35:20Z</time>
      </trkpt>
      <trkpt lat="47.59339" lon="6.75634">
        <ele>498</ele>
        <time>2014-04-13T11:35:23Z</time>
      </trkpt>
      <trkpt lat="47.59341" lon="6.7561">
        <ele>498</ele>
        <time>2014-04-13T11:35:28Z</time>
      </trkpt>
      <trkpt lat="47.59341" lon="6.75606">
        <ele>498</ele>
        <time>2014-04-13T11:35:29Z</time>
      </trkpt>
      <trkpt lat="47.59342" lon="6.75602">
        <ele>498</ele>
        <time>2014-04-13T11:35:30Z</time>
      </trkpt>
      <trkpt lat="47.59342" lon="6.75597">
        <ele>499</ele>
        <time>2014-04-13T11:35:31Z</time>
      </trkpt>
      <trkpt lat="47.59341" lon="6.75592">
        <ele>499</ele>
        <time>2014-04-13T11:35:32Z</time>
      </trkpt>
      <trkpt lat="47.59342" lon="6.75587">
        <ele>500</ele>
        <time>2014-04-13T11:35:33Z</time>
      </trkpt>
      <trkpt lat="47.59343" lon="6.75582">
        <ele>500</ele>
        <time>2014-04-13T11:35:34Z</time>
      </trkpt>
      <trkpt lat="47.59343" lon="6.75563">
        <ele>500</ele>
        <time>2014-04-13T11:35:38Z</time>
      </trkpt>
      <trkpt lat="47.59343" lon="6.75558">
        <ele>501</ele>
        <time>2014-04-13T11:35:39Z</time>
      </trkpt>
      <trkpt lat="47.59343" lon="6.75553">
        <ele>502</ele>
        <time>2014-04-13T11:35:40Z</time>
      </trkpt>
      <trkpt lat="47.59343" lon="6.75548">
        <ele>502</ele>
        <time>2014-04-13T11:35:41Z</time>
      </trkpt>
      <trkpt lat="47.59343" lon="6.75535">
        <ele>502</ele>
        <time>2014-04-13T11:35:44Z</time>
      </trkpt>
      <trkpt lat="47.59344" lon="6.7553">
        <ele>503</ele>
        <time>2014-04-13T11:35:45Z</time>
      </trkpt>
      <trkpt lat="47.59344" lon="6.75525">
        <ele>503</ele>
        <time>2014-04-13T11:35:46Z</time>
      </trkpt>
      <trkpt lat="47.59344" lon="6.7552">
        <ele>504</ele>
        <time>2014-04-13T11:35:47Z</time>
      </trkpt>
      <trkpt lat="47.59344" lon="6.75515">
        <ele>504</ele>
        <time>2014-04-13T11:35:48Z</time>
      </trkpt>
      <trkpt lat="47.59344" lon="6.75511">
        <ele>504</ele>
        <time>2014-04-13T11:35:49Z</time>
      </trkpt>
      <trkpt lat="47.59345" lon="6.75487">
        <ele>504</ele>
        <time>2014-04-13T11:35:54Z</time>
      </trkpt>
      <trkpt lat="47.59346" lon="6.75474">
        <ele>505</ele>
        <time>2014-04-13T11:35:57Z</time>
      </trkpt>
      <trkpt lat="47.59347" lon="6.75469">
        <ele>505</ele>
        <time>2014-04-13T11:35:58Z</time>
      </trkpt>
      <trkpt lat="47.59348" lon="6.75465">
        <ele>505</ele>
        <time>2014-04-13T11:35:59Z</time>
      </trkpt>
      <trkpt lat="47.59349" lon="6.75462">
        <ele>506</ele>
        <time>2014-04-13T11:36:00Z</time>
      </trkpt>
      <trkpt lat="47.5935" lon="6.75458">
        <ele>506</ele>
        <time>2014-04-13T11:36:01Z</time>
      </trkpt>
      <trkpt lat="47.59353" lon="6.75453">
        <ele>506</ele>
        <time>2014-04-13T11:36:03Z</time>
      </trkpt>
      <trkpt lat="47.59357" lon="6.75448">
        <ele>507</ele>
        <time>2014-04-13T11:36:05Z</time>
      </trkpt>
      <trkpt lat="47.59359" lon="6.75445">
        <ele>507</ele>
        <time>2014-04-13T11:36:06Z</time>
      </trkpt>
      <trkpt lat="47.59361" lon="6.75444">
        <ele>508</ele>
        <time>2014-04-13T11:36:07Z</time>
      </trkpt>
      <trkpt lat="47.59363" lon="6.75442">
        <ele>508</ele>
        <time>2014-04-13T11:36:08Z</time>
      </trkpt>
      <trkpt lat="47.59365" lon="6.75441">
        <ele>508</ele>
        <time>2014-04-13T11:36:09Z</time>
      </trkpt>
      <trkpt lat="47.59373" lon="6.75441">
        <ele>508</ele>
        <time>2014-04-13T11:36:12Z</time>
      </trkpt>
      <trkpt lat="47.59379" lon="6.75446">
        <ele>509</ele>
        <time>2014-04-13T11:36:15Z</time>
      </trkpt>
      <trkpt lat="47.59381" lon="6.75449">
        <ele>509</ele>
        <time>2014-04-13T11:36:16Z</time>
      </trkpt>
      <trkpt lat="47.59383" lon="6.75451">
        <ele>510</ele>
        <time>2014-04-13T11:36:17Z</time>
      </trkpt>
      <trkpt lat="47.59384" lon="6.75454">
        <ele>510</ele>
        <time>2014-04-13T11:36:18Z</time>
      </trkpt>
      <trkpt lat="47.59386" lon="6.75458">
        <ele>510</ele>
        <time>2014-04-13T11:36:19Z</time>
      </trkpt>
      <trkpt lat="47.59395" lon="6.75474">
        <ele>510</ele>
        <time>2014-04-13T11:36:23Z</time>
      </trkpt>
      <trkpt lat="47.59401" lon="6.75487">
        <ele>511</ele>
        <time>2014-04-13T11:36:26Z</time>
      </trkpt>
      <trkpt lat="47.59404" lon="6.75492">
        <ele>511</ele>
        <time>2014-04-13T11:36:27Z</time>
      </trkpt>
      <trkpt lat="47.59407" lon="6.75497">
        <ele>512</ele>
        <time>2014-04-13T11:36:28Z</time>
      </trkpt>
      <trkpt lat="47.59409" lon="6.75501">
        <ele>512</ele>
        <time>2014-04-13T11:36:29Z</time>
      </trkpt>
      <trkpt lat="47.59425" lon="6.75533">
        <ele>512</ele>
        <time>2014-04-13T11:36:36Z</time>
      </trkpt>
      <trkpt lat="47.59429" lon="6.75542">
        <ele>513</ele>
        <time>2014-04-13T11:36:38Z</time>
      </trkpt>
      <trkpt lat="47.59431" lon="6.75547">
        <ele>513</ele>
        <time>2014-04-13T11:36:39Z</time>
      </trkpt>
      <trkpt lat="47.59433" lon="6.75552">
        <ele>514</ele>
        <time>2014-04-13T11:36:40Z</time>
      </trkpt>
      <trkpt lat="47.59436" lon="6.75557">
        <ele>514</ele>
        <time>2014-04-13T11:36:41Z</time>
      </trkpt>
      <trkpt lat="47.59438" lon="6.75562">
        <ele>514</ele>
        <time>2014-04-13T11:36:42Z</time>
      </trkpt>
      <trkpt lat="47.59457" lon="6.75601">
        <ele>514</ele>
        <time>2014-04-13T11:36:50Z</time>
      </trkpt>
      <trkpt lat="47.59459" lon="6.75606">
        <ele>514</ele>
        <time>2014-04-13T11:36:51Z</time>
      </trkpt>
      <trkpt lat="47.59462" lon="6.75611">
        <ele>515</ele>
        <time>2014-04-13T11:36:52Z</time>
      </trkpt>
      <trkpt lat="47.59464" lon="6.75616">
        <ele>516</ele>
        <time>2014-04-13T11:36:53Z</time>
      </trkpt>
      <trkpt lat="47.59466" lon="6.75621">
        <ele>516</ele>
        <time>2014-04-13T11:36:54Z</time>
      </trkpt>
      <trkpt lat="47.59469" lon="6.75625">
        <ele>517</ele>
        <time>2014-04-13T11:36:55Z</time>
      </trkpt>
      <trkpt lat="47.59474" lon="6.75634">
        <ele>517</ele>
        <time>2014-04-13T11:36:57Z</time>
      </trkpt>
      <trkpt lat="47.59486" lon="6.75658">
        <ele>517</ele>
        <time>2014-04-13T11:37:02Z</time>
      </trkpt>
      <trkpt lat="47.59491" lon="6.75668">
        <ele>517</ele>
        <time>2014-04-13T11:37:04Z</time>
      </trkpt>
      <trkpt lat="47.59493" lon="6.75673">
        <ele>517</ele>
        <time>2014-04-13T11:37:05Z</time>
      </trkpt>
      <trkpt lat="47.59496" lon="6.75677">
        <ele>518</ele>
        <time>2014-04-13T11:37:06Z</time>
      </trkpt>
      <trkpt lat="47.59499" lon="6.75682">
        <ele>518</ele>
        <time>2014-04-13T11:37:07Z</time>
      </trkpt>
      <trkpt lat="47.59501" lon="6.75686">
        <ele>519</ele>
        <time>2014-04-13T11:37:08Z</time>
      </trkpt>
      <trkpt lat="47.59503" lon="6.75691">
        <ele>519</ele>
        <time>2014-04-13T11:37:09Z</time>
      </trkpt>
      <trkpt lat="47.59517" lon="6.75719">
        <ele>519</ele>
        <time>2014-04-13T11:37:15Z</time>
      </trkpt>
      <trkpt lat="47.59523" lon="6.75733">
        <ele>520</ele>
        <time>2014-04-13T11:37:18Z</time>
      </trkpt>
      <trkpt lat="47.59525" lon="6.75737">
        <ele>520</ele>
        <time>2014-04-13T11:37:19Z</time>
      </trkpt>
      <trkpt lat="47.59527" lon="6.75742">
        <ele>520</ele>
        <time>2014-04-13T11:37:20Z</time>
      </trkpt>
      <trkpt lat="47.59529" lon="6.75747">
        <ele>521</ele>
        <time>2014-04-13T11:37:21Z</time>
      </trkpt>
      <trkpt lat="47.59529" lon="6.7575">
        <ele>521</ele>
        <time>2014-04-13T11:37:22Z</time>
      </trkpt>
      <trkpt lat="47.59532" lon="6.75757">
        <ele>521</ele>
        <time>2014-04-13T11:37:26Z</time>
      </trkpt>
      <trkpt lat="47.59534" lon="6.75759">
        <ele>521</ele>
        <time>2014-04-13T11:37:27Z</time>
      </trkpt>
      <trkpt lat="47.59539" lon="6.75767">
        <ele>521</ele>
        <time>2014-04-13T11:37:32Z</time>
      </trkpt>
      <trkpt lat="47.59539" lon="6.75767">
        <ele>521</ele>
        <time>2014-04-13T11:37:33Z</time>
      </trkpt>
      <trkpt lat="47.59536" lon="6.75765">
        <ele>521</ele>
        <time>2014-04-13T11:37:36Z</time>
      </trkpt>
      <trkpt lat="47.59536" lon="6.75756">
        <ele>521</ele>
        <time>2014-04-13T11:37:40Z</time>
      </trkpt>
      <trkpt lat="47.59536" lon="6.75753">
        <ele>521</ele>
        <time>2014-04-13T11:37:43Z</time>
      </trkpt>
      <trkpt lat="47.5953" lon="6.75754">
        <ele>523</ele>
        <time>2014-04-13T11:44:02Z</time>
      </trkpt>
      <trkpt lat="47.59529" lon="6.75755">
        <ele>523</ele>
        <time>2014-04-13T11:44:03Z</time>
      </trkpt>
      <trkpt lat="47.59527" lon="6.75756">
        <ele>523</ele>
        <time>2014-04-13T11:44:05Z</time>
      </trkpt>
      <trkpt lat="47.59525" lon="6.75759">
        <ele>523</ele>
        <time>2014-04-13T11:44:07Z</time>
      </trkpt>
      <trkpt lat="47.59523" lon="6.7576">
        <ele>522</ele>
        <time>2014-04-13T11:44:08Z</time>
      </trkpt>
      <trkpt lat="47.59523" lon="6.75761">
        <ele>522</ele>
        <time>2014-04-13T11:44:09Z</time>
      </trkpt>
      <trkpt lat="47.59522" lon="6.75762">
        <ele>522</ele>
        <time>2014-04-13T11:44:10Z</time>
      </trkpt>
      <trkpt lat="47.59521" lon="6.75762">
        <ele>521</ele>
        <time>2014-04-13T11:44:11Z</time>
      </trkpt>
      <trkpt lat="47.59512" lon="6.75761">
        <ele>521</ele>
        <time>2014-04-13T11:44:20Z</time>
      </trkpt>
      <trkpt lat="47.59511" lon="6.7576">
        <ele>521</ele>
        <time>2014-04-13T11:44:21Z</time>
      </trkpt>
      <trkpt lat="47.59509" lon="6.7576">
        <ele>521</ele>
        <time>2014-04-13T11:44:24Z</time>
      </trkpt>
      <trkpt lat="47.59508" lon="6.75759">
        <ele>521</ele>
        <time>2014-04-13T11:44:25Z</time>
      </trkpt>
      <trkpt lat="47.59502" lon="6.75756">
        <ele>521</ele>
        <time>2014-04-13T11:44:27Z</time>
      </trkpt>
      <trkpt lat="47.59498" lon="6.75755">
        <ele>520</ele>
        <time>2014-04-13T11:44:28Z</time>
      </trkpt>
      <trkpt lat="47.59494" lon="6.75757">
        <ele>520</ele>
        <time>2014-04-13T11:44:29Z</time>
      </trkpt>
      <trkpt lat="47.59488" lon="6.7576">
        <ele>519</ele>
        <time>2014-04-13T11:44:30Z</time>
      </trkpt>
      <trkpt lat="47.59485" lon="6.75763">
        <ele>519</ele>
        <time>2014-04-13T11:44:31Z</time>
      </trkpt>
      <trkpt lat="47.59484" lon="6.75764">
        <ele>518</ele>
        <time>2014-04-13T11:44:32Z</time>
      </trkpt>
      <trkpt lat="47.59481" lon="6.75769">
        <ele>518</ele>
        <time>2014-04-13T11:44:33Z</time>
      </trkpt>
      <trkpt lat="47.59479" lon="6.75773">
        <ele>518</ele>
        <time>2014-04-13T11:44:35Z</time>
      </trkpt>
      <trkpt lat="47.59478" lon="6.75777">
        <ele>518</ele>
        <time>2014-04-13T11:44:36Z</time>
      </trkpt>
      <trkpt lat="47.59478" lon="6.75781">
        <ele>517</ele>
        <time>2014-04-13T11:44:37Z</time>
      </trkpt>
      <trkpt lat="47.59478" lon="6.75784">
        <ele>517</ele>
        <time>2014-04-13T11:44:38Z</time>
      </trkpt>
      <trkpt lat="47.59477" lon="6.75787">
        <ele>516</ele>
        <time>2014-04-13T11:44:39Z</time>
      </trkpt>
      <trkpt lat="47.59475" lon="6.7579">
        <ele>516</ele>
        <time>2014-04-13T11:44:40Z</time>
      </trkpt>
      <trkpt lat="47.59474" lon="6.75794">
        <ele>515</ele>
        <time>2014-04-13T11:44:41Z</time>
      </trkpt>
      <trkpt lat="47.59472" lon="6.75795">
        <ele>515</ele>
        <time>2014-04-13T11:44:42Z</time>
      </trkpt>
      <trkpt lat="47.59466" lon="6.75795">
        <ele>514</ele>
        <time>2014-04-13T11:44:43Z</time>
      </trkpt>
      <trkpt lat="47.5946" lon="6.75796">
        <ele>513</ele>
        <time>2014-04-13T11:44:44Z</time>
      </trkpt>
      <trkpt lat="47.59454" lon="6.758">
        <ele>512</ele>
        <time>2014-04-13T11:44:45Z</time>
      </trkpt>
      <trkpt lat="47.5945" lon="6.75804">
        <ele>511</ele>
        <time>2014-04-13T11:44:46Z</time>
      </trkpt>
      <trkpt lat="47.59449" lon="6.75807">
        <ele>511</ele>
        <time>2014-04-13T11:44:47Z</time>
      </trkpt>
      <trkpt lat="47.59447" lon="6.75814">
        <ele>510</ele>
        <time>2014-04-13T11:44:48Z</time>
      </trkpt>
      <trkpt lat="47.59447" lon="6.75819">
        <ele>509</ele>
        <time>2014-04-13T11:44:49Z</time>
      </trkpt>
      <trkpt lat="47.59448" lon="6.75824">
        <ele>509</ele>
        <time>2014-04-13T11:44:50Z</time>
      </trkpt>
      <trkpt lat="47.59448" lon="6.75834">
        <ele>509</ele>
        <time>2014-04-13T11:44:52Z</time>
      </trkpt>
      <trkpt lat="47.59441" lon="6.75838">
        <ele>509</ele>
        <time>2014-04-13T11:44:54Z</time>
      </trkpt>
      <trkpt lat="47.59434" lon="6.75844">
        <ele>509</ele>
        <time>2014-04-13T11:44:56Z</time>
      </trkpt>
      <trkpt lat="47.59432" lon="6.75848">
        <ele>508</ele>
        <time>2014-04-13T11:44:57Z</time>
      </trkpt>
      <trkpt lat="47.59432" lon="6.75853">
        <ele>508</ele>
        <time>2014-04-13T11:44:58Z</time>
      </trkpt>
      <trkpt lat="47.59432" lon="6.75859">
        <ele>507</ele>
        <time>2014-04-13T11:44:59Z</time>
      </trkpt>
      <trkpt lat="47.59432" lon="6.75862">
        <ele>507</ele>
        <time>2014-04-13T11:45:00Z</time>
      </trkpt>
      <trkpt lat="47.59434" lon="6.7587">
        <ele>507</ele>
        <time>2014-04-13T11:45:02Z</time>
      </trkpt>
      <trkpt lat="47.59439" lon="6.75888">
        <ele>507</ele>
        <time>2014-04-13T11:45:07Z</time>
      </trkpt>
      <trkpt lat="47.59447" lon="6.75907">
        <ele>507</ele>
        <time>2014-04-13T11:45:13Z</time>
      </trkpt>
      <trkpt lat="47.59454" lon="6.75922">
        <ele>507</ele>
        <time>2014-04-13T11:45:18Z</time>
      </trkpt>
      <trkpt lat="47.59459" lon="6.7594">
        <ele>507</ele>
        <time>2014-04-13T11:45:23Z</time>
      </trkpt>
      <trkpt lat="47.59464" lon="6.75953">
        <ele>507</ele>
        <time>2014-04-13T11:45:27Z</time>
      </trkpt>
      <trkpt lat="47.59465" lon="6.75955">
        <ele>508</ele>
        <time>2014-04-13T11:45:28Z</time>
      </trkpt>
      <trkpt lat="47.59467" lon="6.75958">
        <ele>508</ele>
        <time>2014-04-13T11:45:29Z</time>
      </trkpt>
      <trkpt lat="47.59468" lon="6.75961">
        <ele>508</ele>
        <time>2014-04-13T11:45:30Z</time>
      </trkpt>
      <trkpt lat="47.5947" lon="6.75964">
        <ele>509</ele>
        <time>2014-04-13T11:45:31Z</time>
      </trkpt>
      <trkpt lat="47.59474" lon="6.75971">
        <ele>509</ele>
        <time>2014-04-13T11:45:33Z</time>
      </trkpt>
      <trkpt lat="47.59474" lon="6.75974">
        <ele>509</ele>
        <time>2014-04-13T11:45:34Z</time>
      </trkpt>
      <trkpt lat="47.59477" lon="6.75986">
        <ele>509</ele>
        <time>2014-04-13T11:45:37Z</time>
      </trkpt>
      <trkpt lat="47.59478" lon="6.7599">
        <ele>509</ele>
        <time>2014-04-13T11:45:38Z</time>
      </trkpt>
      <trkpt lat="47.5948" lon="6.76">
        <ele>509</ele>
        <time>2014-04-13T11:45:42Z</time>
      </trkpt>
      <trkpt lat="47.5948" lon="6.76007">
        <ele>509</ele>
        <time>2014-04-13T11:45:46Z</time>
      </trkpt>
      <trkpt lat="47.59481" lon="6.76014">
        <ele>509</ele>
        <time>2014-04-13T11:45:48Z</time>
      </trkpt>
      <trkpt lat="47.59483" lon="6.76032">
        <ele>509</ele>
        <time>2014-04-13T11:45:51Z</time>
      </trkpt>
      <trkpt lat="47.59483" lon="6.76037">
        <ele>509</ele>
        <time>2014-04-13T11:45:52Z</time>
      </trkpt>
      <trkpt lat="47.59482" lon="6.76042">
        <ele>509</ele>
        <time>2014-04-13T11:45:53Z</time>
      </trkpt>
      <trkpt lat="47.5948" lon="6.76053">
        <ele>508</ele>
        <time>2014-04-13T11:45:55Z</time>
      </trkpt>
      <trkpt lat="47.5948" lon="6.76058">
        <ele>508</ele>
        <time>2014-04-13T11:45:56Z</time>
      </trkpt>
      <trkpt lat="47.59479" lon="6.76065">
        <ele>508</ele>
        <time>2014-04-13T11:45:57Z</time>
      </trkpt>
      <trkpt lat="47.59478" lon="6.76066">
        <ele>507</ele>
        <time>2014-04-13T11:45:58Z</time>
      </trkpt>
      <trkpt lat="47.59475" lon="6.76067">
        <ele>507</ele>
        <time>2014-04-13T11:45:59Z</time>
      </trkpt>
      <trkpt lat="47.59472" lon="6.76071">
        <ele>506</ele>
        <time>2014-04-13T11:46:01Z</time>
      </trkpt>
      <trkpt lat="47.5947" lon="6.76078">
        <ele>506</ele>
        <time>2014-04-13T11:46:02Z</time>
      </trkpt>
      <trkpt lat="47.5947" lon="6.76084">
        <ele>506</ele>
        <time>2014-04-13T11:46:03Z</time>
      </trkpt>
      <trkpt lat="47.59472" lon="6.76089">
        <ele>505</ele>
        <time>2014-04-13T11:46:04Z</time>
      </trkpt>
      <trkpt lat="47.59471" lon="6.76093">
        <ele>505</ele>
        <time>2014-04-13T11:46:05Z</time>
      </trkpt>
      <trkpt lat="47.59471" lon="6.76102">
        <ele>505</ele>
        <time>2014-04-13T11:46:07Z</time>
      </trkpt>
      <trkpt lat="47.5947" lon="6.76127">
        <ele>505</ele>
        <time>2014-04-13T11:46:11Z</time>
      </trkpt>
      <trkpt lat="47.59465" lon="6.76131">
        <ele>505</ele>
        <time>2014-04-13T11:46:13Z</time>
      </trkpt>
      <trkpt lat="47.59461" lon="6.76134">
        <ele>505</ele>
        <time>2014-04-13T11:46:14Z</time>
      </trkpt>
      <trkpt lat="47.59457" lon="6.76143">
        <ele>504</ele>
        <time>2014-04-13T11:46:17Z</time>
      </trkpt>
      <trkpt lat="47.59457" lon="6.76148">
        <ele>504</ele>
        <time>2014-04-13T11:46:18Z</time>
      </trkpt>
      <trkpt lat="47.59457" lon="6.76152">
        <ele>503</ele>
        <time>2014-04-13T11:46:19Z</time>
      </trkpt>
      <trkpt lat="47.59454" lon="6.76154">
        <ele>503</ele>
        <time>2014-04-13T11:46:20Z</time>
      </trkpt>
      <trkpt lat="47.5945" lon="6.76157">
        <ele>502</ele>
        <time>2014-04-13T11:46:21Z</time>
      </trkpt>
      <trkpt lat="47.59449" lon="6.76162">
        <ele>501</ele>
        <time>2014-04-13T11:46:22Z</time>
      </trkpt>
      <trkpt lat="47.59447" lon="6.76166">
        <ele>501</ele>
        <time>2014-04-13T11:46:23Z</time>
      </trkpt>
      <trkpt lat="47.59444" lon="6.7617">
        <ele>500</ele>
        <time>2014-04-13T11:46:24Z</time>
      </trkpt>
      <trkpt lat="47.59441" lon="6.76176">
        <ele>500</ele>
        <time>2014-04-13T11:46:25Z</time>
      </trkpt>
      <trkpt lat="47.5944" lon="6.76183">
        <ele>499</ele>
        <time>2014-04-13T11:46:26Z</time>
      </trkpt>
      <trkpt lat="47.59439" lon="6.76186">
        <ele>499</ele>
        <time>2014-04-13T11:46:27Z</time>
      </trkpt>
      <trkpt lat="47.59435" lon="6.76194">
        <ele>498</ele>
        <time>2014-04-13T11:46:28Z</time>
      </trkpt>
      <trkpt lat="47.59432" lon="6.76203">
        <ele>498</ele>
        <time>2014-04-13T11:46:29Z</time>
      </trkpt>
      <trkpt lat="47.59431" lon="6.76211">
        <ele>497</ele>
        <time>2014-04-13T11:46:30Z</time>
      </trkpt>
      <trkpt lat="47.59431" lon="6.76217">
        <ele>497</ele>
        <time>2014-04-13T11:46:31Z</time>
      </trkpt>
      <trkpt lat="47.59431" lon="6.76223">
        <ele>496</ele>
        <time>2014-04-13T11:46:32Z</time>
      </trkpt>
      <trkpt lat="47.59433" lon="6.76231">
        <ele>496</ele>
        <time>2014-04-13T11:46:33Z</time>
      </trkpt>
      <trkpt lat="47.59436" lon="6.76237">
        <ele>496</ele>
        <time>2014-04-13T11:46:34Z</time>
      </trkpt>
      <trkpt lat="47.59437" lon="6.76244">
        <ele>496</ele>
        <time>2014-04-13T11:46:35Z</time>
      </trkpt>
      <trkpt lat="47.59441" lon="6.76254">
        <ele>496</ele>
        <time>2014-04-13T11:46:37Z</time>
      </trkpt>
      <trkpt lat="47.59444" lon="6.76266">
        <ele>496</ele>
        <time>2014-04-13T11:46:39Z</time>
      </trkpt>
      <trkpt lat="47.59444" lon="6.76271">
        <ele>496</ele>
        <time>2014-04-13T11:46:40Z</time>
      </trkpt>
      <trkpt lat="47.59448" lon="6.76285">
        <ele>496</ele>
        <time>2014-04-13T11:46:43Z</time>
      </trkpt>
      <trkpt lat="47.59451" lon="6.76295">
        <ele>496</ele>
        <time>2014-04-13T11:46:45Z</time>
      </trkpt>
      <trkpt lat="47.59451" lon="6.76301">
        <ele>496</ele>
        <time>2014-04-13T11:46:46Z</time>
      </trkpt>
      <trkpt lat="47.59452" lon="6.76313">
        <ele>496</ele>
        <time>2014-04-13T11:46:48Z</time>
      </trkpt>
      <trkpt lat="47.59453" lon="6.76337">
        <ele>496</ele>
        <time>2014-04-13T11:46:52Z</time>
      </trkpt>
      <trkpt lat="47.59455" lon="6.76345">
        <ele>496</ele>
        <time>2014-04-13T11:46:53Z</time>
      </trkpt>
      <trkpt lat="47.59464" lon="6.76375">
        <ele>496</ele>
        <time>2014-04-13T11:46:58Z</time>
      </trkpt>
      <trkpt lat="47.59464" lon="6.76384">
        <ele>496</ele>
        <time>2014-04-13T11:46:59Z</time>
      </trkpt>
      <trkpt lat="47.59471" lon="6.76404">
        <ele>495</ele>
        <time>2014-04-13T11:47:02Z</time>
      </trkpt>
      <trkpt lat="47.59473" lon="6.7641">
        <ele>495</ele>
        <time>2014-04-13T11:47:03Z</time>
      </trkpt>
      <trkpt lat="47.59475" lon="6.76416">
        <ele>494</ele>
        <time>2014-04-13T11:47:04Z</time>
      </trkpt>
      <trkpt lat="47.59476" lon="6.76421">
        <ele>494</ele>
        <time>2014-04-13T11:47:05Z</time>
      </trkpt>
      <trkpt lat="47.59478" lon="6.7643">
        <ele>494</ele>
        <time>2014-04-13T11:47:06Z</time>
      </trkpt>
      <trkpt lat="47.59488" lon="6.7645">
        <ele>494</ele>
        <time>2014-04-13T11:47:13Z</time>
      </trkpt>
      <trkpt lat="47.5949" lon="6.76452">
        <ele>494</ele>
        <time>2014-04-13T11:47:14Z</time>
      </trkpt>
      <trkpt lat="47.59493" lon="6.76453">
        <ele>495</ele>
        <time>2014-04-13T11:47:15Z</time>
      </trkpt>
      <trkpt lat="47.59494" lon="6.76455">
        <ele>495</ele>
        <time>2014-04-13T11:47:16Z</time>
      </trkpt>
      <trkpt lat="47.59496" lon="6.76455">
        <ele>496</ele>
        <time>2014-04-13T11:47:17Z</time>
      </trkpt>
      <trkpt lat="47.59497" lon="6.76457">
        <ele>496</ele>
        <time>2014-04-13T11:47:18Z</time>
      </trkpt>
      <trkpt lat="47.59499" lon="6.7646">
        <ele>496</ele>
        <time>2014-04-13T11:47:19Z</time>
      </trkpt>
      <trkpt lat="47.59505" lon="6.76464">
        <ele>496</ele>
        <time>2014-04-13T11:47:22Z</time>
      </trkpt>
      <trkpt lat="47.59507" lon="6.76466">
        <ele>497</ele>
        <time>2014-04-13T11:47:23Z</time>
      </trkpt>
      <trkpt lat="47.59509" lon="6.76467">
        <ele>497</ele>
        <time>2014-04-13T11:47:24Z</time>
      </trkpt>
      <trkpt lat="47.5951" lon="6.76469">
        <ele>498</ele>
        <time>2014-04-13T11:47:25Z</time>
      </trkpt>
      <trkpt lat="47.59512" lon="6.76471">
        <ele>498</ele>
        <time>2014-04-13T11:47:26Z</time>
      </trkpt>
      <trkpt lat="47.59519" lon="6.76478">
        <ele>498</ele>
        <time>2014-04-13T11:47:30Z</time>
      </trkpt>
      <trkpt lat="47.59529" lon="6.76484">
        <ele>498</ele>
        <time>2014-04-13T11:47:35Z</time>
      </trkpt>
      <trkpt lat="47.59533" lon="6.76486">
        <ele>498</ele>
        <time>2014-04-13T11:47:37Z</time>
      </trkpt>
      <trkpt lat="47.59536" lon="6.76488">
        <ele>499</ele>
        <time>2014-04-13T11:47:38Z</time>
      </trkpt>
      <trkpt lat="47.59537" lon="6.7649">
        <ele>499</ele>
        <time>2014-04-13T11:47:39Z</time>
      </trkpt>
      <trkpt lat="47.5954" lon="6.76492">
        <ele>500</ele>
        <time>2014-04-13T11:47:40Z</time>
      </trkpt>
      <trkpt lat="47.59542" lon="6.76493">
        <ele>500</ele>
        <time>2014-04-13T11:47:41Z</time>
      </trkpt>
      <trkpt lat="47.59544" lon="6.76494">
        <ele>500</ele>
        <time>2014-04-13T11:47:42Z</time>
      </trkpt>
      <trkpt lat="47.59556" lon="6.76501">
        <ele>500</ele>
        <time>2014-04-13T11:47:47Z</time>
      </trkpt>
      <trkpt lat="47.59558" lon="6.76502">
        <ele>501</ele>
        <time>2014-04-13T11:47:48Z</time>
      </trkpt>
      <trkpt lat="47.5956" lon="6.76502">
        <ele>501</ele>
        <time>2014-04-13T11:47:49Z</time>
      </trkpt>
      <trkpt lat="47.59562" lon="6.76504">
        <ele>502</ele>
        <time>2014-04-13T11:47:50Z</time>
      </trkpt>
      <trkpt lat="47.59565" lon="6.76505">
        <ele>502</ele>
        <time>2014-04-13T11:47:51Z</time>
      </trkpt>
      <trkpt lat="47.5957" lon="6.76509">
        <ele>502</ele>
        <time>2014-04-13T11:47:54Z</time>
      </trkpt>
      <trkpt lat="47.59578" lon="6.76514">
        <ele>503</ele>
        <time>2014-04-13T11:47:57Z</time>
      </trkpt>
      <trkpt lat="47.5958" lon="6.76515">
        <ele>503</ele>
        <time>2014-04-13T11:47:58Z</time>
      </trkpt>
      <trkpt lat="47.59582" lon="6.76516">
        <ele>504</ele>
        <time>2014-04-13T11:47:59Z</time>
      </trkpt>
      <trkpt lat="47.59585" lon="6.76519">
        <ele>504</ele>
        <time>2014-04-13T11:48:00Z</time>
      </trkpt>
      <trkpt lat="47.59596" lon="6.76527">
        <ele>504</ele>
        <time>2014-04-13T11:48:05Z</time>
      </trkpt>
      <trkpt lat="47.59601" lon="6.7653">
        <ele>505</ele>
        <time>2014-04-13T11:48:08Z</time>
      </trkpt>
      <trkpt lat="47.59603" lon="6.76531">
        <ele>505</ele>
        <time>2014-04-13T11:48:09Z</time>
      </trkpt>
      <trkpt lat="47.59604" lon="6.76532">
        <ele>506</ele>
        <time>2014-04-13T11:48:10Z</time>
      </trkpt>
      <trkpt lat="47.59607" lon="6.76534">
        <ele>506</ele>
        <time>2014-04-13T11:48:11Z</time>
      </trkpt>
      <trkpt lat="47.59609" lon="6.76535">
        <ele>506</ele>
        <time>2014-04-13T11:48:12Z</time>
      </trkpt>
      <trkpt lat="47.59617" lon="6.76538">
        <ele>506</ele>
        <time>2014-04-13T11:48:15Z</time>
      </trkpt>
      <trkpt lat="47.59621" lon="6.7654">
        <ele>506</ele>
        <time>2014-04-13T11:48:17Z</time>
      </trkpt>
      <trkpt lat="47.59625" lon="6.76543">
        <ele>506</ele>
        <time>2014-04-13T11:48:21Z</time>
      </trkpt>
      <trkpt lat="47.59625" lon="6.76543">
        <ele>506</ele>
        <time>2014-04-13T11:48:22Z</time>
      </trkpt>
      <trkpt lat="47.59625" lon="6.76543">
        <ele>506</ele>
        <time>2014-04-13T11:48:24Z</time>
      </trkpt>
      <trkpt lat="47.5963" lon="6.76545">
        <ele>506</ele>
        <time>2014-04-13T11:49:19Z</time>
      </trkpt>
      <trkpt lat="47.59633" lon="6.76546">
        <ele>506</ele>
        <time>2014-04-13T11:49:21Z</time>
      </trkpt>
      <trkpt lat="47.59636" lon="6.76548">
        <ele>506</ele>
        <time>2014-04-13T11:49:23Z</time>
      </trkpt>
      <trkpt lat="47.5964" lon="6.76551">
        <ele>506</ele>
        <time>2014-04-13T11:49:26Z</time>
      </trkpt>
      <trkpt lat="47.59656" lon="6.76556">
        <ele>506</ele>
        <time>2014-04-13T11:49:32Z</time>
      </trkpt>
      <trkpt lat="47.59665" lon="6.7656">
        <ele>506</ele>
        <time>2014-04-13T11:49:36Z</time>
      </trkpt>
      <trkpt lat="47.59665" lon="6.76563">
        <ele>506</ele>
        <time>2014-04-13T11:49:37Z</time>
      </trkpt>
      <trkpt lat="47.59664" lon="6.76581">
        <ele>506</ele>
        <time>2014-04-13T11:49:42Z</time>
      </trkpt>
      <trkpt lat="47.59663" lon="6.76591">
        <ele>506</ele>
        <time>2014-04-13T11:49:44Z</time>
      </trkpt>
      <trkpt lat="47.5966" lon="6.76605">
        <ele>506</ele>
        <time>2014-04-13T11:49:46Z</time>
      </trkpt>
      <trkpt lat="47.59657" lon="6.7663">
        <ele>506</ele>
        <time>2014-04-13T11:49:49Z</time>
      </trkpt>
      <trkpt lat="47.59656" lon="6.7664">
        <ele>506</ele>
        <time>2014-04-13T11:49:50Z</time>
      </trkpt>
      <trkpt lat="47.59654" lon="6.7665">
        <ele>505</ele>
        <time>2014-04-13T11:49:51Z</time>
      </trkpt>
      <trkpt lat="47.59653" lon="6.76658">
        <ele>505</ele>
        <time>2014-04-13T11:49:52Z</time>
      </trkpt>
      <trkpt lat="47.59652" lon="6.76668">
        <ele>504</ele>
        <time>2014-04-13T11:49:53Z</time>
      </trkpt>
      <trkpt lat="47.5965" lon="6.76678">
        <ele>504</ele>
        <time>2014-04-13T11:49:54Z</time>
      </trkpt>
      <trkpt lat="47.59649" lon="6.76689">
        <ele>503</ele>
        <time>2014-04-13T11:49:55Z</time>
      </trkpt>
      <trkpt lat="47.59648" lon="6.76701">
        <ele>503</ele>
        <time>2014-04-13T11:49:56Z</time>
      </trkpt>
      <trkpt lat="47.59648" lon="6.76714">
        <ele>502</ele>
        <time>2014-04-13T11:49:57Z</time>
      </trkpt>
      <trkpt lat="47.59649" lon="6.76726">
        <ele>501</ele>
        <time>2014-04-13T11:49:58Z</time>
      </trkpt>
      <trkpt lat="47.5965" lon="6.76738">
        <ele>501</ele>
        <time>2014-04-13T11:49:59Z</time>
      </trkpt>
      <trkpt lat="47.59651" lon="6.76749">
        <ele>500</ele>
        <time>2014-04-13T11:50:00Z</time>
      </trkpt>
      <trkpt lat="47.59652" lon="6.76759">
        <ele>500</ele>
        <time>2014-04-13T11:50:01Z</time>
      </trkpt>
      <trkpt lat="47.59651" lon="6.76761">
        <ele>499</ele>
        <time>2014-04-13T11:50:02Z</time>
      </trkpt>
      <trkpt lat="47.59646" lon="6.76771">
        <ele>497</ele>
        <time>2014-04-13T11:50:05Z</time>
      </trkpt>
      <trkpt lat="47.59641" lon="6.76772">
        <ele>497</ele>
        <time>2014-04-13T11:50:07Z</time>
      </trkpt>
      <trkpt lat="47.59634" lon="6.76771">
        <ele>497</ele>
        <time>2014-04-13T11:50:09Z</time>
      </trkpt>
      <trkpt lat="47.59631" lon="6.76771">
        <ele>497</ele>
        <time>2014-04-13T11:50:10Z</time>
      </trkpt>
      <trkpt lat="47.59629" lon="6.76772">
        <ele>497</ele>
        <time>2014-04-13T11:50:11Z</time>
      </trkpt>
      <trkpt lat="47.59625" lon="6.76775">
        <ele>496</ele>
        <time>2014-04-13T11:50:12Z</time>
      </trkpt>
      <trkpt lat="47.59622" lon="6.76778">
        <ele>496</ele>
        <time>2014-04-13T11:50:13Z</time>
      </trkpt>
      <trkpt lat="47.59619" lon="6.76783">
        <ele>496</ele>
        <time>2014-04-13T11:50:14Z</time>
      </trkpt>
      <trkpt lat="47.59617" lon="6.76788">
        <ele>495</ele>
        <time>2014-04-13T11:50:15Z</time>
      </trkpt>
      <trkpt lat="47.59617" lon="6.76789">
        <ele>495</ele>
        <time>2014-04-13T11:50:16Z</time>
      </trkpt>
      <trkpt lat="47.59615" lon="6.76795">
        <ele>494</ele>
        <time>2014-04-13T11:50:17Z</time>
      </trkpt>
      <trkpt lat="47.59615" lon="6.768">
        <ele>494</ele>
        <time>2014-04-13T11:50:18Z</time>
      </trkpt>
      <trkpt lat="47.59615" lon="6.76805">
        <ele>494</ele>
        <time>2014-04-13T11:50:19Z</time>
      </trkpt>
      <trkpt lat="47.59617" lon="6.76809">
        <ele>493</ele>
        <time>2014-04-13T11:50:20Z</time>
      </trkpt>
      <trkpt lat="47.59618" lon="6.76814">
        <ele>493</ele>
        <time>2014-04-13T11:50:21Z</time>
      </trkpt>
      <trkpt lat="47.59621" lon="6.76835">
        <ele>493</ele>
        <time>2014-04-13T11:50:24Z</time>
      </trkpt>
      <trkpt lat="47.59621" lon="6.76841">
        <ele>492</ele>
        <time>2014-04-13T11:50:25Z</time>
      </trkpt>
      <trkpt lat="47.59621" lon="6.76848">
        <ele>492</ele>
        <time>2014-04-13T11:50:26Z</time>
      </trkpt>
      <trkpt lat="47.59621" lon="6.76857">
        <ele>491</ele>
        <time>2014-04-13T11:50:27Z</time>
      </trkpt>
      <trkpt lat="47.59621" lon="6.76864">
        <ele>491</ele>
        <time>2014-04-13T11:50:28Z</time>
      </trkpt>
      <trkpt lat="47.5962" lon="6.76874">
        <ele>490</ele>
        <time>2014-04-13T11:50:29Z</time>
      </trkpt>
      <trkpt lat="47.5962" lon="6.76883">
        <ele>490</ele>
        <time>2014-04-13T11:50:30Z</time>
      </trkpt>
      <trkpt lat="47.59619" lon="6.7689">
        <ele>489</ele>
        <time>2014-04-13T11:50:31Z</time>
      </trkpt>
      <trkpt lat="47.59619" lon="6.76898">
        <ele>489</ele>
        <time>2014-04-13T11:50:32Z</time>
      </trkpt>
      <trkpt lat="47.5962" lon="6.76905">
        <ele>488</ele>
        <time>2014-04-13T11:50:33Z</time>
      </trkpt>
      <trkpt lat="47.59621" lon="6.76912">
        <ele>488</ele>
        <time>2014-04-13T11:50:34Z</time>
      </trkpt>
      <trkpt lat="47.5962" lon="6.76919">
        <ele>488</ele>
        <time>2014-04-13T11:50:35Z</time>
      </trkpt>
      <trkpt lat="47.59619" lon="6.76925">
        <ele>487</ele>
        <time>2014-04-13T11:50:36Z</time>
      </trkpt>
      <trkpt lat="47.59618" lon="6.7693">
        <ele>487</ele>
        <time>2014-04-13T11:50:37Z</time>
      </trkpt>
      <trkpt lat="47.59617" lon="6.76934">
        <ele>487</ele>
        <time>2014-04-13T11:50:38Z</time>
      </trkpt>
      <trkpt lat="47.59618" lon="6.76936">
        <ele>486</ele>
        <time>2014-04-13T11:50:39Z</time>
      </trkpt>
      <trkpt lat="47.59616" lon="6.76942">
        <ele>486</ele>
        <time>2014-04-13T11:50:40Z</time>
      </trkpt>
      <trkpt lat="47.59618" lon="6.76947">
        <ele>485</ele>
        <time>2014-04-13T11:50:41Z</time>
      </trkpt>
      <trkpt lat="47.5962" lon="6.76951">
        <ele>485</ele>
        <time>2014-04-13T11:50:42Z</time>
      </trkpt>
      <trkpt lat="47.59619" lon="6.76954">
        <ele>484</ele>
        <time>2014-04-13T11:50:43Z</time>
      </trkpt>
      <trkpt lat="47.59618" lon="6.76959">
        <ele>484</ele>
        <time>2014-04-13T11:50:45Z</time>
      </trkpt>
      <trkpt lat="47.59616" lon="6.76967">
        <ele>484</ele>
        <time>2014-04-13T11:50:47Z</time>
      </trkpt>
      <trkpt lat="47.59616" lon="6.7697">
        <ele>484</ele>
        <time>2014-04-13T11:50:48Z</time>
      </trkpt>
      <trkpt lat="47.59617" lon="6.76976">
        <ele>483</ele>
        <time>2014-04-13T11:50:49Z</time>
      </trkpt>
      <trkpt lat="47.59617" lon="6.7698">
        <ele>483</ele>
        <time>2014-04-13T11:50:50Z</time>
      </trkpt>
      <trkpt lat="47.59616" lon="6.76985">
        <ele>482</ele>
        <time>2014-04-13T11:50:51Z</time>
      </trkpt>
      <trkpt lat="47.59615" lon="6.76989">
        <ele>482</ele>
        <time>2014-04-13T11:50:52Z</time>
      </trkpt>
      <trkpt lat="47.59615" lon="6.76993">
        <ele>482</ele>
        <time>2014-04-13T11:50:53Z</time>
      </trkpt>
      <trkpt lat="47.59616" lon="6.76997">
        <ele>481</ele>
        <time>2014-04-13T11:50:54Z</time>
      </trkpt>
      <trkpt lat="47.59618" lon="6.77002">
        <ele>481</ele>
        <time>2014-04-13T11:50:55Z</time>
      </trkpt>
      <trkpt lat="47.5962" lon="6.77004">
        <ele>480</ele>
        <time>2014-04-13T11:50:56Z</time>
      </trkpt>
      <trkpt lat="47.59621" lon="6.77008">
        <ele>479</ele>
        <time>2014-04-13T11:50:57Z</time>
      </trkpt>
      <trkpt lat="47.59621" lon="6.77012">
        <ele>479</ele>
        <time>2014-04-13T11:50:58Z</time>
      </trkpt>
      <trkpt lat="47.5962" lon="6.77014">
        <ele>478</ele>
        <time>2014-04-13T11:50:59Z</time>
      </trkpt>
      <trkpt lat="47.59615" lon="6.77017">
        <ele>477</ele>
        <time>2014-04-13T11:51:00Z</time>
      </trkpt>
      <trkpt lat="47.5961" lon="6.77021">
        <ele>477</ele>
        <time>2014-04-13T11:51:01Z</time>
      </trkpt>
      <trkpt lat="47.59606" lon="6.77023">
        <ele>476</ele>
        <time>2014-04-13T11:51:02Z</time>
      </trkpt>
      <trkpt lat="47.59606" lon="6.77024">
        <ele>476</ele>
        <time>2014-04-13T11:51:03Z</time>
      </trkpt>
      <trkpt lat="47.596" lon="6.77044">
        <ele>475</ele>
        <time>2014-04-13T11:51:12Z</time>
      </trkpt>
      <trkpt lat="47.596" lon="6.77048">
        <ele>475</ele>
        <time>2014-04-13T11:51:13Z</time>
      </trkpt>
      <trkpt lat="47.59602" lon="6.77052">
        <ele>475</ele>
        <time>2014-04-13T11:51:14Z</time>
      </trkpt>
      <trkpt lat="47.59603" lon="6.77055">
        <ele>474</ele>
        <time>2014-04-13T11:51:15Z</time>
      </trkpt>
      <trkpt lat="47.59604" lon="6.77059">
        <ele>473</ele>
        <time>2014-04-13T11:51:16Z</time>
      </trkpt>
      <trkpt lat="47.59606" lon="6.77061">
        <ele>473</ele>
        <time>2014-04-13T11:51:17Z</time>
      </trkpt>
      <trkpt lat="47.59607" lon="6.77062">
        <ele>471</ele>
        <time>2014-04-13T11:51:18Z</time>
      </trkpt>
      <trkpt lat="47.59607" lon="6.77067">
        <ele>471</ele>
        <time>2014-04-13T11:51:20Z</time>
      </trkpt>
      <trkpt lat="47.59605" lon="6.77078">
        <ele>471</ele>
        <time>2014-04-13T11:51:24Z</time>
      </trkpt>
      <trkpt lat="47.59605" lon="6.7709">
        <ele>471</ele>
        <time>2014-04-13T11:51:27Z</time>
      </trkpt>
      <trkpt lat="47.59605" lon="6.77096">
        <ele>471</ele>
        <time>2014-04-13T11:51:28Z</time>
      </trkpt>
      <trkpt lat="47.59605" lon="6.77101">
        <ele>470</ele>
        <time>2014-04-13T11:51:29Z</time>
      </trkpt>
      <trkpt lat="47.59606" lon="6.77107">
        <ele>470</ele>
        <time>2014-04-13T11:51:30Z</time>
      </trkpt>
      <trkpt lat="47.59608" lon="6.77114">
        <ele>469</ele>
        <time>2014-04-13T11:51:31Z</time>
      </trkpt>
      <trkpt lat="47.5961" lon="6.77121">
        <ele>469</ele>
        <time>2014-04-13T11:51:32Z</time>
      </trkpt>
      <trkpt lat="47.59611" lon="6.77127">
        <ele>469</ele>
        <time>2014-04-13T11:51:33Z</time>
      </trkpt>
      <trkpt lat="47.59611" lon="6.77128">
        <ele>468</ele>
        <time>2014-04-13T11:51:34Z</time>
      </trkpt>
      <trkpt lat="47.59612" lon="6.77134">
        <ele>468</ele>
        <time>2014-04-13T11:51:35Z</time>
      </trkpt>
      <trkpt lat="47.59613" lon="6.77137">
        <ele>467</ele>
        <time>2014-04-13T11:51:36Z</time>
      </trkpt>
      <trkpt lat="47.59613" lon="6.7714">
        <ele>467</ele>
        <time>2014-04-13T11:51:37Z</time>
      </trkpt>
      <trkpt lat="47.59614" lon="6.77144">
        <ele>466</ele>
        <time>2014-04-13T11:51:38Z</time>
      </trkpt>
      <trkpt lat="47.59614" lon="6.77146">
        <ele>466</ele>
        <time>2014-04-13T11:51:39Z</time>
      </trkpt>
      <trkpt lat="47.59615" lon="6.77149">
        <ele>465</ele>
        <time>2014-04-13T11:51:40Z</time>
      </trkpt>
      <trkpt lat="47.59617" lon="6.77155">
        <ele>465</ele>
        <time>2014-04-13T11:51:41Z</time>
      </trkpt>
      <trkpt lat="47.59619" lon="6.7716">
        <ele>464</ele>
        <time>2014-04-13T11:51:42Z</time>
      </trkpt>
      <trkpt lat="47.5962" lon="6.77166">
        <ele>463</ele>
        <time>2014-04-13T11:51:43Z</time>
      </trkpt>
      <trkpt lat="47.59622" lon="6.77171">
        <ele>462</ele>
        <time>2014-04-13T11:51:44Z</time>
      </trkpt>
      <trkpt lat="47.59628" lon="6.77184">
        <ele>462</ele>
        <time>2014-04-13T11:51:46Z</time>
      </trkpt>
      <trkpt lat="47.59632" lon="6.77196">
        <ele>462</ele>
        <time>2014-04-13T11:51:48Z</time>
      </trkpt>
      <trkpt lat="47.59632" lon="6.77204">
        <ele>461</ele>
        <time>2014-04-13T11:51:49Z</time>
      </trkpt>
      <trkpt lat="47.5963" lon="6.77214">
        <ele>461</ele>
        <time>2014-04-13T11:51:50Z</time>
      </trkpt>
      <trkpt lat="47.5963" lon="6.77224">
        <ele>461</ele>
        <time>2014-04-13T11:51:51Z</time>
      </trkpt>
      <trkpt lat="47.5963" lon="6.77233">
        <ele>460</ele>
        <time>2014-04-13T11:51:52Z</time>
      </trkpt>
      <trkpt lat="47.59631" lon="6.77243">
        <ele>460</ele>
        <time>2014-04-13T11:51:53Z</time>
      </trkpt>
      <trkpt lat="47.59634" lon="6.77256">
        <ele>459</ele>
        <time>2014-04-13T11:51:54Z</time>
      </trkpt>
      <trkpt lat="47.59635" lon="6.77268">
        <ele>459</ele>
        <time>2014-04-13T11:51:55Z</time>
      </trkpt>
      <trkpt lat="47.59636" lon="6.77279">
        <ele>458</ele>
        <time>2014-04-13T11:51:56Z</time>
      </trkpt>
      <trkpt lat="47.59637" lon="6.7729">
        <ele>458</ele>
        <time>2014-04-13T11:51:57Z</time>
      </trkpt>
      <trkpt lat="47.59638" lon="6.77301">
        <ele>457</ele>
        <time>2014-04-13T11:51:58Z</time>
      </trkpt>
      <trkpt lat="47.59638" lon="6.77313">
        <ele>456</ele>
        <time>2014-04-13T11:51:59Z</time>
      </trkpt>
      <trkpt lat="47.59639" lon="6.77327">
        <ele>456</ele>
        <time>2014-04-13T11:52:00Z</time>
      </trkpt>
      <trkpt lat="47.59639" lon="6.7734">
        <ele>455</ele>
        <time>2014-04-13T11:52:01Z</time>
      </trkpt>
      <trkpt lat="47.59638" lon="6.77353">
        <ele>454</ele>
        <time>2014-04-13T11:52:02Z</time>
      </trkpt>
      <trkpt lat="47.59638" lon="6.77367">
        <ele>453</ele>
        <time>2014-04-13T11:52:03Z</time>
      </trkpt>
      <trkpt lat="47.59639" lon="6.77379">
        <ele>453</ele>
        <time>2014-04-13T11:52:04Z</time>
      </trkpt>
      <trkpt lat="47.59639" lon="6.77379">
        <ele>452</ele>
        <time>2014-04-13T11:52:05Z</time>
      </trkpt>
      <trkpt lat="47.5964" lon="6.77394">
        <ele>451</ele>
        <time>2014-04-13T11:52:06Z</time>
      </trkpt>
      <trkpt lat="47.59641" lon="6.77402">
        <ele>450</ele>
        <time>2014-04-13T11:52:07Z</time>
      </trkpt>
      <trkpt lat="47.59642" lon="6.77412">
        <ele>449</ele>
        <time>2014-04-13T11:52:08Z</time>
      </trkpt>
      <trkpt lat="47.59643" lon="6.77422">
        <ele>449</ele>
        <time>2014-04-13T11:52:09Z</time>
      </trkpt>
      <trkpt lat="47.59644" lon="6.77432">
        <ele>448</ele>
        <time>2014-04-13T11:52:10Z</time>
      </trkpt>
      <trkpt lat="47.59646" lon="6.77443">
        <ele>448</ele>
        <time>2014-04-13T11:52:11Z</time>
      </trkpt>
      <trkpt lat="47.59647" lon="6.77453">
        <ele>447</ele>
        <time>2014-04-13T11:52:12Z</time>
      </trkpt>
      <trkpt lat="47.59648" lon="6.77463">
        <ele>446</ele>
        <time>2014-04-13T11:52:13Z</time>
      </trkpt>
      <trkpt lat="47.5965" lon="6.77475">
        <ele>446</ele>
        <time>2014-04-13T11:52:14Z</time>
      </trkpt>
      <trkpt lat="47.59652" lon="6.77487">
        <ele>445</ele>
        <time>2014-04-13T11:52:15Z</time>
      </trkpt>
      <trkpt lat="47.59655" lon="6.77498">
        <ele>445</ele>
        <time>2014-04-13T11:52:16Z</time>
      </trkpt>
      <trkpt lat="47.59657" lon="6.77505">
        <ele>444</ele>
        <time>2014-04-13T11:52:17Z</time>
      </trkpt>
      <trkpt lat="47.59658" lon="6.7751">
        <ele>444</ele>
        <time>2014-04-13T11:52:18Z</time>
      </trkpt>
      <trkpt lat="47.59657" lon="6.77512">
        <ele>443</ele>
        <time>2014-04-13T11:52:19Z</time>
      </trkpt>
      <trkpt lat="47.59654" lon="6.77518">
        <ele>443</ele>
        <time>2014-04-13T11:52:20Z</time>
      </trkpt>
      <trkpt lat="47.59653" lon="6.77518">
        <ele>442</ele>
        <time>2014-04-13T11:52:21Z</time>
      </trkpt>
      <trkpt lat="47.59646" lon="6.7752">
        <ele>442</ele>
        <time>2014-04-13T11:52:26Z</time>
      </trkpt>
      <trkpt lat="47.59643" lon="6.7752">
        <ele>442</ele>
        <time>2014-04-13T11:52:27Z</time>
      </trkpt>
      <trkpt lat="47.59631" lon="6.77521">
        <ele>442</ele>
        <time>2014-04-13T11:52:31Z</time>
      </trkpt>
      <trkpt lat="47.59621" lon="6.77522">
        <ele>442</ele>
        <time>2014-04-13T11:52:33Z</time>
      </trkpt>
      <trkpt lat="47.59594" lon="6.77527">
        <ele>442</ele>
        <time>2014-04-13T11:52:37Z</time>
      </trkpt>
      <trkpt lat="47.59585" lon="6.7753">
        <ele>442</ele>
        <time>2014-04-13T11:52:38Z</time>
      </trkpt>
      <trkpt lat="47.59577" lon="6.77532">
        <ele>441</ele>
        <time>2014-04-13T11:52:39Z</time>
      </trkpt>
      <trkpt lat="47.59568" lon="6.77535">
        <ele>441</ele>
        <time>2014-04-13T11:52:40Z</time>
      </trkpt>
      <trkpt lat="47.59558" lon="6.77538">
        <ele>440</ele>
        <time>2014-04-13T11:52:41Z</time>
      </trkpt>
      <trkpt lat="47.59547" lon="6.7754">
        <ele>439</ele>
        <time>2014-04-13T11:52:42Z</time>
      </trkpt>
      <trkpt lat="47.59539" lon="6.77543">
        <ele>439</ele>
        <time>2014-04-13T11:52:43Z</time>
      </trkpt>
      <trkpt lat="47.5953" lon="6.77544">
        <ele>438</ele>
        <time>2014-04-13T11:52:44Z</time>
      </trkpt>
      <trkpt lat="47.59521" lon="6.77546">
        <ele>437</ele>
        <time>2014-04-13T11:52:45Z</time>
      </trkpt>
      <trkpt lat="47.59512" lon="6.77548">
        <ele>436</ele>
        <time>2014-04-13T11:52:46Z</time>
      </trkpt>
      <trkpt lat="47.59504" lon="6.77549">
        <ele>435</ele>
        <time>2014-04-13T11:52:47Z</time>
      </trkpt>
      <trkpt lat="47.59494" lon="6.77552">
        <ele>435</ele>
        <time>2014-04-13T11:52:48Z</time>
      </trkpt>
      <trkpt lat="47.59483" lon="6.77555">
        <ele>434</ele>
        <time>2014-04-13T11:52:49Z</time>
      </trkpt>
      <trkpt lat="47.59473" lon="6.77558">
        <ele>433</ele>
        <time>2014-04-13T11:52:50Z</time>
      </trkpt>
      <trkpt lat="47.59463" lon="6.7756">
        <ele>432</ele>
        <time>2014-04-13T11:52:51Z</time>
      </trkpt>
      <trkpt lat="47.59461" lon="6.77561">
        <ele>431</ele>
        <time>2014-04-13T11:52:52Z</time>
      </trkpt>
      <trkpt lat="47.59447" lon="6.77565">
        <ele>430</ele>
        <time>2014-04-13T11:52:53Z</time>
      </trkpt>
      <trkpt lat="47.59442" lon="6.77567">
        <ele>429</ele>
        <time>2014-04-13T11:52:54Z</time>
      </trkpt>
      <trkpt lat="47.59442" lon="6.77568">
        <ele>429</ele>
        <time>2014-04-13T11:52:55Z</time>
      </trkpt>
      <trkpt lat="47.5944" lon="6.77577">
        <ele>428</ele>
        <time>2014-04-13T11:52:56Z</time>
      </trkpt>
      <trkpt lat="47.59441" lon="6.77583">
        <ele>426</ele>
        <time>2014-04-13T11:52:57Z</time>
      </trkpt>
      <trkpt lat="47.59442" lon="6.77589">
        <ele>425</ele>
        <time>2014-04-13T11:52:58Z</time>
      </trkpt>
      <trkpt lat="47.59444" lon="6.77595">
        <ele>424</ele>
        <time>2014-04-13T11:52:59Z</time>
      </trkpt>
      <trkpt lat="47.59446" lon="6.77603">
        <ele>424</ele>
        <time>2014-04-13T11:53:00Z</time>
      </trkpt>
      <trkpt lat="47.59448" lon="6.7761">
        <ele>423</ele>
        <time>2014-04-13T11:53:01Z</time>
      </trkpt>
      <trkpt lat="47.5945" lon="6.77618">
        <ele>423</ele>
        <time>2014-04-13T11:53:02Z</time>
      </trkpt>
      <trkpt lat="47.59452" lon="6.77627">
        <ele>423</ele>
        <time>2014-04-13T11:53:03Z</time>
      </trkpt>
      <trkpt lat="47.59455" lon="6.77636">
        <ele>422</ele>
        <time>2014-04-13T11:53:04Z</time>
      </trkpt>
      <trkpt lat="47.59457" lon="6.77646">
        <ele>422</ele>
        <time>2014-04-13T11:53:05Z</time>
      </trkpt>
      <trkpt lat="47.5946" lon="6.77656">
        <ele>422</ele>
        <time>2014-04-13T11:53:06Z</time>
      </trkpt>
      <trkpt lat="47.59464" lon="6.77666">
        <ele>421</ele>
        <time>2014-04-13T11:53:07Z</time>
      </trkpt>
      <trkpt lat="47.59467" lon="6.77675">
        <ele>421</ele>
        <time>2014-04-13T11:53:08Z</time>
      </trkpt>
      <trkpt lat="47.59471" lon="6.77685">
        <ele>420</ele>
        <time>2014-04-13T11:53:09Z</time>
      </trkpt>
      <trkpt lat="47.59474" lon="6.77696">
        <ele>420</ele>
        <time>2014-04-13T11:53:10Z</time>
      </trkpt>
      <trkpt lat="47.59478" lon="6.77705">
        <ele>419</ele>
        <time>2014-04-13T11:53:11Z</time>
      </trkpt>
      <trkpt lat="47.59482" lon="6.77715">
        <ele>419</ele>
        <time>2014-04-13T11:53:12Z</time>
      </trkpt>
      <trkpt lat="47.59486" lon="6.77725">
        <ele>418</ele>
        <time>2014-04-13T11:53:13Z</time>
      </trkpt>
      <trkpt lat="47.5949" lon="6.77736">
        <ele>418</ele>
        <time>2014-04-13T11:53:14Z</time>
      </trkpt>
      <trkpt lat="47.59494" lon="6.77746">
        <ele>417</ele>
        <time>2014-04-13T11:53:15Z</time>
      </trkpt>
      <trkpt lat="47.59498" lon="6.77756">
        <ele>416</ele>
        <time>2014-04-13T11:53:16Z</time>
      </trkpt>
      <trkpt lat="47.59503" lon="6.77767">
        <ele>416</ele>
        <time>2014-04-13T11:53:17Z</time>
      </trkpt>
      <trkpt lat="47.59508" lon="6.77777">
        <ele>415</ele>
        <time>2014-04-13T11:53:18Z</time>
      </trkpt>
      <trkpt lat="47.59513" lon="6.77785">
        <ele>414</ele>
        <time>2014-04-13T11:53:19Z</time>
      </trkpt>
      <trkpt lat="47.59518" lon="6.7779">
        <ele>413</ele>
        <time>2014-04-13T11:53:20Z</time>
      </trkpt>
      <trkpt lat="47.59521" lon="6.77792">
        <ele>412</ele>
        <time>2014-04-13T11:53:21Z</time>
      </trkpt>
      <trkpt lat="47.59523" lon="6.77796">
        <ele>412</ele>
        <time>2014-04-13T11:53:23Z</time>
      </trkpt>
      <trkpt lat="47.59523" lon="6.77797">
        <ele>412</ele>
        <time>2014-04-13T11:53:24Z</time>
      </trkpt>
      <trkpt lat="47.59522" lon="6.77812">
        <ele>412</ele>
        <time>2014-04-13T11:53:29Z</time>
      </trkpt>
      <trkpt lat="47.59523" lon="6.77829">
        <ele>412</ele>
        <time>2014-04-13T11:53:34Z</time>
      </trkpt>
      <trkpt lat="47.59523" lon="6.77832">
        <ele>412</ele>
        <time>2014-04-13T11:53:35Z</time>
      </trkpt>
      <trkpt lat="47.59524" lon="6.77837">
        <ele>411</ele>
        <time>2014-04-13T11:53:36Z</time>
      </trkpt>
      <trkpt lat="47.59523" lon="6.77839">
        <ele>411</ele>
        <time>2014-04-13T11:53:37Z</time>
      </trkpt>
      <trkpt lat="47.59523" lon="6.77841">
        <ele>410</ele>
        <time>2014-04-13T11:53:38Z</time>
      </trkpt>
      <trkpt lat="47.59521" lon="6.77843">
        <ele>410</ele>
        <time>2014-04-13T11:53:39Z</time>
      </trkpt>
      <trkpt lat="47.59521" lon="6.77857">
        <ele>410</ele>
        <time>2014-04-13T11:53:42Z</time>
      </trkpt>
      <trkpt lat="47.59523" lon="6.77863">
        <ele>410</ele>
        <time>2014-04-13T11:53:43Z</time>
      </trkpt>
      <trkpt lat="47.59523" lon="6.77869">
        <ele>409</ele>
        <time>2014-04-13T11:53:44Z</time>
      </trkpt>
      <trkpt lat="47.59524" lon="6.77875">
        <ele>409</ele>
        <time>2014-04-13T11:53:45Z</time>
      </trkpt>
      <trkpt lat="47.59524" lon="6.77881">
        <ele>409</ele>
        <time>2014-04-13T11:53:46Z</time>
      </trkpt>
      <trkpt lat="47.59524" lon="6.77888">
        <ele>408</ele>
        <time>2014-04-13T11:53:47Z</time>
      </trkpt>
      <trkpt lat="47.59523" lon="6.77901">
        <ele>408</ele>
        <time>2014-04-13T11:53:49Z</time>
      </trkpt>
      <trkpt lat="47.59522" lon="6.77907">
        <ele>407</ele>
        <time>2014-04-13T11:53:50Z</time>
      </trkpt>
      <trkpt lat="47.59522" lon="6.77912">
        <ele>407</ele>
        <time>2014-04-13T11:53:51Z</time>
      </trkpt>
      <trkpt lat="47.59523" lon="6.77917">
        <ele>406</ele>
        <time>2014-04-13T11:53:52Z</time>
      </trkpt>
      <trkpt lat="47.59525" lon="6.77923">
        <ele>406</ele>
        <time>2014-04-13T11:53:53Z</time>
      </trkpt>
      <trkpt lat="47.59525" lon="6.77929">
        <ele>406</ele>
        <time>2014-04-13T11:53:54Z</time>
      </trkpt>
      <trkpt lat="47.59521" lon="6.77934">
        <ele>405</ele>
        <time>2014-04-13T11:53:55Z</time>
      </trkpt>
      <trkpt lat="47.59517" lon="6.77937">
        <ele>405</ele>
        <time>2014-04-13T11:53:56Z</time>
      </trkpt>
      <trkpt lat="47.59512" lon="6.77941">
        <ele>404</ele>
        <time>2014-04-13T11:53:57Z</time>
      </trkpt>
      <trkpt lat="47.59506" lon="6.77944">
        <ele>404</ele>
        <time>2014-04-13T11:53:58Z</time>
      </trkpt>
      <trkpt lat="47.595" lon="6.77948">
        <ele>404</ele>
        <time>2014-04-13T11:53:59Z</time>
      </trkpt>
      <trkpt lat="47.59492" lon="6.77952">
        <ele>403</ele>
        <time>2014-04-13T11:54:00Z</time>
      </trkpt>
      <trkpt lat="47.59485" lon="6.77955">
        <ele>403</ele>
        <time>2014-04-13T11:54:01Z</time>
      </trkpt>
      <trkpt lat="47.59478" lon="6.77958">
        <ele>402</ele>
        <time>2014-04-13T11:54:02Z</time>
      </trkpt>
      <trkpt lat="47.5947" lon="6.77961">
        <ele>402</ele>
        <time>2014-04-13T11:54:03Z</time>
      </trkpt>
      <trkpt lat="47.59462" lon="6.77964">
        <ele>401</ele>
        <time>2014-04-13T11:54:04Z</time>
      </trkpt>
      <trkpt lat="47.59453" lon="6.77966">
        <ele>401</ele>
        <time>2014-04-13T11:54:05Z</time>
      </trkpt>
      <trkpt lat="47.59444" lon="6.77969">
        <ele>400</ele>
        <time>2014-04-13T11:54:06Z</time>
      </trkpt>
      <trkpt lat="47.59434" lon="6.77972">
        <ele>400</ele>
        <time>2014-04-13T11:54:07Z</time>
      </trkpt>
      <trkpt lat="47.59423" lon="6.77974">
        <ele>399</ele>
        <time>2014-04-13T11:54:08Z</time>
      </trkpt>
      <trkpt lat="47.59413" lon="6.77976">
        <ele>398</ele>
        <time>2014-04-13T11:54:09Z</time>
      </trkpt>
      <trkpt lat="47.59403" lon="6.77979">
        <ele>398</ele>
        <time>2014-04-13T11:54:10Z</time>
      </trkpt>
      <trkpt lat="47.59392" lon="6.77981">
        <ele>397</ele>
        <time>2014-04-13T11:54:11Z</time>
      </trkpt>
      <trkpt lat="47.59381" lon="6.77984">
        <ele>395</ele>
        <time>2014-04-13T11:54:12Z</time>
      </trkpt>
      <trkpt lat="47.5937" lon="6.77986">
        <ele>395</ele>
        <time>2014-04-13T11:54:13Z</time>
      </trkpt>
      <trkpt lat="47.59358" lon="6.77989">
        <ele>393</ele>
        <time>2014-04-13T11:54:14Z</time>
      </trkpt>
      <trkpt lat="47.59346" lon="6.77993">
        <ele>392</ele>
        <time>2014-04-13T11:54:15Z</time>
      </trkpt>
      <trkpt lat="47.59334" lon="6.77996">
        <ele>391</ele>
        <time>2014-04-13T11:54:16Z</time>
      </trkpt>
      <trkpt lat="47.59321" lon="6.77999">
        <ele>390</ele>
        <time>2014-04-13T11:54:17Z</time>
      </trkpt>
      <trkpt lat="47.59308" lon="6.78002">
        <ele>389</ele>
        <time>2014-04-13T11:54:18Z</time>
      </trkpt>
      <trkpt lat="47.59289" lon="6.78011">
        <ele>387</ele>
        <time>2014-04-13T11:54:19Z</time>
      </trkpt>
      <trkpt lat="47.59276" lon="6.7802">
        <ele>386</ele>
        <time>2014-04-13T11:54:20Z</time>
      </trkpt>
      <trkpt lat="47.59264" lon="6.78031">
        <ele>385</ele>
        <time>2014-04-13T11:54:21Z</time>
      </trkpt>
      <trkpt lat="47.59252" lon="6.78043">
        <ele>384</ele>
        <time>2014-04-13T11:54:22Z</time>
      </trkpt>
      <trkpt lat="47.5924" lon="6.78055">
        <ele>383</ele>
        <time>2014-04-13T11:54:23Z</time>
      </trkpt>
      <trkpt lat="47.59229" lon="6.78068">
        <ele>380</ele>
        <time>2014-04-13T11:54:24Z</time>
      </trkpt>
      <trkpt lat="47.59218" lon="6.78079">
        <ele>379</ele>
        <time>2014-04-13T11:54:25Z</time>
      </trkpt>
      <trkpt lat="47.59207" lon="6.7809">
        <ele>377</ele>
        <time>2014-04-13T11:54:26Z</time>
      </trkpt>
      <trkpt lat="47.59197" lon="6.78101">
        <ele>376</ele>
        <time>2014-04-13T11:54:27Z</time>
      </trkpt>
      <trkpt lat="47.59188" lon="6.7811">
        <ele>375</ele>
        <time>2014-04-13T11:54:28Z</time>
      </trkpt>
      <trkpt lat="47.59179" lon="6.78119">
        <ele>373</ele>
        <time>2014-04-13T11:54:29Z</time>
      </trkpt>
      <trkpt lat="47.59169" lon="6.78127">
        <ele>373</ele>
        <time>2014-04-13T11:54:30Z</time>
      </trkpt>
      <trkpt lat="47.5916" lon="6.78133">
        <ele>373</ele>
        <time>2014-04-13T11:54:31Z</time>
      </trkpt>
      <trkpt lat="47.59149" lon="6.78135">
        <ele>373</ele>
        <time>2014-04-13T11:54:32Z</time>
      </trkpt>
      <trkpt lat="47.5914" lon="6.78137">
        <ele>373</ele>
        <time>2014-04-13T11:54:33Z</time>
      </trkpt>
      <trkpt lat="47.59131" lon="6.78144">
        <ele>372</ele>
        <time>2014-04-13T11:54:34Z</time>
      </trkpt>
      <trkpt lat="47.59123" lon="6.78155">
        <ele>372</ele>
        <time>2014-04-13T11:54:36Z</time>
      </trkpt>
      <trkpt lat="47.59118" lon="6.78168">
        <ele>371</ele>
        <time>2014-04-13T11:54:37Z</time>
      </trkpt>
      <trkpt lat="47.59112" lon="6.78181">
        <ele>371</ele>
        <time>2014-04-13T11:54:38Z</time>
      </trkpt>
      <trkpt lat="47.59104" lon="6.78192">
        <ele>370</ele>
        <time>2014-04-13T11:54:39Z</time>
      </trkpt>
      <trkpt lat="47.59095" lon="6.78201">
        <ele>370</ele>
        <time>2014-04-13T11:54:40Z</time>
      </trkpt>
      <trkpt lat="47.59086" lon="6.7821">
        <ele>370</ele>
        <time>2014-04-13T11:54:41Z</time>
      </trkpt>
      <trkpt lat="47.59077" lon="6.78219">
        <ele>369</ele>
        <time>2014-04-13T11:54:42Z</time>
      </trkpt>
      <trkpt lat="47.59067" lon="6.78228">
        <ele>369</ele>
        <time>2014-04-13T11:54:43Z</time>
      </trkpt>
      <trkpt lat="47.59058" lon="6.78237">
        <ele>368</ele>
        <time>2014-04-13T11:54:44Z</time>
      </trkpt>
      <trkpt lat="47.59049" lon="6.78246">
        <ele>368</ele>
        <time>2014-04-13T11:54:45Z</time>
      </trkpt>
      <trkpt lat="47.5904" lon="6.78254">
        <ele>368</ele>
        <time>2014-04-13T11:54:46Z</time>
      </trkpt>
      <trkpt lat="47.59032" lon="6.78261">
        <ele>367</ele>
        <time>2014-04-13T11:54:47Z</time>
      </trkpt>
      <trkpt lat="47.59027" lon="6.78267">
        <ele>367</ele>
        <time>2014-04-13T11:54:48Z</time>
      </trkpt>
      <trkpt lat="47.59022" lon="6.78271">
        <ele>366</ele>
        <time>2014-04-13T11:54:49Z</time>
      </trkpt>
      <trkpt lat="47.59019" lon="6.78274">
        <ele>366</ele>
        <time>2014-04-13T11:54:50Z</time>
      </trkpt>
      <trkpt lat="47.59017" lon="6.78276">
        <ele>365</ele>
        <time>2014-04-13T11:54:51Z</time>
      </trkpt>
      <trkpt lat="47.59015" lon="6.78278">
        <ele>365</ele>
        <time>2014-04-13T11:54:52Z</time>
      </trkpt>
      <trkpt lat="47.59012" lon="6.78282">
        <ele>365</ele>
        <time>2014-04-13T11:54:54Z</time>
      </trkpt>
      <trkpt lat="47.59014" lon="6.78285">
        <ele>365</ele>
        <time>2014-04-13T11:54:55Z</time>
      </trkpt>
      <trkpt lat="47.59022" lon="6.78289">
        <ele>365</ele>
        <time>2014-04-13T11:54:59Z</time>
      </trkpt>
      <trkpt lat="47.59029" lon="6.78289">
        <ele>365</ele>
        <time>2014-04-13T11:55:01Z</time>
      </trkpt>
      <trkpt lat="47.59033" lon="6.78289">
        <ele>365</ele>
        <time>2014-04-13T11:55:03Z</time>
      </trkpt>
      <trkpt lat="47.59034" lon="6.78289">
        <ele>365</ele>
        <time>2014-04-13T11:55:05Z</time>
      </trkpt>
      <trkpt lat="47.59035" lon="6.7829">
        <ele>364</ele>
        <time>2014-04-13T11:55:06Z</time>
      </trkpt>
      <trkpt lat="47.59036" lon="6.7829">
        <ele>364</ele>
        <time>2014-04-13T11:55:07Z</time>
      </trkpt>
      <trkpt lat="47.59037" lon="6.78292">
        <ele>363</ele>
        <time>2014-04-13T11:55:09Z</time>
      </trkpt>
      <trkpt lat="47.59037" lon="6.78292">
        <ele>363</ele>
        <time>2014-04-13T11:55:12Z</time>
      </trkpt>
      <trkpt lat="47.59038" lon="6.78303">
        <ele>363</ele>
        <time>2014-04-13T11:55:17Z</time>
      </trkpt>
      <trkpt lat="47.59039" lon="6.7831">
        <ele>362</ele>
        <time>2014-04-13T11:55:18Z</time>
      </trkpt>
      <trkpt lat="47.5904" lon="6.78319">
        <ele>362</ele>
        <time>2014-04-13T11:55:19Z</time>
      </trkpt>
      <trkpt lat="47.5904" lon="6.78328">
        <ele>361</ele>
        <time>2014-04-13T11:55:20Z</time>
      </trkpt>
      <trkpt lat="47.5904" lon="6.78337">
        <ele>359</ele>
        <time>2014-04-13T11:55:21Z</time>
      </trkpt>
      <trkpt lat="47.5904" lon="6.78344">
        <ele>358</ele>
        <time>2014-04-13T11:55:22Z</time>
      </trkpt>
      <trkpt lat="47.59042" lon="6.78353">
        <ele>356</ele>
        <time>2014-04-13T11:55:23Z</time>
      </trkpt>
      <trkpt lat="47.59045" lon="6.78361">
        <ele>355</ele>
        <time>2014-04-13T11:55:24Z</time>
      </trkpt>
      <trkpt lat="47.59047" lon="6.7837">
        <ele>354</ele>
        <time>2014-04-13T11:55:25Z</time>
      </trkpt>
      <trkpt lat="47.59049" lon="6.78379">
        <ele>352</ele>
        <time>2014-04-13T11:55:26Z</time>
      </trkpt>
      <trkpt lat="47.5905" lon="6.78389">
        <ele>351</ele>
        <time>2014-04-13T11:55:27Z</time>
      </trkpt>
      <trkpt lat="47.59051" lon="6.78399">
        <ele>351</ele>
        <time>2014-04-13T11:55:28Z</time>
      </trkpt>
      <trkpt lat="47.59052" lon="6.78442">
        <ele>351</ele>
        <time>2014-04-13T11:55:32Z</time>
      </trkpt>
      <trkpt lat="47.59049" lon="6.78463">
        <ele>351</ele>
        <time>2014-04-13T11:55:34Z</time>
      </trkpt>
      <trkpt lat="47.59043" lon="6.78484">
        <ele>351</ele>
        <time>2014-04-13T11:55:36Z</time>
      </trkpt>
      <trkpt lat="47.59039" lon="6.78494">
        <ele>350</ele>
        <time>2014-04-13T11:55:37Z</time>
      </trkpt>
      <trkpt lat="47.59034" lon="6.78503">
        <ele>349</ele>
        <time>2014-04-13T11:55:38Z</time>
      </trkpt>
      <trkpt lat="47.59029" lon="6.78513">
        <ele>349</ele>
        <time>2014-04-13T11:55:39Z</time>
      </trkpt>
      <trkpt lat="47.59015" lon="6.7854">
        <ele>349</ele>
        <time>2014-04-13T11:55:42Z</time>
      </trkpt>
      <trkpt lat="47.59003" lon="6.78555">
        <ele>348</ele>
        <time>2014-04-13T11:55:44Z</time>
      </trkpt>
      <trkpt lat="47.58996" lon="6.78561">
        <ele>348</ele>
        <time>2014-04-13T11:55:45Z</time>
      </trkpt>
      <trkpt lat="47.58989" lon="6.78567">
        <ele>348</ele>
        <time>2014-04-13T11:55:46Z</time>
      </trkpt>
      <trkpt lat="47.58983" lon="6.78574">
        <ele>347</ele>
        <time>2014-04-13T11:55:47Z</time>
      </trkpt>
      <trkpt lat="47.58978" lon="6.78581">
        <ele>347</ele>
        <time>2014-04-13T11:55:48Z</time>
      </trkpt>
      <trkpt lat="47.58967" lon="6.78594">
        <ele>347</ele>
        <time>2014-04-13T11:55:50Z</time>
      </trkpt>
      <trkpt lat="47.58947" lon="6.78602">
        <ele>347</ele>
        <time>2014-04-13T11:55:53Z</time>
      </trkpt>
      <trkpt lat="47.5894" lon="6.78602">
        <ele>346</ele>
        <time>2014-04-13T11:55:54Z</time>
      </trkpt>
      <trkpt lat="47.58932" lon="6.786">
        <ele>346</ele>
        <time>2014-04-13T11:55:55Z</time>
      </trkpt>
      <trkpt lat="47.58925" lon="6.78598">
        <ele>346</ele>
        <time>2014-04-13T11:55:56Z</time>
      </trkpt>
      <trkpt lat="47.58918" lon="6.78596">
        <ele>345</ele>
        <time>2014-04-13T11:55:57Z</time>
      </trkpt>
      <trkpt lat="47.58912" lon="6.78595">
        <ele>345</ele>
        <time>2014-04-13T11:55:58Z</time>
      </trkpt>
      <trkpt lat="47.58888" lon="6.78591">
        <ele>345</ele>
        <time>2014-04-13T11:56:02Z</time>
      </trkpt>
      <trkpt lat="47.58882" lon="6.78591">
        <ele>345</ele>
        <time>2014-04-13T11:56:03Z</time>
      </trkpt>
      <trkpt lat="47.58858" lon="6.78587">
        <ele>345</ele>
        <time>2014-04-13T11:56:07Z</time>
      </trkpt>
      <trkpt lat="47.5883" lon="6.78579">
        <ele>345</ele>
        <time>2014-04-13T11:56:12Z</time>
      </trkpt>
      <trkpt lat="47.588" lon="6.78567">
        <ele>345</ele>
        <time>2014-04-13T11:56:18Z</time>
      </trkpt>
      <trkpt lat="47.58785" lon="6.78564">
        <ele>345</ele>
        <time>2014-04-13T11:56:21Z</time>
      </trkpt>
      <trkpt lat="47.58776" lon="6.78564">
        <ele>345</ele>
        <time>2014-04-13T11:56:23Z</time>
      </trkpt>
      <trkpt lat="47.5876" lon="6.78571">
        <ele>345</ele>
        <time>2014-04-13T11:56:27Z</time>
      </trkpt>
      <trkpt lat="47.58753" lon="6.78574">
        <ele>345</ele>
        <time>2014-04-13T11:56:29Z</time>
      </trkpt>
      <trkpt lat="47.58749" lon="6.78576">
        <ele>345</ele>
        <time>2014-04-13T11:56:30Z</time>
      </trkpt>
      <trkpt lat="47.58741" lon="6.78582">
        <ele>345</ele>
        <time>2014-04-13T11:56:33Z</time>
      </trkpt>
      <trkpt lat="47.58739" lon="6.78583">
        <ele>345</ele>
        <time>2014-04-13T11:56:34Z</time>
      </trkpt>
      <trkpt lat="47.58729" lon="6.78586">
        <ele>345</ele>
        <time>2014-04-13T11:56:39Z</time>
      </trkpt>
      <trkpt lat="47.58711" lon="6.78593">
        <ele>345</ele>
        <time>2014-04-13T11:56:44Z</time>
      </trkpt>
      <trkpt lat="47.58693" lon="6.786">
        <ele>345</ele>
        <time>2014-04-13T11:56:48Z</time>
      </trkpt>
      <trkpt lat="47.58689" lon="6.78602">
        <ele>345</ele>
        <time>2014-04-13T11:56:49Z</time>
      </trkpt>
      <trkpt lat="47.58684" lon="6.78604">
        <ele>346</ele>
        <time>2014-04-13T11:56:50Z</time>
      </trkpt>
      <trkpt lat="47.58679" lon="6.78606">
        <ele>346</ele>
        <time>2014-04-13T11:56:51Z</time>
      </trkpt>
      <trkpt lat="47.58674" lon="6.78608">
        <ele>347</ele>
        <time>2014-04-13T11:56:52Z</time>
      </trkpt>
      <trkpt lat="47.5867" lon="6.78611">
        <ele>347</ele>
        <time>2014-04-13T11:56:53Z</time>
      </trkpt>
      <trkpt lat="47.58657" lon="6.78618">
        <ele>347</ele>
        <time>2014-04-13T11:56:56Z</time>
      </trkpt>
      <trkpt lat="47.58653" lon="6.78622">
        <ele>347</ele>
        <time>2014-04-13T11:56:57Z</time>
      </trkpt>
      <trkpt lat="47.58645" lon="6.78629">
        <ele>347</ele>
        <time>2014-04-13T11:56:59Z</time>
      </trkpt>
      <trkpt lat="47.58642" lon="6.78632">
        <ele>348</ele>
        <time>2014-04-13T11:57:00Z</time>
      </trkpt>
      <trkpt lat="47.58639" lon="6.78636">
        <ele>348</ele>
        <time>2014-04-13T11:57:01Z</time>
      </trkpt>
      <trkpt lat="47.58636" lon="6.78639">
        <ele>348</ele>
        <time>2014-04-13T11:57:02Z</time>
      </trkpt>
      <trkpt lat="47.58632" lon="6.78642">
        <ele>349</ele>
        <time>2014-04-13T11:57:03Z</time>
      </trkpt>
      <trkpt lat="47.58619" lon="6.78656">
        <ele>349</ele>
        <time>2014-04-13T11:57:07Z</time>
      </trkpt>
      <trkpt lat="47.58616" lon="6.7866">
        <ele>349</ele>
        <time>2014-04-13T11:57:08Z</time>
      </trkpt>
      <trkpt lat="47.58602" lon="6.78675">
        <ele>349</ele>
        <time>2014-04-13T11:57:12Z</time>
      </trkpt>
      <trkpt lat="47.58595" lon="6.78689">
        <ele>349</ele>
        <time>2014-04-13T11:57:15Z</time>
      </trkpt>
      <trkpt lat="47.58593" lon="6.78695">
        <ele>350</ele>
        <time>2014-04-13T11:57:16Z</time>
      </trkpt>
      <trkpt lat="47.58591" lon="6.787">
        <ele>351</ele>
        <time>2014-04-13T11:57:17Z</time>
      </trkpt>
      <trkpt lat="47.58589" lon="6.78705">
        <ele>351</ele>
        <time>2014-04-13T11:57:18Z</time>
      </trkpt>
      <trkpt lat="47.58588" lon="6.78711">
        <ele>351</ele>
        <time>2014-04-13T11:57:19Z</time>
      </trkpt>
      <trkpt lat="47.58585" lon="6.7873">
        <ele>351</ele>
        <time>2014-04-13T11:57:22Z</time>
      </trkpt>
      <trkpt lat="47.58576" lon="6.78769">
        <ele>351</ele>
        <time>2014-04-13T11:57:29Z</time>
      </trkpt>
      <trkpt lat="47.58564" lon="6.78776">
        <ele>351</ele>
        <time>2014-04-13T11:57:33Z</time>
      </trkpt>
      <trkpt lat="47.58547" lon="6.78775">
        <ele>351</ele>
        <time>2014-04-13T11:57:37Z</time>
      </trkpt>
      <trkpt lat="47.58542" lon="6.78779">
        <ele>351</ele>
        <time>2014-04-13T11:57:38Z</time>
      </trkpt>
      <trkpt lat="47.58538" lon="6.78784">
        <ele>351</ele>
        <time>2014-04-13T11:57:39Z</time>
      </trkpt>
      <trkpt lat="47.58533" lon="6.7879">
        <ele>350</ele>
        <time>2014-04-13T11:57:40Z</time>
      </trkpt>
      <trkpt lat="47.58529" lon="6.78796">
        <ele>349</ele>
        <time>2014-04-13T11:57:41Z</time>
      </trkpt>
      <trkpt lat="47.58524" lon="6.78802">
        <ele>349</ele>
        <time>2014-04-13T11:57:42Z</time>
      </trkpt>
      <trkpt lat="47.58519" lon="6.78808">
        <ele>349</ele>
        <time>2014-04-13T11:57:43Z</time>
      </trkpt>
      <trkpt lat="47.58514" lon="6.78812">
        <ele>349</ele>
        <time>2014-04-13T11:57:44Z</time>
      </trkpt>
      <trkpt lat="47.58498" lon="6.78827">
        <ele>349</ele>
        <time>2014-04-13T11:57:47Z</time>
      </trkpt>
      <trkpt lat="47.58484" lon="6.7884">
        <ele>349</ele>
        <time>2014-04-13T11:57:50Z</time>
      </trkpt>
      <trkpt lat="47.58471" lon="6.78851">
        <ele>349</ele>
        <time>2014-04-13T11:57:53Z</time>
      </trkpt>
      <trkpt lat="47.58458" lon="6.78843">
        <ele>349</ele>
        <time>2014-04-13T11:57:56Z</time>
      </trkpt>
      <trkpt lat="47.58454" lon="6.78819">
        <ele>349</ele>
        <time>2014-04-13T11:57:59Z</time>
      </trkpt>
      <trkpt lat="47.58454" lon="6.78792">
        <ele>349</ele>
        <time>2014-04-13T11:58:02Z</time>
      </trkpt>
      <trkpt lat="47.58455" lon="6.78783">
        <ele>349</ele>
        <time>2014-04-13T11:58:03Z</time>
      </trkpt>
      <trkpt lat="47.58455" lon="6.78774">
        <ele>348</ele>
        <time>2014-04-13T11:58:04Z</time>
      </trkpt>
      <trkpt lat="47.58454" lon="6.78765">
        <ele>347</ele>
        <time>2014-04-13T11:58:05Z</time>
      </trkpt>
      <trkpt lat="47.58454" lon="6.78756">
        <ele>347</ele>
        <time>2014-04-13T11:58:06Z</time>
      </trkpt>
      <trkpt lat="47.58452" lon="6.78728">
        <ele>347</ele>
        <time>2014-04-13T11:58:09Z</time>
      </trkpt>
      <trkpt lat="47.58452" lon="6.78717">
        <ele>347</ele>
        <time>2014-04-13T11:58:10Z</time>
      </trkpt>
      <trkpt lat="47.58453" lon="6.78693">
        <ele>346</ele>
        <time>2014-04-13T11:58:12Z</time>
      </trkpt>
      <trkpt lat="47.58452" lon="6.78679">
        <ele>346</ele>
        <time>2014-04-13T11:58:13Z</time>
      </trkpt>
      <trkpt lat="47.58448" lon="6.78667">
        <ele>345</ele>
        <time>2014-04-13T11:58:14Z</time>
      </trkpt>
      <trkpt lat="47.58444" lon="6.78655">
        <ele>345</ele>
        <time>2014-04-13T11:58:15Z</time>
      </trkpt>
      <trkpt lat="47.5844" lon="6.78644">
        <ele>344</ele>
        <time>2014-04-13T11:58:16Z</time>
      </trkpt>
      <trkpt lat="47.58436" lon="6.78633">
        <ele>343</ele>
        <time>2014-04-13T11:58:17Z</time>
      </trkpt>
      <trkpt lat="47.58431" lon="6.78624">
        <ele>343</ele>
        <time>2014-04-13T11:58:18Z</time>
      </trkpt>
      <trkpt lat="47.58426" lon="6.78617">
        <ele>342</ele>
        <time>2014-04-13T11:58:19Z</time>
      </trkpt>
      <trkpt lat="47.58415" lon="6.7861">
        <ele>342</ele>
        <time>2014-04-13T11:58:21Z</time>
      </trkpt>
      <trkpt lat="47.5841" lon="6.78608">
        <ele>342</ele>
        <time>2014-04-13T11:58:22Z</time>
      </trkpt>
      <trkpt lat="47.58405" lon="6.78604">
        <ele>341</ele>
        <time>2014-04-13T11:58:23Z</time>
      </trkpt>
      <trkpt lat="47.58403" lon="6.78598">
        <ele>341</ele>
        <time>2014-04-13T11:58:24Z</time>
      </trkpt>
      <trkpt lat="47.58403" lon="6.78593">
        <ele>340</ele>
        <time>2014-04-13T11:58:25Z</time>
      </trkpt>
      <trkpt lat="47.58403" lon="6.78588">
        <ele>340</ele>
        <time>2014-04-13T11:58:26Z</time>
      </trkpt>
      <trkpt lat="47.58403" lon="6.78583">
        <ele>340</ele>
        <time>2014-04-13T11:58:27Z</time>
      </trkpt>
      <trkpt lat="47.58402" lon="6.78578">
        <ele>340</ele>
        <time>2014-04-13T11:58:28Z</time>
      </trkpt>
      <trkpt lat="47.584" lon="6.78565">
        <ele>340</ele>
        <time>2014-04-13T11:58:30Z</time>
      </trkpt>
      <trkpt lat="47.58395" lon="6.7855">
        <ele>340</ele>
        <time>2014-04-13T11:58:32Z</time>
      </trkpt>
      <trkpt lat="47.58386" lon="6.78529">
        <ele>340</ele>
        <time>2014-04-13T11:58:35Z</time>
      </trkpt>
      <trkpt lat="47.58376" lon="6.78521">
        <ele>340</ele>
        <time>2014-04-13T11:58:37Z</time>
      </trkpt>
      <trkpt lat="47.58341" lon="6.785">
        <ele>340</ele>
        <time>2014-04-13T11:58:43Z</time>
      </trkpt>
      <trkpt lat="47.58306" lon="6.7848">
        <ele>340</ele>
        <time>2014-04-13T11:58:49Z</time>
      </trkpt>
      <trkpt lat="47.58301" lon="6.78477">
        <ele>340</ele>
        <time>2014-04-13T11:58:50Z</time>
      </trkpt>
      <trkpt lat="47.58292" lon="6.7847">
        <ele>340</ele>
        <time>2014-04-13T11:58:52Z</time>
      </trkpt>
      <trkpt lat="47.58284" lon="6.78466">
        <ele>340</ele>
        <time>2014-04-13T11:58:54Z</time>
      </trkpt>
      <trkpt lat="47.58276" lon="6.78462">
        <ele>340</ele>
        <time>2014-04-13T11:58:56Z</time>
      </trkpt>
      <trkpt lat="47.5826" lon="6.78454">
        <ele>340</ele>
        <time>2014-04-13T11:58:59Z</time>
      </trkpt>
      <trkpt lat="47.58228" lon="6.78436">
        <ele>340</ele>
        <time>2014-04-13T11:59:05Z</time>
      </trkpt>
      <trkpt lat="47.58198" lon="6.7842">
        <ele>340</ele>
        <time>2014-04-13T11:59:10Z</time>
      </trkpt>
      <trkpt lat="47.58179" lon="6.7841">
        <ele>340</ele>
        <time>2014-04-13T11:59:13Z</time>
      </trkpt>
      <trkpt lat="47.58173" lon="6.78411">
        <ele>340</ele>
        <time>2014-04-13T11:59:14Z</time>
      </trkpt>
      <trkpt lat="47.58168" lon="6.78415">
        <ele>340</ele>
        <time>2014-04-13T11:59:15Z</time>
      </trkpt>
      <trkpt lat="47.58156" lon="6.78435">
        <ele>340</ele>
        <time>2014-04-13T11:59:18Z</time>
      </trkpt>
      <trkpt lat="47.58153" lon="6.78443">
        <ele>340</ele>
        <time>2014-04-13T11:59:19Z</time>
      </trkpt>
      <trkpt lat="47.58135" lon="6.7847">
        <ele>340</ele>
        <time>2014-04-13T11:59:23Z</time>
      </trkpt>
      <trkpt lat="47.58129" lon="6.78471">
        <ele>340</ele>
        <time>2014-04-13T11:59:24Z</time>
      </trkpt>
      <trkpt lat="47.5812" lon="6.78462">
        <ele>340</ele>
        <time>2014-04-13T11:59:26Z</time>
      </trkpt>
      <trkpt lat="47.58113" lon="6.7845">
        <ele>340</ele>
        <time>2014-04-13T11:59:28Z</time>
      </trkpt>
      <trkpt lat="47.58101" lon="6.78432">
        <ele>340</ele>
        <time>2014-04-13T11:59:31Z</time>
      </trkpt>
      <trkpt lat="47.58077" lon="6.78391">
        <ele>340</ele>
        <time>2014-04-13T11:59:37Z</time>
      </trkpt>
      <trkpt lat="47.58063" lon="6.78373">
        <ele>340</ele>
        <time>2014-04-13T11:59:40Z</time>
      </trkpt>
      <trkpt lat="47.58047" lon="6.78358">
        <ele>340</ele>
        <time>2014-04-13T11:59:43Z</time>
      </trkpt>
      <trkpt lat="47.58" lon="6.78316">
        <ele>340</ele>
        <time>2014-04-13T11:59:52Z</time>
      </trkpt>
      <trkpt lat="47.57989" lon="6.78306">
        <ele>340</ele>
        <time>2014-04-13T11:59:54Z</time>
      </trkpt>
      <trkpt lat="47.5794" lon="6.78262">
        <ele>340</ele>
        <time>2014-04-13T12:00:03Z</time>
      </trkpt>
      <trkpt lat="47.5792" lon="6.78248">
        <ele>340</ele>
        <time>2014-04-13T12:00:07Z</time>
      </trkpt>
      <trkpt lat="47.57917" lon="6.7825">
        <ele>340</ele>
        <time>2014-04-13T12:00:08Z</time>
      </trkpt>
      <trkpt lat="47.57916" lon="6.78257">
        <ele>340</ele>
        <time>2014-04-13T12:00:11Z</time>
      </trkpt>
      <trkpt lat="47.57914" lon="6.78258">
        <ele>340</ele>
        <time>2014-04-13T12:00:14Z</time>
      </trkpt>
      <trkpt lat="47.57913" lon="6.78258">
        <ele>340</ele>
        <time>2014-04-13T12:00:15Z</time>
      </trkpt>
      <trkpt lat="47.57912" lon="6.78258">
        <ele>340</ele>
        <time>2014-04-13T12:00:16Z</time>
      </trkpt>
      <trkpt lat="47.5791" lon="6.78261">
        <ele>340</ele>
        <time>2014-04-13T12:00:17Z</time>
      </trkpt>
      <trkpt lat="47.57909" lon="6.78268">
        <ele>340</ele>
        <time>2014-04-13T12:00:19Z</time>
      </trkpt>
      <trkpt lat="47.57907" lon="6.78278">
        <ele>340</ele>
        <time>2014-04-13T12:00:22Z</time>
      </trkpt>
      <trkpt lat="47.57907" lon="6.78281">
        <ele>341</ele>
        <time>2014-04-13T12:00:23Z</time>
      </trkpt>
      <trkpt lat="47.57905" lon="6.78284">
        <ele>341</ele>
        <time>2014-04-13T12:00:24Z</time>
      </trkpt>
      <trkpt lat="47.57904" lon="6.78287">
        <ele>341</ele>
        <time>2014-04-13T12:00:25Z</time>
      </trkpt>
      <trkpt lat="47.57903" lon="6.7829">
        <ele>342</ele>
        <time>2014-04-13T12:00:26Z</time>
      </trkpt>
      <trkpt lat="47.57903" lon="6.78293">
        <ele>342</ele>
        <time>2014-04-13T12:00:27Z</time>
      </trkpt>
      <trkpt lat="47.57902" lon="6.78296">
        <ele>343</ele>
        <time>2014-04-13T12:00:28Z</time>
      </trkpt>
      <trkpt lat="47.57902" lon="6.78299">
        <ele>343</ele>
        <time>2014-04-13T12:00:29Z</time>
      </trkpt>
      <trkpt lat="47.57901" lon="6.78303">
        <ele>344</ele>
        <time>2014-04-13T12:00:30Z</time>
      </trkpt>
      <trkpt lat="47.57901" lon="6.78307">
        <ele>344</ele>
        <time>2014-04-13T12:00:31Z</time>
      </trkpt>
      <trkpt lat="47.57903" lon="6.7831">
        <ele>345</ele>
        <time>2014-04-13T12:00:32Z</time>
      </trkpt>
      <trkpt lat="47.57905" lon="6.78312">
        <ele>346</ele>
        <time>2014-04-13T12:00:33Z</time>
      </trkpt>
      <trkpt lat="47.57907" lon="6.78315">
        <ele>347</ele>
        <time>2014-04-13T12:00:34Z</time>
      </trkpt>
      <trkpt lat="47.57912" lon="6.78322">
        <ele>347</ele>
        <time>2014-04-13T12:00:37Z</time>
      </trkpt>
      <trkpt lat="47.57925" lon="6.7834">
        <ele>347</ele>
        <time>2014-04-13T12:00:45Z</time>
      </trkpt>
      <trkpt lat="47.57927" lon="6.78343">
        <ele>348</ele>
        <time>2014-04-13T12:00:46Z</time>
      </trkpt>
      <trkpt lat="47.57929" lon="6.78345">
        <ele>348</ele>
        <time>2014-04-13T12:00:47Z</time>
      </trkpt>
      <trkpt lat="47.57931" lon="6.78348">
        <ele>348</ele>
        <time>2014-04-13T12:00:48Z</time>
      </trkpt>
      <trkpt lat="47.57934" lon="6.7835">
        <ele>349</ele>
        <time>2014-04-13T12:00:49Z</time>
      </trkpt>
      <trkpt lat="47.57938" lon="6.78356">
        <ele>349</ele>
        <time>2014-04-13T12:00:51Z</time>
      </trkpt>
      <trkpt lat="47.57957" lon="6.78381">
        <ele>349</ele>
        <time>2014-04-13T12:00:59Z</time>
      </trkpt>
      <trkpt lat="47.57975" lon="6.78404">
        <ele>349</ele>
        <time>2014-04-13T12:01:06Z</time>
      </trkpt>
      <trkpt lat="47.57978" lon="6.78408">
        <ele>350</ele>
        <time>2014-04-13T12:01:07Z</time>
      </trkpt>
      <trkpt lat="47.57981" lon="6.78412">
        <ele>350</ele>
        <time>2014-04-13T12:01:08Z</time>
      </trkpt>
      <trkpt lat="47.57984" lon="6.78416">
        <ele>350</ele>
        <time>2014-04-13T12:01:09Z</time>
      </trkpt>
      <trkpt lat="47.57987" lon="6.7842">
        <ele>351</ele>
        <time>2014-04-13T12:01:10Z</time>
      </trkpt>
      <trkpt lat="47.57992" lon="6.78429">
        <ele>351</ele>
        <time>2014-04-13T12:01:12Z</time>
      </trkpt>
      <trkpt lat="47.58008" lon="6.78459">
        <ele>351</ele>
        <time>2014-04-13T12:01:18Z</time>
      </trkpt>
      <trkpt lat="47.58011" lon="6.78463">
        <ele>352</ele>
        <time>2014-04-13T12:01:20Z</time>
      </trkpt>
      <trkpt lat="47.58013" lon="6.78467">
        <ele>352</ele>
        <time>2014-04-13T12:01:21Z</time>
      </trkpt>
      <trkpt lat="47.58014" lon="6.78472">
        <ele>353</ele>
        <time>2014-04-13T12:01:22Z</time>
      </trkpt>
      <trkpt lat="47.58018" lon="6.78481">
        <ele>353</ele>
        <time>2014-04-13T12:01:24Z</time>
      </trkpt>
      <trkpt lat="47.58023" lon="6.78496">
        <ele>353</ele>
        <time>2014-04-13T12:01:27Z</time>
      </trkpt>
      <trkpt lat="47.58024" lon="6.78501">
        <ele>354</ele>
        <time>2014-04-13T12:01:28Z</time>
      </trkpt>
      <trkpt lat="47.58026" lon="6.78506">
        <ele>354</ele>
        <time>2014-04-13T12:01:29Z</time>
      </trkpt>
      <trkpt lat="47.58028" lon="6.7851">
        <ele>355</ele>
        <time>2014-04-13T12:01:30Z</time>
      </trkpt>
      <trkpt lat="47.5803" lon="6.78514">
        <ele>355</ele>
        <time>2014-04-13T12:01:31Z</time>
      </trkpt>
      <trkpt lat="47.58041" lon="6.78545">
        <ele>355</ele>
        <time>2014-04-13T12:01:37Z</time>
      </trkpt>
      <trkpt lat="47.58043" lon="6.7855">
        <ele>356</ele>
        <time>2014-04-13T12:01:38Z</time>
      </trkpt>
      <trkpt lat="47.58045" lon="6.78555">
        <ele>356</ele>
        <time>2014-04-13T12:01:39Z</time>
      </trkpt>
      <trkpt lat="47.58047" lon="6.7856">
        <ele>356</ele>
        <time>2014-04-13T12:01:40Z</time>
      </trkpt>
      <trkpt lat="47.58049" lon="6.78565">
        <ele>357</ele>
        <time>2014-04-13T12:01:41Z</time>
      </trkpt>
      <trkpt lat="47.58051" lon="6.78571">
        <ele>357</ele>
        <time>2014-04-13T12:01:42Z</time>
      </trkpt>
      <trkpt lat="47.58057" lon="6.78587">
        <ele>357</ele>
        <time>2014-04-13T12:01:45Z</time>
      </trkpt>
      <trkpt lat="47.58069" lon="6.78619">
        <ele>357</ele>
        <time>2014-04-13T12:01:51Z</time>
      </trkpt>
      <trkpt lat="47.58074" lon="6.78635">
        <ele>358</ele>
        <time>2014-04-13T12:01:54Z</time>
      </trkpt>
      <trkpt lat="47.58076" lon="6.78641">
        <ele>358</ele>
        <time>2014-04-13T12:01:55Z</time>
      </trkpt>
      <trkpt lat="47.58078" lon="6.78646">
        <ele>358</ele>
        <time>2014-04-13T12:01:56Z</time>
      </trkpt>
      <trkpt lat="47.5808" lon="6.78652">
        <ele>359</ele>
        <time>2014-04-13T12:01:57Z</time>
      </trkpt>
      <trkpt lat="47.58082" lon="6.78658">
        <ele>359</ele>
        <time>2014-04-13T12:01:58Z</time>
      </trkpt>
      <trkpt lat="47.58089" lon="6.78684">
        <ele>359</ele>
        <time>2014-04-13T12:02:02Z</time>
      </trkpt>
      <trkpt lat="47.58091" lon="6.78691">
        <ele>359</ele>
        <time>2014-04-13T12:02:03Z</time>
      </trkpt>
      <trkpt lat="47.58098" lon="6.78725">
        <ele>359</ele>
        <time>2014-04-13T12:02:07Z</time>
      </trkpt>
      <trkpt lat="47.58099" lon="6.78733">
        <ele>359</ele>
        <time>2014-04-13T12:02:08Z</time>
      </trkpt>
      <trkpt lat="47.58106" lon="6.78782">
        <ele>359</ele>
        <time>2014-04-13T12:02:14Z</time>
      </trkpt>
      <trkpt lat="47.58105" lon="6.78791">
        <ele>359</ele>
        <time>2014-04-13T12:02:15Z</time>
      </trkpt>
      <trkpt lat="47.58099" lon="6.78814">
        <ele>359</ele>
        <time>2014-04-13T12:02:18Z</time>
      </trkpt>
      <trkpt lat="47.58096" lon="6.78828">
        <ele>359</ele>
        <time>2014-04-13T12:02:20Z</time>
      </trkpt>
      <trkpt lat="47.58091" lon="6.78863">
        <ele>359</ele>
        <time>2014-04-13T12:02:25Z</time>
      </trkpt>
      <trkpt lat="47.5809" lon="6.78869">
        <ele>360</ele>
        <time>2014-04-13T12:02:26Z</time>
      </trkpt>
      <trkpt lat="47.58089" lon="6.78875">
        <ele>360</ele>
        <time>2014-04-13T12:02:27Z</time>
      </trkpt>
      <trkpt lat="47.58087" lon="6.78881">
        <ele>361</ele>
        <time>2014-04-13T12:02:28Z</time>
      </trkpt>
      <trkpt lat="47.58085" lon="6.78887">
        <ele>361</ele>
        <time>2014-04-13T12:02:29Z</time>
      </trkpt>
      <trkpt lat="47.58083" lon="6.78892">
        <ele>361</ele>
        <time>2014-04-13T12:02:30Z</time>
      </trkpt>
      <trkpt lat="47.58082" lon="6.78899">
        <ele>362</ele>
        <time>2014-04-13T12:02:31Z</time>
      </trkpt>
      <trkpt lat="47.5808" lon="6.78905">
        <ele>362</ele>
        <time>2014-04-13T12:02:32Z</time>
      </trkpt>
      <trkpt lat="47.58078" lon="6.78912">
        <ele>363</ele>
        <time>2014-04-13T12:02:33Z</time>
      </trkpt>
      <trkpt lat="47.58077" lon="6.78918">
        <ele>363</ele>
        <time>2014-04-13T12:02:34Z</time>
      </trkpt>
      <trkpt lat="47.58075" lon="6.78925">
        <ele>364</ele>
        <time>2014-04-13T12:02:35Z</time>
      </trkpt>
      <trkpt lat="47.58073" lon="6.78932">
        <ele>364</ele>
        <time>2014-04-13T12:02:36Z</time>
      </trkpt>
      <trkpt lat="47.58071" lon="6.78938">
        <ele>364</ele>
        <time>2014-04-13T12:02:37Z</time>
      </trkpt>
      <trkpt lat="47.58069" lon="6.78944">
        <ele>365</ele>
        <time>2014-04-13T12:02:38Z</time>
      </trkpt>
      <trkpt lat="47.58067" lon="6.7895">
        <ele>365</ele>
        <time>2014-04-13T12:02:39Z</time>
      </trkpt>
      <trkpt lat="47.58065" lon="6.78956">
        <ele>366</ele>
        <time>2014-04-13T12:02:40Z</time>
      </trkpt>
      <trkpt lat="47.58063" lon="6.78962">
        <ele>366</ele>
        <time>2014-04-13T12:02:41Z</time>
      </trkpt>
      <trkpt lat="47.5806" lon="6.78968">
        <ele>367</ele>
        <time>2014-04-13T12:02:42Z</time>
      </trkpt>
      <trkpt lat="47.58057" lon="6.78973">
        <ele>367</ele>
        <time>2014-04-13T12:02:43Z</time>
      </trkpt>
      <trkpt lat="47.58054" lon="6.78978">
        <ele>368</ele>
        <time>2014-04-13T12:02:44Z</time>
      </trkpt>
      <trkpt lat="47.58052" lon="6.78983">
        <ele>368</ele>
        <time>2014-04-13T12:02:45Z</time>
      </trkpt>
      <trkpt lat="47.58046" lon="6.78993">
        <ele>369</ele>
        <time>2014-04-13T12:02:47Z</time>
      </trkpt>
      <trkpt lat="47.58043" lon="6.78997">
        <ele>369</ele>
        <time>2014-04-13T12:02:48Z</time>
      </trkpt>
      <trkpt lat="47.5804" lon="6.79001">
        <ele>369</ele>
        <time>2014-04-13T12:02:49Z</time>
      </trkpt>
      <trkpt lat="47.58037" lon="6.79005">
        <ele>370</ele>
        <time>2014-04-13T12:02:50Z</time>
      </trkpt>
      <trkpt lat="47.58035" lon="6.79009">
        <ele>370</ele>
        <time>2014-04-13T12:02:51Z</time>
      </trkpt>
      <trkpt lat="47.58033" lon="6.79012">
        <ele>371</ele>
        <time>2014-04-13T12:02:52Z</time>
      </trkpt>
      <trkpt lat="47.58031" lon="6.79017">
        <ele>371</ele>
        <time>2014-04-13T12:02:53Z</time>
      </trkpt>
      <trkpt lat="47.58029" lon="6.79021">
        <ele>372</ele>
        <time>2014-04-13T12:02:54Z</time>
      </trkpt>
      <trkpt lat="47.58026" lon="6.79024">
        <ele>372</ele>
        <time>2014-04-13T12:02:55Z</time>
      </trkpt>
      <trkpt lat="47.58024" lon="6.79027">
        <ele>373</ele>
        <time>2014-04-13T12:02:56Z</time>
      </trkpt>
      <trkpt lat="47.58021" lon="6.79033">
        <ele>373</ele>
        <time>2014-04-13T12:02:58Z</time>
      </trkpt>
      <trkpt lat="47.58019" lon="6.79037">
        <ele>373</ele>
        <time>2014-04-13T12:02:59Z</time>
      </trkpt>
      <trkpt lat="47.58017" lon="6.7904">
        <ele>374</ele>
        <time>2014-04-13T12:03:00Z</time>
      </trkpt>
      <trkpt lat="47.58015" lon="6.79043">
        <ele>375</ele>
        <time>2014-04-13T12:03:01Z</time>
      </trkpt>
      <trkpt lat="47.58011" lon="6.79051">
        <ele>375</ele>
        <time>2014-04-13T12:03:03Z</time>
      </trkpt>
      <trkpt lat="47.5801" lon="6.79054">
        <ele>376</ele>
        <time>2014-04-13T12:03:04Z</time>
      </trkpt>
      <trkpt lat="47.58008" lon="6.79058">
        <ele>376</ele>
        <time>2014-04-13T12:03:05Z</time>
      </trkpt>
      <trkpt lat="47.58006" lon="6.79061">
        <ele>377</ele>
        <time>2014-04-13T12:03:06Z</time>
      </trkpt>
      <trkpt lat="47.58005" lon="6.79064">
        <ele>377</ele>
        <time>2014-04-13T12:03:07Z</time>
      </trkpt>
      <trkpt lat="47.58001" lon="6.7907">
        <ele>378</ele>
        <time>2014-04-13T12:03:09Z</time>
      </trkpt>
      <trkpt lat="47.57999" lon="6.79073">
        <ele>378</ele>
        <time>2014-04-13T12:03:10Z</time>
      </trkpt>
      <trkpt lat="47.57997" lon="6.79075">
        <ele>378</ele>
        <time>2014-04-13T12:03:11Z</time>
      </trkpt>
      <trkpt lat="47.57995" lon="6.79079">
        <ele>379</ele>
        <time>2014-04-13T12:03:12Z</time>
      </trkpt>
      <trkpt lat="47.57994" lon="6.79082">
        <ele>379</ele>
        <time>2014-04-13T12:03:13Z</time>
      </trkpt>
      <trkpt lat="47.5799" lon="6.79088">
        <ele>379</ele>
        <time>2014-04-13T12:03:15Z</time>
      </trkpt>
      <trkpt lat="47.57988" lon="6.79092">
        <ele>380</ele>
        <time>2014-04-13T12:03:16Z</time>
      </trkpt>
      <trkpt lat="47.57987" lon="6.79094">
        <ele>380</ele>
        <time>2014-04-13T12:03:17Z</time>
      </trkpt>
      <trkpt lat="47.57985" lon="6.79097">
        <ele>381</ele>
        <time>2014-04-13T12:03:18Z</time>
      </trkpt>
      <trkpt lat="47.57983" lon="6.791">
        <ele>381</ele>
        <time>2014-04-13T12:03:19Z</time>
      </trkpt>
      <trkpt lat="47.57982" lon="6.79104">
        <ele>382</ele>
        <time>2014-04-13T12:03:20Z</time>
      </trkpt>
      <trkpt lat="47.5798" lon="6.79106">
        <ele>382</ele>
        <time>2014-04-13T12:03:21Z</time>
      </trkpt>
      <trkpt lat="47.57978" lon="6.79109">
        <ele>382</ele>
        <time>2014-04-13T12:03:22Z</time>
      </trkpt>
      <trkpt lat="47.57977" lon="6.79111">
        <ele>382</ele>
        <time>2014-04-13T12:03:23Z</time>
      </trkpt>
      <trkpt lat="47.57976" lon="6.79112">
        <ele>383</ele>
        <time>2014-04-13T12:03:24Z</time>
      </trkpt>
      <trkpt lat="47.57974" lon="6.79112">
        <ele>383</ele>
        <time>2014-04-13T12:03:25Z</time>
      </trkpt>
      <trkpt lat="47.57972" lon="6.79112">
        <ele>384</ele>
        <time>2014-04-13T12:03:26Z</time>
      </trkpt>
      <trkpt lat="47.57964" lon="6.79106">
        <ele>384</ele>
        <time>2014-04-13T12:03:31Z</time>
      </trkpt>
      <trkpt lat="47.57962" lon="6.79107">
        <ele>384</ele>
        <time>2014-04-13T12:03:32Z</time>
      </trkpt>
      <trkpt lat="47.5796" lon="6.79107">
        <ele>385</ele>
        <time>2014-04-13T12:03:33Z</time>
      </trkpt>
      <trkpt lat="47.57957" lon="6.79108">
        <ele>385</ele>
        <time>2014-04-13T12:03:34Z</time>
      </trkpt>
      <trkpt lat="47.57955" lon="6.79108">
        <ele>385</ele>
        <time>2014-04-13T12:03:35Z</time>
      </trkpt>
      <trkpt lat="47.57953" lon="6.79109">
        <ele>386</ele>
        <time>2014-04-13T12:03:36Z</time>
      </trkpt>
      <trkpt lat="47.57944" lon="6.79111">
        <ele>386</ele>
        <time>2014-04-13T12:03:40Z</time>
      </trkpt>
      <trkpt lat="47.57942" lon="6.79111">
        <ele>387</ele>
        <time>2014-04-13T12:03:41Z</time>
      </trkpt>
      <trkpt lat="47.5794" lon="6.79111">
        <ele>387</ele>
        <time>2014-04-13T12:03:42Z</time>
      </trkpt>
      <trkpt lat="47.57939" lon="6.79112">
        <ele>387</ele>
        <time>2014-04-13T12:03:43Z</time>
      </trkpt>
      <trkpt lat="47.57936" lon="6.79111">
        <ele>388</ele>
        <time>2014-04-13T12:03:44Z</time>
      </trkpt>
      <trkpt lat="47.57923" lon="6.7911">
        <ele>388</ele>
        <time>2014-04-13T12:03:49Z</time>
      </trkpt>
      <trkpt lat="47.57921" lon="6.7911">
        <ele>389</ele>
        <time>2014-04-13T12:03:50Z</time>
      </trkpt>
      <trkpt lat="47.57918" lon="6.79109">
        <ele>390</ele>
        <time>2014-04-13T12:03:51Z</time>
      </trkpt>
      <trkpt lat="47.57916" lon="6.79109">
        <ele>390</ele>
        <time>2014-04-13T12:03:52Z</time>
      </trkpt>
      <trkpt lat="47.57905" lon="6.79108">
        <ele>390</ele>
        <time>2014-04-13T12:03:56Z</time>
      </trkpt>
      <trkpt lat="47.57896" lon="6.79109">
        <ele>390</ele>
        <time>2014-04-13T12:03:59Z</time>
      </trkpt>
      <trkpt lat="47.57893" lon="6.79109">
        <ele>391</ele>
        <time>2014-04-13T12:04:00Z</time>
      </trkpt>
      <trkpt lat="47.5789" lon="6.79109">
        <ele>391</ele>
        <time>2014-04-13T12:04:01Z</time>
      </trkpt>
      <trkpt lat="47.57887" lon="6.79109">
        <ele>392</ele>
        <time>2014-04-13T12:04:02Z</time>
      </trkpt>
      <trkpt lat="47.57884" lon="6.79109">
        <ele>392</ele>
        <time>2014-04-13T12:04:03Z</time>
      </trkpt>
      <trkpt lat="47.57857" lon="6.79112">
        <ele>392</ele>
        <time>2014-04-13T12:04:11Z</time>
      </trkpt>
      <trkpt lat="47.57844" lon="6.7912">
        <ele>393</ele>
        <time>2014-04-13T12:04:15Z</time>
      </trkpt>
      <trkpt lat="47.57841" lon="6.79123">
        <ele>393</ele>
        <time>2014-04-13T12:04:16Z</time>
      </trkpt>
      <trkpt lat="47.57838" lon="6.79127">
        <ele>393</ele>
        <time>2014-04-13T12:04:17Z</time>
      </trkpt>
      <trkpt lat="47.57836" lon="6.79132">
        <ele>394</ele>
        <time>2014-04-13T12:04:18Z</time>
      </trkpt>
      <trkpt lat="47.57833" lon="6.79137">
        <ele>394</ele>
        <time>2014-04-13T12:04:19Z</time>
      </trkpt>
      <trkpt lat="47.5783" lon="6.79146">
        <ele>394</ele>
        <time>2014-04-13T12:04:21Z</time>
      </trkpt>
      <trkpt lat="47.57823" lon="6.79173">
        <ele>394</ele>
        <time>2014-04-13T12:04:26Z</time>
      </trkpt>
      <trkpt lat="47.57821" lon="6.7919">
        <ele>394</ele>
        <time>2014-04-13T12:04:29Z</time>
      </trkpt>
      <trkpt lat="47.57812" lon="6.79207">
        <ele>394</ele>
        <time>2014-04-13T12:04:33Z</time>
      </trkpt>
      <trkpt lat="47.57791" lon="6.79227">
        <ele>394</ele>
        <time>2014-04-13T12:04:39Z</time>
      </trkpt>
      <trkpt lat="47.57788" lon="6.79231">
        <ele>394</ele>
        <time>2014-04-13T12:04:40Z</time>
      </trkpt>
      <trkpt lat="47.57771" lon="6.79245">
        <ele>394</ele>
        <time>2014-04-13T12:04:45Z</time>
      </trkpt>
      <trkpt lat="47.57759" lon="6.79254">
        <ele>394</ele>
        <time>2014-04-13T12:04:48Z</time>
      </trkpt>
      <trkpt lat="47.57724" lon="6.79282">
        <ele>394</ele>
        <time>2014-04-13T12:04:57Z</time>
      </trkpt>
      <trkpt lat="47.57715" lon="6.79288">
        <ele>394</ele>
        <time>2014-04-13T12:04:59Z</time>
      </trkpt>
      <trkpt lat="47.57711" lon="6.79292">
        <ele>395</ele>
        <time>2014-04-13T12:05:00Z</time>
      </trkpt>
      <trkpt lat="47.57706" lon="6.79295">
        <ele>395</ele>
        <time>2014-04-13T12:05:01Z</time>
      </trkpt>
      <trkpt lat="47.57702" lon="6.79298">
        <ele>395</ele>
        <time>2014-04-13T12:05:02Z</time>
      </trkpt>
      <trkpt lat="47.57697" lon="6.79301">
        <ele>396</ele>
        <time>2014-04-13T12:05:03Z</time>
      </trkpt>
      <trkpt lat="47.57693" lon="6.79304">
        <ele>396</ele>
        <time>2014-04-13T12:05:04Z</time>
      </trkpt>
      <trkpt lat="47.57674" lon="6.79321">
        <ele>396</ele>
        <time>2014-04-13T12:05:09Z</time>
      </trkpt>
      <trkpt lat="47.57668" lon="6.79329">
        <ele>396</ele>
        <time>2014-04-13T12:05:11Z</time>
      </trkpt>
      <trkpt lat="47.57658" lon="6.7934">
        <ele>397</ele>
        <time>2014-04-13T12:05:14Z</time>
      </trkpt>
      <trkpt lat="47.57656" lon="6.79346">
        <ele>397</ele>
        <time>2014-04-13T12:05:15Z</time>
      </trkpt>
      <trkpt lat="47.57653" lon="6.79351">
        <ele>397</ele>
        <time>2014-04-13T12:05:16Z</time>
      </trkpt>
      <trkpt lat="47.57651" lon="6.79357">
        <ele>398</ele>
        <time>2014-04-13T12:05:17Z</time>
      </trkpt>
      <trkpt lat="47.57649" lon="6.79363">
        <ele>398</ele>
        <time>2014-04-13T12:05:18Z</time>
      </trkpt>
      <trkpt lat="47.57646" lon="6.79368">
        <ele>398</ele>
        <time>2014-04-13T12:05:19Z</time>
      </trkpt>
      <trkpt lat="47.57639" lon="6.79387">
        <ele>398</ele>
        <time>2014-04-13T12:05:22Z</time>
      </trkpt>
      <trkpt lat="47.57631" lon="6.7941">
        <ele>399</ele>
        <time>2014-04-13T12:05:26Z</time>
      </trkpt>
      <trkpt lat="47.5763" lon="6.79417">
        <ele>399</ele>
        <time>2014-04-13T12:05:27Z</time>
      </trkpt>
      <trkpt lat="47.57628" lon="6.79423">
        <ele>400</ele>
        <time>2014-04-13T12:05:28Z</time>
      </trkpt>
      <trkpt lat="47.57626" lon="6.7943">
        <ele>400</ele>
        <time>2014-04-13T12:05:29Z</time>
      </trkpt>
      <trkpt lat="47.57624" lon="6.79436">
        <ele>400</ele>
        <time>2014-04-13T12:05:30Z</time>
      </trkpt>
      <trkpt lat="47.5762" lon="6.79449">
        <ele>400</ele>
        <time>2014-04-13T12:05:32Z</time>
      </trkpt>
      <trkpt lat="47.57616" lon="6.79462">
        <ele>400</ele>
        <time>2014-04-13T12:05:34Z</time>
      </trkpt>
      <trkpt lat="47.57598" lon="6.79515">
        <ele>400</ele>
        <time>2014-04-13T12:05:42Z</time>
      </trkpt>
      <trkpt lat="47.57583" lon="6.79564">
        <ele>401</ele>
        <time>2014-04-13T12:05:49Z</time>
      </trkpt>
      <trkpt lat="47.57581" lon="6.79571">
        <ele>401</ele>
        <time>2014-04-13T12:05:50Z</time>
      </trkpt>
      <trkpt lat="47.57579" lon="6.79579">
        <ele>402</ele>
        <time>2014-04-13T12:05:51Z</time>
      </trkpt>
      <trkpt lat="47.57578" lon="6.79587">
        <ele>402</ele>
        <time>2014-04-13T12:05:52Z</time>
      </trkpt>
      <trkpt lat="47.57577" lon="6.79595">
        <ele>402</ele>
        <time>2014-04-13T12:05:53Z</time>
      </trkpt>
      <trkpt lat="47.57574" lon="6.79618">
        <ele>402</ele>
        <time>2014-04-13T12:05:56Z</time>
      </trkpt>
      <trkpt lat="47.57574" lon="6.79633">
        <ele>402</ele>
        <time>2014-04-13T12:05:58Z</time>
      </trkpt>
      <trkpt lat="47.57575" lon="6.79655">
        <ele>402</ele>
        <time>2014-04-13T12:06:01Z</time>
      </trkpt>
      <trkpt lat="47.57577" lon="6.79697">
        <ele>403</ele>
        <time>2014-04-13T12:06:07Z</time>
      </trkpt>
      <trkpt lat="47.57577" lon="6.79703">
        <ele>403</ele>
        <time>2014-04-13T12:06:08Z</time>
      </trkpt>
      <trkpt lat="47.57577" lon="6.79709">
        <ele>404</ele>
        <time>2014-04-13T12:06:09Z</time>
      </trkpt>
      <trkpt lat="47.57576" lon="6.79716">
        <ele>404</ele>
        <time>2014-04-13T12:06:10Z</time>
      </trkpt>
      <trkpt lat="47.57575" lon="6.79723">
        <ele>404</ele>
        <time>2014-04-13T12:06:11Z</time>
      </trkpt>
      <trkpt lat="47.57573" lon="6.79729">
        <ele>404</ele>
        <time>2014-04-13T12:06:12Z</time>
      </trkpt>
      <trkpt lat="47.5757" lon="6.79741">
        <ele>404</ele>
        <time>2014-04-13T12:06:14Z</time>
      </trkpt>
      <trkpt lat="47.57565" lon="6.79758">
        <ele>405</ele>
        <time>2014-04-13T12:06:17Z</time>
      </trkpt>
      <trkpt lat="47.57563" lon="6.79765">
        <ele>405</ele>
        <time>2014-04-13T12:06:18Z</time>
      </trkpt>
      <trkpt lat="47.57561" lon="6.79771">
        <ele>406</ele>
        <time>2014-04-13T12:06:19Z</time>
      </trkpt>
      <trkpt lat="47.57559" lon="6.79777">
        <ele>406</ele>
        <time>2014-04-13T12:06:20Z</time>
      </trkpt>
      <trkpt lat="47.57551" lon="6.798">
        <ele>407</ele>
        <time>2014-04-13T12:06:24Z</time>
      </trkpt>
      <trkpt lat="47.57549" lon="6.79806">
        <ele>407</ele>
        <time>2014-04-13T12:06:25Z</time>
      </trkpt>
      <trkpt lat="47.57547" lon="6.79811">
        <ele>408</ele>
        <time>2014-04-13T12:06:26Z</time>
      </trkpt>
      <trkpt lat="47.57545" lon="6.79817">
        <ele>408</ele>
        <time>2014-04-13T12:06:27Z</time>
      </trkpt>
      <trkpt lat="47.57542" lon="6.79823">
        <ele>408</ele>
        <time>2014-04-13T12:06:28Z</time>
      </trkpt>
      <trkpt lat="47.57539" lon="6.79829">
        <ele>408</ele>
        <time>2014-04-13T12:06:29Z</time>
      </trkpt>
      <trkpt lat="47.5753" lon="6.79845">
        <ele>408</ele>
        <time>2014-04-13T12:06:32Z</time>
      </trkpt>
      <trkpt lat="47.57527" lon="6.7985">
        <ele>409</ele>
        <time>2014-04-13T12:06:33Z</time>
      </trkpt>
      <trkpt lat="47.57523" lon="6.79854">
        <ele>409</ele>
        <time>2014-04-13T12:06:34Z</time>
      </trkpt>
      <trkpt lat="47.5752" lon="6.79858">
        <ele>410</ele>
        <time>2014-04-13T12:06:35Z</time>
      </trkpt>
      <trkpt lat="47.57516" lon="6.79861">
        <ele>410</ele>
        <time>2014-04-13T12:06:36Z</time>
      </trkpt>
      <trkpt lat="47.57511" lon="6.79864">
        <ele>410</ele>
        <time>2014-04-13T12:06:37Z</time>
      </trkpt>
      <trkpt lat="47.57494" lon="6.79875">
        <ele>411</ele>
        <time>2014-04-13T12:06:42Z</time>
      </trkpt>
      <trkpt lat="47.57491" lon="6.79877">
        <ele>412</ele>
        <time>2014-04-13T12:06:43Z</time>
      </trkpt>
      <trkpt lat="47.57487" lon="6.7988">
        <ele>412</ele>
        <time>2014-04-13T12:06:44Z</time>
      </trkpt>
      <trkpt lat="47.57484" lon="6.79883">
        <ele>413</ele>
        <time>2014-04-13T12:06:45Z</time>
      </trkpt>
      <trkpt lat="47.57478" lon="6.79889">
        <ele>413</ele>
        <time>2014-04-13T12:06:47Z</time>
      </trkpt>
      <trkpt lat="47.57476" lon="6.79892">
        <ele>414</ele>
        <time>2014-04-13T12:06:48Z</time>
      </trkpt>
      <trkpt lat="47.57473" lon="6.79896">
        <ele>414</ele>
        <time>2014-04-13T12:06:49Z</time>
      </trkpt>
      <trkpt lat="47.57472" lon="6.79901">
        <ele>415</ele>
        <time>2014-04-13T12:06:50Z</time>
      </trkpt>
      <trkpt lat="47.5747" lon="6.79907">
        <ele>415</ele>
        <time>2014-04-13T12:06:51Z</time>
      </trkpt>
      <trkpt lat="47.57465" lon="6.79923">
        <ele>415</ele>
        <time>2014-04-13T12:06:54Z</time>
      </trkpt>
      <trkpt lat="47.57463" lon="6.7993">
        <ele>416</ele>
        <time>2014-04-13T12:06:55Z</time>
      </trkpt>
      <trkpt lat="47.57461" lon="6.79936">
        <ele>416</ele>
        <time>2014-04-13T12:06:56Z</time>
      </trkpt>
      <trkpt lat="47.5746" lon="6.79942">
        <ele>417</ele>
        <time>2014-04-13T12:06:57Z</time>
      </trkpt>
      <trkpt lat="47.57458" lon="6.79949">
        <ele>417</ele>
        <time>2014-04-13T12:06:58Z</time>
      </trkpt>
      <trkpt lat="47.57456" lon="6.79955">
        <ele>417</ele>
        <time>2014-04-13T12:06:59Z</time>
      </trkpt>
      <trkpt lat="47.57451" lon="6.79975">
        <ele>417</ele>
        <time>2014-04-13T12:07:02Z</time>
      </trkpt>
      <trkpt lat="47.57449" lon="6.79981">
        <ele>417</ele>
        <time>2014-04-13T12:07:03Z</time>
      </trkpt>
      <trkpt lat="47.57436" lon="6.80007">
        <ele>417</ele>
        <time>2014-04-13T12:07:07Z</time>
      </trkpt>
      <trkpt lat="47.5741" lon="6.80034">
        <ele>417</ele>
        <time>2014-04-13T12:07:12Z</time>
      </trkpt>
      <trkpt lat="47.57392" lon="6.80049">
        <ele>417</ele>
        <time>2014-04-13T12:07:15Z</time>
      </trkpt>
      <trkpt lat="47.57386" lon="6.80054">
        <ele>417</ele>
        <time>2014-04-13T12:07:16Z</time>
      </trkpt>
      <trkpt lat="47.57381" lon="6.80059">
        <ele>416</ele>
        <time>2014-04-13T12:07:17Z</time>
      </trkpt>
      <trkpt lat="47.57375" lon="6.80064">
        <ele>416</ele>
        <time>2014-04-13T12:07:18Z</time>
      </trkpt>
      <trkpt lat="47.57368" lon="6.80068">
        <ele>415</ele>
        <time>2014-04-13T12:07:19Z</time>
      </trkpt>
      <trkpt lat="47.57362" lon="6.80073">
        <ele>415</ele>
        <time>2014-04-13T12:07:20Z</time>
      </trkpt>
      <trkpt lat="47.57355" lon="6.80077">
        <ele>415</ele>
        <time>2014-04-13T12:07:21Z</time>
      </trkpt>
      <trkpt lat="47.57349" lon="6.80082">
        <ele>414</ele>
        <time>2014-04-13T12:07:22Z</time>
      </trkpt>
      <trkpt lat="47.57343" lon="6.80087">
        <ele>414</ele>
        <time>2014-04-13T12:07:23Z</time>
      </trkpt>
      <trkpt lat="47.57338" lon="6.80093">
        <ele>413</ele>
        <time>2014-04-13T12:07:24Z</time>
      </trkpt>
      <trkpt lat="47.57332" lon="6.80099">
        <ele>413</ele>
        <time>2014-04-13T12:07:25Z</time>
      </trkpt>
      <trkpt lat="47.57327" lon="6.80106">
        <ele>413</ele>
        <time>2014-04-13T12:07:26Z</time>
      </trkpt>
      <trkpt lat="47.57307" lon="6.80134">
        <ele>413</ele>
        <time>2014-04-13T12:07:30Z</time>
      </trkpt>
      <trkpt lat="47.57296" lon="6.80146">
        <ele>413</ele>
        <time>2014-04-13T12:07:32Z</time>
      </trkpt>
      <trkpt lat="47.5729" lon="6.80151">
        <ele>413</ele>
        <time>2014-04-13T12:07:33Z</time>
      </trkpt>
      <trkpt lat="47.57283" lon="6.80155">
        <ele>412</ele>
        <time>2014-04-13T12:07:34Z</time>
      </trkpt>
      <trkpt lat="47.57277" lon="6.80158">
        <ele>412</ele>
        <time>2014-04-13T12:07:35Z</time>
      </trkpt>
      <trkpt lat="47.5727" lon="6.80161">
        <ele>411</ele>
        <time>2014-04-13T12:07:36Z</time>
      </trkpt>
      <trkpt lat="47.57263" lon="6.80163">
        <ele>411</ele>
        <time>2014-04-13T12:07:37Z</time>
      </trkpt>
      <trkpt lat="47.57248" lon="6.80166">
        <ele>411</ele>
        <time>2014-04-13T12:07:39Z</time>
      </trkpt>
      <trkpt lat="47.57234" lon="6.80167">
        <ele>411</ele>
        <time>2014-04-13T12:07:41Z</time>
      </trkpt>
      <trkpt lat="47.57197" lon="6.80179">
        <ele>411</ele>
        <time>2014-04-13T12:07:46Z</time>
      </trkpt>
      <trkpt lat="47.57184" lon="6.80188">
        <ele>411</ele>
        <time>2014-04-13T12:07:48Z</time>
      </trkpt>
      <trkpt lat="47.57178" lon="6.80193">
        <ele>410</ele>
        <time>2014-04-13T12:07:49Z</time>
      </trkpt>
      <trkpt lat="47.57173" lon="6.80199">
        <ele>410</ele>
        <time>2014-04-13T12:07:50Z</time>
      </trkpt>
      <trkpt lat="47.57168" lon="6.80204">
        <ele>409</ele>
        <time>2014-04-13T12:07:51Z</time>
      </trkpt>
      <trkpt lat="47.57163" lon="6.80211">
        <ele>409</ele>
        <time>2014-04-13T12:07:52Z</time>
      </trkpt>
      <trkpt lat="47.57149" lon="6.8023">
        <ele>409</ele>
        <time>2014-04-13T12:07:55Z</time>
      </trkpt>
      <trkpt lat="47.57131" lon="6.80252">
        <ele>409</ele>
        <time>2014-04-13T12:08:00Z</time>
      </trkpt>
      <trkpt lat="47.57128" lon="6.80255">
        <ele>410</ele>
        <time>2014-04-13T12:08:01Z</time>
      </trkpt>
      <trkpt lat="47.57125" lon="6.80258">
        <ele>410</ele>
        <time>2014-04-13T12:08:02Z</time>
      </trkpt>
      <trkpt lat="47.57122" lon="6.8026">
        <ele>411</ele>
        <time>2014-04-13T12:08:03Z</time>
      </trkpt>
      <trkpt lat="47.57117" lon="6.80263">
        <ele>411</ele>
        <time>2014-04-13T12:08:04Z</time>
      </trkpt>
      <trkpt lat="47.57109" lon="6.80267">
        <ele>411</ele>
        <time>2014-04-13T12:08:06Z</time>
      </trkpt>
      <trkpt lat="47.57094" lon="6.80278">
        <ele>411</ele>
        <time>2014-04-13T12:08:10Z</time>
      </trkpt>
      <trkpt lat="47.57084" lon="6.80283">
        <ele>411</ele>
        <time>2014-04-13T12:08:12Z</time>
      </trkpt>
      <trkpt lat="47.57072" lon="6.80292">
        <ele>411</ele>
        <time>2014-04-13T12:08:15Z</time>
      </trkpt>
      <trkpt lat="47.57068" lon="6.80295">
        <ele>411</ele>
        <time>2014-04-13T12:08:16Z</time>
      </trkpt>
      <trkpt lat="47.57063" lon="6.80298">
        <ele>411</ele>
        <time>2014-04-13T12:08:17Z</time>
      </trkpt>
      <trkpt lat="47.5704" lon="6.8031">
        <ele>411</ele>
        <time>2014-04-13T12:08:22Z</time>
      </trkpt>
      <trkpt lat="47.57036" lon="6.80314">
        <ele>411</ele>
        <time>2014-04-13T12:08:23Z</time>
      </trkpt>
      <trkpt lat="47.57016" lon="6.80323">
        <ele>411</ele>
        <time>2014-04-13T12:08:28Z</time>
      </trkpt>
      <trkpt lat="47.57003" lon="6.80327">
        <ele>411</ele>
        <time>2014-04-13T12:08:31Z</time>
      </trkpt>
      <trkpt lat="47.56992" lon="6.80325">
        <ele>411</ele>
        <time>2014-04-13T12:08:33Z</time>
      </trkpt>
      <trkpt lat="47.56971" lon="6.80324">
        <ele>411</ele>
        <time>2014-04-13T12:08:37Z</time>
      </trkpt>
      <trkpt lat="47.56953" lon="6.80325">
        <ele>411</ele>
        <time>2014-04-13T12:08:41Z</time>
      </trkpt>
      <trkpt lat="47.56948" lon="6.80325">
        <ele>411</ele>
        <time>2014-04-13T12:08:42Z</time>
      </trkpt>
      <trkpt lat="47.56931" lon="6.80326">
        <ele>411</ele>
        <time>2014-04-13T12:08:46Z</time>
      </trkpt>
      <trkpt lat="47.56918" lon="6.80327">
        <ele>411</ele>
        <time>2014-04-13T12:08:49Z</time>
      </trkpt>
      <trkpt lat="47.56902" lon="6.80326">
        <ele>411</ele>
        <time>2014-04-13T12:08:53Z</time>
      </trkpt>
      <trkpt lat="47.56892" lon="6.80326">
        <ele>411</ele>
        <time>2014-04-13T12:08:55Z</time>
      </trkpt>
      <trkpt lat="47.5688" lon="6.80323">
        <ele>411</ele>
        <time>2014-04-13T12:08:57Z</time>
      </trkpt>
      <trkpt lat="47.56873" lon="6.80321">
        <ele>411</ele>
        <time>2014-04-13T12:08:58Z</time>
      </trkpt>
      <trkpt lat="47.56867" lon="6.80317">
        <ele>410</ele>
        <time>2014-04-13T12:08:59Z</time>
      </trkpt>
      <trkpt lat="47.5686" lon="6.80312">
        <ele>410</ele>
        <time>2014-04-13T12:09:00Z</time>
      </trkpt>
      <trkpt lat="47.56853" lon="6.80307">
        <ele>409</ele>
        <time>2014-04-13T12:09:01Z</time>
      </trkpt>
      <trkpt lat="47.56846" lon="6.80303">
        <ele>409</ele>
        <time>2014-04-13T12:09:02Z</time>
      </trkpt>
      <trkpt lat="47.56838" lon="6.80298">
        <ele>408</ele>
        <time>2014-04-13T12:09:03Z</time>
      </trkpt>
      <trkpt lat="47.5683" lon="6.80293">
        <ele>408</ele>
        <time>2014-04-13T12:09:04Z</time>
      </trkpt>
      <trkpt lat="47.56822" lon="6.80288">
        <ele>407</ele>
        <time>2014-04-13T12:09:05Z</time>
      </trkpt>
      <trkpt lat="47.56814" lon="6.80283">
        <ele>406</ele>
        <time>2014-04-13T12:09:06Z</time>
      </trkpt>
      <trkpt lat="47.56806" lon="6.80278">
        <ele>406</ele>
        <time>2014-04-13T12:09:07Z</time>
      </trkpt>
      <trkpt lat="47.56798" lon="6.80272">
        <ele>405</ele>
        <time>2014-04-13T12:09:08Z</time>
      </trkpt>
      <trkpt lat="47.56789" lon="6.80266">
        <ele>404</ele>
        <time>2014-04-13T12:09:09Z</time>
      </trkpt>
      <trkpt lat="47.56782" lon="6.80259">
        <ele>404</ele>
        <time>2014-04-13T12:09:10Z</time>
      </trkpt>
      <trkpt lat="47.56773" lon="6.80251">
        <ele>403</ele>
        <time>2014-04-13T12:09:11Z</time>
      </trkpt>
      <trkpt lat="47.56765" lon="6.80243">
        <ele>401</ele>
        <time>2014-04-13T12:09:12Z</time>
      </trkpt>
      <trkpt lat="47.56757" lon="6.80235">
        <ele>400</ele>
        <time>2014-04-13T12:09:13Z</time>
      </trkpt>
      <trkpt lat="47.56749" lon="6.80227">
        <ele>400</ele>
        <time>2014-04-13T12:09:14Z</time>
      </trkpt>
      <trkpt lat="47.5674" lon="6.80218">
        <ele>399</ele>
        <time>2014-04-13T12:09:15Z</time>
      </trkpt>
      <trkpt lat="47.56732" lon="6.80211">
        <ele>398</ele>
        <time>2014-04-13T12:09:16Z</time>
      </trkpt>
      <trkpt lat="47.56724" lon="6.80202">
        <ele>397</ele>
        <time>2014-04-13T12:09:17Z</time>
      </trkpt>
      <trkpt lat="47.56715" lon="6.80194">
        <ele>396</ele>
        <time>2014-04-13T12:09:18Z</time>
      </trkpt>
      <trkpt lat="47.56707" lon="6.80186">
        <ele>395</ele>
        <time>2014-04-13T12:09:19Z</time>
      </trkpt>
      <trkpt lat="47.56699" lon="6.80178">
        <ele>394</ele>
        <time>2014-04-13T12:09:20Z</time>
      </trkpt>
      <trkpt lat="47.56691" lon="6.8017">
        <ele>393</ele>
        <time>2014-04-13T12:09:21Z</time>
      </trkpt>
      <trkpt lat="47.56682" lon="6.80163">
        <ele>393</ele>
        <time>2014-04-13T12:09:22Z</time>
      </trkpt>
      <trkpt lat="47.56673" lon="6.80157">
        <ele>392</ele>
        <time>2014-04-13T12:09:23Z</time>
      </trkpt>
      <trkpt lat="47.56664" lon="6.80153">
        <ele>391</ele>
        <time>2014-04-13T12:09:24Z</time>
      </trkpt>
      <trkpt lat="47.56656" lon="6.80148">
        <ele>391</ele>
        <time>2014-04-13T12:09:25Z</time>
      </trkpt>
      <trkpt lat="47.56647" lon="6.80143">
        <ele>390</ele>
        <time>2014-04-13T12:09:26Z</time>
      </trkpt>
      <trkpt lat="47.56638" lon="6.80138">
        <ele>389</ele>
        <time>2014-04-13T12:09:27Z</time>
      </trkpt>
      <trkpt lat="47.5663" lon="6.80133">
        <ele>388</ele>
        <time>2014-04-13T12:09:28Z</time>
      </trkpt>
      <trkpt lat="47.56623" lon="6.80127">
        <ele>387</ele>
        <time>2014-04-13T12:09:29Z</time>
      </trkpt>
      <trkpt lat="47.56617" lon="6.80122">
        <ele>387</ele>
        <time>2014-04-13T12:09:30Z</time>
      </trkpt>
      <trkpt lat="47.56611" lon="6.80116">
        <ele>386</ele>
        <time>2014-04-13T12:09:31Z</time>
      </trkpt>
      <trkpt lat="47.56605" lon="6.80113">
        <ele>386</ele>
        <time>2014-04-13T12:09:32Z</time>
      </trkpt>
      <trkpt lat="47.56598" lon="6.8011">
        <ele>385</ele>
        <time>2014-04-13T12:09:33Z</time>
      </trkpt>
      <trkpt lat="47.56592" lon="6.80107">
        <ele>385</ele>
        <time>2014-04-13T12:09:34Z</time>
      </trkpt>
      <trkpt lat="47.56577" lon="6.80108">
        <ele>385</ele>
        <time>2014-04-13T12:09:36Z</time>
      </trkpt>
      <trkpt lat="47.56569" lon="6.8011">
        <ele>385</ele>
        <time>2014-04-13T12:09:37Z</time>
      </trkpt>
      <trkpt lat="47.56562" lon="6.80112">
        <ele>384</ele>
        <time>2014-04-13T12:09:38Z</time>
      </trkpt>
      <trkpt lat="47.56554" lon="6.80114">
        <ele>384</ele>
        <time>2014-04-13T12:09:39Z</time>
      </trkpt>
      <trkpt lat="47.56546" lon="6.80115">
        <ele>383</ele>
        <time>2014-04-13T12:09:40Z</time>
      </trkpt>
      <trkpt lat="47.56538" lon="6.80117">
        <ele>383</ele>
        <time>2014-04-13T12:09:41Z</time>
      </trkpt>
      <trkpt lat="47.5653" lon="6.80118">
        <ele>382</ele>
        <time>2014-04-13T12:09:42Z</time>
      </trkpt>
      <trkpt lat="47.56522" lon="6.80119">
        <ele>381</ele>
        <time>2014-04-13T12:09:43Z</time>
      </trkpt>
      <trkpt lat="47.56515" lon="6.80121">
        <ele>381</ele>
        <time>2014-04-13T12:09:44Z</time>
      </trkpt>
      <trkpt lat="47.56507" lon="6.80122">
        <ele>380</ele>
        <time>2014-04-13T12:09:45Z</time>
      </trkpt>
      <trkpt lat="47.56499" lon="6.80124">
        <ele>380</ele>
        <time>2014-04-13T12:09:46Z</time>
      </trkpt>
      <trkpt lat="47.56492" lon="6.80125">
        <ele>379</ele>
        <time>2014-04-13T12:09:47Z</time>
      </trkpt>
      <trkpt lat="47.56484" lon="6.80127">
        <ele>378</ele>
        <time>2014-04-13T12:09:48Z</time>
      </trkpt>
      <trkpt lat="47.56476" lon="6.80128">
        <ele>378</ele>
        <time>2014-04-13T12:09:49Z</time>
      </trkpt>
      <trkpt lat="47.56434" lon="6.80133">
        <ele>378</ele>
        <time>2014-04-13T12:09:55Z</time>
      </trkpt>
      <trkpt lat="47.56428" lon="6.80133">
        <ele>377</ele>
        <time>2014-04-13T12:09:56Z</time>
      </trkpt>
      <trkpt lat="47.56422" lon="6.80133">
        <ele>377</ele>
        <time>2014-04-13T12:09:57Z</time>
      </trkpt>
      <trkpt lat="47.56415" lon="6.80131">
        <ele>377</ele>
        <time>2014-04-13T12:09:58Z</time>
      </trkpt>
      <trkpt lat="47.56409" lon="6.8013">
        <ele>376</ele>
        <time>2014-04-13T12:09:59Z</time>
      </trkpt>
      <trkpt lat="47.56396" lon="6.80127">
        <ele>376</ele>
        <time>2014-04-13T12:10:01Z</time>
      </trkpt>
      <trkpt lat="47.56362" lon="6.8012">
        <ele>376</ele>
        <time>2014-04-13T12:10:06Z</time>
      </trkpt>
      <trkpt lat="47.56356" lon="6.80119">
        <ele>375</ele>
        <time>2014-04-13T12:10:07Z</time>
      </trkpt>
      <trkpt lat="47.5635" lon="6.80118">
        <ele>375</ele>
        <time>2014-04-13T12:10:08Z</time>
      </trkpt>
      <trkpt lat="47.56342" lon="6.80117">
        <ele>375</ele>
        <time>2014-04-13T12:10:09Z</time>
      </trkpt>
      <trkpt lat="47.56335" lon="6.80117">
        <ele>374</ele>
        <time>2014-04-13T12:10:10Z</time>
      </trkpt>
      <trkpt lat="47.56322" lon="6.80114">
        <ele>374</ele>
        <time>2014-04-13T12:10:12Z</time>
      </trkpt>
      <trkpt lat="47.56314" lon="6.80115">
        <ele>373</ele>
        <time>2014-04-13T12:10:13Z</time>
      </trkpt>
      <trkpt lat="47.56307" lon="6.80117">
        <ele>372</ele>
        <time>2014-04-13T12:10:14Z</time>
      </trkpt>
      <trkpt lat="47.56301" lon="6.80119">
        <ele>372</ele>
        <time>2014-04-13T12:10:15Z</time>
      </trkpt>
      <trkpt lat="47.56294" lon="6.80123">
        <ele>371</ele>
        <time>2014-04-13T12:10:16Z</time>
      </trkpt>
      <trkpt lat="47.56287" lon="6.80126">
        <ele>371</ele>
        <time>2014-04-13T12:10:17Z</time>
      </trkpt>
      <trkpt lat="47.56249" lon="6.80145">
        <ele>371</ele>
        <time>2014-04-13T12:10:23Z</time>
      </trkpt>
      <trkpt lat="47.56211" lon="6.80161">
        <ele>371</ele>
        <time>2014-04-13T12:10:29Z</time>
      </trkpt>
      <trkpt lat="47.56205" lon="6.8016">
        <ele>371</ele>
        <time>2014-04-13T12:10:30Z</time>
      </trkpt>
      <trkpt lat="47.56196" lon="6.80155">
        <ele>371</ele>
        <time>2014-04-13T12:10:32Z</time>
      </trkpt>
      <trkpt lat="47.56173" lon="6.80142">
        <ele>371</ele>
        <time>2014-04-13T12:10:37Z</time>
      </trkpt>
      <trkpt lat="47.56158" lon="6.80143">
        <ele>371</ele>
        <time>2014-04-13T12:10:40Z</time>
      </trkpt>
      <trkpt lat="47.56153" lon="6.80145">
        <ele>371</ele>
        <time>2014-04-13T12:10:41Z</time>
      </trkpt>
      <trkpt lat="47.56134" lon="6.80149">
        <ele>371</ele>
        <time>2014-04-13T12:10:45Z</time>
      </trkpt>
      <trkpt lat="47.56127" lon="6.80152">
        <ele>372</ele>
        <time>2014-04-13T12:10:47Z</time>
      </trkpt>
      <trkpt lat="47.56123" lon="6.80153">
        <ele>372</ele>
        <time>2014-04-13T12:10:48Z</time>
      </trkpt>
      <trkpt lat="47.56119" lon="6.80156">
        <ele>373</ele>
        <time>2014-04-13T12:10:49Z</time>
      </trkpt>
      <trkpt lat="47.56116" lon="6.80158">
        <ele>373</ele>
        <time>2014-04-13T12:10:50Z</time>
      </trkpt>
      <trkpt lat="47.56113" lon="6.80161">
        <ele>373</ele>
        <time>2014-04-13T12:10:51Z</time>
      </trkpt>
      <trkpt lat="47.56108" lon="6.80168">
        <ele>373</ele>
        <time>2014-04-13T12:10:53Z</time>
      </trkpt>
      <trkpt lat="47.56104" lon="6.80176">
        <ele>374</ele>
        <time>2014-04-13T12:10:55Z</time>
      </trkpt>
      <trkpt lat="47.56102" lon="6.80181">
        <ele>374</ele>
        <time>2014-04-13T12:10:56Z</time>
      </trkpt>
      <trkpt lat="47.561" lon="6.80184">
        <ele>375</ele>
        <time>2014-04-13T12:10:57Z</time>
      </trkpt>
      <trkpt lat="47.56098" lon="6.80188">
        <ele>375</ele>
        <time>2014-04-13T12:10:58Z</time>
      </trkpt>
      <trkpt lat="47.56095" lon="6.80191">
        <ele>375</ele>
        <time>2014-04-13T12:10:59Z</time>
      </trkpt>
      <trkpt lat="47.56083" lon="6.80199">
        <ele>375</ele>
        <time>2014-04-13T12:11:02Z</time>
      </trkpt>
      <trkpt lat="47.56079" lon="6.80201">
        <ele>376</ele>
        <time>2014-04-13T12:11:03Z</time>
      </trkpt>
      <trkpt lat="47.56074" lon="6.80203">
        <ele>376</ele>
        <time>2014-04-13T12:11:04Z</time>
      </trkpt>
      <trkpt lat="47.5607" lon="6.80204">
        <ele>377</ele>
        <time>2014-04-13T12:11:05Z</time>
      </trkpt>
      <trkpt lat="47.56065" lon="6.80205">
        <ele>377</ele>
        <time>2014-04-13T12:11:06Z</time>
      </trkpt>
      <trkpt lat="47.56062" lon="6.80206">
        <ele>378</ele>
        <time>2014-04-13T12:11:07Z</time>
      </trkpt>
      <trkpt lat="47.56058" lon="6.80207">
        <ele>378</ele>
        <time>2014-04-13T12:11:08Z</time>
      </trkpt>
      <trkpt lat="47.56044" lon="6.8021">
        <ele>378</ele>
        <time>2014-04-13T12:11:11Z</time>
      </trkpt>
      <trkpt lat="47.56032" lon="6.80207">
        <ele>378</ele>
        <time>2014-04-13T12:11:13Z</time>
      </trkpt>
      <trkpt lat="47.56027" lon="6.80204">
        <ele>378</ele>
        <time>2014-04-13T12:11:14Z</time>
      </trkpt>
      <trkpt lat="47.56013" lon="6.80189">
        <ele>378</ele>
        <time>2014-04-13T12:11:17Z</time>
      </trkpt>
      <trkpt lat="47.56009" lon="6.80183">
        <ele>378</ele>
        <time>2014-04-13T12:11:18Z</time>
      </trkpt>
      <trkpt lat="47.55991" lon="6.80167">
        <ele>378</ele>
        <time>2014-04-13T12:11:22Z</time>
      </trkpt>
      <trkpt lat="47.55987" lon="6.80165">
        <ele>378</ele>
        <time>2014-04-13T12:11:23Z</time>
      </trkpt>
      <trkpt lat="47.55982" lon="6.80163">
        <ele>378</ele>
        <time>2014-04-13T12:11:24Z</time>
      </trkpt>
      <trkpt lat="47.55969" lon="6.80163">
        <ele>378</ele>
        <time>2014-04-13T12:11:27Z</time>
      </trkpt>
      <trkpt lat="47.5595" lon="6.80166">
        <ele>378</ele>
        <time>2014-04-13T12:11:32Z</time>
      </trkpt>
      <trkpt lat="47.55947" lon="6.80167">
        <ele>378</ele>
        <time>2014-04-13T12:11:33Z</time>
      </trkpt>
      <trkpt lat="47.55944" lon="6.80168">
        <ele>378</ele>
        <time>2014-04-13T12:11:34Z</time>
      </trkpt>
      <trkpt lat="47.5594" lon="6.80168">
        <ele>378</ele>
        <time>2014-04-13T12:11:35Z</time>
      </trkpt>
      <trkpt lat="47.55938" lon="6.8017">
        <ele>379</ele>
        <time>2014-04-13T12:11:36Z</time>
      </trkpt>
      <trkpt lat="47.55934" lon="6.80171">
        <ele>379</ele>
        <time>2014-04-13T12:11:37Z</time>
      </trkpt>
      <trkpt lat="47.55932" lon="6.80172">
        <ele>380</ele>
        <time>2014-04-13T12:11:38Z</time>
      </trkpt>
      <trkpt lat="47.55923" lon="6.80182">
        <ele>380</ele>
        <time>2014-04-13T12:11:42Z</time>
      </trkpt>
      <trkpt lat="47.55917" lon="6.80187">
        <ele>380</ele>
        <time>2014-04-13T12:11:44Z</time>
      </trkpt>
      <trkpt lat="47.55914" lon="6.80191">
        <ele>381</ele>
        <time>2014-04-13T12:11:45Z</time>
      </trkpt>
      <trkpt lat="47.55911" lon="6.80195">
        <ele>381</ele>
        <time>2014-04-13T12:11:46Z</time>
      </trkpt>
      <trkpt lat="47.55909" lon="6.80199">
        <ele>382</ele>
        <time>2014-04-13T12:11:47Z</time>
      </trkpt>
      <trkpt lat="47.55906" lon="6.80203">
        <ele>382</ele>
        <time>2014-04-13T12:11:48Z</time>
      </trkpt>
      <trkpt lat="47.55888" lon="6.80213">
        <ele>382</ele>
        <time>2014-04-13T12:11:53Z</time>
      </trkpt>
      <trkpt lat="47.55875" lon="6.80215">
        <ele>382</ele>
        <time>2014-04-13T12:11:57Z</time>
      </trkpt>
      <trkpt lat="47.55871" lon="6.80216">
        <ele>383</ele>
        <time>2014-04-13T12:11:58Z</time>
      </trkpt>
      <trkpt lat="47.55868" lon="6.80216">
        <ele>383</ele>
        <time>2014-04-13T12:11:59Z</time>
      </trkpt>
      <trkpt lat="47.55864" lon="6.80215">
        <ele>384</ele>
        <time>2014-04-13T12:12:00Z</time>
      </trkpt>
      <trkpt lat="47.5586" lon="6.80215">
        <ele>384</ele>
        <time>2014-04-13T12:12:01Z</time>
      </trkpt>
      <trkpt lat="47.55847" lon="6.8021">
        <ele>384</ele>
        <time>2014-04-13T12:12:05Z</time>
      </trkpt>
      <trkpt lat="47.55835" lon="6.80207">
        <ele>384</ele>
        <time>2014-04-13T12:12:08Z</time>
      </trkpt>
      <trkpt lat="47.55828" lon="6.80203">
        <ele>384</ele>
        <time>2014-04-13T12:12:10Z</time>
      </trkpt>
      <trkpt lat="47.5582" lon="6.80198">
        <ele>384</ele>
        <time>2014-04-13T12:12:12Z</time>
      </trkpt>
      <trkpt lat="47.55805" lon="6.80189">
        <ele>384</ele>
        <time>2014-04-13T12:12:16Z</time>
      </trkpt>
      <trkpt lat="47.55785" lon="6.80183">
        <ele>384</ele>
        <time>2014-04-13T12:12:21Z</time>
      </trkpt>
      <trkpt lat="47.55779" lon="6.80183">
        <ele>384</ele>
        <time>2014-04-13T12:12:22Z</time>
      </trkpt>
      <trkpt lat="47.55757" lon="6.80187">
        <ele>384</ele>
        <time>2014-04-13T12:12:26Z</time>
      </trkpt>
      <trkpt lat="47.55724" lon="6.80194">
        <ele>384</ele>
        <time>2014-04-13T12:12:32Z</time>
      </trkpt>
      <trkpt lat="47.55719" lon="6.80197">
        <ele>384</ele>
        <time>2014-04-13T12:12:33Z</time>
      </trkpt>
      <trkpt lat="47.55705" lon="6.802">
        <ele>384</ele>
        <time>2014-04-13T12:12:36Z</time>
      </trkpt>
      <trkpt lat="47.55698" lon="6.80199">
        <ele>383</ele>
        <time>2014-04-13T12:12:37Z</time>
      </trkpt>
      <trkpt lat="47.55694" lon="6.80195">
        <ele>383</ele>
        <time>2014-04-13T12:12:38Z</time>
      </trkpt>
      <trkpt lat="47.55689" lon="6.8019">
        <ele>382</ele>
        <time>2014-04-13T12:12:39Z</time>
      </trkpt>
      <trkpt lat="47.55684" lon="6.80186">
        <ele>382</ele>
        <time>2014-04-13T12:12:40Z</time>
      </trkpt>
      <trkpt lat="47.55678" lon="6.80182">
        <ele>381</ele>
        <time>2014-04-13T12:12:41Z</time>
      </trkpt>
      <trkpt lat="47.55672" lon="6.80179">
        <ele>381</ele>
        <time>2014-04-13T12:12:42Z</time>
      </trkpt>
      <trkpt lat="47.55666" lon="6.80177">
        <ele>381</ele>
        <time>2014-04-13T12:12:43Z</time>
      </trkpt>
      <trkpt lat="47.5566" lon="6.80174">
        <ele>380</ele>
        <time>2014-04-13T12:12:44Z</time>
      </trkpt>
      <trkpt lat="47.55652" lon="6.80169">
        <ele>379</ele>
        <time>2014-04-13T12:12:45Z</time>
      </trkpt>
      <trkpt lat="47.55646" lon="6.80166">
        <ele>379</ele>
        <time>2014-04-13T12:12:46Z</time>
      </trkpt>
      <trkpt lat="47.55641" lon="6.80166">
        <ele>378</ele>
        <time>2014-04-13T12:12:47Z</time>
      </trkpt>
      <trkpt lat="47.55638" lon="6.80164">
        <ele>377</ele>
        <time>2014-04-13T12:12:48Z</time>
      </trkpt>
      <trkpt lat="47.55635" lon="6.80163">
        <ele>376</ele>
        <time>2014-04-13T12:12:49Z</time>
      </trkpt>
      <trkpt lat="47.55631" lon="6.8016">
        <ele>376</ele>
        <time>2014-04-13T12:12:50Z</time>
      </trkpt>
      <trkpt lat="47.55628" lon="6.80158">
        <ele>375</ele>
        <time>2014-04-13T12:12:51Z</time>
      </trkpt>
      <trkpt lat="47.55624" lon="6.80156">
        <ele>374</ele>
        <time>2014-04-13T12:12:52Z</time>
      </trkpt>
      <trkpt lat="47.55621" lon="6.80153">
        <ele>374</ele>
        <time>2014-04-13T12:12:53Z</time>
      </trkpt>
      <trkpt lat="47.5562" lon="6.80151">
        <ele>373</ele>
        <time>2014-04-13T12:12:54Z</time>
      </trkpt>
      <trkpt lat="47.55619" lon="6.8015">
        <ele>372</ele>
        <time>2014-04-13T12:12:55Z</time>
      </trkpt>
      <trkpt lat="47.55618" lon="6.80149">
        <ele>371</ele>
        <time>2014-04-13T12:12:56Z</time>
      </trkpt>
      <trkpt lat="47.55618" lon="6.80149">
        <ele>370</ele>
        <time>2014-04-13T12:12:57Z</time>
      </trkpt>
      <trkpt lat="47.55618" lon="6.80149">
        <ele>370</ele>
        <time>2014-04-13T12:12:58Z</time>
      </trkpt>
      <trkpt lat="47.55619" lon="6.80148">
        <ele>370</ele>
        <time>2014-04-13T12:13:01Z</time>
      </trkpt>
      <trkpt lat="47.55619" lon="6.80146">
        <ele>370</ele>
        <time>2014-04-13T12:13:04Z</time>
      </trkpt>
      <trkpt lat="47.55621" lon="6.80149">
        <ele>370</ele>
        <time>2014-04-13T12:13:08Z</time>
      </trkpt>
      <trkpt lat="47.55624" lon="6.80153">
        <ele>370</ele>
        <time>2014-04-13T12:13:13Z</time>
      </trkpt>
      <trkpt lat="47.55626" lon="6.80155">
        <ele>370</ele>
        <time>2014-04-13T12:13:17Z</time>
      </trkpt>
      <trkpt lat="47.55626" lon="6.80155">
        <ele>370</ele>
        <time>2014-04-13T12:13:18Z</time>
      </trkpt>
      <trkpt lat="47.55627" lon="6.80156">
        <ele>370</ele>
        <time>2014-04-13T12:13:19Z</time>
      </trkpt>
      <trkpt lat="47.5563" lon="6.80156">
        <ele>371</ele>
        <time>2014-04-13T12:13:21Z</time>
      </trkpt>
      <trkpt lat="47.55632" lon="6.80157">
        <ele>371</ele>
        <time>2014-04-13T12:13:22Z</time>
      </trkpt>
      <trkpt lat="47.55634" lon="6.80157">
        <ele>372</ele>
        <time>2014-04-13T12:13:23Z</time>
      </trkpt>
      <trkpt lat="47.55637" lon="6.80157">
        <ele>372</ele>
        <time>2014-04-13T12:13:24Z</time>
      </trkpt>
      <trkpt lat="47.55639" lon="6.80157">
        <ele>373</ele>
        <time>2014-04-13T12:13:25Z</time>
      </trkpt>
      <trkpt lat="47.55646" lon="6.8016">
        <ele>373</ele>
        <time>2014-04-13T12:13:28Z</time>
      </trkpt>
      <trkpt lat="47.55647" lon="6.80161">
        <ele>373</ele>
        <time>2014-04-13T12:13:29Z</time>
      </trkpt>
      <trkpt lat="47.5565" lon="6.80162">
        <ele>374</ele>
        <time>2014-04-13T12:13:30Z</time>
      </trkpt>
      <trkpt lat="47.55652" lon="6.80163">
        <ele>374</ele>
        <time>2014-04-13T12:13:31Z</time>
      </trkpt>
      <trkpt lat="47.55655" lon="6.80165">
        <ele>375</ele>
        <time>2014-04-13T12:13:32Z</time>
      </trkpt>
      <trkpt lat="47.55661" lon="6.80168">
        <ele>375</ele>
        <time>2014-04-13T12:13:34Z</time>
      </trkpt>
      <trkpt lat="47.55664" lon="6.80169">
        <ele>376</ele>
        <time>2014-04-13T12:13:35Z</time>
      </trkpt>
      <trkpt lat="47.55667" lon="6.8017">
        <ele>376</ele>
        <time>2014-04-13T12:13:36Z</time>
      </trkpt>
      <trkpt lat="47.5567" lon="6.80171">
        <ele>376</ele>
        <time>2014-04-13T12:13:37Z</time>
      </trkpt>
      <trkpt lat="47.55672" lon="6.80172">
        <ele>377</ele>
        <time>2014-04-13T12:13:38Z</time>
      </trkpt>
      <trkpt lat="47.55679" lon="6.80177">
        <ele>377</ele>
        <time>2014-04-13T12:13:41Z</time>
      </trkpt>
      <trkpt lat="47.55681" lon="6.80179">
        <ele>378</ele>
        <time>2014-04-13T12:13:42Z</time>
      </trkpt>
      <trkpt lat="47.55683" lon="6.8018">
        <ele>378</ele>
        <time>2014-04-13T12:13:43Z</time>
      </trkpt>
      <trkpt lat="47.55687" lon="6.80183">
        <ele>379</ele>
        <time>2014-04-13T12:13:44Z</time>
      </trkpt>
      <trkpt lat="47.55689" lon="6.80185">
        <ele>379</ele>
        <time>2014-04-13T12:13:45Z</time>
      </trkpt>
      <trkpt lat="47.55695" lon="6.8019">
        <ele>380</ele>
        <time>2014-04-13T12:13:47Z</time>
      </trkpt>
      <trkpt lat="47.55698" lon="6.80192">
        <ele>380</ele>
        <time>2014-04-13T12:13:48Z</time>
      </trkpt>
      <trkpt lat="47.557" lon="6.80195">
        <ele>380</ele>
        <time>2014-04-13T12:13:49Z</time>
      </trkpt>
      <trkpt lat="47.55701" lon="6.80197">
        <ele>381</ele>
        <time>2014-04-13T12:13:50Z</time>
      </trkpt>
      <trkpt lat="47.55701" lon="6.80199">
        <ele>381</ele>
        <time>2014-04-13T12:13:51Z</time>
      </trkpt>
      <trkpt lat="47.557" lon="6.80203">
        <ele>381</ele>
        <time>2014-04-13T12:13:53Z</time>
      </trkpt>
      <trkpt lat="47.557" lon="6.80203">
        <ele>381</ele>
        <time>2014-04-13T12:13:54Z</time>
      </trkpt>
      <trkpt lat="47.55701" lon="6.80194">
        <ele>381</ele>
        <time>2014-04-13T12:18:54Z</time>
      </trkpt>
      <trkpt lat="47.55699" lon="6.80192">
        <ele>381</ele>
        <time>2014-04-13T12:18:55Z</time>
      </trkpt>
      <trkpt lat="47.55696" lon="6.80189">
        <ele>381</ele>
        <time>2014-04-13T12:18:56Z</time>
      </trkpt>
      <trkpt lat="47.55684" lon="6.80179">
        <ele>381</ele>
        <time>2014-04-13T12:18:59Z</time>
      </trkpt>
      <trkpt lat="47.55678" lon="6.80176">
        <ele>381</ele>
        <time>2014-04-13T12:19:00Z</time>
      </trkpt>
      <trkpt lat="47.55663" lon="6.80171">
        <ele>381</ele>
        <time>2014-04-13T12:19:02Z</time>
      </trkpt>
      <trkpt lat="47.55654" lon="6.80168">
        <ele>380</ele>
        <time>2014-04-13T12:19:03Z</time>
      </trkpt>
      <trkpt lat="47.55645" lon="6.80165">
        <ele>380</ele>
        <time>2014-04-13T12:19:04Z</time>
      </trkpt>
      <trkpt lat="47.55637" lon="6.80162">
        <ele>379</ele>
        <time>2014-04-13T12:19:05Z</time>
      </trkpt>
      <trkpt lat="47.55629" lon="6.80158">
        <ele>377</ele>
        <time>2014-04-13T12:19:06Z</time>
      </trkpt>
      <trkpt lat="47.55621" lon="6.80153">
        <ele>376</ele>
        <time>2014-04-13T12:19:07Z</time>
      </trkpt>
      <trkpt lat="47.55615" lon="6.80147">
        <ele>375</ele>
        <time>2014-04-13T12:19:08Z</time>
      </trkpt>
      <trkpt lat="47.55606" lon="6.80143">
        <ele>374</ele>
        <time>2014-04-13T12:19:09Z</time>
      </trkpt>
      <trkpt lat="47.55598" lon="6.80143">
        <ele>373</ele>
        <time>2014-04-13T12:19:10Z</time>
      </trkpt>
      <trkpt lat="47.55591" lon="6.80147">
        <ele>372</ele>
        <time>2014-04-13T12:19:11Z</time>
      </trkpt>
      <trkpt lat="47.55584" lon="6.80152">
        <ele>371</ele>
        <time>2014-04-13T12:19:12Z</time>
      </trkpt>
      <trkpt lat="47.55577" lon="6.80157">
        <ele>370</ele>
        <time>2014-04-13T12:19:13Z</time>
      </trkpt>
      <trkpt lat="47.5557" lon="6.80161">
        <ele>369</ele>
        <time>2014-04-13T12:19:14Z</time>
      </trkpt>
      <trkpt lat="47.55565" lon="6.80161">
        <ele>368</ele>
        <time>2014-04-13T12:19:15Z</time>
      </trkpt>
      <trkpt lat="47.55559" lon="6.8016">
        <ele>367</ele>
        <time>2014-04-13T12:19:16Z</time>
      </trkpt>
      <trkpt lat="47.55553" lon="6.80156">
        <ele>366</ele>
        <time>2014-04-13T12:19:17Z</time>
      </trkpt>
      <trkpt lat="47.55543" lon="6.80144">
        <ele>366</ele>
        <time>2014-04-13T12:19:19Z</time>
      </trkpt>
      <trkpt lat="47.55531" lon="6.80131">
        <ele>366</ele>
        <time>2014-04-13T12:19:21Z</time>
      </trkpt>
      <trkpt lat="47.55519" lon="6.80122">
        <ele>366</ele>
        <time>2014-04-13T12:19:23Z</time>
      </trkpt>
      <trkpt lat="47.55513" lon="6.80119">
        <ele>366</ele>
        <time>2014-04-13T12:19:24Z</time>
      </trkpt>
      <trkpt lat="47.55495" lon="6.8011">
        <ele>366</ele>
        <time>2014-04-13T12:19:27Z</time>
      </trkpt>
      <trkpt lat="47.55485" lon="6.80109">
        <ele>366</ele>
        <time>2014-04-13T12:19:29Z</time>
      </trkpt>
      <trkpt lat="47.55481" lon="6.8011">
        <ele>366</ele>
        <time>2014-04-13T12:19:30Z</time>
      </trkpt>
      <trkpt lat="47.55474" lon="6.80112">
        <ele>366</ele>
        <time>2014-04-13T12:19:32Z</time>
      </trkpt>
      <trkpt lat="47.55471" lon="6.80114">
        <ele>367</ele>
        <time>2014-04-13T12:19:33Z</time>
      </trkpt>
      <trkpt lat="47.55469" lon="6.80115">
        <ele>367</ele>
        <time>2014-04-13T12:19:34Z</time>
      </trkpt>
      <trkpt lat="47.55466" lon="6.80116">
        <ele>367</ele>
        <time>2014-04-13T12:19:35Z</time>
      </trkpt>
      <trkpt lat="47.55464" lon="6.80117">
        <ele>368</ele>
        <time>2014-04-13T12:19:36Z</time>
      </trkpt>
      <trkpt lat="47.55461" lon="6.80117">
        <ele>368</ele>
        <time>2014-04-13T12:19:37Z</time>
      </trkpt>
      <trkpt lat="47.55454" lon="6.80116">
        <ele>368</ele>
        <time>2014-04-13T12:19:41Z</time>
      </trkpt>
      <trkpt lat="47.55452" lon="6.80114">
        <ele>369</ele>
        <time>2014-04-13T12:19:42Z</time>
      </trkpt>
      <trkpt lat="47.55449" lon="6.80111">
        <ele>369</ele>
        <time>2014-04-13T12:19:43Z</time>
      </trkpt>
      <trkpt lat="47.55447" lon="6.80108">
        <ele>370</ele>
        <time>2014-04-13T12:19:44Z</time>
      </trkpt>
      <trkpt lat="47.55444" lon="6.80104">
        <ele>370</ele>
        <time>2014-04-13T12:19:45Z</time>
      </trkpt>
      <trkpt lat="47.55441" lon="6.801">
        <ele>370</ele>
        <time>2014-04-13T12:19:46Z</time>
      </trkpt>
      <trkpt lat="47.55435" lon="6.80091">
        <ele>370</ele>
        <time>2014-04-13T12:19:48Z</time>
      </trkpt>
      <trkpt lat="47.55431" lon="6.80085">
        <ele>370</ele>
        <time>2014-04-13T12:19:49Z</time>
      </trkpt>
      <trkpt lat="47.55427" lon="6.80079">
        <ele>370</ele>
        <time>2014-04-13T12:19:50Z</time>
      </trkpt>
      <trkpt lat="47.55417" lon="6.80066">
        <ele>370</ele>
        <time>2014-04-13T12:19:52Z</time>
      </trkpt>
      <trkpt lat="47.554" lon="6.80048">
        <ele>370</ele>
        <time>2014-04-13T12:19:56Z</time>
      </trkpt>
      <trkpt lat="47.55385" lon="6.80033">
        <ele>370</ele>
        <time>2014-04-13T12:19:59Z</time>
      </trkpt>
      <trkpt lat="47.55375" lon="6.80025">
        <ele>370</ele>
        <time>2014-04-13T12:20:01Z</time>
      </trkpt>
      <trkpt lat="47.55358" lon="6.80019">
        <ele>370</ele>
        <time>2014-04-13T12:20:04Z</time>
      </trkpt>
      <trkpt lat="47.55352" lon="6.80017">
        <ele>369</ele>
        <time>2014-04-13T12:20:05Z</time>
      </trkpt>
      <trkpt lat="47.55346" lon="6.80013">
        <ele>369</ele>
        <time>2014-04-13T12:20:06Z</time>
      </trkpt>
      <trkpt lat="47.5534" lon="6.8001">
        <ele>369</ele>
        <time>2014-04-13T12:20:07Z</time>
      </trkpt>
      <trkpt lat="47.55334" lon="6.80006">
        <ele>368</ele>
        <time>2014-04-13T12:20:08Z</time>
      </trkpt>
      <trkpt lat="47.55328" lon="6.80003">
        <ele>368</ele>
        <time>2014-04-13T12:20:09Z</time>
      </trkpt>
      <trkpt lat="47.5532" lon="6.79999">
        <ele>368</ele>
        <time>2014-04-13T12:20:10Z</time>
      </trkpt>
      <trkpt lat="47.55312" lon="6.79995">
        <ele>367</ele>
        <time>2014-04-13T12:20:11Z</time>
      </trkpt>
      <trkpt lat="47.55303" lon="6.7999">
        <ele>366</ele>
        <time>2014-04-13T12:20:12Z</time>
      </trkpt>
      <trkpt lat="47.55294" lon="6.79984">
        <ele>366</ele>
        <time>2014-04-13T12:20:13Z</time>
      </trkpt>
      <trkpt lat="47.55284" lon="6.79978">
        <ele>365</ele>
        <time>2014-04-13T12:20:14Z</time>
      </trkpt>
      <trkpt lat="47.55276" lon="6.79971">
        <ele>365</ele>
        <time>2014-04-13T12:20:15Z</time>
      </trkpt>
      <trkpt lat="47.55267" lon="6.79965">
        <ele>364</ele>
        <time>2014-04-13T12:20:16Z</time>
      </trkpt>
      <trkpt lat="47.55259" lon="6.79958">
        <ele>364</ele>
        <time>2014-04-13T12:20:17Z</time>
      </trkpt>
      <trkpt lat="47.55252" lon="6.79951">
        <ele>363</ele>
        <time>2014-04-13T12:20:18Z</time>
      </trkpt>
      <trkpt lat="47.55245" lon="6.79943">
        <ele>363</ele>
        <time>2014-04-13T12:20:19Z</time>
      </trkpt>
      <trkpt lat="47.55228" lon="6.79919">
        <ele>363</ele>
        <time>2014-04-13T12:20:22Z</time>
      </trkpt>
      <trkpt lat="47.55203" lon="6.79882">
        <ele>363</ele>
        <time>2014-04-13T12:20:27Z</time>
      </trkpt>
      <trkpt lat="47.55199" lon="6.79877">
        <ele>363</ele>
        <time>2014-04-13T12:20:28Z</time>
      </trkpt>
      <trkpt lat="47.55184" lon="6.79864">
        <ele>363</ele>
        <time>2014-04-13T12:20:31Z</time>
      </trkpt>
      <trkpt lat="47.55172" lon="6.79857">
        <ele>362</ele>
        <time>2014-04-13T12:20:33Z</time>
      </trkpt>
      <trkpt lat="47.55166" lon="6.79853">
        <ele>362</ele>
        <time>2014-04-13T12:20:34Z</time>
      </trkpt>
      <trkpt lat="47.5516" lon="6.7985">
        <ele>362</ele>
        <time>2014-04-13T12:20:35Z</time>
      </trkpt>
      <trkpt lat="47.55154" lon="6.79846">
        <ele>361</ele>
        <time>2014-04-13T12:20:36Z</time>
      </trkpt>
      <trkpt lat="47.55148" lon="6.79843">
        <ele>361</ele>
        <time>2014-04-13T12:20:37Z</time>
      </trkpt>
      <trkpt lat="47.55133" lon="6.79832">
        <ele>361</ele>
        <time>2014-04-13T12:20:40Z</time>
      </trkpt>
      <trkpt lat="47.55129" lon="6.79827">
        <ele>361</ele>
        <time>2014-04-13T12:20:41Z</time>
      </trkpt>
      <trkpt lat="47.55117" lon="6.79804">
        <ele>361</ele>
        <time>2014-04-13T12:20:45Z</time>
      </trkpt>
      <trkpt lat="47.55115" lon="6.79798">
        <ele>361</ele>
        <time>2014-04-13T12:20:46Z</time>
      </trkpt>
      <trkpt lat="47.5511" lon="6.79781">
        <ele>361</ele>
        <time>2014-04-13T12:20:50Z</time>
      </trkpt>
      <trkpt lat="47.55097" lon="6.79769">
        <ele>360</ele>
        <time>2014-04-13T12:20:54Z</time>
      </trkpt>
      <trkpt lat="47.55092" lon="6.79765">
        <ele>360</ele>
        <time>2014-04-13T12:20:55Z</time>
      </trkpt>
      <trkpt lat="47.55086" lon="6.79761">
        <ele>360</ele>
        <time>2014-04-13T12:20:56Z</time>
      </trkpt>
      <trkpt lat="47.55081" lon="6.79758">
        <ele>359</ele>
        <time>2014-04-13T12:20:57Z</time>
      </trkpt>
      <trkpt lat="47.55074" lon="6.79754">
        <ele>359</ele>
        <time>2014-04-13T12:20:58Z</time>
      </trkpt>
      <trkpt lat="47.55067" lon="6.7975">
        <ele>358</ele>
        <time>2014-04-13T12:20:59Z</time>
      </trkpt>
      <trkpt lat="47.5506" lon="6.79745">
        <ele>358</ele>
        <time>2014-04-13T12:21:00Z</time>
      </trkpt>
      <trkpt lat="47.55053" lon="6.79738">
        <ele>357</ele>
        <time>2014-04-13T12:21:01Z</time>
      </trkpt>
      <trkpt lat="47.55046" lon="6.79731">
        <ele>357</ele>
        <time>2014-04-13T12:21:02Z</time>
      </trkpt>
      <trkpt lat="47.55039" lon="6.79726">
        <ele>357</ele>
        <time>2014-04-13T12:21:03Z</time>
      </trkpt>
      <trkpt lat="47.55031" lon="6.79723">
        <ele>356</ele>
        <time>2014-04-13T12:21:04Z</time>
      </trkpt>
      <trkpt lat="47.55022" lon="6.7972">
        <ele>356</ele>
        <time>2014-04-13T12:21:05Z</time>
      </trkpt>
      <trkpt lat="47.55015" lon="6.79717">
        <ele>355</ele>
        <time>2014-04-13T12:21:06Z</time>
      </trkpt>
      <trkpt lat="47.55007" lon="6.79715">
        <ele>355</ele>
        <time>2014-04-13T12:21:07Z</time>
      </trkpt>
      <trkpt lat="47.54999" lon="6.79713">
        <ele>355</ele>
        <time>2014-04-13T12:21:08Z</time>
      </trkpt>
      <trkpt lat="47.54992" lon="6.79712">
        <ele>355</ele>
        <time>2014-04-13T12:21:09Z</time>
      </trkpt>
      <trkpt lat="47.54985" lon="6.79712">
        <ele>355</ele>
        <time>2014-04-13T12:21:10Z</time>
      </trkpt>
      <trkpt lat="47.5498" lon="6.79716">
        <ele>354</ele>
        <time>2014-04-13T12:21:11Z</time>
      </trkpt>
      <trkpt lat="47.54975" lon="6.7972">
        <ele>354</ele>
        <time>2014-04-13T12:21:12Z</time>
      </trkpt>
      <trkpt lat="47.54969" lon="6.79726">
        <ele>353</ele>
        <time>2014-04-13T12:21:13Z</time>
      </trkpt>
      <trkpt lat="47.54963" lon="6.79732">
        <ele>353</ele>
        <time>2014-04-13T12:21:14Z</time>
      </trkpt>
      <trkpt lat="47.54957" lon="6.79739">
        <ele>352</ele>
        <time>2014-04-13T12:21:15Z</time>
      </trkpt>
      <trkpt lat="47.54949" lon="6.79745">
        <ele>351</ele>
        <time>2014-04-13T12:21:16Z</time>
      </trkpt>
      <trkpt lat="47.54942" lon="6.79748">
        <ele>351</ele>
        <time>2014-04-13T12:21:17Z</time>
      </trkpt>
      <trkpt lat="47.54935" lon="6.7975">
        <ele>350</ele>
        <time>2014-04-13T12:21:18Z</time>
      </trkpt>
      <trkpt lat="47.54931" lon="6.79748">
        <ele>350</ele>
        <time>2014-04-13T12:21:19Z</time>
      </trkpt>
      <trkpt lat="47.54922" lon="6.79738">
        <ele>350</ele>
        <time>2014-04-13T12:21:22Z</time>
      </trkpt>
      <trkpt lat="47.54903" lon="6.79728">
        <ele>349</ele>
        <time>2014-04-13T12:21:26Z</time>
      </trkpt>
      <trkpt lat="47.54897" lon="6.79726">
        <ele>349</ele>
        <time>2014-04-13T12:21:27Z</time>
      </trkpt>
      <trkpt lat="47.54891" lon="6.79724">
        <ele>349</ele>
        <time>2014-04-13T12:21:28Z</time>
      </trkpt>
      <trkpt lat="47.54885" lon="6.79721">
        <ele>348</ele>
        <time>2014-04-13T12:21:29Z</time>
      </trkpt>
      <trkpt lat="47.5488" lon="6.79718">
        <ele>348</ele>
        <time>2014-04-13T12:21:30Z</time>
      </trkpt>
      <trkpt lat="47.5487" lon="6.79711">
        <ele>348</ele>
        <time>2014-04-13T12:21:32Z</time>
      </trkpt>
      <trkpt lat="47.54844" lon="6.79691">
        <ele>348</ele>
        <time>2014-04-13T12:21:38Z</time>
      </trkpt>
      <trkpt lat="47.54833" lon="6.79679">
        <ele>348</ele>
        <time>2014-04-13T12:21:41Z</time>
      </trkpt>
      <trkpt lat="47.54823" lon="6.79663">
        <ele>348</ele>
        <time>2014-04-13T12:21:44Z</time>
      </trkpt>
      <trkpt lat="47.54817" lon="6.79649">
        <ele>348</ele>
        <time>2014-04-13T12:21:46Z</time>
      </trkpt>
      <trkpt lat="47.54806" lon="6.79634">
        <ele>348</ele>
        <time>2014-04-13T12:21:49Z</time>
      </trkpt>
      <trkpt lat="47.54802" lon="6.79629">
        <ele>348</ele>
        <time>2014-04-13T12:21:50Z</time>
      </trkpt>
      <trkpt lat="47.54791" lon="6.79614">
        <ele>348</ele>
        <time>2014-04-13T12:21:53Z</time>
      </trkpt>
      <trkpt lat="47.54787" lon="6.7961">
        <ele>348</ele>
        <time>2014-04-13T12:21:54Z</time>
      </trkpt>
      <trkpt lat="47.54776" lon="6.79593">
        <ele>348</ele>
        <time>2014-04-13T12:21:57Z</time>
      </trkpt>
      <trkpt lat="47.54772" lon="6.79586">
        <ele>348</ele>
        <time>2014-04-13T12:21:58Z</time>
      </trkpt>
      <trkpt lat="47.54767" lon="6.79574">
        <ele>348</ele>
        <time>2014-04-13T12:22:00Z</time>
      </trkpt>
      <trkpt lat="47.54765" lon="6.79573">
        <ele>348</ele>
        <time>2014-04-13T12:22:01Z</time>
      </trkpt>
      <trkpt lat="47.54759" lon="6.79571">
        <ele>348</ele>
        <time>2014-04-13T12:22:04Z</time>
      </trkpt>
      <trkpt lat="47.54747" lon="6.79575">
        <ele>348</ele>
        <time>2014-04-13T12:22:09Z</time>
      </trkpt>
      <trkpt lat="47.54745" lon="6.79575">
        <ele>349</ele>
        <time>2014-04-13T12:22:10Z</time>
      </trkpt>
      <trkpt lat="47.54742" lon="6.79575">
        <ele>349</ele>
        <time>2014-04-13T12:22:11Z</time>
      </trkpt>
      <trkpt lat="47.5474" lon="6.79576">
        <ele>349</ele>
        <time>2014-04-13T12:22:12Z</time>
      </trkpt>
      <trkpt lat="47.54738" lon="6.79577">
        <ele>350</ele>
        <time>2014-04-13T12:22:13Z</time>
      </trkpt>
      <trkpt lat="47.54736" lon="6.79579">
        <ele>350</ele>
        <time>2014-04-13T12:22:14Z</time>
      </trkpt>
      <trkpt lat="47.54734" lon="6.7958">
        <ele>351</ele>
        <time>2014-04-13T12:22:15Z</time>
      </trkpt>
      <trkpt lat="47.54732" lon="6.79581">
        <ele>351</ele>
        <time>2014-04-13T12:22:16Z</time>
      </trkpt>
      <trkpt lat="47.54731" lon="6.79582">
        <ele>352</ele>
        <time>2014-04-13T12:22:17Z</time>
      </trkpt>
      <trkpt lat="47.54725" lon="6.79586">
        <ele>352</ele>
        <time>2014-04-13T12:22:20Z</time>
      </trkpt>
      <trkpt lat="47.54723" lon="6.79586">
        <ele>353</ele>
        <time>2014-04-13T12:22:21Z</time>
      </trkpt>
      <trkpt lat="47.54721" lon="6.79587">
        <ele>353</ele>
        <time>2014-04-13T12:22:22Z</time>
      </trkpt>
      <trkpt lat="47.54719" lon="6.79587">
        <ele>354</ele>
        <time>2014-04-13T12:22:23Z</time>
      </trkpt>
      <trkpt lat="47.54717" lon="6.79588">
        <ele>354</ele>
        <time>2014-04-13T12:22:24Z</time>
      </trkpt>
      <trkpt lat="47.54714" lon="6.7959">
        <ele>354</ele>
        <time>2014-04-13T12:22:26Z</time>
      </trkpt>
      <trkpt lat="47.54712" lon="6.79591">
        <ele>355</ele>
        <time>2014-04-13T12:22:27Z</time>
      </trkpt>
      <trkpt lat="47.54709" lon="6.79592">
        <ele>355</ele>
        <time>2014-04-13T12:22:28Z</time>
      </trkpt>
      <trkpt lat="47.54707" lon="6.79592">
        <ele>356</ele>
        <time>2014-04-13T12:22:29Z</time>
      </trkpt>
      <trkpt lat="47.54705" lon="6.79593">
        <ele>356</ele>
        <time>2014-04-13T12:22:30Z</time>
      </trkpt>
      <trkpt lat="47.54696" lon="6.79598">
        <ele>357</ele>
        <time>2014-04-13T12:22:34Z</time>
      </trkpt>
      <trkpt lat="47.54694" lon="6.79599">
        <ele>357</ele>
        <time>2014-04-13T12:22:35Z</time>
      </trkpt>
      <trkpt lat="47.54692" lon="6.796">
        <ele>357</ele>
        <time>2014-04-13T12:22:36Z</time>
      </trkpt>
      <trkpt lat="47.54691" lon="6.79601">
        <ele>358</ele>
        <time>2014-04-13T12:22:37Z</time>
      </trkpt>
      <trkpt lat="47.5469" lon="6.79602">
        <ele>358</ele>
        <time>2014-04-13T12:22:38Z</time>
      </trkpt>
      <trkpt lat="47.54686" lon="6.79604">
        <ele>359</ele>
        <time>2014-04-13T12:22:40Z</time>
      </trkpt>
      <trkpt lat="47.54685" lon="6.79605">
        <ele>359</ele>
        <time>2014-04-13T12:22:41Z</time>
      </trkpt>
      <trkpt lat="47.54683" lon="6.79606">
        <ele>359</ele>
        <time>2014-04-13T12:22:42Z</time>
      </trkpt>
      <trkpt lat="47.54681" lon="6.79607">
        <ele>360</ele>
        <time>2014-04-13T12:22:43Z</time>
      </trkpt>
      <trkpt lat="47.54679" lon="6.79608">
        <ele>360</ele>
        <time>2014-04-13T12:22:44Z</time>
      </trkpt>
      <trkpt lat="47.54677" lon="6.79609">
        <ele>360</ele>
        <time>2014-04-13T12:22:45Z</time>
      </trkpt>
      <trkpt lat="47.54673" lon="6.79612">
        <ele>360</ele>
        <time>2014-04-13T12:22:47Z</time>
      </trkpt>
      <trkpt lat="47.54671" lon="6.79614">
        <ele>360</ele>
        <time>2014-04-13T12:22:48Z</time>
      </trkpt>
      <trkpt lat="47.54669" lon="6.79616">
        <ele>361</ele>
        <time>2014-04-13T12:22:49Z</time>
      </trkpt>
      <trkpt lat="47.54667" lon="6.79617">
        <ele>361</ele>
        <time>2014-04-13T12:22:50Z</time>
      </trkpt>
      <trkpt lat="47.54666" lon="6.79618">
        <ele>362</ele>
        <time>2014-04-13T12:22:51Z</time>
      </trkpt>
      <trkpt lat="47.54664" lon="6.79619">
        <ele>362</ele>
        <time>2014-04-13T12:22:52Z</time>
      </trkpt>
      <trkpt lat="47.54663" lon="6.79619">
        <ele>362</ele>
        <time>2014-04-13T12:22:53Z</time>
      </trkpt>
      <trkpt lat="47.54662" lon="6.79619">
        <ele>362</ele>
        <time>2014-04-13T12:22:54Z</time>
      </trkpt>
      <trkpt lat="47.54657" lon="6.7962">
        <ele>362</ele>
        <time>2014-04-13T12:22:57Z</time>
      </trkpt>
      <trkpt lat="47.54647" lon="6.79624">
        <ele>362</ele>
        <time>2014-04-13T12:23:03Z</time>
      </trkpt>
      <trkpt lat="47.54645" lon="6.79625">
        <ele>363</ele>
        <time>2014-04-13T12:23:04Z</time>
      </trkpt>
      <trkpt lat="47.54642" lon="6.79626">
        <ele>363</ele>
        <time>2014-04-13T12:23:05Z</time>
      </trkpt>
      <trkpt lat="47.5464" lon="6.79627">
        <ele>364</ele>
        <time>2014-04-13T12:23:06Z</time>
      </trkpt>
      <trkpt lat="47.54637" lon="6.79628">
        <ele>364</ele>
        <time>2014-04-13T12:23:07Z</time>
      </trkpt>
      <trkpt lat="47.54635" lon="6.7963">
        <ele>365</ele>
        <time>2014-04-13T12:23:08Z</time>
      </trkpt>
      <trkpt lat="47.5463" lon="6.79633">
        <ele>365</ele>
        <time>2014-04-13T12:23:10Z</time>
      </trkpt>
      <trkpt lat="47.5462" lon="6.79636">
        <ele>365</ele>
        <time>2014-04-13T12:23:15Z</time>
      </trkpt>
      <trkpt lat="47.54614" lon="6.79637">
        <ele>365</ele>
        <time>2014-04-13T12:23:18Z</time>
      </trkpt>
      <trkpt lat="47.54612" lon="6.79638">
        <ele>365</ele>
        <time>2014-04-13T12:23:19Z</time>
      </trkpt>
      <trkpt lat="47.5461" lon="6.79639">
        <ele>366</ele>
        <time>2014-04-13T12:23:20Z</time>
      </trkpt>
      <trkpt lat="47.54607" lon="6.79641">
        <ele>366</ele>
        <time>2014-04-13T12:23:21Z</time>
      </trkpt>
      <trkpt lat="47.54605" lon="6.79642">
        <ele>367</ele>
        <time>2014-04-13T12:23:22Z</time>
      </trkpt>
      <trkpt lat="47.54593" lon="6.79647">
        <ele>367</ele>
        <time>2014-04-13T12:23:27Z</time>
      </trkpt>
      <trkpt lat="47.5458" lon="6.79653">
        <ele>367</ele>
        <time>2014-04-13T12:23:33Z</time>
      </trkpt>
      <trkpt lat="47.5458" lon="6.79653">
        <ele>367</ele>
        <time>2014-04-13T12:23:34Z</time>
      </trkpt>
      <trkpt lat="47.5458" lon="6.79653">
        <ele>368</ele>
        <time>2014-04-13T12:23:35Z</time>
      </trkpt>
      <trkpt lat="47.54579" lon="6.79653">
        <ele>369</ele>
        <time>2014-04-13T12:23:47Z</time>
      </trkpt>
      <trkpt lat="47.5458" lon="6.79653">
        <ele>369</ele>
        <time>2014-04-13T12:23:50Z</time>
      </trkpt>
      <trkpt lat="47.5458" lon="6.79653">
        <ele>369</ele>
        <time>2014-04-13T12:23:51Z</time>
      </trkpt>
      <trkpt lat="47.54576" lon="6.79657">
        <ele>369</ele>
        <time>2014-04-13T12:23:59Z</time>
      </trkpt>
      <trkpt lat="47.54572" lon="6.79659">
        <ele>369</ele>
        <time>2014-04-13T12:24:01Z</time>
      </trkpt>
      <trkpt lat="47.54567" lon="6.7966">
        <ele>369</ele>
        <time>2014-04-13T12:24:03Z</time>
      </trkpt>
      <trkpt lat="47.5456" lon="6.79661">
        <ele>369</ele>
        <time>2014-04-13T12:24:06Z</time>
      </trkpt>
      <trkpt lat="47.54549" lon="6.79666">
        <ele>369</ele>
        <time>2014-04-13T12:24:11Z</time>
      </trkpt>
      <trkpt lat="47.54544" lon="6.79668">
        <ele>369</ele>
        <time>2014-04-13T12:24:13Z</time>
      </trkpt>
      <trkpt lat="47.54542" lon="6.79669">
        <ele>370</ele>
        <time>2014-04-13T12:24:14Z</time>
      </trkpt>
      <trkpt lat="47.54539" lon="6.7967">
        <ele>370</ele>
        <time>2014-04-13T12:24:15Z</time>
      </trkpt>
      <trkpt lat="47.54536" lon="6.79671">
        <ele>370</ele>
        <time>2014-04-13T12:24:16Z</time>
      </trkpt>
      <trkpt lat="47.54534" lon="6.79672">
        <ele>371</ele>
        <time>2014-04-13T12:24:17Z</time>
      </trkpt>
      <trkpt lat="47.54519" lon="6.79679">
        <ele>371</ele>
        <time>2014-04-13T12:24:22Z</time>
      </trkpt>
      <trkpt lat="47.54513" lon="6.79684">
        <ele>371</ele>
        <time>2014-04-13T12:24:24Z</time>
      </trkpt>
      <trkpt lat="47.54509" lon="6.79686">
        <ele>372</ele>
        <time>2014-04-13T12:24:25Z</time>
      </trkpt>
      <trkpt lat="47.54505" lon="6.79687">
        <ele>372</ele>
        <time>2014-04-13T12:24:26Z</time>
      </trkpt>
      <trkpt lat="47.545" lon="6.79688">
        <ele>373</ele>
        <time>2014-04-13T12:24:27Z</time>
      </trkpt>
      <trkpt lat="47.54477" lon="6.79703">
        <ele>373</ele>
        <time>2014-04-13T12:24:33Z</time>
      </trkpt>
      <trkpt lat="47.54456" lon="6.79712">
        <ele>373</ele>
        <time>2014-04-13T12:24:38Z</time>
      </trkpt>
      <trkpt lat="47.5444" lon="6.79721">
        <ele>373</ele>
        <time>2014-04-13T12:24:42Z</time>
      </trkpt>
      <trkpt lat="47.54436" lon="6.79721">
        <ele>373</ele>
        <time>2014-04-13T12:24:43Z</time>
      </trkpt>
      <trkpt lat="47.54429" lon="6.79724">
        <ele>373</ele>
        <time>2014-04-13T12:24:45Z</time>
      </trkpt>
      <trkpt lat="47.54415" lon="6.79731">
        <ele>373</ele>
        <time>2014-04-13T12:24:48Z</time>
      </trkpt>
      <trkpt lat="47.54402" lon="6.79736">
        <ele>372</ele>
        <time>2014-04-13T12:24:50Z</time>
      </trkpt>
      <trkpt lat="47.54396" lon="6.7974">
        <ele>372</ele>
        <time>2014-04-13T12:24:51Z</time>
      </trkpt>
      <trkpt lat="47.5439" lon="6.79745">
        <ele>371</ele>
        <time>2014-04-13T12:24:52Z</time>
      </trkpt>
      <trkpt lat="47.54387" lon="6.79749">
        <ele>371</ele>
        <time>2014-04-13T12:24:53Z</time>
      </trkpt>
      <trkpt lat="47.54384" lon="6.79752">
        <ele>370</ele>
        <time>2014-04-13T12:24:54Z</time>
      </trkpt>
      <trkpt lat="47.54381" lon="6.79759">
        <ele>370</ele>
        <time>2014-04-13T12:24:55Z</time>
      </trkpt>
      <trkpt lat="47.5438" lon="6.79763">
        <ele>369</ele>
        <time>2014-04-13T12:24:56Z</time>
      </trkpt>
      <trkpt lat="47.5438" lon="6.79768">
        <ele>369</ele>
        <time>2014-04-13T12:24:57Z</time>
      </trkpt>
      <trkpt lat="47.54381" lon="6.79772">
        <ele>369</ele>
        <time>2014-04-13T12:24:58Z</time>
      </trkpt>
      <trkpt lat="47.54383" lon="6.79776">
        <ele>368</ele>
        <time>2014-04-13T12:24:59Z</time>
      </trkpt>
      <trkpt lat="47.54385" lon="6.79779">
        <ele>368</ele>
        <time>2014-04-13T12:25:00Z</time>
      </trkpt>
      <trkpt lat="47.54387" lon="6.7979">
        <ele>368</ele>
        <time>2014-04-13T12:25:03Z</time>
      </trkpt>
      <trkpt lat="47.5439" lon="6.79802">
        <ele>368</ele>
        <time>2014-04-13T12:25:09Z</time>
      </trkpt>
      <trkpt lat="47.5439" lon="6.79803">
        <ele>368</ele>
        <time>2014-04-13T12:25:10Z</time>
      </trkpt>
      <trkpt lat="47.5439" lon="6.79804">
        <ele>368</ele>
        <time>2014-04-13T12:25:13Z</time>
      </trkpt>
      <trkpt lat="47.54393" lon="6.7981">
        <ele>368</ele>
        <time>2014-04-13T12:25:17Z</time>
      </trkpt>
      <trkpt lat="47.54394" lon="6.79812">
        <ele>368</ele>
        <time>2014-04-13T12:25:18Z</time>
      </trkpt>
      <trkpt lat="47.54396" lon="6.79826">
        <ele>368</ele>
        <time>2014-04-13T12:25:22Z</time>
      </trkpt>
      <trkpt lat="47.54397" lon="6.7983">
        <ele>368</ele>
        <time>2014-04-13T12:25:23Z</time>
      </trkpt>
      <trkpt lat="47.544" lon="6.79848">
        <ele>368</ele>
        <time>2014-04-13T12:25:27Z</time>
      </trkpt>
      <trkpt lat="47.54404" lon="6.79856">
        <ele>368</ele>
        <time>2014-04-13T12:25:29Z</time>
      </trkpt>
      <trkpt lat="47.54409" lon="6.79864">
        <ele>368</ele>
        <time>2014-04-13T12:25:31Z</time>
      </trkpt>
      <trkpt lat="47.54418" lon="6.79885">
        <ele>368</ele>
        <time>2014-04-13T12:25:35Z</time>
      </trkpt>
      <trkpt lat="47.5442" lon="6.79891">
        <ele>368</ele>
        <time>2014-04-13T12:25:36Z</time>
      </trkpt>
      <trkpt lat="47.54431" lon="6.79909">
        <ele>368</ele>
        <time>2014-04-13T12:25:39Z</time>
      </trkpt>
      <trkpt lat="47.54443" lon="6.79926">
        <ele>368</ele>
        <time>2014-04-13T12:25:42Z</time>
      </trkpt>
      <trkpt lat="47.54452" lon="6.79948">
        <ele>368</ele>
        <time>2014-04-13T12:25:45Z</time>
      </trkpt>
      <trkpt lat="47.54454" lon="6.79956">
        <ele>368</ele>
        <time>2014-04-13T12:25:46Z</time>
      </trkpt>
      <trkpt lat="47.54456" lon="6.79964">
        <ele>368</ele>
        <time>2014-04-13T12:25:47Z</time>
      </trkpt>
      <trkpt lat="47.54463" lon="6.7998">
        <ele>368</ele>
        <time>2014-04-13T12:25:50Z</time>
      </trkpt>
      <trkpt lat="47.5447" lon="6.7999">
        <ele>368</ele>
        <time>2014-04-13T12:25:52Z</time>
      </trkpt>
      <trkpt lat="47.54473" lon="6.79995">
        <ele>368</ele>
        <time>2014-04-13T12:25:53Z</time>
      </trkpt>
      <trkpt lat="47.54476" lon="6.8">
        <ele>368</ele>
        <time>2014-04-13T12:25:54Z</time>
      </trkpt>
      <trkpt lat="47.54481" lon="6.80024">
        <ele>368</ele>
        <time>2014-04-13T12:25:57Z</time>
      </trkpt>
      <trkpt lat="47.54483" lon="6.80031">
        <ele>368</ele>
        <time>2014-04-13T12:25:58Z</time>
      </trkpt>
      <trkpt lat="47.54487" lon="6.80047">
        <ele>368</ele>
        <time>2014-04-13T12:26:00Z</time>
      </trkpt>
      <trkpt lat="47.54491" lon="6.80062">
        <ele>368</ele>
        <time>2014-04-13T12:26:02Z</time>
      </trkpt>
      <trkpt lat="47.54495" lon="6.80086">
        <ele>368</ele>
        <time>2014-04-13T12:26:05Z</time>
      </trkpt>
      <trkpt lat="47.54496" lon="6.80092">
        <ele>368</ele>
        <time>2014-04-13T12:26:06Z</time>
      </trkpt>
      <trkpt lat="47.54503" lon="6.80114">
        <ele>368</ele>
        <time>2014-04-13T12:26:10Z</time>
      </trkpt>
      <trkpt lat="47.54511" lon="6.80143">
        <ele>368</ele>
        <time>2014-04-13T12:26:15Z</time>
      </trkpt>
      <trkpt lat="47.54513" lon="6.8015">
        <ele>368</ele>
        <time>2014-04-13T12:26:16Z</time>
      </trkpt>
      <trkpt lat="47.54525" lon="6.80176">
        <ele>368</ele>
        <time>2014-04-13T12:26:20Z</time>
      </trkpt>
      <trkpt lat="47.54527" lon="6.80183">
        <ele>368</ele>
        <time>2014-04-13T12:26:21Z</time>
      </trkpt>
      <trkpt lat="47.54533" lon="6.80203">
        <ele>368</ele>
        <time>2014-04-13T12:26:24Z</time>
      </trkpt>
      <trkpt lat="47.54535" lon="6.80209">
        <ele>368</ele>
        <time>2014-04-13T12:26:25Z</time>
      </trkpt>
      <trkpt lat="47.54542" lon="6.80224">
        <ele>368</ele>
        <time>2014-04-13T12:26:28Z</time>
      </trkpt>
      <trkpt lat="47.54552" lon="6.80246">
        <ele>368</ele>
        <time>2014-04-13T12:26:32Z</time>
      </trkpt>
      <trkpt lat="47.54554" lon="6.8025">
        <ele>368</ele>
        <time>2014-04-13T12:26:33Z</time>
      </trkpt>
      <trkpt lat="47.54556" lon="6.80255">
        <ele>369</ele>
        <time>2014-04-13T12:26:34Z</time>
      </trkpt>
      <trkpt lat="47.54558" lon="6.80261">
        <ele>369</ele>
        <time>2014-04-13T12:26:35Z</time>
      </trkpt>
      <trkpt lat="47.54559" lon="6.80268">
        <ele>369</ele>
        <time>2014-04-13T12:26:37Z</time>
      </trkpt>
      <trkpt lat="47.54561" lon="6.80274">
        <ele>370</ele>
        <time>2014-04-13T12:26:38Z</time>
      </trkpt>
      <trkpt lat="47.54563" lon="6.80279">
        <ele>370</ele>
        <time>2014-04-13T12:26:39Z</time>
      </trkpt>
      <trkpt lat="47.54572" lon="6.803">
        <ele>370</ele>
        <time>2014-04-13T12:26:43Z</time>
      </trkpt>
      <trkpt lat="47.54574" lon="6.80304">
        <ele>370</ele>
        <time>2014-04-13T12:26:44Z</time>
      </trkpt>
      <trkpt lat="47.54591" lon="6.80316">
        <ele>370</ele>
        <time>2014-04-13T12:26:48Z</time>
      </trkpt>
      <trkpt lat="47.54594" lon="6.80317">
        <ele>370</ele>
        <time>2014-04-13T12:26:49Z</time>
      </trkpt>
      <trkpt lat="47.54603" lon="6.80328">
        <ele>370</ele>
        <time>2014-04-13T12:26:52Z</time>
      </trkpt>
      <trkpt lat="47.54612" lon="6.80343">
        <ele>370</ele>
        <time>2014-04-13T12:26:55Z</time>
      </trkpt>
      <trkpt lat="47.54617" lon="6.80348">
        <ele>370</ele>
        <time>2014-04-13T12:26:56Z</time>
      </trkpt>
      <trkpt lat="47.54641" lon="6.8038">
        <ele>370</ele>
        <time>2014-04-13T12:27:02Z</time>
      </trkpt>
      <trkpt lat="47.54654" lon="6.80395">
        <ele>370</ele>
        <time>2014-04-13T12:27:05Z</time>
      </trkpt>
      <trkpt lat="47.54662" lon="6.80407">
        <ele>370</ele>
        <time>2014-04-13T12:27:07Z</time>
      </trkpt>
      <trkpt lat="47.54665" lon="6.80415">
        <ele>370</ele>
        <time>2014-04-13T12:27:08Z</time>
      </trkpt>
      <trkpt lat="47.54667" lon="6.80424">
        <ele>370</ele>
        <time>2014-04-13T12:27:09Z</time>
      </trkpt>
      <trkpt lat="47.54669" lon="6.80432">
        <ele>369</ele>
        <time>2014-04-13T12:27:10Z</time>
      </trkpt>
      <trkpt lat="47.5467" lon="6.8044">
        <ele>369</ele>
        <time>2014-04-13T12:27:11Z</time>
      </trkpt>
      <trkpt lat="47.54673" lon="6.80448">
        <ele>369</ele>
        <time>2014-04-13T12:27:12Z</time>
      </trkpt>
      <trkpt lat="47.54675" lon="6.80456">
        <ele>368</ele>
        <time>2014-04-13T12:27:13Z</time>
      </trkpt>
      <trkpt lat="47.54681" lon="6.80482">
        <ele>368</ele>
        <time>2014-04-13T12:27:16Z</time>
      </trkpt>
      <trkpt lat="47.54682" lon="6.80499">
        <ele>368</ele>
        <time>2014-04-13T12:27:18Z</time>
      </trkpt>
      <trkpt lat="47.54687" lon="6.80539">
        <ele>368</ele>
        <time>2014-04-13T12:27:23Z</time>
      </trkpt>
      <trkpt lat="47.5469" lon="6.80548">
        <ele>368</ele>
        <time>2014-04-13T12:27:24Z</time>
      </trkpt>
      <trkpt lat="47.54693" lon="6.80562">
        <ele>368</ele>
        <time>2014-04-13T12:27:26Z</time>
      </trkpt>
      <trkpt lat="47.54694" lon="6.80563">
        <ele>368</ele>
        <time>2014-04-13T12:27:27Z</time>
      </trkpt>
      <trkpt lat="47.54695" lon="6.80579">
        <ele>368</ele>
        <time>2014-04-13T12:27:30Z</time>
      </trkpt>
      <trkpt lat="47.54691" lon="6.80583">
        <ele>368</ele>
        <time>2014-04-13T12:27:32Z</time>
      </trkpt>
      <trkpt lat="47.54686" lon="6.80586">
        <ele>368</ele>
        <time>2014-04-13T12:27:35Z</time>
      </trkpt>
      <trkpt lat="47.5468" lon="6.80589">
        <ele>368</ele>
        <time>2014-04-13T12:27:39Z</time>
      </trkpt>
      <trkpt lat="47.54666" lon="6.80597">
        <ele>368</ele>
        <time>2014-04-13T12:27:45Z</time>
      </trkpt>
      <trkpt lat="47.54658" lon="6.80601">
        <ele>368</ele>
        <time>2014-04-13T12:27:47Z</time>
      </trkpt>
      <trkpt lat="47.54654" lon="6.80603">
        <ele>368</ele>
        <time>2014-04-13T12:27:48Z</time>
      </trkpt>
      <trkpt lat="47.5465" lon="6.80606">
        <ele>367</ele>
        <time>2014-04-13T12:27:49Z</time>
      </trkpt>
      <trkpt lat="47.54645" lon="6.8061">
        <ele>367</ele>
        <time>2014-04-13T12:27:50Z</time>
      </trkpt>
      <trkpt lat="47.54642" lon="6.80614">
        <ele>366</ele>
        <time>2014-04-13T12:27:51Z</time>
      </trkpt>
      <trkpt lat="47.54639" lon="6.80615">
        <ele>366</ele>
        <time>2014-04-13T12:27:52Z</time>
      </trkpt>
      <trkpt lat="47.54633" lon="6.80618">
        <ele>366</ele>
        <time>2014-04-13T12:27:54Z</time>
      </trkpt>
      <trkpt lat="47.5461" lon="6.80624">
        <ele>366</ele>
        <time>2014-04-13T12:28:00Z</time>
      </trkpt>
      <trkpt lat="47.54591" lon="6.80629">
        <ele>366</ele>
        <time>2014-04-13T12:28:05Z</time>
      </trkpt>
      <trkpt lat="47.54588" lon="6.8063">
        <ele>366</ele>
        <time>2014-04-13T12:28:06Z</time>
      </trkpt>
      <trkpt lat="47.54565" lon="6.80636">
        <ele>366</ele>
        <time>2014-04-13T12:28:13Z</time>
      </trkpt>
      <trkpt lat="47.54542" lon="6.80646">
        <ele>366</ele>
        <time>2014-04-13T12:28:19Z</time>
      </trkpt>
      <trkpt lat="47.54508" lon="6.80666">
        <ele>366</ele>
        <time>2014-04-13T12:28:27Z</time>
      </trkpt>
      <trkpt lat="47.54504" lon="6.80671">
        <ele>366</ele>
        <time>2014-04-13T12:28:28Z</time>
      </trkpt>
      <trkpt lat="47.54494" lon="6.80679">
        <ele>365</ele>
        <time>2014-04-13T12:28:30Z</time>
      </trkpt>
      <trkpt lat="47.54488" lon="6.80682">
        <ele>365</ele>
        <time>2014-04-13T12:28:31Z</time>
      </trkpt>
      <trkpt lat="47.54482" lon="6.80687">
        <ele>364</ele>
        <time>2014-04-13T12:28:32Z</time>
      </trkpt>
      <trkpt lat="47.54476" lon="6.80692">
        <ele>364</ele>
        <time>2014-04-13T12:28:33Z</time>
      </trkpt>
      <trkpt lat="47.54469" lon="6.80698">
        <ele>363</ele>
        <time>2014-04-13T12:28:34Z</time>
      </trkpt>
      <trkpt lat="47.54452" lon="6.80714">
        <ele>363</ele>
        <time>2014-04-13T12:28:37Z</time>
      </trkpt>
      <trkpt lat="47.54447" lon="6.80719">
        <ele>363</ele>
        <time>2014-04-13T12:28:38Z</time>
      </trkpt>
      <trkpt lat="47.54427" lon="6.8074">
        <ele>363</ele>
        <time>2014-04-13T12:28:42Z</time>
      </trkpt>
      <trkpt lat="47.54423" lon="6.80746">
        <ele>363</ele>
        <time>2014-04-13T12:28:43Z</time>
      </trkpt>
      <trkpt lat="47.54415" lon="6.80758">
        <ele>363</ele>
        <time>2014-04-13T12:28:45Z</time>
      </trkpt>
      <trkpt lat="47.54406" lon="6.80768">
        <ele>363</ele>
        <time>2014-04-13T12:28:47Z</time>
      </trkpt>
      <trkpt lat="47.54401" lon="6.8077">
        <ele>363</ele>
        <time>2014-04-13T12:28:48Z</time>
      </trkpt>
      <trkpt lat="47.54385" lon="6.80766">
        <ele>363</ele>
        <time>2014-04-13T12:28:51Z</time>
      </trkpt>
      <trkpt lat="47.5437" lon="6.80757">
        <ele>363</ele>
        <time>2014-04-13T12:28:54Z</time>
      </trkpt>
      <trkpt lat="47.54351" lon="6.80743">
        <ele>363</ele>
        <time>2014-04-13T12:28:58Z</time>
      </trkpt>
      <trkpt lat="47.54346" lon="6.80739">
        <ele>363</ele>
        <time>2014-04-13T12:28:59Z</time>
      </trkpt>
      <trkpt lat="47.5433" lon="6.80726">
        <ele>363</ele>
        <time>2014-04-13T12:29:03Z</time>
      </trkpt>
      <trkpt lat="47.54322" lon="6.8072">
        <ele>363</ele>
        <time>2014-04-13T12:29:05Z</time>
      </trkpt>
      <trkpt lat="47.5431" lon="6.80711">
        <ele>363</ele>
        <time>2014-04-13T12:29:08Z</time>
      </trkpt>
      <trkpt lat="47.543" lon="6.80705">
        <ele>363</ele>
        <time>2014-04-13T12:29:11Z</time>
      </trkpt>
      <trkpt lat="47.54292" lon="6.80701">
        <ele>363</ele>
        <time>2014-04-13T12:29:13Z</time>
      </trkpt>
      <trkpt lat="47.54271" lon="6.80686">
        <ele>363</ele>
        <time>2014-04-13T12:29:18Z</time>
      </trkpt>
      <trkpt lat="47.54238" lon="6.80658">
        <ele>363</ele>
        <time>2014-04-13T12:29:25Z</time>
      </trkpt>
      <trkpt lat="47.54208" lon="6.80629">
        <ele>363</ele>
        <time>2014-04-13T12:29:31Z</time>
      </trkpt>
      <trkpt lat="47.54203" lon="6.80624">
        <ele>362</ele>
        <time>2014-04-13T12:29:32Z</time>
      </trkpt>
      <trkpt lat="47.54199" lon="6.80619">
        <ele>362</ele>
        <time>2014-04-13T12:29:33Z</time>
      </trkpt>
      <trkpt lat="47.54194" lon="6.80613">
        <ele>361</ele>
        <time>2014-04-13T12:29:34Z</time>
      </trkpt>
      <trkpt lat="47.5419" lon="6.80608">
        <ele>361</ele>
        <time>2014-04-13T12:29:35Z</time>
      </trkpt>
      <trkpt lat="47.54181" lon="6.80596">
        <ele>361</ele>
        <time>2014-04-13T12:29:37Z</time>
      </trkpt>
      <trkpt lat="47.54141" lon="6.80545">
        <ele>361</ele>
        <time>2014-04-13T12:29:46Z</time>
      </trkpt>
      <trkpt lat="47.5412" lon="6.80524">
        <ele>361</ele>
        <time>2014-04-13T12:29:50Z</time>
      </trkpt>
      <trkpt lat="47.54109" lon="6.80514">
        <ele>361</ele>
        <time>2014-04-13T12:29:52Z</time>
      </trkpt>
      <trkpt lat="47.54086" lon="6.80496">
        <ele>360</ele>
        <time>2014-04-13T12:29:56Z</time>
      </trkpt>
      <trkpt lat="47.54081" lon="6.80492">
        <ele>360</ele>
        <time>2014-04-13T12:29:57Z</time>
      </trkpt>
      <trkpt lat="47.54075" lon="6.80487">
        <ele>360</ele>
        <time>2014-04-13T12:29:58Z</time>
      </trkpt>
      <trkpt lat="47.54069" lon="6.80483">
        <ele>359</ele>
        <time>2014-04-13T12:29:59Z</time>
      </trkpt>
      <trkpt lat="47.54064" lon="6.80478">
        <ele>359</ele>
        <time>2014-04-13T12:30:00Z</time>
      </trkpt>
      <trkpt lat="47.54059" lon="6.80472">
        <ele>359</ele>
        <time>2014-04-13T12:30:01Z</time>
      </trkpt>
      <trkpt lat="47.54045" lon="6.80455">
        <ele>359</ele>
        <time>2014-04-13T12:30:04Z</time>
      </trkpt>
      <trkpt lat="47.54033" lon="6.80435">
        <ele>358</ele>
        <time>2014-04-13T12:30:07Z</time>
      </trkpt>
      <trkpt lat="47.54029" lon="6.80428">
        <ele>358</ele>
        <time>2014-04-13T12:30:08Z</time>
      </trkpt>
      <trkpt lat="47.54026" lon="6.80421">
        <ele>358</ele>
        <time>2014-04-13T12:30:09Z</time>
      </trkpt>
      <trkpt lat="47.54022" lon="6.80415">
        <ele>357</ele>
        <time>2014-04-13T12:30:10Z</time>
      </trkpt>
      <trkpt lat="47.54019" lon="6.80408">
        <ele>357</ele>
        <time>2014-04-13T12:30:11Z</time>
      </trkpt>
      <trkpt lat="47.54004" lon="6.80381">
        <ele>357</ele>
        <time>2014-04-13T12:30:15Z</time>
      </trkpt>
      <trkpt lat="47.54" lon="6.80374">
        <ele>357</ele>
        <time>2014-04-13T12:30:16Z</time>
      </trkpt>
      <trkpt lat="47.53985" lon="6.80347">
        <ele>357</ele>
        <time>2014-04-13T12:30:20Z</time>
      </trkpt>
      <trkpt lat="47.53971" lon="6.80322">
        <ele>357</ele>
        <time>2014-04-13T12:30:24Z</time>
      </trkpt>
      <trkpt lat="47.53951" lon="6.80281">
        <ele>357</ele>
        <time>2014-04-13T12:30:30Z</time>
      </trkpt>
      <trkpt lat="47.53936" lon="6.80246">
        <ele>357</ele>
        <time>2014-04-13T12:30:36Z</time>
      </trkpt>
      <trkpt lat="47.53926" lon="6.80228">
        <ele>357</ele>
        <time>2014-04-13T12:30:40Z</time>
      </trkpt>
      <trkpt lat="47.53924" lon="6.80222">
        <ele>357</ele>
        <time>2014-04-13T12:30:41Z</time>
      </trkpt>
      <trkpt lat="47.53916" lon="6.80202">
        <ele>357</ele>
        <time>2014-04-13T12:30:44Z</time>
      </trkpt>
      <trkpt lat="47.53909" lon="6.8019">
        <ele>357</ele>
        <time>2014-04-13T12:30:46Z</time>
      </trkpt>
      <trkpt lat="47.53906" lon="6.80184">
        <ele>357</ele>
        <time>2014-04-13T12:30:47Z</time>
      </trkpt>
      <trkpt lat="47.539" lon="6.80171">
        <ele>357</ele>
        <time>2014-04-13T12:30:49Z</time>
      </trkpt>
      <trkpt lat="47.53892" lon="6.80153">
        <ele>357</ele>
        <time>2014-04-13T12:30:52Z</time>
      </trkpt>
      <trkpt lat="47.53889" lon="6.80148">
        <ele>357</ele>
        <time>2014-04-13T12:30:53Z</time>
      </trkpt>
      <trkpt lat="47.53881" lon="6.8013">
        <ele>357</ele>
        <time>2014-04-13T12:30:56Z</time>
      </trkpt>
      <trkpt lat="47.53879" lon="6.80123">
        <ele>357</ele>
        <time>2014-04-13T12:30:57Z</time>
      </trkpt>
      <trkpt lat="47.53875" lon="6.80117">
        <ele>357</ele>
        <time>2014-04-13T12:30:58Z</time>
      </trkpt>
      <trkpt lat="47.53872" lon="6.80111">
        <ele>358</ele>
        <time>2014-04-13T12:30:59Z</time>
      </trkpt>
      <trkpt lat="47.53869" lon="6.80105">
        <ele>358</ele>
        <time>2014-04-13T12:31:00Z</time>
      </trkpt>
      <trkpt lat="47.53867" lon="6.80097">
        <ele>359</ele>
        <time>2014-04-13T12:31:01Z</time>
      </trkpt>
      <trkpt lat="47.53864" lon="6.80091">
        <ele>359</ele>
        <time>2014-04-13T12:31:02Z</time>
      </trkpt>
      <trkpt lat="47.53849" lon="6.80051">
        <ele>359</ele>
        <time>2014-04-13T12:31:08Z</time>
      </trkpt>
      <trkpt lat="47.53835" lon="6.80012">
        <ele>359</ele>
        <time>2014-04-13T12:31:14Z</time>
      </trkpt>
      <trkpt lat="47.5383" lon="6.8">
        <ele>359</ele>
        <time>2014-04-13T12:31:16Z</time>
      </trkpt>
      <trkpt lat="47.53832" lon="6.79995">
        <ele>359</ele>
        <time>2014-04-13T12:31:17Z</time>
      </trkpt>
      <trkpt lat="47.53836" lon="6.7999">
        <ele>359</ele>
        <time>2014-04-13T12:31:18Z</time>
      </trkpt>
      <trkpt lat="47.53855" lon="6.79975">
        <ele>359</ele>
        <time>2014-04-13T12:31:21Z</time>
      </trkpt>
      <trkpt lat="47.53862" lon="6.79967">
        <ele>358</ele>
        <time>2014-04-13T12:31:22Z</time>
      </trkpt>
      <trkpt lat="47.53869" lon="6.79958">
        <ele>358</ele>
        <time>2014-04-13T12:31:23Z</time>
      </trkpt>
      <trkpt lat="47.53874" lon="6.79947">
        <ele>358</ele>
        <time>2014-04-13T12:31:24Z</time>
      </trkpt>
      <trkpt lat="47.53878" lon="6.79934">
        <ele>357</ele>
        <time>2014-04-13T12:31:25Z</time>
      </trkpt>
      <trkpt lat="47.5388" lon="6.7992">
        <ele>356</ele>
        <time>2014-04-13T12:31:26Z</time>
      </trkpt>
      <trkpt lat="47.5388" lon="6.79906">
        <ele>355</ele>
        <time>2014-04-13T12:31:27Z</time>
      </trkpt>
      <trkpt lat="47.53879" lon="6.7989">
        <ele>355</ele>
        <time>2014-04-13T12:31:28Z</time>
      </trkpt>
      <trkpt lat="47.53878" lon="6.79879">
        <ele>354</ele>
        <time>2014-04-13T12:31:29Z</time>
      </trkpt>
      <trkpt lat="47.53881" lon="6.7987">
        <ele>353</ele>
        <time>2014-04-13T12:31:30Z</time>
      </trkpt>
      <trkpt lat="47.53887" lon="6.79864">
        <ele>353</ele>
        <time>2014-04-13T12:31:31Z</time>
      </trkpt>
      <trkpt lat="47.53892" lon="6.79861">
        <ele>352</ele>
        <time>2014-04-13T12:31:32Z</time>
      </trkpt>
      <trkpt lat="47.53896" lon="6.79854">
        <ele>352</ele>
        <time>2014-04-13T12:31:33Z</time>
      </trkpt>
      <trkpt lat="47.53897" lon="6.79845">
        <ele>352</ele>
        <time>2014-04-13T12:31:34Z</time>
      </trkpt>
      <trkpt lat="47.53888" lon="6.79817">
        <ele>352</ele>
        <time>2014-04-13T12:31:37Z</time>
      </trkpt>
      <trkpt lat="47.53879" lon="6.79789">
        <ele>351</ele>
        <time>2014-04-13T12:31:40Z</time>
      </trkpt>
      <trkpt lat="47.53877" lon="6.79778">
        <ele>351</ele>
        <time>2014-04-13T12:31:41Z</time>
      </trkpt>
      <trkpt lat="47.53875" lon="6.79768">
        <ele>350</ele>
        <time>2014-04-13T12:31:42Z</time>
      </trkpt>
      <trkpt lat="47.53873" lon="6.79757">
        <ele>350</ele>
        <time>2014-04-13T12:31:43Z</time>
      </trkpt>
      <trkpt lat="47.53869" lon="6.79747">
        <ele>350</ele>
        <time>2014-04-13T12:31:44Z</time>
      </trkpt>
      <trkpt lat="47.53865" lon="6.79736">
        <ele>350</ele>
        <time>2014-04-13T12:31:45Z</time>
      </trkpt>
      <trkpt lat="47.53862" lon="6.79725">
        <ele>349</ele>
        <time>2014-04-13T12:31:46Z</time>
      </trkpt>
      <trkpt lat="47.53857" lon="6.79714">
        <ele>348</ele>
        <time>2014-04-13T12:31:47Z</time>
      </trkpt>
      <trkpt lat="47.53852" lon="6.79703">
        <ele>348</ele>
        <time>2014-04-13T12:31:48Z</time>
      </trkpt>
      <trkpt lat="47.53847" lon="6.79691">
        <ele>347</ele>
        <time>2014-04-13T12:31:49Z</time>
      </trkpt>
      <trkpt lat="47.53841" lon="6.79679">
        <ele>347</ele>
        <time>2014-04-13T12:31:50Z</time>
      </trkpt>
      <trkpt lat="47.53835" lon="6.79667">
        <ele>346</ele>
        <time>2014-04-13T12:31:51Z</time>
      </trkpt>
      <trkpt lat="47.5383" lon="6.79656">
        <ele>346</ele>
        <time>2014-04-13T12:31:52Z</time>
      </trkpt>
      <trkpt lat="47.53824" lon="6.79646">
        <ele>345</ele>
        <time>2014-04-13T12:31:53Z</time>
      </trkpt>
      <trkpt lat="47.53817" lon="6.79637">
        <ele>345</ele>
        <time>2014-04-13T12:31:54Z</time>
      </trkpt>
      <trkpt lat="47.5381" lon="6.7963">
        <ele>344</ele>
        <time>2014-04-13T12:31:55Z</time>
      </trkpt>
      <trkpt lat="47.53804" lon="6.79623">
        <ele>344</ele>
        <time>2014-04-13T12:31:56Z</time>
      </trkpt>
      <trkpt lat="47.53796" lon="6.79615">
        <ele>343</ele>
        <time>2014-04-13T12:31:57Z</time>
      </trkpt>
      <trkpt lat="47.5379" lon="6.79606">
        <ele>343</ele>
        <time>2014-04-13T12:31:58Z</time>
      </trkpt>
      <trkpt lat="47.53784" lon="6.79596">
        <ele>343</ele>
        <time>2014-04-13T12:31:59Z</time>
      </trkpt>
      <trkpt lat="47.53778" lon="6.79588">
        <ele>343</ele>
        <time>2014-04-13T12:32:00Z</time>
      </trkpt>
      <trkpt lat="47.53772" lon="6.7958">
        <ele>342</ele>
        <time>2014-04-13T12:32:01Z</time>
      </trkpt>
      <trkpt lat="47.53766" lon="6.79571">
        <ele>342</ele>
        <time>2014-04-13T12:32:02Z</time>
      </trkpt>
      <trkpt lat="47.53759" lon="6.79563">
        <ele>342</ele>
        <time>2014-04-13T12:32:03Z</time>
      </trkpt>
      <trkpt lat="47.53753" lon="6.79555">
        <ele>341</ele>
        <time>2014-04-13T12:32:04Z</time>
      </trkpt>
      <trkpt lat="47.53746" lon="6.79547">
        <ele>341</ele>
        <time>2014-04-13T12:32:05Z</time>
      </trkpt>
      <trkpt lat="47.53734" lon="6.79531">
        <ele>341</ele>
        <time>2014-04-13T12:32:07Z</time>
      </trkpt>
      <trkpt lat="47.53715" lon="6.79509">
        <ele>341</ele>
        <time>2014-04-13T12:32:10Z</time>
      </trkpt>
      <trkpt lat="47.53708" lon="6.79501">
        <ele>340</ele>
        <time>2014-04-13T12:32:11Z</time>
      </trkpt>
      <trkpt lat="47.53701" lon="6.79494">
        <ele>340</ele>
        <time>2014-04-13T12:32:12Z</time>
      </trkpt>
      <trkpt lat="47.53695" lon="6.79487">
        <ele>339</ele>
        <time>2014-04-13T12:32:13Z</time>
      </trkpt>
      <trkpt lat="47.53688" lon="6.7948">
        <ele>339</ele>
        <time>2014-04-13T12:32:14Z</time>
      </trkpt>
      <trkpt lat="47.53681" lon="6.79472">
        <ele>338</ele>
        <time>2014-04-13T12:32:15Z</time>
      </trkpt>
      <trkpt lat="47.53668" lon="6.79456">
        <ele>338</ele>
        <time>2014-04-13T12:32:17Z</time>
      </trkpt>
      <trkpt lat="47.53661" lon="6.79447">
        <ele>338</ele>
        <time>2014-04-13T12:32:18Z</time>
      </trkpt>
      <trkpt lat="47.53655" lon="6.79439">
        <ele>337</ele>
        <time>2014-04-13T12:32:19Z</time>
      </trkpt>
      <trkpt lat="47.53648" lon="6.79432">
        <ele>337</ele>
        <time>2014-04-13T12:32:20Z</time>
      </trkpt>
      <trkpt lat="47.53641" lon="6.79425">
        <ele>336</ele>
        <time>2014-04-13T12:32:21Z</time>
      </trkpt>
      <trkpt lat="47.53629" lon="6.79411">
        <ele>336</ele>
        <time>2014-04-13T12:32:23Z</time>
      </trkpt>
      <trkpt lat="47.53624" lon="6.79402">
        <ele>335</ele>
        <time>2014-04-13T12:32:24Z</time>
      </trkpt>
      <trkpt lat="47.53619" lon="6.79393">
        <ele>335</ele>
        <time>2014-04-13T12:32:25Z</time>
      </trkpt>
      <trkpt lat="47.53615" lon="6.79384">
        <ele>335</ele>
        <time>2014-04-13T12:32:26Z</time>
      </trkpt>
      <trkpt lat="47.5361" lon="6.79377">
        <ele>334</ele>
        <time>2014-04-13T12:32:27Z</time>
      </trkpt>
      <trkpt lat="47.53603" lon="6.79366">
        <ele>334</ele>
        <time>2014-04-13T12:32:29Z</time>
      </trkpt>
      <trkpt lat="47.53596" lon="6.79357">
        <ele>334</ele>
        <time>2014-04-13T12:32:31Z</time>
      </trkpt>
      <trkpt lat="47.53594" lon="6.79354">
        <ele>334</ele>
        <time>2014-04-13T12:32:32Z</time>
      </trkpt>
      <trkpt lat="47.53593" lon="6.79351">
        <ele>333</ele>
        <time>2014-04-13T12:32:33Z</time>
      </trkpt>
      <trkpt lat="47.53592" lon="6.79347">
        <ele>333</ele>
        <time>2014-04-13T12:32:34Z</time>
      </trkpt>
      <trkpt lat="47.5359" lon="6.79345">
        <ele>332</ele>
        <time>2014-04-13T12:32:35Z</time>
      </trkpt>
      <trkpt lat="47.53586" lon="6.79344">
        <ele>332</ele>
        <time>2014-04-13T12:32:36Z</time>
      </trkpt>
      <trkpt lat="47.53574" lon="6.79349">
        <ele>332</ele>
        <time>2014-04-13T12:32:39Z</time>
      </trkpt>
      <trkpt lat="47.5357" lon="6.7935">
        <ele>332</ele>
        <time>2014-04-13T12:32:40Z</time>
      </trkpt>
      <trkpt lat="47.53568" lon="6.79351">
        <ele>331</ele>
        <time>2014-04-13T12:32:41Z</time>
      </trkpt>
      <trkpt lat="47.53566" lon="6.79348">
        <ele>331</ele>
        <time>2014-04-13T12:32:42Z</time>
      </trkpt>
      <trkpt lat="47.53567" lon="6.79347">
        <ele>330</ele>
        <time>2014-04-13T12:32:43Z</time>
      </trkpt>
      <trkpt lat="47.53569" lon="6.79344">
        <ele>330</ele>
        <time>2014-04-13T12:32:44Z</time>
      </trkpt>
      <trkpt lat="47.5358" lon="6.79343">
        <ele>330</ele>
        <time>2014-04-13T12:32:47Z</time>
      </trkpt>
      <trkpt lat="47.53592" lon="6.79337">
        <ele>330</ele>
        <time>2014-04-13T12:32:50Z</time>
      </trkpt>
      <trkpt lat="47.53595" lon="6.79333">
        <ele>330</ele>
        <time>2014-04-13T12:32:51Z</time>
      </trkpt>
      <trkpt lat="47.53597" lon="6.79326">
        <ele>330</ele>
        <time>2014-04-13T12:32:52Z</time>
      </trkpt>
      <trkpt lat="47.53602" lon="6.79311">
        <ele>330</ele>
        <time>2014-04-13T12:32:54Z</time>
      </trkpt>
      <trkpt lat="47.53604" lon="6.79303">
        <ele>330</ele>
        <time>2014-04-13T12:32:55Z</time>
      </trkpt>
      <trkpt lat="47.53606" lon="6.79274">
        <ele>330</ele>
        <time>2014-04-13T12:32:58Z</time>
      </trkpt>
      <trkpt lat="47.53602" lon="6.79257">
        <ele>329</ele>
        <time>2014-04-13T12:33:00Z</time>
      </trkpt>
      <trkpt lat="47.536" lon="6.79248">
        <ele>328</ele>
        <time>2014-04-13T12:33:01Z</time>
      </trkpt>
      <trkpt lat="47.53596" lon="6.79241">
        <ele>328</ele>
        <time>2014-04-13T12:33:02Z</time>
      </trkpt>
      <trkpt lat="47.53592" lon="6.79234">
        <ele>327</ele>
        <time>2014-04-13T12:33:03Z</time>
      </trkpt>
      <trkpt lat="47.53587" lon="6.79227">
        <ele>327</ele>
        <time>2014-04-13T12:33:04Z</time>
      </trkpt>
      <trkpt lat="47.53572" lon="6.79204">
        <ele>327</ele>
        <time>2014-04-13T12:33:07Z</time>
      </trkpt>
      <trkpt lat="47.53567" lon="6.79195">
        <ele>327</ele>
        <time>2014-04-13T12:33:08Z</time>
      </trkpt>
      <trkpt lat="47.53561" lon="6.79184">
        <ele>326</ele>
        <time>2014-04-13T12:33:09Z</time>
      </trkpt>
      <trkpt lat="47.53556" lon="6.79175">
        <ele>325</ele>
        <time>2014-04-13T12:33:10Z</time>
      </trkpt>
      <trkpt lat="47.53551" lon="6.79166">
        <ele>325</ele>
        <time>2014-04-13T12:33:11Z</time>
      </trkpt>
      <trkpt lat="47.53546" lon="6.79158">
        <ele>324</ele>
        <time>2014-04-13T12:33:12Z</time>
      </trkpt>
      <trkpt lat="47.53541" lon="6.7915">
        <ele>323</ele>
        <time>2014-04-13T12:33:13Z</time>
      </trkpt>
      <trkpt lat="47.53537" lon="6.79142">
        <ele>322</ele>
        <time>2014-04-13T12:33:14Z</time>
      </trkpt>
      <trkpt lat="47.53521" lon="6.7911">
        <ele>322</ele>
        <time>2014-04-13T12:33:18Z</time>
      </trkpt>
      <trkpt lat="47.53501" lon="6.79078">
        <ele>322</ele>
        <time>2014-04-13T12:33:23Z</time>
      </trkpt>
      <trkpt lat="47.53498" lon="6.79077">
        <ele>322</ele>
        <time>2014-04-13T12:33:25Z</time>
      </trkpt>
      <trkpt lat="47.53494" lon="6.79076">
        <ele>322</ele>
        <time>2014-04-13T12:33:26Z</time>
      </trkpt>
      <trkpt lat="47.53483" lon="6.79069">
        <ele>322</ele>
        <time>2014-04-13T12:33:29Z</time>
      </trkpt>
      <trkpt lat="47.53478" lon="6.79067">
        <ele>322</ele>
        <time>2014-04-13T12:33:30Z</time>
      </trkpt>
      <trkpt lat="47.5347" lon="6.79075">
        <ele>322</ele>
        <time>2014-04-13T12:33:32Z</time>
      </trkpt>
      <trkpt lat="47.5346" lon="6.79083">
        <ele>322</ele>
        <time>2014-04-13T12:33:34Z</time>
      </trkpt>
      <trkpt lat="47.5345" lon="6.79089">
        <ele>322</ele>
        <time>2014-04-13T12:33:36Z</time>
      </trkpt>
      <trkpt lat="47.53441" lon="6.79096">
        <ele>322</ele>
        <time>2014-04-13T12:33:38Z</time>
      </trkpt>
      <trkpt lat="47.53437" lon="6.79118">
        <ele>322</ele>
        <time>2014-04-13T12:33:40Z</time>
      </trkpt>
      <trkpt lat="47.53439" lon="6.79125">
        <ele>322</ele>
        <time>2014-04-13T12:33:42Z</time>
      </trkpt>
      <trkpt lat="47.53445" lon="6.79137">
        <ele>322</ele>
        <time>2014-04-13T12:33:44Z</time>
      </trkpt>
      <trkpt lat="47.53464" lon="6.7915">
        <ele>322</ele>
        <time>2014-04-13T12:33:48Z</time>
      </trkpt>
      <trkpt lat="47.53469" lon="6.79152">
        <ele>322</ele>
        <time>2014-04-13T12:33:49Z</time>
      </trkpt>
      <trkpt lat="47.53478" lon="6.79159">
        <ele>322</ele>
        <time>2014-04-13T12:33:51Z</time>
      </trkpt>
      <trkpt lat="47.53482" lon="6.79167">
        <ele>322</ele>
        <time>2014-04-13T12:33:52Z</time>
      </trkpt>
      <trkpt lat="47.53488" lon="6.79189">
        <ele>322</ele>
        <time>2014-04-13T12:33:55Z</time>
      </trkpt>
      <trkpt lat="47.53491" lon="6.79196">
        <ele>322</ele>
        <time>2014-04-13T12:33:56Z</time>
      </trkpt>
      <trkpt lat="47.53493" lon="6.79203">
        <ele>322</ele>
        <time>2014-04-13T12:33:57Z</time>
      </trkpt>
      <trkpt lat="47.53496" lon="6.79208">
        <ele>322</ele>
        <time>2014-04-13T12:33:58Z</time>
      </trkpt>
      <trkpt lat="47.53506" lon="6.79224">
        <ele>322</ele>
        <time>2014-04-13T12:34:01Z</time>
      </trkpt>
      <trkpt lat="47.53514" lon="6.79252">
        <ele>322</ele>
        <time>2014-04-13T12:34:05Z</time>
      </trkpt>
      <trkpt lat="47.53514" lon="6.79259">
        <ele>322</ele>
        <time>2014-04-13T12:34:06Z</time>
      </trkpt>
      <trkpt lat="47.53503" lon="6.79278">
        <ele>322</ele>
        <time>2014-04-13T12:34:09Z</time>
      </trkpt>
      <trkpt lat="47.53497" lon="6.79291">
        <ele>322</ele>
        <time>2014-04-13T12:34:11Z</time>
      </trkpt>
      <trkpt lat="47.53489" lon="6.79304">
        <ele>322</ele>
        <time>2014-04-13T12:34:13Z</time>
      </trkpt>
      <trkpt lat="47.53484" lon="6.79306">
        <ele>322</ele>
        <time>2014-04-13T12:34:14Z</time>
      </trkpt>
      <trkpt lat="47.53474" lon="6.79317">
        <ele>322</ele>
        <time>2014-04-13T12:34:16Z</time>
      </trkpt>
      <trkpt lat="47.53471" lon="6.79324">
        <ele>322</ele>
        <time>2014-04-13T12:34:17Z</time>
      </trkpt>
      <trkpt lat="47.5346" lon="6.79323">
        <ele>322</ele>
        <time>2014-04-13T12:34:19Z</time>
      </trkpt>
      <trkpt lat="47.5345" lon="6.79315">
        <ele>322</ele>
        <time>2014-04-13T12:34:21Z</time>
      </trkpt>
      <trkpt lat="47.5344" lon="6.79309">
        <ele>322</ele>
        <time>2014-04-13T12:34:23Z</time>
      </trkpt>
      <trkpt lat="47.53434" lon="6.79307">
        <ele>322</ele>
        <time>2014-04-13T12:34:24Z</time>
      </trkpt>
      <trkpt lat="47.53419" lon="6.79305">
        <ele>322</ele>
        <time>2014-04-13T12:34:27Z</time>
      </trkpt>
      <trkpt lat="47.53415" lon="6.79306">
        <ele>322</ele>
        <time>2014-04-13T12:34:28Z</time>
      </trkpt>
      <trkpt lat="47.53397" lon="6.79316">
        <ele>322</ele>
        <time>2014-04-13T12:34:32Z</time>
      </trkpt>
      <trkpt lat="47.53391" lon="6.79323">
        <ele>322</ele>
        <time>2014-04-13T12:34:34Z</time>
      </trkpt>
      <trkpt lat="47.5339" lon="6.79332">
        <ele>322</ele>
        <time>2014-04-13T12:34:36Z</time>
      </trkpt>
      <trkpt lat="47.53389" lon="6.79344">
        <ele>322</ele>
        <time>2014-04-13T12:34:38Z</time>
      </trkpt>
      <trkpt lat="47.53387" lon="6.79359">
        <ele>322</ele>
        <time>2014-04-13T12:34:40Z</time>
      </trkpt>
      <trkpt lat="47.53385" lon="6.79366">
        <ele>322</ele>
        <time>2014-04-13T12:34:41Z</time>
      </trkpt>
      <trkpt lat="47.53375" lon="6.79381">
        <ele>322</ele>
        <time>2014-04-13T12:34:44Z</time>
      </trkpt>
      <trkpt lat="47.53371" lon="6.79386">
        <ele>322</ele>
        <time>2014-04-13T12:34:45Z</time>
      </trkpt>
      <trkpt lat="47.53368" lon="6.79393">
        <ele>322</ele>
        <time>2014-04-13T12:34:46Z</time>
      </trkpt>
      <trkpt lat="47.53363" lon="6.79406">
        <ele>322</ele>
        <time>2014-04-13T12:34:48Z</time>
      </trkpt>
      <trkpt lat="47.53359" lon="6.79412">
        <ele>322</ele>
        <time>2014-04-13T12:34:49Z</time>
      </trkpt>
      <trkpt lat="47.53345" lon="6.79421">
        <ele>322</ele>
        <time>2014-04-13T12:34:52Z</time>
      </trkpt>
      <trkpt lat="47.53335" lon="6.79423">
        <ele>322</ele>
        <time>2014-04-13T12:34:54Z</time>
      </trkpt>
      <trkpt lat="47.5332" lon="6.79425">
        <ele>322</ele>
        <time>2014-04-13T12:34:57Z</time>
      </trkpt>
      <trkpt lat="47.53311" lon="6.79426">
        <ele>322</ele>
        <time>2014-04-13T12:34:59Z</time>
      </trkpt>
      <trkpt lat="47.53294" lon="6.79429">
        <ele>322</ele>
        <time>2014-04-13T12:35:02Z</time>
      </trkpt>
      <trkpt lat="47.53289" lon="6.79429">
        <ele>322</ele>
        <time>2014-04-13T12:35:03Z</time>
      </trkpt>
      <trkpt lat="47.53279" lon="6.79427">
        <ele>322</ele>
        <time>2014-04-13T12:35:05Z</time>
      </trkpt>
      <trkpt lat="47.53269" lon="6.79427">
        <ele>322</ele>
        <time>2014-04-13T12:35:07Z</time>
      </trkpt>
      <trkpt lat="47.53263" lon="6.79428">
        <ele>322</ele>
        <time>2014-04-13T12:35:08Z</time>
      </trkpt>
      <trkpt lat="47.53246" lon="6.79428">
        <ele>322</ele>
        <time>2014-04-13T12:35:12Z</time>
      </trkpt>
      <trkpt lat="47.53231" lon="6.79439">
        <ele>322</ele>
        <time>2014-04-13T12:35:16Z</time>
      </trkpt>
      <trkpt lat="47.53224" lon="6.79457">
        <ele>322</ele>
        <time>2014-04-13T12:35:19Z</time>
      </trkpt>
      <trkpt lat="47.53215" lon="6.79464">
        <ele>322</ele>
        <time>2014-04-13T12:35:21Z</time>
      </trkpt>
      <trkpt lat="47.53212" lon="6.79469">
        <ele>322</ele>
        <time>2014-04-13T12:35:22Z</time>
      </trkpt>
      <trkpt lat="47.53195" lon="6.79486">
        <ele>322</ele>
        <time>2014-04-13T12:35:26Z</time>
      </trkpt>
      <trkpt lat="47.53191" lon="6.7949">
        <ele>322</ele>
        <time>2014-04-13T12:35:27Z</time>
      </trkpt>
      <trkpt lat="47.53169" lon="6.79515">
        <ele>322</ele>
        <time>2014-04-13T12:35:33Z</time>
      </trkpt>
      <trkpt lat="47.53158" lon="6.79521">
        <ele>322</ele>
        <time>2014-04-13T12:35:37Z</time>
      </trkpt>
      <trkpt lat="47.5315" lon="6.79508">
        <ele>322</ele>
        <time>2014-04-13T12:35:41Z</time>
      </trkpt>
      <trkpt lat="47.53141" lon="6.79488">
        <ele>322</ele>
        <time>2014-04-13T12:35:45Z</time>
      </trkpt>
      <trkpt lat="47.53124" lon="6.79467">
        <ele>322</ele>
        <time>2014-04-13T12:35:50Z</time>
      </trkpt>
      <trkpt lat="47.53113" lon="6.79456">
        <ele>322</ele>
        <time>2014-04-13T12:35:53Z</time>
      </trkpt>
      <trkpt lat="47.53101" lon="6.79447">
        <ele>322</ele>
        <time>2014-04-13T12:35:56Z</time>
      </trkpt>
      <trkpt lat="47.53098" lon="6.79443">
        <ele>322</ele>
        <time>2014-04-13T12:35:57Z</time>
      </trkpt>
      <trkpt lat="47.53089" lon="6.79429">
        <ele>322</ele>
        <time>2014-04-13T12:36:00Z</time>
      </trkpt>
      <trkpt lat="47.53087" lon="6.79423">
        <ele>322</ele>
        <time>2014-04-13T12:36:01Z</time>
      </trkpt>
      <trkpt lat="47.53087" lon="6.79401">
        <ele>322</ele>
        <time>2014-04-13T12:36:05Z</time>
      </trkpt>
      <trkpt lat="47.5309" lon="6.7938">
        <ele>322</ele>
        <time>2014-04-13T12:36:09Z</time>
      </trkpt>
      <trkpt lat="47.53091" lon="6.79373">
        <ele>322</ele>
        <time>2014-04-13T12:36:10Z</time>
      </trkpt>
      <trkpt lat="47.53093" lon="6.79348">
        <ele>322</ele>
        <time>2014-04-13T12:36:14Z</time>
      </trkpt>
      <trkpt lat="47.53093" lon="6.79334">
        <ele>322</ele>
        <time>2014-04-13T12:36:17Z</time>
      </trkpt>
    </trkseg>
  </trk>
</gpx>